<?xml version="1.0" encoding="UTF-8" standalone="no" ?>
<gpx xmlns="http://www.topografix.com/GPX/1/1" xmlns:xsi="http://www.w3.org/2001/XMLSchema-instance" xsi:schemaLocation="http://www.topografix.com/GPX/1/1 http://www.topografix.com/GPX/1/1/gpx.xsd" version="1.1" creator="VisuGPX - https://www.visugpx.com">
  <metadata>
    <name>les deux roches</name>
    <desc><![CDATA[les deux roches 2014]]></desc>
  </metadata>
  <trk>
    <name><![CDATA[VTT les deux roches]]></name>
    <trkseg>
      <trkpt lat="46.29668" lon="4.721">
        <ele>367</ele>
        <time>2014-09-28T06:45:44Z</time>
      </trkpt>
      <trkpt lat="46.29667" lon="4.72106">
        <ele>360</ele>
        <time>2014-09-28T06:45:45Z</time>
      </trkpt>
      <trkpt lat="46.29671" lon="4.72114">
        <ele>366</ele>
        <time>2014-09-28T06:45:48Z</time>
      </trkpt>
      <trkpt lat="46.29674" lon="4.72116">
        <ele>366</ele>
        <time>2014-09-28T06:45:49Z</time>
      </trkpt>
      <trkpt lat="46.29679" lon="4.72122">
        <ele>366</ele>
        <time>2014-09-28T06:45:51Z</time>
      </trkpt>
      <trkpt lat="46.29682" lon="4.72124">
        <ele>366</ele>
        <time>2014-09-28T06:45:52Z</time>
      </trkpt>
      <trkpt lat="46.29687" lon="4.72131">
        <ele>365</ele>
        <time>2014-09-28T06:45:54Z</time>
      </trkpt>
      <trkpt lat="46.29691" lon="4.72135">
        <ele>365</ele>
        <time>2014-09-28T06:45:55Z</time>
      </trkpt>
      <trkpt lat="46.29697" lon="4.72144">
        <ele>365</ele>
        <time>2014-09-28T06:45:57Z</time>
      </trkpt>
      <trkpt lat="46.297" lon="4.72148">
        <ele>365</ele>
        <time>2014-09-28T06:45:58Z</time>
      </trkpt>
      <trkpt lat="46.29705" lon="4.72155">
        <ele>365</ele>
        <time>2014-09-28T06:46:00Z</time>
      </trkpt>
      <trkpt lat="46.29708" lon="4.7216">
        <ele>365</ele>
        <time>2014-09-28T06:46:01Z</time>
      </trkpt>
      <trkpt lat="46.29711" lon="4.72168">
        <ele>359</ele>
        <time>2014-09-28T06:46:02Z</time>
      </trkpt>
      <trkpt lat="46.29715" lon="4.72174">
        <ele>359</ele>
        <time>2014-09-28T06:46:03Z</time>
      </trkpt>
      <trkpt lat="46.29719" lon="4.72181">
        <ele>359</ele>
        <time>2014-09-28T06:46:04Z</time>
      </trkpt>
      <trkpt lat="46.29723" lon="4.72187">
        <ele>359</ele>
        <time>2014-09-28T06:46:05Z</time>
      </trkpt>
      <trkpt lat="46.29725" lon="4.72196">
        <ele>358</ele>
        <time>2014-09-28T06:46:06Z</time>
      </trkpt>
      <trkpt lat="46.29728" lon="4.72202">
        <ele>358</ele>
        <time>2014-09-28T06:46:07Z</time>
      </trkpt>
      <trkpt lat="46.29731" lon="4.7221">
        <ele>358</ele>
        <time>2014-09-28T06:46:08Z</time>
      </trkpt>
      <trkpt lat="46.29734" lon="4.72218">
        <ele>357</ele>
        <time>2014-09-28T06:46:09Z</time>
      </trkpt>
      <trkpt lat="46.29735" lon="4.72227">
        <ele>357</ele>
        <time>2014-09-28T06:46:10Z</time>
      </trkpt>
      <trkpt lat="46.29735" lon="4.72235">
        <ele>356</ele>
        <time>2014-09-28T06:46:11Z</time>
      </trkpt>
      <trkpt lat="46.29736" lon="4.72244">
        <ele>356</ele>
        <time>2014-09-28T06:46:12Z</time>
      </trkpt>
      <trkpt lat="46.29738" lon="4.72252">
        <ele>352</ele>
        <time>2014-09-28T06:46:13Z</time>
      </trkpt>
      <trkpt lat="46.2974" lon="4.72259">
        <ele>352</ele>
        <time>2014-09-28T06:46:14Z</time>
      </trkpt>
      <trkpt lat="46.29742" lon="4.72266">
        <ele>351</ele>
        <time>2014-09-28T06:46:15Z</time>
      </trkpt>
      <trkpt lat="46.29744" lon="4.72273">
        <ele>350</ele>
        <time>2014-09-28T06:46:16Z</time>
      </trkpt>
      <trkpt lat="46.29745" lon="4.7228">
        <ele>349</ele>
        <time>2014-09-28T06:46:17Z</time>
      </trkpt>
      <trkpt lat="46.29745" lon="4.72292">
        <ele>348</ele>
        <time>2014-09-28T06:46:19Z</time>
      </trkpt>
      <trkpt lat="46.29745" lon="4.72299">
        <ele>347</ele>
        <time>2014-09-28T06:46:20Z</time>
      </trkpt>
      <trkpt lat="46.29746" lon="4.72307">
        <ele>347</ele>
        <time>2014-09-28T06:46:21Z</time>
      </trkpt>
      <trkpt lat="46.29746" lon="4.72316">
        <ele>346</ele>
        <time>2014-09-28T06:46:22Z</time>
      </trkpt>
      <trkpt lat="46.29747" lon="4.72324">
        <ele>346</ele>
        <time>2014-09-28T06:46:23Z</time>
      </trkpt>
      <trkpt lat="46.29748" lon="4.72332">
        <ele>346</ele>
        <time>2014-09-28T06:46:24Z</time>
      </trkpt>
      <trkpt lat="46.29747" lon="4.72341">
        <ele>343</ele>
        <time>2014-09-28T06:46:25Z</time>
      </trkpt>
      <trkpt lat="46.29748" lon="4.72349">
        <ele>342</ele>
        <time>2014-09-28T06:46:26Z</time>
      </trkpt>
      <trkpt lat="46.2975" lon="4.72358">
        <ele>348</ele>
        <time>2014-09-28T06:46:27Z</time>
      </trkpt>
      <trkpt lat="46.29752" lon="4.72367">
        <ele>348</ele>
        <time>2014-09-28T06:46:28Z</time>
      </trkpt>
      <trkpt lat="46.29754" lon="4.72376">
        <ele>347</ele>
        <time>2014-09-28T06:46:29Z</time>
      </trkpt>
      <trkpt lat="46.29757" lon="4.72387">
        <ele>346</ele>
        <time>2014-09-28T06:46:30Z</time>
      </trkpt>
      <trkpt lat="46.29759" lon="4.72397">
        <ele>345</ele>
        <time>2014-09-28T06:46:31Z</time>
      </trkpt>
      <trkpt lat="46.29762" lon="4.72406">
        <ele>343</ele>
        <time>2014-09-28T06:46:32Z</time>
      </trkpt>
      <trkpt lat="46.29766" lon="4.72416">
        <ele>343</ele>
        <time>2014-09-28T06:46:33Z</time>
      </trkpt>
      <trkpt lat="46.29769" lon="4.72427">
        <ele>342</ele>
        <time>2014-09-28T06:46:34Z</time>
      </trkpt>
      <trkpt lat="46.29771" lon="4.72437">
        <ele>342</ele>
        <time>2014-09-28T06:46:35Z</time>
      </trkpt>
      <trkpt lat="46.29774" lon="4.72448">
        <ele>343</ele>
        <time>2014-09-28T06:46:36Z</time>
      </trkpt>
      <trkpt lat="46.29775" lon="4.72459">
        <ele>343</ele>
        <time>2014-09-28T06:46:37Z</time>
      </trkpt>
      <trkpt lat="46.29777" lon="4.72471">
        <ele>342</ele>
        <time>2014-09-28T06:46:38Z</time>
      </trkpt>
      <trkpt lat="46.29781" lon="4.72483">
        <ele>342</ele>
        <time>2014-09-28T06:46:39Z</time>
      </trkpt>
      <trkpt lat="46.29784" lon="4.72495">
        <ele>342</ele>
        <time>2014-09-28T06:46:40Z</time>
      </trkpt>
      <trkpt lat="46.29787" lon="4.72507">
        <ele>338</ele>
        <time>2014-09-28T06:46:41Z</time>
      </trkpt>
      <trkpt lat="46.29789" lon="4.72517">
        <ele>338</ele>
        <time>2014-09-28T06:46:42Z</time>
      </trkpt>
      <trkpt lat="46.29791" lon="4.72528">
        <ele>338</ele>
        <time>2014-09-28T06:46:43Z</time>
      </trkpt>
      <trkpt lat="46.2979" lon="4.72538">
        <ele>337</ele>
        <time>2014-09-28T06:46:44Z</time>
      </trkpt>
      <trkpt lat="46.29791" lon="4.72549">
        <ele>337</ele>
        <time>2014-09-28T06:46:45Z</time>
      </trkpt>
      <trkpt lat="46.29791" lon="4.72558">
        <ele>337</ele>
        <time>2014-09-28T06:46:46Z</time>
      </trkpt>
      <trkpt lat="46.29791" lon="4.72567">
        <ele>336</ele>
        <time>2014-09-28T06:46:47Z</time>
      </trkpt>
      <trkpt lat="46.29792" lon="4.72577">
        <ele>336</ele>
        <time>2014-09-28T06:46:48Z</time>
      </trkpt>
      <trkpt lat="46.29793" lon="4.72586">
        <ele>330</ele>
        <time>2014-09-28T06:46:49Z</time>
      </trkpt>
      <trkpt lat="46.29793" lon="4.72597">
        <ele>330</ele>
        <time>2014-09-28T06:46:50Z</time>
      </trkpt>
      <trkpt lat="46.29795" lon="4.72607">
        <ele>329</ele>
        <time>2014-09-28T06:46:51Z</time>
      </trkpt>
      <trkpt lat="46.29799" lon="4.72618">
        <ele>329</ele>
        <time>2014-09-28T06:46:52Z</time>
      </trkpt>
      <trkpt lat="46.29801" lon="4.72629">
        <ele>328</ele>
        <time>2014-09-28T06:46:53Z</time>
      </trkpt>
      <trkpt lat="46.29804" lon="4.72642">
        <ele>328</ele>
        <time>2014-09-28T06:46:54Z</time>
      </trkpt>
      <trkpt lat="46.29808" lon="4.72655">
        <ele>328</ele>
        <time>2014-09-28T06:46:55Z</time>
      </trkpt>
      <trkpt lat="46.29814" lon="4.72666">
        <ele>329</ele>
        <time>2014-09-28T06:46:56Z</time>
      </trkpt>
      <trkpt lat="46.29819" lon="4.72678">
        <ele>325</ele>
        <time>2014-09-28T06:46:57Z</time>
      </trkpt>
      <trkpt lat="46.29823" lon="4.72692">
        <ele>323</ele>
        <time>2014-09-28T06:46:58Z</time>
      </trkpt>
      <trkpt lat="46.29827" lon="4.72705">
        <ele>322</ele>
        <time>2014-09-28T06:46:59Z</time>
      </trkpt>
      <trkpt lat="46.29831" lon="4.7272">
        <ele>321</ele>
        <time>2014-09-28T06:47:00Z</time>
      </trkpt>
      <trkpt lat="46.29834" lon="4.72734">
        <ele>327</ele>
        <time>2014-09-28T06:47:01Z</time>
      </trkpt>
      <trkpt lat="46.29834" lon="4.7275">
        <ele>322</ele>
        <time>2014-09-28T06:47:02Z</time>
      </trkpt>
      <trkpt lat="46.29838" lon="4.72765">
        <ele>323</ele>
        <time>2014-09-28T06:47:03Z</time>
      </trkpt>
      <trkpt lat="46.29838" lon="4.72781">
        <ele>323</ele>
        <time>2014-09-28T06:47:04Z</time>
      </trkpt>
      <trkpt lat="46.29841" lon="4.72796">
        <ele>323</ele>
        <time>2014-09-28T06:47:05Z</time>
      </trkpt>
      <trkpt lat="46.29843" lon="4.72811">
        <ele>322</ele>
        <time>2014-09-28T06:47:06Z</time>
      </trkpt>
      <trkpt lat="46.29845" lon="4.72826">
        <ele>321</ele>
        <time>2014-09-28T06:47:07Z</time>
      </trkpt>
      <trkpt lat="46.29847" lon="4.72838">
        <ele>319</ele>
        <time>2014-09-28T06:47:08Z</time>
      </trkpt>
      <trkpt lat="46.29851" lon="4.7285">
        <ele>319</ele>
        <time>2014-09-28T06:47:09Z</time>
      </trkpt>
      <trkpt lat="46.29855" lon="4.72861">
        <ele>319</ele>
        <time>2014-09-28T06:47:10Z</time>
      </trkpt>
      <trkpt lat="46.29859" lon="4.72872">
        <ele>319</ele>
        <time>2014-09-28T06:47:11Z</time>
      </trkpt>
      <trkpt lat="46.29864" lon="4.72882">
        <ele>319</ele>
        <time>2014-09-28T06:47:12Z</time>
      </trkpt>
      <trkpt lat="46.29868" lon="4.72893">
        <ele>318</ele>
        <time>2014-09-28T06:47:13Z</time>
      </trkpt>
      <trkpt lat="46.29871" lon="4.72906">
        <ele>318</ele>
        <time>2014-09-28T06:47:14Z</time>
      </trkpt>
      <trkpt lat="46.29876" lon="4.72917">
        <ele>315</ele>
        <time>2014-09-28T06:47:15Z</time>
      </trkpt>
      <trkpt lat="46.29882" lon="4.72927">
        <ele>315</ele>
        <time>2014-09-28T06:47:16Z</time>
      </trkpt>
      <trkpt lat="46.29887" lon="4.72938">
        <ele>315</ele>
        <time>2014-09-28T06:47:17Z</time>
      </trkpt>
      <trkpt lat="46.29893" lon="4.72948">
        <ele>315</ele>
        <time>2014-09-28T06:47:18Z</time>
      </trkpt>
      <trkpt lat="46.29901" lon="4.72958">
        <ele>315</ele>
        <time>2014-09-28T06:47:19Z</time>
      </trkpt>
      <trkpt lat="46.29906" lon="4.72969">
        <ele>314</ele>
        <time>2014-09-28T06:47:20Z</time>
      </trkpt>
      <trkpt lat="46.29911" lon="4.72978">
        <ele>314</ele>
        <time>2014-09-28T06:47:21Z</time>
      </trkpt>
      <trkpt lat="46.29918" lon="4.72984">
        <ele>319</ele>
        <time>2014-09-28T06:47:22Z</time>
      </trkpt>
      <trkpt lat="46.29924" lon="4.72985">
        <ele>319</ele>
        <time>2014-09-28T06:47:23Z</time>
      </trkpt>
      <trkpt lat="46.2993" lon="4.72984">
        <ele>320</ele>
        <time>2014-09-28T06:47:24Z</time>
      </trkpt>
      <trkpt lat="46.29939" lon="4.72981">
        <ele>321</ele>
        <time>2014-09-28T06:47:26Z</time>
      </trkpt>
      <trkpt lat="46.29942" lon="4.7298">
        <ele>322</ele>
        <time>2014-09-28T06:47:27Z</time>
      </trkpt>
      <trkpt lat="46.29949" lon="4.72981">
        <ele>323</ele>
        <time>2014-09-28T06:47:30Z</time>
      </trkpt>
      <trkpt lat="46.29952" lon="4.72983">
        <ele>323</ele>
        <time>2014-09-28T06:47:31Z</time>
      </trkpt>
      <trkpt lat="46.29959" lon="4.72985">
        <ele>324</ele>
        <time>2014-09-28T06:47:34Z</time>
      </trkpt>
      <trkpt lat="46.29962" lon="4.72985">
        <ele>324</ele>
        <time>2014-09-28T06:47:35Z</time>
      </trkpt>
      <trkpt lat="46.2997" lon="4.7299">
        <ele>325</ele>
        <time>2014-09-28T06:47:39Z</time>
      </trkpt>
      <trkpt lat="46.29972" lon="4.72991">
        <ele>325</ele>
        <time>2014-09-28T06:47:40Z</time>
      </trkpt>
      <trkpt lat="46.29978" lon="4.72996">
        <ele>326</ele>
        <time>2014-09-28T06:47:43Z</time>
      </trkpt>
      <trkpt lat="46.2998" lon="4.72997">
        <ele>327</ele>
        <time>2014-09-28T06:47:44Z</time>
      </trkpt>
      <trkpt lat="46.29988" lon="4.73003">
        <ele>326</ele>
        <time>2014-09-28T06:47:48Z</time>
      </trkpt>
      <trkpt lat="46.2999" lon="4.73005">
        <ele>326</ele>
        <time>2014-09-28T06:47:49Z</time>
      </trkpt>
      <trkpt lat="46.29996" lon="4.73007">
        <ele>327</ele>
        <time>2014-09-28T06:47:52Z</time>
      </trkpt>
      <trkpt lat="46.29999" lon="4.73008">
        <ele>327</ele>
        <time>2014-09-28T06:47:53Z</time>
      </trkpt>
      <trkpt lat="46.30005" lon="4.7301">
        <ele>331</ele>
        <time>2014-09-28T06:47:56Z</time>
      </trkpt>
      <trkpt lat="46.30008" lon="4.7301">
        <ele>331</ele>
        <time>2014-09-28T06:47:57Z</time>
      </trkpt>
      <trkpt lat="46.30015" lon="4.73013">
        <ele>332</ele>
        <time>2014-09-28T06:48:00Z</time>
      </trkpt>
      <trkpt lat="46.30017" lon="4.73014">
        <ele>332</ele>
        <time>2014-09-28T06:48:01Z</time>
      </trkpt>
      <trkpt lat="46.30025" lon="4.73017">
        <ele>332</ele>
        <time>2014-09-28T06:48:06Z</time>
      </trkpt>
      <trkpt lat="46.30027" lon="4.73017">
        <ele>333</ele>
        <time>2014-09-28T06:48:06Z</time>
      </trkpt>
      <trkpt lat="46.30036" lon="4.73018">
        <ele>333</ele>
        <time>2014-09-28T06:48:10Z</time>
      </trkpt>
      <trkpt lat="46.30038" lon="4.73019">
        <ele>333</ele>
        <time>2014-09-28T06:48:11Z</time>
      </trkpt>
      <trkpt lat="46.30046" lon="4.7302">
        <ele>334</ele>
        <time>2014-09-28T06:48:15Z</time>
      </trkpt>
      <trkpt lat="46.30048" lon="4.73021">
        <ele>334</ele>
        <time>2014-09-28T06:48:16Z</time>
      </trkpt>
      <trkpt lat="46.30056" lon="4.73023">
        <ele>335</ele>
        <time>2014-09-28T06:48:20Z</time>
      </trkpt>
      <trkpt lat="46.30058" lon="4.73024">
        <ele>335</ele>
        <time>2014-09-28T06:48:21Z</time>
      </trkpt>
      <trkpt lat="46.30066" lon="4.73028">
        <ele>335</ele>
        <time>2014-09-28T06:48:26Z</time>
      </trkpt>
      <trkpt lat="46.30068" lon="4.73028">
        <ele>336</ele>
        <time>2014-09-28T06:48:26Z</time>
      </trkpt>
      <trkpt lat="46.30074" lon="4.7303">
        <ele>336</ele>
        <time>2014-09-28T06:48:29Z</time>
      </trkpt>
      <trkpt lat="46.30076" lon="4.73032">
        <ele>336</ele>
        <time>2014-09-28T06:48:30Z</time>
      </trkpt>
      <trkpt lat="46.30082" lon="4.73039">
        <ele>335</ele>
        <time>2014-09-28T06:48:33Z</time>
      </trkpt>
      <trkpt lat="46.30084" lon="4.73042">
        <ele>340</ele>
        <time>2014-09-28T06:48:34Z</time>
      </trkpt>
      <trkpt lat="46.30088" lon="4.73048">
        <ele>340</ele>
        <time>2014-09-28T06:48:36Z</time>
      </trkpt>
      <trkpt lat="46.3009" lon="4.73052">
        <ele>339</ele>
        <time>2014-09-28T06:48:37Z</time>
      </trkpt>
      <trkpt lat="46.30094" lon="4.73059">
        <ele>339</ele>
        <time>2014-09-28T06:48:39Z</time>
      </trkpt>
      <trkpt lat="46.30096" lon="4.73063">
        <ele>339</ele>
        <time>2014-09-28T06:48:40Z</time>
      </trkpt>
      <trkpt lat="46.30101" lon="4.73068">
        <ele>339</ele>
        <time>2014-09-28T06:48:42Z</time>
      </trkpt>
      <trkpt lat="46.30104" lon="4.7307">
        <ele>339</ele>
        <time>2014-09-28T06:48:43Z</time>
      </trkpt>
      <trkpt lat="46.30111" lon="4.73074">
        <ele>339</ele>
        <time>2014-09-28T06:48:45Z</time>
      </trkpt>
      <trkpt lat="46.30114" lon="4.73075">
        <ele>339</ele>
        <time>2014-09-28T06:48:46Z</time>
      </trkpt>
      <trkpt lat="46.30121" lon="4.73077">
        <ele>339</ele>
        <time>2014-09-28T06:48:48Z</time>
      </trkpt>
      <trkpt lat="46.30125" lon="4.73078">
        <ele>339</ele>
        <time>2014-09-28T06:48:49Z</time>
      </trkpt>
      <trkpt lat="46.30133" lon="4.73081">
        <ele>340</ele>
        <time>2014-09-28T06:48:51Z</time>
      </trkpt>
      <trkpt lat="46.30137" lon="4.73082">
        <ele>340</ele>
        <time>2014-09-28T06:48:52Z</time>
      </trkpt>
      <trkpt lat="46.30145" lon="4.73084">
        <ele>336</ele>
        <time>2014-09-28T06:48:54Z</time>
      </trkpt>
      <trkpt lat="46.30149" lon="4.73085">
        <ele>336</ele>
        <time>2014-09-28T06:48:55Z</time>
      </trkpt>
      <trkpt lat="46.30157" lon="4.73086">
        <ele>337</ele>
        <time>2014-09-28T06:48:57Z</time>
      </trkpt>
      <trkpt lat="46.30162" lon="4.73086">
        <ele>338</ele>
        <time>2014-09-28T06:48:58Z</time>
      </trkpt>
      <trkpt lat="46.30171" lon="4.73084">
        <ele>338</ele>
        <time>2014-09-28T06:49:00Z</time>
      </trkpt>
      <trkpt lat="46.30175" lon="4.73083">
        <ele>338</ele>
        <time>2014-09-28T06:49:01Z</time>
      </trkpt>
      <trkpt lat="46.30183" lon="4.73079">
        <ele>338</ele>
        <time>2014-09-28T06:49:03Z</time>
      </trkpt>
      <trkpt lat="46.30188" lon="4.73077">
        <ele>337</ele>
        <time>2014-09-28T06:49:04Z</time>
      </trkpt>
      <trkpt lat="46.30196" lon="4.73072">
        <ele>337</ele>
        <time>2014-09-28T06:49:06Z</time>
      </trkpt>
      <trkpt lat="46.302" lon="4.73069">
        <ele>337</ele>
        <time>2014-09-28T06:49:07Z</time>
      </trkpt>
      <trkpt lat="46.30207" lon="4.73063">
        <ele>336</ele>
        <time>2014-09-28T06:49:09Z</time>
      </trkpt>
      <trkpt lat="46.3021" lon="4.73059">
        <ele>336</ele>
        <time>2014-09-28T06:49:10Z</time>
      </trkpt>
      <trkpt lat="46.30216" lon="4.73051">
        <ele>336</ele>
        <time>2014-09-28T06:49:12Z</time>
      </trkpt>
      <trkpt lat="46.30219" lon="4.73046">
        <ele>336</ele>
        <time>2014-09-28T06:49:13Z</time>
      </trkpt>
      <trkpt lat="46.30224" lon="4.73037">
        <ele>336</ele>
        <time>2014-09-28T06:49:15Z</time>
      </trkpt>
      <trkpt lat="46.30227" lon="4.73032">
        <ele>336</ele>
        <time>2014-09-28T06:49:16Z</time>
      </trkpt>
      <trkpt lat="46.30233" lon="4.73023">
        <ele>336</ele>
        <time>2014-09-28T06:49:18Z</time>
      </trkpt>
      <trkpt lat="46.30235" lon="4.73018">
        <ele>336</ele>
        <time>2014-09-28T06:49:19Z</time>
      </trkpt>
      <trkpt lat="46.3024" lon="4.73008">
        <ele>336</ele>
        <time>2014-09-28T06:49:21Z</time>
      </trkpt>
      <trkpt lat="46.30242" lon="4.73003">
        <ele>336</ele>
        <time>2014-09-28T06:49:22Z</time>
      </trkpt>
      <trkpt lat="46.30245" lon="4.72992">
        <ele>338</ele>
        <time>2014-09-28T06:49:24Z</time>
      </trkpt>
      <trkpt lat="46.30246" lon="4.72987">
        <ele>339</ele>
        <time>2014-09-28T06:49:25Z</time>
      </trkpt>
      <trkpt lat="46.30248" lon="4.72977">
        <ele>340</ele>
        <time>2014-09-28T06:49:27Z</time>
      </trkpt>
      <trkpt lat="46.30249" lon="4.72972">
        <ele>341</ele>
        <time>2014-09-28T06:49:28Z</time>
      </trkpt>
      <trkpt lat="46.30251" lon="4.72963">
        <ele>334</ele>
        <time>2014-09-28T06:49:30Z</time>
      </trkpt>
      <trkpt lat="46.30251" lon="4.72959">
        <ele>334</ele>
        <time>2014-09-28T06:49:31Z</time>
      </trkpt>
      <trkpt lat="46.30251" lon="4.72949">
        <ele>335</ele>
        <time>2014-09-28T06:49:33Z</time>
      </trkpt>
      <trkpt lat="46.30251" lon="4.72944">
        <ele>336</ele>
        <time>2014-09-28T06:49:34Z</time>
      </trkpt>
      <trkpt lat="46.30252" lon="4.72935">
        <ele>337</ele>
        <time>2014-09-28T06:49:36Z</time>
      </trkpt>
      <trkpt lat="46.30252" lon="4.72931">
        <ele>338</ele>
        <time>2014-09-28T06:49:37Z</time>
      </trkpt>
      <trkpt lat="46.30254" lon="4.72922">
        <ele>341</ele>
        <time>2014-09-28T06:49:39Z</time>
      </trkpt>
      <trkpt lat="46.30254" lon="4.72917">
        <ele>342</ele>
        <time>2014-09-28T06:49:40Z</time>
      </trkpt>
      <trkpt lat="46.30256" lon="4.72908">
        <ele>342</ele>
        <time>2014-09-28T06:49:42Z</time>
      </trkpt>
      <trkpt lat="46.30258" lon="4.72904">
        <ele>341</ele>
        <time>2014-09-28T06:49:43Z</time>
      </trkpt>
      <trkpt lat="46.30262" lon="4.72895">
        <ele>341</ele>
        <time>2014-09-28T06:49:45Z</time>
      </trkpt>
      <trkpt lat="46.30264" lon="4.72891">
        <ele>340</ele>
        <time>2014-09-28T06:49:46Z</time>
      </trkpt>
      <trkpt lat="46.30268" lon="4.72881">
        <ele>340</ele>
        <time>2014-09-28T06:49:48Z</time>
      </trkpt>
      <trkpt lat="46.3027" lon="4.72877">
        <ele>340</ele>
        <time>2014-09-28T06:49:49Z</time>
      </trkpt>
      <trkpt lat="46.30273" lon="4.72868">
        <ele>340</ele>
        <time>2014-09-28T06:49:51Z</time>
      </trkpt>
      <trkpt lat="46.30275" lon="4.72864">
        <ele>341</ele>
        <time>2014-09-28T06:49:52Z</time>
      </trkpt>
      <trkpt lat="46.30278" lon="4.72856">
        <ele>341</ele>
        <time>2014-09-28T06:49:54Z</time>
      </trkpt>
      <trkpt lat="46.3028" lon="4.72853">
        <ele>341</ele>
        <time>2014-09-28T06:49:55Z</time>
      </trkpt>
      <trkpt lat="46.30284" lon="4.72846">
        <ele>340</ele>
        <time>2014-09-28T06:49:57Z</time>
      </trkpt>
      <trkpt lat="46.30285" lon="4.72842">
        <ele>340</ele>
        <time>2014-09-28T06:49:58Z</time>
      </trkpt>
      <trkpt lat="46.30289" lon="4.72833">
        <ele>344</ele>
        <time>2014-09-28T06:50:00Z</time>
      </trkpt>
      <trkpt lat="46.30291" lon="4.72829">
        <ele>344</ele>
        <time>2014-09-28T06:50:01Z</time>
      </trkpt>
      <trkpt lat="46.30296" lon="4.7282">
        <ele>344</ele>
        <time>2014-09-28T06:50:03Z</time>
      </trkpt>
      <trkpt lat="46.30298" lon="4.72815">
        <ele>344</ele>
        <time>2014-09-28T06:50:04Z</time>
      </trkpt>
      <trkpt lat="46.30302" lon="4.72807">
        <ele>344</ele>
        <time>2014-09-28T06:50:06Z</time>
      </trkpt>
      <trkpt lat="46.30303" lon="4.72804">
        <ele>344</ele>
        <time>2014-09-28T06:50:07Z</time>
      </trkpt>
      <trkpt lat="46.30309" lon="4.72797">
        <ele>343</ele>
        <time>2014-09-28T06:50:13Z</time>
      </trkpt>
      <trkpt lat="46.30312" lon="4.72798">
        <ele>343</ele>
        <time>2014-09-28T06:50:14Z</time>
      </trkpt>
      <trkpt lat="46.30319" lon="4.72803">
        <ele>342</ele>
        <time>2014-09-28T06:50:16Z</time>
      </trkpt>
      <trkpt lat="46.30322" lon="4.72806">
        <ele>341</ele>
        <time>2014-09-28T06:50:17Z</time>
      </trkpt>
      <trkpt lat="46.30328" lon="4.72812">
        <ele>340</ele>
        <time>2014-09-28T06:50:19Z</time>
      </trkpt>
      <trkpt lat="46.30331" lon="4.72813">
        <ele>339</ele>
        <time>2014-09-28T06:50:20Z</time>
      </trkpt>
      <trkpt lat="46.30337" lon="4.72806">
        <ele>330</ele>
        <time>2014-09-28T06:50:24Z</time>
      </trkpt>
      <trkpt lat="46.30338" lon="4.72803">
        <ele>330</ele>
        <time>2014-09-28T06:50:25Z</time>
      </trkpt>
      <trkpt lat="46.30341" lon="4.72791">
        <ele>330</ele>
        <time>2014-09-28T06:50:29Z</time>
      </trkpt>
      <trkpt lat="46.30342" lon="4.72788">
        <ele>331</ele>
        <time>2014-09-28T06:50:30Z</time>
      </trkpt>
      <trkpt lat="46.30346" lon="4.72781">
        <ele>331</ele>
        <time>2014-09-28T06:50:32Z</time>
      </trkpt>
      <trkpt lat="46.30348" lon="4.72777">
        <ele>331</ele>
        <time>2014-09-28T06:50:33Z</time>
      </trkpt>
      <trkpt lat="46.30351" lon="4.7277">
        <ele>332</ele>
        <time>2014-09-28T06:50:36Z</time>
      </trkpt>
      <trkpt lat="46.30353" lon="4.72766">
        <ele>332</ele>
        <time>2014-09-28T06:50:36Z</time>
      </trkpt>
      <trkpt lat="46.30357" lon="4.72758">
        <ele>332</ele>
        <time>2014-09-28T06:50:38Z</time>
      </trkpt>
      <trkpt lat="46.30358" lon="4.72754">
        <ele>332</ele>
        <time>2014-09-28T06:50:39Z</time>
      </trkpt>
      <trkpt lat="46.30362" lon="4.72745">
        <ele>339</ele>
        <time>2014-09-28T06:50:41Z</time>
      </trkpt>
      <trkpt lat="46.30364" lon="4.7274">
        <ele>339</ele>
        <time>2014-09-28T06:50:42Z</time>
      </trkpt>
      <trkpt lat="46.30369" lon="4.7273">
        <ele>339</ele>
        <time>2014-09-28T06:50:44Z</time>
      </trkpt>
      <trkpt lat="46.30371" lon="4.72725">
        <ele>339</ele>
        <time>2014-09-28T06:50:45Z</time>
      </trkpt>
      <trkpt lat="46.30376" lon="4.72715">
        <ele>339</ele>
        <time>2014-09-28T06:50:47Z</time>
      </trkpt>
      <trkpt lat="46.30378" lon="4.7271">
        <ele>340</ele>
        <time>2014-09-28T06:50:48Z</time>
      </trkpt>
      <trkpt lat="46.30384" lon="4.72702">
        <ele>340</ele>
        <time>2014-09-28T06:50:50Z</time>
      </trkpt>
      <trkpt lat="46.30388" lon="4.72698">
        <ele>340</ele>
        <time>2014-09-28T06:50:51Z</time>
      </trkpt>
      <trkpt lat="46.30394" lon="4.72692">
        <ele>340</ele>
        <time>2014-09-28T06:50:53Z</time>
      </trkpt>
      <trkpt lat="46.30398" lon="4.72689">
        <ele>340</ele>
        <time>2014-09-28T06:50:54Z</time>
      </trkpt>
      <trkpt lat="46.30404" lon="4.72684">
        <ele>340</ele>
        <time>2014-09-28T06:50:56Z</time>
      </trkpt>
      <trkpt lat="46.30406" lon="4.72682">
        <ele>340</ele>
        <time>2014-09-28T06:50:57Z</time>
      </trkpt>
      <trkpt lat="46.30414" lon="4.72682">
        <ele>340</ele>
        <time>2014-09-28T06:51:01Z</time>
      </trkpt>
      <trkpt lat="46.30416" lon="4.72685">
        <ele>339</ele>
        <time>2014-09-28T06:51:02Z</time>
      </trkpt>
      <trkpt lat="46.30421" lon="4.72689">
        <ele>331</ele>
        <time>2014-09-28T06:51:03Z</time>
      </trkpt>
      <trkpt lat="46.30426" lon="4.72695">
        <ele>329</ele>
        <time>2014-09-28T06:51:04Z</time>
      </trkpt>
      <trkpt lat="46.3043" lon="4.72697">
        <ele>328</ele>
        <time>2014-09-28T06:51:06Z</time>
      </trkpt>
      <trkpt lat="46.30434" lon="4.727">
        <ele>327</ele>
        <time>2014-09-28T06:51:06Z</time>
      </trkpt>
      <trkpt lat="46.30442" lon="4.72707">
        <ele>326</ele>
        <time>2014-09-28T06:51:08Z</time>
      </trkpt>
      <trkpt lat="46.30446" lon="4.7271">
        <ele>325</ele>
        <time>2014-09-28T06:51:09Z</time>
      </trkpt>
      <trkpt lat="46.30453" lon="4.72713">
        <ele>324</ele>
        <time>2014-09-28T06:51:11Z</time>
      </trkpt>
      <trkpt lat="46.30457" lon="4.72714">
        <ele>324</ele>
        <time>2014-09-28T06:51:12Z</time>
      </trkpt>
      <trkpt lat="46.30463" lon="4.72712">
        <ele>323</ele>
        <time>2014-09-28T06:51:13Z</time>
      </trkpt>
      <trkpt lat="46.30469" lon="4.72712">
        <ele>323</ele>
        <time>2014-09-28T06:51:14Z</time>
      </trkpt>
      <trkpt lat="46.30476" lon="4.72714">
        <ele>322</ele>
        <time>2014-09-28T06:51:15Z</time>
      </trkpt>
      <trkpt lat="46.30481" lon="4.72713">
        <ele>321</ele>
        <time>2014-09-28T06:51:16Z</time>
      </trkpt>
      <trkpt lat="46.30488" lon="4.72713">
        <ele>321</ele>
        <time>2014-09-28T06:51:17Z</time>
      </trkpt>
      <trkpt lat="46.30494" lon="4.72712">
        <ele>321</ele>
        <time>2014-09-28T06:51:18Z</time>
      </trkpt>
      <trkpt lat="46.30499" lon="4.7271">
        <ele>321</ele>
        <time>2014-09-28T06:51:19Z</time>
      </trkpt>
      <trkpt lat="46.30504" lon="4.72708">
        <ele>309</ele>
        <time>2014-09-28T06:51:20Z</time>
      </trkpt>
      <trkpt lat="46.30508" lon="4.727">
        <ele>310</ele>
        <time>2014-09-28T06:51:22Z</time>
      </trkpt>
      <trkpt lat="46.3051" lon="4.72695">
        <ele>311</ele>
        <time>2014-09-28T06:51:23Z</time>
      </trkpt>
      <trkpt lat="46.30512" lon="4.72688">
        <ele>312</ele>
        <time>2014-09-28T06:51:24Z</time>
      </trkpt>
      <trkpt lat="46.30514" lon="4.72682">
        <ele>314</ele>
        <time>2014-09-28T06:51:25Z</time>
      </trkpt>
      <trkpt lat="46.30519" lon="4.72674">
        <ele>314</ele>
        <time>2014-09-28T06:51:26Z</time>
      </trkpt>
      <trkpt lat="46.30521" lon="4.72664">
        <ele>318</ele>
        <time>2014-09-28T06:51:27Z</time>
      </trkpt>
      <trkpt lat="46.30525" lon="4.72654">
        <ele>317</ele>
        <time>2014-09-28T06:51:28Z</time>
      </trkpt>
      <trkpt lat="46.30529" lon="4.72648">
        <ele>316</ele>
        <time>2014-09-28T06:51:29Z</time>
      </trkpt>
      <trkpt lat="46.30533" lon="4.72641">
        <ele>316</ele>
        <time>2014-09-28T06:51:30Z</time>
      </trkpt>
      <trkpt lat="46.30539" lon="4.72632">
        <ele>315</ele>
        <time>2014-09-28T06:51:31Z</time>
      </trkpt>
      <trkpt lat="46.30546" lon="4.72624">
        <ele>314</ele>
        <time>2014-09-28T06:51:32Z</time>
      </trkpt>
      <trkpt lat="46.30553" lon="4.72617">
        <ele>313</ele>
        <time>2014-09-28T06:51:35Z</time>
      </trkpt>
      <trkpt lat="46.30555" lon="4.72613">
        <ele>313</ele>
        <time>2014-09-28T06:51:36Z</time>
      </trkpt>
      <trkpt lat="46.30554" lon="4.72623">
        <ele>313</ele>
        <time>2014-09-28T06:51:41Z</time>
      </trkpt>
      <trkpt lat="46.30551" lon="4.7263">
        <ele>313</ele>
        <time>2014-09-28T06:51:42Z</time>
      </trkpt>
      <trkpt lat="46.30549" lon="4.72636">
        <ele>313</ele>
        <time>2014-09-28T06:51:43Z</time>
      </trkpt>
      <trkpt lat="46.30548" lon="4.72644">
        <ele>313</ele>
        <time>2014-09-28T06:51:44Z</time>
      </trkpt>
      <trkpt lat="46.30547" lon="4.72651">
        <ele>313</ele>
        <time>2014-09-28T06:51:45Z</time>
      </trkpt>
      <trkpt lat="46.30546" lon="4.72662">
        <ele>313</ele>
        <time>2014-09-28T06:51:46Z</time>
      </trkpt>
      <trkpt lat="46.30544" lon="4.72685">
        <ele>307</ele>
        <time>2014-09-28T06:51:47Z</time>
      </trkpt>
      <trkpt lat="46.30545" lon="4.72696">
        <ele>306</ele>
        <time>2014-09-28T06:51:48Z</time>
      </trkpt>
      <trkpt lat="46.30544" lon="4.72705">
        <ele>305</ele>
        <time>2014-09-28T06:51:49Z</time>
      </trkpt>
      <trkpt lat="46.30544" lon="4.72716">
        <ele>305</ele>
        <time>2014-09-28T06:51:50Z</time>
      </trkpt>
      <trkpt lat="46.30545" lon="4.72725">
        <ele>304</ele>
        <time>2014-09-28T06:51:51Z</time>
      </trkpt>
      <trkpt lat="46.30546" lon="4.72737">
        <ele>303</ele>
        <time>2014-09-28T06:51:53Z</time>
      </trkpt>
      <trkpt lat="46.30549" lon="4.72743">
        <ele>302</ele>
        <time>2014-09-28T06:51:54Z</time>
      </trkpt>
      <trkpt lat="46.30552" lon="4.72748">
        <ele>302</ele>
        <time>2014-09-28T06:51:55Z</time>
      </trkpt>
      <trkpt lat="46.30556" lon="4.72752">
        <ele>294</ele>
        <time>2014-09-28T06:51:56Z</time>
      </trkpt>
      <trkpt lat="46.30564" lon="4.72758">
        <ele>293</ele>
        <time>2014-09-28T06:51:58Z</time>
      </trkpt>
      <trkpt lat="46.30567" lon="4.7276">
        <ele>293</ele>
        <time>2014-09-28T06:51:59Z</time>
      </trkpt>
      <trkpt lat="46.30575" lon="4.72757">
        <ele>292</ele>
        <time>2014-09-28T06:52:02Z</time>
      </trkpt>
      <trkpt lat="46.30578" lon="4.72754">
        <ele>292</ele>
        <time>2014-09-28T06:52:03Z</time>
      </trkpt>
      <trkpt lat="46.30584" lon="4.72747">
        <ele>290</ele>
        <time>2014-09-28T06:52:05Z</time>
      </trkpt>
      <trkpt lat="46.30589" lon="4.72743">
        <ele>288</ele>
        <time>2014-09-28T06:52:06Z</time>
      </trkpt>
      <trkpt lat="46.30595" lon="4.72738">
        <ele>287</ele>
        <time>2014-09-28T06:52:07Z</time>
      </trkpt>
      <trkpt lat="46.30599" lon="4.72735">
        <ele>286</ele>
        <time>2014-09-28T06:52:08Z</time>
      </trkpt>
      <trkpt lat="46.30604" lon="4.72729">
        <ele>285</ele>
        <time>2014-09-28T06:52:09Z</time>
      </trkpt>
      <trkpt lat="46.30608" lon="4.72723">
        <ele>284</ele>
        <time>2014-09-28T06:52:10Z</time>
      </trkpt>
      <trkpt lat="46.30613" lon="4.72716">
        <ele>284</ele>
        <time>2014-09-28T06:52:11Z</time>
      </trkpt>
      <trkpt lat="46.30616" lon="4.72708">
        <ele>283</ele>
        <time>2014-09-28T06:52:12Z</time>
      </trkpt>
      <trkpt lat="46.3062" lon="4.72701">
        <ele>283</ele>
        <time>2014-09-28T06:52:13Z</time>
      </trkpt>
      <trkpt lat="46.30623" lon="4.72692">
        <ele>283</ele>
        <time>2014-09-28T06:52:14Z</time>
      </trkpt>
      <trkpt lat="46.30625" lon="4.72684">
        <ele>283</ele>
        <time>2014-09-28T06:52:15Z</time>
      </trkpt>
      <trkpt lat="46.30629" lon="4.72676">
        <ele>282</ele>
        <time>2014-09-28T06:52:16Z</time>
      </trkpt>
      <trkpt lat="46.30631" lon="4.72669">
        <ele>282</ele>
        <time>2014-09-28T06:52:17Z</time>
      </trkpt>
      <trkpt lat="46.30632" lon="4.72662">
        <ele>284</ele>
        <time>2014-09-28T06:52:18Z</time>
      </trkpt>
      <trkpt lat="46.30635" lon="4.72654">
        <ele>284</ele>
        <time>2014-09-28T06:52:19Z</time>
      </trkpt>
      <trkpt lat="46.30638" lon="4.72645">
        <ele>284</ele>
        <time>2014-09-28T06:52:20Z</time>
      </trkpt>
      <trkpt lat="46.30642" lon="4.72637">
        <ele>284</ele>
        <time>2014-09-28T06:52:21Z</time>
      </trkpt>
      <trkpt lat="46.30647" lon="4.72627">
        <ele>283</ele>
        <time>2014-09-28T06:52:22Z</time>
      </trkpt>
      <trkpt lat="46.30648" lon="4.72619">
        <ele>283</ele>
        <time>2014-09-28T06:52:23Z</time>
      </trkpt>
      <trkpt lat="46.30654" lon="4.7261">
        <ele>282</ele>
        <time>2014-09-28T06:52:24Z</time>
      </trkpt>
      <trkpt lat="46.30658" lon="4.726">
        <ele>280</ele>
        <time>2014-09-28T06:52:25Z</time>
      </trkpt>
      <trkpt lat="46.3066" lon="4.72593">
        <ele>278</ele>
        <time>2014-09-28T06:52:26Z</time>
      </trkpt>
      <trkpt lat="46.30664" lon="4.72585">
        <ele>275</ele>
        <time>2014-09-28T06:52:27Z</time>
      </trkpt>
      <trkpt lat="46.30665" lon="4.72574">
        <ele>278</ele>
        <time>2014-09-28T06:52:28Z</time>
      </trkpt>
      <trkpt lat="46.30666" lon="4.72565">
        <ele>280</ele>
        <time>2014-09-28T06:52:29Z</time>
      </trkpt>
      <trkpt lat="46.30669" lon="4.72556">
        <ele>269</ele>
        <time>2014-09-28T06:52:30Z</time>
      </trkpt>
      <trkpt lat="46.30673" lon="4.72549">
        <ele>268</ele>
        <time>2014-09-28T06:52:31Z</time>
      </trkpt>
      <trkpt lat="46.30672" lon="4.72543">
        <ele>268</ele>
        <time>2014-09-28T06:52:32Z</time>
      </trkpt>
      <trkpt lat="46.30678" lon="4.72536">
        <ele>268</ele>
        <time>2014-09-28T06:52:34Z</time>
      </trkpt>
      <trkpt lat="46.30682" lon="4.72534">
        <ele>268</ele>
        <time>2014-09-28T06:52:35Z</time>
      </trkpt>
      <trkpt lat="46.30684" lon="4.72527">
        <ele>268</ele>
        <time>2014-09-28T06:52:36Z</time>
      </trkpt>
      <trkpt lat="46.30684" lon="4.72519">
        <ele>268</ele>
        <time>2014-09-28T06:52:37Z</time>
      </trkpt>
      <trkpt lat="46.30685" lon="4.72512">
        <ele>268</ele>
        <time>2014-09-28T06:52:38Z</time>
      </trkpt>
      <trkpt lat="46.30686" lon="4.72505">
        <ele>269</ele>
        <time>2014-09-28T06:52:39Z</time>
      </trkpt>
      <trkpt lat="46.30688" lon="4.72499">
        <ele>269</ele>
        <time>2014-09-28T06:52:40Z</time>
      </trkpt>
      <trkpt lat="46.30685" lon="4.7249">
        <ele>269</ele>
        <time>2014-09-28T06:52:41Z</time>
      </trkpt>
      <trkpt lat="46.30687" lon="4.72485">
        <ele>268</ele>
        <time>2014-09-28T06:52:42Z</time>
      </trkpt>
      <trkpt lat="46.3069" lon="4.72478">
        <ele>268</ele>
        <time>2014-09-28T06:52:43Z</time>
      </trkpt>
      <trkpt lat="46.30691" lon="4.72471">
        <ele>267</ele>
        <time>2014-09-28T06:52:44Z</time>
      </trkpt>
      <trkpt lat="46.30692" lon="4.72462">
        <ele>267</ele>
        <time>2014-09-28T06:52:45Z</time>
      </trkpt>
      <trkpt lat="46.30693" lon="4.72455">
        <ele>267</ele>
        <time>2014-09-28T06:52:46Z</time>
      </trkpt>
      <trkpt lat="46.30694" lon="4.72447">
        <ele>267</ele>
        <time>2014-09-28T06:52:47Z</time>
      </trkpt>
      <trkpt lat="46.30697" lon="4.7244">
        <ele>267</ele>
        <time>2014-09-28T06:52:48Z</time>
      </trkpt>
      <trkpt lat="46.30697" lon="4.72431">
        <ele>267</ele>
        <time>2014-09-28T06:52:49Z</time>
      </trkpt>
      <trkpt lat="46.307" lon="4.72423">
        <ele>266</ele>
        <time>2014-09-28T06:52:50Z</time>
      </trkpt>
      <trkpt lat="46.30705" lon="4.72414">
        <ele>266</ele>
        <time>2014-09-28T06:52:51Z</time>
      </trkpt>
      <trkpt lat="46.30708" lon="4.72406">
        <ele>266</ele>
        <time>2014-09-28T06:52:52Z</time>
      </trkpt>
      <trkpt lat="46.30711" lon="4.72397">
        <ele>266</ele>
        <time>2014-09-28T06:52:53Z</time>
      </trkpt>
      <trkpt lat="46.30709" lon="4.72386">
        <ele>266</ele>
        <time>2014-09-28T06:52:54Z</time>
      </trkpt>
      <trkpt lat="46.30711" lon="4.72377">
        <ele>266</ele>
        <time>2014-09-28T06:52:55Z</time>
      </trkpt>
      <trkpt lat="46.30715" lon="4.72368">
        <ele>265</ele>
        <time>2014-09-28T06:52:56Z</time>
      </trkpt>
      <trkpt lat="46.30714" lon="4.72358">
        <ele>265</ele>
        <time>2014-09-28T06:52:57Z</time>
      </trkpt>
      <trkpt lat="46.30716" lon="4.72349">
        <ele>265</ele>
        <time>2014-09-28T06:52:58Z</time>
      </trkpt>
      <trkpt lat="46.30718" lon="4.72339">
        <ele>265</ele>
        <time>2014-09-28T06:52:59Z</time>
      </trkpt>
      <trkpt lat="46.3072" lon="4.72331">
        <ele>266</ele>
        <time>2014-09-28T06:53:00Z</time>
      </trkpt>
      <trkpt lat="46.30723" lon="4.72322">
        <ele>266</ele>
        <time>2014-09-28T06:53:01Z</time>
      </trkpt>
      <trkpt lat="46.30726" lon="4.72314">
        <ele>266</ele>
        <time>2014-09-28T06:53:02Z</time>
      </trkpt>
      <trkpt lat="46.30727" lon="4.72306">
        <ele>267</ele>
        <time>2014-09-28T06:53:03Z</time>
      </trkpt>
      <trkpt lat="46.30728" lon="4.72298">
        <ele>267</ele>
        <time>2014-09-28T06:53:04Z</time>
      </trkpt>
      <trkpt lat="46.30729" lon="4.72289">
        <ele>267</ele>
        <time>2014-09-28T06:53:05Z</time>
      </trkpt>
      <trkpt lat="46.30732" lon="4.72281">
        <ele>267</ele>
        <time>2014-09-28T06:53:06Z</time>
      </trkpt>
      <trkpt lat="46.30735" lon="4.72274">
        <ele>267</ele>
        <time>2014-09-28T06:53:07Z</time>
      </trkpt>
      <trkpt lat="46.30736" lon="4.72266">
        <ele>267</ele>
        <time>2014-09-28T06:53:08Z</time>
      </trkpt>
      <trkpt lat="46.3074" lon="4.72259">
        <ele>266</ele>
        <time>2014-09-28T06:53:09Z</time>
      </trkpt>
      <trkpt lat="46.30741" lon="4.72252">
        <ele>266</ele>
        <time>2014-09-28T06:53:10Z</time>
      </trkpt>
      <trkpt lat="46.30742" lon="4.72244">
        <ele>267</ele>
        <time>2014-09-28T06:53:11Z</time>
      </trkpt>
      <trkpt lat="46.30743" lon="4.72236">
        <ele>268</ele>
        <time>2014-09-28T06:53:12Z</time>
      </trkpt>
      <trkpt lat="46.30746" lon="4.72228">
        <ele>268</ele>
        <time>2014-09-28T06:53:13Z</time>
      </trkpt>
      <trkpt lat="46.30745" lon="4.7222">
        <ele>268</ele>
        <time>2014-09-28T06:53:14Z</time>
      </trkpt>
      <trkpt lat="46.30746" lon="4.72212">
        <ele>268</ele>
        <time>2014-09-28T06:53:15Z</time>
      </trkpt>
      <trkpt lat="46.30746" lon="4.72205">
        <ele>268</ele>
        <time>2014-09-28T06:53:16Z</time>
      </trkpt>
      <trkpt lat="46.30744" lon="4.72197">
        <ele>268</ele>
        <time>2014-09-28T06:53:17Z</time>
      </trkpt>
      <trkpt lat="46.30745" lon="4.7219">
        <ele>268</ele>
        <time>2014-09-28T06:53:18Z</time>
      </trkpt>
      <trkpt lat="46.30747" lon="4.72184">
        <ele>267</ele>
        <time>2014-09-28T06:53:19Z</time>
      </trkpt>
      <trkpt lat="46.30748" lon="4.72177">
        <ele>266</ele>
        <time>2014-09-28T06:53:20Z</time>
      </trkpt>
      <trkpt lat="46.30749" lon="4.7217">
        <ele>265</ele>
        <time>2014-09-28T06:53:21Z</time>
      </trkpt>
      <trkpt lat="46.30752" lon="4.72162">
        <ele>265</ele>
        <time>2014-09-28T06:53:22Z</time>
      </trkpt>
      <trkpt lat="46.30754" lon="4.72156">
        <ele>265</ele>
        <time>2014-09-28T06:53:23Z</time>
      </trkpt>
      <trkpt lat="46.30757" lon="4.72145">
        <ele>266</ele>
        <time>2014-09-28T06:53:25Z</time>
      </trkpt>
      <trkpt lat="46.30761" lon="4.7214">
        <ele>266</ele>
        <time>2014-09-28T06:53:26Z</time>
      </trkpt>
      <trkpt lat="46.30764" lon="4.72135">
        <ele>266</ele>
        <time>2014-09-28T06:53:27Z</time>
      </trkpt>
      <trkpt lat="46.30768" lon="4.7213">
        <ele>267</ele>
        <time>2014-09-28T06:53:28Z</time>
      </trkpt>
      <trkpt lat="46.30772" lon="4.72126">
        <ele>267</ele>
        <time>2014-09-28T06:53:29Z</time>
      </trkpt>
      <trkpt lat="46.30777" lon="4.72123">
        <ele>267</ele>
        <time>2014-09-28T06:53:30Z</time>
      </trkpt>
      <trkpt lat="46.30781" lon="4.72122">
        <ele>267</ele>
        <time>2014-09-28T06:53:31Z</time>
      </trkpt>
      <trkpt lat="46.30787" lon="4.72121">
        <ele>267</ele>
        <time>2014-09-28T06:53:32Z</time>
      </trkpt>
      <trkpt lat="46.30792" lon="4.72118">
        <ele>268</ele>
        <time>2014-09-28T06:53:33Z</time>
      </trkpt>
      <trkpt lat="46.30797" lon="4.72116">
        <ele>268</ele>
        <time>2014-09-28T06:53:34Z</time>
      </trkpt>
      <trkpt lat="46.30805" lon="4.72113">
        <ele>268</ele>
        <time>2014-09-28T06:53:36Z</time>
      </trkpt>
      <trkpt lat="46.30807" lon="4.72113">
        <ele>268</ele>
        <time>2014-09-28T06:53:37Z</time>
      </trkpt>
      <trkpt lat="46.30814" lon="4.72111">
        <ele>269</ele>
        <time>2014-09-28T06:53:39Z</time>
      </trkpt>
      <trkpt lat="46.30818" lon="4.72111">
        <ele>269</ele>
        <time>2014-09-28T06:53:40Z</time>
      </trkpt>
      <trkpt lat="46.30825" lon="4.72109">
        <ele>269</ele>
        <time>2014-09-28T06:53:42Z</time>
      </trkpt>
      <trkpt lat="46.30828" lon="4.72109">
        <ele>269</ele>
        <time>2014-09-28T06:53:43Z</time>
      </trkpt>
      <trkpt lat="46.30836" lon="4.72106">
        <ele>276</ele>
        <time>2014-09-28T06:53:46Z</time>
      </trkpt>
      <trkpt lat="46.3084" lon="4.72104">
        <ele>276</ele>
        <time>2014-09-28T06:53:47Z</time>
      </trkpt>
      <trkpt lat="46.30847" lon="4.72103">
        <ele>277</ele>
        <time>2014-09-28T06:53:50Z</time>
      </trkpt>
      <trkpt lat="46.30849" lon="4.72103">
        <ele>277</ele>
        <time>2014-09-28T06:53:51Z</time>
      </trkpt>
      <trkpt lat="46.30856" lon="4.72103">
        <ele>277</ele>
        <time>2014-09-28T06:53:54Z</time>
      </trkpt>
      <trkpt lat="46.30858" lon="4.72103">
        <ele>278</ele>
        <time>2014-09-28T06:53:55Z</time>
      </trkpt>
      <trkpt lat="46.30867" lon="4.721">
        <ele>279</ele>
        <time>2014-09-28T06:53:59Z</time>
      </trkpt>
      <trkpt lat="46.30869" lon="4.721">
        <ele>279</ele>
        <time>2014-09-28T06:54:00Z</time>
      </trkpt>
      <trkpt lat="46.30877" lon="4.72094">
        <ele>280</ele>
        <time>2014-09-28T06:54:04Z</time>
      </trkpt>
      <trkpt lat="46.30879" lon="4.72093">
        <ele>280</ele>
        <time>2014-09-28T06:54:05Z</time>
      </trkpt>
      <trkpt lat="46.30885" lon="4.72085">
        <ele>281</ele>
        <time>2014-09-28T06:54:09Z</time>
      </trkpt>
      <trkpt lat="46.30887" lon="4.72082">
        <ele>282</ele>
        <time>2014-09-28T06:54:10Z</time>
      </trkpt>
      <trkpt lat="46.30892" lon="4.72072">
        <ele>283</ele>
        <time>2014-09-28T06:54:14Z</time>
      </trkpt>
      <trkpt lat="46.30893" lon="4.7207">
        <ele>283</ele>
        <time>2014-09-28T06:54:15Z</time>
      </trkpt>
      <trkpt lat="46.30896" lon="4.7206">
        <ele>283</ele>
        <time>2014-09-28T06:54:20Z</time>
      </trkpt>
      <trkpt lat="46.30897" lon="4.72058">
        <ele>283</ele>
        <time>2014-09-28T06:54:21Z</time>
      </trkpt>
      <trkpt lat="46.30896" lon="4.72045">
        <ele>283</ele>
        <time>2014-09-28T06:54:26Z</time>
      </trkpt>
      <trkpt lat="46.30896" lon="4.72043">
        <ele>283</ele>
        <time>2014-09-28T06:54:27Z</time>
      </trkpt>
      <trkpt lat="46.30895" lon="4.72031">
        <ele>283</ele>
        <time>2014-09-28T06:54:31Z</time>
      </trkpt>
      <trkpt lat="46.30895" lon="4.72028">
        <ele>283</ele>
        <time>2014-09-28T06:54:32Z</time>
      </trkpt>
      <trkpt lat="46.30895" lon="4.72017">
        <ele>284</ele>
        <time>2014-09-28T06:54:35Z</time>
      </trkpt>
      <trkpt lat="46.30896" lon="4.72014">
        <ele>284</ele>
        <time>2014-09-28T06:54:36Z</time>
      </trkpt>
      <trkpt lat="46.30896" lon="4.72003">
        <ele>284</ele>
        <time>2014-09-28T06:54:39Z</time>
      </trkpt>
      <trkpt lat="46.30896" lon="4.72">
        <ele>286</ele>
        <time>2014-09-28T06:54:40Z</time>
      </trkpt>
      <trkpt lat="46.30896" lon="4.71989">
        <ele>286</ele>
        <time>2014-09-28T06:54:43Z</time>
      </trkpt>
      <trkpt lat="46.30896" lon="4.71986">
        <ele>286</ele>
        <time>2014-09-28T06:54:44Z</time>
      </trkpt>
      <trkpt lat="46.30895" lon="4.71975">
        <ele>286</ele>
        <time>2014-09-28T06:54:47Z</time>
      </trkpt>
      <trkpt lat="46.30895" lon="4.71971">
        <ele>286</ele>
        <time>2014-09-28T06:54:48Z</time>
      </trkpt>
      <trkpt lat="46.30894" lon="4.7196">
        <ele>286</ele>
        <time>2014-09-28T06:54:51Z</time>
      </trkpt>
      <trkpt lat="46.30894" lon="4.71956">
        <ele>286</ele>
        <time>2014-09-28T06:54:52Z</time>
      </trkpt>
      <trkpt lat="46.30894" lon="4.71945">
        <ele>287</ele>
        <time>2014-09-28T06:54:55Z</time>
      </trkpt>
      <trkpt lat="46.30893" lon="4.71941">
        <ele>287</ele>
        <time>2014-09-28T06:54:56Z</time>
      </trkpt>
      <trkpt lat="46.30891" lon="4.7193">
        <ele>287</ele>
        <time>2014-09-28T06:54:59Z</time>
      </trkpt>
      <trkpt lat="46.30891" lon="4.71926">
        <ele>287</ele>
        <time>2014-09-28T06:55:00Z</time>
      </trkpt>
      <trkpt lat="46.3089" lon="4.71915">
        <ele>290</ele>
        <time>2014-09-28T06:55:03Z</time>
      </trkpt>
      <trkpt lat="46.3089" lon="4.71911">
        <ele>290</ele>
        <time>2014-09-28T06:55:04Z</time>
      </trkpt>
      <trkpt lat="46.30889" lon="4.71899">
        <ele>290</ele>
        <time>2014-09-28T06:55:07Z</time>
      </trkpt>
      <trkpt lat="46.30889" lon="4.71896">
        <ele>290</ele>
        <time>2014-09-28T06:55:08Z</time>
      </trkpt>
      <trkpt lat="46.30888" lon="4.71884">
        <ele>291</ele>
        <time>2014-09-28T06:55:11Z</time>
      </trkpt>
      <trkpt lat="46.30888" lon="4.71881">
        <ele>291</ele>
        <time>2014-09-28T06:55:12Z</time>
      </trkpt>
      <trkpt lat="46.30888" lon="4.71869">
        <ele>291</ele>
        <time>2014-09-28T06:55:15Z</time>
      </trkpt>
      <trkpt lat="46.30888" lon="4.71866">
        <ele>291</ele>
        <time>2014-09-28T06:55:16Z</time>
      </trkpt>
      <trkpt lat="46.30887" lon="4.71855">
        <ele>292</ele>
        <time>2014-09-28T06:55:19Z</time>
      </trkpt>
      <trkpt lat="46.30887" lon="4.71851">
        <ele>292</ele>
        <time>2014-09-28T06:55:20Z</time>
      </trkpt>
      <trkpt lat="46.30888" lon="4.71841">
        <ele>293</ele>
        <time>2014-09-28T06:55:23Z</time>
      </trkpt>
      <trkpt lat="46.3089" lon="4.71839">
        <ele>293</ele>
        <time>2014-09-28T06:55:24Z</time>
      </trkpt>
      <trkpt lat="46.30898" lon="4.71836">
        <ele>294</ele>
        <time>2014-09-28T06:55:27Z</time>
      </trkpt>
      <trkpt lat="46.309" lon="4.71835">
        <ele>295</ele>
        <time>2014-09-28T06:55:28Z</time>
      </trkpt>
      <trkpt lat="46.30909" lon="4.71833">
        <ele>297</ele>
        <time>2014-09-28T06:55:32Z</time>
      </trkpt>
      <trkpt lat="46.30911" lon="4.71833">
        <ele>298</ele>
        <time>2014-09-28T06:55:33Z</time>
      </trkpt>
      <trkpt lat="46.30919" lon="4.71829">
        <ele>300</ele>
        <time>2014-09-28T06:55:37Z</time>
      </trkpt>
      <trkpt lat="46.3092" lon="4.71828">
        <ele>301</ele>
        <time>2014-09-28T06:55:38Z</time>
      </trkpt>
      <trkpt lat="46.30927" lon="4.71821">
        <ele>303</ele>
        <time>2014-09-28T06:55:42Z</time>
      </trkpt>
      <trkpt lat="46.30929" lon="4.7182">
        <ele>303</ele>
        <time>2014-09-28T06:55:43Z</time>
      </trkpt>
      <trkpt lat="46.30936" lon="4.71816">
        <ele>304</ele>
        <time>2014-09-28T06:55:47Z</time>
      </trkpt>
      <trkpt lat="46.30938" lon="4.71816">
        <ele>304</ele>
        <time>2014-09-28T06:55:48Z</time>
      </trkpt>
      <trkpt lat="46.30947" lon="4.71815">
        <ele>305</ele>
        <time>2014-09-28T06:55:53Z</time>
      </trkpt>
      <trkpt lat="46.30948" lon="4.71815">
        <ele>305</ele>
        <time>2014-09-28T06:55:54Z</time>
      </trkpt>
      <trkpt lat="46.30956" lon="4.71812">
        <ele>306</ele>
        <time>2014-09-28T06:55:59Z</time>
      </trkpt>
      <trkpt lat="46.30958" lon="4.71811">
        <ele>306</ele>
        <time>2014-09-28T06:56:00Z</time>
      </trkpt>
      <trkpt lat="46.30966" lon="4.71808">
        <ele>307</ele>
        <time>2014-09-28T06:56:05Z</time>
      </trkpt>
      <trkpt lat="46.30968" lon="4.71807">
        <ele>307</ele>
        <time>2014-09-28T06:56:06Z</time>
      </trkpt>
      <trkpt lat="46.30975" lon="4.71802">
        <ele>308</ele>
        <time>2014-09-28T06:56:11Z</time>
      </trkpt>
      <trkpt lat="46.30977" lon="4.71801">
        <ele>308</ele>
        <time>2014-09-28T06:56:12Z</time>
      </trkpt>
      <trkpt lat="46.30984" lon="4.71798">
        <ele>308</ele>
        <time>2014-09-28T06:56:16Z</time>
      </trkpt>
      <trkpt lat="46.30986" lon="4.71798">
        <ele>308</ele>
        <time>2014-09-28T06:56:17Z</time>
      </trkpt>
      <trkpt lat="46.30995" lon="4.71799">
        <ele>309</ele>
        <time>2014-09-28T06:56:22Z</time>
      </trkpt>
      <trkpt lat="46.30996" lon="4.71799">
        <ele>309</ele>
        <time>2014-09-28T06:56:23Z</time>
      </trkpt>
      <trkpt lat="46.31005" lon="4.71799">
        <ele>318</ele>
        <time>2014-09-28T06:56:28Z</time>
      </trkpt>
      <trkpt lat="46.31006" lon="4.71799">
        <ele>318</ele>
        <time>2014-09-28T06:56:29Z</time>
      </trkpt>
      <trkpt lat="46.31013" lon="4.71801">
        <ele>319</ele>
        <time>2014-09-28T06:56:34Z</time>
      </trkpt>
      <trkpt lat="46.31015" lon="4.71801">
        <ele>319</ele>
        <time>2014-09-28T06:56:35Z</time>
      </trkpt>
      <trkpt lat="46.31023" lon="4.718">
        <ele>320</ele>
        <time>2014-09-28T06:56:40Z</time>
      </trkpt>
      <trkpt lat="46.31025" lon="4.71799">
        <ele>320</ele>
        <time>2014-09-28T06:56:41Z</time>
      </trkpt>
      <trkpt lat="46.31032" lon="4.71795">
        <ele>321</ele>
        <time>2014-09-28T06:56:45Z</time>
      </trkpt>
      <trkpt lat="46.31034" lon="4.71793">
        <ele>321</ele>
        <time>2014-09-28T06:56:46Z</time>
      </trkpt>
      <trkpt lat="46.31041" lon="4.71791">
        <ele>322</ele>
        <time>2014-09-28T06:56:50Z</time>
      </trkpt>
      <trkpt lat="46.31043" lon="4.71791">
        <ele>322</ele>
        <time>2014-09-28T06:56:51Z</time>
      </trkpt>
      <trkpt lat="46.31048" lon="4.71786">
        <ele>322</ele>
        <time>2014-09-28T06:56:55Z</time>
      </trkpt>
      <trkpt lat="46.3105" lon="4.71783">
        <ele>323</ele>
        <time>2014-09-28T06:56:56Z</time>
      </trkpt>
      <trkpt lat="46.31058" lon="4.71788">
        <ele>323</ele>
        <time>2014-09-28T06:57:00Z</time>
      </trkpt>
      <trkpt lat="46.31059" lon="4.71791">
        <ele>324</ele>
        <time>2014-09-28T06:57:01Z</time>
      </trkpt>
      <trkpt lat="46.31058" lon="4.718">
        <ele>324</ele>
        <time>2014-09-28T06:57:03Z</time>
      </trkpt>
      <trkpt lat="46.31057" lon="4.71804">
        <ele>324</ele>
        <time>2014-09-28T06:57:04Z</time>
      </trkpt>
      <trkpt lat="46.31054" lon="4.71815">
        <ele>324</ele>
        <time>2014-09-28T06:57:06Z</time>
      </trkpt>
      <trkpt lat="46.31053" lon="4.71821">
        <ele>324</ele>
        <time>2014-09-28T06:57:07Z</time>
      </trkpt>
      <trkpt lat="46.3105" lon="4.71832">
        <ele>323</ele>
        <time>2014-09-28T06:57:09Z</time>
      </trkpt>
      <trkpt lat="46.31049" lon="4.71839">
        <ele>323</ele>
        <time>2014-09-28T06:57:10Z</time>
      </trkpt>
      <trkpt lat="46.31048" lon="4.71847">
        <ele>322</ele>
        <time>2014-09-28T06:57:11Z</time>
      </trkpt>
      <trkpt lat="46.31046" lon="4.71854">
        <ele>322</ele>
        <time>2014-09-28T06:57:12Z</time>
      </trkpt>
      <trkpt lat="46.31044" lon="4.71863">
        <ele>321</ele>
        <time>2014-09-28T06:57:13Z</time>
      </trkpt>
      <trkpt lat="46.31041" lon="4.71872">
        <ele>321</ele>
        <time>2014-09-28T06:57:14Z</time>
      </trkpt>
      <trkpt lat="46.31039" lon="4.71882">
        <ele>320</ele>
        <time>2014-09-28T06:57:15Z</time>
      </trkpt>
      <trkpt lat="46.31036" lon="4.71893">
        <ele>320</ele>
        <time>2014-09-28T06:57:16Z</time>
      </trkpt>
      <trkpt lat="46.31033" lon="4.71905">
        <ele>319</ele>
        <time>2014-09-28T06:57:17Z</time>
      </trkpt>
      <trkpt lat="46.31029" lon="4.71916">
        <ele>317</ele>
        <time>2014-09-28T06:57:18Z</time>
      </trkpt>
      <trkpt lat="46.31025" lon="4.71928">
        <ele>316</ele>
        <time>2014-09-28T06:57:19Z</time>
      </trkpt>
      <trkpt lat="46.3102" lon="4.7194">
        <ele>316</ele>
        <time>2014-09-28T06:57:20Z</time>
      </trkpt>
      <trkpt lat="46.31015" lon="4.71952">
        <ele>316</ele>
        <time>2014-09-28T06:57:21Z</time>
      </trkpt>
      <trkpt lat="46.31012" lon="4.71964">
        <ele>316</ele>
        <time>2014-09-28T06:57:22Z</time>
      </trkpt>
      <trkpt lat="46.31011" lon="4.71976">
        <ele>315</ele>
        <time>2014-09-28T06:57:23Z</time>
      </trkpt>
      <trkpt lat="46.31009" lon="4.7199">
        <ele>312</ele>
        <time>2014-09-28T06:57:24Z</time>
      </trkpt>
      <trkpt lat="46.31007" lon="4.72003">
        <ele>311</ele>
        <time>2014-09-28T06:57:25Z</time>
      </trkpt>
      <trkpt lat="46.31007" lon="4.72016">
        <ele>315</ele>
        <time>2014-09-28T06:57:26Z</time>
      </trkpt>
      <trkpt lat="46.31007" lon="4.72028">
        <ele>317</ele>
        <time>2014-09-28T06:57:27Z</time>
      </trkpt>
      <trkpt lat="46.31006" lon="4.72039">
        <ele>318</ele>
        <time>2014-09-28T06:57:28Z</time>
      </trkpt>
      <trkpt lat="46.31007" lon="4.72049">
        <ele>318</ele>
        <time>2014-09-28T06:57:29Z</time>
      </trkpt>
      <trkpt lat="46.31008" lon="4.72059">
        <ele>318</ele>
        <time>2014-09-28T06:57:30Z</time>
      </trkpt>
      <trkpt lat="46.3101" lon="4.72066">
        <ele>317</ele>
        <time>2014-09-28T06:57:31Z</time>
      </trkpt>
      <trkpt lat="46.3101" lon="4.72075">
        <ele>316</ele>
        <time>2014-09-28T06:57:32Z</time>
      </trkpt>
      <trkpt lat="46.31009" lon="4.72083">
        <ele>315</ele>
        <time>2014-09-28T06:57:33Z</time>
      </trkpt>
      <trkpt lat="46.31007" lon="4.7209">
        <ele>317</ele>
        <time>2014-09-28T06:57:34Z</time>
      </trkpt>
      <trkpt lat="46.31005" lon="4.72098">
        <ele>320</ele>
        <time>2014-09-28T06:57:35Z</time>
      </trkpt>
      <trkpt lat="46.31002" lon="4.72104">
        <ele>322</ele>
        <time>2014-09-28T06:57:36Z</time>
      </trkpt>
      <trkpt lat="46.31" lon="4.72111">
        <ele>323</ele>
        <time>2014-09-28T06:57:37Z</time>
      </trkpt>
      <trkpt lat="46.30997" lon="4.72118">
        <ele>306</ele>
        <time>2014-09-28T06:57:38Z</time>
      </trkpt>
      <trkpt lat="46.30993" lon="4.72126">
        <ele>307</ele>
        <time>2014-09-28T06:57:39Z</time>
      </trkpt>
      <trkpt lat="46.30989" lon="4.72134">
        <ele>307</ele>
        <time>2014-09-28T06:57:40Z</time>
      </trkpt>
      <trkpt lat="46.30984" lon="4.72143">
        <ele>308</ele>
        <time>2014-09-28T06:57:41Z</time>
      </trkpt>
      <trkpt lat="46.3098" lon="4.72151">
        <ele>308</ele>
        <time>2014-09-28T06:57:42Z</time>
      </trkpt>
      <trkpt lat="46.30977" lon="4.72159">
        <ele>308</ele>
        <time>2014-09-28T06:57:43Z</time>
      </trkpt>
      <trkpt lat="46.30974" lon="4.72168">
        <ele>313</ele>
        <time>2014-09-28T06:57:44Z</time>
      </trkpt>
      <trkpt lat="46.30971" lon="4.72178">
        <ele>312</ele>
        <time>2014-09-28T06:57:45Z</time>
      </trkpt>
      <trkpt lat="46.30968" lon="4.72186">
        <ele>312</ele>
        <time>2014-09-28T06:57:46Z</time>
      </trkpt>
      <trkpt lat="46.30965" lon="4.72194">
        <ele>312</ele>
        <time>2014-09-28T06:57:47Z</time>
      </trkpt>
      <trkpt lat="46.30962" lon="4.72201">
        <ele>312</ele>
        <time>2014-09-28T06:57:48Z</time>
      </trkpt>
      <trkpt lat="46.30959" lon="4.72209">
        <ele>312</ele>
        <time>2014-09-28T06:57:49Z</time>
      </trkpt>
      <trkpt lat="46.30956" lon="4.72215">
        <ele>312</ele>
        <time>2014-09-28T06:57:50Z</time>
      </trkpt>
      <trkpt lat="46.30954" lon="4.72224">
        <ele>312</ele>
        <time>2014-09-28T06:57:51Z</time>
      </trkpt>
      <trkpt lat="46.30951" lon="4.72231">
        <ele>311</ele>
        <time>2014-09-28T06:57:52Z</time>
      </trkpt>
      <trkpt lat="46.30946" lon="4.72236">
        <ele>310</ele>
        <time>2014-09-28T06:57:53Z</time>
      </trkpt>
      <trkpt lat="46.30943" lon="4.72241">
        <ele>309</ele>
        <time>2014-09-28T06:57:54Z</time>
      </trkpt>
      <trkpt lat="46.3094" lon="4.72248">
        <ele>308</ele>
        <time>2014-09-28T06:57:55Z</time>
      </trkpt>
      <trkpt lat="46.30936" lon="4.72254">
        <ele>313</ele>
        <time>2014-09-28T06:57:56Z</time>
      </trkpt>
      <trkpt lat="46.30932" lon="4.72261">
        <ele>312</ele>
        <time>2014-09-28T06:57:57Z</time>
      </trkpt>
      <trkpt lat="46.30928" lon="4.72267">
        <ele>313</ele>
        <time>2014-09-28T06:57:58Z</time>
      </trkpt>
      <trkpt lat="46.30923" lon="4.72274">
        <ele>314</ele>
        <time>2014-09-28T06:57:59Z</time>
      </trkpt>
      <trkpt lat="46.30918" lon="4.72283">
        <ele>315</ele>
        <time>2014-09-28T06:58:00Z</time>
      </trkpt>
      <trkpt lat="46.30915" lon="4.72292">
        <ele>294</ele>
        <time>2014-09-28T06:58:01Z</time>
      </trkpt>
      <trkpt lat="46.3091" lon="4.72302">
        <ele>295</ele>
        <time>2014-09-28T06:58:02Z</time>
      </trkpt>
      <trkpt lat="46.30907" lon="4.72312">
        <ele>297</ele>
        <time>2014-09-28T06:58:03Z</time>
      </trkpt>
      <trkpt lat="46.30903" lon="4.72323">
        <ele>299</ele>
        <time>2014-09-28T06:58:04Z</time>
      </trkpt>
      <trkpt lat="46.309" lon="4.72333">
        <ele>299</ele>
        <time>2014-09-28T06:58:05Z</time>
      </trkpt>
      <trkpt lat="46.30897" lon="4.72345">
        <ele>298</ele>
        <time>2014-09-28T06:58:06Z</time>
      </trkpt>
      <trkpt lat="46.30896" lon="4.72356">
        <ele>297</ele>
        <time>2014-09-28T06:58:07Z</time>
      </trkpt>
      <trkpt lat="46.30895" lon="4.72366">
        <ele>296</ele>
        <time>2014-09-28T06:58:08Z</time>
      </trkpt>
      <trkpt lat="46.30897" lon="4.72375">
        <ele>296</ele>
        <time>2014-09-28T06:58:09Z</time>
      </trkpt>
      <trkpt lat="46.30898" lon="4.72382">
        <ele>296</ele>
        <time>2014-09-28T06:58:10Z</time>
      </trkpt>
      <trkpt lat="46.309" lon="4.7239">
        <ele>297</ele>
        <time>2014-09-28T06:58:11Z</time>
      </trkpt>
      <trkpt lat="46.30903" lon="4.72397">
        <ele>299</ele>
        <time>2014-09-28T06:58:12Z</time>
      </trkpt>
      <trkpt lat="46.30906" lon="4.72404">
        <ele>301</ele>
        <time>2014-09-28T06:58:13Z</time>
      </trkpt>
      <trkpt lat="46.3091" lon="4.72415">
        <ele>305</ele>
        <time>2014-09-28T06:58:15Z</time>
      </trkpt>
      <trkpt lat="46.30912" lon="4.72421">
        <ele>306</ele>
        <time>2014-09-28T06:58:16Z</time>
      </trkpt>
      <trkpt lat="46.30916" lon="4.72429">
        <ele>303</ele>
        <time>2014-09-28T06:58:18Z</time>
      </trkpt>
      <trkpt lat="46.30918" lon="4.72432">
        <ele>316</ele>
        <time>2014-09-28T06:58:19Z</time>
      </trkpt>
      <trkpt lat="46.30925" lon="4.7244">
        <ele>319</ele>
        <time>2014-09-28T06:58:22Z</time>
      </trkpt>
      <trkpt lat="46.30926" lon="4.72442">
        <ele>319</ele>
        <time>2014-09-28T06:58:23Z</time>
      </trkpt>
      <trkpt lat="46.30934" lon="4.72448">
        <ele>321</ele>
        <time>2014-09-28T06:58:27Z</time>
      </trkpt>
      <trkpt lat="46.30935" lon="4.72449">
        <ele>321</ele>
        <time>2014-09-28T06:58:28Z</time>
      </trkpt>
      <trkpt lat="46.30942" lon="4.72458">
        <ele>322</ele>
        <time>2014-09-28T06:58:33Z</time>
      </trkpt>
      <trkpt lat="46.30943" lon="4.7246">
        <ele>322</ele>
        <time>2014-09-28T06:58:34Z</time>
      </trkpt>
      <trkpt lat="46.30946" lon="4.72471">
        <ele>322</ele>
        <time>2014-09-28T06:58:39Z</time>
      </trkpt>
      <trkpt lat="46.30946" lon="4.72474">
        <ele>322</ele>
        <time>2014-09-28T06:58:40Z</time>
      </trkpt>
      <trkpt lat="46.30948" lon="4.72484">
        <ele>322</ele>
        <time>2014-09-28T06:58:44Z</time>
      </trkpt>
      <trkpt lat="46.30949" lon="4.72486">
        <ele>322</ele>
        <time>2014-09-28T06:58:45Z</time>
      </trkpt>
      <trkpt lat="46.30949" lon="4.72499">
        <ele>321</ele>
        <time>2014-09-28T06:58:50Z</time>
      </trkpt>
      <trkpt lat="46.30948" lon="4.72502">
        <ele>320</ele>
        <time>2014-09-28T06:58:51Z</time>
      </trkpt>
      <trkpt lat="46.30948" lon="4.72512">
        <ele>321</ele>
        <time>2014-09-28T06:58:55Z</time>
      </trkpt>
      <trkpt lat="46.30948" lon="4.72515">
        <ele>321</ele>
        <time>2014-09-28T06:58:56Z</time>
      </trkpt>
      <trkpt lat="46.30947" lon="4.72527">
        <ele>321</ele>
        <time>2014-09-28T06:59:01Z</time>
      </trkpt>
      <trkpt lat="46.30946" lon="4.7253">
        <ele>321</ele>
        <time>2014-09-28T06:59:02Z</time>
      </trkpt>
      <trkpt lat="46.30945" lon="4.7254">
        <ele>321</ele>
        <time>2014-09-28T06:59:06Z</time>
      </trkpt>
      <trkpt lat="46.30944" lon="4.72543">
        <ele>321</ele>
        <time>2014-09-28T06:59:07Z</time>
      </trkpt>
      <trkpt lat="46.30943" lon="4.72554">
        <ele>322</ele>
        <time>2014-09-28T06:59:11Z</time>
      </trkpt>
      <trkpt lat="46.30943" lon="4.72557">
        <ele>321</ele>
        <time>2014-09-28T06:59:12Z</time>
      </trkpt>
      <trkpt lat="46.30942" lon="4.72568">
        <ele>321</ele>
        <time>2014-09-28T06:59:16Z</time>
      </trkpt>
      <trkpt lat="46.30942" lon="4.72571">
        <ele>321</ele>
        <time>2014-09-28T06:59:17Z</time>
      </trkpt>
      <trkpt lat="46.30941" lon="4.72584">
        <ele>322</ele>
        <time>2014-09-28T06:59:21Z</time>
      </trkpt>
      <trkpt lat="46.30942" lon="4.72588">
        <ele>322</ele>
        <time>2014-09-28T06:59:22Z</time>
      </trkpt>
      <trkpt lat="46.30945" lon="4.72599">
        <ele>323</ele>
        <time>2014-09-28T06:59:25Z</time>
      </trkpt>
      <trkpt lat="46.30946" lon="4.72602">
        <ele>323</ele>
        <time>2014-09-28T06:59:26Z</time>
      </trkpt>
      <trkpt lat="46.3095" lon="4.72611">
        <ele>324</ele>
        <time>2014-09-28T06:59:29Z</time>
      </trkpt>
      <trkpt lat="46.30951" lon="4.72615">
        <ele>324</ele>
        <time>2014-09-28T06:59:30Z</time>
      </trkpt>
      <trkpt lat="46.30952" lon="4.72626">
        <ele>324</ele>
        <time>2014-09-28T06:59:33Z</time>
      </trkpt>
      <trkpt lat="46.30953" lon="4.7263">
        <ele>324</ele>
        <time>2014-09-28T06:59:34Z</time>
      </trkpt>
      <trkpt lat="46.30954" lon="4.72639">
        <ele>325</ele>
        <time>2014-09-28T06:59:36Z</time>
      </trkpt>
      <trkpt lat="46.30955" lon="4.72643">
        <ele>325</ele>
        <time>2014-09-28T06:59:37Z</time>
      </trkpt>
      <trkpt lat="46.30956" lon="4.72653">
        <ele>325</ele>
        <time>2014-09-28T06:59:39Z</time>
      </trkpt>
      <trkpt lat="46.30956" lon="4.72658">
        <ele>325</ele>
        <time>2014-09-28T06:59:40Z</time>
      </trkpt>
      <trkpt lat="46.30957" lon="4.72669">
        <ele>324</ele>
        <time>2014-09-28T06:59:42Z</time>
      </trkpt>
      <trkpt lat="46.30958" lon="4.72676">
        <ele>324</ele>
        <time>2014-09-28T06:59:43Z</time>
      </trkpt>
      <trkpt lat="46.30958" lon="4.72687">
        <ele>324</ele>
        <time>2014-09-28T06:59:45Z</time>
      </trkpt>
      <trkpt lat="46.30958" lon="4.72693">
        <ele>324</ele>
        <time>2014-09-28T06:59:46Z</time>
      </trkpt>
      <trkpt lat="46.30958" lon="4.72706">
        <ele>324</ele>
        <time>2014-09-28T06:59:48Z</time>
      </trkpt>
      <trkpt lat="46.3096" lon="4.72714">
        <ele>324</ele>
        <time>2014-09-28T06:59:49Z</time>
      </trkpt>
      <trkpt lat="46.30962" lon="4.72722">
        <ele>324</ele>
        <time>2014-09-28T06:59:50Z</time>
      </trkpt>
      <trkpt lat="46.30964" lon="4.7273">
        <ele>324</ele>
        <time>2014-09-28T06:59:51Z</time>
      </trkpt>
      <trkpt lat="46.30966" lon="4.72738">
        <ele>324</ele>
        <time>2014-09-28T06:59:52Z</time>
      </trkpt>
      <trkpt lat="46.30968" lon="4.72745">
        <ele>325</ele>
        <time>2014-09-28T06:59:53Z</time>
      </trkpt>
      <trkpt lat="46.3097" lon="4.72753">
        <ele>322</ele>
        <time>2014-09-28T06:59:54Z</time>
      </trkpt>
      <trkpt lat="46.30972" lon="4.7276">
        <ele>322</ele>
        <time>2014-09-28T06:59:55Z</time>
      </trkpt>
      <trkpt lat="46.30974" lon="4.72768">
        <ele>322</ele>
        <time>2014-09-28T06:59:56Z</time>
      </trkpt>
      <trkpt lat="46.30976" lon="4.72776">
        <ele>322</ele>
        <time>2014-09-28T06:59:57Z</time>
      </trkpt>
      <trkpt lat="46.30978" lon="4.72783">
        <ele>322</ele>
        <time>2014-09-28T06:59:58Z</time>
      </trkpt>
      <trkpt lat="46.3098" lon="4.7279">
        <ele>321</ele>
        <time>2014-09-28T06:59:59Z</time>
      </trkpt>
      <trkpt lat="46.30983" lon="4.72798">
        <ele>321</ele>
        <time>2014-09-28T07:00:00Z</time>
      </trkpt>
      <trkpt lat="46.30984" lon="4.72805">
        <ele>321</ele>
        <time>2014-09-28T07:00:01Z</time>
      </trkpt>
      <trkpt lat="46.30987" lon="4.72813">
        <ele>322</ele>
        <time>2014-09-28T07:00:02Z</time>
      </trkpt>
      <trkpt lat="46.30988" lon="4.7282">
        <ele>322</ele>
        <time>2014-09-28T07:00:03Z</time>
      </trkpt>
      <trkpt lat="46.30991" lon="4.72826">
        <ele>323</ele>
        <time>2014-09-28T07:00:04Z</time>
      </trkpt>
      <trkpt lat="46.30994" lon="4.72833">
        <ele>324</ele>
        <time>2014-09-28T07:00:05Z</time>
      </trkpt>
      <trkpt lat="46.30997" lon="4.72839">
        <ele>323</ele>
        <time>2014-09-28T07:00:06Z</time>
      </trkpt>
      <trkpt lat="46.30999" lon="4.72845">
        <ele>321</ele>
        <time>2014-09-28T07:00:07Z</time>
      </trkpt>
      <trkpt lat="46.31001" lon="4.72851">
        <ele>327</ele>
        <time>2014-09-28T07:00:08Z</time>
      </trkpt>
      <trkpt lat="46.31002" lon="4.72858">
        <ele>327</ele>
        <time>2014-09-28T07:00:09Z</time>
      </trkpt>
      <trkpt lat="46.31004" lon="4.72865">
        <ele>327</ele>
        <time>2014-09-28T07:00:10Z</time>
      </trkpt>
      <trkpt lat="46.3101" lon="4.72872">
        <ele>327</ele>
        <time>2014-09-28T07:00:11Z</time>
      </trkpt>
      <trkpt lat="46.31011" lon="4.7288">
        <ele>327</ele>
        <time>2014-09-28T07:00:12Z</time>
      </trkpt>
      <trkpt lat="46.31014" lon="4.72887">
        <ele>327</ele>
        <time>2014-09-28T07:00:13Z</time>
      </trkpt>
      <trkpt lat="46.31016" lon="4.72894">
        <ele>326</ele>
        <time>2014-09-28T07:00:14Z</time>
      </trkpt>
      <trkpt lat="46.31018" lon="4.72902">
        <ele>326</ele>
        <time>2014-09-28T07:00:15Z</time>
      </trkpt>
      <trkpt lat="46.3102" lon="4.7291">
        <ele>325</ele>
        <time>2014-09-28T07:00:16Z</time>
      </trkpt>
      <trkpt lat="46.3102" lon="4.72917">
        <ele>322</ele>
        <time>2014-09-28T07:00:17Z</time>
      </trkpt>
      <trkpt lat="46.31024" lon="4.72925">
        <ele>323</ele>
        <time>2014-09-28T07:00:18Z</time>
      </trkpt>
      <trkpt lat="46.31027" lon="4.72933">
        <ele>323</ele>
        <time>2014-09-28T07:00:19Z</time>
      </trkpt>
      <trkpt lat="46.31028" lon="4.7294">
        <ele>323</ele>
        <time>2014-09-28T07:00:20Z</time>
      </trkpt>
      <trkpt lat="46.31032" lon="4.72947">
        <ele>323</ele>
        <time>2014-09-28T07:00:21Z</time>
      </trkpt>
      <trkpt lat="46.31034" lon="4.72954">
        <ele>323</ele>
        <time>2014-09-28T07:00:22Z</time>
      </trkpt>
      <trkpt lat="46.31038" lon="4.72962">
        <ele>323</ele>
        <time>2014-09-28T07:00:23Z</time>
      </trkpt>
      <trkpt lat="46.31042" lon="4.72969">
        <ele>323</ele>
        <time>2014-09-28T07:00:24Z</time>
      </trkpt>
      <trkpt lat="46.31044" lon="4.72975">
        <ele>323</ele>
        <time>2014-09-28T07:00:25Z</time>
      </trkpt>
      <trkpt lat="46.31047" lon="4.72983">
        <ele>323</ele>
        <time>2014-09-28T07:00:26Z</time>
      </trkpt>
      <trkpt lat="46.3105" lon="4.72989">
        <ele>323</ele>
        <time>2014-09-28T07:00:27Z</time>
      </trkpt>
      <trkpt lat="46.31053" lon="4.72996">
        <ele>323</ele>
        <time>2014-09-28T07:00:28Z</time>
      </trkpt>
      <trkpt lat="46.31056" lon="4.73003">
        <ele>319</ele>
        <time>2014-09-28T07:00:29Z</time>
      </trkpt>
      <trkpt lat="46.31059" lon="4.7301">
        <ele>319</ele>
        <time>2014-09-28T07:00:30Z</time>
      </trkpt>
      <trkpt lat="46.31061" lon="4.73017">
        <ele>319</ele>
        <time>2014-09-28T07:00:31Z</time>
      </trkpt>
      <trkpt lat="46.31064" lon="4.73024">
        <ele>319</ele>
        <time>2014-09-28T07:00:32Z</time>
      </trkpt>
      <trkpt lat="46.31068" lon="4.73033">
        <ele>318</ele>
        <time>2014-09-28T07:00:33Z</time>
      </trkpt>
      <trkpt lat="46.31072" lon="4.7304">
        <ele>318</ele>
        <time>2014-09-28T07:00:34Z</time>
      </trkpt>
      <trkpt lat="46.31076" lon="4.73048">
        <ele>317</ele>
        <time>2014-09-28T07:00:35Z</time>
      </trkpt>
      <trkpt lat="46.31081" lon="4.73054">
        <ele>317</ele>
        <time>2014-09-28T07:00:36Z</time>
      </trkpt>
      <trkpt lat="46.31085" lon="4.7306">
        <ele>319</ele>
        <time>2014-09-28T07:00:37Z</time>
      </trkpt>
      <trkpt lat="46.3109" lon="4.73063">
        <ele>318</ele>
        <time>2014-09-28T07:00:38Z</time>
      </trkpt>
      <trkpt lat="46.31096" lon="4.73066">
        <ele>318</ele>
        <time>2014-09-28T07:00:39Z</time>
      </trkpt>
      <trkpt lat="46.31102" lon="4.7307">
        <ele>318</ele>
        <time>2014-09-28T07:00:40Z</time>
      </trkpt>
      <trkpt lat="46.31106" lon="4.73075">
        <ele>318</ele>
        <time>2014-09-28T07:00:41Z</time>
      </trkpt>
      <trkpt lat="46.31111" lon="4.73081">
        <ele>319</ele>
        <time>2014-09-28T07:00:42Z</time>
      </trkpt>
      <trkpt lat="46.31116" lon="4.73086">
        <ele>312</ele>
        <time>2014-09-28T07:00:43Z</time>
      </trkpt>
      <trkpt lat="46.31122" lon="4.73093">
        <ele>312</ele>
        <time>2014-09-28T07:00:44Z</time>
      </trkpt>
      <trkpt lat="46.31128" lon="4.73101">
        <ele>311</ele>
        <time>2014-09-28T07:00:45Z</time>
      </trkpt>
      <trkpt lat="46.31134" lon="4.73111">
        <ele>311</ele>
        <time>2014-09-28T07:00:46Z</time>
      </trkpt>
      <trkpt lat="46.31141" lon="4.73122">
        <ele>310</ele>
        <time>2014-09-28T07:00:47Z</time>
      </trkpt>
      <trkpt lat="46.31148" lon="4.73134">
        <ele>309</ele>
        <time>2014-09-28T07:00:48Z</time>
      </trkpt>
      <trkpt lat="46.31155" lon="4.73147">
        <ele>308</ele>
        <time>2014-09-28T07:00:49Z</time>
      </trkpt>
      <trkpt lat="46.31163" lon="4.73159">
        <ele>306</ele>
        <time>2014-09-28T07:00:50Z</time>
      </trkpt>
      <trkpt lat="46.31172" lon="4.73171">
        <ele>303</ele>
        <time>2014-09-28T07:00:51Z</time>
      </trkpt>
      <trkpt lat="46.3118" lon="4.73184">
        <ele>301</ele>
        <time>2014-09-28T07:00:52Z</time>
      </trkpt>
      <trkpt lat="46.31188" lon="4.73197">
        <ele>299</ele>
        <time>2014-09-28T07:00:53Z</time>
      </trkpt>
      <trkpt lat="46.31195" lon="4.73207">
        <ele>298</ele>
        <time>2014-09-28T07:00:54Z</time>
      </trkpt>
      <trkpt lat="46.31203" lon="4.73217">
        <ele>298</ele>
        <time>2014-09-28T07:00:55Z</time>
      </trkpt>
      <trkpt lat="46.31212" lon="4.73223">
        <ele>297</ele>
        <time>2014-09-28T07:00:56Z</time>
      </trkpt>
      <trkpt lat="46.3122" lon="4.73229">
        <ele>297</ele>
        <time>2014-09-28T07:00:57Z</time>
      </trkpt>
      <trkpt lat="46.31229" lon="4.73235">
        <ele>297</ele>
        <time>2014-09-28T07:00:58Z</time>
      </trkpt>
      <trkpt lat="46.31238" lon="4.73242">
        <ele>296</ele>
        <time>2014-09-28T07:00:59Z</time>
      </trkpt>
      <trkpt lat="46.31247" lon="4.7325">
        <ele>295</ele>
        <time>2014-09-28T07:01:00Z</time>
      </trkpt>
      <trkpt lat="46.31255" lon="4.73259">
        <ele>293</ele>
        <time>2014-09-28T07:01:01Z</time>
      </trkpt>
      <trkpt lat="46.31263" lon="4.73268">
        <ele>291</ele>
        <time>2014-09-28T07:01:02Z</time>
      </trkpt>
      <trkpt lat="46.31269" lon="4.73279">
        <ele>291</ele>
        <time>2014-09-28T07:01:03Z</time>
      </trkpt>
      <trkpt lat="46.31273" lon="4.73291">
        <ele>290</ele>
        <time>2014-09-28T07:01:04Z</time>
      </trkpt>
      <trkpt lat="46.31277" lon="4.73303">
        <ele>289</ele>
        <time>2014-09-28T07:01:05Z</time>
      </trkpt>
      <trkpt lat="46.3128" lon="4.73316">
        <ele>289</ele>
        <time>2014-09-28T07:01:06Z</time>
      </trkpt>
      <trkpt lat="46.31284" lon="4.73328">
        <ele>288</ele>
        <time>2014-09-28T07:01:07Z</time>
      </trkpt>
      <trkpt lat="46.31287" lon="4.73341">
        <ele>286</ele>
        <time>2014-09-28T07:01:08Z</time>
      </trkpt>
      <trkpt lat="46.31291" lon="4.73351">
        <ele>286</ele>
        <time>2014-09-28T07:01:09Z</time>
      </trkpt>
      <trkpt lat="46.31293" lon="4.73363">
        <ele>286</ele>
        <time>2014-09-28T07:01:10Z</time>
      </trkpt>
      <trkpt lat="46.31293" lon="4.73375">
        <ele>286</ele>
        <time>2014-09-28T07:01:11Z</time>
      </trkpt>
      <trkpt lat="46.31294" lon="4.73385">
        <ele>286</ele>
        <time>2014-09-28T07:01:12Z</time>
      </trkpt>
      <trkpt lat="46.31297" lon="4.73393">
        <ele>286</ele>
        <time>2014-09-28T07:01:13Z</time>
      </trkpt>
      <trkpt lat="46.31298" lon="4.73398">
        <ele>286</ele>
        <time>2014-09-28T07:01:14Z</time>
      </trkpt>
      <trkpt lat="46.31307" lon="4.734">
        <ele>287</ele>
        <time>2014-09-28T07:01:16Z</time>
      </trkpt>
      <trkpt lat="46.31311" lon="4.73396">
        <ele>287</ele>
        <time>2014-09-28T07:01:17Z</time>
      </trkpt>
      <trkpt lat="46.31315" lon="4.73392">
        <ele>287</ele>
        <time>2014-09-28T07:01:18Z</time>
      </trkpt>
      <trkpt lat="46.3132" lon="4.73387">
        <ele>287</ele>
        <time>2014-09-28T07:01:19Z</time>
      </trkpt>
      <trkpt lat="46.31324" lon="4.73381">
        <ele>287</ele>
        <time>2014-09-28T07:01:20Z</time>
      </trkpt>
      <trkpt lat="46.3133" lon="4.73376">
        <ele>287</ele>
        <time>2014-09-28T07:01:21Z</time>
      </trkpt>
      <trkpt lat="46.31335" lon="4.73371">
        <ele>285</ele>
        <time>2014-09-28T07:01:22Z</time>
      </trkpt>
      <trkpt lat="46.3134" lon="4.73365">
        <ele>285</ele>
        <time>2014-09-28T07:01:23Z</time>
      </trkpt>
      <trkpt lat="46.31346" lon="4.7336">
        <ele>285</ele>
        <time>2014-09-28T07:01:24Z</time>
      </trkpt>
      <trkpt lat="46.31352" lon="4.73354">
        <ele>285</ele>
        <time>2014-09-28T07:01:25Z</time>
      </trkpt>
      <trkpt lat="46.31357" lon="4.73347">
        <ele>285</ele>
        <time>2014-09-28T07:01:26Z</time>
      </trkpt>
      <trkpt lat="46.31362" lon="4.73341">
        <ele>285</ele>
        <time>2014-09-28T07:01:27Z</time>
      </trkpt>
      <trkpt lat="46.31366" lon="4.73334">
        <ele>285</ele>
        <time>2014-09-28T07:01:28Z</time>
      </trkpt>
      <trkpt lat="46.31372" lon="4.73328">
        <ele>287</ele>
        <time>2014-09-28T07:01:29Z</time>
      </trkpt>
      <trkpt lat="46.31377" lon="4.73322">
        <ele>286</ele>
        <time>2014-09-28T07:01:30Z</time>
      </trkpt>
      <trkpt lat="46.31377" lon="4.73307">
        <ele>287</ele>
        <time>2014-09-28T07:01:31Z</time>
      </trkpt>
      <trkpt lat="46.31382" lon="4.733">
        <ele>287</ele>
        <time>2014-09-28T07:01:32Z</time>
      </trkpt>
      <trkpt lat="46.31386" lon="4.73292">
        <ele>287</ele>
        <time>2014-09-28T07:01:33Z</time>
      </trkpt>
      <trkpt lat="46.31389" lon="4.73283">
        <ele>288</ele>
        <time>2014-09-28T07:01:34Z</time>
      </trkpt>
      <trkpt lat="46.31391" lon="4.73275">
        <ele>288</ele>
        <time>2014-09-28T07:01:35Z</time>
      </trkpt>
      <trkpt lat="46.31393" lon="4.73268">
        <ele>288</ele>
        <time>2014-09-28T07:01:36Z</time>
      </trkpt>
      <trkpt lat="46.31395" lon="4.7326">
        <ele>288</ele>
        <time>2014-09-28T07:01:37Z</time>
      </trkpt>
      <trkpt lat="46.31398" lon="4.73253">
        <ele>288</ele>
        <time>2014-09-28T07:01:38Z</time>
      </trkpt>
      <trkpt lat="46.31401" lon="4.73247">
        <ele>292</ele>
        <time>2014-09-28T07:01:39Z</time>
      </trkpt>
      <trkpt lat="46.31405" lon="4.73242">
        <ele>291</ele>
        <time>2014-09-28T07:01:40Z</time>
      </trkpt>
      <trkpt lat="46.3141" lon="4.73239">
        <ele>291</ele>
        <time>2014-09-28T07:01:41Z</time>
      </trkpt>
      <trkpt lat="46.31415" lon="4.73236">
        <ele>292</ele>
        <time>2014-09-28T07:01:42Z</time>
      </trkpt>
      <trkpt lat="46.31419" lon="4.73232">
        <ele>289</ele>
        <time>2014-09-28T07:01:43Z</time>
      </trkpt>
      <trkpt lat="46.31423" lon="4.73227">
        <ele>290</ele>
        <time>2014-09-28T07:01:44Z</time>
      </trkpt>
      <trkpt lat="46.31427" lon="4.73223">
        <ele>290</ele>
        <time>2014-09-28T07:01:45Z</time>
      </trkpt>
      <trkpt lat="46.31431" lon="4.73219">
        <ele>290</ele>
        <time>2014-09-28T07:01:46Z</time>
      </trkpt>
      <trkpt lat="46.31436" lon="4.73214">
        <ele>290</ele>
        <time>2014-09-28T07:01:47Z</time>
      </trkpt>
      <trkpt lat="46.31441" lon="4.73208">
        <ele>290</ele>
        <time>2014-09-28T07:01:48Z</time>
      </trkpt>
      <trkpt lat="46.31447" lon="4.73202">
        <ele>290</ele>
        <time>2014-09-28T07:01:49Z</time>
      </trkpt>
      <trkpt lat="46.31452" lon="4.73195">
        <ele>290</ele>
        <time>2014-09-28T07:01:50Z</time>
      </trkpt>
      <trkpt lat="46.31458" lon="4.73189">
        <ele>290</ele>
        <time>2014-09-28T07:01:51Z</time>
      </trkpt>
      <trkpt lat="46.31463" lon="4.73183">
        <ele>290</ele>
        <time>2014-09-28T07:01:52Z</time>
      </trkpt>
      <trkpt lat="46.3147" lon="4.73177">
        <ele>290</ele>
        <time>2014-09-28T07:01:53Z</time>
      </trkpt>
      <trkpt lat="46.31475" lon="4.7317">
        <ele>290</ele>
        <time>2014-09-28T07:01:54Z</time>
      </trkpt>
      <trkpt lat="46.31481" lon="4.73165">
        <ele>294</ele>
        <time>2014-09-28T07:01:55Z</time>
      </trkpt>
      <trkpt lat="46.31488" lon="4.7316">
        <ele>293</ele>
        <time>2014-09-28T07:01:56Z</time>
      </trkpt>
      <trkpt lat="46.31494" lon="4.73154">
        <ele>293</ele>
        <time>2014-09-28T07:01:57Z</time>
      </trkpt>
      <trkpt lat="46.315" lon="4.73148">
        <ele>290</ele>
        <time>2014-09-28T07:01:58Z</time>
      </trkpt>
      <trkpt lat="46.31506" lon="4.73142">
        <ele>291</ele>
        <time>2014-09-28T07:01:59Z</time>
      </trkpt>
      <trkpt lat="46.3151" lon="4.73134">
        <ele>291</ele>
        <time>2014-09-28T07:02:00Z</time>
      </trkpt>
      <trkpt lat="46.31515" lon="4.73128">
        <ele>292</ele>
        <time>2014-09-28T07:02:01Z</time>
      </trkpt>
      <trkpt lat="46.31521" lon="4.73122">
        <ele>292</ele>
        <time>2014-09-28T07:02:02Z</time>
      </trkpt>
      <trkpt lat="46.31526" lon="4.73116">
        <ele>292</ele>
        <time>2014-09-28T07:02:03Z</time>
      </trkpt>
      <trkpt lat="46.31532" lon="4.73111">
        <ele>292</ele>
        <time>2014-09-28T07:02:04Z</time>
      </trkpt>
      <trkpt lat="46.31538" lon="4.73106">
        <ele>292</ele>
        <time>2014-09-28T07:02:05Z</time>
      </trkpt>
      <trkpt lat="46.31544" lon="4.73103">
        <ele>292</ele>
        <time>2014-09-28T07:02:06Z</time>
      </trkpt>
      <trkpt lat="46.3155" lon="4.731">
        <ele>292</ele>
        <time>2014-09-28T07:02:07Z</time>
      </trkpt>
      <trkpt lat="46.31555" lon="4.73094">
        <ele>292</ele>
        <time>2014-09-28T07:02:08Z</time>
      </trkpt>
      <trkpt lat="46.3156" lon="4.73091">
        <ele>292</ele>
        <time>2014-09-28T07:02:09Z</time>
      </trkpt>
      <trkpt lat="46.31566" lon="4.73086">
        <ele>292</ele>
        <time>2014-09-28T07:02:10Z</time>
      </trkpt>
      <trkpt lat="46.31571" lon="4.73082">
        <ele>295</ele>
        <time>2014-09-28T07:02:11Z</time>
      </trkpt>
      <trkpt lat="46.31576" lon="4.73077">
        <ele>294</ele>
        <time>2014-09-28T07:02:12Z</time>
      </trkpt>
      <trkpt lat="46.3158" lon="4.73072">
        <ele>295</ele>
        <time>2014-09-28T07:02:13Z</time>
      </trkpt>
      <trkpt lat="46.31584" lon="4.73067">
        <ele>292</ele>
        <time>2014-09-28T07:02:14Z</time>
      </trkpt>
      <trkpt lat="46.31587" lon="4.73062">
        <ele>293</ele>
        <time>2014-09-28T07:02:15Z</time>
      </trkpt>
      <trkpt lat="46.31591" lon="4.73058">
        <ele>293</ele>
        <time>2014-09-28T07:02:16Z</time>
      </trkpt>
      <trkpt lat="46.31595" lon="4.73053">
        <ele>293</ele>
        <time>2014-09-28T07:02:17Z</time>
      </trkpt>
      <trkpt lat="46.31599" lon="4.73049">
        <ele>293</ele>
        <time>2014-09-28T07:02:18Z</time>
      </trkpt>
      <trkpt lat="46.31603" lon="4.73044">
        <ele>293</ele>
        <time>2014-09-28T07:02:19Z</time>
      </trkpt>
      <trkpt lat="46.31607" lon="4.73038">
        <ele>293</ele>
        <time>2014-09-28T07:02:20Z</time>
      </trkpt>
      <trkpt lat="46.31611" lon="4.73034">
        <ele>293</ele>
        <time>2014-09-28T07:02:21Z</time>
      </trkpt>
      <trkpt lat="46.31615" lon="4.73029">
        <ele>293</ele>
        <time>2014-09-28T07:02:22Z</time>
      </trkpt>
      <trkpt lat="46.31618" lon="4.73023">
        <ele>294</ele>
        <time>2014-09-28T07:02:23Z</time>
      </trkpt>
      <trkpt lat="46.31622" lon="4.73019">
        <ele>294</ele>
        <time>2014-09-28T07:02:24Z</time>
      </trkpt>
      <trkpt lat="46.31626" lon="4.73015">
        <ele>293</ele>
        <time>2014-09-28T07:02:25Z</time>
      </trkpt>
      <trkpt lat="46.31629" lon="4.7301">
        <ele>293</ele>
        <time>2014-09-28T07:02:26Z</time>
      </trkpt>
      <trkpt lat="46.31632" lon="4.73005">
        <ele>293</ele>
        <time>2014-09-28T07:02:27Z</time>
      </trkpt>
      <trkpt lat="46.31639" lon="4.72996">
        <ele>298</ele>
        <time>2014-09-28T07:02:29Z</time>
      </trkpt>
      <trkpt lat="46.31643" lon="4.72992">
        <ele>298</ele>
        <time>2014-09-28T07:02:30Z</time>
      </trkpt>
      <trkpt lat="46.31646" lon="4.72989">
        <ele>298</ele>
        <time>2014-09-28T07:02:31Z</time>
      </trkpt>
      <trkpt lat="46.31651" lon="4.72985">
        <ele>298</ele>
        <time>2014-09-28T07:02:32Z</time>
      </trkpt>
      <trkpt lat="46.31657" lon="4.72977">
        <ele>298</ele>
        <time>2014-09-28T07:02:34Z</time>
      </trkpt>
      <trkpt lat="46.31659" lon="4.72972">
        <ele>298</ele>
        <time>2014-09-28T07:02:35Z</time>
      </trkpt>
      <trkpt lat="46.31665" lon="4.72964">
        <ele>299</ele>
        <time>2014-09-28T07:02:37Z</time>
      </trkpt>
      <trkpt lat="46.31669" lon="4.7296">
        <ele>294</ele>
        <time>2014-09-28T07:02:38Z</time>
      </trkpt>
      <trkpt lat="46.31672" lon="4.72955">
        <ele>294</ele>
        <time>2014-09-28T07:02:39Z</time>
      </trkpt>
      <trkpt lat="46.31674" lon="4.72949">
        <ele>295</ele>
        <time>2014-09-28T07:02:40Z</time>
      </trkpt>
      <trkpt lat="46.31677" lon="4.72944">
        <ele>295</ele>
        <time>2014-09-28T07:02:41Z</time>
      </trkpt>
      <trkpt lat="46.3168" lon="4.72939">
        <ele>296</ele>
        <time>2014-09-28T07:02:42Z</time>
      </trkpt>
      <trkpt lat="46.31684" lon="4.72935">
        <ele>296</ele>
        <time>2014-09-28T07:02:43Z</time>
      </trkpt>
      <trkpt lat="46.31687" lon="4.7293">
        <ele>296</ele>
        <time>2014-09-28T07:02:44Z</time>
      </trkpt>
      <trkpt lat="46.3169" lon="4.72925">
        <ele>296</ele>
        <time>2014-09-28T07:02:45Z</time>
      </trkpt>
      <trkpt lat="46.31694" lon="4.7292">
        <ele>295</ele>
        <time>2014-09-28T07:02:46Z</time>
      </trkpt>
      <trkpt lat="46.31695" lon="4.72913">
        <ele>300</ele>
        <time>2014-09-28T07:02:47Z</time>
      </trkpt>
      <trkpt lat="46.31697" lon="4.72904">
        <ele>300</ele>
        <time>2014-09-28T07:02:48Z</time>
      </trkpt>
      <trkpt lat="46.31701" lon="4.72894">
        <ele>300</ele>
        <time>2014-09-28T07:02:50Z</time>
      </trkpt>
      <trkpt lat="46.31704" lon="4.72889">
        <ele>300</ele>
        <time>2014-09-28T07:02:51Z</time>
      </trkpt>
      <trkpt lat="46.31707" lon="4.72884">
        <ele>300</ele>
        <time>2014-09-28T07:02:52Z</time>
      </trkpt>
      <trkpt lat="46.3171" lon="4.72878">
        <ele>300</ele>
        <time>2014-09-28T07:02:53Z</time>
      </trkpt>
      <trkpt lat="46.31713" lon="4.72873">
        <ele>300</ele>
        <time>2014-09-28T07:02:54Z</time>
      </trkpt>
      <trkpt lat="46.31717" lon="4.72868">
        <ele>300</ele>
        <time>2014-09-28T07:02:55Z</time>
      </trkpt>
      <trkpt lat="46.3172" lon="4.72863">
        <ele>300</ele>
        <time>2014-09-28T07:02:56Z</time>
      </trkpt>
      <trkpt lat="46.31724" lon="4.72858">
        <ele>300</ele>
        <time>2014-09-28T07:02:57Z</time>
      </trkpt>
      <trkpt lat="46.31727" lon="4.72852">
        <ele>300</ele>
        <time>2014-09-28T07:02:58Z</time>
      </trkpt>
      <trkpt lat="46.3173" lon="4.72847">
        <ele>299</ele>
        <time>2014-09-28T07:02:59Z</time>
      </trkpt>
      <trkpt lat="46.31733" lon="4.72841">
        <ele>299</ele>
        <time>2014-09-28T07:03:00Z</time>
      </trkpt>
      <trkpt lat="46.31736" lon="4.72835">
        <ele>299</ele>
        <time>2014-09-28T07:03:01Z</time>
      </trkpt>
      <trkpt lat="46.31739" lon="4.7283">
        <ele>302</ele>
        <time>2014-09-28T07:03:02Z</time>
      </trkpt>
      <trkpt lat="46.31743" lon="4.72825">
        <ele>302</ele>
        <time>2014-09-28T07:03:03Z</time>
      </trkpt>
      <trkpt lat="46.31747" lon="4.7282">
        <ele>302</ele>
        <time>2014-09-28T07:03:04Z</time>
      </trkpt>
      <trkpt lat="46.31751" lon="4.72815">
        <ele>298</ele>
        <time>2014-09-28T07:03:05Z</time>
      </trkpt>
      <trkpt lat="46.31755" lon="4.7281">
        <ele>298</ele>
        <time>2014-09-28T07:03:06Z</time>
      </trkpt>
      <trkpt lat="46.31759" lon="4.72805">
        <ele>298</ele>
        <time>2014-09-28T07:03:07Z</time>
      </trkpt>
      <trkpt lat="46.31763" lon="4.728">
        <ele>298</ele>
        <time>2014-09-28T07:03:08Z</time>
      </trkpt>
      <trkpt lat="46.31767" lon="4.72794">
        <ele>298</ele>
        <time>2014-09-28T07:03:09Z</time>
      </trkpt>
      <trkpt lat="46.31771" lon="4.72789">
        <ele>298</ele>
        <time>2014-09-28T07:03:10Z</time>
      </trkpt>
      <trkpt lat="46.31775" lon="4.72784">
        <ele>298</ele>
        <time>2014-09-28T07:03:11Z</time>
      </trkpt>
      <trkpt lat="46.31779" lon="4.7278">
        <ele>298</ele>
        <time>2014-09-28T07:03:12Z</time>
      </trkpt>
      <trkpt lat="46.31783" lon="4.72774">
        <ele>298</ele>
        <time>2014-09-28T07:03:13Z</time>
      </trkpt>
      <trkpt lat="46.31786" lon="4.72769">
        <ele>298</ele>
        <time>2014-09-28T07:03:14Z</time>
      </trkpt>
      <trkpt lat="46.31789" lon="4.72763">
        <ele>298</ele>
        <time>2014-09-28T07:03:15Z</time>
      </trkpt>
      <trkpt lat="46.31792" lon="4.72757">
        <ele>298</ele>
        <time>2014-09-28T07:03:16Z</time>
      </trkpt>
      <trkpt lat="46.31796" lon="4.72752">
        <ele>297</ele>
        <time>2014-09-28T07:03:17Z</time>
      </trkpt>
      <trkpt lat="46.31799" lon="4.72747">
        <ele>302</ele>
        <time>2014-09-28T07:03:18Z</time>
      </trkpt>
      <trkpt lat="46.31803" lon="4.72742">
        <ele>301</ele>
        <time>2014-09-28T07:03:19Z</time>
      </trkpt>
      <trkpt lat="46.31806" lon="4.72735">
        <ele>301</ele>
        <time>2014-09-28T07:03:20Z</time>
      </trkpt>
      <trkpt lat="46.31809" lon="4.7273">
        <ele>301</ele>
        <time>2014-09-28T07:03:21Z</time>
      </trkpt>
      <trkpt lat="46.3181" lon="4.72721">
        <ele>302</ele>
        <time>2014-09-28T07:03:22Z</time>
      </trkpt>
      <trkpt lat="46.31813" lon="4.72716">
        <ele>302</ele>
        <time>2014-09-28T07:03:23Z</time>
      </trkpt>
      <trkpt lat="46.31816" lon="4.72711">
        <ele>302</ele>
        <time>2014-09-28T07:03:24Z</time>
      </trkpt>
      <trkpt lat="46.3182" lon="4.72706">
        <ele>302</ele>
        <time>2014-09-28T07:03:25Z</time>
      </trkpt>
      <trkpt lat="46.31824" lon="4.72701">
        <ele>302</ele>
        <time>2014-09-28T07:03:26Z</time>
      </trkpt>
      <trkpt lat="46.31827" lon="4.72695">
        <ele>302</ele>
        <time>2014-09-28T07:03:27Z</time>
      </trkpt>
      <trkpt lat="46.31831" lon="4.72688">
        <ele>302</ele>
        <time>2014-09-28T07:03:28Z</time>
      </trkpt>
      <trkpt lat="46.31834" lon="4.72681">
        <ele>298</ele>
        <time>2014-09-28T07:03:29Z</time>
      </trkpt>
      <trkpt lat="46.31837" lon="4.72673">
        <ele>299</ele>
        <time>2014-09-28T07:03:30Z</time>
      </trkpt>
      <trkpt lat="46.31841" lon="4.72666">
        <ele>300</ele>
        <time>2014-09-28T07:03:31Z</time>
      </trkpt>
      <trkpt lat="46.31843" lon="4.72658">
        <ele>299</ele>
        <time>2014-09-28T07:03:32Z</time>
      </trkpt>
      <trkpt lat="46.31846" lon="4.7265">
        <ele>299</ele>
        <time>2014-09-28T07:03:33Z</time>
      </trkpt>
      <trkpt lat="46.31849" lon="4.72642">
        <ele>299</ele>
        <time>2014-09-28T07:03:34Z</time>
      </trkpt>
      <trkpt lat="46.31852" lon="4.72634">
        <ele>299</ele>
        <time>2014-09-28T07:03:35Z</time>
      </trkpt>
      <trkpt lat="46.31854" lon="4.72627">
        <ele>299</ele>
        <time>2014-09-28T07:03:36Z</time>
      </trkpt>
      <trkpt lat="46.31857" lon="4.7262">
        <ele>299</ele>
        <time>2014-09-28T07:03:37Z</time>
      </trkpt>
      <trkpt lat="46.3186" lon="4.72613">
        <ele>299</ele>
        <time>2014-09-28T07:03:38Z</time>
      </trkpt>
      <trkpt lat="46.31864" lon="4.72607">
        <ele>299</ele>
        <time>2014-09-28T07:03:39Z</time>
      </trkpt>
      <trkpt lat="46.31867" lon="4.72601">
        <ele>298</ele>
        <time>2014-09-28T07:03:40Z</time>
      </trkpt>
      <trkpt lat="46.3187" lon="4.72595">
        <ele>298</ele>
        <time>2014-09-28T07:03:41Z</time>
      </trkpt>
      <trkpt lat="46.31874" lon="4.72589">
        <ele>298</ele>
        <time>2014-09-28T07:03:42Z</time>
      </trkpt>
      <trkpt lat="46.31878" lon="4.72583">
        <ele>298</ele>
        <time>2014-09-28T07:03:43Z</time>
      </trkpt>
      <trkpt lat="46.31883" lon="4.72578">
        <ele>301</ele>
        <time>2014-09-28T07:03:44Z</time>
      </trkpt>
      <trkpt lat="46.31887" lon="4.72572">
        <ele>300</ele>
        <time>2014-09-28T07:03:45Z</time>
      </trkpt>
      <trkpt lat="46.31892" lon="4.72567">
        <ele>300</ele>
        <time>2014-09-28T07:03:46Z</time>
      </trkpt>
      <trkpt lat="46.31896" lon="4.72561">
        <ele>300</ele>
        <time>2014-09-28T07:03:47Z</time>
      </trkpt>
      <trkpt lat="46.31901" lon="4.72556">
        <ele>300</ele>
        <time>2014-09-28T07:03:48Z</time>
      </trkpt>
      <trkpt lat="46.31905" lon="4.7255">
        <ele>300</ele>
        <time>2014-09-28T07:03:49Z</time>
      </trkpt>
      <trkpt lat="46.3191" lon="4.72544">
        <ele>301</ele>
        <time>2014-09-28T07:03:50Z</time>
      </trkpt>
      <trkpt lat="46.31913" lon="4.72538">
        <ele>301</ele>
        <time>2014-09-28T07:03:51Z</time>
      </trkpt>
      <trkpt lat="46.31917" lon="4.72533">
        <ele>296</ele>
        <time>2014-09-28T07:03:52Z</time>
      </trkpt>
      <trkpt lat="46.31921" lon="4.72528">
        <ele>296</ele>
        <time>2014-09-28T07:03:53Z</time>
      </trkpt>
      <trkpt lat="46.31926" lon="4.72525">
        <ele>296</ele>
        <time>2014-09-28T07:03:54Z</time>
      </trkpt>
      <trkpt lat="46.31931" lon="4.72523">
        <ele>296</ele>
        <time>2014-09-28T07:03:55Z</time>
      </trkpt>
      <trkpt lat="46.31936" lon="4.72522">
        <ele>296</ele>
        <time>2014-09-28T07:03:56Z</time>
      </trkpt>
      <trkpt lat="46.31941" lon="4.72519">
        <ele>296</ele>
        <time>2014-09-28T07:03:57Z</time>
      </trkpt>
      <trkpt lat="46.31947" lon="4.7252">
        <ele>296</ele>
        <time>2014-09-28T07:03:58Z</time>
      </trkpt>
      <trkpt lat="46.31953" lon="4.7252">
        <ele>296</ele>
        <time>2014-09-28T07:03:59Z</time>
      </trkpt>
      <trkpt lat="46.3196" lon="4.7252">
        <ele>296</ele>
        <time>2014-09-28T07:04:00Z</time>
      </trkpt>
      <trkpt lat="46.31967" lon="4.72519">
        <ele>296</ele>
        <time>2014-09-28T07:04:01Z</time>
      </trkpt>
      <trkpt lat="46.31973" lon="4.7252">
        <ele>296</ele>
        <time>2014-09-28T07:04:02Z</time>
      </trkpt>
      <trkpt lat="46.3198" lon="4.72518">
        <ele>296</ele>
        <time>2014-09-28T07:04:03Z</time>
      </trkpt>
      <trkpt lat="46.31989" lon="4.72517">
        <ele>296</ele>
        <time>2014-09-28T07:04:05Z</time>
      </trkpt>
      <trkpt lat="46.31993" lon="4.72514">
        <ele>296</ele>
        <time>2014-09-28T07:04:06Z</time>
      </trkpt>
      <trkpt lat="46.31997" lon="4.72504">
        <ele>296</ele>
        <time>2014-09-28T07:04:09Z</time>
      </trkpt>
      <trkpt lat="46.31998" lon="4.72501">
        <ele>296</ele>
        <time>2014-09-28T07:04:10Z</time>
      </trkpt>
      <trkpt lat="46.32001" lon="4.72491">
        <ele>299</ele>
        <time>2014-09-28T07:04:13Z</time>
      </trkpt>
      <trkpt lat="46.32002" lon="4.72488">
        <ele>299</ele>
        <time>2014-09-28T07:04:14Z</time>
      </trkpt>
      <trkpt lat="46.32005" lon="4.72477">
        <ele>301</ele>
        <time>2014-09-28T07:04:17Z</time>
      </trkpt>
      <trkpt lat="46.32006" lon="4.72473">
        <ele>301</ele>
        <time>2014-09-28T07:04:18Z</time>
      </trkpt>
      <trkpt lat="46.3201" lon="4.72462">
        <ele>302</ele>
        <time>2014-09-28T07:04:21Z</time>
      </trkpt>
      <trkpt lat="46.32011" lon="4.72458">
        <ele>303</ele>
        <time>2014-09-28T07:04:22Z</time>
      </trkpt>
      <trkpt lat="46.32015" lon="4.72448">
        <ele>303</ele>
        <time>2014-09-28T07:04:25Z</time>
      </trkpt>
      <trkpt lat="46.32016" lon="4.72444">
        <ele>303</ele>
        <time>2014-09-28T07:04:26Z</time>
      </trkpt>
      <trkpt lat="46.32019" lon="4.72434">
        <ele>303</ele>
        <time>2014-09-28T07:04:29Z</time>
      </trkpt>
      <trkpt lat="46.3202" lon="4.72431">
        <ele>303</ele>
        <time>2014-09-28T07:04:30Z</time>
      </trkpt>
      <trkpt lat="46.32022" lon="4.72421">
        <ele>303</ele>
        <time>2014-09-28T07:04:33Z</time>
      </trkpt>
      <trkpt lat="46.32023" lon="4.72417">
        <ele>303</ele>
        <time>2014-09-28T07:04:34Z</time>
      </trkpt>
      <trkpt lat="46.32024" lon="4.72407">
        <ele>306</ele>
        <time>2014-09-28T07:04:37Z</time>
      </trkpt>
      <trkpt lat="46.32025" lon="4.72404">
        <ele>306</ele>
        <time>2014-09-28T07:04:38Z</time>
      </trkpt>
      <trkpt lat="46.32028" lon="4.72394">
        <ele>307</ele>
        <time>2014-09-28T07:04:41Z</time>
      </trkpt>
      <trkpt lat="46.32029" lon="4.72391">
        <ele>307</ele>
        <time>2014-09-28T07:04:42Z</time>
      </trkpt>
      <trkpt lat="46.32031" lon="4.72381">
        <ele>308</ele>
        <time>2014-09-28T07:04:45Z</time>
      </trkpt>
      <trkpt lat="46.32032" lon="4.72378">
        <ele>308</ele>
        <time>2014-09-28T07:04:46Z</time>
      </trkpt>
      <trkpt lat="46.32035" lon="4.72369">
        <ele>308</ele>
        <time>2014-09-28T07:04:49Z</time>
      </trkpt>
      <trkpt lat="46.32035" lon="4.72366">
        <ele>308</ele>
        <time>2014-09-28T07:04:50Z</time>
      </trkpt>
      <trkpt lat="46.32036" lon="4.72356">
        <ele>308</ele>
        <time>2014-09-28T07:04:53Z</time>
      </trkpt>
      <trkpt lat="46.32037" lon="4.72352">
        <ele>309</ele>
        <time>2014-09-28T07:04:54Z</time>
      </trkpt>
      <trkpt lat="46.3204" lon="4.72344">
        <ele>309</ele>
        <time>2014-09-28T07:04:57Z</time>
      </trkpt>
      <trkpt lat="46.32041" lon="4.72341">
        <ele>309</ele>
        <time>2014-09-28T07:04:58Z</time>
      </trkpt>
      <trkpt lat="46.32044" lon="4.72332">
        <ele>312</ele>
        <time>2014-09-28T07:05:01Z</time>
      </trkpt>
      <trkpt lat="46.32046" lon="4.72329">
        <ele>313</ele>
        <time>2014-09-28T07:05:02Z</time>
      </trkpt>
      <trkpt lat="46.32049" lon="4.72321">
        <ele>313</ele>
        <time>2014-09-28T07:05:05Z</time>
      </trkpt>
      <trkpt lat="46.32051" lon="4.72318">
        <ele>313</ele>
        <time>2014-09-28T07:05:06Z</time>
      </trkpt>
      <trkpt lat="46.32055" lon="4.7231">
        <ele>314</ele>
        <time>2014-09-28T07:05:10Z</time>
      </trkpt>
      <trkpt lat="46.32057" lon="4.72307">
        <ele>314</ele>
        <time>2014-09-28T07:05:11Z</time>
      </trkpt>
      <trkpt lat="46.32061" lon="4.72298">
        <ele>314</ele>
        <time>2014-09-28T07:05:15Z</time>
      </trkpt>
      <trkpt lat="46.32063" lon="4.72296">
        <ele>314</ele>
        <time>2014-09-28T07:05:16Z</time>
      </trkpt>
      <trkpt lat="46.32068" lon="4.72286">
        <ele>315</ele>
        <time>2014-09-28T07:05:20Z</time>
      </trkpt>
      <trkpt lat="46.32069" lon="4.72283">
        <ele>315</ele>
        <time>2014-09-28T07:05:21Z</time>
      </trkpt>
      <trkpt lat="46.32074" lon="4.72273">
        <ele>316</ele>
        <time>2014-09-28T07:05:25Z</time>
      </trkpt>
      <trkpt lat="46.32075" lon="4.7227">
        <ele>316</ele>
        <time>2014-09-28T07:05:26Z</time>
      </trkpt>
      <trkpt lat="46.3208" lon="4.72262">
        <ele>318</ele>
        <time>2014-09-28T07:05:29Z</time>
      </trkpt>
      <trkpt lat="46.32081" lon="4.72259">
        <ele>318</ele>
        <time>2014-09-28T07:05:30Z</time>
      </trkpt>
      <trkpt lat="46.32088" lon="4.7225">
        <ele>321</ele>
        <time>2014-09-28T07:05:34Z</time>
      </trkpt>
      <trkpt lat="46.3209" lon="4.7225">
        <ele>322</ele>
        <time>2014-09-28T07:05:35Z</time>
      </trkpt>
      <trkpt lat="46.32092" lon="4.7226">
        <ele>323</ele>
        <time>2014-09-28T07:05:39Z</time>
      </trkpt>
      <trkpt lat="46.32092" lon="4.72264">
        <ele>324</ele>
        <time>2014-09-28T07:05:40Z</time>
      </trkpt>
      <trkpt lat="46.32091" lon="4.7227">
        <ele>324</ele>
        <time>2014-09-28T07:05:41Z</time>
      </trkpt>
      <trkpt lat="46.3209" lon="4.72277">
        <ele>324</ele>
        <time>2014-09-28T07:05:42Z</time>
      </trkpt>
      <trkpt lat="46.32088" lon="4.72283">
        <ele>325</ele>
        <time>2014-09-28T07:05:43Z</time>
      </trkpt>
      <trkpt lat="46.32087" lon="4.7229">
        <ele>324</ele>
        <time>2014-09-28T07:05:44Z</time>
      </trkpt>
      <trkpt lat="46.32086" lon="4.72296">
        <ele>324</ele>
        <time>2014-09-28T07:05:45Z</time>
      </trkpt>
      <trkpt lat="46.32086" lon="4.72305">
        <ele>324</ele>
        <time>2014-09-28T07:05:46Z</time>
      </trkpt>
      <trkpt lat="46.32085" lon="4.72313">
        <ele>323</ele>
        <time>2014-09-28T07:05:47Z</time>
      </trkpt>
      <trkpt lat="46.32084" lon="4.7232">
        <ele>321</ele>
        <time>2014-09-28T07:05:48Z</time>
      </trkpt>
      <trkpt lat="46.32084" lon="4.72328">
        <ele>319</ele>
        <time>2014-09-28T07:05:49Z</time>
      </trkpt>
      <trkpt lat="46.32084" lon="4.72335">
        <ele>318</ele>
        <time>2014-09-28T07:05:50Z</time>
      </trkpt>
      <trkpt lat="46.32084" lon="4.72343">
        <ele>319</ele>
        <time>2014-09-28T07:05:51Z</time>
      </trkpt>
      <trkpt lat="46.32084" lon="4.7235">
        <ele>320</ele>
        <time>2014-09-28T07:05:52Z</time>
      </trkpt>
      <trkpt lat="46.32086" lon="4.72357">
        <ele>321</ele>
        <time>2014-09-28T07:05:53Z</time>
      </trkpt>
      <trkpt lat="46.32087" lon="4.72365">
        <ele>321</ele>
        <time>2014-09-28T07:05:54Z</time>
      </trkpt>
      <trkpt lat="46.3209" lon="4.72377">
        <ele>321</ele>
        <time>2014-09-28T07:05:56Z</time>
      </trkpt>
      <trkpt lat="46.32092" lon="4.72381">
        <ele>321</ele>
        <time>2014-09-28T07:05:57Z</time>
      </trkpt>
      <trkpt lat="46.32095" lon="4.72393">
        <ele>320</ele>
        <time>2014-09-28T07:06:00Z</time>
      </trkpt>
      <trkpt lat="46.32096" lon="4.72398">
        <ele>319</ele>
        <time>2014-09-28T07:06:01Z</time>
      </trkpt>
      <trkpt lat="46.32096" lon="4.7241">
        <ele>318</ele>
        <time>2014-09-28T07:06:03Z</time>
      </trkpt>
      <trkpt lat="46.32095" lon="4.72416">
        <ele>317</ele>
        <time>2014-09-28T07:06:04Z</time>
      </trkpt>
      <trkpt lat="46.32095" lon="4.72428">
        <ele>316</ele>
        <time>2014-09-28T07:06:06Z</time>
      </trkpt>
      <trkpt lat="46.32096" lon="4.72436">
        <ele>317</ele>
        <time>2014-09-28T07:06:07Z</time>
      </trkpt>
      <trkpt lat="46.32095" lon="4.72443">
        <ele>317</ele>
        <time>2014-09-28T07:06:08Z</time>
      </trkpt>
      <trkpt lat="46.32097" lon="4.72452">
        <ele>318</ele>
        <time>2014-09-28T07:06:09Z</time>
      </trkpt>
      <trkpt lat="46.32097" lon="4.72459">
        <ele>318</ele>
        <time>2014-09-28T07:06:10Z</time>
      </trkpt>
      <trkpt lat="46.32095" lon="4.72466">
        <ele>317</ele>
        <time>2014-09-28T07:06:11Z</time>
      </trkpt>
      <trkpt lat="46.32094" lon="4.72474">
        <ele>317</ele>
        <time>2014-09-28T07:06:12Z</time>
      </trkpt>
      <trkpt lat="46.32094" lon="4.72482">
        <ele>316</ele>
        <time>2014-09-28T07:06:13Z</time>
      </trkpt>
      <trkpt lat="46.32093" lon="4.72491">
        <ele>314</ele>
        <time>2014-09-28T07:06:14Z</time>
      </trkpt>
      <trkpt lat="46.32093" lon="4.72499">
        <ele>313</ele>
        <time>2014-09-28T07:06:15Z</time>
      </trkpt>
      <trkpt lat="46.32093" lon="4.72507">
        <ele>312</ele>
        <time>2014-09-28T07:06:16Z</time>
      </trkpt>
      <trkpt lat="46.32093" lon="4.72516">
        <ele>313</ele>
        <time>2014-09-28T07:06:17Z</time>
      </trkpt>
      <trkpt lat="46.32094" lon="4.72526">
        <ele>314</ele>
        <time>2014-09-28T07:06:18Z</time>
      </trkpt>
      <trkpt lat="46.32095" lon="4.72535">
        <ele>314</ele>
        <time>2014-09-28T07:06:19Z</time>
      </trkpt>
      <trkpt lat="46.32096" lon="4.72545">
        <ele>313</ele>
        <time>2014-09-28T07:06:20Z</time>
      </trkpt>
      <trkpt lat="46.32097" lon="4.72554">
        <ele>313</ele>
        <time>2014-09-28T07:06:21Z</time>
      </trkpt>
      <trkpt lat="46.32096" lon="4.72564">
        <ele>312</ele>
        <time>2014-09-28T07:06:22Z</time>
      </trkpt>
      <trkpt lat="46.32097" lon="4.72575">
        <ele>310</ele>
        <time>2014-09-28T07:06:23Z</time>
      </trkpt>
      <trkpt lat="46.32096" lon="4.72586">
        <ele>308</ele>
        <time>2014-09-28T07:06:24Z</time>
      </trkpt>
      <trkpt lat="46.32098" lon="4.72597">
        <ele>309</ele>
        <time>2014-09-28T07:06:25Z</time>
      </trkpt>
      <trkpt lat="46.32099" lon="4.72609">
        <ele>309</ele>
        <time>2014-09-28T07:06:26Z</time>
      </trkpt>
      <trkpt lat="46.321" lon="4.72619">
        <ele>309</ele>
        <time>2014-09-28T07:06:27Z</time>
      </trkpt>
      <trkpt lat="46.321" lon="4.7263">
        <ele>309</ele>
        <time>2014-09-28T07:06:28Z</time>
      </trkpt>
      <trkpt lat="46.32101" lon="4.72642">
        <ele>309</ele>
        <time>2014-09-28T07:06:29Z</time>
      </trkpt>
      <trkpt lat="46.32102" lon="4.72652">
        <ele>308</ele>
        <time>2014-09-28T07:06:30Z</time>
      </trkpt>
      <trkpt lat="46.32102" lon="4.72663">
        <ele>307</ele>
        <time>2014-09-28T07:06:31Z</time>
      </trkpt>
      <trkpt lat="46.32103" lon="4.72673">
        <ele>305</ele>
        <time>2014-09-28T07:06:32Z</time>
      </trkpt>
      <trkpt lat="46.32103" lon="4.72684">
        <ele>305</ele>
        <time>2014-09-28T07:06:33Z</time>
      </trkpt>
      <trkpt lat="46.32102" lon="4.72695">
        <ele>306</ele>
        <time>2014-09-28T07:06:34Z</time>
      </trkpt>
      <trkpt lat="46.32101" lon="4.72705">
        <ele>305</ele>
        <time>2014-09-28T07:06:35Z</time>
      </trkpt>
      <trkpt lat="46.32101" lon="4.72716">
        <ele>305</ele>
        <time>2014-09-28T07:06:36Z</time>
      </trkpt>
      <trkpt lat="46.321" lon="4.72728">
        <ele>304</ele>
        <time>2014-09-28T07:06:37Z</time>
      </trkpt>
      <trkpt lat="46.321" lon="4.7274">
        <ele>303</ele>
        <time>2014-09-28T07:06:38Z</time>
      </trkpt>
      <trkpt lat="46.321" lon="4.72752">
        <ele>301</ele>
        <time>2014-09-28T07:06:39Z</time>
      </trkpt>
      <trkpt lat="46.321" lon="4.72763">
        <ele>301</ele>
        <time>2014-09-28T07:06:40Z</time>
      </trkpt>
      <trkpt lat="46.32099" lon="4.72775">
        <ele>302</ele>
        <time>2014-09-28T07:06:41Z</time>
      </trkpt>
      <trkpt lat="46.32098" lon="4.72786">
        <ele>302</ele>
        <time>2014-09-28T07:06:42Z</time>
      </trkpt>
      <trkpt lat="46.32097" lon="4.72798">
        <ele>301</ele>
        <time>2014-09-28T07:06:43Z</time>
      </trkpt>
      <trkpt lat="46.32099" lon="4.7281">
        <ele>301</ele>
        <time>2014-09-28T07:06:44Z</time>
      </trkpt>
      <trkpt lat="46.32102" lon="4.72823">
        <ele>300</ele>
        <time>2014-09-28T07:06:45Z</time>
      </trkpt>
      <trkpt lat="46.32103" lon="4.72834">
        <ele>297</ele>
        <time>2014-09-28T07:06:46Z</time>
      </trkpt>
      <trkpt lat="46.32105" lon="4.72846">
        <ele>298</ele>
        <time>2014-09-28T07:06:47Z</time>
      </trkpt>
      <trkpt lat="46.32106" lon="4.72857">
        <ele>298</ele>
        <time>2014-09-28T07:06:48Z</time>
      </trkpt>
      <trkpt lat="46.32105" lon="4.72868">
        <ele>298</ele>
        <time>2014-09-28T07:06:49Z</time>
      </trkpt>
      <trkpt lat="46.32103" lon="4.72879">
        <ele>297</ele>
        <time>2014-09-28T07:06:50Z</time>
      </trkpt>
      <trkpt lat="46.32102" lon="4.72887">
        <ele>297</ele>
        <time>2014-09-28T07:06:51Z</time>
      </trkpt>
      <trkpt lat="46.321" lon="4.72898">
        <ele>296</ele>
        <time>2014-09-28T07:06:53Z</time>
      </trkpt>
      <trkpt lat="46.321" lon="4.729">
        <ele>296</ele>
        <time>2014-09-28T07:06:54Z</time>
      </trkpt>
      <trkpt lat="46.32107" lon="4.72903">
        <ele>296</ele>
        <time>2014-09-28T07:06:57Z</time>
      </trkpt>
      <trkpt lat="46.32109" lon="4.72903">
        <ele>296</ele>
        <time>2014-09-28T07:06:58Z</time>
      </trkpt>
      <trkpt lat="46.32116" lon="4.72901">
        <ele>297</ele>
        <time>2014-09-28T07:07:00Z</time>
      </trkpt>
      <trkpt lat="46.32118" lon="4.72901">
        <ele>297</ele>
        <time>2014-09-28T07:07:01Z</time>
      </trkpt>
      <trkpt lat="46.32126" lon="4.729">
        <ele>298</ele>
        <time>2014-09-28T07:07:04Z</time>
      </trkpt>
      <trkpt lat="46.32128" lon="4.729">
        <ele>298</ele>
        <time>2014-09-28T07:07:05Z</time>
      </trkpt>
      <trkpt lat="46.32137" lon="4.72901">
        <ele>299</ele>
        <time>2014-09-28T07:07:09Z</time>
      </trkpt>
      <trkpt lat="46.32139" lon="4.72901">
        <ele>299</ele>
        <time>2014-09-28T07:07:10Z</time>
      </trkpt>
      <trkpt lat="46.32146" lon="4.72901">
        <ele>299</ele>
        <time>2014-09-28T07:07:13Z</time>
      </trkpt>
      <trkpt lat="46.32149" lon="4.72901">
        <ele>300</ele>
        <time>2014-09-28T07:07:14Z</time>
      </trkpt>
      <trkpt lat="46.32157" lon="4.72901">
        <ele>300</ele>
        <time>2014-09-28T07:07:17Z</time>
      </trkpt>
      <trkpt lat="46.32159" lon="4.72901">
        <ele>300</ele>
        <time>2014-09-28T07:07:18Z</time>
      </trkpt>
      <trkpt lat="46.32166" lon="4.729">
        <ele>300</ele>
        <time>2014-09-28T07:07:20Z</time>
      </trkpt>
      <trkpt lat="46.32169" lon="4.729">
        <ele>304</ele>
        <time>2014-09-28T07:07:21Z</time>
      </trkpt>
      <trkpt lat="46.32175" lon="4.72899">
        <ele>304</ele>
        <time>2014-09-28T07:07:23Z</time>
      </trkpt>
      <trkpt lat="46.32179" lon="4.72899">
        <ele>304</ele>
        <time>2014-09-28T07:07:24Z</time>
      </trkpt>
      <trkpt lat="46.32185" lon="4.72898">
        <ele>304</ele>
        <time>2014-09-28T07:07:26Z</time>
      </trkpt>
      <trkpt lat="46.32189" lon="4.72898">
        <ele>305</ele>
        <time>2014-09-28T07:07:27Z</time>
      </trkpt>
      <trkpt lat="46.32195" lon="4.72896">
        <ele>305</ele>
        <time>2014-09-28T07:07:29Z</time>
      </trkpt>
      <trkpt lat="46.32199" lon="4.72895">
        <ele>305</ele>
        <time>2014-09-28T07:07:30Z</time>
      </trkpt>
      <trkpt lat="46.32206" lon="4.72893">
        <ele>305</ele>
        <time>2014-09-28T07:07:32Z</time>
      </trkpt>
      <trkpt lat="46.32209" lon="4.72892">
        <ele>305</ele>
        <time>2014-09-28T07:07:33Z</time>
      </trkpt>
      <trkpt lat="46.32216" lon="4.7289">
        <ele>306</ele>
        <time>2014-09-28T07:07:35Z</time>
      </trkpt>
      <trkpt lat="46.32219" lon="4.72889">
        <ele>306</ele>
        <time>2014-09-28T07:07:36Z</time>
      </trkpt>
      <trkpt lat="46.32225" lon="4.72887">
        <ele>306</ele>
        <time>2014-09-28T07:07:38Z</time>
      </trkpt>
      <trkpt lat="46.32229" lon="4.72886">
        <ele>306</ele>
        <time>2014-09-28T07:07:39Z</time>
      </trkpt>
      <trkpt lat="46.32236" lon="4.72883">
        <ele>306</ele>
        <time>2014-09-28T07:07:41Z</time>
      </trkpt>
      <trkpt lat="46.32239" lon="4.72882">
        <ele>306</ele>
        <time>2014-09-28T07:07:42Z</time>
      </trkpt>
      <trkpt lat="46.32244" lon="4.72886">
        <ele>306</ele>
        <time>2014-09-28T07:07:44Z</time>
      </trkpt>
      <trkpt lat="46.32246" lon="4.72891">
        <ele>306</ele>
        <time>2014-09-28T07:07:45Z</time>
      </trkpt>
      <trkpt lat="46.32245" lon="4.72897">
        <ele>305</ele>
        <time>2014-09-28T07:07:46Z</time>
      </trkpt>
      <trkpt lat="46.32239" lon="4.7291">
        <ele>304</ele>
        <time>2014-09-28T07:07:47Z</time>
      </trkpt>
      <trkpt lat="46.32238" lon="4.72918">
        <ele>301</ele>
        <time>2014-09-28T07:07:48Z</time>
      </trkpt>
      <trkpt lat="46.32237" lon="4.72926">
        <ele>301</ele>
        <time>2014-09-28T07:07:49Z</time>
      </trkpt>
      <trkpt lat="46.32237" lon="4.72932">
        <ele>301</ele>
        <time>2014-09-28T07:07:50Z</time>
      </trkpt>
      <trkpt lat="46.32239" lon="4.72938">
        <ele>300</ele>
        <time>2014-09-28T07:07:51Z</time>
      </trkpt>
      <trkpt lat="46.32247" lon="4.72944">
        <ele>300</ele>
        <time>2014-09-28T07:07:53Z</time>
      </trkpt>
      <trkpt lat="46.32253" lon="4.72943">
        <ele>299</ele>
        <time>2014-09-28T07:07:54Z</time>
      </trkpt>
      <trkpt lat="46.32258" lon="4.72943">
        <ele>299</ele>
        <time>2014-09-28T07:07:55Z</time>
      </trkpt>
      <trkpt lat="46.32264" lon="4.72941">
        <ele>299</ele>
        <time>2014-09-28T07:07:56Z</time>
      </trkpt>
      <trkpt lat="46.32269" lon="4.72941">
        <ele>299</ele>
        <time>2014-09-28T07:07:57Z</time>
      </trkpt>
      <trkpt lat="46.32274" lon="4.72941">
        <ele>299</ele>
        <time>2014-09-28T07:07:58Z</time>
      </trkpt>
      <trkpt lat="46.32279" lon="4.7294">
        <ele>299</ele>
        <time>2014-09-28T07:07:59Z</time>
      </trkpt>
      <trkpt lat="46.32285" lon="4.72939">
        <ele>299</ele>
        <time>2014-09-28T07:08:00Z</time>
      </trkpt>
      <trkpt lat="46.32291" lon="4.72937">
        <ele>299</ele>
        <time>2014-09-28T07:08:01Z</time>
      </trkpt>
      <trkpt lat="46.32296" lon="4.72936">
        <ele>299</ele>
        <time>2014-09-28T07:08:02Z</time>
      </trkpt>
      <trkpt lat="46.32301" lon="4.72934">
        <ele>299</ele>
        <time>2014-09-28T07:08:03Z</time>
      </trkpt>
      <trkpt lat="46.32306" lon="4.72929">
        <ele>299</ele>
        <time>2014-09-28T07:08:04Z</time>
      </trkpt>
      <trkpt lat="46.32311" lon="4.72927">
        <ele>299</ele>
        <time>2014-09-28T07:08:05Z</time>
      </trkpt>
      <trkpt lat="46.32317" lon="4.72926">
        <ele>299</ele>
        <time>2014-09-28T07:08:06Z</time>
      </trkpt>
      <trkpt lat="46.32323" lon="4.72923">
        <ele>300</ele>
        <time>2014-09-28T07:08:07Z</time>
      </trkpt>
      <trkpt lat="46.32328" lon="4.72919">
        <ele>301</ele>
        <time>2014-09-28T07:08:08Z</time>
      </trkpt>
      <trkpt lat="46.32334" lon="4.72917">
        <ele>302</ele>
        <time>2014-09-28T07:08:09Z</time>
      </trkpt>
      <trkpt lat="46.32339" lon="4.72914">
        <ele>302</ele>
        <time>2014-09-28T07:08:10Z</time>
      </trkpt>
      <trkpt lat="46.32344" lon="4.72911">
        <ele>303</ele>
        <time>2014-09-28T07:08:11Z</time>
      </trkpt>
      <trkpt lat="46.32349" lon="4.72909">
        <ele>303</ele>
        <time>2014-09-28T07:08:12Z</time>
      </trkpt>
      <trkpt lat="46.32354" lon="4.72907">
        <ele>303</ele>
        <time>2014-09-28T07:08:13Z</time>
      </trkpt>
      <trkpt lat="46.32361" lon="4.72902">
        <ele>303</ele>
        <time>2014-09-28T07:08:14Z</time>
      </trkpt>
      <trkpt lat="46.32364" lon="4.72898">
        <ele>303</ele>
        <time>2014-09-28T07:08:15Z</time>
      </trkpt>
      <trkpt lat="46.32371" lon="4.72897">
        <ele>303</ele>
        <time>2014-09-28T07:08:16Z</time>
      </trkpt>
      <trkpt lat="46.32376" lon="4.72894">
        <ele>303</ele>
        <time>2014-09-28T07:08:17Z</time>
      </trkpt>
      <trkpt lat="46.32381" lon="4.72892">
        <ele>303</ele>
        <time>2014-09-28T07:08:18Z</time>
      </trkpt>
      <trkpt lat="46.32388" lon="4.72898">
        <ele>302</ele>
        <time>2014-09-28T07:08:24Z</time>
      </trkpt>
      <trkpt lat="46.3239" lon="4.729">
        <ele>302</ele>
        <time>2014-09-28T07:08:25Z</time>
      </trkpt>
      <trkpt lat="46.32395" lon="4.72899">
        <ele>301</ele>
        <time>2014-09-28T07:08:26Z</time>
      </trkpt>
      <trkpt lat="46.324" lon="4.72897">
        <ele>301</ele>
        <time>2014-09-28T07:08:27Z</time>
      </trkpt>
      <trkpt lat="46.32404" lon="4.72897">
        <ele>301</ele>
        <time>2014-09-28T07:08:28Z</time>
      </trkpt>
      <trkpt lat="46.3241" lon="4.72895">
        <ele>301</ele>
        <time>2014-09-28T07:08:29Z</time>
      </trkpt>
      <trkpt lat="46.32419" lon="4.72891">
        <ele>296</ele>
        <time>2014-09-28T07:08:30Z</time>
      </trkpt>
      <trkpt lat="46.32427" lon="4.72888">
        <ele>296</ele>
        <time>2014-09-28T07:08:31Z</time>
      </trkpt>
      <trkpt lat="46.32433" lon="4.72886">
        <ele>296</ele>
        <time>2014-09-28T07:08:32Z</time>
      </trkpt>
      <trkpt lat="46.3244" lon="4.72881">
        <ele>295</ele>
        <time>2014-09-28T07:08:33Z</time>
      </trkpt>
      <trkpt lat="46.32446" lon="4.7288">
        <ele>295</ele>
        <time>2014-09-28T07:08:34Z</time>
      </trkpt>
      <trkpt lat="46.32452" lon="4.7288">
        <ele>295</ele>
        <time>2014-09-28T07:08:35Z</time>
      </trkpt>
      <trkpt lat="46.32459" lon="4.72876">
        <ele>294</ele>
        <time>2014-09-28T07:08:36Z</time>
      </trkpt>
      <trkpt lat="46.32466" lon="4.72874">
        <ele>294</ele>
        <time>2014-09-28T07:08:37Z</time>
      </trkpt>
      <trkpt lat="46.32471" lon="4.72873">
        <ele>294</ele>
        <time>2014-09-28T07:08:38Z</time>
      </trkpt>
      <trkpt lat="46.32478" lon="4.72867">
        <ele>294</ele>
        <time>2014-09-28T07:08:39Z</time>
      </trkpt>
      <trkpt lat="46.32487" lon="4.72863">
        <ele>294</ele>
        <time>2014-09-28T07:08:40Z</time>
      </trkpt>
      <trkpt lat="46.32491" lon="4.72865">
        <ele>294</ele>
        <time>2014-09-28T07:08:41Z</time>
      </trkpt>
      <trkpt lat="46.32498" lon="4.72863">
        <ele>294</ele>
        <time>2014-09-28T07:08:42Z</time>
      </trkpt>
      <trkpt lat="46.32503" lon="4.72873">
        <ele>285</ele>
        <time>2014-09-28T07:08:44Z</time>
      </trkpt>
      <trkpt lat="46.32508" lon="4.72876">
        <ele>284</ele>
        <time>2014-09-28T07:08:45Z</time>
      </trkpt>
      <trkpt lat="46.32515" lon="4.72875">
        <ele>284</ele>
        <time>2014-09-28T07:08:47Z</time>
      </trkpt>
      <trkpt lat="46.32522" lon="4.72875">
        <ele>283</ele>
        <time>2014-09-28T07:08:48Z</time>
      </trkpt>
      <trkpt lat="46.3253" lon="4.72878">
        <ele>282</ele>
        <time>2014-09-28T07:08:49Z</time>
      </trkpt>
      <trkpt lat="46.32537" lon="4.72874">
        <ele>282</ele>
        <time>2014-09-28T07:08:50Z</time>
      </trkpt>
      <trkpt lat="46.32545" lon="4.72875">
        <ele>281</ele>
        <time>2014-09-28T07:08:51Z</time>
      </trkpt>
      <trkpt lat="46.32552" lon="4.72874">
        <ele>281</ele>
        <time>2014-09-28T07:08:52Z</time>
      </trkpt>
      <trkpt lat="46.32561" lon="4.72872">
        <ele>281</ele>
        <time>2014-09-28T07:08:53Z</time>
      </trkpt>
      <trkpt lat="46.32569" lon="4.72869">
        <ele>280</ele>
        <time>2014-09-28T07:08:54Z</time>
      </trkpt>
      <trkpt lat="46.32576" lon="4.72867">
        <ele>280</ele>
        <time>2014-09-28T07:08:55Z</time>
      </trkpt>
      <trkpt lat="46.32582" lon="4.72864">
        <ele>280</ele>
        <time>2014-09-28T07:08:56Z</time>
      </trkpt>
      <trkpt lat="46.3259" lon="4.72858">
        <ele>272</ele>
        <time>2014-09-28T07:08:57Z</time>
      </trkpt>
      <trkpt lat="46.32595" lon="4.72855">
        <ele>272</ele>
        <time>2014-09-28T07:08:58Z</time>
      </trkpt>
      <trkpt lat="46.32599" lon="4.72851">
        <ele>272</ele>
        <time>2014-09-28T07:08:59Z</time>
      </trkpt>
      <trkpt lat="46.32604" lon="4.72846">
        <ele>272</ele>
        <time>2014-09-28T07:09:00Z</time>
      </trkpt>
      <trkpt lat="46.32609" lon="4.72843">
        <ele>271</ele>
        <time>2014-09-28T07:09:01Z</time>
      </trkpt>
      <trkpt lat="46.32614" lon="4.72837">
        <ele>270</ele>
        <time>2014-09-28T07:09:02Z</time>
      </trkpt>
      <trkpt lat="46.32617" lon="4.72831">
        <ele>279</ele>
        <time>2014-09-28T07:09:03Z</time>
      </trkpt>
      <trkpt lat="46.32621" lon="4.72829">
        <ele>279</ele>
        <time>2014-09-28T07:09:04Z</time>
      </trkpt>
      <trkpt lat="46.32628" lon="4.72822">
        <ele>278</ele>
        <time>2014-09-28T07:09:05Z</time>
      </trkpt>
      <trkpt lat="46.32634" lon="4.72811">
        <ele>278</ele>
        <time>2014-09-28T07:09:06Z</time>
      </trkpt>
      <trkpt lat="46.32637" lon="4.72808">
        <ele>278</ele>
        <time>2014-09-28T07:09:07Z</time>
      </trkpt>
      <trkpt lat="46.32644" lon="4.72803">
        <ele>278</ele>
        <time>2014-09-28T07:09:08Z</time>
      </trkpt>
      <trkpt lat="46.32649" lon="4.72798">
        <ele>278</ele>
        <time>2014-09-28T07:09:09Z</time>
      </trkpt>
      <trkpt lat="46.32655" lon="4.72788">
        <ele>279</ele>
        <time>2014-09-28T07:09:10Z</time>
      </trkpt>
      <trkpt lat="46.32658" lon="4.72776">
        <ele>280</ele>
        <time>2014-09-28T07:09:11Z</time>
      </trkpt>
      <trkpt lat="46.32663" lon="4.72767">
        <ele>280</ele>
        <time>2014-09-28T07:09:12Z</time>
      </trkpt>
      <trkpt lat="46.32666" lon="4.7276">
        <ele>280</ele>
        <time>2014-09-28T07:09:13Z</time>
      </trkpt>
      <trkpt lat="46.32669" lon="4.7275">
        <ele>279</ele>
        <time>2014-09-28T07:09:14Z</time>
      </trkpt>
      <trkpt lat="46.32672" lon="4.72738">
        <ele>276</ele>
        <time>2014-09-28T07:09:17Z</time>
      </trkpt>
      <trkpt lat="46.32673" lon="4.72737">
        <ele>276</ele>
        <time>2014-09-28T07:09:18Z</time>
      </trkpt>
      <trkpt lat="46.32668" lon="4.72741">
        <ele>277</ele>
        <time>2014-09-28T07:09:28Z</time>
      </trkpt>
      <trkpt lat="46.32667" lon="4.72748">
        <ele>279</ele>
        <time>2014-09-28T07:09:29Z</time>
      </trkpt>
      <trkpt lat="46.32664" lon="4.72755">
        <ele>280</ele>
        <time>2014-09-28T07:09:30Z</time>
      </trkpt>
      <trkpt lat="46.32661" lon="4.72763">
        <ele>280</ele>
        <time>2014-09-28T07:09:31Z</time>
      </trkpt>
      <trkpt lat="46.32659" lon="4.72772">
        <ele>280</ele>
        <time>2014-09-28T07:09:32Z</time>
      </trkpt>
      <trkpt lat="46.32653" lon="4.72791">
        <ele>279</ele>
        <time>2014-09-28T07:09:33Z</time>
      </trkpt>
      <trkpt lat="46.32652" lon="4.72799">
        <ele>278</ele>
        <time>2014-09-28T07:09:34Z</time>
      </trkpt>
      <trkpt lat="46.32652" lon="4.72806">
        <ele>276</ele>
        <time>2014-09-28T07:09:35Z</time>
      </trkpt>
      <trkpt lat="46.32651" lon="4.72818">
        <ele>274</ele>
        <time>2014-09-28T07:09:36Z</time>
      </trkpt>
      <trkpt lat="46.32651" lon="4.72837">
        <ele>265</ele>
        <time>2014-09-28T07:09:37Z</time>
      </trkpt>
      <trkpt lat="46.32655" lon="4.72849">
        <ele>265</ele>
        <time>2014-09-28T07:09:38Z</time>
      </trkpt>
      <trkpt lat="46.32659" lon="4.72864">
        <ele>263</ele>
        <time>2014-09-28T07:09:39Z</time>
      </trkpt>
      <trkpt lat="46.32664" lon="4.72883">
        <ele>260</ele>
        <time>2014-09-28T07:09:40Z</time>
      </trkpt>
      <trkpt lat="46.32658" lon="4.72887">
        <ele>260</ele>
        <time>2014-09-28T07:09:42Z</time>
      </trkpt>
      <trkpt lat="46.32655" lon="4.72901">
        <ele>256</ele>
        <time>2014-09-28T07:09:43Z</time>
      </trkpt>
      <trkpt lat="46.32662" lon="4.72893">
        <ele>258</ele>
        <time>2014-09-28T07:09:52Z</time>
      </trkpt>
      <trkpt lat="46.32663" lon="4.72889">
        <ele>259</ele>
        <time>2014-09-28T07:09:53Z</time>
      </trkpt>
      <trkpt lat="46.32667" lon="4.7288">
        <ele>247</ele>
        <time>2014-09-28T07:09:55Z</time>
      </trkpt>
      <trkpt lat="46.32669" lon="4.72875">
        <ele>248</ele>
        <time>2014-09-28T07:09:56Z</time>
      </trkpt>
      <trkpt lat="46.32673" lon="4.72864">
        <ele>250</ele>
        <time>2014-09-28T07:09:58Z</time>
      </trkpt>
      <trkpt lat="46.32675" lon="4.72859">
        <ele>251</ele>
        <time>2014-09-28T07:09:59Z</time>
      </trkpt>
      <trkpt lat="46.3268" lon="4.7285">
        <ele>252</ele>
        <time>2014-09-28T07:10:00Z</time>
      </trkpt>
      <trkpt lat="46.32684" lon="4.72845">
        <ele>253</ele>
        <time>2014-09-28T07:10:01Z</time>
      </trkpt>
      <trkpt lat="46.32689" lon="4.72837">
        <ele>252</ele>
        <time>2014-09-28T07:10:03Z</time>
      </trkpt>
      <trkpt lat="46.32689" lon="4.7283">
        <ele>259</ele>
        <time>2014-09-28T07:10:04Z</time>
      </trkpt>
      <trkpt lat="46.32693" lon="4.72824">
        <ele>259</ele>
        <time>2014-09-28T07:10:05Z</time>
      </trkpt>
      <trkpt lat="46.32696" lon="4.72818">
        <ele>258</ele>
        <time>2014-09-28T07:10:06Z</time>
      </trkpt>
      <trkpt lat="46.32697" lon="4.72807">
        <ele>258</ele>
        <time>2014-09-28T07:10:07Z</time>
      </trkpt>
      <trkpt lat="46.32698" lon="4.72801">
        <ele>259</ele>
        <time>2014-09-28T07:10:08Z</time>
      </trkpt>
      <trkpt lat="46.32703" lon="4.7279">
        <ele>259</ele>
        <time>2014-09-28T07:10:11Z</time>
      </trkpt>
      <trkpt lat="46.32704" lon="4.72783">
        <ele>259</ele>
        <time>2014-09-28T07:10:12Z</time>
      </trkpt>
      <trkpt lat="46.32707" lon="4.72773">
        <ele>259</ele>
        <time>2014-09-28T07:10:14Z</time>
      </trkpt>
      <trkpt lat="46.32708" lon="4.72767">
        <ele>260</ele>
        <time>2014-09-28T07:10:15Z</time>
      </trkpt>
      <trkpt lat="46.32711" lon="4.72763">
        <ele>259</ele>
        <time>2014-09-28T07:10:16Z</time>
      </trkpt>
      <trkpt lat="46.32713" lon="4.72755">
        <ele>259</ele>
        <time>2014-09-28T07:10:17Z</time>
      </trkpt>
      <trkpt lat="46.32719" lon="4.72746">
        <ele>265</ele>
        <time>2014-09-28T07:10:19Z</time>
      </trkpt>
      <trkpt lat="46.32719" lon="4.72741">
        <ele>265</ele>
        <time>2014-09-28T07:10:20Z</time>
      </trkpt>
      <trkpt lat="46.32723" lon="4.72731">
        <ele>265</ele>
        <time>2014-09-28T07:10:22Z</time>
      </trkpt>
      <trkpt lat="46.32725" lon="4.72724">
        <ele>266</ele>
        <time>2014-09-28T07:10:23Z</time>
      </trkpt>
      <trkpt lat="46.32727" lon="4.7271">
        <ele>267</ele>
        <time>2014-09-28T07:10:24Z</time>
      </trkpt>
      <trkpt lat="46.32728" lon="4.72698">
        <ele>268</ele>
        <time>2014-09-28T07:10:25Z</time>
      </trkpt>
      <trkpt lat="46.32729" lon="4.7269">
        <ele>268</ele>
        <time>2014-09-28T07:10:26Z</time>
      </trkpt>
      <trkpt lat="46.3273" lon="4.72682">
        <ele>267</ele>
        <time>2014-09-28T07:10:27Z</time>
      </trkpt>
      <trkpt lat="46.32734" lon="4.72679">
        <ele>267</ele>
        <time>2014-09-28T07:10:28Z</time>
      </trkpt>
      <trkpt lat="46.32739" lon="4.72675">
        <ele>265</ele>
        <time>2014-09-28T07:10:29Z</time>
      </trkpt>
      <trkpt lat="46.32741" lon="4.72671">
        <ele>264</ele>
        <time>2014-09-28T07:10:30Z</time>
      </trkpt>
      <trkpt lat="46.32747" lon="4.72664">
        <ele>265</ele>
        <time>2014-09-28T07:10:32Z</time>
      </trkpt>
      <trkpt lat="46.32749" lon="4.72654">
        <ele>270</ele>
        <time>2014-09-28T07:10:33Z</time>
      </trkpt>
      <trkpt lat="46.3275" lon="4.72648">
        <ele>272</ele>
        <time>2014-09-28T07:10:34Z</time>
      </trkpt>
      <trkpt lat="46.32754" lon="4.7264">
        <ele>256</ele>
        <time>2014-09-28T07:10:35Z</time>
      </trkpt>
      <trkpt lat="46.32758" lon="4.7263">
        <ele>256</ele>
        <time>2014-09-28T07:10:37Z</time>
      </trkpt>
      <trkpt lat="46.32761" lon="4.72623">
        <ele>257</ele>
        <time>2014-09-28T07:10:38Z</time>
      </trkpt>
      <trkpt lat="46.32763" lon="4.72616">
        <ele>258</ele>
        <time>2014-09-28T07:10:39Z</time>
      </trkpt>
      <trkpt lat="46.32765" lon="4.72608">
        <ele>259</ele>
        <time>2014-09-28T07:10:40Z</time>
      </trkpt>
      <trkpt lat="46.32769" lon="4.726">
        <ele>260</ele>
        <time>2014-09-28T07:10:41Z</time>
      </trkpt>
      <trkpt lat="46.32775" lon="4.72595">
        <ele>259</ele>
        <time>2014-09-28T07:10:42Z</time>
      </trkpt>
      <trkpt lat="46.32781" lon="4.7259">
        <ele>257</ele>
        <time>2014-09-28T07:10:43Z</time>
      </trkpt>
      <trkpt lat="46.32788" lon="4.72587">
        <ele>255</ele>
        <time>2014-09-28T07:10:44Z</time>
      </trkpt>
      <trkpt lat="46.32791" lon="4.72583">
        <ele>265</ele>
        <time>2014-09-28T07:10:45Z</time>
      </trkpt>
      <trkpt lat="46.32796" lon="4.72578">
        <ele>263</ele>
        <time>2014-09-28T07:10:46Z</time>
      </trkpt>
      <trkpt lat="46.32802" lon="4.72571">
        <ele>262</ele>
        <time>2014-09-28T07:10:47Z</time>
      </trkpt>
      <trkpt lat="46.32809" lon="4.72566">
        <ele>260</ele>
        <time>2014-09-28T07:10:48Z</time>
      </trkpt>
      <trkpt lat="46.32815" lon="4.72559">
        <ele>260</ele>
        <time>2014-09-28T07:10:49Z</time>
      </trkpt>
      <trkpt lat="46.32818" lon="4.72557">
        <ele>260</ele>
        <time>2014-09-28T07:10:50Z</time>
      </trkpt>
      <trkpt lat="46.32823" lon="4.72548">
        <ele>261</ele>
        <time>2014-09-28T07:10:52Z</time>
      </trkpt>
      <trkpt lat="46.3283" lon="4.72544">
        <ele>262</ele>
        <time>2014-09-28T07:10:53Z</time>
      </trkpt>
      <trkpt lat="46.32833" lon="4.72536">
        <ele>263</ele>
        <time>2014-09-28T07:10:54Z</time>
      </trkpt>
      <trkpt lat="46.32839" lon="4.72532">
        <ele>247</ele>
        <time>2014-09-28T07:10:55Z</time>
      </trkpt>
      <trkpt lat="46.32846" lon="4.72525">
        <ele>248</ele>
        <time>2014-09-28T07:10:56Z</time>
      </trkpt>
      <trkpt lat="46.32852" lon="4.72518">
        <ele>249</ele>
        <time>2014-09-28T07:10:57Z</time>
      </trkpt>
      <trkpt lat="46.32858" lon="4.72513">
        <ele>248</ele>
        <time>2014-09-28T07:10:59Z</time>
      </trkpt>
      <trkpt lat="46.32859" lon="4.7251">
        <ele>248</ele>
        <time>2014-09-28T07:11:00Z</time>
      </trkpt>
      <trkpt lat="46.32866" lon="4.72505">
        <ele>246</ele>
        <time>2014-09-28T07:11:04Z</time>
      </trkpt>
      <trkpt lat="46.32868" lon="4.72504">
        <ele>246</ele>
        <time>2014-09-28T07:11:05Z</time>
      </trkpt>
      <trkpt lat="46.32871" lon="4.72495">
        <ele>253</ele>
        <time>2014-09-28T07:11:07Z</time>
      </trkpt>
      <trkpt lat="46.32874" lon="4.72492">
        <ele>252</ele>
        <time>2014-09-28T07:11:08Z</time>
      </trkpt>
      <trkpt lat="46.32879" lon="4.72482">
        <ele>252</ele>
        <time>2014-09-28T07:11:11Z</time>
      </trkpt>
      <trkpt lat="46.3288" lon="4.72478">
        <ele>252</ele>
        <time>2014-09-28T07:11:12Z</time>
      </trkpt>
      <trkpt lat="46.3288" lon="4.72469">
        <ele>252</ele>
        <time>2014-09-28T07:11:14Z</time>
      </trkpt>
      <trkpt lat="46.3288" lon="4.72464">
        <ele>252</ele>
        <time>2014-09-28T07:11:15Z</time>
      </trkpt>
      <trkpt lat="46.32881" lon="4.72454">
        <ele>253</ele>
        <time>2014-09-28T07:11:17Z</time>
      </trkpt>
      <trkpt lat="46.32882" lon="4.7245">
        <ele>253</ele>
        <time>2014-09-28T07:11:18Z</time>
      </trkpt>
      <trkpt lat="46.32884" lon="4.72442">
        <ele>252</ele>
        <time>2014-09-28T07:11:20Z</time>
      </trkpt>
      <trkpt lat="46.32885" lon="4.72438">
        <ele>252</ele>
        <time>2014-09-28T07:11:21Z</time>
      </trkpt>
      <trkpt lat="46.32886" lon="4.72425">
        <ele>252</ele>
        <time>2014-09-28T07:11:24Z</time>
      </trkpt>
      <trkpt lat="46.32886" lon="4.72422">
        <ele>252</ele>
        <time>2014-09-28T07:11:25Z</time>
      </trkpt>
      <trkpt lat="46.32882" lon="4.72411">
        <ele>258</ele>
        <time>2014-09-28T07:11:29Z</time>
      </trkpt>
      <trkpt lat="46.32881" lon="4.72407">
        <ele>259</ele>
        <time>2014-09-28T07:11:30Z</time>
      </trkpt>
      <trkpt lat="46.32879" lon="4.72395">
        <ele>260</ele>
        <time>2014-09-28T07:11:34Z</time>
      </trkpt>
      <trkpt lat="46.32878" lon="4.72392">
        <ele>261</ele>
        <time>2014-09-28T07:11:36Z</time>
      </trkpt>
      <trkpt lat="46.32875" lon="4.72382">
        <ele>262</ele>
        <time>2014-09-28T07:11:38Z</time>
      </trkpt>
      <trkpt lat="46.32875" lon="4.72379">
        <ele>262</ele>
        <time>2014-09-28T07:11:39Z</time>
      </trkpt>
      <trkpt lat="46.32874" lon="4.72367">
        <ele>262</ele>
        <time>2014-09-28T07:11:43Z</time>
      </trkpt>
      <trkpt lat="46.32874" lon="4.72364">
        <ele>263</ele>
        <time>2014-09-28T07:11:44Z</time>
      </trkpt>
      <trkpt lat="46.32876" lon="4.72352">
        <ele>263</ele>
        <time>2014-09-28T07:11:48Z</time>
      </trkpt>
      <trkpt lat="46.32877" lon="4.72349">
        <ele>263</ele>
        <time>2014-09-28T07:11:49Z</time>
      </trkpt>
      <trkpt lat="46.3288" lon="4.72337">
        <ele>262</ele>
        <time>2014-09-28T07:11:53Z</time>
      </trkpt>
      <trkpt lat="46.3288" lon="4.72334">
        <ele>262</ele>
        <time>2014-09-28T07:11:54Z</time>
      </trkpt>
      <trkpt lat="46.32882" lon="4.72326">
        <ele>266</ele>
        <time>2014-09-28T07:11:57Z</time>
      </trkpt>
      <trkpt lat="46.32883" lon="4.72319">
        <ele>266</ele>
        <time>2014-09-28T07:11:58Z</time>
      </trkpt>
      <trkpt lat="46.32885" lon="4.72308">
        <ele>267</ele>
        <time>2014-09-28T07:12:01Z</time>
      </trkpt>
      <trkpt lat="46.32886" lon="4.72304">
        <ele>267</ele>
        <time>2014-09-28T07:12:02Z</time>
      </trkpt>
      <trkpt lat="46.32889" lon="4.72295">
        <ele>267</ele>
        <time>2014-09-28T07:12:04Z</time>
      </trkpt>
      <trkpt lat="46.32891" lon="4.72292">
        <ele>267</ele>
        <time>2014-09-28T07:12:05Z</time>
      </trkpt>
      <trkpt lat="46.32894" lon="4.7228">
        <ele>267</ele>
        <time>2014-09-28T07:12:08Z</time>
      </trkpt>
      <trkpt lat="46.32894" lon="4.72275">
        <ele>267</ele>
        <time>2014-09-28T07:12:09Z</time>
      </trkpt>
      <trkpt lat="46.32895" lon="4.72265">
        <ele>266</ele>
        <time>2014-09-28T07:12:11Z</time>
      </trkpt>
      <trkpt lat="46.32895" lon="4.7226">
        <ele>266</ele>
        <time>2014-09-28T07:12:12Z</time>
      </trkpt>
      <trkpt lat="46.32897" lon="4.72251">
        <ele>265</ele>
        <time>2014-09-28T07:12:14Z</time>
      </trkpt>
      <trkpt lat="46.32897" lon="4.72247">
        <ele>271</ele>
        <time>2014-09-28T07:12:15Z</time>
      </trkpt>
      <trkpt lat="46.32901" lon="4.72236">
        <ele>271</ele>
        <time>2014-09-28T07:12:18Z</time>
      </trkpt>
      <trkpt lat="46.32902" lon="4.72231">
        <ele>272</ele>
        <time>2014-09-28T07:12:19Z</time>
      </trkpt>
      <trkpt lat="46.32908" lon="4.72224">
        <ele>273</ele>
        <time>2014-09-28T07:12:21Z</time>
      </trkpt>
      <trkpt lat="46.32912" lon="4.72219">
        <ele>273</ele>
        <time>2014-09-28T07:12:22Z</time>
      </trkpt>
      <trkpt lat="46.3292" lon="4.72213">
        <ele>253</ele>
        <time>2014-09-28T07:12:23Z</time>
      </trkpt>
      <trkpt lat="46.32921" lon="4.72205">
        <ele>254</ele>
        <time>2014-09-28T07:12:24Z</time>
      </trkpt>
      <trkpt lat="46.32926" lon="4.72197">
        <ele>255</ele>
        <time>2014-09-28T07:12:25Z</time>
      </trkpt>
      <trkpt lat="46.32927" lon="4.72188">
        <ele>257</ele>
        <time>2014-09-28T07:12:26Z</time>
      </trkpt>
      <trkpt lat="46.3293" lon="4.72174">
        <ele>260</ele>
        <time>2014-09-28T07:12:27Z</time>
      </trkpt>
      <trkpt lat="46.32931" lon="4.72163">
        <ele>265</ele>
        <time>2014-09-28T07:12:28Z</time>
      </trkpt>
      <trkpt lat="46.32931" lon="4.72158">
        <ele>265</ele>
        <time>2014-09-28T07:12:29Z</time>
      </trkpt>
      <trkpt lat="46.32935" lon="4.72148">
        <ele>263</ele>
        <time>2014-09-28T07:12:32Z</time>
      </trkpt>
      <trkpt lat="46.32938" lon="4.72146">
        <ele>263</ele>
        <time>2014-09-28T07:12:33Z</time>
      </trkpt>
      <trkpt lat="46.32942" lon="4.72137">
        <ele>262</ele>
        <time>2014-09-28T07:12:37Z</time>
      </trkpt>
      <trkpt lat="46.32945" lon="4.72133">
        <ele>262</ele>
        <time>2014-09-28T07:12:38Z</time>
      </trkpt>
      <trkpt lat="46.32947" lon="4.72123">
        <ele>262</ele>
        <time>2014-09-28T07:12:41Z</time>
      </trkpt>
      <trkpt lat="46.32947" lon="4.72119">
        <ele>262</ele>
        <time>2014-09-28T07:12:42Z</time>
      </trkpt>
      <trkpt lat="46.3295" lon="4.72109">
        <ele>263</ele>
        <time>2014-09-28T07:12:45Z</time>
      </trkpt>
      <trkpt lat="46.32951" lon="4.72106">
        <ele>263</ele>
        <time>2014-09-28T07:12:46Z</time>
      </trkpt>
      <trkpt lat="46.32958" lon="4.72101">
        <ele>262</ele>
        <time>2014-09-28T07:12:49Z</time>
      </trkpt>
      <trkpt lat="46.3296" lon="4.72099">
        <ele>261</ele>
        <time>2014-09-28T07:12:50Z</time>
      </trkpt>
      <trkpt lat="46.32964" lon="4.72089">
        <ele>261</ele>
        <time>2014-09-28T07:12:53Z</time>
      </trkpt>
      <trkpt lat="46.32963" lon="4.72084">
        <ele>261</ele>
        <time>2014-09-28T07:12:54Z</time>
      </trkpt>
      <trkpt lat="46.32962" lon="4.72075">
        <ele>267</ele>
        <time>2014-09-28T07:12:56Z</time>
      </trkpt>
      <trkpt lat="46.32962" lon="4.7207">
        <ele>267</ele>
        <time>2014-09-28T07:12:57Z</time>
      </trkpt>
      <trkpt lat="46.32962" lon="4.72057">
        <ele>268</ele>
        <time>2014-09-28T07:13:00Z</time>
      </trkpt>
      <trkpt lat="46.32963" lon="4.72054">
        <ele>268</ele>
        <time>2014-09-28T07:13:01Z</time>
      </trkpt>
      <trkpt lat="46.32965" lon="4.72044">
        <ele>268</ele>
        <time>2014-09-28T07:13:05Z</time>
      </trkpt>
      <trkpt lat="46.32965" lon="4.72041">
        <ele>268</ele>
        <time>2014-09-28T07:13:06Z</time>
      </trkpt>
      <trkpt lat="46.32965" lon="4.7203">
        <ele>268</ele>
        <time>2014-09-28T07:13:10Z</time>
      </trkpt>
      <trkpt lat="46.32965" lon="4.72027">
        <ele>268</ele>
        <time>2014-09-28T07:13:11Z</time>
      </trkpt>
      <trkpt lat="46.32968" lon="4.72017">
        <ele>268</ele>
        <time>2014-09-28T07:13:15Z</time>
      </trkpt>
      <trkpt lat="46.32969" lon="4.72014">
        <ele>268</ele>
        <time>2014-09-28T07:13:16Z</time>
      </trkpt>
      <trkpt lat="46.32973" lon="4.72007">
        <ele>266</ele>
        <time>2014-09-28T07:13:18Z</time>
      </trkpt>
      <trkpt lat="46.32977" lon="4.72003">
        <ele>265</ele>
        <time>2014-09-28T07:13:19Z</time>
      </trkpt>
      <trkpt lat="46.32981" lon="4.71994">
        <ele>266</ele>
        <time>2014-09-28T07:13:21Z</time>
      </trkpt>
      <trkpt lat="46.32982" lon="4.71991">
        <ele>266</ele>
        <time>2014-09-28T07:13:22Z</time>
      </trkpt>
      <trkpt lat="46.32989" lon="4.71988">
        <ele>264</ele>
        <time>2014-09-28T07:13:25Z</time>
      </trkpt>
      <trkpt lat="46.32993" lon="4.71989">
        <ele>263</ele>
        <time>2014-09-28T07:13:26Z</time>
      </trkpt>
      <trkpt lat="46.32997" lon="4.71991">
        <ele>262</ele>
        <time>2014-09-28T07:13:27Z</time>
      </trkpt>
      <trkpt lat="46.33002" lon="4.71994">
        <ele>255</ele>
        <time>2014-09-28T07:13:28Z</time>
      </trkpt>
      <trkpt lat="46.33007" lon="4.71997">
        <ele>254</ele>
        <time>2014-09-28T07:13:29Z</time>
      </trkpt>
      <trkpt lat="46.33013" lon="4.72003">
        <ele>251</ele>
        <time>2014-09-28T07:13:30Z</time>
      </trkpt>
      <trkpt lat="46.33019" lon="4.72012">
        <ele>248</ele>
        <time>2014-09-28T07:13:32Z</time>
      </trkpt>
      <trkpt lat="46.33026" lon="4.72015">
        <ele>246</ele>
        <time>2014-09-28T07:13:33Z</time>
      </trkpt>
      <trkpt lat="46.33034" lon="4.72019">
        <ele>245</ele>
        <time>2014-09-28T07:13:34Z</time>
      </trkpt>
      <trkpt lat="46.33045" lon="4.72022">
        <ele>243</ele>
        <time>2014-09-28T07:13:35Z</time>
      </trkpt>
      <trkpt lat="46.33052" lon="4.72026">
        <ele>241</ele>
        <time>2014-09-28T07:13:36Z</time>
      </trkpt>
      <trkpt lat="46.33059" lon="4.72031">
        <ele>240</ele>
        <time>2014-09-28T07:13:37Z</time>
      </trkpt>
      <trkpt lat="46.33065" lon="4.72035">
        <ele>240</ele>
        <time>2014-09-28T07:13:38Z</time>
      </trkpt>
      <trkpt lat="46.3307" lon="4.72037">
        <ele>239</ele>
        <time>2014-09-28T07:13:39Z</time>
      </trkpt>
      <trkpt lat="46.33077" lon="4.72035">
        <ele>239</ele>
        <time>2014-09-28T07:13:40Z</time>
      </trkpt>
      <trkpt lat="46.33082" lon="4.72032">
        <ele>238</ele>
        <time>2014-09-28T07:13:41Z</time>
      </trkpt>
      <trkpt lat="46.33087" lon="4.72029">
        <ele>230</ele>
        <time>2014-09-28T07:13:42Z</time>
      </trkpt>
      <trkpt lat="46.3309" lon="4.72023">
        <ele>230</ele>
        <time>2014-09-28T07:13:43Z</time>
      </trkpt>
      <trkpt lat="46.33094" lon="4.72015">
        <ele>230</ele>
        <time>2014-09-28T07:13:44Z</time>
      </trkpt>
      <trkpt lat="46.33098" lon="4.72012">
        <ele>230</ele>
        <time>2014-09-28T07:13:45Z</time>
      </trkpt>
      <trkpt lat="46.33101" lon="4.72005">
        <ele>230</ele>
        <time>2014-09-28T07:13:46Z</time>
      </trkpt>
      <trkpt lat="46.33104" lon="4.72">
        <ele>230</ele>
        <time>2014-09-28T07:13:47Z</time>
      </trkpt>
      <trkpt lat="46.33108" lon="4.71994">
        <ele>231</ele>
        <time>2014-09-28T07:13:48Z</time>
      </trkpt>
      <trkpt lat="46.33111" lon="4.71987">
        <ele>231</ele>
        <time>2014-09-28T07:13:49Z</time>
      </trkpt>
      <trkpt lat="46.33114" lon="4.71981">
        <ele>231</ele>
        <time>2014-09-28T07:13:50Z</time>
      </trkpt>
      <trkpt lat="46.33117" lon="4.71974">
        <ele>231</ele>
        <time>2014-09-28T07:13:51Z</time>
      </trkpt>
      <trkpt lat="46.3312" lon="4.71968">
        <ele>231</ele>
        <time>2014-09-28T07:13:52Z</time>
      </trkpt>
      <trkpt lat="46.33122" lon="4.71961">
        <ele>231</ele>
        <time>2014-09-28T07:13:53Z</time>
      </trkpt>
      <trkpt lat="46.33125" lon="4.71954">
        <ele>231</ele>
        <time>2014-09-28T07:13:54Z</time>
      </trkpt>
      <trkpt lat="46.33127" lon="4.71948">
        <ele>231</ele>
        <time>2014-09-28T07:13:55Z</time>
      </trkpt>
      <trkpt lat="46.3313" lon="4.71941">
        <ele>231</ele>
        <time>2014-09-28T07:13:56Z</time>
      </trkpt>
      <trkpt lat="46.33132" lon="4.71935">
        <ele>231</ele>
        <time>2014-09-28T07:13:57Z</time>
      </trkpt>
      <trkpt lat="46.33135" lon="4.71924">
        <ele>231</ele>
        <time>2014-09-28T07:13:59Z</time>
      </trkpt>
      <trkpt lat="46.33136" lon="4.71919">
        <ele>231</ele>
        <time>2014-09-28T07:14:00Z</time>
      </trkpt>
      <trkpt lat="46.3314" lon="4.71909">
        <ele>232</ele>
        <time>2014-09-28T07:14:02Z</time>
      </trkpt>
      <trkpt lat="46.33143" lon="4.71903">
        <ele>232</ele>
        <time>2014-09-28T07:14:03Z</time>
      </trkpt>
      <trkpt lat="46.33142" lon="4.71895">
        <ele>232</ele>
        <time>2014-09-28T07:14:04Z</time>
      </trkpt>
      <trkpt lat="46.33144" lon="4.7189">
        <ele>232</ele>
        <time>2014-09-28T07:14:05Z</time>
      </trkpt>
      <trkpt lat="46.33144" lon="4.71883">
        <ele>233</ele>
        <time>2014-09-28T07:14:06Z</time>
      </trkpt>
      <trkpt lat="46.33145" lon="4.71876">
        <ele>233</ele>
        <time>2014-09-28T07:14:07Z</time>
      </trkpt>
      <trkpt lat="46.33146" lon="4.71869">
        <ele>233</ele>
        <time>2014-09-28T07:14:08Z</time>
      </trkpt>
      <trkpt lat="46.33148" lon="4.71861">
        <ele>232</ele>
        <time>2014-09-28T07:14:09Z</time>
      </trkpt>
      <trkpt lat="46.33149" lon="4.71854">
        <ele>232</ele>
        <time>2014-09-28T07:14:10Z</time>
      </trkpt>
      <trkpt lat="46.3315" lon="4.71846">
        <ele>232</ele>
        <time>2014-09-28T07:14:11Z</time>
      </trkpt>
      <trkpt lat="46.33151" lon="4.71838">
        <ele>231</ele>
        <time>2014-09-28T07:14:12Z</time>
      </trkpt>
      <trkpt lat="46.33152" lon="4.7183">
        <ele>231</ele>
        <time>2014-09-28T07:14:13Z</time>
      </trkpt>
      <trkpt lat="46.33152" lon="4.71821">
        <ele>232</ele>
        <time>2014-09-28T07:14:14Z</time>
      </trkpt>
      <trkpt lat="46.33152" lon="4.71812">
        <ele>233</ele>
        <time>2014-09-28T07:14:15Z</time>
      </trkpt>
      <trkpt lat="46.33152" lon="4.71802">
        <ele>233</ele>
        <time>2014-09-28T07:14:16Z</time>
      </trkpt>
      <trkpt lat="46.33152" lon="4.71793">
        <ele>233</ele>
        <time>2014-09-28T07:14:17Z</time>
      </trkpt>
      <trkpt lat="46.33152" lon="4.71783">
        <ele>233</ele>
        <time>2014-09-28T07:14:18Z</time>
      </trkpt>
      <trkpt lat="46.33152" lon="4.71773">
        <ele>233</ele>
        <time>2014-09-28T07:14:19Z</time>
      </trkpt>
      <trkpt lat="46.33153" lon="4.71764">
        <ele>232</ele>
        <time>2014-09-28T07:14:20Z</time>
      </trkpt>
      <trkpt lat="46.33154" lon="4.71754">
        <ele>231</ele>
        <time>2014-09-28T07:14:21Z</time>
      </trkpt>
      <trkpt lat="46.33153" lon="4.71743">
        <ele>232</ele>
        <time>2014-09-28T07:14:22Z</time>
      </trkpt>
      <trkpt lat="46.33153" lon="4.71733">
        <ele>232</ele>
        <time>2014-09-28T07:14:23Z</time>
      </trkpt>
      <trkpt lat="46.33153" lon="4.71723">
        <ele>233</ele>
        <time>2014-09-28T07:14:24Z</time>
      </trkpt>
      <trkpt lat="46.33152" lon="4.71713">
        <ele>234</ele>
        <time>2014-09-28T07:14:25Z</time>
      </trkpt>
      <trkpt lat="46.33153" lon="4.71704">
        <ele>234</ele>
        <time>2014-09-28T07:14:26Z</time>
      </trkpt>
      <trkpt lat="46.33152" lon="4.71695">
        <ele>233</ele>
        <time>2014-09-28T07:14:27Z</time>
      </trkpt>
      <trkpt lat="46.33153" lon="4.71686">
        <ele>233</ele>
        <time>2014-09-28T07:14:28Z</time>
      </trkpt>
      <trkpt lat="46.33152" lon="4.71676">
        <ele>233</ele>
        <time>2014-09-28T07:14:29Z</time>
      </trkpt>
      <trkpt lat="46.33152" lon="4.71666">
        <ele>232</ele>
        <time>2014-09-28T07:14:30Z</time>
      </trkpt>
      <trkpt lat="46.33152" lon="4.71657">
        <ele>233</ele>
        <time>2014-09-28T07:14:31Z</time>
      </trkpt>
      <trkpt lat="46.33152" lon="4.71648">
        <ele>234</ele>
        <time>2014-09-28T07:14:32Z</time>
      </trkpt>
      <trkpt lat="46.33153" lon="4.71639">
        <ele>234</ele>
        <time>2014-09-28T07:14:33Z</time>
      </trkpt>
      <trkpt lat="46.33154" lon="4.71629">
        <ele>234</ele>
        <time>2014-09-28T07:14:34Z</time>
      </trkpt>
      <trkpt lat="46.33154" lon="4.7162">
        <ele>235</ele>
        <time>2014-09-28T07:14:35Z</time>
      </trkpt>
      <trkpt lat="46.33155" lon="4.71611">
        <ele>234</ele>
        <time>2014-09-28T07:14:36Z</time>
      </trkpt>
      <trkpt lat="46.33157" lon="4.71602">
        <ele>234</ele>
        <time>2014-09-28T07:14:37Z</time>
      </trkpt>
      <trkpt lat="46.33158" lon="4.71594">
        <ele>233</ele>
        <time>2014-09-28T07:14:38Z</time>
      </trkpt>
      <trkpt lat="46.33159" lon="4.71585">
        <ele>233</ele>
        <time>2014-09-28T07:14:39Z</time>
      </trkpt>
      <trkpt lat="46.3316" lon="4.71577">
        <ele>233</ele>
        <time>2014-09-28T07:14:40Z</time>
      </trkpt>
      <trkpt lat="46.33161" lon="4.71569">
        <ele>234</ele>
        <time>2014-09-28T07:14:41Z</time>
      </trkpt>
      <trkpt lat="46.33162" lon="4.71561">
        <ele>235</ele>
        <time>2014-09-28T07:14:42Z</time>
      </trkpt>
      <trkpt lat="46.33162" lon="4.71552">
        <ele>235</ele>
        <time>2014-09-28T07:14:43Z</time>
      </trkpt>
      <trkpt lat="46.33162" lon="4.71542">
        <ele>235</ele>
        <time>2014-09-28T07:14:44Z</time>
      </trkpt>
      <trkpt lat="46.33163" lon="4.71534">
        <ele>235</ele>
        <time>2014-09-28T07:14:45Z</time>
      </trkpt>
      <trkpt lat="46.33164" lon="4.71526">
        <ele>235</ele>
        <time>2014-09-28T07:14:46Z</time>
      </trkpt>
      <trkpt lat="46.33165" lon="4.71518">
        <ele>235</ele>
        <time>2014-09-28T07:14:47Z</time>
      </trkpt>
      <trkpt lat="46.33165" lon="4.7151">
        <ele>234</ele>
        <time>2014-09-28T07:14:48Z</time>
      </trkpt>
      <trkpt lat="46.33165" lon="4.715">
        <ele>232</ele>
        <time>2014-09-28T07:14:49Z</time>
      </trkpt>
      <trkpt lat="46.33166" lon="4.71492">
        <ele>234</ele>
        <time>2014-09-28T07:14:50Z</time>
      </trkpt>
      <trkpt lat="46.33163" lon="4.71482">
        <ele>235</ele>
        <time>2014-09-28T07:14:51Z</time>
      </trkpt>
      <trkpt lat="46.33162" lon="4.71474">
        <ele>236</ele>
        <time>2014-09-28T07:14:52Z</time>
      </trkpt>
      <trkpt lat="46.33163" lon="4.71465">
        <ele>237</ele>
        <time>2014-09-28T07:14:53Z</time>
      </trkpt>
      <trkpt lat="46.33163" lon="4.71455">
        <ele>237</ele>
        <time>2014-09-28T07:14:54Z</time>
      </trkpt>
      <trkpt lat="46.33164" lon="4.71446">
        <ele>237</ele>
        <time>2014-09-28T07:14:55Z</time>
      </trkpt>
      <trkpt lat="46.33163" lon="4.71437">
        <ele>237</ele>
        <time>2014-09-28T07:14:56Z</time>
      </trkpt>
      <trkpt lat="46.33162" lon="4.71427">
        <ele>236</ele>
        <time>2014-09-28T07:14:57Z</time>
      </trkpt>
      <trkpt lat="46.33162" lon="4.71418">
        <ele>236</ele>
        <time>2014-09-28T07:14:58Z</time>
      </trkpt>
      <trkpt lat="46.33163" lon="4.7141">
        <ele>236</ele>
        <time>2014-09-28T07:14:59Z</time>
      </trkpt>
      <trkpt lat="46.33161" lon="4.714">
        <ele>237</ele>
        <time>2014-09-28T07:15:00Z</time>
      </trkpt>
      <trkpt lat="46.33161" lon="4.71392">
        <ele>238</ele>
        <time>2014-09-28T07:15:01Z</time>
      </trkpt>
      <trkpt lat="46.33161" lon="4.71383">
        <ele>238</ele>
        <time>2014-09-28T07:15:02Z</time>
      </trkpt>
      <trkpt lat="46.33162" lon="4.71374">
        <ele>238</ele>
        <time>2014-09-28T07:15:03Z</time>
      </trkpt>
      <trkpt lat="46.33164" lon="4.71364">
        <ele>238</ele>
        <time>2014-09-28T07:15:04Z</time>
      </trkpt>
      <trkpt lat="46.33165" lon="4.71356">
        <ele>237</ele>
        <time>2014-09-28T07:15:05Z</time>
      </trkpt>
      <trkpt lat="46.33165" lon="4.71347">
        <ele>237</ele>
        <time>2014-09-28T07:15:06Z</time>
      </trkpt>
      <trkpt lat="46.33165" lon="4.71338">
        <ele>236</ele>
        <time>2014-09-28T07:15:07Z</time>
      </trkpt>
      <trkpt lat="46.33162" lon="4.71326">
        <ele>236</ele>
        <time>2014-09-28T07:15:09Z</time>
      </trkpt>
      <trkpt lat="46.33159" lon="4.71323">
        <ele>237</ele>
        <time>2014-09-28T07:15:10Z</time>
      </trkpt>
      <trkpt lat="46.33153" lon="4.71322">
        <ele>237</ele>
        <time>2014-09-28T07:15:12Z</time>
      </trkpt>
      <trkpt lat="46.33149" lon="4.71321">
        <ele>238</ele>
        <time>2014-09-28T07:15:13Z</time>
      </trkpt>
      <trkpt lat="46.33144" lon="4.71321">
        <ele>238</ele>
        <time>2014-09-28T07:15:14Z</time>
      </trkpt>
      <trkpt lat="46.33139" lon="4.71321">
        <ele>239</ele>
        <time>2014-09-28T07:15:15Z</time>
      </trkpt>
      <trkpt lat="46.33134" lon="4.7132">
        <ele>239</ele>
        <time>2014-09-28T07:15:16Z</time>
      </trkpt>
      <trkpt lat="46.33128" lon="4.7132">
        <ele>239</ele>
        <time>2014-09-28T07:15:17Z</time>
      </trkpt>
      <trkpt lat="46.33124" lon="4.7132">
        <ele>240</ele>
        <time>2014-09-28T07:15:18Z</time>
      </trkpt>
      <trkpt lat="46.33119" lon="4.71319">
        <ele>240</ele>
        <time>2014-09-28T07:15:19Z</time>
      </trkpt>
      <trkpt lat="46.3311" lon="4.71318">
        <ele>241</ele>
        <time>2014-09-28T07:15:21Z</time>
      </trkpt>
      <trkpt lat="46.33107" lon="4.71317">
        <ele>241</ele>
        <time>2014-09-28T07:15:22Z</time>
      </trkpt>
      <trkpt lat="46.33098" lon="4.71316">
        <ele>241</ele>
        <time>2014-09-28T07:15:24Z</time>
      </trkpt>
      <trkpt lat="46.33095" lon="4.71316">
        <ele>242</ele>
        <time>2014-09-28T07:15:25Z</time>
      </trkpt>
      <trkpt lat="46.33089" lon="4.71314">
        <ele>242</ele>
        <time>2014-09-28T07:15:27Z</time>
      </trkpt>
      <trkpt lat="46.33086" lon="4.71313">
        <ele>242</ele>
        <time>2014-09-28T07:15:28Z</time>
      </trkpt>
      <trkpt lat="46.3308" lon="4.7131">
        <ele>246</ele>
        <time>2014-09-28T07:15:30Z</time>
      </trkpt>
      <trkpt lat="46.33077" lon="4.71309">
        <ele>247</ele>
        <time>2014-09-28T07:15:31Z</time>
      </trkpt>
      <trkpt lat="46.33069" lon="4.71306">
        <ele>247</ele>
        <time>2014-09-28T07:15:34Z</time>
      </trkpt>
      <trkpt lat="46.33067" lon="4.71305">
        <ele>247</ele>
        <time>2014-09-28T07:15:35Z</time>
      </trkpt>
      <trkpt lat="46.3306" lon="4.71301">
        <ele>248</ele>
        <time>2014-09-28T07:15:39Z</time>
      </trkpt>
      <trkpt lat="46.33057" lon="4.713">
        <ele>248</ele>
        <time>2014-09-28T07:15:40Z</time>
      </trkpt>
      <trkpt lat="46.3305" lon="4.71298">
        <ele>248</ele>
        <time>2014-09-28T07:15:43Z</time>
      </trkpt>
      <trkpt lat="46.33047" lon="4.71296">
        <ele>248</ele>
        <time>2014-09-28T07:15:44Z</time>
      </trkpt>
      <trkpt lat="46.33039" lon="4.71293">
        <ele>249</ele>
        <time>2014-09-28T07:15:47Z</time>
      </trkpt>
      <trkpt lat="46.33037" lon="4.7129">
        <ele>249</ele>
        <time>2014-09-28T07:15:48Z</time>
      </trkpt>
      <trkpt lat="46.33033" lon="4.7128">
        <ele>249</ele>
        <time>2014-09-28T07:15:51Z</time>
      </trkpt>
      <trkpt lat="46.33032" lon="4.71276">
        <ele>249</ele>
        <time>2014-09-28T07:15:52Z</time>
      </trkpt>
      <trkpt lat="46.33031" lon="4.71263">
        <ele>249</ele>
        <time>2014-09-28T07:15:55Z</time>
      </trkpt>
      <trkpt lat="46.3303" lon="4.71259">
        <ele>249</ele>
        <time>2014-09-28T07:15:56Z</time>
      </trkpt>
      <trkpt lat="46.33027" lon="4.7125">
        <ele>250</ele>
        <time>2014-09-28T07:15:58Z</time>
      </trkpt>
      <trkpt lat="46.33025" lon="4.71245">
        <ele>250</ele>
        <time>2014-09-28T07:15:59Z</time>
      </trkpt>
      <trkpt lat="46.33022" lon="4.71237">
        <ele>250</ele>
        <time>2014-09-28T07:16:01Z</time>
      </trkpt>
      <trkpt lat="46.33021" lon="4.71233">
        <ele>250</ele>
        <time>2014-09-28T07:16:02Z</time>
      </trkpt>
      <trkpt lat="46.33017" lon="4.71221">
        <ele>250</ele>
        <time>2014-09-28T07:16:05Z</time>
      </trkpt>
      <trkpt lat="46.33017" lon="4.71217">
        <ele>250</ele>
        <time>2014-09-28T07:16:06Z</time>
      </trkpt>
      <trkpt lat="46.33015" lon="4.71208">
        <ele>250</ele>
        <time>2014-09-28T07:16:08Z</time>
      </trkpt>
      <trkpt lat="46.33014" lon="4.71203">
        <ele>251</ele>
        <time>2014-09-28T07:16:09Z</time>
      </trkpt>
      <trkpt lat="46.33013" lon="4.71193">
        <ele>251</ele>
        <time>2014-09-28T07:16:11Z</time>
      </trkpt>
      <trkpt lat="46.33013" lon="4.71189">
        <ele>251</ele>
        <time>2014-09-28T07:16:12Z</time>
      </trkpt>
      <trkpt lat="46.33013" lon="4.7118">
        <ele>252</ele>
        <time>2014-09-28T07:16:14Z</time>
      </trkpt>
      <trkpt lat="46.33013" lon="4.71175">
        <ele>252</ele>
        <time>2014-09-28T07:16:15Z</time>
      </trkpt>
      <trkpt lat="46.33014" lon="4.71167">
        <ele>252</ele>
        <time>2014-09-28T07:16:17Z</time>
      </trkpt>
      <trkpt lat="46.33014" lon="4.71162">
        <ele>253</ele>
        <time>2014-09-28T07:16:18Z</time>
      </trkpt>
      <trkpt lat="46.33015" lon="4.71154">
        <ele>253</ele>
        <time>2014-09-28T07:16:20Z</time>
      </trkpt>
      <trkpt lat="46.33015" lon="4.71149">
        <ele>253</ele>
        <time>2014-09-28T07:16:21Z</time>
      </trkpt>
      <trkpt lat="46.33016" lon="4.71137">
        <ele>253</ele>
        <time>2014-09-28T07:16:24Z</time>
      </trkpt>
      <trkpt lat="46.33016" lon="4.71132">
        <ele>253</ele>
        <time>2014-09-28T07:16:25Z</time>
      </trkpt>
      <trkpt lat="46.33016" lon="4.7112">
        <ele>254</ele>
        <time>2014-09-28T07:16:28Z</time>
      </trkpt>
      <trkpt lat="46.33016" lon="4.71117">
        <ele>254</ele>
        <time>2014-09-28T07:16:29Z</time>
      </trkpt>
      <trkpt lat="46.33017" lon="4.71105">
        <ele>255</ele>
        <time>2014-09-28T07:16:33Z</time>
      </trkpt>
      <trkpt lat="46.33017" lon="4.71102">
        <ele>255</ele>
        <time>2014-09-28T07:16:34Z</time>
      </trkpt>
      <trkpt lat="46.33017" lon="4.71091">
        <ele>256</ele>
        <time>2014-09-28T07:16:37Z</time>
      </trkpt>
      <trkpt lat="46.33017" lon="4.71088">
        <ele>256</ele>
        <time>2014-09-28T07:16:38Z</time>
      </trkpt>
      <trkpt lat="46.33018" lon="4.71078">
        <ele>258</ele>
        <time>2014-09-28T07:16:41Z</time>
      </trkpt>
      <trkpt lat="46.33018" lon="4.71074">
        <ele>258</ele>
        <time>2014-09-28T07:16:42Z</time>
      </trkpt>
      <trkpt lat="46.33016" lon="4.71062">
        <ele>257</ele>
        <time>2014-09-28T07:16:46Z</time>
      </trkpt>
      <trkpt lat="46.33015" lon="4.71059">
        <ele>257</ele>
        <time>2014-09-28T07:16:47Z</time>
      </trkpt>
      <trkpt lat="46.33007" lon="4.71055">
        <ele>258</ele>
        <time>2014-09-28T07:16:51Z</time>
      </trkpt>
      <trkpt lat="46.33005" lon="4.71056">
        <ele>258</ele>
        <time>2014-09-28T07:16:52Z</time>
      </trkpt>
      <trkpt lat="46.32998" lon="4.7106">
        <ele>264</ele>
        <time>2014-09-28T07:16:56Z</time>
      </trkpt>
      <trkpt lat="46.32996" lon="4.71061">
        <ele>264</ele>
        <time>2014-09-28T07:16:57Z</time>
      </trkpt>
      <trkpt lat="46.32989" lon="4.71065">
        <ele>264</ele>
        <time>2014-09-28T07:17:01Z</time>
      </trkpt>
      <trkpt lat="46.32987" lon="4.71066">
        <ele>264</ele>
        <time>2014-09-28T07:17:02Z</time>
      </trkpt>
      <trkpt lat="46.32979" lon="4.71071">
        <ele>264</ele>
        <time>2014-09-28T07:17:06Z</time>
      </trkpt>
      <trkpt lat="46.32977" lon="4.71071">
        <ele>265</ele>
        <time>2014-09-28T07:17:07Z</time>
      </trkpt>
      <trkpt lat="46.32973" lon="4.71082">
        <ele>265</ele>
        <time>2014-09-28T07:18:26Z</time>
      </trkpt>
      <trkpt lat="46.32973" lon="4.71083">
        <ele>265</ele>
        <time>2014-09-28T07:18:27Z</time>
      </trkpt>
      <trkpt lat="46.32967" lon="4.71075">
        <ele>265</ele>
        <time>2014-09-28T07:19:40Z</time>
      </trkpt>
      <trkpt lat="46.32965" lon="4.71074">
        <ele>266</ele>
        <time>2014-09-28T07:19:41Z</time>
      </trkpt>
      <trkpt lat="46.32958" lon="4.71075">
        <ele>266</ele>
        <time>2014-09-28T07:19:45Z</time>
      </trkpt>
      <trkpt lat="46.32955" lon="4.71076">
        <ele>266</ele>
        <time>2014-09-28T07:19:45Z</time>
      </trkpt>
      <trkpt lat="46.32947" lon="4.7108">
        <ele>267</ele>
        <time>2014-09-28T07:19:50Z</time>
      </trkpt>
      <trkpt lat="46.32945" lon="4.7108">
        <ele>267</ele>
        <time>2014-09-28T07:19:50Z</time>
      </trkpt>
      <trkpt lat="46.32938" lon="4.71082">
        <ele>268</ele>
        <time>2014-09-28T07:19:55Z</time>
      </trkpt>
      <trkpt lat="46.32936" lon="4.71081">
        <ele>268</ele>
        <time>2014-09-28T07:19:55Z</time>
      </trkpt>
      <trkpt lat="46.32928" lon="4.71083">
        <ele>269</ele>
        <time>2014-09-28T07:20:00Z</time>
      </trkpt>
      <trkpt lat="46.32926" lon="4.71083">
        <ele>268</ele>
        <time>2014-09-28T07:20:00Z</time>
      </trkpt>
      <trkpt lat="46.32917" lon="4.71085">
        <ele>270</ele>
        <time>2014-09-28T07:20:04Z</time>
      </trkpt>
      <trkpt lat="46.32915" lon="4.71085">
        <ele>271</ele>
        <time>2014-09-28T07:20:05Z</time>
      </trkpt>
      <trkpt lat="46.32907" lon="4.71088">
        <ele>272</ele>
        <time>2014-09-28T07:20:09Z</time>
      </trkpt>
      <trkpt lat="46.32905" lon="4.71088">
        <ele>272</ele>
        <time>2014-09-28T07:20:10Z</time>
      </trkpt>
      <trkpt lat="46.32897" lon="4.71089">
        <ele>272</ele>
        <time>2014-09-28T07:20:14Z</time>
      </trkpt>
      <trkpt lat="46.32896" lon="4.71089">
        <ele>272</ele>
        <time>2014-09-28T07:20:15Z</time>
      </trkpt>
      <trkpt lat="46.32888" lon="4.71091">
        <ele>273</ele>
        <time>2014-09-28T07:20:19Z</time>
      </trkpt>
      <trkpt lat="46.32886" lon="4.71091">
        <ele>273</ele>
        <time>2014-09-28T07:20:20Z</time>
      </trkpt>
      <trkpt lat="46.32879" lon="4.71092">
        <ele>274</ele>
        <time>2014-09-28T07:20:24Z</time>
      </trkpt>
      <trkpt lat="46.32877" lon="4.71093">
        <ele>274</ele>
        <time>2014-09-28T07:20:25Z</time>
      </trkpt>
      <trkpt lat="46.32868" lon="4.71093">
        <ele>274</ele>
        <time>2014-09-28T07:20:30Z</time>
      </trkpt>
      <trkpt lat="46.32866" lon="4.71094">
        <ele>275</ele>
        <time>2014-09-28T07:20:31Z</time>
      </trkpt>
      <trkpt lat="46.32858" lon="4.71096">
        <ele>275</ele>
        <time>2014-09-28T07:20:36Z</time>
      </trkpt>
      <trkpt lat="46.32857" lon="4.71096">
        <ele>276</ele>
        <time>2014-09-28T07:20:37Z</time>
      </trkpt>
      <trkpt lat="46.32848" lon="4.71097">
        <ele>276</ele>
        <time>2014-09-28T07:20:42Z</time>
      </trkpt>
      <trkpt lat="46.32846" lon="4.71097">
        <ele>277</ele>
        <time>2014-09-28T07:20:43Z</time>
      </trkpt>
      <trkpt lat="46.32841" lon="4.71088">
        <ele>279</ele>
        <time>2014-09-28T07:20:48Z</time>
      </trkpt>
      <trkpt lat="46.3284" lon="4.71086">
        <ele>279</ele>
        <time>2014-09-28T07:20:49Z</time>
      </trkpt>
      <trkpt lat="46.32839" lon="4.71074">
        <ele>279</ele>
        <time>2014-09-28T07:20:54Z</time>
      </trkpt>
      <trkpt lat="46.32838" lon="4.71072">
        <ele>279</ele>
        <time>2014-09-28T07:20:55Z</time>
      </trkpt>
      <trkpt lat="46.32835" lon="4.71062">
        <ele>278</ele>
        <time>2014-09-28T07:21:00Z</time>
      </trkpt>
      <trkpt lat="46.32834" lon="4.71059">
        <ele>278</ele>
        <time>2014-09-28T07:21:01Z</time>
      </trkpt>
      <trkpt lat="46.3283" lon="4.71048">
        <ele>287</ele>
        <time>2014-09-28T07:21:05Z</time>
      </trkpt>
      <trkpt lat="46.32829" lon="4.71045">
        <ele>287</ele>
        <time>2014-09-28T07:21:06Z</time>
      </trkpt>
      <trkpt lat="46.32825" lon="4.71035">
        <ele>287</ele>
        <time>2014-09-28T07:21:09Z</time>
      </trkpt>
      <trkpt lat="46.32824" lon="4.7103">
        <ele>287</ele>
        <time>2014-09-28T07:21:10Z</time>
      </trkpt>
      <trkpt lat="46.32822" lon="4.71025">
        <ele>287</ele>
        <time>2014-09-28T07:21:11Z</time>
      </trkpt>
      <trkpt lat="46.3282" lon="4.71019">
        <ele>286</ele>
        <time>2014-09-28T07:21:12Z</time>
      </trkpt>
      <trkpt lat="46.32817" lon="4.71011">
        <ele>286</ele>
        <time>2014-09-28T07:21:13Z</time>
      </trkpt>
      <trkpt lat="46.32814" lon="4.71004">
        <ele>286</ele>
        <time>2014-09-28T07:21:14Z</time>
      </trkpt>
      <trkpt lat="46.32812" lon="4.70996">
        <ele>284</ele>
        <time>2014-09-28T07:21:15Z</time>
      </trkpt>
      <trkpt lat="46.3281" lon="4.70987">
        <ele>284</ele>
        <time>2014-09-28T07:21:16Z</time>
      </trkpt>
      <trkpt lat="46.32807" lon="4.70978">
        <ele>284</ele>
        <time>2014-09-28T07:21:17Z</time>
      </trkpt>
      <trkpt lat="46.32804" lon="4.70968">
        <ele>284</ele>
        <time>2014-09-28T07:21:18Z</time>
      </trkpt>
      <trkpt lat="46.32801" lon="4.70958">
        <ele>284</ele>
        <time>2014-09-28T07:21:19Z</time>
      </trkpt>
      <trkpt lat="46.32797" lon="4.70949">
        <ele>283</ele>
        <time>2014-09-28T07:21:20Z</time>
      </trkpt>
      <trkpt lat="46.32792" lon="4.7094">
        <ele>283</ele>
        <time>2014-09-28T07:21:21Z</time>
      </trkpt>
      <trkpt lat="46.32786" lon="4.70932">
        <ele>283</ele>
        <time>2014-09-28T07:21:22Z</time>
      </trkpt>
      <trkpt lat="46.32781" lon="4.70925">
        <ele>283</ele>
        <time>2014-09-28T07:21:23Z</time>
      </trkpt>
      <trkpt lat="46.32775" lon="4.70917">
        <ele>284</ele>
        <time>2014-09-28T07:21:24Z</time>
      </trkpt>
      <trkpt lat="46.32771" lon="4.7091">
        <ele>283</ele>
        <time>2014-09-28T07:21:25Z</time>
      </trkpt>
      <trkpt lat="46.32768" lon="4.70902">
        <ele>283</ele>
        <time>2014-09-28T07:21:26Z</time>
      </trkpt>
      <trkpt lat="46.32767" lon="4.70894">
        <ele>283</ele>
        <time>2014-09-28T07:21:27Z</time>
      </trkpt>
      <trkpt lat="46.32768" lon="4.70886">
        <ele>284</ele>
        <time>2014-09-28T07:21:28Z</time>
      </trkpt>
      <trkpt lat="46.3277" lon="4.7088">
        <ele>284</ele>
        <time>2014-09-28T07:21:29Z</time>
      </trkpt>
      <trkpt lat="46.32774" lon="4.70874">
        <ele>284</ele>
        <time>2014-09-28T07:21:30Z</time>
      </trkpt>
      <trkpt lat="46.32778" lon="4.70871">
        <ele>284</ele>
        <time>2014-09-28T07:21:31Z</time>
      </trkpt>
      <trkpt lat="46.32783" lon="4.70868">
        <ele>284</ele>
        <time>2014-09-28T07:21:32Z</time>
      </trkpt>
      <trkpt lat="46.32787" lon="4.70864">
        <ele>284</ele>
        <time>2014-09-28T07:21:33Z</time>
      </trkpt>
      <trkpt lat="46.32792" lon="4.70859">
        <ele>284</ele>
        <time>2014-09-28T07:21:34Z</time>
      </trkpt>
      <trkpt lat="46.32797" lon="4.7085">
        <ele>284</ele>
        <time>2014-09-28T07:21:36Z</time>
      </trkpt>
      <trkpt lat="46.328" lon="4.70846">
        <ele>283</ele>
        <time>2014-09-28T07:21:37Z</time>
      </trkpt>
      <trkpt lat="46.32805" lon="4.70837">
        <ele>283</ele>
        <time>2014-09-28T07:21:39Z</time>
      </trkpt>
      <trkpt lat="46.32807" lon="4.70834">
        <ele>283</ele>
        <time>2014-09-28T07:21:40Z</time>
      </trkpt>
      <trkpt lat="46.32814" lon="4.70826">
        <ele>289</ele>
        <time>2014-09-28T07:21:43Z</time>
      </trkpt>
      <trkpt lat="46.32817" lon="4.70824">
        <ele>289</ele>
        <time>2014-09-28T07:21:44Z</time>
      </trkpt>
      <trkpt lat="46.32824" lon="4.70818">
        <ele>289</ele>
        <time>2014-09-28T07:21:48Z</time>
      </trkpt>
      <trkpt lat="46.32827" lon="4.70816">
        <ele>289</ele>
        <time>2014-09-28T07:21:49Z</time>
      </trkpt>
      <trkpt lat="46.32832" lon="4.70811">
        <ele>290</ele>
        <time>2014-09-28T07:21:51Z</time>
      </trkpt>
      <trkpt lat="46.32835" lon="4.70809">
        <ele>285</ele>
        <time>2014-09-28T07:21:52Z</time>
      </trkpt>
      <trkpt lat="46.32842" lon="4.70804">
        <ele>286</ele>
        <time>2014-09-28T07:21:54Z</time>
      </trkpt>
      <trkpt lat="46.32845" lon="4.70801">
        <ele>286</ele>
        <time>2014-09-28T07:21:55Z</time>
      </trkpt>
      <trkpt lat="46.32852" lon="4.70797">
        <ele>286</ele>
        <time>2014-09-28T07:21:57Z</time>
      </trkpt>
      <trkpt lat="46.32856" lon="4.70795">
        <ele>286</ele>
        <time>2014-09-28T07:21:58Z</time>
      </trkpt>
      <trkpt lat="46.32863" lon="4.70792">
        <ele>286</ele>
        <time>2014-09-28T07:22:00Z</time>
      </trkpt>
      <trkpt lat="46.32867" lon="4.7079">
        <ele>286</ele>
        <time>2014-09-28T07:22:01Z</time>
      </trkpt>
      <trkpt lat="46.32874" lon="4.70785">
        <ele>286</ele>
        <time>2014-09-28T07:22:03Z</time>
      </trkpt>
      <trkpt lat="46.32877" lon="4.70782">
        <ele>287</ele>
        <time>2014-09-28T07:22:04Z</time>
      </trkpt>
      <trkpt lat="46.32884" lon="4.7078">
        <ele>286</ele>
        <time>2014-09-28T07:22:06Z</time>
      </trkpt>
      <trkpt lat="46.32887" lon="4.70779">
        <ele>286</ele>
        <time>2014-09-28T07:22:07Z</time>
      </trkpt>
      <trkpt lat="46.32894" lon="4.70775">
        <ele>286</ele>
        <time>2014-09-28T07:22:11Z</time>
      </trkpt>
      <trkpt lat="46.32897" lon="4.70773">
        <ele>286</ele>
        <time>2014-09-28T07:22:12Z</time>
      </trkpt>
      <trkpt lat="46.32901" lon="4.70772">
        <ele>286</ele>
        <time>2014-09-28T07:22:13Z</time>
      </trkpt>
      <trkpt lat="46.32906" lon="4.7077">
        <ele>286</ele>
        <time>2014-09-28T07:22:14Z</time>
      </trkpt>
      <trkpt lat="46.32911" lon="4.70769">
        <ele>286</ele>
        <time>2014-09-28T07:22:15Z</time>
      </trkpt>
      <trkpt lat="46.32915" lon="4.70767">
        <ele>287</ele>
        <time>2014-09-28T07:22:16Z</time>
      </trkpt>
      <trkpt lat="46.3292" lon="4.70765">
        <ele>282</ele>
        <time>2014-09-28T07:22:17Z</time>
      </trkpt>
      <trkpt lat="46.32925" lon="4.70762">
        <ele>283</ele>
        <time>2014-09-28T07:22:18Z</time>
      </trkpt>
      <trkpt lat="46.32933" lon="4.70753">
        <ele>282</ele>
        <time>2014-09-28T07:22:19Z</time>
      </trkpt>
      <trkpt lat="46.3294" lon="4.70746">
        <ele>286</ele>
        <time>2014-09-28T07:22:20Z</time>
      </trkpt>
      <trkpt lat="46.32944" lon="4.7074">
        <ele>285</ele>
        <time>2014-09-28T07:22:21Z</time>
      </trkpt>
      <trkpt lat="46.32948" lon="4.70733">
        <ele>285</ele>
        <time>2014-09-28T07:22:22Z</time>
      </trkpt>
      <trkpt lat="46.32951" lon="4.70725">
        <ele>285</ele>
        <time>2014-09-28T07:22:23Z</time>
      </trkpt>
      <trkpt lat="46.32953" lon="4.70717">
        <ele>285</ele>
        <time>2014-09-28T07:22:24Z</time>
      </trkpt>
      <trkpt lat="46.32955" lon="4.70709">
        <ele>285</ele>
        <time>2014-09-28T07:22:25Z</time>
      </trkpt>
      <trkpt lat="46.32956" lon="4.70702">
        <ele>285</ele>
        <time>2014-09-28T07:22:26Z</time>
      </trkpt>
      <trkpt lat="46.32958" lon="4.70696">
        <ele>285</ele>
        <time>2014-09-28T07:22:27Z</time>
      </trkpt>
      <trkpt lat="46.32958" lon="4.70696">
        <ele>285</ele>
        <time>2014-09-28T07:22:28Z</time>
      </trkpt>
      <trkpt lat="46.32963" lon="4.70681">
        <ele>285</ele>
        <time>2014-09-28T07:22:29Z</time>
      </trkpt>
      <trkpt lat="46.32964" lon="4.70673">
        <ele>285</ele>
        <time>2014-09-28T07:22:30Z</time>
      </trkpt>
      <trkpt lat="46.32964" lon="4.70664">
        <ele>286</ele>
        <time>2014-09-28T07:22:31Z</time>
      </trkpt>
      <trkpt lat="46.32963" lon="4.70657">
        <ele>287</ele>
        <time>2014-09-28T07:22:32Z</time>
      </trkpt>
      <trkpt lat="46.32961" lon="4.7065">
        <ele>287</ele>
        <time>2014-09-28T07:22:33Z</time>
      </trkpt>
      <trkpt lat="46.3296" lon="4.70644">
        <ele>287</ele>
        <time>2014-09-28T07:22:34Z</time>
      </trkpt>
      <trkpt lat="46.32958" lon="4.70636">
        <ele>287</ele>
        <time>2014-09-28T07:22:35Z</time>
      </trkpt>
      <trkpt lat="46.32956" lon="4.7063">
        <ele>288</ele>
        <time>2014-09-28T07:22:36Z</time>
      </trkpt>
      <trkpt lat="46.32956" lon="4.70623">
        <ele>288</ele>
        <time>2014-09-28T07:22:37Z</time>
      </trkpt>
      <trkpt lat="46.32954" lon="4.70616">
        <ele>288</ele>
        <time>2014-09-28T07:22:38Z</time>
      </trkpt>
      <trkpt lat="46.32953" lon="4.7061">
        <ele>288</ele>
        <time>2014-09-28T07:22:39Z</time>
      </trkpt>
      <trkpt lat="46.32951" lon="4.70603">
        <ele>289</ele>
        <time>2014-09-28T07:22:40Z</time>
      </trkpt>
      <trkpt lat="46.32949" lon="4.70596">
        <ele>289</ele>
        <time>2014-09-28T07:22:41Z</time>
      </trkpt>
      <trkpt lat="46.32948" lon="4.70589">
        <ele>289</ele>
        <time>2014-09-28T07:22:42Z</time>
      </trkpt>
      <trkpt lat="46.32948" lon="4.70582">
        <ele>290</ele>
        <time>2014-09-28T07:22:43Z</time>
      </trkpt>
      <trkpt lat="46.32948" lon="4.70573">
        <ele>290</ele>
        <time>2014-09-28T07:22:44Z</time>
      </trkpt>
      <trkpt lat="46.3295" lon="4.70567">
        <ele>290</ele>
        <time>2014-09-28T07:22:45Z</time>
      </trkpt>
      <trkpt lat="46.32949" lon="4.70559">
        <ele>289</ele>
        <time>2014-09-28T07:22:46Z</time>
      </trkpt>
      <trkpt lat="46.32949" lon="4.70551">
        <ele>289</ele>
        <time>2014-09-28T07:22:47Z</time>
      </trkpt>
      <trkpt lat="46.32949" lon="4.70544">
        <ele>289</ele>
        <time>2014-09-28T07:22:48Z</time>
      </trkpt>
      <trkpt lat="46.32949" lon="4.70536">
        <ele>289</ele>
        <time>2014-09-28T07:22:49Z</time>
      </trkpt>
      <trkpt lat="46.32949" lon="4.70528">
        <ele>289</ele>
        <time>2014-09-28T07:22:50Z</time>
      </trkpt>
      <trkpt lat="46.3295" lon="4.7052">
        <ele>290</ele>
        <time>2014-09-28T07:22:51Z</time>
      </trkpt>
      <trkpt lat="46.3295" lon="4.70512">
        <ele>290</ele>
        <time>2014-09-28T07:22:52Z</time>
      </trkpt>
      <trkpt lat="46.32951" lon="4.70503">
        <ele>290</ele>
        <time>2014-09-28T07:22:53Z</time>
      </trkpt>
      <trkpt lat="46.32952" lon="4.70493">
        <ele>290</ele>
        <time>2014-09-28T07:22:54Z</time>
      </trkpt>
      <trkpt lat="46.32952" lon="4.70484">
        <ele>290</ele>
        <time>2014-09-28T07:22:55Z</time>
      </trkpt>
      <trkpt lat="46.32954" lon="4.70475">
        <ele>290</ele>
        <time>2014-09-28T07:22:56Z</time>
      </trkpt>
      <trkpt lat="46.32955" lon="4.70466">
        <ele>290</ele>
        <time>2014-09-28T07:22:57Z</time>
      </trkpt>
      <trkpt lat="46.32956" lon="4.70457">
        <ele>290</ele>
        <time>2014-09-28T07:22:58Z</time>
      </trkpt>
      <trkpt lat="46.32957" lon="4.70449">
        <ele>290</ele>
        <time>2014-09-28T07:22:59Z</time>
      </trkpt>
      <trkpt lat="46.32959" lon="4.7044">
        <ele>290</ele>
        <time>2014-09-28T07:23:00Z</time>
      </trkpt>
      <trkpt lat="46.3296" lon="4.70432">
        <ele>290</ele>
        <time>2014-09-28T07:23:01Z</time>
      </trkpt>
      <trkpt lat="46.32962" lon="4.7042">
        <ele>290</ele>
        <time>2014-09-28T07:23:03Z</time>
      </trkpt>
      <trkpt lat="46.32962" lon="4.70417">
        <ele>290</ele>
        <time>2014-09-28T07:23:04Z</time>
      </trkpt>
      <trkpt lat="46.32971" lon="4.70415">
        <ele>289</ele>
        <time>2014-09-28T07:23:07Z</time>
      </trkpt>
      <trkpt lat="46.32973" lon="4.70415">
        <ele>289</ele>
        <time>2014-09-28T07:23:08Z</time>
      </trkpt>
      <trkpt lat="46.32978" lon="4.70415">
        <ele>288</ele>
        <time>2014-09-28T07:23:09Z</time>
      </trkpt>
      <trkpt lat="46.32983" lon="4.70416">
        <ele>288</ele>
        <time>2014-09-28T07:23:10Z</time>
      </trkpt>
      <trkpt lat="46.3299" lon="4.70417">
        <ele>287</ele>
        <time>2014-09-28T07:23:11Z</time>
      </trkpt>
      <trkpt lat="46.32996" lon="4.70418">
        <ele>286</ele>
        <time>2014-09-28T07:23:12Z</time>
      </trkpt>
      <trkpt lat="46.33003" lon="4.7042">
        <ele>284</ele>
        <time>2014-09-28T07:23:13Z</time>
      </trkpt>
      <trkpt lat="46.3301" lon="4.70424">
        <ele>282</ele>
        <time>2014-09-28T07:23:14Z</time>
      </trkpt>
      <trkpt lat="46.33017" lon="4.70428">
        <ele>280</ele>
        <time>2014-09-28T07:23:15Z</time>
      </trkpt>
      <trkpt lat="46.33023" lon="4.70432">
        <ele>280</ele>
        <time>2014-09-28T07:23:16Z</time>
      </trkpt>
      <trkpt lat="46.3303" lon="4.70435">
        <ele>279</ele>
        <time>2014-09-28T07:23:17Z</time>
      </trkpt>
      <trkpt lat="46.33037" lon="4.70438">
        <ele>278</ele>
        <time>2014-09-28T07:23:18Z</time>
      </trkpt>
      <trkpt lat="46.33043" lon="4.70442">
        <ele>277</ele>
        <time>2014-09-28T07:23:19Z</time>
      </trkpt>
      <trkpt lat="46.33051" lon="4.70445">
        <ele>277</ele>
        <time>2014-09-28T07:23:20Z</time>
      </trkpt>
      <trkpt lat="46.33058" lon="4.70448">
        <ele>276</ele>
        <time>2014-09-28T07:23:21Z</time>
      </trkpt>
      <trkpt lat="46.33064" lon="4.70452">
        <ele>276</ele>
        <time>2014-09-28T07:23:22Z</time>
      </trkpt>
      <trkpt lat="46.33069" lon="4.70456">
        <ele>275</ele>
        <time>2014-09-28T07:23:23Z</time>
      </trkpt>
      <trkpt lat="46.33075" lon="4.7046">
        <ele>275</ele>
        <time>2014-09-28T07:23:24Z</time>
      </trkpt>
      <trkpt lat="46.33081" lon="4.70465">
        <ele>275</ele>
        <time>2014-09-28T07:23:25Z</time>
      </trkpt>
      <trkpt lat="46.33087" lon="4.7047">
        <ele>268</ele>
        <time>2014-09-28T07:23:26Z</time>
      </trkpt>
      <trkpt lat="46.33092" lon="4.70474">
        <ele>268</ele>
        <time>2014-09-28T07:23:27Z</time>
      </trkpt>
      <trkpt lat="46.33095" lon="4.70476">
        <ele>268</ele>
        <time>2014-09-28T07:23:28Z</time>
      </trkpt>
      <trkpt lat="46.33099" lon="4.70468">
        <ele>267</ele>
        <time>2014-09-28T07:23:34Z</time>
      </trkpt>
      <trkpt lat="46.331" lon="4.70463">
        <ele>267</ele>
        <time>2014-09-28T07:23:35Z</time>
      </trkpt>
      <trkpt lat="46.33104" lon="4.70452">
        <ele>267</ele>
        <time>2014-09-28T07:23:37Z</time>
      </trkpt>
      <trkpt lat="46.33106" lon="4.70446">
        <ele>267</ele>
        <time>2014-09-28T07:23:38Z</time>
      </trkpt>
      <trkpt lat="46.33108" lon="4.7044">
        <ele>267</ele>
        <time>2014-09-28T07:23:39Z</time>
      </trkpt>
      <trkpt lat="46.3311" lon="4.70434">
        <ele>267</ele>
        <time>2014-09-28T07:23:40Z</time>
      </trkpt>
      <trkpt lat="46.33112" lon="4.70427">
        <ele>267</ele>
        <time>2014-09-28T07:23:41Z</time>
      </trkpt>
      <trkpt lat="46.33115" lon="4.70421">
        <ele>267</ele>
        <time>2014-09-28T07:23:42Z</time>
      </trkpt>
      <trkpt lat="46.33118" lon="4.70414">
        <ele>267</ele>
        <time>2014-09-28T07:23:43Z</time>
      </trkpt>
      <trkpt lat="46.33119" lon="4.70406">
        <ele>267</ele>
        <time>2014-09-28T07:23:44Z</time>
      </trkpt>
      <trkpt lat="46.33122" lon="4.70399">
        <ele>267</ele>
        <time>2014-09-28T07:23:45Z</time>
      </trkpt>
      <trkpt lat="46.33123" lon="4.70392">
        <ele>267</ele>
        <time>2014-09-28T07:23:46Z</time>
      </trkpt>
      <trkpt lat="46.33126" lon="4.70386">
        <ele>267</ele>
        <time>2014-09-28T07:23:47Z</time>
      </trkpt>
      <trkpt lat="46.33127" lon="4.70379">
        <ele>267</ele>
        <time>2014-09-28T07:23:48Z</time>
      </trkpt>
      <trkpt lat="46.33129" lon="4.70372">
        <ele>267</ele>
        <time>2014-09-28T07:23:49Z</time>
      </trkpt>
      <trkpt lat="46.3313" lon="4.70366">
        <ele>267</ele>
        <time>2014-09-28T07:23:50Z</time>
      </trkpt>
      <trkpt lat="46.33132" lon="4.70359">
        <ele>266</ele>
        <time>2014-09-28T07:23:51Z</time>
      </trkpt>
      <trkpt lat="46.33132" lon="4.70353">
        <ele>266</ele>
        <time>2014-09-28T07:23:52Z</time>
      </trkpt>
      <trkpt lat="46.33134" lon="4.7034">
        <ele>266</ele>
        <time>2014-09-28T07:23:55Z</time>
      </trkpt>
      <trkpt lat="46.33134" lon="4.70338">
        <ele>266</ele>
        <time>2014-09-28T07:23:56Z</time>
      </trkpt>
      <trkpt lat="46.33136" lon="4.70328">
        <ele>267</ele>
        <time>2014-09-28T07:24:04Z</time>
      </trkpt>
      <trkpt lat="46.33137" lon="4.70325">
        <ele>267</ele>
        <time>2014-09-28T07:24:05Z</time>
      </trkpt>
      <trkpt lat="46.33137" lon="4.70316">
        <ele>268</ele>
        <time>2014-09-28T07:24:07Z</time>
      </trkpt>
      <trkpt lat="46.33137" lon="4.70312">
        <ele>268</ele>
        <time>2014-09-28T07:24:08Z</time>
      </trkpt>
      <trkpt lat="46.33137" lon="4.70302">
        <ele>268</ele>
        <time>2014-09-28T07:24:10Z</time>
      </trkpt>
      <trkpt lat="46.33138" lon="4.70297">
        <ele>268</ele>
        <time>2014-09-28T07:24:11Z</time>
      </trkpt>
      <trkpt lat="46.33141" lon="4.70287">
        <ele>268</ele>
        <time>2014-09-28T07:24:13Z</time>
      </trkpt>
      <trkpt lat="46.33143" lon="4.70282">
        <ele>268</ele>
        <time>2014-09-28T07:24:14Z</time>
      </trkpt>
      <trkpt lat="46.33147" lon="4.70272">
        <ele>268</ele>
        <time>2014-09-28T07:24:16Z</time>
      </trkpt>
      <trkpt lat="46.33149" lon="4.70267">
        <ele>268</ele>
        <time>2014-09-28T07:24:17Z</time>
      </trkpt>
      <trkpt lat="46.33153" lon="4.70259">
        <ele>268</ele>
        <time>2014-09-28T07:24:19Z</time>
      </trkpt>
      <trkpt lat="46.33155" lon="4.70255">
        <ele>268</ele>
        <time>2014-09-28T07:24:20Z</time>
      </trkpt>
      <trkpt lat="46.33161" lon="4.70248">
        <ele>268</ele>
        <time>2014-09-28T07:24:22Z</time>
      </trkpt>
      <trkpt lat="46.33164" lon="4.70243">
        <ele>268</ele>
        <time>2014-09-28T07:24:23Z</time>
      </trkpt>
      <trkpt lat="46.33168" lon="4.70234">
        <ele>265</ele>
        <time>2014-09-28T07:24:26Z</time>
      </trkpt>
      <trkpt lat="46.33168" lon="4.70228">
        <ele>265</ele>
        <time>2014-09-28T07:24:26Z</time>
      </trkpt>
      <trkpt lat="46.33165" lon="4.70217">
        <ele>270</ele>
        <time>2014-09-28T07:24:29Z</time>
      </trkpt>
      <trkpt lat="46.33164" lon="4.70213">
        <ele>271</ele>
        <time>2014-09-28T07:24:30Z</time>
      </trkpt>
      <trkpt lat="46.33163" lon="4.70201">
        <ele>271</ele>
        <time>2014-09-28T07:24:33Z</time>
      </trkpt>
      <trkpt lat="46.33163" lon="4.70197">
        <ele>271</ele>
        <time>2014-09-28T07:24:34Z</time>
      </trkpt>
      <trkpt lat="46.33163" lon="4.70186">
        <ele>271</ele>
        <time>2014-09-28T07:24:37Z</time>
      </trkpt>
      <trkpt lat="46.33163" lon="4.70183">
        <ele>270</ele>
        <time>2014-09-28T07:24:38Z</time>
      </trkpt>
      <trkpt lat="46.33162" lon="4.70172">
        <ele>270</ele>
        <time>2014-09-28T07:24:41Z</time>
      </trkpt>
      <trkpt lat="46.33162" lon="4.70168">
        <ele>270</ele>
        <time>2014-09-28T07:24:42Z</time>
      </trkpt>
      <trkpt lat="46.33161" lon="4.70156">
        <ele>271</ele>
        <time>2014-09-28T07:24:45Z</time>
      </trkpt>
      <trkpt lat="46.33161" lon="4.70152">
        <ele>272</ele>
        <time>2014-09-28T07:24:46Z</time>
      </trkpt>
      <trkpt lat="46.3316" lon="4.7014">
        <ele>273</ele>
        <time>2014-09-28T07:24:49Z</time>
      </trkpt>
      <trkpt lat="46.33159" lon="4.70135">
        <ele>273</ele>
        <time>2014-09-28T07:24:50Z</time>
      </trkpt>
      <trkpt lat="46.33158" lon="4.70126">
        <ele>274</ele>
        <time>2014-09-28T07:24:52Z</time>
      </trkpt>
      <trkpt lat="46.33157" lon="4.70122">
        <ele>274</ele>
        <time>2014-09-28T07:24:53Z</time>
      </trkpt>
      <trkpt lat="46.33156" lon="4.70112">
        <ele>274</ele>
        <time>2014-09-28T07:24:55Z</time>
      </trkpt>
      <trkpt lat="46.33156" lon="4.70107">
        <ele>274</ele>
        <time>2014-09-28T07:24:56Z</time>
      </trkpt>
      <trkpt lat="46.33155" lon="4.70097">
        <ele>274</ele>
        <time>2014-09-28T07:24:58Z</time>
      </trkpt>
      <trkpt lat="46.33154" lon="4.70092">
        <ele>274</ele>
        <time>2014-09-28T07:24:59Z</time>
      </trkpt>
      <trkpt lat="46.33153" lon="4.70082">
        <ele>275</ele>
        <time>2014-09-28T07:25:01Z</time>
      </trkpt>
      <trkpt lat="46.33152" lon="4.70078">
        <ele>275</ele>
        <time>2014-09-28T07:25:02Z</time>
      </trkpt>
      <trkpt lat="46.3315" lon="4.70068">
        <ele>275</ele>
        <time>2014-09-28T07:25:04Z</time>
      </trkpt>
      <trkpt lat="46.33148" lon="4.70064">
        <ele>276</ele>
        <time>2014-09-28T07:25:05Z</time>
      </trkpt>
      <trkpt lat="46.33145" lon="4.70055">
        <ele>276</ele>
        <time>2014-09-28T07:25:07Z</time>
      </trkpt>
      <trkpt lat="46.33144" lon="4.7005">
        <ele>276</ele>
        <time>2014-09-28T07:25:08Z</time>
      </trkpt>
      <trkpt lat="46.33142" lon="4.70042">
        <ele>276</ele>
        <time>2014-09-28T07:25:10Z</time>
      </trkpt>
      <trkpt lat="46.33142" lon="4.70037">
        <ele>276</ele>
        <time>2014-09-28T07:25:11Z</time>
      </trkpt>
      <trkpt lat="46.3314" lon="4.70025">
        <ele>276</ele>
        <time>2014-09-28T07:25:14Z</time>
      </trkpt>
      <trkpt lat="46.33139" lon="4.70021">
        <ele>276</ele>
        <time>2014-09-28T07:25:15Z</time>
      </trkpt>
      <trkpt lat="46.3314" lon="4.7001">
        <ele>276</ele>
        <time>2014-09-28T07:25:17Z</time>
      </trkpt>
      <trkpt lat="46.3314" lon="4.70004">
        <ele>275</ele>
        <time>2014-09-28T07:25:18Z</time>
      </trkpt>
      <trkpt lat="46.33139" lon="4.69998">
        <ele>274</ele>
        <time>2014-09-28T07:25:19Z</time>
      </trkpt>
      <trkpt lat="46.33138" lon="4.69991">
        <ele>274</ele>
        <time>2014-09-28T07:25:20Z</time>
      </trkpt>
      <trkpt lat="46.33136" lon="4.69982">
        <ele>274</ele>
        <time>2014-09-28T07:25:21Z</time>
      </trkpt>
      <trkpt lat="46.33135" lon="4.69974">
        <ele>274</ele>
        <time>2014-09-28T07:25:22Z</time>
      </trkpt>
      <trkpt lat="46.33133" lon="4.69968">
        <ele>274</ele>
        <time>2014-09-28T07:25:23Z</time>
      </trkpt>
      <trkpt lat="46.33131" lon="4.6996">
        <ele>274</ele>
        <time>2014-09-28T07:25:24Z</time>
      </trkpt>
      <trkpt lat="46.3313" lon="4.69952">
        <ele>274</ele>
        <time>2014-09-28T07:25:25Z</time>
      </trkpt>
      <trkpt lat="46.33126" lon="4.69945">
        <ele>274</ele>
        <time>2014-09-28T07:25:26Z</time>
      </trkpt>
      <trkpt lat="46.33124" lon="4.69937">
        <ele>274</ele>
        <time>2014-09-28T07:25:27Z</time>
      </trkpt>
      <trkpt lat="46.33123" lon="4.69928">
        <ele>274</ele>
        <time>2014-09-28T07:25:28Z</time>
      </trkpt>
      <trkpt lat="46.33122" lon="4.69919">
        <ele>274</ele>
        <time>2014-09-28T07:25:29Z</time>
      </trkpt>
      <trkpt lat="46.3312" lon="4.6991">
        <ele>271</ele>
        <time>2014-09-28T07:25:30Z</time>
      </trkpt>
      <trkpt lat="46.33117" lon="4.69904">
        <ele>271</ele>
        <time>2014-09-28T07:25:31Z</time>
      </trkpt>
      <trkpt lat="46.33115" lon="4.69894">
        <ele>271</ele>
        <time>2014-09-28T07:25:32Z</time>
      </trkpt>
      <trkpt lat="46.33112" lon="4.69884">
        <ele>271</ele>
        <time>2014-09-28T07:25:33Z</time>
      </trkpt>
      <trkpt lat="46.33111" lon="4.69873">
        <ele>270</ele>
        <time>2014-09-28T07:25:34Z</time>
      </trkpt>
      <trkpt lat="46.33107" lon="4.69863">
        <ele>270</ele>
        <time>2014-09-28T07:25:35Z</time>
      </trkpt>
      <trkpt lat="46.33105" lon="4.69852">
        <ele>271</ele>
        <time>2014-09-28T07:25:36Z</time>
      </trkpt>
      <trkpt lat="46.33103" lon="4.69841">
        <ele>271</ele>
        <time>2014-09-28T07:25:37Z</time>
      </trkpt>
      <trkpt lat="46.33099" lon="4.6983">
        <ele>269</ele>
        <time>2014-09-28T07:25:38Z</time>
      </trkpt>
      <trkpt lat="46.33096" lon="4.6982">
        <ele>268</ele>
        <time>2014-09-28T07:25:39Z</time>
      </trkpt>
      <trkpt lat="46.33094" lon="4.69809">
        <ele>267</ele>
        <time>2014-09-28T07:25:40Z</time>
      </trkpt>
      <trkpt lat="46.33092" lon="4.698">
        <ele>266</ele>
        <time>2014-09-28T07:25:41Z</time>
      </trkpt>
      <trkpt lat="46.3309" lon="4.69791">
        <ele>266</ele>
        <time>2014-09-28T07:25:42Z</time>
      </trkpt>
      <trkpt lat="46.33087" lon="4.69781">
        <ele>266</ele>
        <time>2014-09-28T07:25:43Z</time>
      </trkpt>
      <trkpt lat="46.33085" lon="4.69772">
        <ele>266</ele>
        <time>2014-09-28T07:25:44Z</time>
      </trkpt>
      <trkpt lat="46.33082" lon="4.69763">
        <ele>271</ele>
        <time>2014-09-28T07:25:45Z</time>
      </trkpt>
      <trkpt lat="46.33079" lon="4.69754">
        <ele>270</ele>
        <time>2014-09-28T07:25:46Z</time>
      </trkpt>
      <trkpt lat="46.33076" lon="4.69745">
        <ele>269</ele>
        <time>2014-09-28T07:25:47Z</time>
      </trkpt>
      <trkpt lat="46.33074" lon="4.69736">
        <ele>269</ele>
        <time>2014-09-28T07:25:48Z</time>
      </trkpt>
      <trkpt lat="46.33071" lon="4.69727">
        <ele>269</ele>
        <time>2014-09-28T07:25:49Z</time>
      </trkpt>
      <trkpt lat="46.33068" lon="4.69719">
        <ele>269</ele>
        <time>2014-09-28T07:25:50Z</time>
      </trkpt>
      <trkpt lat="46.33064" lon="4.69712">
        <ele>269</ele>
        <time>2014-09-28T07:25:51Z</time>
      </trkpt>
      <trkpt lat="46.33061" lon="4.69705">
        <ele>269</ele>
        <time>2014-09-28T07:25:52Z</time>
      </trkpt>
      <trkpt lat="46.33058" lon="4.69699">
        <ele>269</ele>
        <time>2014-09-28T07:25:53Z</time>
      </trkpt>
      <trkpt lat="46.33055" lon="4.69692">
        <ele>269</ele>
        <time>2014-09-28T07:25:54Z</time>
      </trkpt>
      <trkpt lat="46.33052" lon="4.69685">
        <ele>268</ele>
        <time>2014-09-28T07:25:55Z</time>
      </trkpt>
      <trkpt lat="46.33049" lon="4.69679">
        <ele>269</ele>
        <time>2014-09-28T07:25:56Z</time>
      </trkpt>
      <trkpt lat="46.33046" lon="4.69673">
        <ele>269</ele>
        <time>2014-09-28T07:25:57Z</time>
      </trkpt>
      <trkpt lat="46.33042" lon="4.69667">
        <ele>269</ele>
        <time>2014-09-28T07:25:58Z</time>
      </trkpt>
      <trkpt lat="46.3304" lon="4.69661">
        <ele>266</ele>
        <time>2014-09-28T07:25:59Z</time>
      </trkpt>
      <trkpt lat="46.33036" lon="4.69655">
        <ele>266</ele>
        <time>2014-09-28T07:26:00Z</time>
      </trkpt>
      <trkpt lat="46.33033" lon="4.69648">
        <ele>266</ele>
        <time>2014-09-28T07:26:01Z</time>
      </trkpt>
      <trkpt lat="46.33029" lon="4.69642">
        <ele>266</ele>
        <time>2014-09-28T07:26:02Z</time>
      </trkpt>
      <trkpt lat="46.33026" lon="4.69636">
        <ele>266</ele>
        <time>2014-09-28T07:26:03Z</time>
      </trkpt>
      <trkpt lat="46.33022" lon="4.6963">
        <ele>266</ele>
        <time>2014-09-28T07:26:04Z</time>
      </trkpt>
      <trkpt lat="46.33018" lon="4.69624">
        <ele>266</ele>
        <time>2014-09-28T07:26:05Z</time>
      </trkpt>
      <trkpt lat="46.33015" lon="4.69617">
        <ele>266</ele>
        <time>2014-09-28T07:26:06Z</time>
      </trkpt>
      <trkpt lat="46.33011" lon="4.69611">
        <ele>266</ele>
        <time>2014-09-28T07:26:07Z</time>
      </trkpt>
      <trkpt lat="46.33008" lon="4.69604">
        <ele>266</ele>
        <time>2014-09-28T07:26:08Z</time>
      </trkpt>
      <trkpt lat="46.33005" lon="4.69598">
        <ele>266</ele>
        <time>2014-09-28T07:26:09Z</time>
      </trkpt>
      <trkpt lat="46.33001" lon="4.69592">
        <ele>266</ele>
        <time>2014-09-28T07:26:10Z</time>
      </trkpt>
      <trkpt lat="46.32998" lon="4.69586">
        <ele>268</ele>
        <time>2014-09-28T07:26:11Z</time>
      </trkpt>
      <trkpt lat="46.32995" lon="4.6958">
        <ele>267</ele>
        <time>2014-09-28T07:26:12Z</time>
      </trkpt>
      <trkpt lat="46.32992" lon="4.69574">
        <ele>268</ele>
        <time>2014-09-28T07:26:13Z</time>
      </trkpt>
      <trkpt lat="46.32989" lon="4.69568">
        <ele>268</ele>
        <time>2014-09-28T07:26:14Z</time>
      </trkpt>
      <trkpt lat="46.32982" lon="4.69562">
        <ele>268</ele>
        <time>2014-09-28T07:26:16Z</time>
      </trkpt>
      <trkpt lat="46.32979" lon="4.69562">
        <ele>268</ele>
        <time>2014-09-28T07:26:17Z</time>
      </trkpt>
      <trkpt lat="46.32972" lon="4.69568">
        <ele>269</ele>
        <time>2014-09-28T07:26:19Z</time>
      </trkpt>
      <trkpt lat="46.32969" lon="4.69572">
        <ele>269</ele>
        <time>2014-09-28T07:26:20Z</time>
      </trkpt>
      <trkpt lat="46.32963" lon="4.69578">
        <ele>269</ele>
        <time>2014-09-28T07:26:22Z</time>
      </trkpt>
      <trkpt lat="46.3296" lon="4.69576">
        <ele>270</ele>
        <time>2014-09-28T07:26:23Z</time>
      </trkpt>
      <trkpt lat="46.32957" lon="4.69566">
        <ele>270</ele>
        <time>2014-09-28T07:26:25Z</time>
      </trkpt>
      <trkpt lat="46.32956" lon="4.69559">
        <ele>270</ele>
        <time>2014-09-28T07:26:26Z</time>
      </trkpt>
      <trkpt lat="46.32955" lon="4.69552">
        <ele>269</ele>
        <time>2014-09-28T07:26:27Z</time>
      </trkpt>
      <trkpt lat="46.32953" lon="4.69543">
        <ele>269</ele>
        <time>2014-09-28T07:26:28Z</time>
      </trkpt>
      <trkpt lat="46.32952" lon="4.69532">
        <ele>269</ele>
        <time>2014-09-28T07:26:29Z</time>
      </trkpt>
      <trkpt lat="46.3295" lon="4.69522">
        <ele>269</ele>
        <time>2014-09-28T07:26:30Z</time>
      </trkpt>
      <trkpt lat="46.32948" lon="4.69511">
        <ele>269</ele>
        <time>2014-09-28T07:26:31Z</time>
      </trkpt>
      <trkpt lat="46.32946" lon="4.695">
        <ele>269</ele>
        <time>2014-09-28T07:26:32Z</time>
      </trkpt>
      <trkpt lat="46.32945" lon="4.69488">
        <ele>267</ele>
        <time>2014-09-28T07:26:33Z</time>
      </trkpt>
      <trkpt lat="46.32943" lon="4.69476">
        <ele>266</ele>
        <time>2014-09-28T07:26:34Z</time>
      </trkpt>
      <trkpt lat="46.32942" lon="4.69463">
        <ele>266</ele>
        <time>2014-09-28T07:26:35Z</time>
      </trkpt>
      <trkpt lat="46.32939" lon="4.6945">
        <ele>266</ele>
        <time>2014-09-28T07:26:36Z</time>
      </trkpt>
      <trkpt lat="46.32938" lon="4.69436">
        <ele>266</ele>
        <time>2014-09-28T07:26:37Z</time>
      </trkpt>
      <trkpt lat="46.32936" lon="4.69424">
        <ele>266</ele>
        <time>2014-09-28T07:26:38Z</time>
      </trkpt>
      <trkpt lat="46.32934" lon="4.69411">
        <ele>265</ele>
        <time>2014-09-28T07:26:39Z</time>
      </trkpt>
      <trkpt lat="46.32932" lon="4.69398">
        <ele>264</ele>
        <time>2014-09-28T07:26:40Z</time>
      </trkpt>
      <trkpt lat="46.3293" lon="4.69385">
        <ele>264</ele>
        <time>2014-09-28T07:26:41Z</time>
      </trkpt>
      <trkpt lat="46.32928" lon="4.69372">
        <ele>264</ele>
        <time>2014-09-28T07:26:42Z</time>
      </trkpt>
      <trkpt lat="46.32925" lon="4.69359">
        <ele>263</ele>
        <time>2014-09-28T07:26:43Z</time>
      </trkpt>
      <trkpt lat="46.32924" lon="4.69345">
        <ele>264</ele>
        <time>2014-09-28T07:26:44Z</time>
      </trkpt>
      <trkpt lat="46.32921" lon="4.69332">
        <ele>263</ele>
        <time>2014-09-28T07:26:45Z</time>
      </trkpt>
      <trkpt lat="46.32919" lon="4.69319">
        <ele>263</ele>
        <time>2014-09-28T07:26:46Z</time>
      </trkpt>
      <trkpt lat="46.32917" lon="4.69306">
        <ele>262</ele>
        <time>2014-09-28T07:26:47Z</time>
      </trkpt>
      <trkpt lat="46.32915" lon="4.69293">
        <ele>264</ele>
        <time>2014-09-28T07:26:48Z</time>
      </trkpt>
      <trkpt lat="46.32913" lon="4.69279">
        <ele>264</ele>
        <time>2014-09-28T07:26:49Z</time>
      </trkpt>
      <trkpt lat="46.32911" lon="4.69266">
        <ele>264</ele>
        <time>2014-09-28T07:26:50Z</time>
      </trkpt>
      <trkpt lat="46.32909" lon="4.69253">
        <ele>263</ele>
        <time>2014-09-28T07:26:51Z</time>
      </trkpt>
      <trkpt lat="46.32907" lon="4.6924">
        <ele>262</ele>
        <time>2014-09-28T07:26:52Z</time>
      </trkpt>
      <trkpt lat="46.32904" lon="4.69227">
        <ele>262</ele>
        <time>2014-09-28T07:26:53Z</time>
      </trkpt>
      <trkpt lat="46.32899" lon="4.69216">
        <ele>262</ele>
        <time>2014-09-28T07:26:54Z</time>
      </trkpt>
      <trkpt lat="46.32895" lon="4.69205">
        <ele>262</ele>
        <time>2014-09-28T07:26:55Z</time>
      </trkpt>
      <trkpt lat="46.32891" lon="4.69195">
        <ele>262</ele>
        <time>2014-09-28T07:26:56Z</time>
      </trkpt>
      <trkpt lat="46.32888" lon="4.69184">
        <ele>262</ele>
        <time>2014-09-28T07:26:57Z</time>
      </trkpt>
      <trkpt lat="46.32885" lon="4.69173">
        <ele>262</ele>
        <time>2014-09-28T07:26:58Z</time>
      </trkpt>
      <trkpt lat="46.32883" lon="4.69162">
        <ele>261</ele>
        <time>2014-09-28T07:26:59Z</time>
      </trkpt>
      <trkpt lat="46.3288" lon="4.69152">
        <ele>261</ele>
        <time>2014-09-28T07:27:00Z</time>
      </trkpt>
      <trkpt lat="46.32877" lon="4.69141">
        <ele>261</ele>
        <time>2014-09-28T07:27:01Z</time>
      </trkpt>
      <trkpt lat="46.32874" lon="4.6913">
        <ele>261</ele>
        <time>2014-09-28T07:27:02Z</time>
      </trkpt>
      <trkpt lat="46.32872" lon="4.6912">
        <ele>261</ele>
        <time>2014-09-28T07:27:03Z</time>
      </trkpt>
      <trkpt lat="46.32868" lon="4.69109">
        <ele>261</ele>
        <time>2014-09-28T07:27:04Z</time>
      </trkpt>
      <trkpt lat="46.32865" lon="4.691">
        <ele>261</ele>
        <time>2014-09-28T07:27:05Z</time>
      </trkpt>
      <trkpt lat="46.32862" lon="4.69091">
        <ele>261</ele>
        <time>2014-09-28T07:27:06Z</time>
      </trkpt>
      <trkpt lat="46.32858" lon="4.69081">
        <ele>261</ele>
        <time>2014-09-28T07:27:07Z</time>
      </trkpt>
      <trkpt lat="46.32854" lon="4.69072">
        <ele>261</ele>
        <time>2014-09-28T07:27:08Z</time>
      </trkpt>
      <trkpt lat="46.32849" lon="4.69063">
        <ele>261</ele>
        <time>2014-09-28T07:27:09Z</time>
      </trkpt>
      <trkpt lat="46.32845" lon="4.69055">
        <ele>261</ele>
        <time>2014-09-28T07:27:10Z</time>
      </trkpt>
      <trkpt lat="46.3284" lon="4.69047">
        <ele>261</ele>
        <time>2014-09-28T07:27:11Z</time>
      </trkpt>
      <trkpt lat="46.32836" lon="4.69038">
        <ele>261</ele>
        <time>2014-09-28T07:27:12Z</time>
      </trkpt>
      <trkpt lat="46.32831" lon="4.69031">
        <ele>263</ele>
        <time>2014-09-28T07:27:13Z</time>
      </trkpt>
      <trkpt lat="46.32826" lon="4.69023">
        <ele>263</ele>
        <time>2014-09-28T07:27:14Z</time>
      </trkpt>
      <trkpt lat="46.32821" lon="4.69015">
        <ele>263</ele>
        <time>2014-09-28T07:27:15Z</time>
      </trkpt>
      <trkpt lat="46.32816" lon="4.69007">
        <ele>263</ele>
        <time>2014-09-28T07:27:16Z</time>
      </trkpt>
      <trkpt lat="46.32811" lon="4.69">
        <ele>262</ele>
        <time>2014-09-28T07:27:17Z</time>
      </trkpt>
      <trkpt lat="46.32806" lon="4.68993">
        <ele>262</ele>
        <time>2014-09-28T07:27:18Z</time>
      </trkpt>
      <trkpt lat="46.328" lon="4.68986">
        <ele>262</ele>
        <time>2014-09-28T07:27:19Z</time>
      </trkpt>
      <trkpt lat="46.32795" lon="4.6898">
        <ele>262</ele>
        <time>2014-09-28T07:27:20Z</time>
      </trkpt>
      <trkpt lat="46.32789" lon="4.68973">
        <ele>262</ele>
        <time>2014-09-28T07:27:21Z</time>
      </trkpt>
      <trkpt lat="46.32783" lon="4.68967">
        <ele>262</ele>
        <time>2014-09-28T07:27:22Z</time>
      </trkpt>
      <trkpt lat="46.32778" lon="4.68961">
        <ele>262</ele>
        <time>2014-09-28T07:27:23Z</time>
      </trkpt>
      <trkpt lat="46.32772" lon="4.68954">
        <ele>262</ele>
        <time>2014-09-28T07:27:24Z</time>
      </trkpt>
      <trkpt lat="46.32767" lon="4.68947">
        <ele>262</ele>
        <time>2014-09-28T07:27:25Z</time>
      </trkpt>
      <trkpt lat="46.32763" lon="4.6894">
        <ele>262</ele>
        <time>2014-09-28T07:27:26Z</time>
      </trkpt>
      <trkpt lat="46.32758" lon="4.68934">
        <ele>263</ele>
        <time>2014-09-28T07:27:27Z</time>
      </trkpt>
      <trkpt lat="46.32753" lon="4.68928">
        <ele>263</ele>
        <time>2014-09-28T07:27:28Z</time>
      </trkpt>
      <trkpt lat="46.32748" lon="4.68921">
        <ele>264</ele>
        <time>2014-09-28T07:27:29Z</time>
      </trkpt>
      <trkpt lat="46.32744" lon="4.68915">
        <ele>264</ele>
        <time>2014-09-28T07:27:30Z</time>
      </trkpt>
      <trkpt lat="46.3274" lon="4.68909">
        <ele>264</ele>
        <time>2014-09-28T07:27:31Z</time>
      </trkpt>
      <trkpt lat="46.32735" lon="4.68903">
        <ele>264</ele>
        <time>2014-09-28T07:27:32Z</time>
      </trkpt>
      <trkpt lat="46.3273" lon="4.68896">
        <ele>265</ele>
        <time>2014-09-28T07:27:33Z</time>
      </trkpt>
      <trkpt lat="46.32725" lon="4.6889">
        <ele>265</ele>
        <time>2014-09-28T07:27:34Z</time>
      </trkpt>
      <trkpt lat="46.3272" lon="4.68885">
        <ele>265</ele>
        <time>2014-09-28T07:27:35Z</time>
      </trkpt>
      <trkpt lat="46.32715" lon="4.68879">
        <ele>265</ele>
        <time>2014-09-28T07:27:36Z</time>
      </trkpt>
      <trkpt lat="46.3271" lon="4.68873">
        <ele>265</ele>
        <time>2014-09-28T07:27:37Z</time>
      </trkpt>
      <trkpt lat="46.32706" lon="4.68866">
        <ele>266</ele>
        <time>2014-09-28T07:27:38Z</time>
      </trkpt>
      <trkpt lat="46.32702" lon="4.6886">
        <ele>266</ele>
        <time>2014-09-28T07:27:39Z</time>
      </trkpt>
      <trkpt lat="46.32697" lon="4.68854">
        <ele>266</ele>
        <time>2014-09-28T07:27:40Z</time>
      </trkpt>
      <trkpt lat="46.32693" lon="4.68848">
        <ele>266</ele>
        <time>2014-09-28T07:27:41Z</time>
      </trkpt>
      <trkpt lat="46.32688" lon="4.68841">
        <ele>266</ele>
        <time>2014-09-28T07:27:42Z</time>
      </trkpt>
      <trkpt lat="46.32683" lon="4.68835">
        <ele>267</ele>
        <time>2014-09-28T07:27:43Z</time>
      </trkpt>
      <trkpt lat="46.32678" lon="4.68828">
        <ele>267</ele>
        <time>2014-09-28T07:27:44Z</time>
      </trkpt>
      <trkpt lat="46.32672" lon="4.68822">
        <ele>267</ele>
        <time>2014-09-28T07:27:45Z</time>
      </trkpt>
      <trkpt lat="46.32667" lon="4.68816">
        <ele>267</ele>
        <time>2014-09-28T07:27:46Z</time>
      </trkpt>
      <trkpt lat="46.32662" lon="4.68811">
        <ele>268</ele>
        <time>2014-09-28T07:27:47Z</time>
      </trkpt>
      <trkpt lat="46.32657" lon="4.68805">
        <ele>269</ele>
        <time>2014-09-28T07:27:48Z</time>
      </trkpt>
      <trkpt lat="46.3265" lon="4.68799">
        <ele>269</ele>
        <time>2014-09-28T07:27:49Z</time>
      </trkpt>
      <trkpt lat="46.32644" lon="4.68794">
        <ele>269</ele>
        <time>2014-09-28T07:27:50Z</time>
      </trkpt>
      <trkpt lat="46.32639" lon="4.68788">
        <ele>269</ele>
        <time>2014-09-28T07:27:51Z</time>
      </trkpt>
      <trkpt lat="46.32634" lon="4.68783">
        <ele>269</ele>
        <time>2014-09-28T07:27:52Z</time>
      </trkpt>
      <trkpt lat="46.3263" lon="4.68777">
        <ele>269</ele>
        <time>2014-09-28T07:27:53Z</time>
      </trkpt>
      <trkpt lat="46.32624" lon="4.68772">
        <ele>269</ele>
        <time>2014-09-28T07:27:54Z</time>
      </trkpt>
      <trkpt lat="46.32619" lon="4.68766">
        <ele>269</ele>
        <time>2014-09-28T07:27:55Z</time>
      </trkpt>
      <trkpt lat="46.32614" lon="4.68761">
        <ele>269</ele>
        <time>2014-09-28T07:27:56Z</time>
      </trkpt>
      <trkpt lat="46.32609" lon="4.68756">
        <ele>269</ele>
        <time>2014-09-28T07:27:57Z</time>
      </trkpt>
      <trkpt lat="46.32603" lon="4.68752">
        <ele>269</ele>
        <time>2014-09-28T07:27:58Z</time>
      </trkpt>
      <trkpt lat="46.32597" lon="4.68749">
        <ele>268</ele>
        <time>2014-09-28T07:27:59Z</time>
      </trkpt>
      <trkpt lat="46.32592" lon="4.68747">
        <ele>268</ele>
        <time>2014-09-28T07:28:00Z</time>
      </trkpt>
      <trkpt lat="46.32586" lon="4.68744">
        <ele>268</ele>
        <time>2014-09-28T07:28:01Z</time>
      </trkpt>
      <trkpt lat="46.3258" lon="4.68742">
        <ele>269</ele>
        <time>2014-09-28T07:28:02Z</time>
      </trkpt>
      <trkpt lat="46.32573" lon="4.68739">
        <ele>269</ele>
        <time>2014-09-28T07:28:03Z</time>
      </trkpt>
      <trkpt lat="46.32567" lon="4.68737">
        <ele>269</ele>
        <time>2014-09-28T07:28:04Z</time>
      </trkpt>
      <trkpt lat="46.32561" lon="4.68735">
        <ele>269</ele>
        <time>2014-09-28T07:28:05Z</time>
      </trkpt>
      <trkpt lat="46.32556" lon="4.68733">
        <ele>269</ele>
        <time>2014-09-28T07:28:06Z</time>
      </trkpt>
      <trkpt lat="46.3255" lon="4.6873">
        <ele>270</ele>
        <time>2014-09-28T07:28:07Z</time>
      </trkpt>
      <trkpt lat="46.32544" lon="4.68729">
        <ele>270</ele>
        <time>2014-09-28T07:28:08Z</time>
      </trkpt>
      <trkpt lat="46.3254" lon="4.68727">
        <ele>270</ele>
        <time>2014-09-28T07:28:09Z</time>
      </trkpt>
      <trkpt lat="46.32535" lon="4.68725">
        <ele>270</ele>
        <time>2014-09-28T07:28:10Z</time>
      </trkpt>
      <trkpt lat="46.32531" lon="4.68724">
        <ele>270</ele>
        <time>2014-09-28T07:28:11Z</time>
      </trkpt>
      <trkpt lat="46.32526" lon="4.68722">
        <ele>270</ele>
        <time>2014-09-28T07:28:12Z</time>
      </trkpt>
      <trkpt lat="46.3252" lon="4.68719">
        <ele>270</ele>
        <time>2014-09-28T07:28:13Z</time>
      </trkpt>
      <trkpt lat="46.32516" lon="4.68717">
        <ele>270</ele>
        <time>2014-09-28T07:28:14Z</time>
      </trkpt>
      <trkpt lat="46.32511" lon="4.68715">
        <ele>270</ele>
        <time>2014-09-28T07:28:15Z</time>
      </trkpt>
      <trkpt lat="46.32503" lon="4.68711">
        <ele>270</ele>
        <time>2014-09-28T07:28:17Z</time>
      </trkpt>
      <trkpt lat="46.32499" lon="4.68709">
        <ele>273</ele>
        <time>2014-09-28T07:28:18Z</time>
      </trkpt>
      <trkpt lat="46.32494" lon="4.68706">
        <ele>273</ele>
        <time>2014-09-28T07:28:19Z</time>
      </trkpt>
      <trkpt lat="46.3249" lon="4.68705">
        <ele>273</ele>
        <time>2014-09-28T07:28:20Z</time>
      </trkpt>
      <trkpt lat="46.32483" lon="4.68702">
        <ele>273</ele>
        <time>2014-09-28T07:28:22Z</time>
      </trkpt>
      <trkpt lat="46.32479" lon="4.68702">
        <ele>274</ele>
        <time>2014-09-28T07:28:23Z</time>
      </trkpt>
      <trkpt lat="46.3247" lon="4.68699">
        <ele>274</ele>
        <time>2014-09-28T07:28:25Z</time>
      </trkpt>
      <trkpt lat="46.32466" lon="4.68697">
        <ele>274</ele>
        <time>2014-09-28T07:28:26Z</time>
      </trkpt>
      <trkpt lat="46.32458" lon="4.68692">
        <ele>274</ele>
        <time>2014-09-28T07:28:28Z</time>
      </trkpt>
      <trkpt lat="46.32454" lon="4.6869">
        <ele>274</ele>
        <time>2014-09-28T07:28:29Z</time>
      </trkpt>
      <trkpt lat="46.32446" lon="4.68686">
        <ele>274</ele>
        <time>2014-09-28T07:28:31Z</time>
      </trkpt>
      <trkpt lat="46.32441" lon="4.68685">
        <ele>274</ele>
        <time>2014-09-28T07:28:32Z</time>
      </trkpt>
      <trkpt lat="46.32437" lon="4.68684">
        <ele>275</ele>
        <time>2014-09-28T07:28:33Z</time>
      </trkpt>
      <trkpt lat="46.32432" lon="4.68683">
        <ele>275</ele>
        <time>2014-09-28T07:28:34Z</time>
      </trkpt>
      <trkpt lat="46.32424" lon="4.68682">
        <ele>275</ele>
        <time>2014-09-28T07:28:36Z</time>
      </trkpt>
      <trkpt lat="46.3242" lon="4.6868">
        <ele>275</ele>
        <time>2014-09-28T07:28:37Z</time>
      </trkpt>
      <trkpt lat="46.32411" lon="4.68678">
        <ele>277</ele>
        <time>2014-09-28T07:28:39Z</time>
      </trkpt>
      <trkpt lat="46.32407" lon="4.68676">
        <ele>277</ele>
        <time>2014-09-28T07:28:40Z</time>
      </trkpt>
      <trkpt lat="46.32403" lon="4.68674">
        <ele>277</ele>
        <time>2014-09-28T07:28:41Z</time>
      </trkpt>
      <trkpt lat="46.32399" lon="4.68671">
        <ele>277</ele>
        <time>2014-09-28T07:28:42Z</time>
      </trkpt>
      <trkpt lat="46.32395" lon="4.68669">
        <ele>278</ele>
        <time>2014-09-28T07:28:43Z</time>
      </trkpt>
      <trkpt lat="46.3239" lon="4.68666">
        <ele>276</ele>
        <time>2014-09-28T07:28:44Z</time>
      </trkpt>
      <trkpt lat="46.32386" lon="4.68663">
        <ele>276</ele>
        <time>2014-09-28T07:28:45Z</time>
      </trkpt>
      <trkpt lat="46.32382" lon="4.6866">
        <ele>276</ele>
        <time>2014-09-28T07:28:46Z</time>
      </trkpt>
      <trkpt lat="46.32377" lon="4.68657">
        <ele>277</ele>
        <time>2014-09-28T07:28:47Z</time>
      </trkpt>
      <trkpt lat="46.32374" lon="4.68653">
        <ele>277</ele>
        <time>2014-09-28T07:28:48Z</time>
      </trkpt>
      <trkpt lat="46.3237" lon="4.68649">
        <ele>277</ele>
        <time>2014-09-28T07:28:49Z</time>
      </trkpt>
      <trkpt lat="46.32366" lon="4.68645">
        <ele>277</ele>
        <time>2014-09-28T07:28:50Z</time>
      </trkpt>
      <trkpt lat="46.32359" lon="4.6864">
        <ele>277</ele>
        <time>2014-09-28T07:28:52Z</time>
      </trkpt>
      <trkpt lat="46.32355" lon="4.68637">
        <ele>277</ele>
        <time>2014-09-28T07:28:53Z</time>
      </trkpt>
      <trkpt lat="46.32348" lon="4.68629">
        <ele>277</ele>
        <time>2014-09-28T07:28:55Z</time>
      </trkpt>
      <trkpt lat="46.32344" lon="4.68626">
        <ele>277</ele>
        <time>2014-09-28T07:28:56Z</time>
      </trkpt>
      <trkpt lat="46.3234" lon="4.68623">
        <ele>277</ele>
        <time>2014-09-28T07:28:57Z</time>
      </trkpt>
      <trkpt lat="46.32335" lon="4.6862">
        <ele>277</ele>
        <time>2014-09-28T07:28:58Z</time>
      </trkpt>
      <trkpt lat="46.32327" lon="4.68615">
        <ele>280</ele>
        <time>2014-09-28T07:29:00Z</time>
      </trkpt>
      <trkpt lat="46.32324" lon="4.68611">
        <ele>280</ele>
        <time>2014-09-28T07:29:01Z</time>
      </trkpt>
      <trkpt lat="46.32316" lon="4.68606">
        <ele>280</ele>
        <time>2014-09-28T07:29:03Z</time>
      </trkpt>
      <trkpt lat="46.32312" lon="4.68604">
        <ele>280</ele>
        <time>2014-09-28T07:29:04Z</time>
      </trkpt>
      <trkpt lat="46.32305" lon="4.68599">
        <ele>280</ele>
        <time>2014-09-28T07:29:06Z</time>
      </trkpt>
      <trkpt lat="46.32301" lon="4.68596">
        <ele>280</ele>
        <time>2014-09-28T07:29:07Z</time>
      </trkpt>
      <trkpt lat="46.32293" lon="4.6859">
        <ele>281</ele>
        <time>2014-09-28T07:29:09Z</time>
      </trkpt>
      <trkpt lat="46.32289" lon="4.68588">
        <ele>281</ele>
        <time>2014-09-28T07:29:10Z</time>
      </trkpt>
      <trkpt lat="46.32281" lon="4.68583">
        <ele>280</ele>
        <time>2014-09-28T07:29:12Z</time>
      </trkpt>
      <trkpt lat="46.32276" lon="4.6858">
        <ele>280</ele>
        <time>2014-09-28T07:29:13Z</time>
      </trkpt>
      <trkpt lat="46.32269" lon="4.68574">
        <ele>280</ele>
        <time>2014-09-28T07:29:15Z</time>
      </trkpt>
      <trkpt lat="46.32266" lon="4.68571">
        <ele>281</ele>
        <time>2014-09-28T07:29:16Z</time>
      </trkpt>
      <trkpt lat="46.32259" lon="4.68566">
        <ele>281</ele>
        <time>2014-09-28T07:29:18Z</time>
      </trkpt>
      <trkpt lat="46.32255" lon="4.68564">
        <ele>281</ele>
        <time>2014-09-28T07:29:19Z</time>
      </trkpt>
      <trkpt lat="46.32249" lon="4.68559">
        <ele>284</ele>
        <time>2014-09-28T07:29:21Z</time>
      </trkpt>
      <trkpt lat="46.32245" lon="4.68556">
        <ele>284</ele>
        <time>2014-09-28T07:29:22Z</time>
      </trkpt>
      <trkpt lat="46.32238" lon="4.68552">
        <ele>284</ele>
        <time>2014-09-28T07:29:24Z</time>
      </trkpt>
      <trkpt lat="46.32235" lon="4.68549">
        <ele>284</ele>
        <time>2014-09-28T07:29:25Z</time>
      </trkpt>
      <trkpt lat="46.32229" lon="4.68546">
        <ele>284</ele>
        <time>2014-09-28T07:29:27Z</time>
      </trkpt>
      <trkpt lat="46.32226" lon="4.68545">
        <ele>284</ele>
        <time>2014-09-28T07:29:28Z</time>
      </trkpt>
      <trkpt lat="46.32219" lon="4.68543">
        <ele>284</ele>
        <time>2014-09-28T07:29:30Z</time>
      </trkpt>
      <trkpt lat="46.32216" lon="4.68543">
        <ele>284</ele>
        <time>2014-09-28T07:29:31Z</time>
      </trkpt>
      <trkpt lat="46.32209" lon="4.68543">
        <ele>284</ele>
        <time>2014-09-28T07:29:33Z</time>
      </trkpt>
      <trkpt lat="46.32206" lon="4.68542">
        <ele>285</ele>
        <time>2014-09-28T07:29:34Z</time>
      </trkpt>
      <trkpt lat="46.322" lon="4.6854">
        <ele>285</ele>
        <time>2014-09-28T07:29:36Z</time>
      </trkpt>
      <trkpt lat="46.32197" lon="4.68539">
        <ele>285</ele>
        <time>2014-09-28T07:29:37Z</time>
      </trkpt>
      <trkpt lat="46.3219" lon="4.68537">
        <ele>285</ele>
        <time>2014-09-28T07:29:39Z</time>
      </trkpt>
      <trkpt lat="46.32187" lon="4.68536">
        <ele>285</ele>
        <time>2014-09-28T07:29:40Z</time>
      </trkpt>
      <trkpt lat="46.32181" lon="4.68533">
        <ele>285</ele>
        <time>2014-09-28T07:29:42Z</time>
      </trkpt>
      <trkpt lat="46.32178" lon="4.68532">
        <ele>285</ele>
        <time>2014-09-28T07:29:43Z</time>
      </trkpt>
      <trkpt lat="46.32171" lon="4.6853">
        <ele>285</ele>
        <time>2014-09-28T07:29:45Z</time>
      </trkpt>
      <trkpt lat="46.32168" lon="4.68529">
        <ele>285</ele>
        <time>2014-09-28T07:29:46Z</time>
      </trkpt>
      <trkpt lat="46.32162" lon="4.68526">
        <ele>289</ele>
        <time>2014-09-28T07:29:48Z</time>
      </trkpt>
      <trkpt lat="46.32158" lon="4.68525">
        <ele>289</ele>
        <time>2014-09-28T07:29:49Z</time>
      </trkpt>
      <trkpt lat="46.32152" lon="4.68522">
        <ele>289</ele>
        <time>2014-09-28T07:29:51Z</time>
      </trkpt>
      <trkpt lat="46.32148" lon="4.68521">
        <ele>289</ele>
        <time>2014-09-28T07:29:52Z</time>
      </trkpt>
      <trkpt lat="46.32142" lon="4.68519">
        <ele>289</ele>
        <time>2014-09-28T07:29:54Z</time>
      </trkpt>
      <trkpt lat="46.32138" lon="4.68517">
        <ele>289</ele>
        <time>2014-09-28T07:29:55Z</time>
      </trkpt>
      <trkpt lat="46.32132" lon="4.68515">
        <ele>290</ele>
        <time>2014-09-28T07:29:57Z</time>
      </trkpt>
      <trkpt lat="46.32129" lon="4.68513">
        <ele>290</ele>
        <time>2014-09-28T07:29:58Z</time>
      </trkpt>
      <trkpt lat="46.32122" lon="4.6851">
        <ele>290</ele>
        <time>2014-09-28T07:30:00Z</time>
      </trkpt>
      <trkpt lat="46.32119" lon="4.68509">
        <ele>290</ele>
        <time>2014-09-28T07:30:01Z</time>
      </trkpt>
      <trkpt lat="46.32113" lon="4.68506">
        <ele>291</ele>
        <time>2014-09-28T07:30:03Z</time>
      </trkpt>
      <trkpt lat="46.3211" lon="4.68504">
        <ele>291</ele>
        <time>2014-09-28T07:30:04Z</time>
      </trkpt>
      <trkpt lat="46.32104" lon="4.68501">
        <ele>291</ele>
        <time>2014-09-28T07:30:06Z</time>
      </trkpt>
      <trkpt lat="46.32101" lon="4.68499">
        <ele>289</ele>
        <time>2014-09-28T07:30:07Z</time>
      </trkpt>
      <trkpt lat="46.32093" lon="4.68494">
        <ele>290</ele>
        <time>2014-09-28T07:30:10Z</time>
      </trkpt>
      <trkpt lat="46.32091" lon="4.68492">
        <ele>290</ele>
        <time>2014-09-28T07:30:11Z</time>
      </trkpt>
      <trkpt lat="46.32083" lon="4.68485">
        <ele>292</ele>
        <time>2014-09-28T07:30:14Z</time>
      </trkpt>
      <trkpt lat="46.3208" lon="4.68484">
        <ele>292</ele>
        <time>2014-09-28T07:30:15Z</time>
      </trkpt>
      <trkpt lat="46.32074" lon="4.68481">
        <ele>292</ele>
        <time>2014-09-28T07:30:17Z</time>
      </trkpt>
      <trkpt lat="46.32071" lon="4.6848">
        <ele>292</ele>
        <time>2014-09-28T07:30:18Z</time>
      </trkpt>
      <trkpt lat="46.32062" lon="4.6848">
        <ele>293</ele>
        <time>2014-09-28T07:30:21Z</time>
      </trkpt>
      <trkpt lat="46.32059" lon="4.6848">
        <ele>293</ele>
        <time>2014-09-28T07:30:22Z</time>
      </trkpt>
      <trkpt lat="46.32053" lon="4.68478">
        <ele>293</ele>
        <time>2014-09-28T07:30:24Z</time>
      </trkpt>
      <trkpt lat="46.3205" lon="4.68476">
        <ele>293</ele>
        <time>2014-09-28T07:30:25Z</time>
      </trkpt>
      <trkpt lat="46.32044" lon="4.68473">
        <ele>293</ele>
        <time>2014-09-28T07:30:27Z</time>
      </trkpt>
      <trkpt lat="46.32041" lon="4.68471">
        <ele>293</ele>
        <time>2014-09-28T07:30:28Z</time>
      </trkpt>
      <trkpt lat="46.32035" lon="4.68468">
        <ele>294</ele>
        <time>2014-09-28T07:30:30Z</time>
      </trkpt>
      <trkpt lat="46.32032" lon="4.68466">
        <ele>294</ele>
        <time>2014-09-28T07:30:31Z</time>
      </trkpt>
      <trkpt lat="46.32026" lon="4.68463">
        <ele>294</ele>
        <time>2014-09-28T07:30:33Z</time>
      </trkpt>
      <trkpt lat="46.32023" lon="4.68461">
        <ele>294</ele>
        <time>2014-09-28T07:30:34Z</time>
      </trkpt>
      <trkpt lat="46.32016" lon="4.68456">
        <ele>294</ele>
        <time>2014-09-28T07:30:36Z</time>
      </trkpt>
      <trkpt lat="46.32013" lon="4.68454">
        <ele>294</ele>
        <time>2014-09-28T07:30:37Z</time>
      </trkpt>
      <trkpt lat="46.32008" lon="4.68448">
        <ele>294</ele>
        <time>2014-09-28T07:30:39Z</time>
      </trkpt>
      <trkpt lat="46.32005" lon="4.68445">
        <ele>294</ele>
        <time>2014-09-28T07:30:40Z</time>
      </trkpt>
      <trkpt lat="46.32" lon="4.68439">
        <ele>297</ele>
        <time>2014-09-28T07:30:42Z</time>
      </trkpt>
      <trkpt lat="46.31997" lon="4.68436">
        <ele>297</ele>
        <time>2014-09-28T07:30:43Z</time>
      </trkpt>
      <trkpt lat="46.31991" lon="4.68431">
        <ele>297</ele>
        <time>2014-09-28T07:30:45Z</time>
      </trkpt>
      <trkpt lat="46.31988" lon="4.68429">
        <ele>297</ele>
        <time>2014-09-28T07:30:46Z</time>
      </trkpt>
      <trkpt lat="46.31981" lon="4.68426">
        <ele>297</ele>
        <time>2014-09-28T07:30:48Z</time>
      </trkpt>
      <trkpt lat="46.31977" lon="4.68424">
        <ele>298</ele>
        <time>2014-09-28T07:30:49Z</time>
      </trkpt>
      <trkpt lat="46.3197" lon="4.68421">
        <ele>298</ele>
        <time>2014-09-28T07:30:51Z</time>
      </trkpt>
      <trkpt lat="46.31966" lon="4.68419">
        <ele>298</ele>
        <time>2014-09-28T07:30:52Z</time>
      </trkpt>
      <trkpt lat="46.31959" lon="4.68415">
        <ele>295</ele>
        <time>2014-09-28T07:30:54Z</time>
      </trkpt>
      <trkpt lat="46.31955" lon="4.68414">
        <ele>295</ele>
        <time>2014-09-28T07:30:55Z</time>
      </trkpt>
      <trkpt lat="46.31948" lon="4.68412">
        <ele>296</ele>
        <time>2014-09-28T07:30:57Z</time>
      </trkpt>
      <trkpt lat="46.31944" lon="4.68411">
        <ele>296</ele>
        <time>2014-09-28T07:30:58Z</time>
      </trkpt>
      <trkpt lat="46.31937" lon="4.68409">
        <ele>297</ele>
        <time>2014-09-28T07:31:00Z</time>
      </trkpt>
      <trkpt lat="46.31933" lon="4.68408">
        <ele>297</ele>
        <time>2014-09-28T07:31:01Z</time>
      </trkpt>
      <trkpt lat="46.31925" lon="4.68408">
        <ele>298</ele>
        <time>2014-09-28T07:31:14Z</time>
      </trkpt>
      <trkpt lat="46.31924" lon="4.68408">
        <ele>298</ele>
        <time>2014-09-28T07:31:15Z</time>
      </trkpt>
      <trkpt lat="46.31917" lon="4.68406">
        <ele>299</ele>
        <time>2014-09-28T07:31:20Z</time>
      </trkpt>
      <trkpt lat="46.31914" lon="4.68405">
        <ele>300</ele>
        <time>2014-09-28T07:31:21Z</time>
      </trkpt>
      <trkpt lat="46.31907" lon="4.68404">
        <ele>300</ele>
        <time>2014-09-28T07:31:23Z</time>
      </trkpt>
      <trkpt lat="46.31904" lon="4.68404">
        <ele>300</ele>
        <time>2014-09-28T07:31:24Z</time>
      </trkpt>
      <trkpt lat="46.31898" lon="4.68403">
        <ele>300</ele>
        <time>2014-09-28T07:31:26Z</time>
      </trkpt>
      <trkpt lat="46.31894" lon="4.68403">
        <ele>300</ele>
        <time>2014-09-28T07:31:27Z</time>
      </trkpt>
      <trkpt lat="46.31888" lon="4.68403">
        <ele>300</ele>
        <time>2014-09-28T07:31:29Z</time>
      </trkpt>
      <trkpt lat="46.31884" lon="4.68403">
        <ele>300</ele>
        <time>2014-09-28T07:31:30Z</time>
      </trkpt>
      <trkpt lat="46.31878" lon="4.68402">
        <ele>300</ele>
        <time>2014-09-28T07:31:32Z</time>
      </trkpt>
      <trkpt lat="46.31875" lon="4.68401">
        <ele>300</ele>
        <time>2014-09-28T07:31:33Z</time>
      </trkpt>
      <trkpt lat="46.31868" lon="4.68401">
        <ele>301</ele>
        <time>2014-09-28T07:31:35Z</time>
      </trkpt>
      <trkpt lat="46.31864" lon="4.68401">
        <ele>301</ele>
        <time>2014-09-28T07:31:36Z</time>
      </trkpt>
      <trkpt lat="46.31857" lon="4.684">
        <ele>301</ele>
        <time>2014-09-28T07:31:38Z</time>
      </trkpt>
      <trkpt lat="46.31853" lon="4.684">
        <ele>301</ele>
        <time>2014-09-28T07:31:39Z</time>
      </trkpt>
      <trkpt lat="46.31846" lon="4.684">
        <ele>302</ele>
        <time>2014-09-28T07:31:41Z</time>
      </trkpt>
      <trkpt lat="46.31843" lon="4.68399">
        <ele>302</ele>
        <time>2014-09-28T07:31:42Z</time>
      </trkpt>
      <trkpt lat="46.31836" lon="4.68399">
        <ele>302</ele>
        <time>2014-09-28T07:31:44Z</time>
      </trkpt>
      <trkpt lat="46.31833" lon="4.68399">
        <ele>304</ele>
        <time>2014-09-28T07:31:45Z</time>
      </trkpt>
      <trkpt lat="46.31826" lon="4.68398">
        <ele>303</ele>
        <time>2014-09-28T07:31:47Z</time>
      </trkpt>
      <trkpt lat="46.31823" lon="4.68397">
        <ele>303</ele>
        <time>2014-09-28T07:31:48Z</time>
      </trkpt>
      <trkpt lat="46.31816" lon="4.68396">
        <ele>303</ele>
        <time>2014-09-28T07:31:50Z</time>
      </trkpt>
      <trkpt lat="46.31813" lon="4.68396">
        <ele>303</ele>
        <time>2014-09-28T07:31:51Z</time>
      </trkpt>
      <trkpt lat="46.31806" lon="4.68395">
        <ele>303</ele>
        <time>2014-09-28T07:31:53Z</time>
      </trkpt>
      <trkpt lat="46.31802" lon="4.68394">
        <ele>303</ele>
        <time>2014-09-28T07:31:54Z</time>
      </trkpt>
      <trkpt lat="46.31794" lon="4.68393">
        <ele>303</ele>
        <time>2014-09-28T07:31:56Z</time>
      </trkpt>
      <trkpt lat="46.31789" lon="4.68392">
        <ele>303</ele>
        <time>2014-09-28T07:31:57Z</time>
      </trkpt>
      <trkpt lat="46.3178" lon="4.68391">
        <ele>304</ele>
        <time>2014-09-28T07:31:59Z</time>
      </trkpt>
      <trkpt lat="46.31777" lon="4.6839">
        <ele>304</ele>
        <time>2014-09-28T07:32:00Z</time>
      </trkpt>
      <trkpt lat="46.31768" lon="4.6839">
        <ele>304</ele>
        <time>2014-09-28T07:32:02Z</time>
      </trkpt>
      <trkpt lat="46.31764" lon="4.68388">
        <ele>304</ele>
        <time>2014-09-28T07:32:03Z</time>
      </trkpt>
      <trkpt lat="46.31756" lon="4.68383">
        <ele>304</ele>
        <time>2014-09-28T07:32:05Z</time>
      </trkpt>
      <trkpt lat="46.31752" lon="4.68382">
        <ele>304</ele>
        <time>2014-09-28T07:32:06Z</time>
      </trkpt>
      <trkpt lat="46.31745" lon="4.68379">
        <ele>305</ele>
        <time>2014-09-28T07:32:08Z</time>
      </trkpt>
      <trkpt lat="46.3174" lon="4.68379">
        <ele>305</ele>
        <time>2014-09-28T07:32:09Z</time>
      </trkpt>
      <trkpt lat="46.31735" lon="4.68378">
        <ele>305</ele>
        <time>2014-09-28T07:32:10Z</time>
      </trkpt>
      <trkpt lat="46.3173" lon="4.68377">
        <ele>305</ele>
        <time>2014-09-28T07:32:11Z</time>
      </trkpt>
      <trkpt lat="46.31725" lon="4.68376">
        <ele>305</ele>
        <time>2014-09-28T07:32:12Z</time>
      </trkpt>
      <trkpt lat="46.31719" lon="4.68374">
        <ele>305</ele>
        <time>2014-09-28T07:32:13Z</time>
      </trkpt>
      <trkpt lat="46.31713" lon="4.68373">
        <ele>305</ele>
        <time>2014-09-28T07:32:14Z</time>
      </trkpt>
      <trkpt lat="46.31707" lon="4.68371">
        <ele>305</ele>
        <time>2014-09-28T07:32:15Z</time>
      </trkpt>
      <trkpt lat="46.31702" lon="4.6837">
        <ele>305</ele>
        <time>2014-09-28T07:32:16Z</time>
      </trkpt>
      <trkpt lat="46.31697" lon="4.68369">
        <ele>305</ele>
        <time>2014-09-28T07:32:17Z</time>
      </trkpt>
      <trkpt lat="46.31692" lon="4.68369">
        <ele>306</ele>
        <time>2014-09-28T07:32:18Z</time>
      </trkpt>
      <trkpt lat="46.31688" lon="4.68367">
        <ele>305</ele>
        <time>2014-09-28T07:32:19Z</time>
      </trkpt>
      <trkpt lat="46.31679" lon="4.68366">
        <ele>306</ele>
        <time>2014-09-28T07:32:21Z</time>
      </trkpt>
      <trkpt lat="46.31675" lon="4.68365">
        <ele>305</ele>
        <time>2014-09-28T07:32:22Z</time>
      </trkpt>
      <trkpt lat="46.31668" lon="4.68363">
        <ele>305</ele>
        <time>2014-09-28T07:32:24Z</time>
      </trkpt>
      <trkpt lat="46.31664" lon="4.68362">
        <ele>307</ele>
        <time>2014-09-28T07:32:25Z</time>
      </trkpt>
      <trkpt lat="46.31657" lon="4.6836">
        <ele>307</ele>
        <time>2014-09-28T07:32:27Z</time>
      </trkpt>
      <trkpt lat="46.31653" lon="4.68361">
        <ele>307</ele>
        <time>2014-09-28T07:32:28Z</time>
      </trkpt>
      <trkpt lat="46.31647" lon="4.68365">
        <ele>307</ele>
        <time>2014-09-28T07:32:30Z</time>
      </trkpt>
      <trkpt lat="46.31644" lon="4.68367">
        <ele>307</ele>
        <time>2014-09-28T07:32:31Z</time>
      </trkpt>
      <trkpt lat="46.31638" lon="4.68373">
        <ele>308</ele>
        <time>2014-09-28T07:32:33Z</time>
      </trkpt>
      <trkpt lat="46.31635" lon="4.68375">
        <ele>308</ele>
        <time>2014-09-28T07:32:34Z</time>
      </trkpt>
      <trkpt lat="46.31629" lon="4.6838">
        <ele>308</ele>
        <time>2014-09-28T07:32:36Z</time>
      </trkpt>
      <trkpt lat="46.31626" lon="4.68383">
        <ele>308</ele>
        <time>2014-09-28T07:32:37Z</time>
      </trkpt>
      <trkpt lat="46.31621" lon="4.68387">
        <ele>308</ele>
        <time>2014-09-28T07:32:39Z</time>
      </trkpt>
      <trkpt lat="46.31619" lon="4.6839">
        <ele>309</ele>
        <time>2014-09-28T07:32:40Z</time>
      </trkpt>
      <trkpt lat="46.31612" lon="4.68395">
        <ele>309</ele>
        <time>2014-09-28T07:32:42Z</time>
      </trkpt>
      <trkpt lat="46.31609" lon="4.68397">
        <ele>309</ele>
        <time>2014-09-28T07:32:43Z</time>
      </trkpt>
      <trkpt lat="46.31602" lon="4.68401">
        <ele>309</ele>
        <time>2014-09-28T07:32:45Z</time>
      </trkpt>
      <trkpt lat="46.31599" lon="4.68403">
        <ele>309</ele>
        <time>2014-09-28T07:32:46Z</time>
      </trkpt>
      <trkpt lat="46.31593" lon="4.68408">
        <ele>310</ele>
        <time>2014-09-28T07:32:48Z</time>
      </trkpt>
      <trkpt lat="46.31589" lon="4.6841">
        <ele>310</ele>
        <time>2014-09-28T07:32:49Z</time>
      </trkpt>
      <trkpt lat="46.31582" lon="4.68414">
        <ele>311</ele>
        <time>2014-09-28T07:32:51Z</time>
      </trkpt>
      <trkpt lat="46.31578" lon="4.68416">
        <ele>311</ele>
        <time>2014-09-28T07:32:52Z</time>
      </trkpt>
      <trkpt lat="46.31571" lon="4.6842">
        <ele>313</ele>
        <time>2014-09-28T07:32:54Z</time>
      </trkpt>
      <trkpt lat="46.31567" lon="4.68422">
        <ele>313</ele>
        <time>2014-09-28T07:32:55Z</time>
      </trkpt>
      <trkpt lat="46.31559" lon="4.68426">
        <ele>314</ele>
        <time>2014-09-28T07:32:58Z</time>
      </trkpt>
      <trkpt lat="46.31557" lon="4.68428">
        <ele>314</ele>
        <time>2014-09-28T07:32:59Z</time>
      </trkpt>
      <trkpt lat="46.31555" lon="4.68441">
        <ele>315</ele>
        <time>2014-09-28T07:33:02Z</time>
      </trkpt>
      <trkpt lat="46.31556" lon="4.68447">
        <ele>315</ele>
        <time>2014-09-28T07:33:03Z</time>
      </trkpt>
      <trkpt lat="46.31556" lon="4.68458">
        <ele>315</ele>
        <time>2014-09-28T07:33:05Z</time>
      </trkpt>
      <trkpt lat="46.31556" lon="4.68463">
        <ele>315</ele>
        <time>2014-09-28T07:33:06Z</time>
      </trkpt>
      <trkpt lat="46.31555" lon="4.68474">
        <ele>316</ele>
        <time>2014-09-28T07:33:08Z</time>
      </trkpt>
      <trkpt lat="46.31555" lon="4.6848">
        <ele>316</ele>
        <time>2014-09-28T07:33:09Z</time>
      </trkpt>
      <trkpt lat="46.31555" lon="4.6849">
        <ele>316</ele>
        <time>2014-09-28T07:33:11Z</time>
      </trkpt>
      <trkpt lat="46.31555" lon="4.68496">
        <ele>316</ele>
        <time>2014-09-28T07:33:12Z</time>
      </trkpt>
      <trkpt lat="46.31554" lon="4.68506">
        <ele>319</ele>
        <time>2014-09-28T07:33:14Z</time>
      </trkpt>
      <trkpt lat="46.31554" lon="4.68511">
        <ele>319</ele>
        <time>2014-09-28T07:33:15Z</time>
      </trkpt>
      <trkpt lat="46.31555" lon="4.68521">
        <ele>319</ele>
        <time>2014-09-28T07:33:17Z</time>
      </trkpt>
      <trkpt lat="46.31555" lon="4.68525">
        <ele>320</ele>
        <time>2014-09-28T07:33:18Z</time>
      </trkpt>
      <trkpt lat="46.31554" lon="4.68535">
        <ele>320</ele>
        <time>2014-09-28T07:33:20Z</time>
      </trkpt>
      <trkpt lat="46.31554" lon="4.6854">
        <ele>320</ele>
        <time>2014-09-28T07:33:21Z</time>
      </trkpt>
      <trkpt lat="46.31553" lon="4.68551">
        <ele>320</ele>
        <time>2014-09-28T07:33:23Z</time>
      </trkpt>
      <trkpt lat="46.31553" lon="4.68556">
        <ele>320</ele>
        <time>2014-09-28T07:33:24Z</time>
      </trkpt>
      <trkpt lat="46.31552" lon="4.68566">
        <ele>321</ele>
        <time>2014-09-28T07:33:26Z</time>
      </trkpt>
      <trkpt lat="46.31552" lon="4.68571">
        <ele>321</ele>
        <time>2014-09-28T07:33:27Z</time>
      </trkpt>
      <trkpt lat="46.31549" lon="4.68581">
        <ele>321</ele>
        <time>2014-09-28T07:33:29Z</time>
      </trkpt>
      <trkpt lat="46.31548" lon="4.68587">
        <ele>323</ele>
        <time>2014-09-28T07:33:30Z</time>
      </trkpt>
      <trkpt lat="46.31546" lon="4.68593">
        <ele>323</ele>
        <time>2014-09-28T07:33:31Z</time>
      </trkpt>
      <trkpt lat="46.31544" lon="4.686">
        <ele>324</ele>
        <time>2014-09-28T07:33:32Z</time>
      </trkpt>
      <trkpt lat="46.31542" lon="4.68608">
        <ele>324</ele>
        <time>2014-09-28T07:33:33Z</time>
      </trkpt>
      <trkpt lat="46.31542" lon="4.68613">
        <ele>324</ele>
        <time>2014-09-28T07:33:34Z</time>
      </trkpt>
      <trkpt lat="46.31545" lon="4.68624">
        <ele>324</ele>
        <time>2014-09-28T07:33:36Z</time>
      </trkpt>
      <trkpt lat="46.31546" lon="4.68628">
        <ele>324</ele>
        <time>2014-09-28T07:33:37Z</time>
      </trkpt>
      <trkpt lat="46.3155" lon="4.68639">
        <ele>324</ele>
        <time>2014-09-28T07:33:40Z</time>
      </trkpt>
      <trkpt lat="46.3155" lon="4.68644">
        <ele>324</ele>
        <time>2014-09-28T07:33:41Z</time>
      </trkpt>
      <trkpt lat="46.3155" lon="4.68652">
        <ele>324</ele>
        <time>2014-09-28T07:33:43Z</time>
      </trkpt>
      <trkpt lat="46.31551" lon="4.68657">
        <ele>324</ele>
        <time>2014-09-28T07:33:44Z</time>
      </trkpt>
      <trkpt lat="46.31552" lon="4.68666">
        <ele>325</ele>
        <time>2014-09-28T07:33:46Z</time>
      </trkpt>
      <trkpt lat="46.31552" lon="4.6867">
        <ele>327</ele>
        <time>2014-09-28T07:33:47Z</time>
      </trkpt>
      <trkpt lat="46.31553" lon="4.6868">
        <ele>327</ele>
        <time>2014-09-28T07:33:49Z</time>
      </trkpt>
      <trkpt lat="46.31554" lon="4.68685">
        <ele>327</ele>
        <time>2014-09-28T07:33:50Z</time>
      </trkpt>
      <trkpt lat="46.31555" lon="4.68695">
        <ele>328</ele>
        <time>2014-09-28T07:33:52Z</time>
      </trkpt>
      <trkpt lat="46.31555" lon="4.687">
        <ele>328</ele>
        <time>2014-09-28T07:33:53Z</time>
      </trkpt>
      <trkpt lat="46.31556" lon="4.68709">
        <ele>328</ele>
        <time>2014-09-28T07:33:55Z</time>
      </trkpt>
      <trkpt lat="46.31557" lon="4.68714">
        <ele>328</ele>
        <time>2014-09-28T07:33:56Z</time>
      </trkpt>
      <trkpt lat="46.31559" lon="4.68723">
        <ele>329</ele>
        <time>2014-09-28T07:33:58Z</time>
      </trkpt>
      <trkpt lat="46.3156" lon="4.68728">
        <ele>329</ele>
        <time>2014-09-28T07:33:59Z</time>
      </trkpt>
      <trkpt lat="46.3156" lon="4.68735">
        <ele>329</ele>
        <time>2014-09-28T07:34:00Z</time>
      </trkpt>
      <trkpt lat="46.31561" lon="4.68741">
        <ele>329</ele>
        <time>2014-09-28T07:34:01Z</time>
      </trkpt>
      <trkpt lat="46.31563" lon="4.68753">
        <ele>333</ele>
        <time>2014-09-28T07:34:03Z</time>
      </trkpt>
      <trkpt lat="46.31564" lon="4.68759">
        <ele>333</ele>
        <time>2014-09-28T07:34:04Z</time>
      </trkpt>
      <trkpt lat="46.31565" lon="4.6877">
        <ele>333</ele>
        <time>2014-09-28T07:34:06Z</time>
      </trkpt>
      <trkpt lat="46.31566" lon="4.68775">
        <ele>333</ele>
        <time>2014-09-28T07:34:07Z</time>
      </trkpt>
      <trkpt lat="46.31567" lon="4.68786">
        <ele>334</ele>
        <time>2014-09-28T07:34:09Z</time>
      </trkpt>
      <trkpt lat="46.31568" lon="4.68791">
        <ele>334</ele>
        <time>2014-09-28T07:34:10Z</time>
      </trkpt>
      <trkpt lat="46.31571" lon="4.68803">
        <ele>335</ele>
        <time>2014-09-28T07:34:13Z</time>
      </trkpt>
      <trkpt lat="46.31573" lon="4.68806">
        <ele>335</ele>
        <time>2014-09-28T07:34:14Z</time>
      </trkpt>
      <trkpt lat="46.31578" lon="4.68814">
        <ele>335</ele>
        <time>2014-09-28T07:34:17Z</time>
      </trkpt>
      <trkpt lat="46.31579" lon="4.68818">
        <ele>336</ele>
        <time>2014-09-28T07:34:18Z</time>
      </trkpt>
      <trkpt lat="46.31574" lon="4.68827">
        <ele>336</ele>
        <time>2014-09-28T07:34:22Z</time>
      </trkpt>
      <trkpt lat="46.31571" lon="4.68826">
        <ele>336</ele>
        <time>2014-09-28T07:34:23Z</time>
      </trkpt>
      <trkpt lat="46.31564" lon="4.68825">
        <ele>335</ele>
        <time>2014-09-28T07:34:26Z</time>
      </trkpt>
      <trkpt lat="46.31562" lon="4.68825">
        <ele>335</ele>
        <time>2014-09-28T07:34:27Z</time>
      </trkpt>
      <trkpt lat="46.31554" lon="4.68824">
        <ele>335</ele>
        <time>2014-09-28T07:34:31Z</time>
      </trkpt>
      <trkpt lat="46.31551" lon="4.68825">
        <ele>335</ele>
        <time>2014-09-28T07:34:32Z</time>
      </trkpt>
      <trkpt lat="46.31545" lon="4.68828">
        <ele>335</ele>
        <time>2014-09-28T07:34:35Z</time>
      </trkpt>
      <trkpt lat="46.31543" lon="4.6883">
        <ele>335</ele>
        <time>2014-09-28T07:34:36Z</time>
      </trkpt>
      <trkpt lat="46.31537" lon="4.68838">
        <ele>339</ele>
        <time>2014-09-28T07:34:39Z</time>
      </trkpt>
      <trkpt lat="46.31535" lon="4.68841">
        <ele>339</ele>
        <time>2014-09-28T07:34:40Z</time>
      </trkpt>
      <trkpt lat="46.3153" lon="4.68851">
        <ele>340</ele>
        <time>2014-09-28T07:34:43Z</time>
      </trkpt>
      <trkpt lat="46.31528" lon="4.68855">
        <ele>340</ele>
        <time>2014-09-28T07:34:44Z</time>
      </trkpt>
      <trkpt lat="46.31523" lon="4.68864">
        <ele>340</ele>
        <time>2014-09-28T07:34:47Z</time>
      </trkpt>
      <trkpt lat="46.31521" lon="4.68867">
        <ele>340</ele>
        <time>2014-09-28T07:34:48Z</time>
      </trkpt>
      <trkpt lat="46.31513" lon="4.6887">
        <ele>340</ele>
        <time>2014-09-28T07:34:50Z</time>
      </trkpt>
      <trkpt lat="46.31509" lon="4.68869">
        <ele>340</ele>
        <time>2014-09-28T07:34:51Z</time>
      </trkpt>
      <trkpt lat="46.315" lon="4.68867">
        <ele>340</ele>
        <time>2014-09-28T07:34:53Z</time>
      </trkpt>
      <trkpt lat="46.31494" lon="4.68866">
        <ele>341</ele>
        <time>2014-09-28T07:34:54Z</time>
      </trkpt>
      <trkpt lat="46.3149" lon="4.68865">
        <ele>341</ele>
        <time>2014-09-28T07:34:55Z</time>
      </trkpt>
      <trkpt lat="46.31485" lon="4.68866">
        <ele>341</ele>
        <time>2014-09-28T07:34:56Z</time>
      </trkpt>
      <trkpt lat="46.31477" lon="4.68865">
        <ele>341</ele>
        <time>2014-09-28T07:34:58Z</time>
      </trkpt>
      <trkpt lat="46.31474" lon="4.68866">
        <ele>341</ele>
        <time>2014-09-28T07:34:59Z</time>
      </trkpt>
      <trkpt lat="46.31467" lon="4.68863">
        <ele>341</ele>
        <time>2014-09-28T07:35:01Z</time>
      </trkpt>
      <trkpt lat="46.31463" lon="4.68862">
        <ele>341</ele>
        <time>2014-09-28T07:35:02Z</time>
      </trkpt>
      <trkpt lat="46.31459" lon="4.6886">
        <ele>341</ele>
        <time>2014-09-28T07:35:03Z</time>
      </trkpt>
      <trkpt lat="46.31454" lon="4.68858">
        <ele>341</ele>
        <time>2014-09-28T07:35:04Z</time>
      </trkpt>
      <trkpt lat="46.31449" lon="4.68856">
        <ele>341</ele>
        <time>2014-09-28T07:35:05Z</time>
      </trkpt>
      <trkpt lat="46.31445" lon="4.68853">
        <ele>341</ele>
        <time>2014-09-28T07:35:06Z</time>
      </trkpt>
      <trkpt lat="46.3144" lon="4.6885">
        <ele>341</ele>
        <time>2014-09-28T07:35:07Z</time>
      </trkpt>
      <trkpt lat="46.31436" lon="4.68848">
        <ele>340</ele>
        <time>2014-09-28T07:35:08Z</time>
      </trkpt>
      <trkpt lat="46.31432" lon="4.68845">
        <ele>340</ele>
        <time>2014-09-28T07:35:09Z</time>
      </trkpt>
      <trkpt lat="46.31427" lon="4.68842">
        <ele>340</ele>
        <time>2014-09-28T07:35:10Z</time>
      </trkpt>
      <trkpt lat="46.31423" lon="4.68838">
        <ele>340</ele>
        <time>2014-09-28T07:35:11Z</time>
      </trkpt>
      <trkpt lat="46.31418" lon="4.68835">
        <ele>339</ele>
        <time>2014-09-28T07:35:12Z</time>
      </trkpt>
      <trkpt lat="46.31413" lon="4.68833">
        <ele>339</ele>
        <time>2014-09-28T07:35:13Z</time>
      </trkpt>
      <trkpt lat="46.31408" lon="4.6883">
        <ele>339</ele>
        <time>2014-09-28T07:35:14Z</time>
      </trkpt>
      <trkpt lat="46.31403" lon="4.68827">
        <ele>339</ele>
        <time>2014-09-28T07:35:15Z</time>
      </trkpt>
      <trkpt lat="46.31399" lon="4.68824">
        <ele>339</ele>
        <time>2014-09-28T07:35:16Z</time>
      </trkpt>
      <trkpt lat="46.31393" lon="4.68821">
        <ele>339</ele>
        <time>2014-09-28T07:35:17Z</time>
      </trkpt>
      <trkpt lat="46.31388" lon="4.68817">
        <ele>339</ele>
        <time>2014-09-28T07:35:18Z</time>
      </trkpt>
      <trkpt lat="46.31383" lon="4.68813">
        <ele>339</ele>
        <time>2014-09-28T07:35:19Z</time>
      </trkpt>
      <trkpt lat="46.3138" lon="4.68809">
        <ele>339</ele>
        <time>2014-09-28T07:35:20Z</time>
      </trkpt>
      <trkpt lat="46.31376" lon="4.68804">
        <ele>339</ele>
        <time>2014-09-28T07:35:21Z</time>
      </trkpt>
      <trkpt lat="46.31373" lon="4.688">
        <ele>339</ele>
        <time>2014-09-28T07:35:22Z</time>
      </trkpt>
      <trkpt lat="46.31369" lon="4.68796">
        <ele>339</ele>
        <time>2014-09-28T07:35:23Z</time>
      </trkpt>
      <trkpt lat="46.31366" lon="4.68791">
        <ele>339</ele>
        <time>2014-09-28T07:35:24Z</time>
      </trkpt>
      <trkpt lat="46.31364" lon="4.68786">
        <ele>339</ele>
        <time>2014-09-28T07:35:25Z</time>
      </trkpt>
      <trkpt lat="46.31361" lon="4.6878">
        <ele>339</ele>
        <time>2014-09-28T07:35:26Z</time>
      </trkpt>
      <trkpt lat="46.31359" lon="4.68774">
        <ele>339</ele>
        <time>2014-09-28T07:35:27Z</time>
      </trkpt>
      <trkpt lat="46.31356" lon="4.68768">
        <ele>339</ele>
        <time>2014-09-28T07:35:28Z</time>
      </trkpt>
      <trkpt lat="46.31355" lon="4.68761">
        <ele>339</ele>
        <time>2014-09-28T07:35:29Z</time>
      </trkpt>
      <trkpt lat="46.31354" lon="4.68755">
        <ele>339</ele>
        <time>2014-09-28T07:35:30Z</time>
      </trkpt>
      <trkpt lat="46.31355" lon="4.68747">
        <ele>337</ele>
        <time>2014-09-28T07:35:31Z</time>
      </trkpt>
      <trkpt lat="46.31356" lon="4.68739">
        <ele>337</ele>
        <time>2014-09-28T07:35:32Z</time>
      </trkpt>
      <trkpt lat="46.31357" lon="4.6873">
        <ele>336</ele>
        <time>2014-09-28T07:35:33Z</time>
      </trkpt>
      <trkpt lat="46.31358" lon="4.68723">
        <ele>336</ele>
        <time>2014-09-28T07:35:34Z</time>
      </trkpt>
      <trkpt lat="46.31358" lon="4.68716">
        <ele>336</ele>
        <time>2014-09-28T07:35:35Z</time>
      </trkpt>
      <trkpt lat="46.31358" lon="4.68708">
        <ele>336</ele>
        <time>2014-09-28T07:35:36Z</time>
      </trkpt>
      <trkpt lat="46.31358" lon="4.68701">
        <ele>336</ele>
        <time>2014-09-28T07:35:37Z</time>
      </trkpt>
      <trkpt lat="46.31357" lon="4.68694">
        <ele>336</ele>
        <time>2014-09-28T07:35:38Z</time>
      </trkpt>
      <trkpt lat="46.31355" lon="4.68682">
        <ele>337</ele>
        <time>2014-09-28T07:35:40Z</time>
      </trkpt>
      <trkpt lat="46.31354" lon="4.68675">
        <ele>337</ele>
        <time>2014-09-28T07:35:41Z</time>
      </trkpt>
      <trkpt lat="46.31352" lon="4.68666">
        <ele>338</ele>
        <time>2014-09-28T07:35:43Z</time>
      </trkpt>
      <trkpt lat="46.3135" lon="4.68662">
        <ele>338</ele>
        <time>2014-09-28T07:35:44Z</time>
      </trkpt>
      <trkpt lat="46.31344" lon="4.68658">
        <ele>338</ele>
        <time>2014-09-28T07:35:47Z</time>
      </trkpt>
      <trkpt lat="46.31341" lon="4.68659">
        <ele>339</ele>
        <time>2014-09-28T07:35:48Z</time>
      </trkpt>
      <trkpt lat="46.31335" lon="4.68661">
        <ele>339</ele>
        <time>2014-09-28T07:35:50Z</time>
      </trkpt>
      <trkpt lat="46.31332" lon="4.68662">
        <ele>341</ele>
        <time>2014-09-28T07:35:51Z</time>
      </trkpt>
      <trkpt lat="46.31326" lon="4.68666">
        <ele>341</ele>
        <time>2014-09-28T07:35:53Z</time>
      </trkpt>
      <trkpt lat="46.31323" lon="4.68668">
        <ele>342</ele>
        <time>2014-09-28T07:35:54Z</time>
      </trkpt>
      <trkpt lat="46.31317" lon="4.68672">
        <ele>343</ele>
        <time>2014-09-28T07:35:56Z</time>
      </trkpt>
      <trkpt lat="46.31315" lon="4.68674">
        <ele>343</ele>
        <time>2014-09-28T07:35:57Z</time>
      </trkpt>
      <trkpt lat="46.3131" lon="4.68679">
        <ele>343</ele>
        <time>2014-09-28T07:35:59Z</time>
      </trkpt>
      <trkpt lat="46.31307" lon="4.68682">
        <ele>344</ele>
        <time>2014-09-28T07:36:00Z</time>
      </trkpt>
      <trkpt lat="46.31299" lon="4.68687">
        <ele>344</ele>
        <time>2014-09-28T07:36:03Z</time>
      </trkpt>
      <trkpt lat="46.31297" lon="4.68688">
        <ele>345</ele>
        <time>2014-09-28T07:36:04Z</time>
      </trkpt>
      <trkpt lat="46.31288" lon="4.68689">
        <ele>345</ele>
        <time>2014-09-28T07:36:07Z</time>
      </trkpt>
      <trkpt lat="46.31285" lon="4.68689">
        <ele>345</ele>
        <time>2014-09-28T07:36:08Z</time>
      </trkpt>
      <trkpt lat="46.31276" lon="4.6869">
        <ele>346</ele>
        <time>2014-09-28T07:36:11Z</time>
      </trkpt>
      <trkpt lat="46.31273" lon="4.6869">
        <ele>346</ele>
        <time>2014-09-28T07:36:12Z</time>
      </trkpt>
      <trkpt lat="46.31264" lon="4.68688">
        <ele>347</ele>
        <time>2014-09-28T07:36:15Z</time>
      </trkpt>
      <trkpt lat="46.31261" lon="4.68688">
        <ele>347</ele>
        <time>2014-09-28T07:36:16Z</time>
      </trkpt>
      <trkpt lat="46.31255" lon="4.68687">
        <ele>347</ele>
        <time>2014-09-28T07:36:18Z</time>
      </trkpt>
      <trkpt lat="46.31252" lon="4.68686">
        <ele>348</ele>
        <time>2014-09-28T07:36:19Z</time>
      </trkpt>
      <trkpt lat="46.31246" lon="4.68685">
        <ele>352</ele>
        <time>2014-09-28T07:36:21Z</time>
      </trkpt>
      <trkpt lat="46.31243" lon="4.68684">
        <ele>352</ele>
        <time>2014-09-28T07:36:22Z</time>
      </trkpt>
      <trkpt lat="46.31236" lon="4.68683">
        <ele>352</ele>
        <time>2014-09-28T07:36:24Z</time>
      </trkpt>
      <trkpt lat="46.31233" lon="4.68682">
        <ele>352</ele>
        <time>2014-09-28T07:36:25Z</time>
      </trkpt>
      <trkpt lat="46.31226" lon="4.6868">
        <ele>352</ele>
        <time>2014-09-28T07:36:27Z</time>
      </trkpt>
      <trkpt lat="46.31222" lon="4.6868">
        <ele>352</ele>
        <time>2014-09-28T07:36:28Z</time>
      </trkpt>
      <trkpt lat="46.31215" lon="4.68678">
        <ele>352</ele>
        <time>2014-09-28T07:36:30Z</time>
      </trkpt>
      <trkpt lat="46.31212" lon="4.68677">
        <ele>353</ele>
        <time>2014-09-28T07:36:31Z</time>
      </trkpt>
      <trkpt lat="46.31205" lon="4.68676">
        <ele>353</ele>
        <time>2014-09-28T07:36:33Z</time>
      </trkpt>
      <trkpt lat="46.31201" lon="4.68675">
        <ele>353</ele>
        <time>2014-09-28T07:36:34Z</time>
      </trkpt>
      <trkpt lat="46.31194" lon="4.68673">
        <ele>353</ele>
        <time>2014-09-28T07:36:36Z</time>
      </trkpt>
      <trkpt lat="46.31189" lon="4.68672">
        <ele>353</ele>
        <time>2014-09-28T07:36:37Z</time>
      </trkpt>
      <trkpt lat="46.31182" lon="4.68671">
        <ele>353</ele>
        <time>2014-09-28T07:36:38Z</time>
      </trkpt>
      <trkpt lat="46.31177" lon="4.68671">
        <ele>353</ele>
        <time>2014-09-28T07:36:39Z</time>
      </trkpt>
      <trkpt lat="46.31172" lon="4.68671">
        <ele>353</ele>
        <time>2014-09-28T07:36:40Z</time>
      </trkpt>
      <trkpt lat="46.31167" lon="4.68672">
        <ele>353</ele>
        <time>2014-09-28T07:36:41Z</time>
      </trkpt>
      <trkpt lat="46.31162" lon="4.68674">
        <ele>354</ele>
        <time>2014-09-28T07:36:42Z</time>
      </trkpt>
      <trkpt lat="46.31157" lon="4.68675">
        <ele>354</ele>
        <time>2014-09-28T07:36:43Z</time>
      </trkpt>
      <trkpt lat="46.31152" lon="4.68679">
        <ele>355</ele>
        <time>2014-09-28T07:36:44Z</time>
      </trkpt>
      <trkpt lat="46.31148" lon="4.68682">
        <ele>355</ele>
        <time>2014-09-28T07:36:45Z</time>
      </trkpt>
      <trkpt lat="46.31144" lon="4.68686">
        <ele>355</ele>
        <time>2014-09-28T07:36:46Z</time>
      </trkpt>
      <trkpt lat="46.3114" lon="4.68691">
        <ele>356</ele>
        <time>2014-09-28T07:36:47Z</time>
      </trkpt>
      <trkpt lat="46.31137" lon="4.68696">
        <ele>356</ele>
        <time>2014-09-28T07:36:48Z</time>
      </trkpt>
      <trkpt lat="46.31134" lon="4.687">
        <ele>356</ele>
        <time>2014-09-28T07:36:49Z</time>
      </trkpt>
      <trkpt lat="46.31128" lon="4.6871">
        <ele>357</ele>
        <time>2014-09-28T07:36:51Z</time>
      </trkpt>
      <trkpt lat="46.31126" lon="4.68715">
        <ele>357</ele>
        <time>2014-09-28T07:36:52Z</time>
      </trkpt>
      <trkpt lat="46.31123" lon="4.68721">
        <ele>357</ele>
        <time>2014-09-28T07:36:53Z</time>
      </trkpt>
      <trkpt lat="46.31121" lon="4.68727">
        <ele>357</ele>
        <time>2014-09-28T07:36:54Z</time>
      </trkpt>
      <trkpt lat="46.31119" lon="4.68734">
        <ele>357</ele>
        <time>2014-09-28T07:36:55Z</time>
      </trkpt>
      <trkpt lat="46.31118" lon="4.6874">
        <ele>358</ele>
        <time>2014-09-28T07:36:56Z</time>
      </trkpt>
      <trkpt lat="46.31117" lon="4.68752">
        <ele>361</ele>
        <time>2014-09-28T07:36:58Z</time>
      </trkpt>
      <trkpt lat="46.31118" lon="4.68759">
        <ele>361</ele>
        <time>2014-09-28T07:36:59Z</time>
      </trkpt>
      <trkpt lat="46.31118" lon="4.68765">
        <ele>361</ele>
        <time>2014-09-28T07:37:00Z</time>
      </trkpt>
      <trkpt lat="46.31119" lon="4.68772">
        <ele>362</ele>
        <time>2014-09-28T07:37:01Z</time>
      </trkpt>
      <trkpt lat="46.31121" lon="4.68783">
        <ele>362</ele>
        <time>2014-09-28T07:37:03Z</time>
      </trkpt>
      <trkpt lat="46.31122" lon="4.68788">
        <ele>362</ele>
        <time>2014-09-28T07:37:04Z</time>
      </trkpt>
      <trkpt lat="46.31125" lon="4.68797">
        <ele>362</ele>
        <time>2014-09-28T07:37:06Z</time>
      </trkpt>
      <trkpt lat="46.31126" lon="4.68801">
        <ele>363</ele>
        <time>2014-09-28T07:37:07Z</time>
      </trkpt>
      <trkpt lat="46.31127" lon="4.6881">
        <ele>363</ele>
        <time>2014-09-28T07:37:09Z</time>
      </trkpt>
      <trkpt lat="46.31126" lon="4.68814">
        <ele>363</ele>
        <time>2014-09-28T07:37:10Z</time>
      </trkpt>
      <trkpt lat="46.31124" lon="4.68826">
        <ele>363</ele>
        <time>2014-09-28T07:37:13Z</time>
      </trkpt>
      <trkpt lat="46.31123" lon="4.6883">
        <ele>363</ele>
        <time>2014-09-28T07:37:14Z</time>
      </trkpt>
      <trkpt lat="46.31119" lon="4.68841">
        <ele>368</ele>
        <time>2014-09-28T07:37:17Z</time>
      </trkpt>
      <trkpt lat="46.31118" lon="4.68844">
        <ele>368</ele>
        <time>2014-09-28T07:37:18Z</time>
      </trkpt>
      <trkpt lat="46.31115" lon="4.68855">
        <ele>368</ele>
        <time>2014-09-28T07:37:21Z</time>
      </trkpt>
      <trkpt lat="46.31113" lon="4.68859">
        <ele>368</ele>
        <time>2014-09-28T07:37:22Z</time>
      </trkpt>
      <trkpt lat="46.3111" lon="4.68869">
        <ele>369</ele>
        <time>2014-09-28T07:37:25Z</time>
      </trkpt>
      <trkpt lat="46.31109" lon="4.68872">
        <ele>369</ele>
        <time>2014-09-28T07:37:26Z</time>
      </trkpt>
      <trkpt lat="46.31104" lon="4.68881">
        <ele>370</ele>
        <time>2014-09-28T07:37:29Z</time>
      </trkpt>
      <trkpt lat="46.31102" lon="4.68883">
        <ele>370</ele>
        <time>2014-09-28T07:37:30Z</time>
      </trkpt>
      <trkpt lat="46.31094" lon="4.68888">
        <ele>370</ele>
        <time>2014-09-28T07:37:33Z</time>
      </trkpt>
      <trkpt lat="46.31092" lon="4.68891">
        <ele>370</ele>
        <time>2014-09-28T07:37:34Z</time>
      </trkpt>
      <trkpt lat="46.31086" lon="4.68895">
        <ele>371</ele>
        <time>2014-09-28T07:37:36Z</time>
      </trkpt>
      <trkpt lat="46.31083" lon="4.68897">
        <ele>372</ele>
        <time>2014-09-28T07:37:37Z</time>
      </trkpt>
      <trkpt lat="46.31076" lon="4.689">
        <ele>372</ele>
        <time>2014-09-28T07:37:39Z</time>
      </trkpt>
      <trkpt lat="46.31072" lon="4.68901">
        <ele>372</ele>
        <time>2014-09-28T07:37:40Z</time>
      </trkpt>
      <trkpt lat="46.31064" lon="4.68904">
        <ele>373</ele>
        <time>2014-09-28T07:37:42Z</time>
      </trkpt>
      <trkpt lat="46.3106" lon="4.68905">
        <ele>373</ele>
        <time>2014-09-28T07:37:43Z</time>
      </trkpt>
      <trkpt lat="46.31052" lon="4.68906">
        <ele>373</ele>
        <time>2014-09-28T07:37:45Z</time>
      </trkpt>
      <trkpt lat="46.31049" lon="4.68907">
        <ele>373</ele>
        <time>2014-09-28T07:37:46Z</time>
      </trkpt>
      <trkpt lat="46.31041" lon="4.68907">
        <ele>373</ele>
        <time>2014-09-28T07:37:48Z</time>
      </trkpt>
      <trkpt lat="46.31037" lon="4.68906">
        <ele>373</ele>
        <time>2014-09-28T07:37:49Z</time>
      </trkpt>
      <trkpt lat="46.31029" lon="4.68906">
        <ele>374</ele>
        <time>2014-09-28T07:37:51Z</time>
      </trkpt>
      <trkpt lat="46.31025" lon="4.68906">
        <ele>374</ele>
        <time>2014-09-28T07:37:52Z</time>
      </trkpt>
      <trkpt lat="46.31018" lon="4.68905">
        <ele>374</ele>
        <time>2014-09-28T07:37:54Z</time>
      </trkpt>
      <trkpt lat="46.31014" lon="4.68903">
        <ele>375</ele>
        <time>2014-09-28T07:37:55Z</time>
      </trkpt>
      <trkpt lat="46.3101" lon="4.689">
        <ele>375</ele>
        <time>2014-09-28T07:37:56Z</time>
      </trkpt>
      <trkpt lat="46.31008" lon="4.6889">
        <ele>374</ele>
        <time>2014-09-28T07:37:57Z</time>
      </trkpt>
      <trkpt lat="46.31006" lon="4.68883">
        <ele>374</ele>
        <time>2014-09-28T07:37:58Z</time>
      </trkpt>
      <trkpt lat="46.31005" lon="4.68876">
        <ele>373</ele>
        <time>2014-09-28T07:37:59Z</time>
      </trkpt>
      <trkpt lat="46.31004" lon="4.68868">
        <ele>373</ele>
        <time>2014-09-28T07:38:00Z</time>
      </trkpt>
      <trkpt lat="46.31002" lon="4.6886">
        <ele>373</ele>
        <time>2014-09-28T07:38:01Z</time>
      </trkpt>
      <trkpt lat="46.31" lon="4.68852">
        <ele>380</ele>
        <time>2014-09-28T07:38:02Z</time>
      </trkpt>
      <trkpt lat="46.30998" lon="4.68845">
        <ele>378</ele>
        <time>2014-09-28T07:38:03Z</time>
      </trkpt>
      <trkpt lat="46.30996" lon="4.68838">
        <ele>377</ele>
        <time>2014-09-28T07:38:04Z</time>
      </trkpt>
      <trkpt lat="46.30994" lon="4.6883">
        <ele>375</ele>
        <time>2014-09-28T07:38:05Z</time>
      </trkpt>
      <trkpt lat="46.30992" lon="4.68823">
        <ele>376</ele>
        <time>2014-09-28T07:38:06Z</time>
      </trkpt>
      <trkpt lat="46.3099" lon="4.68815">
        <ele>377</ele>
        <time>2014-09-28T07:38:07Z</time>
      </trkpt>
      <trkpt lat="46.30988" lon="4.68807">
        <ele>377</ele>
        <time>2014-09-28T07:38:08Z</time>
      </trkpt>
      <trkpt lat="46.30985" lon="4.688">
        <ele>377</ele>
        <time>2014-09-28T07:38:09Z</time>
      </trkpt>
      <trkpt lat="46.30983" lon="4.68793">
        <ele>377</ele>
        <time>2014-09-28T07:38:10Z</time>
      </trkpt>
      <trkpt lat="46.3098" lon="4.68786">
        <ele>377</ele>
        <time>2014-09-28T07:38:11Z</time>
      </trkpt>
      <trkpt lat="46.30977" lon="4.68779">
        <ele>377</ele>
        <time>2014-09-28T07:38:12Z</time>
      </trkpt>
      <trkpt lat="46.30974" lon="4.68772">
        <ele>376</ele>
        <time>2014-09-28T07:38:13Z</time>
      </trkpt>
      <trkpt lat="46.3097" lon="4.68766">
        <ele>377</ele>
        <time>2014-09-28T07:38:14Z</time>
      </trkpt>
      <trkpt lat="46.30967" lon="4.6876">
        <ele>377</ele>
        <time>2014-09-28T07:38:15Z</time>
      </trkpt>
      <trkpt lat="46.30964" lon="4.68754">
        <ele>377</ele>
        <time>2014-09-28T07:38:16Z</time>
      </trkpt>
      <trkpt lat="46.3096" lon="4.68748">
        <ele>372</ele>
        <time>2014-09-28T07:38:17Z</time>
      </trkpt>
      <trkpt lat="46.30956" lon="4.68742">
        <ele>373</ele>
        <time>2014-09-28T07:38:18Z</time>
      </trkpt>
      <trkpt lat="46.30951" lon="4.68736">
        <ele>373</ele>
        <time>2014-09-28T07:38:19Z</time>
      </trkpt>
      <trkpt lat="46.30947" lon="4.68731">
        <ele>373</ele>
        <time>2014-09-28T07:38:20Z</time>
      </trkpt>
      <trkpt lat="46.30943" lon="4.68726">
        <ele>374</ele>
        <time>2014-09-28T07:38:21Z</time>
      </trkpt>
      <trkpt lat="46.30938" lon="4.68722">
        <ele>374</ele>
        <time>2014-09-28T07:38:23Z</time>
      </trkpt>
      <trkpt lat="46.30934" lon="4.68718">
        <ele>374</ele>
        <time>2014-09-28T07:38:23Z</time>
      </trkpt>
      <trkpt lat="46.30929" lon="4.68714">
        <ele>374</ele>
        <time>2014-09-28T07:38:24Z</time>
      </trkpt>
      <trkpt lat="46.30924" lon="4.6871">
        <ele>374</ele>
        <time>2014-09-28T07:38:25Z</time>
      </trkpt>
      <trkpt lat="46.3092" lon="4.68706">
        <ele>374</ele>
        <time>2014-09-28T07:38:26Z</time>
      </trkpt>
      <trkpt lat="46.30916" lon="4.68701">
        <ele>385</ele>
        <time>2014-09-28T07:38:27Z</time>
      </trkpt>
      <trkpt lat="46.30912" lon="4.68697">
        <ele>384</ele>
        <time>2014-09-28T07:38:28Z</time>
      </trkpt>
      <trkpt lat="46.30907" lon="4.68694">
        <ele>384</ele>
        <time>2014-09-28T07:38:29Z</time>
      </trkpt>
      <trkpt lat="46.30903" lon="4.6869">
        <ele>384</ele>
        <time>2014-09-28T07:38:30Z</time>
      </trkpt>
      <trkpt lat="46.30899" lon="4.68688">
        <ele>384</ele>
        <time>2014-09-28T07:38:31Z</time>
      </trkpt>
      <trkpt lat="46.30894" lon="4.68684">
        <ele>384</ele>
        <time>2014-09-28T07:38:32Z</time>
      </trkpt>
      <trkpt lat="46.3089" lon="4.68681">
        <ele>385</ele>
        <time>2014-09-28T07:38:33Z</time>
      </trkpt>
      <trkpt lat="46.30886" lon="4.68678">
        <ele>386</ele>
        <time>2014-09-28T07:38:34Z</time>
      </trkpt>
      <trkpt lat="46.30881" lon="4.68675">
        <ele>386</ele>
        <time>2014-09-28T07:38:35Z</time>
      </trkpt>
      <trkpt lat="46.30874" lon="4.68667">
        <ele>388</ele>
        <time>2014-09-28T07:38:37Z</time>
      </trkpt>
      <trkpt lat="46.30871" lon="4.68663">
        <ele>382</ele>
        <time>2014-09-28T07:38:38Z</time>
      </trkpt>
      <trkpt lat="46.30865" lon="4.68655">
        <ele>383</ele>
        <time>2014-09-28T07:38:40Z</time>
      </trkpt>
      <trkpt lat="46.30862" lon="4.68652">
        <ele>383</ele>
        <time>2014-09-28T07:38:41Z</time>
      </trkpt>
      <trkpt lat="46.30855" lon="4.68644">
        <ele>384</ele>
        <time>2014-09-28T07:38:44Z</time>
      </trkpt>
      <trkpt lat="46.30853" lon="4.68641">
        <ele>384</ele>
        <time>2014-09-28T07:38:45Z</time>
      </trkpt>
      <trkpt lat="46.30847" lon="4.68635">
        <ele>384</ele>
        <time>2014-09-28T07:38:48Z</time>
      </trkpt>
      <trkpt lat="46.30846" lon="4.68632">
        <ele>384</ele>
        <time>2014-09-28T07:38:49Z</time>
      </trkpt>
      <trkpt lat="46.3084" lon="4.68625">
        <ele>383</ele>
        <time>2014-09-28T07:38:52Z</time>
      </trkpt>
      <trkpt lat="46.30838" lon="4.68623">
        <ele>383</ele>
        <time>2014-09-28T07:38:53Z</time>
      </trkpt>
      <trkpt lat="46.30832" lon="4.68616">
        <ele>397</ele>
        <time>2014-09-28T07:38:56Z</time>
      </trkpt>
      <trkpt lat="46.3083" lon="4.68614">
        <ele>397</ele>
        <time>2014-09-28T07:38:57Z</time>
      </trkpt>
      <trkpt lat="46.30824" lon="4.68608">
        <ele>397</ele>
        <time>2014-09-28T07:39:00Z</time>
      </trkpt>
      <trkpt lat="46.30822" lon="4.68606">
        <ele>396</ele>
        <time>2014-09-28T07:39:01Z</time>
      </trkpt>
      <trkpt lat="46.30815" lon="4.686">
        <ele>397</ele>
        <time>2014-09-28T07:39:04Z</time>
      </trkpt>
      <trkpt lat="46.30813" lon="4.68598">
        <ele>397</ele>
        <time>2014-09-28T07:39:05Z</time>
      </trkpt>
      <trkpt lat="46.30807" lon="4.68594">
        <ele>398</ele>
        <time>2014-09-28T07:39:08Z</time>
      </trkpt>
      <trkpt lat="46.30805" lon="4.68593">
        <ele>399</ele>
        <time>2014-09-28T07:39:09Z</time>
      </trkpt>
      <trkpt lat="46.30798" lon="4.68589">
        <ele>400</ele>
        <time>2014-09-28T07:39:12Z</time>
      </trkpt>
      <trkpt lat="46.30796" lon="4.68587">
        <ele>401</ele>
        <time>2014-09-28T07:39:13Z</time>
      </trkpt>
      <trkpt lat="46.30788" lon="4.68583">
        <ele>393</ele>
        <time>2014-09-28T07:39:16Z</time>
      </trkpt>
      <trkpt lat="46.30786" lon="4.68581">
        <ele>393</ele>
        <time>2014-09-28T07:39:17Z</time>
      </trkpt>
      <trkpt lat="46.30779" lon="4.68576">
        <ele>395</ele>
        <time>2014-09-28T07:39:20Z</time>
      </trkpt>
      <trkpt lat="46.30777" lon="4.68575">
        <ele>395</ele>
        <time>2014-09-28T07:39:21Z</time>
      </trkpt>
      <trkpt lat="46.3077" lon="4.6857">
        <ele>396</ele>
        <time>2014-09-28T07:39:24Z</time>
      </trkpt>
      <trkpt lat="46.30767" lon="4.68568">
        <ele>397</ele>
        <time>2014-09-28T07:39:25Z</time>
      </trkpt>
      <trkpt lat="46.30759" lon="4.68563">
        <ele>397</ele>
        <time>2014-09-28T07:39:28Z</time>
      </trkpt>
      <trkpt lat="46.30756" lon="4.68561">
        <ele>397</ele>
        <time>2014-09-28T07:39:29Z</time>
      </trkpt>
      <trkpt lat="46.30748" lon="4.68555">
        <ele>408</ele>
        <time>2014-09-28T07:39:32Z</time>
      </trkpt>
      <trkpt lat="46.30746" lon="4.68554">
        <ele>408</ele>
        <time>2014-09-28T07:39:33Z</time>
      </trkpt>
      <trkpt lat="46.30739" lon="4.68549">
        <ele>408</ele>
        <time>2014-09-28T07:39:36Z</time>
      </trkpt>
      <trkpt lat="46.30737" lon="4.68548">
        <ele>408</ele>
        <time>2014-09-28T07:39:37Z</time>
      </trkpt>
      <trkpt lat="46.30731" lon="4.68543">
        <ele>408</ele>
        <time>2014-09-28T07:39:40Z</time>
      </trkpt>
      <trkpt lat="46.30729" lon="4.68541">
        <ele>408</ele>
        <time>2014-09-28T07:39:41Z</time>
      </trkpt>
      <trkpt lat="46.30723" lon="4.68536">
        <ele>408</ele>
        <time>2014-09-28T07:39:44Z</time>
      </trkpt>
      <trkpt lat="46.3072" lon="4.68534">
        <ele>408</ele>
        <time>2014-09-28T07:39:45Z</time>
      </trkpt>
      <trkpt lat="46.30714" lon="4.6853">
        <ele>409</ele>
        <time>2014-09-28T07:39:48Z</time>
      </trkpt>
      <trkpt lat="46.30712" lon="4.68529">
        <ele>409</ele>
        <time>2014-09-28T07:39:49Z</time>
      </trkpt>
      <trkpt lat="46.30705" lon="4.68525">
        <ele>409</ele>
        <time>2014-09-28T07:39:52Z</time>
      </trkpt>
      <trkpt lat="46.30703" lon="4.68524">
        <ele>410</ele>
        <time>2014-09-28T07:39:53Z</time>
      </trkpt>
      <trkpt lat="46.30696" lon="4.68519">
        <ele>410</ele>
        <time>2014-09-28T07:39:56Z</time>
      </trkpt>
      <trkpt lat="46.30694" lon="4.68517">
        <ele>410</ele>
        <time>2014-09-28T07:39:57Z</time>
      </trkpt>
      <trkpt lat="46.30689" lon="4.68514">
        <ele>411</ele>
        <time>2014-09-28T07:39:59Z</time>
      </trkpt>
      <trkpt lat="46.30686" lon="4.68512">
        <ele>411</ele>
        <time>2014-09-28T07:40:00Z</time>
      </trkpt>
      <trkpt lat="46.30679" lon="4.68506">
        <ele>412</ele>
        <time>2014-09-28T07:40:03Z</time>
      </trkpt>
      <trkpt lat="46.30678" lon="4.68505">
        <ele>412</ele>
        <time>2014-09-28T07:40:04Z</time>
      </trkpt>
      <trkpt lat="46.3067" lon="4.68498">
        <ele>410</ele>
        <time>2014-09-28T07:40:08Z</time>
      </trkpt>
      <trkpt lat="46.30669" lon="4.68497">
        <ele>410</ele>
        <time>2014-09-28T07:40:09Z</time>
      </trkpt>
      <trkpt lat="46.30662" lon="4.68492">
        <ele>411</ele>
        <time>2014-09-28T07:40:13Z</time>
      </trkpt>
      <trkpt lat="46.3066" lon="4.68491">
        <ele>410</ele>
        <time>2014-09-28T07:40:14Z</time>
      </trkpt>
      <trkpt lat="46.30652" lon="4.68491">
        <ele>410</ele>
        <time>2014-09-28T07:40:18Z</time>
      </trkpt>
      <trkpt lat="46.3065" lon="4.68492">
        <ele>409</ele>
        <time>2014-09-28T07:40:19Z</time>
      </trkpt>
      <trkpt lat="46.30644" lon="4.68493">
        <ele>409</ele>
        <time>2014-09-28T07:40:22Z</time>
      </trkpt>
      <trkpt lat="46.30641" lon="4.68493">
        <ele>409</ele>
        <time>2014-09-28T07:40:23Z</time>
      </trkpt>
      <trkpt lat="46.30634" lon="4.68494">
        <ele>409</ele>
        <time>2014-09-28T07:40:26Z</time>
      </trkpt>
      <trkpt lat="46.30631" lon="4.68494">
        <ele>409</ele>
        <time>2014-09-28T07:40:27Z</time>
      </trkpt>
      <trkpt lat="46.30623" lon="4.68497">
        <ele>409</ele>
        <time>2014-09-28T07:40:30Z</time>
      </trkpt>
      <trkpt lat="46.30621" lon="4.68498">
        <ele>409</ele>
        <time>2014-09-28T07:40:31Z</time>
      </trkpt>
      <trkpt lat="46.30612" lon="4.68501">
        <ele>420</ele>
        <time>2014-09-28T07:40:34Z</time>
      </trkpt>
      <trkpt lat="46.3061" lon="4.68503">
        <ele>420</ele>
        <time>2014-09-28T07:40:35Z</time>
      </trkpt>
      <trkpt lat="46.30603" lon="4.68508">
        <ele>419</ele>
        <time>2014-09-28T07:40:38Z</time>
      </trkpt>
      <trkpt lat="46.306" lon="4.6851">
        <ele>419</ele>
        <time>2014-09-28T07:40:39Z</time>
      </trkpt>
      <trkpt lat="46.30595" lon="4.68513">
        <ele>419</ele>
        <time>2014-09-28T07:40:41Z</time>
      </trkpt>
      <trkpt lat="46.30592" lon="4.68515">
        <ele>419</ele>
        <time>2014-09-28T07:40:42Z</time>
      </trkpt>
      <trkpt lat="46.30585" lon="4.68519">
        <ele>420</ele>
        <time>2014-09-28T07:40:44Z</time>
      </trkpt>
      <trkpt lat="46.30582" lon="4.68521">
        <ele>420</ele>
        <time>2014-09-28T07:40:45Z</time>
      </trkpt>
      <trkpt lat="46.30576" lon="4.68526">
        <ele>421</ele>
        <time>2014-09-28T07:40:47Z</time>
      </trkpt>
      <trkpt lat="46.30573" lon="4.68528">
        <ele>421</ele>
        <time>2014-09-28T07:40:48Z</time>
      </trkpt>
      <trkpt lat="46.30567" lon="4.68533">
        <ele>422</ele>
        <time>2014-09-28T07:40:50Z</time>
      </trkpt>
      <trkpt lat="46.30564" lon="4.68535">
        <ele>422</ele>
        <time>2014-09-28T07:40:51Z</time>
      </trkpt>
      <trkpt lat="46.30558" lon="4.6854">
        <ele>423</ele>
        <time>2014-09-28T07:40:53Z</time>
      </trkpt>
      <trkpt lat="46.30555" lon="4.68542">
        <ele>423</ele>
        <time>2014-09-28T07:40:54Z</time>
      </trkpt>
      <trkpt lat="46.30548" lon="4.68545">
        <ele>423</ele>
        <time>2014-09-28T07:40:56Z</time>
      </trkpt>
      <trkpt lat="46.30545" lon="4.68546">
        <ele>423</ele>
        <time>2014-09-28T07:40:57Z</time>
      </trkpt>
      <trkpt lat="46.30541" lon="4.68548">
        <ele>423</ele>
        <time>2014-09-28T07:40:59Z</time>
      </trkpt>
      <trkpt lat="46.30534" lon="4.6855">
        <ele>424</ele>
        <time>2014-09-28T07:41:00Z</time>
      </trkpt>
      <trkpt lat="46.30526" lon="4.68552">
        <ele>424</ele>
        <time>2014-09-28T07:41:02Z</time>
      </trkpt>
      <trkpt lat="46.30523" lon="4.68553">
        <ele>424</ele>
        <time>2014-09-28T07:41:03Z</time>
      </trkpt>
      <trkpt lat="46.30515" lon="4.68556">
        <ele>424</ele>
        <time>2014-09-28T07:41:05Z</time>
      </trkpt>
      <trkpt lat="46.30511" lon="4.68557">
        <ele>425</ele>
        <time>2014-09-28T07:41:06Z</time>
      </trkpt>
      <trkpt lat="46.30504" lon="4.68558">
        <ele>425</ele>
        <time>2014-09-28T07:41:08Z</time>
      </trkpt>
      <trkpt lat="46.305" lon="4.68559">
        <ele>423</ele>
        <time>2014-09-28T07:41:09Z</time>
      </trkpt>
      <trkpt lat="46.30492" lon="4.68562">
        <ele>423</ele>
        <time>2014-09-28T07:41:11Z</time>
      </trkpt>
      <trkpt lat="46.30489" lon="4.68563">
        <ele>423</ele>
        <time>2014-09-28T07:41:12Z</time>
      </trkpt>
      <trkpt lat="46.30481" lon="4.68565">
        <ele>423</ele>
        <time>2014-09-28T07:41:14Z</time>
      </trkpt>
      <trkpt lat="46.30478" lon="4.68566">
        <ele>423</ele>
        <time>2014-09-28T07:41:15Z</time>
      </trkpt>
      <trkpt lat="46.3047" lon="4.68566">
        <ele>422</ele>
        <time>2014-09-28T07:41:17Z</time>
      </trkpt>
      <trkpt lat="46.30467" lon="4.68567">
        <ele>422</ele>
        <time>2014-09-28T07:41:18Z</time>
      </trkpt>
      <trkpt lat="46.3046" lon="4.68567">
        <ele>422</ele>
        <time>2014-09-28T07:41:20Z</time>
      </trkpt>
      <trkpt lat="46.30457" lon="4.68567">
        <ele>422</ele>
        <time>2014-09-28T07:41:21Z</time>
      </trkpt>
      <trkpt lat="46.30451" lon="4.68568">
        <ele>422</ele>
        <time>2014-09-28T07:41:23Z</time>
      </trkpt>
      <trkpt lat="46.30448" lon="4.68568">
        <ele>422</ele>
        <time>2014-09-28T07:41:24Z</time>
      </trkpt>
      <trkpt lat="46.30442" lon="4.6857">
        <ele>422</ele>
        <time>2014-09-28T07:41:26Z</time>
      </trkpt>
      <trkpt lat="46.30439" lon="4.68571">
        <ele>422</ele>
        <time>2014-09-28T07:41:27Z</time>
      </trkpt>
      <trkpt lat="46.30433" lon="4.68573">
        <ele>423</ele>
        <time>2014-09-28T07:41:29Z</time>
      </trkpt>
      <trkpt lat="46.3043" lon="4.68575">
        <ele>424</ele>
        <time>2014-09-28T07:41:30Z</time>
      </trkpt>
      <trkpt lat="46.30424" lon="4.68579">
        <ele>425</ele>
        <time>2014-09-28T07:41:32Z</time>
      </trkpt>
      <trkpt lat="46.30422" lon="4.68581">
        <ele>426</ele>
        <time>2014-09-28T07:41:33Z</time>
      </trkpt>
      <trkpt lat="46.30416" lon="4.68586">
        <ele>428</ele>
        <time>2014-09-28T07:41:35Z</time>
      </trkpt>
      <trkpt lat="46.30414" lon="4.68589">
        <ele>428</ele>
        <time>2014-09-28T07:41:36Z</time>
      </trkpt>
      <trkpt lat="46.30409" lon="4.68594">
        <ele>428</ele>
        <time>2014-09-28T07:41:38Z</time>
      </trkpt>
      <trkpt lat="46.30407" lon="4.68597">
        <ele>428</ele>
        <time>2014-09-28T07:41:39Z</time>
      </trkpt>
      <trkpt lat="46.30402" lon="4.68606">
        <ele>428</ele>
        <time>2014-09-28T07:41:42Z</time>
      </trkpt>
      <trkpt lat="46.30401" lon="4.68608">
        <ele>428</ele>
        <time>2014-09-28T07:41:43Z</time>
      </trkpt>
      <trkpt lat="46.30396" lon="4.68616">
        <ele>429</ele>
        <time>2014-09-28T07:41:46Z</time>
      </trkpt>
      <trkpt lat="46.30395" lon="4.68619">
        <ele>429</ele>
        <time>2014-09-28T07:41:47Z</time>
      </trkpt>
      <trkpt lat="46.30392" lon="4.68631">
        <ele>430</ele>
        <time>2014-09-28T07:41:52Z</time>
      </trkpt>
      <trkpt lat="46.30391" lon="4.68633">
        <ele>430</ele>
        <time>2014-09-28T07:41:53Z</time>
      </trkpt>
      <trkpt lat="46.30389" lon="4.68643">
        <ele>431</ele>
        <time>2014-09-28T07:41:57Z</time>
      </trkpt>
      <trkpt lat="46.30389" lon="4.68646">
        <ele>432</ele>
        <time>2014-09-28T07:41:58Z</time>
      </trkpt>
      <trkpt lat="46.30386" lon="4.68655">
        <ele>432</ele>
        <time>2014-09-28T07:42:02Z</time>
      </trkpt>
      <trkpt lat="46.30385" lon="4.68658">
        <ele>432</ele>
        <time>2014-09-28T07:42:03Z</time>
      </trkpt>
      <trkpt lat="46.30382" lon="4.68669">
        <ele>443</ele>
        <time>2014-09-28T07:42:08Z</time>
      </trkpt>
      <trkpt lat="46.30382" lon="4.68672">
        <ele>444</ele>
        <time>2014-09-28T07:42:09Z</time>
      </trkpt>
      <trkpt lat="46.3038" lon="4.68682">
        <ele>444</ele>
        <time>2014-09-28T07:42:13Z</time>
      </trkpt>
      <trkpt lat="46.30379" lon="4.68684">
        <ele>444</ele>
        <time>2014-09-28T07:42:14Z</time>
      </trkpt>
      <trkpt lat="46.30373" lon="4.68693">
        <ele>444</ele>
        <time>2014-09-28T07:42:18Z</time>
      </trkpt>
      <trkpt lat="46.30371" lon="4.68694">
        <ele>444</ele>
        <time>2014-09-28T07:42:19Z</time>
      </trkpt>
      <trkpt lat="46.30365" lon="4.68703">
        <ele>445</ele>
        <time>2014-09-28T07:42:23Z</time>
      </trkpt>
      <trkpt lat="46.30363" lon="4.68706">
        <ele>445</ele>
        <time>2014-09-28T07:42:24Z</time>
      </trkpt>
      <trkpt lat="46.30359" lon="4.68713">
        <ele>446</ele>
        <time>2014-09-28T07:42:26Z</time>
      </trkpt>
      <trkpt lat="46.30357" lon="4.68715">
        <ele>446</ele>
        <time>2014-09-28T07:42:27Z</time>
      </trkpt>
      <trkpt lat="46.30351" lon="4.6872">
        <ele>446</ele>
        <time>2014-09-28T07:42:29Z</time>
      </trkpt>
      <trkpt lat="46.30349" lon="4.68722">
        <ele>446</ele>
        <time>2014-09-28T07:42:30Z</time>
      </trkpt>
      <trkpt lat="46.30343" lon="4.68727">
        <ele>446</ele>
        <time>2014-09-28T07:42:32Z</time>
      </trkpt>
      <trkpt lat="46.3034" lon="4.68728">
        <ele>447</ele>
        <time>2014-09-28T07:42:33Z</time>
      </trkpt>
      <trkpt lat="46.30334" lon="4.68731">
        <ele>447</ele>
        <time>2014-09-28T07:42:35Z</time>
      </trkpt>
      <trkpt lat="46.30331" lon="4.68733">
        <ele>441</ele>
        <time>2014-09-28T07:42:36Z</time>
      </trkpt>
      <trkpt lat="46.30322" lon="4.68734">
        <ele>440</ele>
        <time>2014-09-28T07:42:39Z</time>
      </trkpt>
      <trkpt lat="46.30319" lon="4.68734">
        <ele>440</ele>
        <time>2014-09-28T07:42:40Z</time>
      </trkpt>
      <trkpt lat="46.30312" lon="4.68737">
        <ele>439</ele>
        <time>2014-09-28T07:42:42Z</time>
      </trkpt>
      <trkpt lat="46.30309" lon="4.68739">
        <ele>439</ele>
        <time>2014-09-28T07:42:43Z</time>
      </trkpt>
      <trkpt lat="46.30302" lon="4.68744">
        <ele>438</ele>
        <time>2014-09-28T07:42:45Z</time>
      </trkpt>
      <trkpt lat="46.30299" lon="4.68747">
        <ele>438</ele>
        <time>2014-09-28T07:42:46Z</time>
      </trkpt>
      <trkpt lat="46.30293" lon="4.68754">
        <ele>450</ele>
        <time>2014-09-28T07:42:48Z</time>
      </trkpt>
      <trkpt lat="46.30292" lon="4.68758">
        <ele>450</ele>
        <time>2014-09-28T07:42:49Z</time>
      </trkpt>
      <trkpt lat="46.30287" lon="4.68765">
        <ele>450</ele>
        <time>2014-09-28T07:42:52Z</time>
      </trkpt>
      <trkpt lat="46.30285" lon="4.68767">
        <ele>451</ele>
        <time>2014-09-28T07:42:53Z</time>
      </trkpt>
      <trkpt lat="46.30279" lon="4.68775">
        <ele>451</ele>
        <time>2014-09-28T07:42:57Z</time>
      </trkpt>
      <trkpt lat="46.30277" lon="4.68777">
        <ele>451</ele>
        <time>2014-09-28T07:42:58Z</time>
      </trkpt>
      <trkpt lat="46.30271" lon="4.68784">
        <ele>451</ele>
        <time>2014-09-28T07:43:01Z</time>
      </trkpt>
      <trkpt lat="46.30269" lon="4.68786">
        <ele>452</ele>
        <time>2014-09-28T07:43:02Z</time>
      </trkpt>
      <trkpt lat="46.30264" lon="4.68793">
        <ele>453</ele>
        <time>2014-09-28T07:43:04Z</time>
      </trkpt>
      <trkpt lat="46.30261" lon="4.68797">
        <ele>453</ele>
        <time>2014-09-28T07:43:05Z</time>
      </trkpt>
      <trkpt lat="46.30255" lon="4.68805">
        <ele>454</ele>
        <time>2014-09-28T07:43:07Z</time>
      </trkpt>
      <trkpt lat="46.30252" lon="4.68808">
        <ele>455</ele>
        <time>2014-09-28T07:43:08Z</time>
      </trkpt>
      <trkpt lat="46.30244" lon="4.68813">
        <ele>451</ele>
        <time>2014-09-28T07:43:10Z</time>
      </trkpt>
      <trkpt lat="46.3024" lon="4.68815">
        <ele>451</ele>
        <time>2014-09-28T07:43:11Z</time>
      </trkpt>
      <trkpt lat="46.30236" lon="4.68818">
        <ele>451</ele>
        <time>2014-09-28T07:43:12Z</time>
      </trkpt>
      <trkpt lat="46.30231" lon="4.68819">
        <ele>451</ele>
        <time>2014-09-28T07:43:13Z</time>
      </trkpt>
      <trkpt lat="46.30227" lon="4.68821">
        <ele>450</ele>
        <time>2014-09-28T07:43:14Z</time>
      </trkpt>
      <trkpt lat="46.30222" lon="4.68822">
        <ele>450</ele>
        <time>2014-09-28T07:43:15Z</time>
      </trkpt>
      <trkpt lat="46.30213" lon="4.68821">
        <ele>449</ele>
        <time>2014-09-28T07:43:16Z</time>
      </trkpt>
      <trkpt lat="46.3021" lon="4.68824">
        <ele>449</ele>
        <time>2014-09-28T07:43:17Z</time>
      </trkpt>
      <trkpt lat="46.30204" lon="4.68826">
        <ele>449</ele>
        <time>2014-09-28T07:43:19Z</time>
      </trkpt>
      <trkpt lat="46.30199" lon="4.68825">
        <ele>448</ele>
        <time>2014-09-28T07:43:20Z</time>
      </trkpt>
      <trkpt lat="46.30194" lon="4.68825">
        <ele>449</ele>
        <time>2014-09-28T07:43:21Z</time>
      </trkpt>
      <trkpt lat="46.30187" lon="4.68824">
        <ele>449</ele>
        <time>2014-09-28T07:43:22Z</time>
      </trkpt>
      <trkpt lat="46.30179" lon="4.68826">
        <ele>449</ele>
        <time>2014-09-28T07:43:23Z</time>
      </trkpt>
      <trkpt lat="46.30175" lon="4.6883">
        <ele>450</ele>
        <time>2014-09-28T07:43:24Z</time>
      </trkpt>
      <trkpt lat="46.30167" lon="4.68829">
        <ele>451</ele>
        <time>2014-09-28T07:43:25Z</time>
      </trkpt>
      <trkpt lat="46.30162" lon="4.68829">
        <ele>451</ele>
        <time>2014-09-28T07:43:26Z</time>
      </trkpt>
      <trkpt lat="46.30156" lon="4.68829">
        <ele>451</ele>
        <time>2014-09-28T07:43:27Z</time>
      </trkpt>
      <trkpt lat="46.30151" lon="4.6883">
        <ele>451</ele>
        <time>2014-09-28T07:43:28Z</time>
      </trkpt>
      <trkpt lat="46.30146" lon="4.68828">
        <ele>450</ele>
        <time>2014-09-28T07:43:29Z</time>
      </trkpt>
      <trkpt lat="46.30139" lon="4.68825">
        <ele>450</ele>
        <time>2014-09-28T07:43:30Z</time>
      </trkpt>
      <trkpt lat="46.30131" lon="4.68825">
        <ele>451</ele>
        <time>2014-09-28T07:43:34Z</time>
      </trkpt>
      <trkpt lat="46.30129" lon="4.68825">
        <ele>451</ele>
        <time>2014-09-28T07:43:35Z</time>
      </trkpt>
      <trkpt lat="46.3012" lon="4.68822">
        <ele>451</ele>
        <time>2014-09-28T07:43:39Z</time>
      </trkpt>
      <trkpt lat="46.30117" lon="4.68823">
        <ele>452</ele>
        <time>2014-09-28T07:43:39Z</time>
      </trkpt>
      <trkpt lat="46.30109" lon="4.68824">
        <ele>453</ele>
        <time>2014-09-28T07:43:43Z</time>
      </trkpt>
      <trkpt lat="46.30107" lon="4.68825">
        <ele>454</ele>
        <time>2014-09-28T07:43:44Z</time>
      </trkpt>
      <trkpt lat="46.30098" lon="4.68827">
        <ele>456</ele>
        <time>2014-09-28T07:43:48Z</time>
      </trkpt>
      <trkpt lat="46.30097" lon="4.68828">
        <ele>456</ele>
        <time>2014-09-28T07:43:49Z</time>
      </trkpt>
      <trkpt lat="46.3009" lon="4.68831">
        <ele>459</ele>
        <time>2014-09-28T07:43:53Z</time>
      </trkpt>
      <trkpt lat="46.30087" lon="4.68832">
        <ele>461</ele>
        <time>2014-09-28T07:43:54Z</time>
      </trkpt>
      <trkpt lat="46.30079" lon="4.68832">
        <ele>462</ele>
        <time>2014-09-28T07:43:58Z</time>
      </trkpt>
      <trkpt lat="46.30077" lon="4.68832">
        <ele>462</ele>
        <time>2014-09-28T07:43:59Z</time>
      </trkpt>
      <trkpt lat="46.3007" lon="4.68831">
        <ele>461</ele>
        <time>2014-09-28T07:44:02Z</time>
      </trkpt>
      <trkpt lat="46.30067" lon="4.68831">
        <ele>461</ele>
        <time>2014-09-28T07:44:03Z</time>
      </trkpt>
      <trkpt lat="46.3006" lon="4.68828">
        <ele>461</ele>
        <time>2014-09-28T07:44:05Z</time>
      </trkpt>
      <trkpt lat="46.30057" lon="4.68827">
        <ele>461</ele>
        <time>2014-09-28T07:44:06Z</time>
      </trkpt>
      <trkpt lat="46.3005" lon="4.68825">
        <ele>461</ele>
        <time>2014-09-28T07:44:08Z</time>
      </trkpt>
      <trkpt lat="46.30047" lon="4.68824">
        <ele>461</ele>
        <time>2014-09-28T07:44:09Z</time>
      </trkpt>
      <trkpt lat="46.30039" lon="4.68823">
        <ele>462</ele>
        <time>2014-09-28T07:44:12Z</time>
      </trkpt>
      <trkpt lat="46.30037" lon="4.68823">
        <ele>462</ele>
        <time>2014-09-28T07:44:13Z</time>
      </trkpt>
      <trkpt lat="46.30028" lon="4.68823">
        <ele>463</ele>
        <time>2014-09-28T07:44:17Z</time>
      </trkpt>
      <trkpt lat="46.30026" lon="4.68823">
        <ele>463</ele>
        <time>2014-09-28T07:44:18Z</time>
      </trkpt>
      <trkpt lat="46.30018" lon="4.68824">
        <ele>465</ele>
        <time>2014-09-28T07:44:21Z</time>
      </trkpt>
      <trkpt lat="46.30015" lon="4.68824">
        <ele>465</ele>
        <time>2014-09-28T07:44:22Z</time>
      </trkpt>
      <trkpt lat="46.30007" lon="4.68823">
        <ele>467</ele>
        <time>2014-09-28T07:44:25Z</time>
      </trkpt>
      <trkpt lat="46.30004" lon="4.68823">
        <ele>467</ele>
        <time>2014-09-28T07:44:26Z</time>
      </trkpt>
      <trkpt lat="46.29996" lon="4.68821">
        <ele>469</ele>
        <time>2014-09-28T07:44:29Z</time>
      </trkpt>
      <trkpt lat="46.29994" lon="4.68821">
        <ele>469</ele>
        <time>2014-09-28T07:44:30Z</time>
      </trkpt>
      <trkpt lat="46.29987" lon="4.68819">
        <ele>469</ele>
        <time>2014-09-28T07:44:34Z</time>
      </trkpt>
      <trkpt lat="46.29985" lon="4.68818">
        <ele>468</ele>
        <time>2014-09-28T07:44:35Z</time>
      </trkpt>
      <trkpt lat="46.29977" lon="4.68817">
        <ele>468</ele>
        <time>2014-09-28T07:44:39Z</time>
      </trkpt>
      <trkpt lat="46.29975" lon="4.68818">
        <ele>468</ele>
        <time>2014-09-28T07:44:40Z</time>
      </trkpt>
      <trkpt lat="46.29968" lon="4.6882">
        <ele>468</ele>
        <time>2014-09-28T07:44:44Z</time>
      </trkpt>
      <trkpt lat="46.29966" lon="4.68821">
        <ele>468</ele>
        <time>2014-09-28T07:44:45Z</time>
      </trkpt>
      <trkpt lat="46.29958" lon="4.68822">
        <ele>468</ele>
        <time>2014-09-28T07:44:51Z</time>
      </trkpt>
      <trkpt lat="46.29957" lon="4.68822">
        <ele>468</ele>
        <time>2014-09-28T07:44:52Z</time>
      </trkpt>
      <trkpt lat="46.29949" lon="4.68823">
        <ele>469</ele>
        <time>2014-09-28T07:44:57Z</time>
      </trkpt>
      <trkpt lat="46.29947" lon="4.68823">
        <ele>469</ele>
        <time>2014-09-28T07:44:58Z</time>
      </trkpt>
      <trkpt lat="46.2994" lon="4.68824">
        <ele>470</ele>
        <time>2014-09-28T07:45:02Z</time>
      </trkpt>
      <trkpt lat="46.29938" lon="4.68825">
        <ele>470</ele>
        <time>2014-09-28T07:45:03Z</time>
      </trkpt>
      <trkpt lat="46.29929" lon="4.68827">
        <ele>472</ele>
        <time>2014-09-28T07:45:08Z</time>
      </trkpt>
      <trkpt lat="46.29928" lon="4.68828">
        <ele>473</ele>
        <time>2014-09-28T07:45:09Z</time>
      </trkpt>
      <trkpt lat="46.2992" lon="4.68831">
        <ele>475</ele>
        <time>2014-09-28T07:45:15Z</time>
      </trkpt>
      <trkpt lat="46.29918" lon="4.68832">
        <ele>476</ele>
        <time>2014-09-28T07:45:16Z</time>
      </trkpt>
      <trkpt lat="46.29911" lon="4.68834">
        <ele>479</ele>
        <time>2014-09-28T07:45:20Z</time>
      </trkpt>
      <trkpt lat="46.29909" lon="4.68835">
        <ele>479</ele>
        <time>2014-09-28T07:45:21Z</time>
      </trkpt>
      <trkpt lat="46.299" lon="4.68838">
        <ele>480</ele>
        <time>2014-09-28T07:45:25Z</time>
      </trkpt>
      <trkpt lat="46.29898" lon="4.68839">
        <ele>481</ele>
        <time>2014-09-28T07:45:26Z</time>
      </trkpt>
      <trkpt lat="46.29892" lon="4.68843">
        <ele>482</ele>
        <time>2014-09-28T07:45:30Z</time>
      </trkpt>
      <trkpt lat="46.2989" lon="4.68844">
        <ele>482</ele>
        <time>2014-09-28T07:45:31Z</time>
      </trkpt>
      <trkpt lat="46.29881" lon="4.68846">
        <ele>482</ele>
        <time>2014-09-28T07:45:36Z</time>
      </trkpt>
      <trkpt lat="46.2988" lon="4.68847">
        <ele>482</ele>
        <time>2014-09-28T07:45:37Z</time>
      </trkpt>
      <trkpt lat="46.29872" lon="4.68851">
        <ele>482</ele>
        <time>2014-09-28T07:45:41Z</time>
      </trkpt>
      <trkpt lat="46.29871" lon="4.68852">
        <ele>482</ele>
        <time>2014-09-28T07:45:42Z</time>
      </trkpt>
      <trkpt lat="46.29862" lon="4.68856">
        <ele>482</ele>
        <time>2014-09-28T07:45:47Z</time>
      </trkpt>
      <trkpt lat="46.29861" lon="4.68858">
        <ele>482</ele>
        <time>2014-09-28T07:45:48Z</time>
      </trkpt>
      <trkpt lat="46.29854" lon="4.68864">
        <ele>483</ele>
        <time>2014-09-28T07:45:53Z</time>
      </trkpt>
      <trkpt lat="46.29853" lon="4.68866">
        <ele>483</ele>
        <time>2014-09-28T07:45:54Z</time>
      </trkpt>
      <trkpt lat="46.29847" lon="4.68874">
        <ele>484</ele>
        <time>2014-09-28T07:45:59Z</time>
      </trkpt>
      <trkpt lat="46.29846" lon="4.68876">
        <ele>485</ele>
        <time>2014-09-28T07:46:00Z</time>
      </trkpt>
      <trkpt lat="46.2984" lon="4.68886">
        <ele>486</ele>
        <time>2014-09-28T07:46:05Z</time>
      </trkpt>
      <trkpt lat="46.29839" lon="4.68888">
        <ele>486</ele>
        <time>2014-09-28T07:46:06Z</time>
      </trkpt>
      <trkpt lat="46.29831" lon="4.68893">
        <ele>485</ele>
        <time>2014-09-28T07:46:11Z</time>
      </trkpt>
      <trkpt lat="46.2983" lon="4.68895">
        <ele>485</ele>
        <time>2014-09-28T07:46:12Z</time>
      </trkpt>
      <trkpt lat="46.29827" lon="4.68904">
        <ele>487</ele>
        <time>2014-09-28T07:46:17Z</time>
      </trkpt>
      <trkpt lat="46.29826" lon="4.68906">
        <ele>488</ele>
        <time>2014-09-28T07:46:18Z</time>
      </trkpt>
      <trkpt lat="46.29822" lon="4.68915">
        <ele>488</ele>
        <time>2014-09-28T07:46:22Z</time>
      </trkpt>
      <trkpt lat="46.2982" lon="4.68917">
        <ele>488</ele>
        <time>2014-09-28T07:46:23Z</time>
      </trkpt>
      <trkpt lat="46.29815" lon="4.68927">
        <ele>495</ele>
        <time>2014-09-28T07:46:28Z</time>
      </trkpt>
      <trkpt lat="46.29814" lon="4.68929">
        <ele>496</ele>
        <time>2014-09-28T07:46:29Z</time>
      </trkpt>
      <trkpt lat="46.29808" lon="4.68936">
        <ele>496</ele>
        <time>2014-09-28T07:46:33Z</time>
      </trkpt>
      <trkpt lat="46.29807" lon="4.68939">
        <ele>496</ele>
        <time>2014-09-28T07:46:34Z</time>
      </trkpt>
      <trkpt lat="46.29802" lon="4.68948">
        <ele>497</ele>
        <time>2014-09-28T07:46:38Z</time>
      </trkpt>
      <trkpt lat="46.29801" lon="4.68953">
        <ele>498</ele>
        <time>2014-09-28T07:46:39Z</time>
      </trkpt>
      <trkpt lat="46.29797" lon="4.6896">
        <ele>498</ele>
        <time>2014-09-28T07:46:41Z</time>
      </trkpt>
      <trkpt lat="46.29795" lon="4.68963">
        <ele>498</ele>
        <time>2014-09-28T07:46:42Z</time>
      </trkpt>
      <trkpt lat="46.2979" lon="4.68969">
        <ele>499</ele>
        <time>2014-09-28T07:46:44Z</time>
      </trkpt>
      <trkpt lat="46.29787" lon="4.68972">
        <ele>499</ele>
        <time>2014-09-28T07:46:45Z</time>
      </trkpt>
      <trkpt lat="46.29781" lon="4.68977">
        <ele>499</ele>
        <time>2014-09-28T07:46:47Z</time>
      </trkpt>
      <trkpt lat="46.29779" lon="4.68979">
        <ele>499</ele>
        <time>2014-09-28T07:46:48Z</time>
      </trkpt>
      <trkpt lat="46.29771" lon="4.68983">
        <ele>500</ele>
        <time>2014-09-28T07:46:51Z</time>
      </trkpt>
      <trkpt lat="46.29769" lon="4.68984">
        <ele>500</ele>
        <time>2014-09-28T07:46:52Z</time>
      </trkpt>
      <trkpt lat="46.29762" lon="4.68989">
        <ele>501</ele>
        <time>2014-09-28T07:46:56Z</time>
      </trkpt>
      <trkpt lat="46.2976" lon="4.6899">
        <ele>501</ele>
        <time>2014-09-28T07:46:57Z</time>
      </trkpt>
      <trkpt lat="46.29752" lon="4.68994">
        <ele>502</ele>
        <time>2014-09-28T07:47:01Z</time>
      </trkpt>
      <trkpt lat="46.2975" lon="4.68996">
        <ele>502</ele>
        <time>2014-09-28T07:47:02Z</time>
      </trkpt>
      <trkpt lat="46.29745" lon="4.69">
        <ele>504</ele>
        <time>2014-09-28T07:47:05Z</time>
      </trkpt>
      <trkpt lat="46.29742" lon="4.69001">
        <ele>504</ele>
        <time>2014-09-28T07:47:06Z</time>
      </trkpt>
      <trkpt lat="46.29734" lon="4.69002">
        <ele>505</ele>
        <time>2014-09-28T07:47:09Z</time>
      </trkpt>
      <trkpt lat="46.29731" lon="4.69003">
        <ele>505</ele>
        <time>2014-09-28T07:47:10Z</time>
      </trkpt>
      <trkpt lat="46.29724" lon="4.69004">
        <ele>505</ele>
        <time>2014-09-28T07:47:13Z</time>
      </trkpt>
      <trkpt lat="46.29722" lon="4.69005">
        <ele>505</ele>
        <time>2014-09-28T07:47:14Z</time>
      </trkpt>
      <trkpt lat="46.29716" lon="4.69012">
        <ele>505</ele>
        <time>2014-09-28T07:47:19Z</time>
      </trkpt>
      <trkpt lat="46.29714" lon="4.69013">
        <ele>505</ele>
        <time>2014-09-28T07:47:20Z</time>
      </trkpt>
      <trkpt lat="46.29709" lon="4.69021">
        <ele>505</ele>
        <time>2014-09-28T07:47:24Z</time>
      </trkpt>
      <trkpt lat="46.29708" lon="4.69023">
        <ele>505</ele>
        <time>2014-09-28T07:47:25Z</time>
      </trkpt>
      <trkpt lat="46.297" lon="4.69031">
        <ele>506</ele>
        <time>2014-09-28T07:47:30Z</time>
      </trkpt>
      <trkpt lat="46.29699" lon="4.69032">
        <ele>506</ele>
        <time>2014-09-28T07:47:31Z</time>
      </trkpt>
      <trkpt lat="46.29693" lon="4.69039">
        <ele>506</ele>
        <time>2014-09-28T07:47:36Z</time>
      </trkpt>
      <trkpt lat="46.29691" lon="4.6904">
        <ele>506</ele>
        <time>2014-09-28T07:47:37Z</time>
      </trkpt>
      <trkpt lat="46.29683" lon="4.69046">
        <ele>507</ele>
        <time>2014-09-28T07:47:43Z</time>
      </trkpt>
      <trkpt lat="46.29682" lon="4.69047">
        <ele>507</ele>
        <time>2014-09-28T07:47:44Z</time>
      </trkpt>
      <trkpt lat="46.29677" lon="4.69056">
        <ele>508</ele>
        <time>2014-09-28T07:47:49Z</time>
      </trkpt>
      <trkpt lat="46.29676" lon="4.69058">
        <ele>508</ele>
        <time>2014-09-28T07:47:50Z</time>
      </trkpt>
      <trkpt lat="46.2967" lon="4.69068">
        <ele>510</ele>
        <time>2014-09-28T07:47:55Z</time>
      </trkpt>
      <trkpt lat="46.2967" lon="4.69071">
        <ele>510</ele>
        <time>2014-09-28T07:47:56Z</time>
      </trkpt>
      <trkpt lat="46.29665" lon="4.69079">
        <ele>511</ele>
        <time>2014-09-28T07:48:03Z</time>
      </trkpt>
      <trkpt lat="46.29664" lon="4.69081">
        <ele>511</ele>
        <time>2014-09-28T07:48:04Z</time>
      </trkpt>
      <trkpt lat="46.29661" lon="4.69092">
        <ele>514</ele>
        <time>2014-09-28T07:48:11Z</time>
      </trkpt>
      <trkpt lat="46.29661" lon="4.69093">
        <ele>514</ele>
        <time>2014-09-28T07:48:12Z</time>
      </trkpt>
      <trkpt lat="46.29655" lon="4.69102">
        <ele>515</ele>
        <time>2014-09-28T07:48:19Z</time>
      </trkpt>
      <trkpt lat="46.29654" lon="4.69104">
        <ele>515</ele>
        <time>2014-09-28T07:48:20Z</time>
      </trkpt>
      <trkpt lat="46.2965" lon="4.69115">
        <ele>516</ele>
        <time>2014-09-28T07:48:26Z</time>
      </trkpt>
      <trkpt lat="46.29648" lon="4.69116">
        <ele>517</ele>
        <time>2014-09-28T07:48:27Z</time>
      </trkpt>
      <trkpt lat="46.29643" lon="4.69122">
        <ele>517</ele>
        <time>2014-09-28T07:48:32Z</time>
      </trkpt>
      <trkpt lat="46.29641" lon="4.69125">
        <ele>517</ele>
        <time>2014-09-28T07:48:33Z</time>
      </trkpt>
      <trkpt lat="46.29635" lon="4.69135">
        <ele>518</ele>
        <time>2014-09-28T07:48:35Z</time>
      </trkpt>
      <trkpt lat="46.29632" lon="4.69139">
        <ele>518</ele>
        <time>2014-09-28T07:48:36Z</time>
      </trkpt>
      <trkpt lat="46.29625" lon="4.69145">
        <ele>518</ele>
        <time>2014-09-28T07:48:38Z</time>
      </trkpt>
      <trkpt lat="46.29621" lon="4.69148">
        <ele>518</ele>
        <time>2014-09-28T07:48:39Z</time>
      </trkpt>
      <trkpt lat="46.29614" lon="4.69153">
        <ele>518</ele>
        <time>2014-09-28T07:48:41Z</time>
      </trkpt>
      <trkpt lat="46.29611" lon="4.69156">
        <ele>518</ele>
        <time>2014-09-28T07:48:42Z</time>
      </trkpt>
      <trkpt lat="46.29605" lon="4.69162">
        <ele>518</ele>
        <time>2014-09-28T07:48:45Z</time>
      </trkpt>
      <trkpt lat="46.29602" lon="4.69164">
        <ele>518</ele>
        <time>2014-09-28T07:48:46Z</time>
      </trkpt>
      <trkpt lat="46.29597" lon="4.69168">
        <ele>523</ele>
        <time>2014-09-28T07:48:48Z</time>
      </trkpt>
      <trkpt lat="46.29594" lon="4.69171">
        <ele>523</ele>
        <time>2014-09-28T07:48:49Z</time>
      </trkpt>
      <trkpt lat="46.29588" lon="4.6918">
        <ele>524</ele>
        <time>2014-09-28T07:48:52Z</time>
      </trkpt>
      <trkpt lat="46.29586" lon="4.69183">
        <ele>524</ele>
        <time>2014-09-28T07:48:53Z</time>
      </trkpt>
      <trkpt lat="46.29579" lon="4.69191">
        <ele>519</ele>
        <time>2014-09-28T07:48:56Z</time>
      </trkpt>
      <trkpt lat="46.29577" lon="4.69194">
        <ele>519</ele>
        <time>2014-09-28T07:48:57Z</time>
      </trkpt>
      <trkpt lat="46.29571" lon="4.692">
        <ele>519</ele>
        <time>2014-09-28T07:49:00Z</time>
      </trkpt>
      <trkpt lat="46.29569" lon="4.69202">
        <ele>519</ele>
        <time>2014-09-28T07:49:01Z</time>
      </trkpt>
      <trkpt lat="46.29564" lon="4.6921">
        <ele>520</ele>
        <time>2014-09-28T07:49:04Z</time>
      </trkpt>
      <trkpt lat="46.29562" lon="4.69213">
        <ele>520</ele>
        <time>2014-09-28T07:49:05Z</time>
      </trkpt>
      <trkpt lat="46.29557" lon="4.69224">
        <ele>520</ele>
        <time>2014-09-28T07:49:08Z</time>
      </trkpt>
      <trkpt lat="46.29555" lon="4.69227">
        <ele>520</ele>
        <time>2014-09-28T07:49:09Z</time>
      </trkpt>
      <trkpt lat="46.29549" lon="4.69234">
        <ele>520</ele>
        <time>2014-09-28T07:49:11Z</time>
      </trkpt>
      <trkpt lat="46.29547" lon="4.69238">
        <ele>520</ele>
        <time>2014-09-28T07:49:12Z</time>
      </trkpt>
      <trkpt lat="46.29542" lon="4.69246">
        <ele>520</ele>
        <time>2014-09-28T07:49:14Z</time>
      </trkpt>
      <trkpt lat="46.2954" lon="4.69251">
        <ele>526</ele>
        <time>2014-09-28T07:49:15Z</time>
      </trkpt>
      <trkpt lat="46.29535" lon="4.69259">
        <ele>526</ele>
        <time>2014-09-28T07:49:17Z</time>
      </trkpt>
      <trkpt lat="46.29533" lon="4.69263">
        <ele>526</ele>
        <time>2014-09-28T07:49:18Z</time>
      </trkpt>
      <trkpt lat="46.29529" lon="4.69271">
        <ele>526</ele>
        <time>2014-09-28T07:49:20Z</time>
      </trkpt>
      <trkpt lat="46.29526" lon="4.69275">
        <ele>526</ele>
        <time>2014-09-28T07:49:21Z</time>
      </trkpt>
      <trkpt lat="46.2952" lon="4.69282">
        <ele>526</ele>
        <time>2014-09-28T07:49:23Z</time>
      </trkpt>
      <trkpt lat="46.29517" lon="4.69285">
        <ele>527</ele>
        <time>2014-09-28T07:49:24Z</time>
      </trkpt>
      <trkpt lat="46.29511" lon="4.69291">
        <ele>527</ele>
        <time>2014-09-28T07:49:26Z</time>
      </trkpt>
      <trkpt lat="46.29507" lon="4.69294">
        <ele>527</ele>
        <time>2014-09-28T07:49:27Z</time>
      </trkpt>
      <trkpt lat="46.29501" lon="4.69301">
        <ele>527</ele>
        <time>2014-09-28T07:49:29Z</time>
      </trkpt>
      <trkpt lat="46.29498" lon="4.69305">
        <ele>523</ele>
        <time>2014-09-28T07:49:30Z</time>
      </trkpt>
      <trkpt lat="46.29495" lon="4.6931">
        <ele>523</ele>
        <time>2014-09-28T07:49:31Z</time>
      </trkpt>
      <trkpt lat="46.29491" lon="4.69315">
        <ele>524</ele>
        <time>2014-09-28T07:49:32Z</time>
      </trkpt>
      <trkpt lat="46.29484" lon="4.69323">
        <ele>524</ele>
        <time>2014-09-28T07:49:34Z</time>
      </trkpt>
      <trkpt lat="46.29481" lon="4.69326">
        <ele>524</ele>
        <time>2014-09-28T07:49:35Z</time>
      </trkpt>
      <trkpt lat="46.29475" lon="4.69335">
        <ele>527</ele>
        <time>2014-09-28T07:49:37Z</time>
      </trkpt>
      <trkpt lat="46.29473" lon="4.69339">
        <ele>527</ele>
        <time>2014-09-28T07:49:38Z</time>
      </trkpt>
      <trkpt lat="46.29468" lon="4.69348">
        <ele>526</ele>
        <time>2014-09-28T07:49:40Z</time>
      </trkpt>
      <trkpt lat="46.29465" lon="4.69353">
        <ele>526</ele>
        <time>2014-09-28T07:49:41Z</time>
      </trkpt>
      <trkpt lat="46.29458" lon="4.6936">
        <ele>526</ele>
        <time>2014-09-28T07:49:44Z</time>
      </trkpt>
      <trkpt lat="46.29455" lon="4.69364">
        <ele>526</ele>
        <time>2014-09-28T07:49:44Z</time>
      </trkpt>
      <trkpt lat="46.29449" lon="4.69372">
        <ele>525</ele>
        <time>2014-09-28T07:49:46Z</time>
      </trkpt>
      <trkpt lat="46.29445" lon="4.69375">
        <ele>525</ele>
        <time>2014-09-28T07:49:47Z</time>
      </trkpt>
      <trkpt lat="46.29439" lon="4.69381">
        <ele>525</ele>
        <time>2014-09-28T07:49:49Z</time>
      </trkpt>
      <trkpt lat="46.29436" lon="4.69384">
        <ele>525</ele>
        <time>2014-09-28T07:49:50Z</time>
      </trkpt>
      <trkpt lat="46.29432" lon="4.69385">
        <ele>525</ele>
        <time>2014-09-28T07:49:51Z</time>
      </trkpt>
      <trkpt lat="46.29426" lon="4.69385">
        <ele>525</ele>
        <time>2014-09-28T07:49:52Z</time>
      </trkpt>
      <trkpt lat="46.2942" lon="4.69386">
        <ele>525</ele>
        <time>2014-09-28T07:49:53Z</time>
      </trkpt>
      <trkpt lat="46.29415" lon="4.69386">
        <ele>521</ele>
        <time>2014-09-28T07:49:54Z</time>
      </trkpt>
      <trkpt lat="46.29409" lon="4.69386">
        <ele>521</ele>
        <time>2014-09-28T07:49:55Z</time>
      </trkpt>
      <trkpt lat="46.29402" lon="4.69388">
        <ele>521</ele>
        <time>2014-09-28T07:49:56Z</time>
      </trkpt>
      <trkpt lat="46.29395" lon="4.6939">
        <ele>521</ele>
        <time>2014-09-28T07:49:57Z</time>
      </trkpt>
      <trkpt lat="46.29389" lon="4.69392">
        <ele>521</ele>
        <time>2014-09-28T07:49:58Z</time>
      </trkpt>
      <trkpt lat="46.29384" lon="4.69393">
        <ele>521</ele>
        <time>2014-09-28T07:49:59Z</time>
      </trkpt>
      <trkpt lat="46.29378" lon="4.69395">
        <ele>521</ele>
        <time>2014-09-28T07:50:00Z</time>
      </trkpt>
      <trkpt lat="46.29373" lon="4.69396">
        <ele>521</ele>
        <time>2014-09-28T07:50:01Z</time>
      </trkpt>
      <trkpt lat="46.29367" lon="4.69398">
        <ele>521</ele>
        <time>2014-09-28T07:50:02Z</time>
      </trkpt>
      <trkpt lat="46.29362" lon="4.69401">
        <ele>521</ele>
        <time>2014-09-28T07:50:03Z</time>
      </trkpt>
      <trkpt lat="46.29356" lon="4.69405">
        <ele>521</ele>
        <time>2014-09-28T07:50:04Z</time>
      </trkpt>
      <trkpt lat="46.2935" lon="4.69409">
        <ele>521</ele>
        <time>2014-09-28T07:50:05Z</time>
      </trkpt>
      <trkpt lat="46.29345" lon="4.69413">
        <ele>521</ele>
        <time>2014-09-28T07:50:06Z</time>
      </trkpt>
      <trkpt lat="46.2934" lon="4.69418">
        <ele>522</ele>
        <time>2014-09-28T07:50:07Z</time>
      </trkpt>
      <trkpt lat="46.29334" lon="4.69422">
        <ele>522</ele>
        <time>2014-09-28T07:50:08Z</time>
      </trkpt>
      <trkpt lat="46.2933" lon="4.69426">
        <ele>521</ele>
        <time>2014-09-28T07:50:09Z</time>
      </trkpt>
      <trkpt lat="46.29324" lon="4.69431">
        <ele>521</ele>
        <time>2014-09-28T07:50:10Z</time>
      </trkpt>
      <trkpt lat="46.2932" lon="4.69436">
        <ele>521</ele>
        <time>2014-09-28T07:50:11Z</time>
      </trkpt>
      <trkpt lat="46.29314" lon="4.69441">
        <ele>520</ele>
        <time>2014-09-28T07:50:12Z</time>
      </trkpt>
      <trkpt lat="46.29309" lon="4.69446">
        <ele>520</ele>
        <time>2014-09-28T07:50:13Z</time>
      </trkpt>
      <trkpt lat="46.29303" lon="4.69449">
        <ele>520</ele>
        <time>2014-09-28T07:50:14Z</time>
      </trkpt>
      <trkpt lat="46.29297" lon="4.69451">
        <ele>520</ele>
        <time>2014-09-28T07:50:15Z</time>
      </trkpt>
      <trkpt lat="46.2929" lon="4.69453">
        <ele>520</ele>
        <time>2014-09-28T07:50:16Z</time>
      </trkpt>
      <trkpt lat="46.29284" lon="4.69454">
        <ele>520</ele>
        <time>2014-09-28T07:50:17Z</time>
      </trkpt>
      <trkpt lat="46.29278" lon="4.69457">
        <ele>520</ele>
        <time>2014-09-28T07:50:18Z</time>
      </trkpt>
      <trkpt lat="46.29273" lon="4.69459">
        <ele>520</ele>
        <time>2014-09-28T07:50:19Z</time>
      </trkpt>
      <trkpt lat="46.29269" lon="4.69461">
        <ele>520</ele>
        <time>2014-09-28T07:50:20Z</time>
      </trkpt>
      <trkpt lat="46.29265" lon="4.69465">
        <ele>520</ele>
        <time>2014-09-28T07:50:21Z</time>
      </trkpt>
      <trkpt lat="46.2926" lon="4.69469">
        <ele>520</ele>
        <time>2014-09-28T07:50:22Z</time>
      </trkpt>
      <trkpt lat="46.29256" lon="4.69471">
        <ele>520</ele>
        <time>2014-09-28T07:50:23Z</time>
      </trkpt>
      <trkpt lat="46.29251" lon="4.69476">
        <ele>520</ele>
        <time>2014-09-28T07:50:24Z</time>
      </trkpt>
      <trkpt lat="46.29246" lon="4.69478">
        <ele>522</ele>
        <time>2014-09-28T07:50:25Z</time>
      </trkpt>
      <trkpt lat="46.29242" lon="4.69479">
        <ele>522</ele>
        <time>2014-09-28T07:50:26Z</time>
      </trkpt>
      <trkpt lat="46.29237" lon="4.6948">
        <ele>522</ele>
        <time>2014-09-28T07:50:27Z</time>
      </trkpt>
      <trkpt lat="46.29231" lon="4.6948">
        <ele>522</ele>
        <time>2014-09-28T07:50:28Z</time>
      </trkpt>
      <trkpt lat="46.29223" lon="4.69479">
        <ele>522</ele>
        <time>2014-09-28T07:50:30Z</time>
      </trkpt>
      <trkpt lat="46.29221" lon="4.69477">
        <ele>523</ele>
        <time>2014-09-28T07:50:31Z</time>
      </trkpt>
      <trkpt lat="46.29214" lon="4.69469">
        <ele>523</ele>
        <time>2014-09-28T07:51:34Z</time>
      </trkpt>
      <trkpt lat="46.29214" lon="4.69469">
        <ele>523</ele>
        <time>2014-09-28T07:51:35Z</time>
      </trkpt>
      <trkpt lat="46.29209" lon="4.69475">
        <ele>523</ele>
        <time>2014-09-28T07:53:36Z</time>
      </trkpt>
      <trkpt lat="46.29206" lon="4.69476">
        <ele>523</ele>
        <time>2014-09-28T07:53:37Z</time>
      </trkpt>
      <trkpt lat="46.292" lon="4.69475">
        <ele>524</ele>
        <time>2014-09-28T07:53:39Z</time>
      </trkpt>
      <trkpt lat="46.29196" lon="4.69475">
        <ele>524</ele>
        <time>2014-09-28T07:53:40Z</time>
      </trkpt>
      <trkpt lat="46.29188" lon="4.69478">
        <ele>524</ele>
        <time>2014-09-28T07:53:43Z</time>
      </trkpt>
      <trkpt lat="46.29185" lon="4.69479">
        <ele>524</ele>
        <time>2014-09-28T07:53:44Z</time>
      </trkpt>
      <trkpt lat="46.29178" lon="4.69486">
        <ele>525</ele>
        <time>2014-09-28T07:53:47Z</time>
      </trkpt>
      <trkpt lat="46.29176" lon="4.69488">
        <ele>525</ele>
        <time>2014-09-28T07:53:48Z</time>
      </trkpt>
      <trkpt lat="46.2917" lon="4.69497">
        <ele>526</ele>
        <time>2014-09-28T07:53:51Z</time>
      </trkpt>
      <trkpt lat="46.29169" lon="4.69501">
        <ele>526</ele>
        <time>2014-09-28T07:53:52Z</time>
      </trkpt>
      <trkpt lat="46.29166" lon="4.69511">
        <ele>529</ele>
        <time>2014-09-28T07:53:55Z</time>
      </trkpt>
      <trkpt lat="46.29164" lon="4.69515">
        <ele>529</ele>
        <time>2014-09-28T07:53:56Z</time>
      </trkpt>
      <trkpt lat="46.2916" lon="4.69526">
        <ele>530</ele>
        <time>2014-09-28T07:53:59Z</time>
      </trkpt>
      <trkpt lat="46.29159" lon="4.69529">
        <ele>530</ele>
        <time>2014-09-28T07:54:00Z</time>
      </trkpt>
      <trkpt lat="46.29154" lon="4.6954">
        <ele>530</ele>
        <time>2014-09-28T07:54:03Z</time>
      </trkpt>
      <trkpt lat="46.29152" lon="4.69543">
        <ele>530</ele>
        <time>2014-09-28T07:54:04Z</time>
      </trkpt>
      <trkpt lat="46.29145" lon="4.69552">
        <ele>530</ele>
        <time>2014-09-28T07:54:07Z</time>
      </trkpt>
      <trkpt lat="46.29143" lon="4.69555">
        <ele>530</ele>
        <time>2014-09-28T07:54:08Z</time>
      </trkpt>
      <trkpt lat="46.29139" lon="4.69562">
        <ele>530</ele>
        <time>2014-09-28T07:54:10Z</time>
      </trkpt>
      <trkpt lat="46.29137" lon="4.69565">
        <ele>530</ele>
        <time>2014-09-28T07:54:11Z</time>
      </trkpt>
      <trkpt lat="46.29132" lon="4.6957">
        <ele>531</ele>
        <time>2014-09-28T07:54:13Z</time>
      </trkpt>
      <trkpt lat="46.2913" lon="4.69573">
        <ele>531</ele>
        <time>2014-09-28T07:54:14Z</time>
      </trkpt>
      <trkpt lat="46.29125" lon="4.69579">
        <ele>531</ele>
        <time>2014-09-28T07:54:16Z</time>
      </trkpt>
      <trkpt lat="46.29122" lon="4.69581">
        <ele>531</ele>
        <time>2014-09-28T07:54:17Z</time>
      </trkpt>
      <trkpt lat="46.29117" lon="4.69586">
        <ele>528</ele>
        <time>2014-09-28T07:54:19Z</time>
      </trkpt>
      <trkpt lat="46.29115" lon="4.69588">
        <ele>528</ele>
        <time>2014-09-28T07:54:20Z</time>
      </trkpt>
      <trkpt lat="46.29107" lon="4.69594">
        <ele>529</ele>
        <time>2014-09-28T07:54:24Z</time>
      </trkpt>
      <trkpt lat="46.29105" lon="4.69596">
        <ele>529</ele>
        <time>2014-09-28T07:54:25Z</time>
      </trkpt>
      <trkpt lat="46.29097" lon="4.69598">
        <ele>530</ele>
        <time>2014-09-28T07:54:28Z</time>
      </trkpt>
      <trkpt lat="46.29093" lon="4.69598">
        <ele>530</ele>
        <time>2014-09-28T07:54:29Z</time>
      </trkpt>
      <trkpt lat="46.29087" lon="4.69597">
        <ele>531</ele>
        <time>2014-09-28T07:54:31Z</time>
      </trkpt>
      <trkpt lat="46.29084" lon="4.69597">
        <ele>531</ele>
        <time>2014-09-28T07:54:32Z</time>
      </trkpt>
      <trkpt lat="46.29076" lon="4.69595">
        <ele>534</ele>
        <time>2014-09-28T07:54:35Z</time>
      </trkpt>
      <trkpt lat="46.29073" lon="4.69595">
        <ele>534</ele>
        <time>2014-09-28T07:54:36Z</time>
      </trkpt>
      <trkpt lat="46.29065" lon="4.69591">
        <ele>534</ele>
        <time>2014-09-28T07:54:40Z</time>
      </trkpt>
      <trkpt lat="46.29064" lon="4.69589">
        <ele>534</ele>
        <time>2014-09-28T07:54:41Z</time>
      </trkpt>
      <trkpt lat="46.29065" lon="4.69578">
        <ele>539</ele>
        <time>2014-09-28T07:54:46Z</time>
      </trkpt>
      <trkpt lat="46.29067" lon="4.69576">
        <ele>539</ele>
        <time>2014-09-28T07:54:47Z</time>
      </trkpt>
      <trkpt lat="46.29072" lon="4.69568">
        <ele>539</ele>
        <time>2014-09-28T07:54:51Z</time>
      </trkpt>
      <trkpt lat="46.29072" lon="4.69566">
        <ele>540</ele>
        <time>2014-09-28T07:54:52Z</time>
      </trkpt>
      <trkpt lat="46.29076" lon="4.69557">
        <ele>541</ele>
        <time>2014-09-28T07:54:56Z</time>
      </trkpt>
      <trkpt lat="46.29077" lon="4.69554">
        <ele>541</ele>
        <time>2014-09-28T07:54:57Z</time>
      </trkpt>
      <trkpt lat="46.2908" lon="4.69544">
        <ele>542</ele>
        <time>2014-09-28T07:55:01Z</time>
      </trkpt>
      <trkpt lat="46.2908" lon="4.69541">
        <ele>542</ele>
        <time>2014-09-28T07:55:02Z</time>
      </trkpt>
      <trkpt lat="46.29082" lon="4.6953">
        <ele>543</ele>
        <time>2014-09-28T07:55:06Z</time>
      </trkpt>
      <trkpt lat="46.29082" lon="4.69527">
        <ele>543</ele>
        <time>2014-09-28T07:55:07Z</time>
      </trkpt>
      <trkpt lat="46.29079" lon="4.69516">
        <ele>544</ele>
        <time>2014-09-28T07:55:11Z</time>
      </trkpt>
      <trkpt lat="46.29078" lon="4.69513">
        <ele>544</ele>
        <time>2014-09-28T07:55:12Z</time>
      </trkpt>
      <trkpt lat="46.29076" lon="4.69501">
        <ele>545</ele>
        <time>2014-09-28T07:55:17Z</time>
      </trkpt>
      <trkpt lat="46.29075" lon="4.69498">
        <ele>547</ele>
        <time>2014-09-28T07:55:18Z</time>
      </trkpt>
      <trkpt lat="46.29074" lon="4.69487">
        <ele>549</ele>
        <time>2014-09-28T07:55:22Z</time>
      </trkpt>
      <trkpt lat="46.29074" lon="4.69484">
        <ele>549</ele>
        <time>2014-09-28T07:55:23Z</time>
      </trkpt>
      <trkpt lat="46.29074" lon="4.69471">
        <ele>551</ele>
        <time>2014-09-28T07:55:27Z</time>
      </trkpt>
      <trkpt lat="46.29073" lon="4.69468">
        <ele>551</ele>
        <time>2014-09-28T07:55:28Z</time>
      </trkpt>
      <trkpt lat="46.29071" lon="4.69458">
        <ele>552</ele>
        <time>2014-09-28T07:55:31Z</time>
      </trkpt>
      <trkpt lat="46.29071" lon="4.69454">
        <ele>552</ele>
        <time>2014-09-28T07:55:32Z</time>
      </trkpt>
      <trkpt lat="46.29069" lon="4.69442">
        <ele>552</ele>
        <time>2014-09-28T07:55:35Z</time>
      </trkpt>
      <trkpt lat="46.29069" lon="4.69438">
        <ele>552</ele>
        <time>2014-09-28T07:55:36Z</time>
      </trkpt>
      <trkpt lat="46.29068" lon="4.69426">
        <ele>552</ele>
        <time>2014-09-28T07:55:39Z</time>
      </trkpt>
      <trkpt lat="46.29068" lon="4.69422">
        <ele>552</ele>
        <time>2014-09-28T07:55:40Z</time>
      </trkpt>
      <trkpt lat="46.29066" lon="4.6941">
        <ele>554</ele>
        <time>2014-09-28T07:55:43Z</time>
      </trkpt>
      <trkpt lat="46.29065" lon="4.69406">
        <ele>554</ele>
        <time>2014-09-28T07:55:44Z</time>
      </trkpt>
      <trkpt lat="46.29064" lon="4.69395">
        <ele>555</ele>
        <time>2014-09-28T07:55:47Z</time>
      </trkpt>
      <trkpt lat="46.29064" lon="4.69391">
        <ele>555</ele>
        <time>2014-09-28T07:55:48Z</time>
      </trkpt>
      <trkpt lat="46.29063" lon="4.6938">
        <ele>555</ele>
        <time>2014-09-28T07:55:51Z</time>
      </trkpt>
      <trkpt lat="46.29063" lon="4.69376">
        <ele>555</ele>
        <time>2014-09-28T07:55:52Z</time>
      </trkpt>
      <trkpt lat="46.29062" lon="4.69365">
        <ele>555</ele>
        <time>2014-09-28T07:55:55Z</time>
      </trkpt>
      <trkpt lat="46.29061" lon="4.69362">
        <ele>555</ele>
        <time>2014-09-28T07:55:56Z</time>
      </trkpt>
      <trkpt lat="46.29059" lon="4.69351">
        <ele>555</ele>
        <time>2014-09-28T07:55:59Z</time>
      </trkpt>
      <trkpt lat="46.29058" lon="4.69348">
        <ele>555</ele>
        <time>2014-09-28T07:56:00Z</time>
      </trkpt>
      <trkpt lat="46.29056" lon="4.69338">
        <ele>555</ele>
        <time>2014-09-28T07:56:03Z</time>
      </trkpt>
      <trkpt lat="46.29056" lon="4.69334">
        <ele>555</ele>
        <time>2014-09-28T07:56:04Z</time>
      </trkpt>
      <trkpt lat="46.29055" lon="4.69325">
        <ele>553</ele>
        <time>2014-09-28T07:56:07Z</time>
      </trkpt>
      <trkpt lat="46.29054" lon="4.69321">
        <ele>553</ele>
        <time>2014-09-28T07:56:08Z</time>
      </trkpt>
      <trkpt lat="46.29051" lon="4.69313">
        <ele>553</ele>
        <time>2014-09-28T07:56:11Z</time>
      </trkpt>
      <trkpt lat="46.2905" lon="4.6931">
        <ele>553</ele>
        <time>2014-09-28T07:56:12Z</time>
      </trkpt>
      <trkpt lat="46.29043" lon="4.69302">
        <ele>554</ele>
        <time>2014-09-28T07:56:15Z</time>
      </trkpt>
      <trkpt lat="46.29039" lon="4.69298">
        <ele>554</ele>
        <time>2014-09-28T07:56:16Z</time>
      </trkpt>
      <trkpt lat="46.29036" lon="4.69293">
        <ele>554</ele>
        <time>2014-09-28T07:56:17Z</time>
      </trkpt>
      <trkpt lat="46.2903" lon="4.69286">
        <ele>554</ele>
        <time>2014-09-28T07:56:18Z</time>
      </trkpt>
      <trkpt lat="46.29026" lon="4.69281">
        <ele>554</ele>
        <time>2014-09-28T07:56:19Z</time>
      </trkpt>
      <trkpt lat="46.29022" lon="4.69275">
        <ele>555</ele>
        <time>2014-09-28T07:56:20Z</time>
      </trkpt>
      <trkpt lat="46.29017" lon="4.69269">
        <ele>555</ele>
        <time>2014-09-28T07:56:21Z</time>
      </trkpt>
      <trkpt lat="46.29013" lon="4.69263">
        <ele>555</ele>
        <time>2014-09-28T07:56:22Z</time>
      </trkpt>
      <trkpt lat="46.29009" lon="4.69256">
        <ele>556</ele>
        <time>2014-09-28T07:56:23Z</time>
      </trkpt>
      <trkpt lat="46.29004" lon="4.6925">
        <ele>556</ele>
        <time>2014-09-28T07:56:24Z</time>
      </trkpt>
      <trkpt lat="46.28998" lon="4.69242">
        <ele>557</ele>
        <time>2014-09-28T07:56:26Z</time>
      </trkpt>
      <trkpt lat="46.28995" lon="4.69242">
        <ele>557</ele>
        <time>2014-09-28T07:56:27Z</time>
      </trkpt>
      <trkpt lat="46.28986" lon="4.69237">
        <ele>557</ele>
        <time>2014-09-28T07:56:33Z</time>
      </trkpt>
      <trkpt lat="46.28985" lon="4.69235">
        <ele>557</ele>
        <time>2014-09-28T07:56:34Z</time>
      </trkpt>
      <trkpt lat="46.28979" lon="4.6923">
        <ele>558</ele>
        <time>2014-09-28T07:56:38Z</time>
      </trkpt>
      <trkpt lat="46.28977" lon="4.69229">
        <ele>558</ele>
        <time>2014-09-28T07:56:39Z</time>
      </trkpt>
      <trkpt lat="46.2897" lon="4.69224">
        <ele>558</ele>
        <time>2014-09-28T07:56:43Z</time>
      </trkpt>
      <trkpt lat="46.28968" lon="4.69223">
        <ele>558</ele>
        <time>2014-09-28T07:56:44Z</time>
      </trkpt>
      <trkpt lat="46.28959" lon="4.69219">
        <ele>558</ele>
        <time>2014-09-28T07:56:48Z</time>
      </trkpt>
      <trkpt lat="46.28957" lon="4.69218">
        <ele>559</ele>
        <time>2014-09-28T07:56:49Z</time>
      </trkpt>
      <trkpt lat="46.2895" lon="4.69216">
        <ele>559</ele>
        <time>2014-09-28T07:56:53Z</time>
      </trkpt>
      <trkpt lat="46.28948" lon="4.69215">
        <ele>559</ele>
        <time>2014-09-28T07:56:54Z</time>
      </trkpt>
      <trkpt lat="46.2894" lon="4.69212">
        <ele>560</ele>
        <time>2014-09-28T07:56:58Z</time>
      </trkpt>
      <trkpt lat="46.28938" lon="4.69211">
        <ele>560</ele>
        <time>2014-09-28T07:56:59Z</time>
      </trkpt>
      <trkpt lat="46.28931" lon="4.69207">
        <ele>560</ele>
        <time>2014-09-28T07:57:02Z</time>
      </trkpt>
      <trkpt lat="46.28929" lon="4.69206">
        <ele>560</ele>
        <time>2014-09-28T07:57:03Z</time>
      </trkpt>
      <trkpt lat="46.28922" lon="4.69203">
        <ele>560</ele>
        <time>2014-09-28T07:57:06Z</time>
      </trkpt>
      <trkpt lat="46.2892" lon="4.69201">
        <ele>560</ele>
        <time>2014-09-28T07:57:07Z</time>
      </trkpt>
      <trkpt lat="46.28913" lon="4.69195">
        <ele>569</ele>
        <time>2014-09-28T07:57:11Z</time>
      </trkpt>
      <trkpt lat="46.2891" lon="4.69194">
        <ele>569</ele>
        <time>2014-09-28T07:57:12Z</time>
      </trkpt>
      <trkpt lat="46.28903" lon="4.69188">
        <ele>569</ele>
        <time>2014-09-28T07:57:15Z</time>
      </trkpt>
      <trkpt lat="46.28901" lon="4.69187">
        <ele>569</ele>
        <time>2014-09-28T07:57:16Z</time>
      </trkpt>
      <trkpt lat="46.28894" lon="4.69181">
        <ele>569</ele>
        <time>2014-09-28T07:57:19Z</time>
      </trkpt>
      <trkpt lat="46.28891" lon="4.69179">
        <ele>570</ele>
        <time>2014-09-28T07:57:20Z</time>
      </trkpt>
      <trkpt lat="46.28884" lon="4.69173">
        <ele>571</ele>
        <time>2014-09-28T07:57:23Z</time>
      </trkpt>
      <trkpt lat="46.28881" lon="4.69171">
        <ele>572</ele>
        <time>2014-09-28T07:57:24Z</time>
      </trkpt>
      <trkpt lat="46.28874" lon="4.69164">
        <ele>567</ele>
        <time>2014-09-28T07:57:27Z</time>
      </trkpt>
      <trkpt lat="46.28871" lon="4.69162">
        <ele>567</ele>
        <time>2014-09-28T07:57:28Z</time>
      </trkpt>
      <trkpt lat="46.28865" lon="4.69157">
        <ele>568</ele>
        <time>2014-09-28T07:57:31Z</time>
      </trkpt>
      <trkpt lat="46.28863" lon="4.69155">
        <ele>569</ele>
        <time>2014-09-28T07:57:32Z</time>
      </trkpt>
      <trkpt lat="46.28856" lon="4.69147">
        <ele>569</ele>
        <time>2014-09-28T07:57:38Z</time>
      </trkpt>
      <trkpt lat="46.28854" lon="4.69146">
        <ele>569</ele>
        <time>2014-09-28T07:57:39Z</time>
      </trkpt>
      <trkpt lat="46.28846" lon="4.69142">
        <ele>570</ele>
        <time>2014-09-28T07:57:44Z</time>
      </trkpt>
      <trkpt lat="46.28845" lon="4.69142">
        <ele>570</ele>
        <time>2014-09-28T07:57:45Z</time>
      </trkpt>
      <trkpt lat="46.28838" lon="4.69136">
        <ele>570</ele>
        <time>2014-09-28T07:57:53Z</time>
      </trkpt>
      <trkpt lat="46.28837" lon="4.69135">
        <ele>570</ele>
        <time>2014-09-28T07:57:54Z</time>
      </trkpt>
      <trkpt lat="46.28829" lon="4.69132">
        <ele>582</ele>
        <time>2014-09-28T07:57:59Z</time>
      </trkpt>
      <trkpt lat="46.28827" lon="4.69131">
        <ele>582</ele>
        <time>2014-09-28T07:58:00Z</time>
      </trkpt>
      <trkpt lat="46.28819" lon="4.69129">
        <ele>583</ele>
        <time>2014-09-28T07:58:04Z</time>
      </trkpt>
      <trkpt lat="46.28817" lon="4.69128">
        <ele>583</ele>
        <time>2014-09-28T07:58:05Z</time>
      </trkpt>
      <trkpt lat="46.28809" lon="4.69123">
        <ele>583</ele>
        <time>2014-09-28T07:58:10Z</time>
      </trkpt>
      <trkpt lat="46.28807" lon="4.69123">
        <ele>584</ele>
        <time>2014-09-28T07:58:11Z</time>
      </trkpt>
      <trkpt lat="46.288" lon="4.69118">
        <ele>584</ele>
        <time>2014-09-28T07:58:17Z</time>
      </trkpt>
      <trkpt lat="46.28799" lon="4.69117">
        <ele>584</ele>
        <time>2014-09-28T07:58:18Z</time>
      </trkpt>
      <trkpt lat="46.28793" lon="4.6911">
        <ele>585</ele>
        <time>2014-09-28T07:58:23Z</time>
      </trkpt>
      <trkpt lat="46.28792" lon="4.69109">
        <ele>585</ele>
        <time>2014-09-28T07:58:24Z</time>
      </trkpt>
      <trkpt lat="46.28785" lon="4.69102">
        <ele>586</ele>
        <time>2014-09-28T07:58:29Z</time>
      </trkpt>
      <trkpt lat="46.28783" lon="4.69101">
        <ele>586</ele>
        <time>2014-09-28T07:58:30Z</time>
      </trkpt>
      <trkpt lat="46.28776" lon="4.69093">
        <ele>587</ele>
        <time>2014-09-28T07:58:36Z</time>
      </trkpt>
      <trkpt lat="46.28775" lon="4.69092">
        <ele>587</ele>
        <time>2014-09-28T07:58:37Z</time>
      </trkpt>
      <trkpt lat="46.28768" lon="4.69085">
        <ele>589</ele>
        <time>2014-09-28T07:58:43Z</time>
      </trkpt>
      <trkpt lat="46.28767" lon="4.69083">
        <ele>585</ele>
        <time>2014-09-28T07:58:44Z</time>
      </trkpt>
      <trkpt lat="46.28762" lon="4.69073">
        <ele>585</ele>
        <time>2014-09-28T07:58:50Z</time>
      </trkpt>
      <trkpt lat="46.28762" lon="4.69072">
        <ele>585</ele>
        <time>2014-09-28T07:58:51Z</time>
      </trkpt>
      <trkpt lat="46.28759" lon="4.69061">
        <ele>583</ele>
        <time>2014-09-28T07:58:58Z</time>
      </trkpt>
      <trkpt lat="46.28759" lon="4.69059">
        <ele>583</ele>
        <time>2014-09-28T07:58:59Z</time>
      </trkpt>
      <trkpt lat="46.28755" lon="4.69049">
        <ele>581</ele>
        <time>2014-09-28T07:59:05Z</time>
      </trkpt>
      <trkpt lat="46.28754" lon="4.69047">
        <ele>581</ele>
        <time>2014-09-28T07:59:06Z</time>
      </trkpt>
      <trkpt lat="46.28749" lon="4.69036">
        <ele>596</ele>
        <time>2014-09-28T07:59:12Z</time>
      </trkpt>
      <trkpt lat="46.28748" lon="4.69034">
        <ele>596</ele>
        <time>2014-09-28T07:59:13Z</time>
      </trkpt>
      <trkpt lat="46.28745" lon="4.69023">
        <ele>594</ele>
        <time>2014-09-28T07:59:17Z</time>
      </trkpt>
      <trkpt lat="46.28744" lon="4.69021">
        <ele>594</ele>
        <time>2014-09-28T07:59:18Z</time>
      </trkpt>
      <trkpt lat="46.2874" lon="4.6901">
        <ele>591</ele>
        <time>2014-09-28T07:59:23Z</time>
      </trkpt>
      <trkpt lat="46.28739" lon="4.69008">
        <ele>591</ele>
        <time>2014-09-28T07:59:24Z</time>
      </trkpt>
      <trkpt lat="46.28735" lon="4.68999">
        <ele>591</ele>
        <time>2014-09-28T07:59:28Z</time>
      </trkpt>
      <trkpt lat="46.28734" lon="4.68997">
        <ele>591</ele>
        <time>2014-09-28T07:59:29Z</time>
      </trkpt>
      <trkpt lat="46.28729" lon="4.68989">
        <ele>593</ele>
        <time>2014-09-28T07:59:33Z</time>
      </trkpt>
      <trkpt lat="46.28728" lon="4.68987">
        <ele>594</ele>
        <time>2014-09-28T07:59:34Z</time>
      </trkpt>
      <trkpt lat="46.28723" lon="4.68979">
        <ele>596</ele>
        <time>2014-09-28T07:59:38Z</time>
      </trkpt>
      <trkpt lat="46.28722" lon="4.68976">
        <ele>596</ele>
        <time>2014-09-28T07:59:39Z</time>
      </trkpt>
      <trkpt lat="46.28719" lon="4.68964">
        <ele>597</ele>
        <time>2014-09-28T07:59:43Z</time>
      </trkpt>
      <trkpt lat="46.28719" lon="4.68961">
        <ele>597</ele>
        <time>2014-09-28T07:59:44Z</time>
      </trkpt>
      <trkpt lat="46.28718" lon="4.68949">
        <ele>598</ele>
        <time>2014-09-28T07:59:49Z</time>
      </trkpt>
      <trkpt lat="46.28718" lon="4.68946">
        <ele>598</ele>
        <time>2014-09-28T07:59:50Z</time>
      </trkpt>
      <trkpt lat="46.28718" lon="4.68934">
        <ele>597</ele>
        <time>2014-09-28T07:59:56Z</time>
      </trkpt>
      <trkpt lat="46.28717" lon="4.68932">
        <ele>597</ele>
        <time>2014-09-28T07:59:57Z</time>
      </trkpt>
      <trkpt lat="46.28714" lon="4.68922">
        <ele>598</ele>
        <time>2014-09-28T08:00:01Z</time>
      </trkpt>
      <trkpt lat="46.28714" lon="4.68919">
        <ele>598</ele>
        <time>2014-09-28T08:00:02Z</time>
      </trkpt>
      <trkpt lat="46.28709" lon="4.6891">
        <ele>601</ele>
        <time>2014-09-28T08:00:06Z</time>
      </trkpt>
      <trkpt lat="46.28707" lon="4.68909">
        <ele>602</ele>
        <time>2014-09-28T08:00:07Z</time>
      </trkpt>
      <trkpt lat="46.28701" lon="4.689">
        <ele>603</ele>
        <time>2014-09-28T08:00:12Z</time>
      </trkpt>
      <trkpt lat="46.287" lon="4.68898">
        <ele>603</ele>
        <time>2014-09-28T08:00:13Z</time>
      </trkpt>
      <trkpt lat="46.28693" lon="4.68891">
        <ele>605</ele>
        <time>2014-09-28T08:00:19Z</time>
      </trkpt>
      <trkpt lat="46.28692" lon="4.6889">
        <ele>605</ele>
        <time>2014-09-28T08:00:20Z</time>
      </trkpt>
      <trkpt lat="46.28687" lon="4.68881">
        <ele>605</ele>
        <time>2014-09-28T08:00:26Z</time>
      </trkpt>
      <trkpt lat="46.28686" lon="4.68879">
        <ele>606</ele>
        <time>2014-09-28T08:00:27Z</time>
      </trkpt>
      <trkpt lat="46.28687" lon="4.68866">
        <ele>606</ele>
        <time>2014-09-28T08:00:33Z</time>
      </trkpt>
      <trkpt lat="46.28688" lon="4.68864">
        <ele>606</ele>
        <time>2014-09-28T08:00:34Z</time>
      </trkpt>
      <trkpt lat="46.28691" lon="4.68853">
        <ele>607</ele>
        <time>2014-09-28T08:00:39Z</time>
      </trkpt>
      <trkpt lat="46.28691" lon="4.68851">
        <ele>607</ele>
        <time>2014-09-28T08:00:40Z</time>
      </trkpt>
      <trkpt lat="46.28691" lon="4.68839">
        <ele>608</ele>
        <time>2014-09-28T08:00:46Z</time>
      </trkpt>
      <trkpt lat="46.28691" lon="4.68837">
        <ele>608</ele>
        <time>2014-09-28T08:00:47Z</time>
      </trkpt>
      <trkpt lat="46.28688" lon="4.68826">
        <ele>614</ele>
        <time>2014-09-28T08:00:52Z</time>
      </trkpt>
      <trkpt lat="46.28688" lon="4.68824">
        <ele>614</ele>
        <time>2014-09-28T08:00:53Z</time>
      </trkpt>
      <trkpt lat="46.28687" lon="4.68811">
        <ele>614</ele>
        <time>2014-09-28T08:00:59Z</time>
      </trkpt>
      <trkpt lat="46.28686" lon="4.68809">
        <ele>614</ele>
        <time>2014-09-28T08:01:00Z</time>
      </trkpt>
      <trkpt lat="46.28685" lon="4.68796">
        <ele>615</ele>
        <time>2014-09-28T08:01:06Z</time>
      </trkpt>
      <trkpt lat="46.28685" lon="4.68794">
        <ele>615</ele>
        <time>2014-09-28T08:01:07Z</time>
      </trkpt>
      <trkpt lat="46.28685" lon="4.68782">
        <ele>616</ele>
        <time>2014-09-28T08:01:13Z</time>
      </trkpt>
      <trkpt lat="46.28686" lon="4.68781">
        <ele>616</ele>
        <time>2014-09-28T08:01:14Z</time>
      </trkpt>
      <trkpt lat="46.28688" lon="4.68768">
        <ele>618</ele>
        <time>2014-09-28T08:01:21Z</time>
      </trkpt>
      <trkpt lat="46.28688" lon="4.68767">
        <ele>618</ele>
        <time>2014-09-28T08:01:22Z</time>
      </trkpt>
      <trkpt lat="46.28691" lon="4.68755">
        <ele>619</ele>
        <time>2014-09-28T08:01:30Z</time>
      </trkpt>
      <trkpt lat="46.28691" lon="4.68753">
        <ele>619</ele>
        <time>2014-09-28T08:01:31Z</time>
      </trkpt>
      <trkpt lat="46.28694" lon="4.68742">
        <ele>626</ele>
        <time>2014-09-28T08:01:38Z</time>
      </trkpt>
      <trkpt lat="46.28694" lon="4.6874">
        <ele>626</ele>
        <time>2014-09-28T08:01:39Z</time>
      </trkpt>
      <trkpt lat="46.28696" lon="4.6873">
        <ele>627</ele>
        <time>2014-09-28T08:01:44Z</time>
      </trkpt>
      <trkpt lat="46.28697" lon="4.68727">
        <ele>626</ele>
        <time>2014-09-28T08:01:45Z</time>
      </trkpt>
      <trkpt lat="46.28701" lon="4.68716">
        <ele>627</ele>
        <time>2014-09-28T08:01:50Z</time>
      </trkpt>
      <trkpt lat="46.28702" lon="4.68714">
        <ele>627</ele>
        <time>2014-09-28T08:01:51Z</time>
      </trkpt>
      <trkpt lat="46.28707" lon="4.68705">
        <ele>627</ele>
        <time>2014-09-28T08:01:57Z</time>
      </trkpt>
      <trkpt lat="46.28707" lon="4.68704">
        <ele>627</ele>
        <time>2014-09-28T08:01:58Z</time>
      </trkpt>
      <trkpt lat="46.28714" lon="4.68698">
        <ele>627</ele>
        <time>2014-09-28T08:02:07Z</time>
      </trkpt>
      <trkpt lat="46.28715" lon="4.68697">
        <ele>627</ele>
        <time>2014-09-28T08:02:08Z</time>
      </trkpt>
      <trkpt lat="46.2872" lon="4.68688">
        <ele>627</ele>
        <time>2014-09-28T08:02:21Z</time>
      </trkpt>
      <trkpt lat="46.28721" lon="4.68686">
        <ele>627</ele>
        <time>2014-09-28T08:02:22Z</time>
      </trkpt>
      <trkpt lat="46.28727" lon="4.68678">
        <ele>627</ele>
        <time>2014-09-28T08:02:28Z</time>
      </trkpt>
      <trkpt lat="46.28727" lon="4.68676">
        <ele>627</ele>
        <time>2014-09-28T08:02:29Z</time>
      </trkpt>
      <trkpt lat="46.28731" lon="4.68666">
        <ele>632</ele>
        <time>2014-09-28T08:02:34Z</time>
      </trkpt>
      <trkpt lat="46.28731" lon="4.68664">
        <ele>632</ele>
        <time>2014-09-28T08:02:35Z</time>
      </trkpt>
      <trkpt lat="46.28735" lon="4.68655">
        <ele>631</ele>
        <time>2014-09-28T08:02:40Z</time>
      </trkpt>
      <trkpt lat="46.28736" lon="4.68653">
        <ele>631</ele>
        <time>2014-09-28T08:02:41Z</time>
      </trkpt>
      <trkpt lat="46.28741" lon="4.68643">
        <ele>632</ele>
        <time>2014-09-28T08:02:47Z</time>
      </trkpt>
      <trkpt lat="46.28742" lon="4.68641">
        <ele>632</ele>
        <time>2014-09-28T08:02:48Z</time>
      </trkpt>
      <trkpt lat="46.28743" lon="4.68632">
        <ele>633</ele>
        <time>2014-09-28T08:02:52Z</time>
      </trkpt>
      <trkpt lat="46.28744" lon="4.68628">
        <ele>633</ele>
        <time>2014-09-28T08:02:53Z</time>
      </trkpt>
      <trkpt lat="46.28748" lon="4.68619">
        <ele>633</ele>
        <time>2014-09-28T08:02:56Z</time>
      </trkpt>
      <trkpt lat="46.2875" lon="4.68617">
        <ele>633</ele>
        <time>2014-09-28T08:02:57Z</time>
      </trkpt>
      <trkpt lat="46.28755" lon="4.68615">
        <ele>623</ele>
        <time>2014-09-28T08:02:59Z</time>
      </trkpt>
      <trkpt lat="46.28759" lon="4.68613">
        <ele>623</ele>
        <time>2014-09-28T08:03:00Z</time>
      </trkpt>
      <trkpt lat="46.28764" lon="4.68611">
        <ele>623</ele>
        <time>2014-09-28T08:03:01Z</time>
      </trkpt>
      <trkpt lat="46.2877" lon="4.68608">
        <ele>623</ele>
        <time>2014-09-28T08:03:02Z</time>
      </trkpt>
      <trkpt lat="46.2878" lon="4.686">
        <ele>622</ele>
        <time>2014-09-28T08:03:03Z</time>
      </trkpt>
      <trkpt lat="46.28785" lon="4.68598">
        <ele>622</ele>
        <time>2014-09-28T08:03:04Z</time>
      </trkpt>
      <trkpt lat="46.28793" lon="4.68595">
        <ele>621</ele>
        <time>2014-09-28T08:03:05Z</time>
      </trkpt>
      <trkpt lat="46.28799" lon="4.68593">
        <ele>621</ele>
        <time>2014-09-28T08:03:06Z</time>
      </trkpt>
      <trkpt lat="46.28805" lon="4.68591">
        <ele>621</ele>
        <time>2014-09-28T08:03:07Z</time>
      </trkpt>
      <trkpt lat="46.28812" lon="4.68589">
        <ele>620</ele>
        <time>2014-09-28T08:03:08Z</time>
      </trkpt>
      <trkpt lat="46.28819" lon="4.68587">
        <ele>620</ele>
        <time>2014-09-28T08:03:09Z</time>
      </trkpt>
      <trkpt lat="46.28825" lon="4.68582">
        <ele>620</ele>
        <time>2014-09-28T08:03:10Z</time>
      </trkpt>
      <trkpt lat="46.28832" lon="4.68577">
        <ele>620</ele>
        <time>2014-09-28T08:03:11Z</time>
      </trkpt>
      <trkpt lat="46.28838" lon="4.68572">
        <ele>617</ele>
        <time>2014-09-28T08:03:12Z</time>
      </trkpt>
      <trkpt lat="46.28844" lon="4.68568">
        <ele>616</ele>
        <time>2014-09-28T08:03:13Z</time>
      </trkpt>
      <trkpt lat="46.2885" lon="4.68566">
        <ele>616</ele>
        <time>2014-09-28T08:03:14Z</time>
      </trkpt>
      <trkpt lat="46.28857" lon="4.68562">
        <ele>615</ele>
        <time>2014-09-28T08:03:15Z</time>
      </trkpt>
      <trkpt lat="46.28862" lon="4.68557">
        <ele>614</ele>
        <time>2014-09-28T08:03:16Z</time>
      </trkpt>
      <trkpt lat="46.28868" lon="4.68553">
        <ele>614</ele>
        <time>2014-09-28T08:03:17Z</time>
      </trkpt>
      <trkpt lat="46.28873" lon="4.68549">
        <ele>614</ele>
        <time>2014-09-28T08:03:18Z</time>
      </trkpt>
      <trkpt lat="46.2888" lon="4.68547">
        <ele>613</ele>
        <time>2014-09-28T08:03:19Z</time>
      </trkpt>
      <trkpt lat="46.28888" lon="4.68544">
        <ele>613</ele>
        <time>2014-09-28T08:03:20Z</time>
      </trkpt>
      <trkpt lat="46.28898" lon="4.6854">
        <ele>612</ele>
        <time>2014-09-28T08:03:21Z</time>
      </trkpt>
      <trkpt lat="46.28907" lon="4.68537">
        <ele>612</ele>
        <time>2014-09-28T08:03:22Z</time>
      </trkpt>
      <trkpt lat="46.28917" lon="4.68532">
        <ele>607</ele>
        <time>2014-09-28T08:03:23Z</time>
      </trkpt>
      <trkpt lat="46.28921" lon="4.68526">
        <ele>607</ele>
        <time>2014-09-28T08:03:24Z</time>
      </trkpt>
      <trkpt lat="46.28928" lon="4.68518">
        <ele>608</ele>
        <time>2014-09-28T08:03:25Z</time>
      </trkpt>
      <trkpt lat="46.28935" lon="4.68511">
        <ele>608</ele>
        <time>2014-09-28T08:03:26Z</time>
      </trkpt>
      <trkpt lat="46.28944" lon="4.68506">
        <ele>607</ele>
        <time>2014-09-28T08:03:27Z</time>
      </trkpt>
      <trkpt lat="46.28948" lon="4.68507">
        <ele>607</ele>
        <time>2014-09-28T08:03:28Z</time>
      </trkpt>
      <trkpt lat="46.28955" lon="4.68506">
        <ele>606</ele>
        <time>2014-09-28T08:03:29Z</time>
      </trkpt>
      <trkpt lat="46.28963" lon="4.68505">
        <ele>606</ele>
        <time>2014-09-28T08:03:30Z</time>
      </trkpt>
      <trkpt lat="46.28965" lon="4.68507">
        <ele>606</ele>
        <time>2014-09-28T08:03:31Z</time>
      </trkpt>
      <trkpt lat="46.28973" lon="4.68508">
        <ele>605</ele>
        <time>2014-09-28T08:03:32Z</time>
      </trkpt>
      <trkpt lat="46.28983" lon="4.68508">
        <ele>605</ele>
        <time>2014-09-28T08:03:33Z</time>
      </trkpt>
      <trkpt lat="46.28989" lon="4.68506">
        <ele>605</ele>
        <time>2014-09-28T08:03:34Z</time>
      </trkpt>
      <trkpt lat="46.28997" lon="4.68502">
        <ele>605</ele>
        <time>2014-09-28T08:03:35Z</time>
      </trkpt>
      <trkpt lat="46.29005" lon="4.68498">
        <ele>604</ele>
        <time>2014-09-28T08:03:36Z</time>
      </trkpt>
      <trkpt lat="46.29013" lon="4.68494">
        <ele>602</ele>
        <time>2014-09-28T08:03:37Z</time>
      </trkpt>
      <trkpt lat="46.29019" lon="4.68491">
        <ele>601</ele>
        <time>2014-09-28T08:03:38Z</time>
      </trkpt>
      <trkpt lat="46.29024" lon="4.68488">
        <ele>601</ele>
        <time>2014-09-28T08:03:39Z</time>
      </trkpt>
      <trkpt lat="46.29032" lon="4.68479">
        <ele>599</ele>
        <time>2014-09-28T08:03:40Z</time>
      </trkpt>
      <trkpt lat="46.29031" lon="4.68471">
        <ele>599</ele>
        <time>2014-09-28T08:03:41Z</time>
      </trkpt>
      <trkpt lat="46.29033" lon="4.68466">
        <ele>599</ele>
        <time>2014-09-28T08:03:42Z</time>
      </trkpt>
      <trkpt lat="46.29036" lon="4.68458">
        <ele>599</ele>
        <time>2014-09-28T08:03:43Z</time>
      </trkpt>
      <trkpt lat="46.29041" lon="4.68454">
        <ele>598</ele>
        <time>2014-09-28T08:03:44Z</time>
      </trkpt>
      <trkpt lat="46.29048" lon="4.68452">
        <ele>598</ele>
        <time>2014-09-28T08:03:46Z</time>
      </trkpt>
      <trkpt lat="46.2905" lon="4.68452">
        <ele>598</ele>
        <time>2014-09-28T08:03:47Z</time>
      </trkpt>
      <trkpt lat="46.29055" lon="4.68449">
        <ele>598</ele>
        <time>2014-09-28T08:03:48Z</time>
      </trkpt>
      <trkpt lat="46.2906" lon="4.68451">
        <ele>598</ele>
        <time>2014-09-28T08:03:49Z</time>
      </trkpt>
      <trkpt lat="46.29064" lon="4.68446">
        <ele>598</ele>
        <time>2014-09-28T08:03:50Z</time>
      </trkpt>
      <trkpt lat="46.2907" lon="4.68439">
        <ele>598</ele>
        <time>2014-09-28T08:03:51Z</time>
      </trkpt>
      <trkpt lat="46.29074" lon="4.68436">
        <ele>598</ele>
        <time>2014-09-28T08:03:52Z</time>
      </trkpt>
      <trkpt lat="46.29081" lon="4.68432">
        <ele>597</ele>
        <time>2014-09-28T08:03:53Z</time>
      </trkpt>
      <trkpt lat="46.29084" lon="4.68427">
        <ele>593</ele>
        <time>2014-09-28T08:03:54Z</time>
      </trkpt>
      <trkpt lat="46.2909" lon="4.68425">
        <ele>593</ele>
        <time>2014-09-28T08:03:55Z</time>
      </trkpt>
      <trkpt lat="46.29095" lon="4.68423">
        <ele>592</ele>
        <time>2014-09-28T08:03:56Z</time>
      </trkpt>
      <trkpt lat="46.291" lon="4.6842">
        <ele>592</ele>
        <time>2014-09-28T08:03:57Z</time>
      </trkpt>
      <trkpt lat="46.29102" lon="4.68411">
        <ele>591</ele>
        <time>2014-09-28T08:03:58Z</time>
      </trkpt>
      <trkpt lat="46.29105" lon="4.68405">
        <ele>590</ele>
        <time>2014-09-28T08:03:59Z</time>
      </trkpt>
      <trkpt lat="46.29111" lon="4.68397">
        <ele>588</ele>
        <time>2014-09-28T08:04:01Z</time>
      </trkpt>
      <trkpt lat="46.29113" lon="4.68394">
        <ele>588</ele>
        <time>2014-09-28T08:04:02Z</time>
      </trkpt>
      <trkpt lat="46.2912" lon="4.68393">
        <ele>587</ele>
        <time>2014-09-28T08:04:04Z</time>
      </trkpt>
      <trkpt lat="46.29123" lon="4.68392">
        <ele>587</ele>
        <time>2014-09-28T08:04:05Z</time>
      </trkpt>
      <trkpt lat="46.29131" lon="4.68388">
        <ele>586</ele>
        <time>2014-09-28T08:04:07Z</time>
      </trkpt>
      <trkpt lat="46.29135" lon="4.68386">
        <ele>586</ele>
        <time>2014-09-28T08:04:08Z</time>
      </trkpt>
      <trkpt lat="46.29139" lon="4.68383">
        <ele>585</ele>
        <time>2014-09-28T08:04:09Z</time>
      </trkpt>
      <trkpt lat="46.29145" lon="4.68377">
        <ele>585</ele>
        <time>2014-09-28T08:04:10Z</time>
      </trkpt>
      <trkpt lat="46.29147" lon="4.6837">
        <ele>585</ele>
        <time>2014-09-28T08:04:11Z</time>
      </trkpt>
      <trkpt lat="46.29151" lon="4.68367">
        <ele>584</ele>
        <time>2014-09-28T08:04:12Z</time>
      </trkpt>
      <trkpt lat="46.2916" lon="4.68364">
        <ele>584</ele>
        <time>2014-09-28T08:04:14Z</time>
      </trkpt>
      <trkpt lat="46.29165" lon="4.68358">
        <ele>584</ele>
        <time>2014-09-28T08:04:15Z</time>
      </trkpt>
      <trkpt lat="46.29169" lon="4.68356">
        <ele>578</ele>
        <time>2014-09-28T08:04:16Z</time>
      </trkpt>
      <trkpt lat="46.29173" lon="4.68355">
        <ele>578</ele>
        <time>2014-09-28T08:04:17Z</time>
      </trkpt>
      <trkpt lat="46.2918" lon="4.68351">
        <ele>578</ele>
        <time>2014-09-28T08:04:18Z</time>
      </trkpt>
      <trkpt lat="46.29183" lon="4.68349">
        <ele>577</ele>
        <time>2014-09-28T08:04:19Z</time>
      </trkpt>
      <trkpt lat="46.29186" lon="4.68343">
        <ele>577</ele>
        <time>2014-09-28T08:04:20Z</time>
      </trkpt>
      <trkpt lat="46.2919" lon="4.68337">
        <ele>577</ele>
        <time>2014-09-28T08:04:21Z</time>
      </trkpt>
      <trkpt lat="46.29192" lon="4.6833">
        <ele>574</ele>
        <time>2014-09-28T08:04:22Z</time>
      </trkpt>
      <trkpt lat="46.29196" lon="4.68325">
        <ele>573</ele>
        <time>2014-09-28T08:04:23Z</time>
      </trkpt>
      <trkpt lat="46.29202" lon="4.6832">
        <ele>572</ele>
        <time>2014-09-28T08:04:24Z</time>
      </trkpt>
      <trkpt lat="46.29205" lon="4.68316">
        <ele>572</ele>
        <time>2014-09-28T08:04:25Z</time>
      </trkpt>
      <trkpt lat="46.29209" lon="4.68309">
        <ele>571</ele>
        <time>2014-09-28T08:04:26Z</time>
      </trkpt>
      <trkpt lat="46.29215" lon="4.68308">
        <ele>571</ele>
        <time>2014-09-28T08:04:27Z</time>
      </trkpt>
      <trkpt lat="46.29222" lon="4.68305">
        <ele>570</ele>
        <time>2014-09-28T08:04:28Z</time>
      </trkpt>
      <trkpt lat="46.29228" lon="4.68302">
        <ele>570</ele>
        <time>2014-09-28T08:04:29Z</time>
      </trkpt>
      <trkpt lat="46.29233" lon="4.683">
        <ele>569</ele>
        <time>2014-09-28T08:04:30Z</time>
      </trkpt>
      <trkpt lat="46.29239" lon="4.68296">
        <ele>569</ele>
        <time>2014-09-28T08:04:31Z</time>
      </trkpt>
      <trkpt lat="46.29244" lon="4.68293">
        <ele>568</ele>
        <time>2014-09-28T08:04:32Z</time>
      </trkpt>
      <trkpt lat="46.29249" lon="4.6829">
        <ele>568</ele>
        <time>2014-09-28T08:04:33Z</time>
      </trkpt>
      <trkpt lat="46.29254" lon="4.68286">
        <ele>558</ele>
        <time>2014-09-28T08:04:34Z</time>
      </trkpt>
      <trkpt lat="46.29258" lon="4.68286">
        <ele>557</ele>
        <time>2014-09-28T08:04:35Z</time>
      </trkpt>
      <trkpt lat="46.29266" lon="4.68285">
        <ele>557</ele>
        <time>2014-09-28T08:04:37Z</time>
      </trkpt>
      <trkpt lat="46.29268" lon="4.68288">
        <ele>557</ele>
        <time>2014-09-28T08:04:38Z</time>
      </trkpt>
      <trkpt lat="46.29272" lon="4.68292">
        <ele>557</ele>
        <time>2014-09-28T08:04:40Z</time>
      </trkpt>
      <trkpt lat="46.29277" lon="4.68294">
        <ele>556</ele>
        <time>2014-09-28T08:04:41Z</time>
      </trkpt>
      <trkpt lat="46.29285" lon="4.68296">
        <ele>555</ele>
        <time>2014-09-28T08:04:43Z</time>
      </trkpt>
      <trkpt lat="46.29287" lon="4.68297">
        <ele>555</ele>
        <time>2014-09-28T08:04:44Z</time>
      </trkpt>
      <trkpt lat="46.29294" lon="4.68291">
        <ele>554</ele>
        <time>2014-09-28T08:04:46Z</time>
      </trkpt>
      <trkpt lat="46.29298" lon="4.68288">
        <ele>553</ele>
        <time>2014-09-28T08:04:47Z</time>
      </trkpt>
      <trkpt lat="46.29306" lon="4.68284">
        <ele>552</ele>
        <time>2014-09-28T08:04:49Z</time>
      </trkpt>
      <trkpt lat="46.2931" lon="4.68283">
        <ele>552</ele>
        <time>2014-09-28T08:04:50Z</time>
      </trkpt>
      <trkpt lat="46.29317" lon="4.68282">
        <ele>551</ele>
        <time>2014-09-28T08:04:52Z</time>
      </trkpt>
      <trkpt lat="46.29319" lon="4.68282">
        <ele>551</ele>
        <time>2014-09-28T08:04:53Z</time>
      </trkpt>
      <trkpt lat="46.29325" lon="4.68275">
        <ele>550</ele>
        <time>2014-09-28T08:04:56Z</time>
      </trkpt>
      <trkpt lat="46.29327" lon="4.68271">
        <ele>549</ele>
        <time>2014-09-28T08:04:57Z</time>
      </trkpt>
      <trkpt lat="46.29332" lon="4.68263">
        <ele>547</ele>
        <time>2014-09-28T08:04:59Z</time>
      </trkpt>
      <trkpt lat="46.29333" lon="4.6826">
        <ele>540</ele>
        <time>2014-09-28T08:05:00Z</time>
      </trkpt>
      <trkpt lat="46.29339" lon="4.6825">
        <ele>541</ele>
        <time>2014-09-28T08:05:03Z</time>
      </trkpt>
      <trkpt lat="46.29341" lon="4.68247">
        <ele>539</ele>
        <time>2014-09-28T08:05:04Z</time>
      </trkpt>
      <trkpt lat="46.29344" lon="4.68239">
        <ele>537</ele>
        <time>2014-09-28T08:05:06Z</time>
      </trkpt>
      <trkpt lat="46.29345" lon="4.68235">
        <ele>536</ele>
        <time>2014-09-28T08:05:07Z</time>
      </trkpt>
      <trkpt lat="46.2935" lon="4.68225">
        <ele>534</ele>
        <time>2014-09-28T08:05:09Z</time>
      </trkpt>
      <trkpt lat="46.29352" lon="4.68221">
        <ele>533</ele>
        <time>2014-09-28T08:05:10Z</time>
      </trkpt>
      <trkpt lat="46.29356" lon="4.68217">
        <ele>532</ele>
        <time>2014-09-28T08:05:11Z</time>
      </trkpt>
      <trkpt lat="46.29359" lon="4.68213">
        <ele>531</ele>
        <time>2014-09-28T08:05:12Z</time>
      </trkpt>
      <trkpt lat="46.29363" lon="4.68209">
        <ele>531</ele>
        <time>2014-09-28T08:05:13Z</time>
      </trkpt>
      <trkpt lat="46.29367" lon="4.68205">
        <ele>530</ele>
        <time>2014-09-28T08:05:14Z</time>
      </trkpt>
      <trkpt lat="46.29371" lon="4.68202">
        <ele>530</ele>
        <time>2014-09-28T08:05:15Z</time>
      </trkpt>
      <trkpt lat="46.29375" lon="4.68197">
        <ele>530</ele>
        <time>2014-09-28T08:05:16Z</time>
      </trkpt>
      <trkpt lat="46.2938" lon="4.68192">
        <ele>529</ele>
        <time>2014-09-28T08:05:17Z</time>
      </trkpt>
      <trkpt lat="46.29389" lon="4.68185">
        <ele>528</ele>
        <time>2014-09-28T08:05:18Z</time>
      </trkpt>
      <trkpt lat="46.29397" lon="4.68182">
        <ele>527</ele>
        <time>2014-09-28T08:05:20Z</time>
      </trkpt>
      <trkpt lat="46.29401" lon="4.68179">
        <ele>527</ele>
        <time>2014-09-28T08:05:21Z</time>
      </trkpt>
      <trkpt lat="46.29407" lon="4.68176">
        <ele>526</ele>
        <time>2014-09-28T08:05:22Z</time>
      </trkpt>
      <trkpt lat="46.29413" lon="4.68174">
        <ele>526</ele>
        <time>2014-09-28T08:05:23Z</time>
      </trkpt>
      <trkpt lat="46.2942" lon="4.68172">
        <ele>522</ele>
        <time>2014-09-28T08:05:25Z</time>
      </trkpt>
      <trkpt lat="46.29424" lon="4.6817">
        <ele>522</ele>
        <time>2014-09-28T08:05:26Z</time>
      </trkpt>
      <trkpt lat="46.29432" lon="4.6817">
        <ele>521</ele>
        <time>2014-09-28T08:05:28Z</time>
      </trkpt>
      <trkpt lat="46.29436" lon="4.68169">
        <ele>520</ele>
        <time>2014-09-28T08:05:29Z</time>
      </trkpt>
      <trkpt lat="46.29442" lon="4.68166">
        <ele>519</ele>
        <time>2014-09-28T08:05:30Z</time>
      </trkpt>
      <trkpt lat="46.29448" lon="4.68163">
        <ele>519</ele>
        <time>2014-09-28T08:05:31Z</time>
      </trkpt>
      <trkpt lat="46.29452" lon="4.68157">
        <ele>518</ele>
        <time>2014-09-28T08:05:32Z</time>
      </trkpt>
      <trkpt lat="46.29456" lon="4.68152">
        <ele>518</ele>
        <time>2014-09-28T08:05:33Z</time>
      </trkpt>
      <trkpt lat="46.2946" lon="4.68147">
        <ele>518</ele>
        <time>2014-09-28T08:05:34Z</time>
      </trkpt>
      <trkpt lat="46.29465" lon="4.68142">
        <ele>517</ele>
        <time>2014-09-28T08:05:35Z</time>
      </trkpt>
      <trkpt lat="46.29469" lon="4.68137">
        <ele>517</ele>
        <time>2014-09-28T08:05:36Z</time>
      </trkpt>
      <trkpt lat="46.29474" lon="4.68132">
        <ele>517</ele>
        <time>2014-09-28T08:05:37Z</time>
      </trkpt>
      <trkpt lat="46.29477" lon="4.68127">
        <ele>517</ele>
        <time>2014-09-28T08:05:38Z</time>
      </trkpt>
      <trkpt lat="46.29481" lon="4.68119">
        <ele>517</ele>
        <time>2014-09-28T08:05:39Z</time>
      </trkpt>
      <trkpt lat="46.29484" lon="4.68114">
        <ele>517</ele>
        <time>2014-09-28T08:05:40Z</time>
      </trkpt>
      <trkpt lat="46.29491" lon="4.68108">
        <ele>517</ele>
        <time>2014-09-28T08:05:41Z</time>
      </trkpt>
      <trkpt lat="46.29497" lon="4.681">
        <ele>517</ele>
        <time>2014-09-28T08:05:42Z</time>
      </trkpt>
      <trkpt lat="46.29502" lon="4.68095">
        <ele>514</ele>
        <time>2014-09-28T08:05:43Z</time>
      </trkpt>
      <trkpt lat="46.29506" lon="4.68087">
        <ele>515</ele>
        <time>2014-09-28T08:05:44Z</time>
      </trkpt>
      <trkpt lat="46.29509" lon="4.68083">
        <ele>514</ele>
        <time>2014-09-28T08:05:45Z</time>
      </trkpt>
      <trkpt lat="46.29513" lon="4.68074">
        <ele>513</ele>
        <time>2014-09-28T08:05:46Z</time>
      </trkpt>
      <trkpt lat="46.29518" lon="4.68069">
        <ele>511</ele>
        <time>2014-09-28T08:05:47Z</time>
      </trkpt>
      <trkpt lat="46.29521" lon="4.68058">
        <ele>509</ele>
        <time>2014-09-28T08:05:49Z</time>
      </trkpt>
      <trkpt lat="46.29522" lon="4.68055">
        <ele>509</ele>
        <time>2014-09-28T08:05:50Z</time>
      </trkpt>
      <trkpt lat="46.29526" lon="4.68049">
        <ele>508</ele>
        <time>2014-09-28T08:05:52Z</time>
      </trkpt>
      <trkpt lat="46.2953" lon="4.68045">
        <ele>508</ele>
        <time>2014-09-28T08:05:53Z</time>
      </trkpt>
      <trkpt lat="46.29534" lon="4.68041">
        <ele>508</ele>
        <time>2014-09-28T08:05:54Z</time>
      </trkpt>
      <trkpt lat="46.29539" lon="4.68035">
        <ele>507</ele>
        <time>2014-09-28T08:05:55Z</time>
      </trkpt>
      <trkpt lat="46.29544" lon="4.68032">
        <ele>507</ele>
        <time>2014-09-28T08:05:56Z</time>
      </trkpt>
      <trkpt lat="46.29551" lon="4.68028">
        <ele>507</ele>
        <time>2014-09-28T08:05:57Z</time>
      </trkpt>
      <trkpt lat="46.29554" lon="4.68021">
        <ele>507</ele>
        <time>2014-09-28T08:05:58Z</time>
      </trkpt>
      <trkpt lat="46.29558" lon="4.68014">
        <ele>507</ele>
        <time>2014-09-28T08:05:59Z</time>
      </trkpt>
      <trkpt lat="46.29561" lon="4.68008">
        <ele>507</ele>
        <time>2014-09-28T08:06:00Z</time>
      </trkpt>
      <trkpt lat="46.29566" lon="4.68001">
        <ele>507</ele>
        <time>2014-09-28T08:06:01Z</time>
      </trkpt>
      <trkpt lat="46.29573" lon="4.67994">
        <ele>504</ele>
        <time>2014-09-28T08:06:03Z</time>
      </trkpt>
      <trkpt lat="46.29577" lon="4.67992">
        <ele>504</ele>
        <time>2014-09-28T08:06:04Z</time>
      </trkpt>
      <trkpt lat="46.29584" lon="4.67986">
        <ele>502</ele>
        <time>2014-09-28T08:06:06Z</time>
      </trkpt>
      <trkpt lat="46.29589" lon="4.67983">
        <ele>500</ele>
        <time>2014-09-28T08:06:07Z</time>
      </trkpt>
      <trkpt lat="46.29593" lon="4.67979">
        <ele>499</ele>
        <time>2014-09-28T08:06:08Z</time>
      </trkpt>
      <trkpt lat="46.29597" lon="4.67975">
        <ele>498</ele>
        <time>2014-09-28T08:06:09Z</time>
      </trkpt>
      <trkpt lat="46.29603" lon="4.67968">
        <ele>497</ele>
        <time>2014-09-28T08:06:10Z</time>
      </trkpt>
      <trkpt lat="46.29612" lon="4.67956">
        <ele>495</ele>
        <time>2014-09-28T08:06:11Z</time>
      </trkpt>
      <trkpt lat="46.29619" lon="4.67945">
        <ele>495</ele>
        <time>2014-09-28T08:06:12Z</time>
      </trkpt>
      <trkpt lat="46.29624" lon="4.67937">
        <ele>494</ele>
        <time>2014-09-28T08:06:13Z</time>
      </trkpt>
      <trkpt lat="46.29628" lon="4.67927">
        <ele>494</ele>
        <time>2014-09-28T08:06:14Z</time>
      </trkpt>
      <trkpt lat="46.29634" lon="4.67921">
        <ele>493</ele>
        <time>2014-09-28T08:06:15Z</time>
      </trkpt>
      <trkpt lat="46.29641" lon="4.67911">
        <ele>490</ele>
        <time>2014-09-28T08:06:16Z</time>
      </trkpt>
      <trkpt lat="46.29645" lon="4.67905">
        <ele>490</ele>
        <time>2014-09-28T08:06:17Z</time>
      </trkpt>
      <trkpt lat="46.29649" lon="4.67897">
        <ele>490</ele>
        <time>2014-09-28T08:06:18Z</time>
      </trkpt>
      <trkpt lat="46.29654" lon="4.67891">
        <ele>489</ele>
        <time>2014-09-28T08:06:19Z</time>
      </trkpt>
      <trkpt lat="46.29656" lon="4.67882">
        <ele>489</ele>
        <time>2014-09-28T08:06:20Z</time>
      </trkpt>
      <trkpt lat="46.2966" lon="4.67874">
        <ele>489</ele>
        <time>2014-09-28T08:06:21Z</time>
      </trkpt>
      <trkpt lat="46.29663" lon="4.67867">
        <ele>489</ele>
        <time>2014-09-28T08:06:22Z</time>
      </trkpt>
      <trkpt lat="46.29666" lon="4.67857">
        <ele>488</ele>
        <time>2014-09-28T08:06:23Z</time>
      </trkpt>
      <trkpt lat="46.29671" lon="4.67848">
        <ele>483</ele>
        <time>2014-09-28T08:06:24Z</time>
      </trkpt>
      <trkpt lat="46.29676" lon="4.67838">
        <ele>484</ele>
        <time>2014-09-28T08:06:25Z</time>
      </trkpt>
      <trkpt lat="46.29681" lon="4.67831">
        <ele>483</ele>
        <time>2014-09-28T08:06:26Z</time>
      </trkpt>
      <trkpt lat="46.29686" lon="4.67821">
        <ele>481</ele>
        <time>2014-09-28T08:06:28Z</time>
      </trkpt>
      <trkpt lat="46.29689" lon="4.67814">
        <ele>480</ele>
        <time>2014-09-28T08:06:29Z</time>
      </trkpt>
      <trkpt lat="46.29694" lon="4.67805">
        <ele>479</ele>
        <time>2014-09-28T08:06:31Z</time>
      </trkpt>
      <trkpt lat="46.29697" lon="4.67802">
        <ele>479</ele>
        <time>2014-09-28T08:06:32Z</time>
      </trkpt>
      <trkpt lat="46.297" lon="4.67798">
        <ele>478</ele>
        <time>2014-09-28T08:06:33Z</time>
      </trkpt>
      <trkpt lat="46.29704" lon="4.67793">
        <ele>478</ele>
        <time>2014-09-28T08:06:34Z</time>
      </trkpt>
      <trkpt lat="46.29708" lon="4.67789">
        <ele>478</ele>
        <time>2014-09-28T08:06:35Z</time>
      </trkpt>
      <trkpt lat="46.29711" lon="4.67785">
        <ele>477</ele>
        <time>2014-09-28T08:06:36Z</time>
      </trkpt>
      <trkpt lat="46.29717" lon="4.67782">
        <ele>477</ele>
        <time>2014-09-28T08:06:38Z</time>
      </trkpt>
      <trkpt lat="46.29721" lon="4.67779">
        <ele>477</ele>
        <time>2014-09-28T08:06:39Z</time>
      </trkpt>
      <trkpt lat="46.29726" lon="4.67771">
        <ele>477</ele>
        <time>2014-09-28T08:06:41Z</time>
      </trkpt>
      <trkpt lat="46.29727" lon="4.67766">
        <ele>477</ele>
        <time>2014-09-28T08:06:42Z</time>
      </trkpt>
      <trkpt lat="46.29732" lon="4.67761">
        <ele>477</ele>
        <time>2014-09-28T08:06:43Z</time>
      </trkpt>
      <trkpt lat="46.29737" lon="4.67755">
        <ele>476</ele>
        <time>2014-09-28T08:06:44Z</time>
      </trkpt>
      <trkpt lat="46.29742" lon="4.67748">
        <ele>474</ele>
        <time>2014-09-28T08:06:45Z</time>
      </trkpt>
      <trkpt lat="46.29744" lon="4.67742">
        <ele>474</ele>
        <time>2014-09-28T08:06:46Z</time>
      </trkpt>
      <trkpt lat="46.29745" lon="4.67731">
        <ele>473</ele>
        <time>2014-09-28T08:06:48Z</time>
      </trkpt>
      <trkpt lat="46.29748" lon="4.67726">
        <ele>472</ele>
        <time>2014-09-28T08:06:49Z</time>
      </trkpt>
      <trkpt lat="46.29751" lon="4.6772">
        <ele>469</ele>
        <time>2014-09-28T08:06:50Z</time>
      </trkpt>
      <trkpt lat="46.29753" lon="4.67716">
        <ele>468</ele>
        <time>2014-09-28T08:06:51Z</time>
      </trkpt>
      <trkpt lat="46.2976" lon="4.67709">
        <ele>467</ele>
        <time>2014-09-28T08:06:53Z</time>
      </trkpt>
      <trkpt lat="46.29761" lon="4.67708">
        <ele>467</ele>
        <time>2014-09-28T08:06:54Z</time>
      </trkpt>
      <trkpt lat="46.29763" lon="4.67697">
        <ele>467</ele>
        <time>2014-09-28T08:06:58Z</time>
      </trkpt>
      <trkpt lat="46.29762" lon="4.67694">
        <ele>467</ele>
        <time>2014-09-28T08:06:59Z</time>
      </trkpt>
      <trkpt lat="46.29758" lon="4.67683">
        <ele>467</ele>
        <time>2014-09-28T08:07:02Z</time>
      </trkpt>
      <trkpt lat="46.29756" lon="4.6768">
        <ele>467</ele>
        <time>2014-09-28T08:07:03Z</time>
      </trkpt>
      <trkpt lat="46.2975" lon="4.67673">
        <ele>468</ele>
        <time>2014-09-28T08:07:06Z</time>
      </trkpt>
      <trkpt lat="46.29748" lon="4.67672">
        <ele>469</ele>
        <time>2014-09-28T08:07:07Z</time>
      </trkpt>
      <trkpt lat="46.29744" lon="4.67661">
        <ele>465</ele>
        <time>2014-09-28T08:07:11Z</time>
      </trkpt>
      <trkpt lat="46.29746" lon="4.67657">
        <ele>464</ele>
        <time>2014-09-28T08:07:12Z</time>
      </trkpt>
      <trkpt lat="46.2975" lon="4.6765">
        <ele>463</ele>
        <time>2014-09-28T08:07:14Z</time>
      </trkpt>
      <trkpt lat="46.29752" lon="4.67646">
        <ele>462</ele>
        <time>2014-09-28T08:07:15Z</time>
      </trkpt>
      <trkpt lat="46.29755" lon="4.67635">
        <ele>460</ele>
        <time>2014-09-28T08:07:18Z</time>
      </trkpt>
      <trkpt lat="46.29756" lon="4.67632">
        <ele>459</ele>
        <time>2014-09-28T08:07:19Z</time>
      </trkpt>
      <trkpt lat="46.2976" lon="4.67625">
        <ele>458</ele>
        <time>2014-09-28T08:07:21Z</time>
      </trkpt>
      <trkpt lat="46.29763" lon="4.67621">
        <ele>458</ele>
        <time>2014-09-28T08:07:22Z</time>
      </trkpt>
      <trkpt lat="46.29769" lon="4.67612">
        <ele>457</ele>
        <time>2014-09-28T08:07:24Z</time>
      </trkpt>
      <trkpt lat="46.29772" lon="4.67606">
        <ele>456</ele>
        <time>2014-09-28T08:07:25Z</time>
      </trkpt>
      <trkpt lat="46.29777" lon="4.67596">
        <ele>455</ele>
        <time>2014-09-28T08:07:27Z</time>
      </trkpt>
      <trkpt lat="46.2978" lon="4.67592">
        <ele>455</ele>
        <time>2014-09-28T08:07:28Z</time>
      </trkpt>
      <trkpt lat="46.29787" lon="4.67586">
        <ele>455</ele>
        <time>2014-09-28T08:07:30Z</time>
      </trkpt>
      <trkpt lat="46.2979" lon="4.67585">
        <ele>455</ele>
        <time>2014-09-28T08:07:31Z</time>
      </trkpt>
      <trkpt lat="46.29798" lon="4.67585">
        <ele>454</ele>
        <time>2014-09-28T08:07:33Z</time>
      </trkpt>
      <trkpt lat="46.29802" lon="4.67585">
        <ele>454</ele>
        <time>2014-09-28T08:07:34Z</time>
      </trkpt>
      <trkpt lat="46.29809" lon="4.6759">
        <ele>454</ele>
        <time>2014-09-28T08:07:36Z</time>
      </trkpt>
      <trkpt lat="46.29812" lon="4.67592">
        <ele>453</ele>
        <time>2014-09-28T08:07:37Z</time>
      </trkpt>
      <trkpt lat="46.29819" lon="4.67599">
        <ele>453</ele>
        <time>2014-09-28T08:07:39Z</time>
      </trkpt>
      <trkpt lat="46.29825" lon="4.67606">
        <ele>454</ele>
        <time>2014-09-28T08:07:40Z</time>
      </trkpt>
      <trkpt lat="46.2983" lon="4.67611">
        <ele>454</ele>
        <time>2014-09-28T08:07:41Z</time>
      </trkpt>
      <trkpt lat="46.29836" lon="4.67617">
        <ele>446</ele>
        <time>2014-09-28T08:07:42Z</time>
      </trkpt>
      <trkpt lat="46.29842" lon="4.67624">
        <ele>445</ele>
        <time>2014-09-28T08:07:43Z</time>
      </trkpt>
      <trkpt lat="46.29848" lon="4.67632">
        <ele>446</ele>
        <time>2014-09-28T08:07:44Z</time>
      </trkpt>
      <trkpt lat="46.29852" lon="4.67639">
        <ele>446</ele>
        <time>2014-09-28T08:07:45Z</time>
      </trkpt>
      <trkpt lat="46.29856" lon="4.67646">
        <ele>446</ele>
        <time>2014-09-28T08:07:46Z</time>
      </trkpt>
      <trkpt lat="46.2986" lon="4.67652">
        <ele>446</ele>
        <time>2014-09-28T08:07:47Z</time>
      </trkpt>
      <trkpt lat="46.29863" lon="4.67658">
        <ele>445</ele>
        <time>2014-09-28T08:07:48Z</time>
      </trkpt>
      <trkpt lat="46.29866" lon="4.67666">
        <ele>445</ele>
        <time>2014-09-28T08:07:49Z</time>
      </trkpt>
      <trkpt lat="46.2987" lon="4.67673">
        <ele>446</ele>
        <time>2014-09-28T08:07:50Z</time>
      </trkpt>
      <trkpt lat="46.29874" lon="4.6768">
        <ele>445</ele>
        <time>2014-09-28T08:07:51Z</time>
      </trkpt>
      <trkpt lat="46.29877" lon="4.67686">
        <ele>445</ele>
        <time>2014-09-28T08:07:52Z</time>
      </trkpt>
      <trkpt lat="46.29881" lon="4.67693">
        <ele>444</ele>
        <time>2014-09-28T08:07:53Z</time>
      </trkpt>
      <trkpt lat="46.29886" lon="4.677">
        <ele>444</ele>
        <time>2014-09-28T08:07:54Z</time>
      </trkpt>
      <trkpt lat="46.2989" lon="4.67706">
        <ele>444</ele>
        <time>2014-09-28T08:07:55Z</time>
      </trkpt>
      <trkpt lat="46.29894" lon="4.67712">
        <ele>443</ele>
        <time>2014-09-28T08:07:56Z</time>
      </trkpt>
      <trkpt lat="46.29898" lon="4.67719">
        <ele>443</ele>
        <time>2014-09-28T08:07:57Z</time>
      </trkpt>
      <trkpt lat="46.29902" lon="4.67725">
        <ele>442</ele>
        <time>2014-09-28T08:07:58Z</time>
      </trkpt>
      <trkpt lat="46.29906" lon="4.67731">
        <ele>441</ele>
        <time>2014-09-28T08:07:59Z</time>
      </trkpt>
      <trkpt lat="46.29911" lon="4.67736">
        <ele>440</ele>
        <time>2014-09-28T08:08:00Z</time>
      </trkpt>
      <trkpt lat="46.29914" lon="4.67741">
        <ele>439</ele>
        <time>2014-09-28T08:08:01Z</time>
      </trkpt>
      <trkpt lat="46.29918" lon="4.67748">
        <ele>435</ele>
        <time>2014-09-28T08:08:02Z</time>
      </trkpt>
      <trkpt lat="46.29921" lon="4.67753">
        <ele>434</ele>
        <time>2014-09-28T08:08:03Z</time>
      </trkpt>
      <trkpt lat="46.29925" lon="4.67758">
        <ele>432</ele>
        <time>2014-09-28T08:08:04Z</time>
      </trkpt>
      <trkpt lat="46.29928" lon="4.67763">
        <ele>431</ele>
        <time>2014-09-28T08:08:05Z</time>
      </trkpt>
      <trkpt lat="46.29935" lon="4.67768">
        <ele>429</ele>
        <time>2014-09-28T08:08:06Z</time>
      </trkpt>
      <trkpt lat="46.2994" lon="4.67773">
        <ele>428</ele>
        <time>2014-09-28T08:08:07Z</time>
      </trkpt>
      <trkpt lat="46.29945" lon="4.67778">
        <ele>427</ele>
        <time>2014-09-28T08:08:08Z</time>
      </trkpt>
      <trkpt lat="46.2995" lon="4.67782">
        <ele>427</ele>
        <time>2014-09-28T08:08:09Z</time>
      </trkpt>
      <trkpt lat="46.29954" lon="4.67787">
        <ele>426</ele>
        <time>2014-09-28T08:08:10Z</time>
      </trkpt>
      <trkpt lat="46.29958" lon="4.67792">
        <ele>426</ele>
        <time>2014-09-28T08:08:11Z</time>
      </trkpt>
      <trkpt lat="46.29963" lon="4.67797">
        <ele>425</ele>
        <time>2014-09-28T08:08:12Z</time>
      </trkpt>
      <trkpt lat="46.29968" lon="4.67802">
        <ele>425</ele>
        <time>2014-09-28T08:08:13Z</time>
      </trkpt>
      <trkpt lat="46.29972" lon="4.67806">
        <ele>424</ele>
        <time>2014-09-28T08:08:14Z</time>
      </trkpt>
      <trkpt lat="46.29977" lon="4.67809">
        <ele>424</ele>
        <time>2014-09-28T08:08:15Z</time>
      </trkpt>
      <trkpt lat="46.29982" lon="4.67814">
        <ele>423</ele>
        <time>2014-09-28T08:08:16Z</time>
      </trkpt>
      <trkpt lat="46.29986" lon="4.67818">
        <ele>422</ele>
        <time>2014-09-28T08:08:17Z</time>
      </trkpt>
      <trkpt lat="46.2999" lon="4.67822">
        <ele>421</ele>
        <time>2014-09-28T08:08:18Z</time>
      </trkpt>
      <trkpt lat="46.29994" lon="4.67824">
        <ele>421</ele>
        <time>2014-09-28T08:08:19Z</time>
      </trkpt>
      <trkpt lat="46.29999" lon="4.67826">
        <ele>420</ele>
        <time>2014-09-28T08:08:20Z</time>
      </trkpt>
      <trkpt lat="46.30006" lon="4.67828">
        <ele>416</ele>
        <time>2014-09-28T08:08:22Z</time>
      </trkpt>
      <trkpt lat="46.30009" lon="4.67828">
        <ele>416</ele>
        <time>2014-09-28T08:08:23Z</time>
      </trkpt>
      <trkpt lat="46.30018" lon="4.67829">
        <ele>415</ele>
        <time>2014-09-28T08:08:26Z</time>
      </trkpt>
      <trkpt lat="46.3002" lon="4.67829">
        <ele>415</ele>
        <time>2014-09-28T08:08:27Z</time>
      </trkpt>
      <trkpt lat="46.30019" lon="4.67817">
        <ele>414</ele>
        <time>2014-09-28T08:08:32Z</time>
      </trkpt>
      <trkpt lat="46.30018" lon="4.67815">
        <ele>414</ele>
        <time>2014-09-28T08:08:33Z</time>
      </trkpt>
      <trkpt lat="46.30013" lon="4.67808">
        <ele>414</ele>
        <time>2014-09-28T08:08:35Z</time>
      </trkpt>
      <trkpt lat="46.30011" lon="4.67802">
        <ele>414</ele>
        <time>2014-09-28T08:08:36Z</time>
      </trkpt>
      <trkpt lat="46.30011" lon="4.67795">
        <ele>414</ele>
        <time>2014-09-28T08:08:37Z</time>
      </trkpt>
      <trkpt lat="46.30012" lon="4.67788">
        <ele>414</ele>
        <time>2014-09-28T08:08:38Z</time>
      </trkpt>
      <trkpt lat="46.30015" lon="4.67779">
        <ele>413</ele>
        <time>2014-09-28T08:08:39Z</time>
      </trkpt>
      <trkpt lat="46.30016" lon="4.67771">
        <ele>413</ele>
        <time>2014-09-28T08:08:40Z</time>
      </trkpt>
      <trkpt lat="46.30017" lon="4.67763">
        <ele>414</ele>
        <time>2014-09-28T08:08:41Z</time>
      </trkpt>
      <trkpt lat="46.30018" lon="4.67754">
        <ele>414</ele>
        <time>2014-09-28T08:08:42Z</time>
      </trkpt>
      <trkpt lat="46.3002" lon="4.67745">
        <ele>410</ele>
        <time>2014-09-28T08:08:43Z</time>
      </trkpt>
      <trkpt lat="46.3002" lon="4.67737">
        <ele>410</ele>
        <time>2014-09-28T08:08:44Z</time>
      </trkpt>
      <trkpt lat="46.30023" lon="4.67728">
        <ele>409</ele>
        <time>2014-09-28T08:08:45Z</time>
      </trkpt>
      <trkpt lat="46.30025" lon="4.6772">
        <ele>408</ele>
        <time>2014-09-28T08:08:46Z</time>
      </trkpt>
      <trkpt lat="46.30025" lon="4.67711">
        <ele>407</ele>
        <time>2014-09-28T08:08:47Z</time>
      </trkpt>
      <trkpt lat="46.30026" lon="4.67702">
        <ele>407</ele>
        <time>2014-09-28T08:08:48Z</time>
      </trkpt>
      <trkpt lat="46.30026" lon="4.67692">
        <ele>407</ele>
        <time>2014-09-28T08:08:49Z</time>
      </trkpt>
      <trkpt lat="46.30026" lon="4.67682">
        <ele>407</ele>
        <time>2014-09-28T08:08:50Z</time>
      </trkpt>
      <trkpt lat="46.30026" lon="4.67673">
        <ele>407</ele>
        <time>2014-09-28T08:08:51Z</time>
      </trkpt>
      <trkpt lat="46.30028" lon="4.67663">
        <ele>403</ele>
        <time>2014-09-28T08:08:52Z</time>
      </trkpt>
      <trkpt lat="46.30029" lon="4.67654">
        <ele>402</ele>
        <time>2014-09-28T08:08:53Z</time>
      </trkpt>
      <trkpt lat="46.30029" lon="4.67645">
        <ele>402</ele>
        <time>2014-09-28T08:08:54Z</time>
      </trkpt>
      <trkpt lat="46.3003" lon="4.67636">
        <ele>401</ele>
        <time>2014-09-28T08:08:55Z</time>
      </trkpt>
      <trkpt lat="46.3003" lon="4.67625">
        <ele>400</ele>
        <time>2014-09-28T08:08:56Z</time>
      </trkpt>
      <trkpt lat="46.30031" lon="4.67615">
        <ele>400</ele>
        <time>2014-09-28T08:08:57Z</time>
      </trkpt>
      <trkpt lat="46.30033" lon="4.67606">
        <ele>400</ele>
        <time>2014-09-28T08:08:58Z</time>
      </trkpt>
      <trkpt lat="46.30034" lon="4.67597">
        <ele>399</ele>
        <time>2014-09-28T08:08:59Z</time>
      </trkpt>
      <trkpt lat="46.30032" lon="4.67588">
        <ele>400</ele>
        <time>2014-09-28T08:09:00Z</time>
      </trkpt>
      <trkpt lat="46.30033" lon="4.67578">
        <ele>396</ele>
        <time>2014-09-28T08:09:01Z</time>
      </trkpt>
      <trkpt lat="46.30031" lon="4.67568">
        <ele>396</ele>
        <time>2014-09-28T08:09:02Z</time>
      </trkpt>
      <trkpt lat="46.30031" lon="4.67556">
        <ele>395</ele>
        <time>2014-09-28T08:09:03Z</time>
      </trkpt>
      <trkpt lat="46.30029" lon="4.67547">
        <ele>395</ele>
        <time>2014-09-28T08:09:04Z</time>
      </trkpt>
      <trkpt lat="46.30028" lon="4.67537">
        <ele>395</ele>
        <time>2014-09-28T08:09:05Z</time>
      </trkpt>
      <trkpt lat="46.30028" lon="4.67527">
        <ele>394</ele>
        <time>2014-09-28T08:09:06Z</time>
      </trkpt>
      <trkpt lat="46.30026" lon="4.67518">
        <ele>395</ele>
        <time>2014-09-28T08:09:07Z</time>
      </trkpt>
      <trkpt lat="46.30025" lon="4.67507">
        <ele>395</ele>
        <time>2014-09-28T08:09:08Z</time>
      </trkpt>
      <trkpt lat="46.30025" lon="4.67499">
        <ele>391</ele>
        <time>2014-09-28T08:09:09Z</time>
      </trkpt>
      <trkpt lat="46.30023" lon="4.6749">
        <ele>391</ele>
        <time>2014-09-28T08:09:10Z</time>
      </trkpt>
      <trkpt lat="46.30022" lon="4.67482">
        <ele>390</ele>
        <time>2014-09-28T08:09:11Z</time>
      </trkpt>
      <trkpt lat="46.30021" lon="4.67473">
        <ele>390</ele>
        <time>2014-09-28T08:09:12Z</time>
      </trkpt>
      <trkpt lat="46.30019" lon="4.67464">
        <ele>389</ele>
        <time>2014-09-28T08:09:13Z</time>
      </trkpt>
      <trkpt lat="46.30016" lon="4.67455">
        <ele>389</ele>
        <time>2014-09-28T08:09:14Z</time>
      </trkpt>
      <trkpt lat="46.30015" lon="4.67444">
        <ele>388</ele>
        <time>2014-09-28T08:09:15Z</time>
      </trkpt>
      <trkpt lat="46.30014" lon="4.67435">
        <ele>389</ele>
        <time>2014-09-28T08:09:16Z</time>
      </trkpt>
      <trkpt lat="46.30013" lon="4.67425">
        <ele>390</ele>
        <time>2014-09-28T08:09:17Z</time>
      </trkpt>
      <trkpt lat="46.30009" lon="4.67416">
        <ele>388</ele>
        <time>2014-09-28T08:09:18Z</time>
      </trkpt>
      <trkpt lat="46.30009" lon="4.67407">
        <ele>387</ele>
        <time>2014-09-28T08:09:19Z</time>
      </trkpt>
      <trkpt lat="46.30007" lon="4.67401">
        <ele>385</ele>
        <time>2014-09-28T08:09:20Z</time>
      </trkpt>
      <trkpt lat="46.30006" lon="4.67397">
        <ele>384</ele>
        <time>2014-09-28T08:09:21Z</time>
      </trkpt>
      <trkpt lat="46.30002" lon="4.67386">
        <ele>382</ele>
        <time>2014-09-28T08:09:22Z</time>
      </trkpt>
      <trkpt lat="46.3" lon="4.67379">
        <ele>394</ele>
        <time>2014-09-28T08:09:23Z</time>
      </trkpt>
      <trkpt lat="46.29997" lon="4.67369">
        <ele>393</ele>
        <time>2014-09-28T08:09:24Z</time>
      </trkpt>
      <trkpt lat="46.29995" lon="4.67359">
        <ele>391</ele>
        <time>2014-09-28T08:09:25Z</time>
      </trkpt>
      <trkpt lat="46.29991" lon="4.67349">
        <ele>390</ele>
        <time>2014-09-28T08:09:26Z</time>
      </trkpt>
      <trkpt lat="46.29984" lon="4.67342">
        <ele>390</ele>
        <time>2014-09-28T08:09:27Z</time>
      </trkpt>
      <trkpt lat="46.29981" lon="4.67332">
        <ele>384</ele>
        <time>2014-09-28T08:09:28Z</time>
      </trkpt>
      <trkpt lat="46.29979" lon="4.67322">
        <ele>384</ele>
        <time>2014-09-28T08:09:29Z</time>
      </trkpt>
      <trkpt lat="46.29972" lon="4.67315">
        <ele>385</ele>
        <time>2014-09-28T08:09:30Z</time>
      </trkpt>
      <trkpt lat="46.29968" lon="4.67307">
        <ele>384</ele>
        <time>2014-09-28T08:09:31Z</time>
      </trkpt>
      <trkpt lat="46.29962" lon="4.67298">
        <ele>384</ele>
        <time>2014-09-28T08:09:32Z</time>
      </trkpt>
      <trkpt lat="46.2996" lon="4.67289">
        <ele>384</ele>
        <time>2014-09-28T08:09:33Z</time>
      </trkpt>
      <trkpt lat="46.29957" lon="4.67279">
        <ele>383</ele>
        <time>2014-09-28T08:09:34Z</time>
      </trkpt>
      <trkpt lat="46.29952" lon="4.67271">
        <ele>383</ele>
        <time>2014-09-28T08:09:35Z</time>
      </trkpt>
      <trkpt lat="46.29944" lon="4.67265">
        <ele>383</ele>
        <time>2014-09-28T08:09:36Z</time>
      </trkpt>
      <trkpt lat="46.29941" lon="4.6726">
        <ele>383</ele>
        <time>2014-09-28T08:09:37Z</time>
      </trkpt>
      <trkpt lat="46.29936" lon="4.67255">
        <ele>383</ele>
        <time>2014-09-28T08:09:38Z</time>
      </trkpt>
      <trkpt lat="46.29933" lon="4.6725">
        <ele>383</ele>
        <time>2014-09-28T08:09:39Z</time>
      </trkpt>
      <trkpt lat="46.29927" lon="4.67246">
        <ele>378</ele>
        <time>2014-09-28T08:09:40Z</time>
      </trkpt>
      <trkpt lat="46.29923" lon="4.67241">
        <ele>379</ele>
        <time>2014-09-28T08:09:41Z</time>
      </trkpt>
      <trkpt lat="46.29914" lon="4.67239">
        <ele>380</ele>
        <time>2014-09-28T08:09:42Z</time>
      </trkpt>
      <trkpt lat="46.29911" lon="4.67233">
        <ele>378</ele>
        <time>2014-09-28T08:09:43Z</time>
      </trkpt>
      <trkpt lat="46.29906" lon="4.67233">
        <ele>378</ele>
        <time>2014-09-28T08:09:44Z</time>
      </trkpt>
      <trkpt lat="46.29898" lon="4.67229">
        <ele>377</ele>
        <time>2014-09-28T08:09:45Z</time>
      </trkpt>
      <trkpt lat="46.29893" lon="4.67227">
        <ele>376</ele>
        <time>2014-09-28T08:09:46Z</time>
      </trkpt>
      <trkpt lat="46.2989" lon="4.67222">
        <ele>375</ele>
        <time>2014-09-28T08:09:47Z</time>
      </trkpt>
      <trkpt lat="46.29883" lon="4.67218">
        <ele>375</ele>
        <time>2014-09-28T08:09:48Z</time>
      </trkpt>
      <trkpt lat="46.2988" lon="4.67211">
        <ele>374</ele>
        <time>2014-09-28T08:09:49Z</time>
      </trkpt>
      <trkpt lat="46.29876" lon="4.67207">
        <ele>374</ele>
        <time>2014-09-28T08:09:50Z</time>
      </trkpt>
      <trkpt lat="46.2987" lon="4.67204">
        <ele>373</ele>
        <time>2014-09-28T08:09:51Z</time>
      </trkpt>
      <trkpt lat="46.29863" lon="4.67201">
        <ele>373</ele>
        <time>2014-09-28T08:09:52Z</time>
      </trkpt>
      <trkpt lat="46.29854" lon="4.67201">
        <ele>373</ele>
        <time>2014-09-28T08:09:53Z</time>
      </trkpt>
      <trkpt lat="46.29845" lon="4.672">
        <ele>372</ele>
        <time>2014-09-28T08:09:54Z</time>
      </trkpt>
      <trkpt lat="46.29835" lon="4.67198">
        <ele>372</ele>
        <time>2014-09-28T08:09:55Z</time>
      </trkpt>
      <trkpt lat="46.29827" lon="4.67193">
        <ele>373</ele>
        <time>2014-09-28T08:09:56Z</time>
      </trkpt>
      <trkpt lat="46.29823" lon="4.67196">
        <ele>374</ele>
        <time>2014-09-28T08:09:57Z</time>
      </trkpt>
      <trkpt lat="46.29817" lon="4.67197">
        <ele>375</ele>
        <time>2014-09-28T08:09:58Z</time>
      </trkpt>
      <trkpt lat="46.29811" lon="4.67197">
        <ele>375</ele>
        <time>2014-09-28T08:09:59Z</time>
      </trkpt>
      <trkpt lat="46.29805" lon="4.67197">
        <ele>375</ele>
        <time>2014-09-28T08:10:00Z</time>
      </trkpt>
      <trkpt lat="46.298" lon="4.67194">
        <ele>376</ele>
        <time>2014-09-28T08:10:01Z</time>
      </trkpt>
      <trkpt lat="46.29796" lon="4.67194">
        <ele>376</ele>
        <time>2014-09-28T08:10:02Z</time>
      </trkpt>
      <trkpt lat="46.29791" lon="4.67192">
        <ele>376</ele>
        <time>2014-09-28T08:10:03Z</time>
      </trkpt>
      <trkpt lat="46.29789" lon="4.6718">
        <ele>376</ele>
        <time>2014-09-28T08:10:05Z</time>
      </trkpt>
      <trkpt lat="46.29788" lon="4.67173">
        <ele>376</ele>
        <time>2014-09-28T08:10:06Z</time>
      </trkpt>
      <trkpt lat="46.29788" lon="4.67165">
        <ele>374</ele>
        <time>2014-09-28T08:10:07Z</time>
      </trkpt>
      <trkpt lat="46.29791" lon="4.67156">
        <ele>373</ele>
        <time>2014-09-28T08:10:08Z</time>
      </trkpt>
      <trkpt lat="46.29793" lon="4.67147">
        <ele>373</ele>
        <time>2014-09-28T08:10:09Z</time>
      </trkpt>
      <trkpt lat="46.29794" lon="4.67139">
        <ele>372</ele>
        <time>2014-09-28T08:10:10Z</time>
      </trkpt>
      <trkpt lat="46.29795" lon="4.6713">
        <ele>372</ele>
        <time>2014-09-28T08:10:11Z</time>
      </trkpt>
      <trkpt lat="46.29793" lon="4.67123">
        <ele>372</ele>
        <time>2014-09-28T08:10:12Z</time>
      </trkpt>
      <trkpt lat="46.29793" lon="4.67114">
        <ele>372</ele>
        <time>2014-09-28T08:10:13Z</time>
      </trkpt>
      <trkpt lat="46.29794" lon="4.67104">
        <ele>372</ele>
        <time>2014-09-28T08:10:14Z</time>
      </trkpt>
      <trkpt lat="46.29794" lon="4.67094">
        <ele>372</ele>
        <time>2014-09-28T08:10:15Z</time>
      </trkpt>
      <trkpt lat="46.29794" lon="4.67085">
        <ele>372</ele>
        <time>2014-09-28T08:10:16Z</time>
      </trkpt>
      <trkpt lat="46.29795" lon="4.67077">
        <ele>369</ele>
        <time>2014-09-28T08:10:17Z</time>
      </trkpt>
      <trkpt lat="46.29794" lon="4.67069">
        <ele>369</ele>
        <time>2014-09-28T08:10:18Z</time>
      </trkpt>
      <trkpt lat="46.29794" lon="4.6706">
        <ele>369</ele>
        <time>2014-09-28T08:10:19Z</time>
      </trkpt>
      <trkpt lat="46.29794" lon="4.67051">
        <ele>368</ele>
        <time>2014-09-28T08:10:20Z</time>
      </trkpt>
      <trkpt lat="46.29796" lon="4.67043">
        <ele>368</ele>
        <time>2014-09-28T08:10:21Z</time>
      </trkpt>
      <trkpt lat="46.29796" lon="4.67034">
        <ele>368</ele>
        <time>2014-09-28T08:10:22Z</time>
      </trkpt>
      <trkpt lat="46.29793" lon="4.67026">
        <ele>368</ele>
        <time>2014-09-28T08:10:23Z</time>
      </trkpt>
      <trkpt lat="46.29791" lon="4.67019">
        <ele>368</ele>
        <time>2014-09-28T08:10:24Z</time>
      </trkpt>
      <trkpt lat="46.2979" lon="4.6701">
        <ele>368</ele>
        <time>2014-09-28T08:10:25Z</time>
      </trkpt>
      <trkpt lat="46.29789" lon="4.67002">
        <ele>368</ele>
        <time>2014-09-28T08:10:26Z</time>
      </trkpt>
      <trkpt lat="46.29786" lon="4.66995">
        <ele>364</ele>
        <time>2014-09-28T08:10:27Z</time>
      </trkpt>
      <trkpt lat="46.29785" lon="4.66988">
        <ele>363</ele>
        <time>2014-09-28T08:10:28Z</time>
      </trkpt>
      <trkpt lat="46.29784" lon="4.66982">
        <ele>363</ele>
        <time>2014-09-28T08:10:29Z</time>
      </trkpt>
      <trkpt lat="46.29783" lon="4.66975">
        <ele>363</ele>
        <time>2014-09-28T08:10:30Z</time>
      </trkpt>
      <trkpt lat="46.29782" lon="4.66962">
        <ele>362</ele>
        <time>2014-09-28T08:10:32Z</time>
      </trkpt>
      <trkpt lat="46.2978" lon="4.66956">
        <ele>362</ele>
        <time>2014-09-28T08:10:33Z</time>
      </trkpt>
      <trkpt lat="46.29779" lon="4.66949">
        <ele>362</ele>
        <time>2014-09-28T08:10:34Z</time>
      </trkpt>
      <trkpt lat="46.29778" lon="4.66941">
        <ele>361</ele>
        <time>2014-09-28T08:10:35Z</time>
      </trkpt>
      <trkpt lat="46.29776" lon="4.66932">
        <ele>361</ele>
        <time>2014-09-28T08:10:36Z</time>
      </trkpt>
      <trkpt lat="46.29772" lon="4.66923">
        <ele>361</ele>
        <time>2014-09-28T08:10:37Z</time>
      </trkpt>
      <trkpt lat="46.29769" lon="4.66914">
        <ele>356</ele>
        <time>2014-09-28T08:10:38Z</time>
      </trkpt>
      <trkpt lat="46.29764" lon="4.66904">
        <ele>356</ele>
        <time>2014-09-28T08:10:39Z</time>
      </trkpt>
      <trkpt lat="46.29759" lon="4.66895">
        <ele>355</ele>
        <time>2014-09-28T08:10:40Z</time>
      </trkpt>
      <trkpt lat="46.29755" lon="4.66885">
        <ele>354</ele>
        <time>2014-09-28T08:10:41Z</time>
      </trkpt>
      <trkpt lat="46.29748" lon="4.66876">
        <ele>361</ele>
        <time>2014-09-28T08:10:42Z</time>
      </trkpt>
      <trkpt lat="46.29742" lon="4.66866">
        <ele>360</ele>
        <time>2014-09-28T08:10:43Z</time>
      </trkpt>
      <trkpt lat="46.29736" lon="4.66857">
        <ele>359</ele>
        <time>2014-09-28T08:10:44Z</time>
      </trkpt>
      <trkpt lat="46.29729" lon="4.66847">
        <ele>358</ele>
        <time>2014-09-28T08:10:45Z</time>
      </trkpt>
      <trkpt lat="46.29722" lon="4.66838">
        <ele>359</ele>
        <time>2014-09-28T08:10:46Z</time>
      </trkpt>
      <trkpt lat="46.29714" lon="4.6683">
        <ele>351</ele>
        <time>2014-09-28T08:10:47Z</time>
      </trkpt>
      <trkpt lat="46.29708" lon="4.66822">
        <ele>351</ele>
        <time>2014-09-28T08:10:48Z</time>
      </trkpt>
      <trkpt lat="46.29702" lon="4.66814">
        <ele>351</ele>
        <time>2014-09-28T08:10:49Z</time>
      </trkpt>
      <trkpt lat="46.29697" lon="4.66805">
        <ele>351</ele>
        <time>2014-09-28T08:10:50Z</time>
      </trkpt>
      <trkpt lat="46.29691" lon="4.66795">
        <ele>351</ele>
        <time>2014-09-28T08:10:51Z</time>
      </trkpt>
      <trkpt lat="46.2969" lon="4.66784">
        <ele>350</ele>
        <time>2014-09-28T08:10:52Z</time>
      </trkpt>
      <trkpt lat="46.29685" lon="4.66774">
        <ele>349</ele>
        <time>2014-09-28T08:10:53Z</time>
      </trkpt>
      <trkpt lat="46.29681" lon="4.66763">
        <ele>348</ele>
        <time>2014-09-28T08:10:54Z</time>
      </trkpt>
      <trkpt lat="46.29678" lon="4.66751">
        <ele>348</ele>
        <time>2014-09-28T08:10:55Z</time>
      </trkpt>
      <trkpt lat="46.29677" lon="4.66738">
        <ele>346</ele>
        <time>2014-09-28T08:10:56Z</time>
      </trkpt>
      <trkpt lat="46.29674" lon="4.66725">
        <ele>345</ele>
        <time>2014-09-28T08:10:57Z</time>
      </trkpt>
      <trkpt lat="46.29674" lon="4.66711">
        <ele>345</ele>
        <time>2014-09-28T08:10:58Z</time>
      </trkpt>
      <trkpt lat="46.29673" lon="4.66697">
        <ele>344</ele>
        <time>2014-09-28T08:10:59Z</time>
      </trkpt>
      <trkpt lat="46.29675" lon="4.66682">
        <ele>344</ele>
        <time>2014-09-28T08:11:00Z</time>
      </trkpt>
      <trkpt lat="46.29675" lon="4.66668">
        <ele>344</ele>
        <time>2014-09-28T08:11:01Z</time>
      </trkpt>
      <trkpt lat="46.29676" lon="4.66657">
        <ele>347</ele>
        <time>2014-09-28T08:11:02Z</time>
      </trkpt>
      <trkpt lat="46.29679" lon="4.66647">
        <ele>349</ele>
        <time>2014-09-28T08:11:03Z</time>
      </trkpt>
      <trkpt lat="46.29681" lon="4.66639">
        <ele>350</ele>
        <time>2014-09-28T08:11:04Z</time>
      </trkpt>
      <trkpt lat="46.29682" lon="4.6663">
        <ele>351</ele>
        <time>2014-09-28T08:11:05Z</time>
      </trkpt>
      <trkpt lat="46.29677" lon="4.66621">
        <ele>352</ele>
        <time>2014-09-28T08:11:07Z</time>
      </trkpt>
      <trkpt lat="46.29677" lon="4.66615">
        <ele>352</ele>
        <time>2014-09-28T08:11:08Z</time>
      </trkpt>
      <trkpt lat="46.29674" lon="4.66604">
        <ele>353</ele>
        <time>2014-09-28T08:11:10Z</time>
      </trkpt>
      <trkpt lat="46.29672" lon="4.66601">
        <ele>353</ele>
        <time>2014-09-28T08:11:11Z</time>
      </trkpt>
      <trkpt lat="46.29669" lon="4.66595">
        <ele>353</ele>
        <time>2014-09-28T08:11:12Z</time>
      </trkpt>
      <trkpt lat="46.29665" lon="4.66589">
        <ele>351</ele>
        <time>2014-09-28T08:11:13Z</time>
      </trkpt>
      <trkpt lat="46.29659" lon="4.66583">
        <ele>353</ele>
        <time>2014-09-28T08:11:14Z</time>
      </trkpt>
      <trkpt lat="46.29654" lon="4.66577">
        <ele>353</ele>
        <time>2014-09-28T08:11:15Z</time>
      </trkpt>
      <trkpt lat="46.29651" lon="4.66572">
        <ele>353</ele>
        <time>2014-09-28T08:11:16Z</time>
      </trkpt>
      <trkpt lat="46.29646" lon="4.66568">
        <ele>354</ele>
        <time>2014-09-28T08:11:17Z</time>
      </trkpt>
      <trkpt lat="46.2964" lon="4.66561">
        <ele>354</ele>
        <time>2014-09-28T08:11:18Z</time>
      </trkpt>
      <trkpt lat="46.29636" lon="4.66554">
        <ele>354</ele>
        <time>2014-09-28T08:11:19Z</time>
      </trkpt>
      <trkpt lat="46.29633" lon="4.66547">
        <ele>355</ele>
        <time>2014-09-28T08:11:20Z</time>
      </trkpt>
      <trkpt lat="46.29628" lon="4.66542">
        <ele>355</ele>
        <time>2014-09-28T08:11:21Z</time>
      </trkpt>
      <trkpt lat="46.29625" lon="4.66537">
        <ele>355</ele>
        <time>2014-09-28T08:11:22Z</time>
      </trkpt>
      <trkpt lat="46.29621" lon="4.66532">
        <ele>355</ele>
        <time>2014-09-28T08:11:23Z</time>
      </trkpt>
      <trkpt lat="46.29617" lon="4.66527">
        <ele>355</ele>
        <time>2014-09-28T08:11:24Z</time>
      </trkpt>
      <trkpt lat="46.29613" lon="4.6652">
        <ele>355</ele>
        <time>2014-09-28T08:11:25Z</time>
      </trkpt>
      <trkpt lat="46.2961" lon="4.66514">
        <ele>354</ele>
        <time>2014-09-28T08:11:26Z</time>
      </trkpt>
      <trkpt lat="46.29606" lon="4.66508">
        <ele>354</ele>
        <time>2014-09-28T08:11:27Z</time>
      </trkpt>
      <trkpt lat="46.29601" lon="4.66503">
        <ele>353</ele>
        <time>2014-09-28T08:11:28Z</time>
      </trkpt>
      <trkpt lat="46.29597" lon="4.66498">
        <ele>359</ele>
        <time>2014-09-28T08:11:29Z</time>
      </trkpt>
      <trkpt lat="46.29592" lon="4.66494">
        <ele>357</ele>
        <time>2014-09-28T08:11:30Z</time>
      </trkpt>
      <trkpt lat="46.29588" lon="4.6649">
        <ele>358</ele>
        <time>2014-09-28T08:11:31Z</time>
      </trkpt>
      <trkpt lat="46.29583" lon="4.66485">
        <ele>359</ele>
        <time>2014-09-28T08:11:32Z</time>
      </trkpt>
      <trkpt lat="46.29579" lon="4.66481">
        <ele>354</ele>
        <time>2014-09-28T08:11:33Z</time>
      </trkpt>
      <trkpt lat="46.29572" lon="4.66478">
        <ele>354</ele>
        <time>2014-09-28T08:11:34Z</time>
      </trkpt>
      <trkpt lat="46.2957" lon="4.66474">
        <ele>355</ele>
        <time>2014-09-28T08:11:35Z</time>
      </trkpt>
      <trkpt lat="46.29565" lon="4.66466">
        <ele>356</ele>
        <time>2014-09-28T08:11:37Z</time>
      </trkpt>
      <trkpt lat="46.29562" lon="4.66463">
        <ele>356</ele>
        <time>2014-09-28T08:11:38Z</time>
      </trkpt>
      <trkpt lat="46.29557" lon="4.66454">
        <ele>356</ele>
        <time>2014-09-28T08:11:40Z</time>
      </trkpt>
      <trkpt lat="46.29558" lon="4.6645">
        <ele>357</ele>
        <time>2014-09-28T08:11:41Z</time>
      </trkpt>
      <trkpt lat="46.29552" lon="4.66442">
        <ele>357</ele>
        <time>2014-09-28T08:11:43Z</time>
      </trkpt>
      <trkpt lat="46.29549" lon="4.66438">
        <ele>357</ele>
        <time>2014-09-28T08:11:44Z</time>
      </trkpt>
      <trkpt lat="46.29543" lon="4.66431">
        <ele>357</ele>
        <time>2014-09-28T08:11:46Z</time>
      </trkpt>
      <trkpt lat="46.29541" lon="4.66428">
        <ele>357</ele>
        <time>2014-09-28T08:11:47Z</time>
      </trkpt>
      <trkpt lat="46.29536" lon="4.66421">
        <ele>356</ele>
        <time>2014-09-28T08:11:49Z</time>
      </trkpt>
      <trkpt lat="46.29533" lon="4.66417">
        <ele>356</ele>
        <time>2014-09-28T08:11:50Z</time>
      </trkpt>
      <trkpt lat="46.29528" lon="4.6641">
        <ele>361</ele>
        <time>2014-09-28T08:11:52Z</time>
      </trkpt>
      <trkpt lat="46.29526" lon="4.66407">
        <ele>361</ele>
        <time>2014-09-28T08:11:53Z</time>
      </trkpt>
      <trkpt lat="46.29521" lon="4.66399">
        <ele>361</ele>
        <time>2014-09-28T08:11:55Z</time>
      </trkpt>
      <trkpt lat="46.29518" lon="4.66396">
        <ele>361</ele>
        <time>2014-09-28T08:11:56Z</time>
      </trkpt>
      <trkpt lat="46.29513" lon="4.66389">
        <ele>361</ele>
        <time>2014-09-28T08:11:58Z</time>
      </trkpt>
      <trkpt lat="46.29511" lon="4.66386">
        <ele>361</ele>
        <time>2014-09-28T08:11:59Z</time>
      </trkpt>
      <trkpt lat="46.29518" lon="4.66382">
        <ele>362</ele>
        <time>2014-09-28T08:12:07Z</time>
      </trkpt>
      <trkpt lat="46.2952" lon="4.66384">
        <ele>362</ele>
        <time>2014-09-28T08:12:08Z</time>
      </trkpt>
      <trkpt lat="46.29527" lon="4.66376">
        <ele>364</ele>
        <time>2014-09-28T08:12:17Z</time>
      </trkpt>
      <trkpt lat="46.29527" lon="4.66374">
        <ele>364</ele>
        <time>2014-09-28T08:12:18Z</time>
      </trkpt>
      <trkpt lat="46.29527" lon="4.66362">
        <ele>364</ele>
        <time>2014-09-28T08:12:26Z</time>
      </trkpt>
      <trkpt lat="46.29527" lon="4.66361">
        <ele>364</ele>
        <time>2014-09-28T08:12:27Z</time>
      </trkpt>
      <trkpt lat="46.29526" lon="4.66348">
        <ele>365</ele>
        <time>2014-09-28T08:12:34Z</time>
      </trkpt>
      <trkpt lat="46.29526" lon="4.66346">
        <ele>365</ele>
        <time>2014-09-28T08:12:35Z</time>
      </trkpt>
      <trkpt lat="46.29526" lon="4.66334">
        <ele>365</ele>
        <time>2014-09-28T08:12:43Z</time>
      </trkpt>
      <trkpt lat="46.29526" lon="4.66333">
        <ele>369</ele>
        <time>2014-09-28T08:12:44Z</time>
      </trkpt>
      <trkpt lat="46.29531" lon="4.66324">
        <ele>370</ele>
        <time>2014-09-28T08:12:52Z</time>
      </trkpt>
      <trkpt lat="46.29532" lon="4.66323">
        <ele>370</ele>
        <time>2014-09-28T08:12:53Z</time>
      </trkpt>
      <trkpt lat="46.29538" lon="4.66314">
        <ele>371</ele>
        <time>2014-09-28T08:13:00Z</time>
      </trkpt>
      <trkpt lat="46.29539" lon="4.66313">
        <ele>372</ele>
        <time>2014-09-28T08:13:01Z</time>
      </trkpt>
      <trkpt lat="46.29542" lon="4.66302">
        <ele>372</ele>
        <time>2014-09-28T08:13:12Z</time>
      </trkpt>
      <trkpt lat="46.29543" lon="4.663">
        <ele>372</ele>
        <time>2014-09-28T08:13:13Z</time>
      </trkpt>
      <trkpt lat="46.2955" lon="4.66295">
        <ele>373</ele>
        <time>2014-09-28T08:13:21Z</time>
      </trkpt>
      <trkpt lat="46.29551" lon="4.66295">
        <ele>373</ele>
        <time>2014-09-28T08:13:22Z</time>
      </trkpt>
      <trkpt lat="46.29558" lon="4.66288">
        <ele>374</ele>
        <time>2014-09-28T08:13:28Z</time>
      </trkpt>
      <trkpt lat="46.29559" lon="4.66287">
        <ele>374</ele>
        <time>2014-09-28T08:13:29Z</time>
      </trkpt>
      <trkpt lat="46.29565" lon="4.66281">
        <ele>374</ele>
        <time>2014-09-28T08:13:35Z</time>
      </trkpt>
      <trkpt lat="46.29566" lon="4.6628">
        <ele>374</ele>
        <time>2014-09-28T08:13:36Z</time>
      </trkpt>
      <trkpt lat="46.29572" lon="4.66272">
        <ele>375</ele>
        <time>2014-09-28T08:13:42Z</time>
      </trkpt>
      <trkpt lat="46.29573" lon="4.6627">
        <ele>375</ele>
        <time>2014-09-28T08:13:43Z</time>
      </trkpt>
      <trkpt lat="46.29577" lon="4.66261">
        <ele>376</ele>
        <time>2014-09-28T08:13:49Z</time>
      </trkpt>
      <trkpt lat="46.29579" lon="4.66259">
        <ele>376</ele>
        <time>2014-09-28T08:13:50Z</time>
      </trkpt>
      <trkpt lat="46.29585" lon="4.66251">
        <ele>378</ele>
        <time>2014-09-28T08:13:56Z</time>
      </trkpt>
      <trkpt lat="46.29586" lon="4.66249">
        <ele>378</ele>
        <time>2014-09-28T08:13:57Z</time>
      </trkpt>
      <trkpt lat="46.29592" lon="4.6624">
        <ele>381</ele>
        <time>2014-09-28T08:14:14Z</time>
      </trkpt>
      <trkpt lat="46.29592" lon="4.66239">
        <ele>381</ele>
        <time>2014-09-28T08:14:15Z</time>
      </trkpt>
      <trkpt lat="46.29598" lon="4.66231">
        <ele>383</ele>
        <time>2014-09-28T08:14:32Z</time>
      </trkpt>
      <trkpt lat="46.29598" lon="4.6623">
        <ele>383</ele>
        <time>2014-09-28T08:14:33Z</time>
      </trkpt>
      <trkpt lat="46.29604" lon="4.6622">
        <ele>384</ele>
        <time>2014-09-28T08:14:39Z</time>
      </trkpt>
      <trkpt lat="46.29605" lon="4.66219">
        <ele>384</ele>
        <time>2014-09-28T08:14:40Z</time>
      </trkpt>
      <trkpt lat="46.29612" lon="4.66215">
        <ele>385</ele>
        <time>2014-09-28T08:14:46Z</time>
      </trkpt>
      <trkpt lat="46.29614" lon="4.66215">
        <ele>385</ele>
        <time>2014-09-28T08:14:47Z</time>
      </trkpt>
      <trkpt lat="46.29621" lon="4.6621">
        <ele>386</ele>
        <time>2014-09-28T08:14:53Z</time>
      </trkpt>
      <trkpt lat="46.29622" lon="4.66209">
        <ele>386</ele>
        <time>2014-09-28T08:14:54Z</time>
      </trkpt>
      <trkpt lat="46.29627" lon="4.662">
        <ele>387</ele>
        <time>2014-09-28T08:15:24Z</time>
      </trkpt>
      <trkpt lat="46.29628" lon="4.66199">
        <ele>387</ele>
        <time>2014-09-28T08:15:25Z</time>
      </trkpt>
      <trkpt lat="46.29635" lon="4.66191">
        <ele>388</ele>
        <time>2014-09-28T08:15:34Z</time>
      </trkpt>
      <trkpt lat="46.29636" lon="4.66191">
        <ele>388</ele>
        <time>2014-09-28T08:15:35Z</time>
      </trkpt>
      <trkpt lat="46.29643" lon="4.66183">
        <ele>390</ele>
        <time>2014-09-28T08:15:41Z</time>
      </trkpt>
      <trkpt lat="46.29643" lon="4.66182">
        <ele>390</ele>
        <time>2014-09-28T08:15:42Z</time>
      </trkpt>
      <trkpt lat="46.29647" lon="4.66172">
        <ele>392</ele>
        <time>2014-09-28T08:15:58Z</time>
      </trkpt>
      <trkpt lat="46.29648" lon="4.66171">
        <ele>392</ele>
        <time>2014-09-28T08:15:59Z</time>
      </trkpt>
      <trkpt lat="46.29655" lon="4.66163">
        <ele>394</ele>
        <time>2014-09-28T08:16:17Z</time>
      </trkpt>
      <trkpt lat="46.29656" lon="4.66162">
        <ele>394</ele>
        <time>2014-09-28T08:16:18Z</time>
      </trkpt>
      <trkpt lat="46.29662" lon="4.66154">
        <ele>394</ele>
        <time>2014-09-28T08:16:24Z</time>
      </trkpt>
      <trkpt lat="46.29663" lon="4.66153">
        <ele>394</ele>
        <time>2014-09-28T08:16:25Z</time>
      </trkpt>
      <trkpt lat="46.29669" lon="4.66146">
        <ele>399</ele>
        <time>2014-09-28T08:16:32Z</time>
      </trkpt>
      <trkpt lat="46.2967" lon="4.66144">
        <ele>400</ele>
        <time>2014-09-28T08:16:33Z</time>
      </trkpt>
      <trkpt lat="46.29677" lon="4.66138">
        <ele>400</ele>
        <time>2014-09-28T08:16:39Z</time>
      </trkpt>
      <trkpt lat="46.29678" lon="4.66136">
        <ele>400</ele>
        <time>2014-09-28T08:16:39Z</time>
      </trkpt>
      <trkpt lat="46.29685" lon="4.66127">
        <ele>400</ele>
        <time>2014-09-28T08:16:44Z</time>
      </trkpt>
      <trkpt lat="46.29686" lon="4.66126">
        <ele>400</ele>
        <time>2014-09-28T08:16:45Z</time>
      </trkpt>
      <trkpt lat="46.29694" lon="4.66122">
        <ele>401</ele>
        <time>2014-09-28T08:16:55Z</time>
      </trkpt>
      <trkpt lat="46.29695" lon="4.6612">
        <ele>401</ele>
        <time>2014-09-28T08:16:56Z</time>
      </trkpt>
      <trkpt lat="46.29701" lon="4.66113">
        <ele>401</ele>
        <time>2014-09-28T08:16:59Z</time>
      </trkpt>
      <trkpt lat="46.29703" lon="4.66111">
        <ele>401</ele>
        <time>2014-09-28T08:17:00Z</time>
      </trkpt>
      <trkpt lat="46.2971" lon="4.66106">
        <ele>402</ele>
        <time>2014-09-28T08:17:03Z</time>
      </trkpt>
      <trkpt lat="46.29712" lon="4.66104">
        <ele>402</ele>
        <time>2014-09-28T08:17:04Z</time>
      </trkpt>
      <trkpt lat="46.29718" lon="4.66098">
        <ele>403</ele>
        <time>2014-09-28T08:17:07Z</time>
      </trkpt>
      <trkpt lat="46.29721" lon="4.66096">
        <ele>403</ele>
        <time>2014-09-28T08:17:08Z</time>
      </trkpt>
      <trkpt lat="46.29726" lon="4.66092">
        <ele>404</ele>
        <time>2014-09-28T08:17:10Z</time>
      </trkpt>
      <trkpt lat="46.2973" lon="4.66089">
        <ele>404</ele>
        <time>2014-09-28T08:17:11Z</time>
      </trkpt>
      <trkpt lat="46.29737" lon="4.66082">
        <ele>405</ele>
        <time>2014-09-28T08:17:13Z</time>
      </trkpt>
      <trkpt lat="46.2974" lon="4.66079">
        <ele>405</ele>
        <time>2014-09-28T08:17:14Z</time>
      </trkpt>
      <trkpt lat="46.29747" lon="4.66072">
        <ele>405</ele>
        <time>2014-09-28T08:17:16Z</time>
      </trkpt>
      <trkpt lat="46.2975" lon="4.66068">
        <ele>409</ele>
        <time>2014-09-28T08:17:17Z</time>
      </trkpt>
      <trkpt lat="46.2979" lon="4.66014">
        <ele>410</ele>
        <time>2014-09-28T08:17:32Z</time>
      </trkpt>
      <trkpt lat="46.29795" lon="4.66004">
        <ele>411</ele>
        <time>2014-09-28T08:17:34Z</time>
      </trkpt>
      <trkpt lat="46.29798" lon="4.65999">
        <ele>410</ele>
        <time>2014-09-28T08:17:35Z</time>
      </trkpt>
      <trkpt lat="46.29803" lon="4.65991">
        <ele>410</ele>
        <time>2014-09-28T08:17:37Z</time>
      </trkpt>
      <trkpt lat="46.29805" lon="4.65988">
        <ele>410</ele>
        <time>2014-09-28T08:17:38Z</time>
      </trkpt>
      <trkpt lat="46.2981" lon="4.65981">
        <ele>411</ele>
        <time>2014-09-28T08:17:40Z</time>
      </trkpt>
      <trkpt lat="46.29812" lon="4.65979">
        <ele>411</ele>
        <time>2014-09-28T08:17:41Z</time>
      </trkpt>
      <trkpt lat="46.2982" lon="4.65974">
        <ele>411</ele>
        <time>2014-09-28T08:17:44Z</time>
      </trkpt>
      <trkpt lat="46.29822" lon="4.65972">
        <ele>411</ele>
        <time>2014-09-28T08:17:45Z</time>
      </trkpt>
      <trkpt lat="46.2983" lon="4.65967">
        <ele>411</ele>
        <time>2014-09-28T08:17:49Z</time>
      </trkpt>
      <trkpt lat="46.29832" lon="4.65966">
        <ele>411</ele>
        <time>2014-09-28T08:17:50Z</time>
      </trkpt>
      <trkpt lat="46.2984" lon="4.65962">
        <ele>420</ele>
        <time>2014-09-28T08:17:54Z</time>
      </trkpt>
      <trkpt lat="46.29842" lon="4.65961">
        <ele>420</ele>
        <time>2014-09-28T08:17:55Z</time>
      </trkpt>
      <trkpt lat="46.29849" lon="4.65959">
        <ele>420</ele>
        <time>2014-09-28T08:17:59Z</time>
      </trkpt>
      <trkpt lat="46.29851" lon="4.65957">
        <ele>420</ele>
        <time>2014-09-28T08:18:00Z</time>
      </trkpt>
      <trkpt lat="46.29857" lon="4.6595">
        <ele>421</ele>
        <time>2014-09-28T08:18:04Z</time>
      </trkpt>
      <trkpt lat="46.29858" lon="4.65949">
        <ele>421</ele>
        <time>2014-09-28T08:18:05Z</time>
      </trkpt>
      <trkpt lat="46.29864" lon="4.65943">
        <ele>421</ele>
        <time>2014-09-28T08:18:09Z</time>
      </trkpt>
      <trkpt lat="46.29866" lon="4.65942">
        <ele>421</ele>
        <time>2014-09-28T08:18:10Z</time>
      </trkpt>
      <trkpt lat="46.29873" lon="4.65938">
        <ele>422</ele>
        <time>2014-09-28T08:18:14Z</time>
      </trkpt>
      <trkpt lat="46.29875" lon="4.65936">
        <ele>422</ele>
        <time>2014-09-28T08:18:15Z</time>
      </trkpt>
      <trkpt lat="46.29882" lon="4.65929">
        <ele>423</ele>
        <time>2014-09-28T08:18:19Z</time>
      </trkpt>
      <trkpt lat="46.29884" lon="4.65927">
        <ele>423</ele>
        <time>2014-09-28T08:18:20Z</time>
      </trkpt>
      <trkpt lat="46.29891" lon="4.65922">
        <ele>424</ele>
        <time>2014-09-28T08:18:23Z</time>
      </trkpt>
      <trkpt lat="46.29894" lon="4.65921">
        <ele>424</ele>
        <time>2014-09-28T08:18:24Z</time>
      </trkpt>
      <trkpt lat="46.29902" lon="4.65917">
        <ele>426</ele>
        <time>2014-09-28T08:18:27Z</time>
      </trkpt>
      <trkpt lat="46.29904" lon="4.65916">
        <ele>426</ele>
        <time>2014-09-28T08:18:28Z</time>
      </trkpt>
      <trkpt lat="46.29911" lon="4.65912">
        <ele>427</ele>
        <time>2014-09-28T08:18:31Z</time>
      </trkpt>
      <trkpt lat="46.29913" lon="4.6591">
        <ele>427</ele>
        <time>2014-09-28T08:18:32Z</time>
      </trkpt>
      <trkpt lat="46.29921" lon="4.65906">
        <ele>430</ele>
        <time>2014-09-28T08:18:36Z</time>
      </trkpt>
      <trkpt lat="46.29923" lon="4.65905">
        <ele>430</ele>
        <time>2014-09-28T08:18:37Z</time>
      </trkpt>
      <trkpt lat="46.29932" lon="4.65902">
        <ele>431</ele>
        <time>2014-09-28T08:18:41Z</time>
      </trkpt>
      <trkpt lat="46.29934" lon="4.65901">
        <ele>431</ele>
        <time>2014-09-28T08:18:42Z</time>
      </trkpt>
      <trkpt lat="46.29937" lon="4.65892">
        <ele>431</ele>
        <time>2014-09-28T08:18:45Z</time>
      </trkpt>
      <trkpt lat="46.29937" lon="4.65885">
        <ele>431</ele>
        <time>2014-09-28T08:18:46Z</time>
      </trkpt>
      <trkpt lat="46.29938" lon="4.65874">
        <ele>431</ele>
        <time>2014-09-28T08:18:48Z</time>
      </trkpt>
      <trkpt lat="46.29938" lon="4.65869">
        <ele>431</ele>
        <time>2014-09-28T08:18:49Z</time>
      </trkpt>
      <trkpt lat="46.2994" lon="4.65857">
        <ele>430</ele>
        <time>2014-09-28T08:18:52Z</time>
      </trkpt>
      <trkpt lat="46.29941" lon="4.65853">
        <ele>430</ele>
        <time>2014-09-28T08:18:53Z</time>
      </trkpt>
      <trkpt lat="46.29943" lon="4.65844">
        <ele>430</ele>
        <time>2014-09-28T08:18:55Z</time>
      </trkpt>
      <trkpt lat="46.29944" lon="4.65839">
        <ele>430</ele>
        <time>2014-09-28T08:18:56Z</time>
      </trkpt>
      <trkpt lat="46.29946" lon="4.65829">
        <ele>429</ele>
        <time>2014-09-28T08:18:58Z</time>
      </trkpt>
      <trkpt lat="46.29947" lon="4.65824">
        <ele>429</ele>
        <time>2014-09-28T08:18:59Z</time>
      </trkpt>
      <trkpt lat="46.29948" lon="4.65814">
        <ele>429</ele>
        <time>2014-09-28T08:19:01Z</time>
      </trkpt>
      <trkpt lat="46.2995" lon="4.65808">
        <ele>429</ele>
        <time>2014-09-28T08:19:02Z</time>
      </trkpt>
      <trkpt lat="46.29951" lon="4.65801">
        <ele>429</ele>
        <time>2014-09-28T08:19:03Z</time>
      </trkpt>
      <trkpt lat="46.29952" lon="4.65794">
        <ele>429</ele>
        <time>2014-09-28T08:19:04Z</time>
      </trkpt>
      <trkpt lat="46.29953" lon="4.65786">
        <ele>429</ele>
        <time>2014-09-28T08:19:05Z</time>
      </trkpt>
      <trkpt lat="46.29953" lon="4.65779">
        <ele>429</ele>
        <time>2014-09-28T08:19:06Z</time>
      </trkpt>
      <trkpt lat="46.29955" lon="4.6577">
        <ele>429</ele>
        <time>2014-09-28T08:19:07Z</time>
      </trkpt>
      <trkpt lat="46.29955" lon="4.65761">
        <ele>429</ele>
        <time>2014-09-28T08:19:08Z</time>
      </trkpt>
      <trkpt lat="46.29956" lon="4.65754">
        <ele>429</ele>
        <time>2014-09-28T08:19:09Z</time>
      </trkpt>
      <trkpt lat="46.29956" lon="4.65745">
        <ele>429</ele>
        <time>2014-09-28T08:19:10Z</time>
      </trkpt>
      <trkpt lat="46.29957" lon="4.65734">
        <ele>429</ele>
        <time>2014-09-28T08:19:11Z</time>
      </trkpt>
      <trkpt lat="46.29956" lon="4.65725">
        <ele>429</ele>
        <time>2014-09-28T08:19:12Z</time>
      </trkpt>
      <trkpt lat="46.29954" lon="4.65716">
        <ele>429</ele>
        <time>2014-09-28T08:19:13Z</time>
      </trkpt>
      <trkpt lat="46.29951" lon="4.65709">
        <ele>429</ele>
        <time>2014-09-28T08:19:14Z</time>
      </trkpt>
      <trkpt lat="46.29947" lon="4.65703">
        <ele>429</ele>
        <time>2014-09-28T08:19:15Z</time>
      </trkpt>
      <trkpt lat="46.29944" lon="4.65699">
        <ele>429</ele>
        <time>2014-09-28T08:19:16Z</time>
      </trkpt>
      <trkpt lat="46.29939" lon="4.65694">
        <ele>429</ele>
        <time>2014-09-28T08:19:17Z</time>
      </trkpt>
      <trkpt lat="46.29935" lon="4.6569">
        <ele>429</ele>
        <time>2014-09-28T08:19:18Z</time>
      </trkpt>
      <trkpt lat="46.29928" lon="4.65685">
        <ele>428</ele>
        <time>2014-09-28T08:19:20Z</time>
      </trkpt>
      <trkpt lat="46.29925" lon="4.65682">
        <ele>428</ele>
        <time>2014-09-28T08:19:21Z</time>
      </trkpt>
      <trkpt lat="46.29919" lon="4.65676">
        <ele>428</ele>
        <time>2014-09-28T08:19:23Z</time>
      </trkpt>
      <trkpt lat="46.29918" lon="4.65673">
        <ele>428</ele>
        <time>2014-09-28T08:19:24Z</time>
      </trkpt>
      <trkpt lat="46.29913" lon="4.65662">
        <ele>428</ele>
        <time>2014-09-28T08:19:27Z</time>
      </trkpt>
      <trkpt lat="46.29912" lon="4.65659">
        <ele>428</ele>
        <time>2014-09-28T08:19:28Z</time>
      </trkpt>
      <trkpt lat="46.29908" lon="4.6565">
        <ele>428</ele>
        <time>2014-09-28T08:19:31Z</time>
      </trkpt>
      <trkpt lat="46.29907" lon="4.65647">
        <ele>428</ele>
        <time>2014-09-28T08:19:32Z</time>
      </trkpt>
      <trkpt lat="46.29904" lon="4.65635">
        <ele>428</ele>
        <time>2014-09-28T08:19:36Z</time>
      </trkpt>
      <trkpt lat="46.29904" lon="4.65632">
        <ele>428</ele>
        <time>2014-09-28T08:19:37Z</time>
      </trkpt>
      <trkpt lat="46.29904" lon="4.65622">
        <ele>428</ele>
        <time>2014-09-28T08:19:40Z</time>
      </trkpt>
      <trkpt lat="46.29904" lon="4.65618">
        <ele>428</ele>
        <time>2014-09-28T08:19:41Z</time>
      </trkpt>
      <trkpt lat="46.29905" lon="4.65608">
        <ele>429</ele>
        <time>2014-09-28T08:19:44Z</time>
      </trkpt>
      <trkpt lat="46.29905" lon="4.65605">
        <ele>429</ele>
        <time>2014-09-28T08:19:45Z</time>
      </trkpt>
      <trkpt lat="46.29905" lon="4.65592">
        <ele>431</ele>
        <time>2014-09-28T08:19:49Z</time>
      </trkpt>
      <trkpt lat="46.29905" lon="4.65589">
        <ele>431</ele>
        <time>2014-09-28T08:19:50Z</time>
      </trkpt>
      <trkpt lat="46.29904" lon="4.65577">
        <ele>432</ele>
        <time>2014-09-28T08:19:54Z</time>
      </trkpt>
      <trkpt lat="46.29904" lon="4.65574">
        <ele>432</ele>
        <time>2014-09-28T08:19:55Z</time>
      </trkpt>
      <trkpt lat="46.29905" lon="4.65561">
        <ele>431</ele>
        <time>2014-09-28T08:19:59Z</time>
      </trkpt>
      <trkpt lat="46.29905" lon="4.65558">
        <ele>431</ele>
        <time>2014-09-28T08:20:00Z</time>
      </trkpt>
      <trkpt lat="46.29904" lon="4.65546">
        <ele>431</ele>
        <time>2014-09-28T08:20:03Z</time>
      </trkpt>
      <trkpt lat="46.29904" lon="4.65541">
        <ele>431</ele>
        <time>2014-09-28T08:20:04Z</time>
      </trkpt>
      <trkpt lat="46.29904" lon="4.65532">
        <ele>431</ele>
        <time>2014-09-28T08:20:06Z</time>
      </trkpt>
      <trkpt lat="46.29904" lon="4.65527">
        <ele>432</ele>
        <time>2014-09-28T08:20:07Z</time>
      </trkpt>
      <trkpt lat="46.29903" lon="4.65516">
        <ele>433</ele>
        <time>2014-09-28T08:20:09Z</time>
      </trkpt>
      <trkpt lat="46.29902" lon="4.65509">
        <ele>433</ele>
        <time>2014-09-28T08:20:10Z</time>
      </trkpt>
      <trkpt lat="46.299" lon="4.655">
        <ele>433</ele>
        <time>2014-09-28T08:20:11Z</time>
      </trkpt>
      <trkpt lat="46.29899" lon="4.65492">
        <ele>436</ele>
        <time>2014-09-28T08:20:12Z</time>
      </trkpt>
      <trkpt lat="46.29899" lon="4.65484">
        <ele>435</ele>
        <time>2014-09-28T08:20:13Z</time>
      </trkpt>
      <trkpt lat="46.29897" lon="4.65477">
        <ele>435</ele>
        <time>2014-09-28T08:20:14Z</time>
      </trkpt>
      <trkpt lat="46.29896" lon="4.6547">
        <ele>435</ele>
        <time>2014-09-28T08:20:15Z</time>
      </trkpt>
      <trkpt lat="46.29895" lon="4.65463">
        <ele>436</ele>
        <time>2014-09-28T08:20:16Z</time>
      </trkpt>
      <trkpt lat="46.29895" lon="4.65456">
        <ele>436</ele>
        <time>2014-09-28T08:20:17Z</time>
      </trkpt>
      <trkpt lat="46.29894" lon="4.65449">
        <ele>436</ele>
        <time>2014-09-28T08:20:18Z</time>
      </trkpt>
      <trkpt lat="46.29891" lon="4.65438">
        <ele>437</ele>
        <time>2014-09-28T08:20:20Z</time>
      </trkpt>
      <trkpt lat="46.29889" lon="4.65432">
        <ele>437</ele>
        <time>2014-09-28T08:20:21Z</time>
      </trkpt>
      <trkpt lat="46.29886" lon="4.65424">
        <ele>437</ele>
        <time>2014-09-28T08:20:23Z</time>
      </trkpt>
      <trkpt lat="46.29883" lon="4.6542">
        <ele>437</ele>
        <time>2014-09-28T08:20:24Z</time>
      </trkpt>
      <trkpt lat="46.2988" lon="4.65411">
        <ele>442</ele>
        <time>2014-09-28T08:20:26Z</time>
      </trkpt>
      <trkpt lat="46.29877" lon="4.65407">
        <ele>442</ele>
        <time>2014-09-28T08:20:27Z</time>
      </trkpt>
      <trkpt lat="46.29872" lon="4.65401">
        <ele>442</ele>
        <time>2014-09-28T08:20:29Z</time>
      </trkpt>
      <trkpt lat="46.29869" lon="4.65399">
        <ele>442</ele>
        <time>2014-09-28T08:20:30Z</time>
      </trkpt>
      <trkpt lat="46.29862" lon="4.65391">
        <ele>442</ele>
        <time>2014-09-28T08:20:33Z</time>
      </trkpt>
      <trkpt lat="46.29859" lon="4.65388">
        <ele>442</ele>
        <time>2014-09-28T08:20:34Z</time>
      </trkpt>
      <trkpt lat="46.29852" lon="4.65382">
        <ele>442</ele>
        <time>2014-09-28T08:20:37Z</time>
      </trkpt>
      <trkpt lat="46.2985" lon="4.65379">
        <ele>442</ele>
        <time>2014-09-28T08:20:38Z</time>
      </trkpt>
      <trkpt lat="46.29844" lon="4.65371">
        <ele>443</ele>
        <time>2014-09-28T08:20:42Z</time>
      </trkpt>
      <trkpt lat="46.29843" lon="4.65368">
        <ele>443</ele>
        <time>2014-09-28T08:20:43Z</time>
      </trkpt>
      <trkpt lat="46.29838" lon="4.65361">
        <ele>444</ele>
        <time>2014-09-28T08:20:46Z</time>
      </trkpt>
      <trkpt lat="46.29837" lon="4.65358">
        <ele>444</ele>
        <time>2014-09-28T08:20:47Z</time>
      </trkpt>
      <trkpt lat="46.29832" lon="4.65348">
        <ele>440</ele>
        <time>2014-09-28T08:20:51Z</time>
      </trkpt>
      <trkpt lat="46.29831" lon="4.65345">
        <ele>441</ele>
        <time>2014-09-28T08:20:52Z</time>
      </trkpt>
      <trkpt lat="46.29828" lon="4.65337">
        <ele>443</ele>
        <time>2014-09-28T08:20:54Z</time>
      </trkpt>
      <trkpt lat="46.29827" lon="4.65332">
        <ele>444</ele>
        <time>2014-09-28T08:20:55Z</time>
      </trkpt>
      <trkpt lat="46.29824" lon="4.65321">
        <ele>443</ele>
        <time>2014-09-28T08:20:57Z</time>
      </trkpt>
      <trkpt lat="46.29823" lon="4.65314">
        <ele>442</ele>
        <time>2014-09-28T08:20:58Z</time>
      </trkpt>
      <trkpt lat="46.29822" lon="4.65305">
        <ele>441</ele>
        <time>2014-09-28T08:20:59Z</time>
      </trkpt>
      <trkpt lat="46.29822" lon="4.65297">
        <ele>441</ele>
        <time>2014-09-28T08:21:00Z</time>
      </trkpt>
      <trkpt lat="46.2982" lon="4.65289">
        <ele>441</ele>
        <time>2014-09-28T08:21:01Z</time>
      </trkpt>
      <trkpt lat="46.29819" lon="4.65281">
        <ele>441</ele>
        <time>2014-09-28T08:21:02Z</time>
      </trkpt>
      <trkpt lat="46.29818" lon="4.65272">
        <ele>442</ele>
        <time>2014-09-28T08:21:03Z</time>
      </trkpt>
      <trkpt lat="46.29817" lon="4.65263">
        <ele>442</ele>
        <time>2014-09-28T08:21:04Z</time>
      </trkpt>
      <trkpt lat="46.29817" lon="4.65252">
        <ele>443</ele>
        <time>2014-09-28T08:21:05Z</time>
      </trkpt>
      <trkpt lat="46.29816" lon="4.65242">
        <ele>444</ele>
        <time>2014-09-28T08:21:06Z</time>
      </trkpt>
      <trkpt lat="46.29814" lon="4.65233">
        <ele>443</ele>
        <time>2014-09-28T08:21:07Z</time>
      </trkpt>
      <trkpt lat="46.29812" lon="4.65223">
        <ele>443</ele>
        <time>2014-09-28T08:21:08Z</time>
      </trkpt>
      <trkpt lat="46.29809" lon="4.65214">
        <ele>443</ele>
        <time>2014-09-28T08:21:09Z</time>
      </trkpt>
      <trkpt lat="46.29806" lon="4.65205">
        <ele>443</ele>
        <time>2014-09-28T08:21:10Z</time>
      </trkpt>
      <trkpt lat="46.29802" lon="4.65199">
        <ele>443</ele>
        <time>2014-09-28T08:21:11Z</time>
      </trkpt>
      <trkpt lat="46.29797" lon="4.65196">
        <ele>443</ele>
        <time>2014-09-28T08:21:12Z</time>
      </trkpt>
      <trkpt lat="46.2979" lon="4.65194">
        <ele>442</ele>
        <time>2014-09-28T08:21:13Z</time>
      </trkpt>
      <trkpt lat="46.29785" lon="4.65191">
        <ele>442</ele>
        <time>2014-09-28T08:21:14Z</time>
      </trkpt>
      <trkpt lat="46.29778" lon="4.65188">
        <ele>441</ele>
        <time>2014-09-28T08:21:15Z</time>
      </trkpt>
      <trkpt lat="46.29771" lon="4.65185">
        <ele>441</ele>
        <time>2014-09-28T08:21:16Z</time>
      </trkpt>
      <trkpt lat="46.29763" lon="4.65182">
        <ele>440</ele>
        <time>2014-09-28T08:21:17Z</time>
      </trkpt>
      <trkpt lat="46.29757" lon="4.65177">
        <ele>439</ele>
        <time>2014-09-28T08:21:18Z</time>
      </trkpt>
      <trkpt lat="46.29751" lon="4.65172">
        <ele>439</ele>
        <time>2014-09-28T08:21:19Z</time>
      </trkpt>
      <trkpt lat="46.2974" lon="4.65168">
        <ele>438</ele>
        <time>2014-09-28T08:21:20Z</time>
      </trkpt>
      <trkpt lat="46.29732" lon="4.65165">
        <ele>442</ele>
        <time>2014-09-28T08:21:21Z</time>
      </trkpt>
      <trkpt lat="46.29726" lon="4.6516">
        <ele>442</ele>
        <time>2014-09-28T08:21:22Z</time>
      </trkpt>
      <trkpt lat="46.2972" lon="4.65157">
        <ele>443</ele>
        <time>2014-09-28T08:21:23Z</time>
      </trkpt>
      <trkpt lat="46.29714" lon="4.65154">
        <ele>444</ele>
        <time>2014-09-28T08:21:24Z</time>
      </trkpt>
      <trkpt lat="46.29708" lon="4.65154">
        <ele>444</ele>
        <time>2014-09-28T08:21:25Z</time>
      </trkpt>
      <trkpt lat="46.29696" lon="4.65157">
        <ele>444</ele>
        <time>2014-09-28T08:21:26Z</time>
      </trkpt>
      <trkpt lat="46.2969" lon="4.65154">
        <ele>445</ele>
        <time>2014-09-28T08:21:28Z</time>
      </trkpt>
      <trkpt lat="46.29686" lon="4.65154">
        <ele>445</ele>
        <time>2014-09-28T08:21:29Z</time>
      </trkpt>
      <trkpt lat="46.2968" lon="4.6516">
        <ele>445</ele>
        <time>2014-09-28T08:21:32Z</time>
      </trkpt>
      <trkpt lat="46.29678" lon="4.65162">
        <ele>444</ele>
        <time>2014-09-28T08:21:33Z</time>
      </trkpt>
      <trkpt lat="46.29672" lon="4.65168">
        <ele>443</ele>
        <time>2014-09-28T08:21:38Z</time>
      </trkpt>
      <trkpt lat="46.2967" lon="4.65169">
        <ele>443</ele>
        <time>2014-09-28T08:21:39Z</time>
      </trkpt>
      <trkpt lat="46.29665" lon="4.65179">
        <ele>449</ele>
        <time>2014-09-28T08:21:47Z</time>
      </trkpt>
      <trkpt lat="46.29665" lon="4.6518">
        <ele>450</ele>
        <time>2014-09-28T08:21:48Z</time>
      </trkpt>
      <trkpt lat="46.29658" lon="4.65189">
        <ele>452</ele>
        <time>2014-09-28T08:21:57Z</time>
      </trkpt>
      <trkpt lat="46.29658" lon="4.6519">
        <ele>452</ele>
        <time>2014-09-28T08:21:58Z</time>
      </trkpt>
      <trkpt lat="46.29664" lon="4.65187">
        <ele>451</ele>
        <time>2014-09-28T08:22:50Z</time>
      </trkpt>
      <trkpt lat="46.29667" lon="4.65182">
        <ele>442</ele>
        <time>2014-09-28T08:22:51Z</time>
      </trkpt>
      <trkpt lat="46.2967" lon="4.65177">
        <ele>442</ele>
        <time>2014-09-28T08:22:52Z</time>
      </trkpt>
      <trkpt lat="46.29675" lon="4.65171">
        <ele>442</ele>
        <time>2014-09-28T08:22:53Z</time>
      </trkpt>
      <trkpt lat="46.2968" lon="4.65167">
        <ele>442</ele>
        <time>2014-09-28T08:22:54Z</time>
      </trkpt>
      <trkpt lat="46.29686" lon="4.65163">
        <ele>444</ele>
        <time>2014-09-28T08:22:55Z</time>
      </trkpt>
      <trkpt lat="46.29692" lon="4.65161">
        <ele>444</ele>
        <time>2014-09-28T08:22:57Z</time>
      </trkpt>
      <trkpt lat="46.29699" lon="4.6516">
        <ele>444</ele>
        <time>2014-09-28T08:22:57Z</time>
      </trkpt>
      <trkpt lat="46.29705" lon="4.65159">
        <ele>444</ele>
        <time>2014-09-28T08:22:58Z</time>
      </trkpt>
      <trkpt lat="46.29713" lon="4.65161">
        <ele>443</ele>
        <time>2014-09-28T08:22:59Z</time>
      </trkpt>
      <trkpt lat="46.29718" lon="4.65164">
        <ele>443</ele>
        <time>2014-09-28T08:23:00Z</time>
      </trkpt>
      <trkpt lat="46.29726" lon="4.65167">
        <ele>439</ele>
        <time>2014-09-28T08:23:01Z</time>
      </trkpt>
      <trkpt lat="46.29734" lon="4.65169">
        <ele>439</ele>
        <time>2014-09-28T08:23:02Z</time>
      </trkpt>
      <trkpt lat="46.29741" lon="4.65173">
        <ele>438</ele>
        <time>2014-09-28T08:23:03Z</time>
      </trkpt>
      <trkpt lat="46.29747" lon="4.65178">
        <ele>438</ele>
        <time>2014-09-28T08:23:04Z</time>
      </trkpt>
      <trkpt lat="46.29751" lon="4.65181">
        <ele>439</ele>
        <time>2014-09-28T08:23:05Z</time>
      </trkpt>
      <trkpt lat="46.2976" lon="4.65184">
        <ele>440</ele>
        <time>2014-09-28T08:23:07Z</time>
      </trkpt>
      <trkpt lat="46.29762" lon="4.65184">
        <ele>440</ele>
        <time>2014-09-28T08:23:08Z</time>
      </trkpt>
      <trkpt lat="46.29769" lon="4.65187">
        <ele>440</ele>
        <time>2014-09-28T08:23:10Z</time>
      </trkpt>
      <trkpt lat="46.29772" lon="4.65188">
        <ele>441</ele>
        <time>2014-09-28T08:23:11Z</time>
      </trkpt>
      <trkpt lat="46.2978" lon="4.65191">
        <ele>441</ele>
        <time>2014-09-28T08:23:14Z</time>
      </trkpt>
      <trkpt lat="46.29782" lon="4.65191">
        <ele>441</ele>
        <time>2014-09-28T08:23:15Z</time>
      </trkpt>
      <trkpt lat="46.29789" lon="4.65195">
        <ele>442</ele>
        <time>2014-09-28T08:23:18Z</time>
      </trkpt>
      <trkpt lat="46.29792" lon="4.65197">
        <ele>442</ele>
        <time>2014-09-28T08:23:19Z</time>
      </trkpt>
      <trkpt lat="46.29799" lon="4.65201">
        <ele>443</ele>
        <time>2014-09-28T08:23:22Z</time>
      </trkpt>
      <trkpt lat="46.29801" lon="4.65202">
        <ele>443</ele>
        <time>2014-09-28T08:23:23Z</time>
      </trkpt>
      <trkpt lat="46.29809" lon="4.65199">
        <ele>443</ele>
        <time>2014-09-28T08:23:27Z</time>
      </trkpt>
      <trkpt lat="46.2981" lon="4.65197">
        <ele>444</ele>
        <time>2014-09-28T08:23:28Z</time>
      </trkpt>
      <trkpt lat="46.29811" lon="4.65184">
        <ele>444</ele>
        <time>2014-09-28T08:23:33Z</time>
      </trkpt>
      <trkpt lat="46.29812" lon="4.65182">
        <ele>445</ele>
        <time>2014-09-28T08:23:34Z</time>
      </trkpt>
      <trkpt lat="46.29818" lon="4.65174">
        <ele>446</ele>
        <time>2014-09-28T08:23:39Z</time>
      </trkpt>
      <trkpt lat="46.29819" lon="4.65172">
        <ele>446</ele>
        <time>2014-09-28T08:23:40Z</time>
      </trkpt>
      <trkpt lat="46.29822" lon="4.65162">
        <ele>449</ele>
        <time>2014-09-28T08:23:45Z</time>
      </trkpt>
      <trkpt lat="46.29823" lon="4.6516">
        <ele>449</ele>
        <time>2014-09-28T08:23:46Z</time>
      </trkpt>
      <trkpt lat="46.29822" lon="4.65149">
        <ele>449</ele>
        <time>2014-09-28T08:23:51Z</time>
      </trkpt>
      <trkpt lat="46.29822" lon="4.65147">
        <ele>449</ele>
        <time>2014-09-28T08:23:52Z</time>
      </trkpt>
      <trkpt lat="46.2982" lon="4.65137">
        <ele>449</ele>
        <time>2014-09-28T08:23:56Z</time>
      </trkpt>
      <trkpt lat="46.29819" lon="4.65134">
        <ele>449</ele>
        <time>2014-09-28T08:23:57Z</time>
      </trkpt>
      <trkpt lat="46.29817" lon="4.65124">
        <ele>450</ele>
        <time>2014-09-28T08:24:00Z</time>
      </trkpt>
      <trkpt lat="46.29816" lon="4.65121">
        <ele>450</ele>
        <time>2014-09-28T08:24:01Z</time>
      </trkpt>
      <trkpt lat="46.29813" lon="4.65111">
        <ele>450</ele>
        <time>2014-09-28T08:24:04Z</time>
      </trkpt>
      <trkpt lat="46.29812" lon="4.65108">
        <ele>450</ele>
        <time>2014-09-28T08:24:05Z</time>
      </trkpt>
      <trkpt lat="46.29809" lon="4.65099">
        <ele>451</ele>
        <time>2014-09-28T08:24:07Z</time>
      </trkpt>
      <trkpt lat="46.29808" lon="4.65095">
        <ele>451</ele>
        <time>2014-09-28T08:24:08Z</time>
      </trkpt>
      <trkpt lat="46.29805" lon="4.65082">
        <ele>457</ele>
        <time>2014-09-28T08:24:11Z</time>
      </trkpt>
      <trkpt lat="46.29805" lon="4.65078">
        <ele>457</ele>
        <time>2014-09-28T08:24:12Z</time>
      </trkpt>
      <trkpt lat="46.29805" lon="4.65066">
        <ele>457</ele>
        <time>2014-09-28T08:24:15Z</time>
      </trkpt>
      <trkpt lat="46.29804" lon="4.65061">
        <ele>457</ele>
        <time>2014-09-28T08:24:16Z</time>
      </trkpt>
      <trkpt lat="46.29805" lon="4.65053">
        <ele>458</ele>
        <time>2014-09-28T08:24:18Z</time>
      </trkpt>
      <trkpt lat="46.29805" lon="4.65048">
        <ele>458</ele>
        <time>2014-09-28T08:24:19Z</time>
      </trkpt>
      <trkpt lat="46.29805" lon="4.65039">
        <ele>459</ele>
        <time>2014-09-28T08:24:21Z</time>
      </trkpt>
      <trkpt lat="46.29805" lon="4.65035">
        <ele>459</ele>
        <time>2014-09-28T08:24:22Z</time>
      </trkpt>
      <trkpt lat="46.29805" lon="4.65022">
        <ele>460</ele>
        <time>2014-09-28T08:24:25Z</time>
      </trkpt>
      <trkpt lat="46.29805" lon="4.65018">
        <ele>461</ele>
        <time>2014-09-28T08:24:26Z</time>
      </trkpt>
      <trkpt lat="46.29805" lon="4.65005">
        <ele>462</ele>
        <time>2014-09-28T08:24:30Z</time>
      </trkpt>
      <trkpt lat="46.29805" lon="4.65002">
        <ele>462</ele>
        <time>2014-09-28T08:24:31Z</time>
      </trkpt>
      <trkpt lat="46.29806" lon="4.6499">
        <ele>469</ele>
        <time>2014-09-28T08:24:36Z</time>
      </trkpt>
      <trkpt lat="46.29806" lon="4.64988">
        <ele>469</ele>
        <time>2014-09-28T08:24:37Z</time>
      </trkpt>
      <trkpt lat="46.29804" lon="4.64976">
        <ele>470</ele>
        <time>2014-09-28T08:24:42Z</time>
      </trkpt>
      <trkpt lat="46.29804" lon="4.64974">
        <ele>470</ele>
        <time>2014-09-28T08:24:43Z</time>
      </trkpt>
      <trkpt lat="46.29802" lon="4.64961">
        <ele>470</ele>
        <time>2014-09-28T08:24:48Z</time>
      </trkpt>
      <trkpt lat="46.29802" lon="4.64958">
        <ele>470</ele>
        <time>2014-09-28T08:24:49Z</time>
      </trkpt>
      <trkpt lat="46.29801" lon="4.64948">
        <ele>471</ele>
        <time>2014-09-28T08:24:52Z</time>
      </trkpt>
      <trkpt lat="46.29801" lon="4.64944">
        <ele>471</ele>
        <time>2014-09-28T08:24:53Z</time>
      </trkpt>
      <trkpt lat="46.29801" lon="4.64933">
        <ele>472</ele>
        <time>2014-09-28T08:24:56Z</time>
      </trkpt>
      <trkpt lat="46.29801" lon="4.6493">
        <ele>472</ele>
        <time>2014-09-28T08:24:57Z</time>
      </trkpt>
      <trkpt lat="46.298" lon="4.6492">
        <ele>473</ele>
        <time>2014-09-28T08:25:00Z</time>
      </trkpt>
      <trkpt lat="46.298" lon="4.64916">
        <ele>479</ele>
        <time>2014-09-28T08:25:01Z</time>
      </trkpt>
      <trkpt lat="46.29801" lon="4.64904">
        <ele>479</ele>
        <time>2014-09-28T08:25:04Z</time>
      </trkpt>
      <trkpt lat="46.29801" lon="4.64901">
        <ele>479</ele>
        <time>2014-09-28T08:25:05Z</time>
      </trkpt>
      <trkpt lat="46.29803" lon="4.6489">
        <ele>479</ele>
        <time>2014-09-28T08:25:08Z</time>
      </trkpt>
      <trkpt lat="46.29803" lon="4.64887">
        <ele>479</ele>
        <time>2014-09-28T08:25:09Z</time>
      </trkpt>
      <trkpt lat="46.29805" lon="4.64876">
        <ele>480</ele>
        <time>2014-09-28T08:25:12Z</time>
      </trkpt>
      <trkpt lat="46.29805" lon="4.64872">
        <ele>480</ele>
        <time>2014-09-28T08:25:13Z</time>
      </trkpt>
      <trkpt lat="46.29805" lon="4.64862">
        <ele>480</ele>
        <time>2014-09-28T08:25:16Z</time>
      </trkpt>
      <trkpt lat="46.29805" lon="4.64859">
        <ele>480</ele>
        <time>2014-09-28T08:25:17Z</time>
      </trkpt>
      <trkpt lat="46.29801" lon="4.64848">
        <ele>481</ele>
        <time>2014-09-28T08:25:25Z</time>
      </trkpt>
      <trkpt lat="46.298" lon="4.64846">
        <ele>481</ele>
        <time>2014-09-28T08:25:26Z</time>
      </trkpt>
      <trkpt lat="46.29793" lon="4.64842">
        <ele>481</ele>
        <time>2014-09-28T08:25:32Z</time>
      </trkpt>
      <trkpt lat="46.29791" lon="4.64842">
        <ele>481</ele>
        <time>2014-09-28T08:25:33Z</time>
      </trkpt>
      <trkpt lat="46.29783" lon="4.64839">
        <ele>481</ele>
        <time>2014-09-28T08:25:40Z</time>
      </trkpt>
      <trkpt lat="46.29781" lon="4.64839">
        <ele>482</ele>
        <time>2014-09-28T08:25:41Z</time>
      </trkpt>
      <trkpt lat="46.29773" lon="4.64835">
        <ele>482</ele>
        <time>2014-09-28T08:25:49Z</time>
      </trkpt>
      <trkpt lat="46.29772" lon="4.64835">
        <ele>482</ele>
        <time>2014-09-28T08:25:50Z</time>
      </trkpt>
      <trkpt lat="46.29764" lon="4.64838">
        <ele>483</ele>
        <time>2014-09-28T08:25:57Z</time>
      </trkpt>
      <trkpt lat="46.29762" lon="4.64839">
        <ele>483</ele>
        <time>2014-09-28T08:25:58Z</time>
      </trkpt>
      <trkpt lat="46.29753" lon="4.64843">
        <ele>484</ele>
        <time>2014-09-28T08:26:02Z</time>
      </trkpt>
      <trkpt lat="46.29751" lon="4.64844">
        <ele>484</ele>
        <time>2014-09-28T08:26:03Z</time>
      </trkpt>
      <trkpt lat="46.29743" lon="4.64846">
        <ele>486</ele>
        <time>2014-09-28T08:26:10Z</time>
      </trkpt>
      <trkpt lat="46.29742" lon="4.64845">
        <ele>486</ele>
        <time>2014-09-28T08:26:11Z</time>
      </trkpt>
      <trkpt lat="46.29734" lon="4.64845">
        <ele>486</ele>
        <time>2014-09-28T08:26:22Z</time>
      </trkpt>
      <trkpt lat="46.29732" lon="4.64845">
        <ele>487</ele>
        <time>2014-09-28T08:26:23Z</time>
      </trkpt>
      <trkpt lat="46.29726" lon="4.64848">
        <ele>487</ele>
        <time>2014-09-28T08:26:26Z</time>
      </trkpt>
      <trkpt lat="46.29723" lon="4.6485">
        <ele>487</ele>
        <time>2014-09-28T08:26:27Z</time>
      </trkpt>
      <trkpt lat="46.29715" lon="4.64854">
        <ele>487</ele>
        <time>2014-09-28T08:26:30Z</time>
      </trkpt>
      <trkpt lat="46.29713" lon="4.64855">
        <ele>488</ele>
        <time>2014-09-28T08:26:31Z</time>
      </trkpt>
      <trkpt lat="46.29704" lon="4.64857">
        <ele>488</ele>
        <time>2014-09-28T08:26:50Z</time>
      </trkpt>
      <trkpt lat="46.29703" lon="4.64857">
        <ele>489</ele>
        <time>2014-09-28T08:26:51Z</time>
      </trkpt>
      <trkpt lat="46.29695" lon="4.64857">
        <ele>490</ele>
        <time>2014-09-28T08:26:55Z</time>
      </trkpt>
      <trkpt lat="46.29693" lon="4.64856">
        <ele>490</ele>
        <time>2014-09-28T08:26:56Z</time>
      </trkpt>
      <trkpt lat="46.29685" lon="4.64854">
        <ele>491</ele>
        <time>2014-09-28T08:27:00Z</time>
      </trkpt>
      <trkpt lat="46.29684" lon="4.64853">
        <ele>492</ele>
        <time>2014-09-28T08:27:01Z</time>
      </trkpt>
      <trkpt lat="46.29676" lon="4.64849">
        <ele>494</ele>
        <time>2014-09-28T08:27:06Z</time>
      </trkpt>
      <trkpt lat="46.29674" lon="4.64848">
        <ele>495</ele>
        <time>2014-09-28T08:27:07Z</time>
      </trkpt>
      <trkpt lat="46.29676" lon="4.64835">
        <ele>498</ele>
        <time>2014-09-28T08:27:18Z</time>
      </trkpt>
      <trkpt lat="46.29677" lon="4.64834">
        <ele>497</ele>
        <time>2014-09-28T08:27:19Z</time>
      </trkpt>
      <trkpt lat="46.29683" lon="4.64826">
        <ele>502</ele>
        <time>2014-09-28T08:27:26Z</time>
      </trkpt>
      <trkpt lat="46.29684" lon="4.64824">
        <ele>502</ele>
        <time>2014-09-28T08:27:27Z</time>
      </trkpt>
      <trkpt lat="46.29689" lon="4.64815">
        <ele>502</ele>
        <time>2014-09-28T08:27:32Z</time>
      </trkpt>
      <trkpt lat="46.2969" lon="4.64814">
        <ele>502</ele>
        <time>2014-09-28T08:27:33Z</time>
      </trkpt>
      <trkpt lat="46.29696" lon="4.64806">
        <ele>502</ele>
        <time>2014-09-28T08:27:40Z</time>
      </trkpt>
      <trkpt lat="46.29697" lon="4.64804">
        <ele>502</ele>
        <time>2014-09-28T08:27:41Z</time>
      </trkpt>
      <trkpt lat="46.29702" lon="4.64796">
        <ele>502</ele>
        <time>2014-09-28T08:27:45Z</time>
      </trkpt>
      <trkpt lat="46.29704" lon="4.64794">
        <ele>502</ele>
        <time>2014-09-28T08:27:46Z</time>
      </trkpt>
      <trkpt lat="46.29709" lon="4.64785">
        <ele>502</ele>
        <time>2014-09-28T08:27:49Z</time>
      </trkpt>
      <trkpt lat="46.29711" lon="4.64782">
        <ele>502</ele>
        <time>2014-09-28T08:27:50Z</time>
      </trkpt>
      <trkpt lat="46.29715" lon="4.64775">
        <ele>502</ele>
        <time>2014-09-28T08:27:52Z</time>
      </trkpt>
      <trkpt lat="46.29718" lon="4.64771">
        <ele>502</ele>
        <time>2014-09-28T08:27:53Z</time>
      </trkpt>
      <trkpt lat="46.29723" lon="4.64761">
        <ele>502</ele>
        <time>2014-09-28T08:27:55Z</time>
      </trkpt>
      <trkpt lat="46.29726" lon="4.64757">
        <ele>501</ele>
        <time>2014-09-28T08:27:56Z</time>
      </trkpt>
      <trkpt lat="46.29731" lon="4.64748">
        <ele>507</ele>
        <time>2014-09-28T08:27:58Z</time>
      </trkpt>
      <trkpt lat="46.29734" lon="4.64744">
        <ele>507</ele>
        <time>2014-09-28T08:27:59Z</time>
      </trkpt>
      <trkpt lat="46.29736" lon="4.6474">
        <ele>507</ele>
        <time>2014-09-28T08:28:01Z</time>
      </trkpt>
      <trkpt lat="46.29741" lon="4.64731">
        <ele>508</ele>
        <time>2014-09-28T08:28:02Z</time>
      </trkpt>
      <trkpt lat="46.29745" lon="4.64723">
        <ele>509</ele>
        <time>2014-09-28T08:28:04Z</time>
      </trkpt>
      <trkpt lat="46.29747" lon="4.6472">
        <ele>509</ele>
        <time>2014-09-28T08:28:05Z</time>
      </trkpt>
      <trkpt lat="46.2975" lon="4.6471">
        <ele>500</ele>
        <time>2014-09-28T08:28:09Z</time>
      </trkpt>
      <trkpt lat="46.29751" lon="4.64707">
        <ele>500</ele>
        <time>2014-09-28T08:28:10Z</time>
      </trkpt>
      <trkpt lat="46.29752" lon="4.64697">
        <ele>502</ele>
        <time>2014-09-28T08:28:13Z</time>
      </trkpt>
      <trkpt lat="46.29753" lon="4.64694">
        <ele>502</ele>
        <time>2014-09-28T08:28:14Z</time>
      </trkpt>
      <trkpt lat="46.29755" lon="4.64683">
        <ele>504</ele>
        <time>2014-09-28T08:28:18Z</time>
      </trkpt>
      <trkpt lat="46.29755" lon="4.6468">
        <ele>505</ele>
        <time>2014-09-28T08:28:19Z</time>
      </trkpt>
      <trkpt lat="46.29753" lon="4.64668">
        <ele>509</ele>
        <time>2014-09-28T08:28:24Z</time>
      </trkpt>
      <trkpt lat="46.29753" lon="4.64666">
        <ele>511</ele>
        <time>2014-09-28T08:28:25Z</time>
      </trkpt>
      <trkpt lat="46.29755" lon="4.64655">
        <ele>510</ele>
        <time>2014-09-28T08:28:29Z</time>
      </trkpt>
      <trkpt lat="46.29756" lon="4.64652">
        <ele>510</ele>
        <time>2014-09-28T08:28:30Z</time>
      </trkpt>
      <trkpt lat="46.29754" lon="4.64641">
        <ele>510</ele>
        <time>2014-09-28T08:28:35Z</time>
      </trkpt>
      <trkpt lat="46.29752" lon="4.64639">
        <ele>510</ele>
        <time>2014-09-28T08:28:36Z</time>
      </trkpt>
      <trkpt lat="46.29748" lon="4.6463">
        <ele>521</ele>
        <time>2014-09-28T08:28:41Z</time>
      </trkpt>
      <trkpt lat="46.29747" lon="4.64628">
        <ele>521</ele>
        <time>2014-09-28T08:28:42Z</time>
      </trkpt>
      <trkpt lat="46.29747" lon="4.64615">
        <ele>522</ele>
        <time>2014-09-28T08:28:49Z</time>
      </trkpt>
      <trkpt lat="46.29746" lon="4.64613">
        <ele>522</ele>
        <time>2014-09-28T08:28:50Z</time>
      </trkpt>
      <trkpt lat="46.29743" lon="4.64603">
        <ele>522</ele>
        <time>2014-09-28T08:28:56Z</time>
      </trkpt>
      <trkpt lat="46.29742" lon="4.64601">
        <ele>522</ele>
        <time>2014-09-28T08:28:57Z</time>
      </trkpt>
      <trkpt lat="46.2974" lon="4.64589">
        <ele>521</ele>
        <time>2014-09-28T08:29:05Z</time>
      </trkpt>
      <trkpt lat="46.29741" lon="4.64587">
        <ele>521</ele>
        <time>2014-09-28T08:29:06Z</time>
      </trkpt>
      <trkpt lat="46.29738" lon="4.64575">
        <ele>526</ele>
        <time>2014-09-28T08:29:14Z</time>
      </trkpt>
      <trkpt lat="46.29737" lon="4.64573">
        <ele>527</ele>
        <time>2014-09-28T08:29:15Z</time>
      </trkpt>
      <trkpt lat="46.29737" lon="4.64561">
        <ele>529</ele>
        <time>2014-09-28T08:29:22Z</time>
      </trkpt>
      <trkpt lat="46.29737" lon="4.64559">
        <ele>530</ele>
        <time>2014-09-28T08:29:23Z</time>
      </trkpt>
      <trkpt lat="46.29737" lon="4.64546">
        <ele>531</ele>
        <time>2014-09-28T08:29:29Z</time>
      </trkpt>
      <trkpt lat="46.29737" lon="4.64544">
        <ele>532</ele>
        <time>2014-09-28T08:29:30Z</time>
      </trkpt>
      <trkpt lat="46.29738" lon="4.64533">
        <ele>532</ele>
        <time>2014-09-28T08:29:35Z</time>
      </trkpt>
      <trkpt lat="46.29738" lon="4.6453">
        <ele>532</ele>
        <time>2014-09-28T08:29:36Z</time>
      </trkpt>
      <trkpt lat="46.2974" lon="4.6452">
        <ele>532</ele>
        <time>2014-09-28T08:29:39Z</time>
      </trkpt>
      <trkpt lat="46.2974" lon="4.64517">
        <ele>532</ele>
        <time>2014-09-28T08:29:40Z</time>
      </trkpt>
      <trkpt lat="46.29742" lon="4.64507">
        <ele>531</ele>
        <time>2014-09-28T08:29:43Z</time>
      </trkpt>
      <trkpt lat="46.29743" lon="4.64504">
        <ele>531</ele>
        <time>2014-09-28T08:29:44Z</time>
      </trkpt>
      <trkpt lat="46.29745" lon="4.64495">
        <ele>533</ele>
        <time>2014-09-28T08:29:47Z</time>
      </trkpt>
      <trkpt lat="46.29746" lon="4.64492">
        <ele>534</ele>
        <time>2014-09-28T08:29:48Z</time>
      </trkpt>
      <trkpt lat="46.29748" lon="4.6448">
        <ele>536</ele>
        <time>2014-09-28T08:29:51Z</time>
      </trkpt>
      <trkpt lat="46.29749" lon="4.64475">
        <ele>537</ele>
        <time>2014-09-28T08:29:52Z</time>
      </trkpt>
      <trkpt lat="46.29751" lon="4.64466">
        <ele>527</ele>
        <time>2014-09-28T08:29:54Z</time>
      </trkpt>
      <trkpt lat="46.29752" lon="4.64462">
        <ele>527</ele>
        <time>2014-09-28T08:29:55Z</time>
      </trkpt>
      <trkpt lat="46.29753" lon="4.64451">
        <ele>528</ele>
        <time>2014-09-28T08:29:58Z</time>
      </trkpt>
      <trkpt lat="46.29754" lon="4.64447">
        <ele>528</ele>
        <time>2014-09-28T08:29:59Z</time>
      </trkpt>
      <trkpt lat="46.29755" lon="4.64436">
        <ele>529</ele>
        <time>2014-09-28T08:30:02Z</time>
      </trkpt>
      <trkpt lat="46.29755" lon="4.64432">
        <ele>530</ele>
        <time>2014-09-28T08:30:03Z</time>
      </trkpt>
      <trkpt lat="46.29758" lon="4.64421">
        <ele>532</ele>
        <time>2014-09-28T08:30:06Z</time>
      </trkpt>
      <trkpt lat="46.29758" lon="4.64418">
        <ele>532</ele>
        <time>2014-09-28T08:30:07Z</time>
      </trkpt>
      <trkpt lat="46.29762" lon="4.64407">
        <ele>535</ele>
        <time>2014-09-28T08:30:12Z</time>
      </trkpt>
      <trkpt lat="46.29763" lon="4.64404">
        <ele>535</ele>
        <time>2014-09-28T08:30:13Z</time>
      </trkpt>
      <trkpt lat="46.29766" lon="4.64394">
        <ele>535</ele>
        <time>2014-09-28T08:30:17Z</time>
      </trkpt>
      <trkpt lat="46.29767" lon="4.64391">
        <ele>535</ele>
        <time>2014-09-28T08:30:18Z</time>
      </trkpt>
      <trkpt lat="46.29769" lon="4.64379">
        <ele>536</ele>
        <time>2014-09-28T08:30:22Z</time>
      </trkpt>
      <trkpt lat="46.2977" lon="4.64376">
        <ele>536</ele>
        <time>2014-09-28T08:30:23Z</time>
      </trkpt>
      <trkpt lat="46.29775" lon="4.64367">
        <ele>537</ele>
        <time>2014-09-28T08:30:27Z</time>
      </trkpt>
      <trkpt lat="46.29776" lon="4.64365">
        <ele>537</ele>
        <time>2014-09-28T08:30:28Z</time>
      </trkpt>
      <trkpt lat="46.29779" lon="4.64354">
        <ele>538</ele>
        <time>2014-09-28T08:30:32Z</time>
      </trkpt>
      <trkpt lat="46.29779" lon="4.64351">
        <ele>538</ele>
        <time>2014-09-28T08:30:33Z</time>
      </trkpt>
      <trkpt lat="46.29782" lon="4.6434">
        <ele>539</ele>
        <time>2014-09-28T08:30:37Z</time>
      </trkpt>
      <trkpt lat="46.29783" lon="4.64337">
        <ele>539</ele>
        <time>2014-09-28T08:30:38Z</time>
      </trkpt>
      <trkpt lat="46.29781" lon="4.64324">
        <ele>546</ele>
        <time>2014-09-28T08:30:42Z</time>
      </trkpt>
      <trkpt lat="46.2978" lon="4.64321">
        <ele>546</ele>
        <time>2014-09-28T08:30:43Z</time>
      </trkpt>
      <trkpt lat="46.29779" lon="4.6431">
        <ele>547</ele>
        <time>2014-09-28T08:30:47Z</time>
      </trkpt>
      <trkpt lat="46.29779" lon="4.64307">
        <ele>547</ele>
        <time>2014-09-28T08:30:48Z</time>
      </trkpt>
      <trkpt lat="46.29781" lon="4.64296">
        <ele>547</ele>
        <time>2014-09-28T08:30:52Z</time>
      </trkpt>
      <trkpt lat="46.29782" lon="4.64294">
        <ele>547</ele>
        <time>2014-09-28T08:30:53Z</time>
      </trkpt>
      <trkpt lat="46.29784" lon="4.64281">
        <ele>547</ele>
        <time>2014-09-28T08:30:58Z</time>
      </trkpt>
      <trkpt lat="46.29785" lon="4.64279">
        <ele>547</ele>
        <time>2014-09-28T08:30:59Z</time>
      </trkpt>
      <trkpt lat="46.29788" lon="4.64267">
        <ele>548</ele>
        <time>2014-09-28T08:31:03Z</time>
      </trkpt>
      <trkpt lat="46.29789" lon="4.64264">
        <ele>548</ele>
        <time>2014-09-28T08:31:04Z</time>
      </trkpt>
      <trkpt lat="46.2979" lon="4.64253">
        <ele>548</ele>
        <time>2014-09-28T08:31:08Z</time>
      </trkpt>
      <trkpt lat="46.29791" lon="4.6425">
        <ele>550</ele>
        <time>2014-09-28T08:31:09Z</time>
      </trkpt>
      <trkpt lat="46.29792" lon="4.64239">
        <ele>554</ele>
        <time>2014-09-28T08:31:13Z</time>
      </trkpt>
      <trkpt lat="46.29792" lon="4.64236">
        <ele>554</ele>
        <time>2014-09-28T08:31:14Z</time>
      </trkpt>
      <trkpt lat="46.29793" lon="4.64225">
        <ele>555</ele>
        <time>2014-09-28T08:31:18Z</time>
      </trkpt>
      <trkpt lat="46.29793" lon="4.64223">
        <ele>555</ele>
        <time>2014-09-28T08:31:19Z</time>
      </trkpt>
      <trkpt lat="46.29794" lon="4.6421">
        <ele>556</ele>
        <time>2014-09-28T08:31:24Z</time>
      </trkpt>
      <trkpt lat="46.29795" lon="4.64208">
        <ele>556</ele>
        <time>2014-09-28T08:31:25Z</time>
      </trkpt>
      <trkpt lat="46.29797" lon="4.64196">
        <ele>557</ele>
        <time>2014-09-28T08:31:30Z</time>
      </trkpt>
      <trkpt lat="46.29797" lon="4.64194">
        <ele>557</ele>
        <time>2014-09-28T08:31:31Z</time>
      </trkpt>
      <trkpt lat="46.29801" lon="4.64183">
        <ele>557</ele>
        <time>2014-09-28T08:31:36Z</time>
      </trkpt>
      <trkpt lat="46.29802" lon="4.64182">
        <ele>557</ele>
        <time>2014-09-28T08:31:37Z</time>
      </trkpt>
      <trkpt lat="46.29806" lon="4.64172">
        <ele>557</ele>
        <time>2014-09-28T08:31:42Z</time>
      </trkpt>
      <trkpt lat="46.29807" lon="4.6417">
        <ele>556</ele>
        <time>2014-09-28T08:31:43Z</time>
      </trkpt>
      <trkpt lat="46.29812" lon="4.64159">
        <ele>563</ele>
        <time>2014-09-28T08:31:49Z</time>
      </trkpt>
      <trkpt lat="46.29813" lon="4.64157">
        <ele>563</ele>
        <time>2014-09-28T08:31:50Z</time>
      </trkpt>
      <trkpt lat="46.29816" lon="4.64146">
        <ele>564</ele>
        <time>2014-09-28T08:31:57Z</time>
      </trkpt>
      <trkpt lat="46.29817" lon="4.64145">
        <ele>565</ele>
        <time>2014-09-28T08:31:58Z</time>
      </trkpt>
      <trkpt lat="46.29823" lon="4.64136">
        <ele>566</ele>
        <time>2014-09-28T08:32:05Z</time>
      </trkpt>
      <trkpt lat="46.29823" lon="4.64134">
        <ele>566</ele>
        <time>2014-09-28T08:32:06Z</time>
      </trkpt>
      <trkpt lat="46.29826" lon="4.64123">
        <ele>567</ele>
        <time>2014-09-28T08:32:12Z</time>
      </trkpt>
      <trkpt lat="46.29827" lon="4.64121">
        <ele>567</ele>
        <time>2014-09-28T08:32:13Z</time>
      </trkpt>
      <trkpt lat="46.2983" lon="4.64109">
        <ele>568</ele>
        <time>2014-09-28T08:32:19Z</time>
      </trkpt>
      <trkpt lat="46.29831" lon="4.64108">
        <ele>568</ele>
        <time>2014-09-28T08:32:20Z</time>
      </trkpt>
      <trkpt lat="46.29832" lon="4.64097">
        <ele>569</ele>
        <time>2014-09-28T08:32:26Z</time>
      </trkpt>
      <trkpt lat="46.29833" lon="4.64095">
        <ele>569</ele>
        <time>2014-09-28T08:32:27Z</time>
      </trkpt>
      <trkpt lat="46.29837" lon="4.64085">
        <ele>568</ele>
        <time>2014-09-28T08:32:33Z</time>
      </trkpt>
      <trkpt lat="46.29837" lon="4.64083">
        <ele>570</ele>
        <time>2014-09-28T08:32:34Z</time>
      </trkpt>
      <trkpt lat="46.29838" lon="4.64071">
        <ele>573</ele>
        <time>2014-09-28T08:32:46Z</time>
      </trkpt>
      <trkpt lat="46.29838" lon="4.6407">
        <ele>573</ele>
        <time>2014-09-28T08:32:47Z</time>
      </trkpt>
      <trkpt lat="46.29841" lon="4.64058">
        <ele>575</ele>
        <time>2014-09-28T08:33:00Z</time>
      </trkpt>
      <trkpt lat="46.29841" lon="4.64057">
        <ele>575</ele>
        <time>2014-09-28T08:33:01Z</time>
      </trkpt>
      <trkpt lat="46.29844" lon="4.64046">
        <ele>577</ele>
        <time>2014-09-28T08:33:24Z</time>
      </trkpt>
      <trkpt lat="46.29845" lon="4.64044">
        <ele>577</ele>
        <time>2014-09-28T08:33:25Z</time>
      </trkpt>
      <trkpt lat="46.29845" lon="4.64033">
        <ele>578</ele>
        <time>2014-09-28T08:33:30Z</time>
      </trkpt>
      <trkpt lat="46.29844" lon="4.64031">
        <ele>578</ele>
        <time>2014-09-28T08:33:31Z</time>
      </trkpt>
      <trkpt lat="46.29843" lon="4.6402">
        <ele>579</ele>
        <time>2014-09-28T08:33:36Z</time>
      </trkpt>
      <trkpt lat="46.29843" lon="4.64018">
        <ele>579</ele>
        <time>2014-09-28T08:33:37Z</time>
      </trkpt>
      <trkpt lat="46.29842" lon="4.64006">
        <ele>580</ele>
        <time>2014-09-28T08:33:43Z</time>
      </trkpt>
      <trkpt lat="46.29842" lon="4.64004">
        <ele>580</ele>
        <time>2014-09-28T08:33:44Z</time>
      </trkpt>
      <trkpt lat="46.29839" lon="4.63992">
        <ele>583</ele>
        <time>2014-09-28T08:33:50Z</time>
      </trkpt>
      <trkpt lat="46.29839" lon="4.6399">
        <ele>583</ele>
        <time>2014-09-28T08:33:51Z</time>
      </trkpt>
      <trkpt lat="46.29838" lon="4.63977">
        <ele>585</ele>
        <time>2014-09-28T08:33:58Z</time>
      </trkpt>
      <trkpt lat="46.29838" lon="4.63975">
        <ele>585</ele>
        <time>2014-09-28T08:33:59Z</time>
      </trkpt>
      <trkpt lat="46.29841" lon="4.63963">
        <ele>587</ele>
        <time>2014-09-28T08:34:06Z</time>
      </trkpt>
      <trkpt lat="46.29841" lon="4.63961">
        <ele>587</ele>
        <time>2014-09-28T08:34:07Z</time>
      </trkpt>
      <trkpt lat="46.29843" lon="4.63949">
        <ele>588</ele>
        <time>2014-09-28T08:34:16Z</time>
      </trkpt>
      <trkpt lat="46.29844" lon="4.63947">
        <ele>588</ele>
        <time>2014-09-28T08:34:17Z</time>
      </trkpt>
      <trkpt lat="46.29849" lon="4.63938">
        <ele>589</ele>
        <time>2014-09-28T08:34:22Z</time>
      </trkpt>
      <trkpt lat="46.2985" lon="4.63936">
        <ele>589</ele>
        <time>2014-09-28T08:34:23Z</time>
      </trkpt>
      <trkpt lat="46.29856" lon="4.63928">
        <ele>589</ele>
        <time>2014-09-28T08:34:29Z</time>
      </trkpt>
      <trkpt lat="46.29857" lon="4.63927">
        <ele>589</ele>
        <time>2014-09-28T08:34:30Z</time>
      </trkpt>
      <trkpt lat="46.29864" lon="4.63923">
        <ele>589</ele>
        <time>2014-09-28T08:34:36Z</time>
      </trkpt>
      <trkpt lat="46.29866" lon="4.63922">
        <ele>589</ele>
        <time>2014-09-28T08:34:37Z</time>
      </trkpt>
      <trkpt lat="46.29873" lon="4.63919">
        <ele>589</ele>
        <time>2014-09-28T08:34:43Z</time>
      </trkpt>
      <trkpt lat="46.29874" lon="4.63918">
        <ele>589</ele>
        <time>2014-09-28T08:34:44Z</time>
      </trkpt>
      <trkpt lat="46.29883" lon="4.63918">
        <ele>589</ele>
        <time>2014-09-28T08:34:51Z</time>
      </trkpt>
      <trkpt lat="46.29885" lon="4.63918">
        <ele>589</ele>
        <time>2014-09-28T08:34:52Z</time>
      </trkpt>
      <trkpt lat="46.29893" lon="4.63917">
        <ele>590</ele>
        <time>2014-09-28T08:34:57Z</time>
      </trkpt>
      <trkpt lat="46.29894" lon="4.63917">
        <ele>590</ele>
        <time>2014-09-28T08:34:58Z</time>
      </trkpt>
      <trkpt lat="46.29902" lon="4.63916">
        <ele>595</ele>
        <time>2014-09-28T08:35:02Z</time>
      </trkpt>
      <trkpt lat="46.29903" lon="4.63916">
        <ele>594</ele>
        <time>2014-09-28T08:35:03Z</time>
      </trkpt>
      <trkpt lat="46.29912" lon="4.63919">
        <ele>591</ele>
        <time>2014-09-28T08:35:09Z</time>
      </trkpt>
      <trkpt lat="46.29913" lon="4.6392">
        <ele>591</ele>
        <time>2014-09-28T08:35:10Z</time>
      </trkpt>
      <trkpt lat="46.2992" lon="4.63924">
        <ele>594</ele>
        <time>2014-09-28T08:35:16Z</time>
      </trkpt>
      <trkpt lat="46.29922" lon="4.63925">
        <ele>594</ele>
        <time>2014-09-28T08:35:17Z</time>
      </trkpt>
      <trkpt lat="46.29928" lon="4.63933">
        <ele>596</ele>
        <time>2014-09-28T08:35:23Z</time>
      </trkpt>
      <trkpt lat="46.29929" lon="4.63934">
        <ele>596</ele>
        <time>2014-09-28T08:35:24Z</time>
      </trkpt>
      <trkpt lat="46.29934" lon="4.63941">
        <ele>597</ele>
        <time>2014-09-28T08:35:29Z</time>
      </trkpt>
      <trkpt lat="46.29936" lon="4.63942">
        <ele>597</ele>
        <time>2014-09-28T08:35:30Z</time>
      </trkpt>
      <trkpt lat="46.29942" lon="4.63949">
        <ele>597</ele>
        <time>2014-09-28T08:35:36Z</time>
      </trkpt>
      <trkpt lat="46.29943" lon="4.6395">
        <ele>598</ele>
        <time>2014-09-28T08:35:37Z</time>
      </trkpt>
      <trkpt lat="46.29951" lon="4.63955">
        <ele>598</ele>
        <time>2014-09-28T08:35:43Z</time>
      </trkpt>
      <trkpt lat="46.29952" lon="4.63956">
        <ele>598</ele>
        <time>2014-09-28T08:35:44Z</time>
      </trkpt>
      <trkpt lat="46.29957" lon="4.63963">
        <ele>599</ele>
        <time>2014-09-28T08:35:48Z</time>
      </trkpt>
      <trkpt lat="46.29958" lon="4.63966">
        <ele>599</ele>
        <time>2014-09-28T08:35:49Z</time>
      </trkpt>
      <trkpt lat="46.29959" lon="4.63978">
        <ele>599</ele>
        <time>2014-09-28T08:35:52Z</time>
      </trkpt>
      <trkpt lat="46.2996" lon="4.63982">
        <ele>599</ele>
        <time>2014-09-28T08:35:53Z</time>
      </trkpt>
      <trkpt lat="46.29962" lon="4.63994">
        <ele>599</ele>
        <time>2014-09-28T08:35:56Z</time>
      </trkpt>
      <trkpt lat="46.29962" lon="4.63999">
        <ele>599</ele>
        <time>2014-09-28T08:35:57Z</time>
      </trkpt>
      <trkpt lat="46.29963" lon="4.64011">
        <ele>596</ele>
        <time>2014-09-28T08:36:00Z</time>
      </trkpt>
      <trkpt lat="46.29963" lon="4.64016">
        <ele>596</ele>
        <time>2014-09-28T08:36:01Z</time>
      </trkpt>
      <trkpt lat="46.29963" lon="4.64024">
        <ele>596</ele>
        <time>2014-09-28T08:36:03Z</time>
      </trkpt>
      <trkpt lat="46.29963" lon="4.64029">
        <ele>596</ele>
        <time>2014-09-28T08:36:04Z</time>
      </trkpt>
      <trkpt lat="46.29964" lon="4.64041">
        <ele>596</ele>
        <time>2014-09-28T08:36:07Z</time>
      </trkpt>
      <trkpt lat="46.29964" lon="4.64045">
        <ele>596</ele>
        <time>2014-09-28T08:36:08Z</time>
      </trkpt>
      <trkpt lat="46.29968" lon="4.64055">
        <ele>596</ele>
        <time>2014-09-28T08:36:11Z</time>
      </trkpt>
      <trkpt lat="46.29969" lon="4.64058">
        <ele>596</ele>
        <time>2014-09-28T08:36:12Z</time>
      </trkpt>
      <trkpt lat="46.29973" lon="4.64069">
        <ele>597</ele>
        <time>2014-09-28T08:36:17Z</time>
      </trkpt>
      <trkpt lat="46.29973" lon="4.64071">
        <ele>597</ele>
        <time>2014-09-28T08:36:18Z</time>
      </trkpt>
      <trkpt lat="46.29976" lon="4.64083">
        <ele>598</ele>
        <time>2014-09-28T08:36:23Z</time>
      </trkpt>
      <trkpt lat="46.29977" lon="4.64086">
        <ele>596</ele>
        <time>2014-09-28T08:36:24Z</time>
      </trkpt>
      <trkpt lat="46.29982" lon="4.64096">
        <ele>597</ele>
        <time>2014-09-28T08:36:29Z</time>
      </trkpt>
      <trkpt lat="46.29983" lon="4.64098">
        <ele>597</ele>
        <time>2014-09-28T08:36:30Z</time>
      </trkpt>
      <trkpt lat="46.29986" lon="4.64109">
        <ele>595</ele>
        <time>2014-09-28T08:36:35Z</time>
      </trkpt>
      <trkpt lat="46.29986" lon="4.64112">
        <ele>595</ele>
        <time>2014-09-28T08:36:36Z</time>
      </trkpt>
      <trkpt lat="46.2999" lon="4.64122">
        <ele>595</ele>
        <time>2014-09-28T08:36:41Z</time>
      </trkpt>
      <trkpt lat="46.29991" lon="4.64123">
        <ele>595</ele>
        <time>2014-09-28T08:36:42Z</time>
      </trkpt>
      <trkpt lat="46.29999" lon="4.6413">
        <ele>595</ele>
        <time>2014-09-28T08:36:48Z</time>
      </trkpt>
      <trkpt lat="46.3" lon="4.64131">
        <ele>595</ele>
        <time>2014-09-28T08:36:49Z</time>
      </trkpt>
      <trkpt lat="46.30007" lon="4.64138">
        <ele>611</ele>
        <time>2014-09-28T08:36:55Z</time>
      </trkpt>
      <trkpt lat="46.30008" lon="4.64139">
        <ele>611</ele>
        <time>2014-09-28T08:36:56Z</time>
      </trkpt>
      <trkpt lat="46.30014" lon="4.64146">
        <ele>610</ele>
        <time>2014-09-28T08:37:02Z</time>
      </trkpt>
      <trkpt lat="46.30016" lon="4.64148">
        <ele>610</ele>
        <time>2014-09-28T08:37:03Z</time>
      </trkpt>
      <trkpt lat="46.30022" lon="4.64155">
        <ele>611</ele>
        <time>2014-09-28T08:37:09Z</time>
      </trkpt>
      <trkpt lat="46.30023" lon="4.64156">
        <ele>611</ele>
        <time>2014-09-28T08:37:10Z</time>
      </trkpt>
      <trkpt lat="46.30029" lon="4.64163">
        <ele>612</ele>
        <time>2014-09-28T08:37:16Z</time>
      </trkpt>
      <trkpt lat="46.3003" lon="4.64164">
        <ele>612</ele>
        <time>2014-09-28T08:37:17Z</time>
      </trkpt>
      <trkpt lat="46.30037" lon="4.64171">
        <ele>610</ele>
        <time>2014-09-28T08:37:23Z</time>
      </trkpt>
      <trkpt lat="46.30038" lon="4.64172">
        <ele>610</ele>
        <time>2014-09-28T08:37:24Z</time>
      </trkpt>
      <trkpt lat="46.30046" lon="4.64179">
        <ele>611</ele>
        <time>2014-09-28T08:37:31Z</time>
      </trkpt>
      <trkpt lat="46.30046" lon="4.6418">
        <ele>611</ele>
        <time>2014-09-28T08:37:32Z</time>
      </trkpt>
      <trkpt lat="46.30053" lon="4.64188">
        <ele>612</ele>
        <time>2014-09-28T08:37:38Z</time>
      </trkpt>
      <trkpt lat="46.30054" lon="4.64189">
        <ele>612</ele>
        <time>2014-09-28T08:37:39Z</time>
      </trkpt>
      <trkpt lat="46.3006" lon="4.64195">
        <ele>613</ele>
        <time>2014-09-28T08:37:44Z</time>
      </trkpt>
      <trkpt lat="46.30062" lon="4.64196">
        <ele>613</ele>
        <time>2014-09-28T08:37:45Z</time>
      </trkpt>
      <trkpt lat="46.30068" lon="4.64203">
        <ele>613</ele>
        <time>2014-09-28T08:37:50Z</time>
      </trkpt>
      <trkpt lat="46.3007" lon="4.64204">
        <ele>613</ele>
        <time>2014-09-28T08:37:51Z</time>
      </trkpt>
      <trkpt lat="46.30078" lon="4.64209">
        <ele>614</ele>
        <time>2014-09-28T08:37:57Z</time>
      </trkpt>
      <trkpt lat="46.30079" lon="4.6421">
        <ele>614</ele>
        <time>2014-09-28T08:37:58Z</time>
      </trkpt>
      <trkpt lat="46.30086" lon="4.64216">
        <ele>624</ele>
        <time>2014-09-28T08:38:04Z</time>
      </trkpt>
      <trkpt lat="46.30087" lon="4.64217">
        <ele>624</ele>
        <time>2014-09-28T08:38:05Z</time>
      </trkpt>
      <trkpt lat="46.30095" lon="4.64223">
        <ele>624</ele>
        <time>2014-09-28T08:38:11Z</time>
      </trkpt>
      <trkpt lat="46.30097" lon="4.64223">
        <ele>624</ele>
        <time>2014-09-28T08:38:12Z</time>
      </trkpt>
      <trkpt lat="46.30105" lon="4.64222">
        <ele>624</ele>
        <time>2014-09-28T08:38:18Z</time>
      </trkpt>
      <trkpt lat="46.30106" lon="4.64221">
        <ele>624</ele>
        <time>2014-09-28T08:38:19Z</time>
      </trkpt>
      <trkpt lat="46.30112" lon="4.64214">
        <ele>625</ele>
        <time>2014-09-28T08:38:25Z</time>
      </trkpt>
      <trkpt lat="46.30113" lon="4.64213">
        <ele>625</ele>
        <time>2014-09-28T08:38:26Z</time>
      </trkpt>
      <trkpt lat="46.30117" lon="4.64202">
        <ele>626</ele>
        <time>2014-09-28T08:38:33Z</time>
      </trkpt>
      <trkpt lat="46.30116" lon="4.64201">
        <ele>626</ele>
        <time>2014-09-28T08:38:34Z</time>
      </trkpt>
      <trkpt lat="46.30115" lon="4.64189">
        <ele>626</ele>
        <time>2014-09-28T08:38:40Z</time>
      </trkpt>
      <trkpt lat="46.30115" lon="4.64188">
        <ele>626</ele>
        <time>2014-09-28T08:38:41Z</time>
      </trkpt>
      <trkpt lat="46.30113" lon="4.64176">
        <ele>626</ele>
        <time>2014-09-28T08:38:48Z</time>
      </trkpt>
      <trkpt lat="46.30113" lon="4.64174">
        <ele>626</ele>
        <time>2014-09-28T08:38:49Z</time>
      </trkpt>
      <trkpt lat="46.30111" lon="4.64162">
        <ele>631</ele>
        <time>2014-09-28T08:38:56Z</time>
      </trkpt>
      <trkpt lat="46.30112" lon="4.6416">
        <ele>631</ele>
        <time>2014-09-28T08:38:57Z</time>
      </trkpt>
      <trkpt lat="46.30111" lon="4.64148">
        <ele>632</ele>
        <time>2014-09-28T08:39:03Z</time>
      </trkpt>
      <trkpt lat="46.30111" lon="4.64146">
        <ele>632</ele>
        <time>2014-09-28T08:39:04Z</time>
      </trkpt>
      <trkpt lat="46.30111" lon="4.64133">
        <ele>633</ele>
        <time>2014-09-28T08:39:11Z</time>
      </trkpt>
      <trkpt lat="46.30111" lon="4.64131">
        <ele>633</ele>
        <time>2014-09-28T08:39:12Z</time>
      </trkpt>
      <trkpt lat="46.30109" lon="4.6412">
        <ele>634</ele>
        <time>2014-09-28T08:39:18Z</time>
      </trkpt>
      <trkpt lat="46.30109" lon="4.64118">
        <ele>634</ele>
        <time>2014-09-28T08:39:19Z</time>
      </trkpt>
      <trkpt lat="46.3011" lon="4.64107">
        <ele>634</ele>
        <time>2014-09-28T08:39:25Z</time>
      </trkpt>
      <trkpt lat="46.3011" lon="4.64105">
        <ele>634</ele>
        <time>2014-09-28T08:39:26Z</time>
      </trkpt>
      <trkpt lat="46.3011" lon="4.64093">
        <ele>635</ele>
        <time>2014-09-28T08:39:32Z</time>
      </trkpt>
      <trkpt lat="46.3011" lon="4.64091">
        <ele>635</ele>
        <time>2014-09-28T08:39:33Z</time>
      </trkpt>
      <trkpt lat="46.30111" lon="4.64078">
        <ele>639</ele>
        <time>2014-09-28T08:39:39Z</time>
      </trkpt>
      <trkpt lat="46.30111" lon="4.64076">
        <ele>639</ele>
        <time>2014-09-28T08:39:40Z</time>
      </trkpt>
      <trkpt lat="46.30112" lon="4.64065">
        <ele>640</ele>
        <time>2014-09-28T08:39:45Z</time>
      </trkpt>
      <trkpt lat="46.30113" lon="4.64063">
        <ele>640</ele>
        <time>2014-09-28T08:39:46Z</time>
      </trkpt>
      <trkpt lat="46.30115" lon="4.64052">
        <ele>641</ele>
        <time>2014-09-28T08:39:51Z</time>
      </trkpt>
      <trkpt lat="46.30116" lon="4.6405">
        <ele>641</ele>
        <time>2014-09-28T08:39:52Z</time>
      </trkpt>
      <trkpt lat="46.30118" lon="4.64038">
        <ele>642</ele>
        <time>2014-09-28T08:39:57Z</time>
      </trkpt>
      <trkpt lat="46.30119" lon="4.64036">
        <ele>642</ele>
        <time>2014-09-28T08:39:58Z</time>
      </trkpt>
      <trkpt lat="46.30122" lon="4.64026">
        <ele>643</ele>
        <time>2014-09-28T08:40:03Z</time>
      </trkpt>
      <trkpt lat="46.30123" lon="4.64024">
        <ele>643</ele>
        <time>2014-09-28T08:40:04Z</time>
      </trkpt>
      <trkpt lat="46.30128" lon="4.64014">
        <ele>644</ele>
        <time>2014-09-28T08:40:10Z</time>
      </trkpt>
      <trkpt lat="46.30129" lon="4.64013">
        <ele>644</ele>
        <time>2014-09-28T08:40:11Z</time>
      </trkpt>
      <trkpt lat="46.30137" lon="4.64008">
        <ele>645</ele>
        <time>2014-09-28T08:40:17Z</time>
      </trkpt>
      <trkpt lat="46.30138" lon="4.64008">
        <ele>645</ele>
        <time>2014-09-28T08:40:18Z</time>
      </trkpt>
      <trkpt lat="46.30147" lon="4.64005">
        <ele>647</ele>
        <time>2014-09-28T08:40:25Z</time>
      </trkpt>
      <trkpt lat="46.30147" lon="4.64003">
        <ele>647</ele>
        <time>2014-09-28T08:40:26Z</time>
      </trkpt>
      <trkpt lat="46.30149" lon="4.63992">
        <ele>651</ele>
        <time>2014-09-28T08:40:31Z</time>
      </trkpt>
      <trkpt lat="46.30149" lon="4.6399">
        <ele>651</ele>
        <time>2014-09-28T08:40:32Z</time>
      </trkpt>
      <trkpt lat="46.30151" lon="4.63977">
        <ele>651</ele>
        <time>2014-09-28T08:40:39Z</time>
      </trkpt>
      <trkpt lat="46.30151" lon="4.63975">
        <ele>651</ele>
        <time>2014-09-28T08:40:40Z</time>
      </trkpt>
      <trkpt lat="46.30151" lon="4.63962">
        <ele>651</ele>
        <time>2014-09-28T08:40:45Z</time>
      </trkpt>
      <trkpt lat="46.30151" lon="4.6396">
        <ele>651</ele>
        <time>2014-09-28T08:40:46Z</time>
      </trkpt>
      <trkpt lat="46.30151" lon="4.63949">
        <ele>652</ele>
        <time>2014-09-28T08:40:51Z</time>
      </trkpt>
      <trkpt lat="46.30152" lon="4.63947">
        <ele>652</ele>
        <time>2014-09-28T08:40:52Z</time>
      </trkpt>
      <trkpt lat="46.30151" lon="4.63934">
        <ele>654</ele>
        <time>2014-09-28T08:40:58Z</time>
      </trkpt>
      <trkpt lat="46.30151" lon="4.63932">
        <ele>654</ele>
        <time>2014-09-28T08:40:59Z</time>
      </trkpt>
      <trkpt lat="46.30151" lon="4.6392">
        <ele>655</ele>
        <time>2014-09-28T08:41:04Z</time>
      </trkpt>
      <trkpt lat="46.30152" lon="4.63918">
        <ele>656</ele>
        <time>2014-09-28T08:41:05Z</time>
      </trkpt>
      <trkpt lat="46.30153" lon="4.63906">
        <ele>658</ele>
        <time>2014-09-28T08:41:09Z</time>
      </trkpt>
      <trkpt lat="46.30153" lon="4.63903">
        <ele>658</ele>
        <time>2014-09-28T08:41:10Z</time>
      </trkpt>
      <trkpt lat="46.30154" lon="4.63891">
        <ele>657</ele>
        <time>2014-09-28T08:41:15Z</time>
      </trkpt>
      <trkpt lat="46.30154" lon="4.63889">
        <ele>657</ele>
        <time>2014-09-28T08:41:16Z</time>
      </trkpt>
      <trkpt lat="46.30152" lon="4.63879">
        <ele>657</ele>
        <time>2014-09-28T08:41:21Z</time>
      </trkpt>
      <trkpt lat="46.30151" lon="4.63876">
        <ele>657</ele>
        <time>2014-09-28T08:41:22Z</time>
      </trkpt>
      <trkpt lat="46.30148" lon="4.63866">
        <ele>657</ele>
        <time>2014-09-28T08:41:27Z</time>
      </trkpt>
      <trkpt lat="46.30148" lon="4.63863">
        <ele>658</ele>
        <time>2014-09-28T08:41:28Z</time>
      </trkpt>
      <trkpt lat="46.30148" lon="4.63852">
        <ele>659</ele>
        <time>2014-09-28T08:41:33Z</time>
      </trkpt>
      <trkpt lat="46.30148" lon="4.63849">
        <ele>659</ele>
        <time>2014-09-28T08:41:34Z</time>
      </trkpt>
      <trkpt lat="46.30146" lon="4.63838">
        <ele>659</ele>
        <time>2014-09-28T08:41:39Z</time>
      </trkpt>
      <trkpt lat="46.30146" lon="4.63836">
        <ele>659</ele>
        <time>2014-09-28T08:41:40Z</time>
      </trkpt>
      <trkpt lat="46.30145" lon="4.63825">
        <ele>663</ele>
        <time>2014-09-28T08:41:46Z</time>
      </trkpt>
      <trkpt lat="46.30145" lon="4.63823">
        <ele>663</ele>
        <time>2014-09-28T08:41:47Z</time>
      </trkpt>
      <trkpt lat="46.30143" lon="4.63811">
        <ele>662</ele>
        <time>2014-09-28T08:41:57Z</time>
      </trkpt>
      <trkpt lat="46.30143" lon="4.6381">
        <ele>662</ele>
        <time>2014-09-28T08:41:58Z</time>
      </trkpt>
      <trkpt lat="46.30143" lon="4.63797">
        <ele>663</ele>
        <time>2014-09-28T08:42:09Z</time>
      </trkpt>
      <trkpt lat="46.30143" lon="4.63796">
        <ele>663</ele>
        <time>2014-09-28T08:42:10Z</time>
      </trkpt>
      <trkpt lat="46.30142" lon="4.63785">
        <ele>663</ele>
        <time>2014-09-28T08:42:18Z</time>
      </trkpt>
      <trkpt lat="46.30141" lon="4.63782">
        <ele>664</ele>
        <time>2014-09-28T08:42:19Z</time>
      </trkpt>
      <trkpt lat="46.30138" lon="4.63771">
        <ele>664</ele>
        <time>2014-09-28T08:42:23Z</time>
      </trkpt>
      <trkpt lat="46.30137" lon="4.63768">
        <ele>664</ele>
        <time>2014-09-28T08:42:24Z</time>
      </trkpt>
      <trkpt lat="46.30135" lon="4.63759">
        <ele>664</ele>
        <time>2014-09-28T08:42:27Z</time>
      </trkpt>
      <trkpt lat="46.30134" lon="4.63756">
        <ele>664</ele>
        <time>2014-09-28T08:42:28Z</time>
      </trkpt>
      <trkpt lat="46.30129" lon="4.63746">
        <ele>671</ele>
        <time>2014-09-28T08:42:32Z</time>
      </trkpt>
      <trkpt lat="46.30128" lon="4.63743">
        <ele>670</ele>
        <time>2014-09-28T08:42:33Z</time>
      </trkpt>
      <trkpt lat="46.30125" lon="4.63733">
        <ele>671</ele>
        <time>2014-09-28T08:42:37Z</time>
      </trkpt>
      <trkpt lat="46.30125" lon="4.6373">
        <ele>671</ele>
        <time>2014-09-28T08:42:38Z</time>
      </trkpt>
      <trkpt lat="46.30121" lon="4.63718">
        <ele>671</ele>
        <time>2014-09-28T08:42:43Z</time>
      </trkpt>
      <trkpt lat="46.3012" lon="4.63716">
        <ele>671</ele>
        <time>2014-09-28T08:42:44Z</time>
      </trkpt>
      <trkpt lat="46.30116" lon="4.63705">
        <ele>672</ele>
        <time>2014-09-28T08:42:49Z</time>
      </trkpt>
      <trkpt lat="46.30116" lon="4.63703">
        <ele>672</ele>
        <time>2014-09-28T08:42:50Z</time>
      </trkpt>
      <trkpt lat="46.30112" lon="4.63694">
        <ele>672</ele>
        <time>2014-09-28T08:42:54Z</time>
      </trkpt>
      <trkpt lat="46.3011" lon="4.63692">
        <ele>672</ele>
        <time>2014-09-28T08:42:55Z</time>
      </trkpt>
      <trkpt lat="46.30105" lon="4.63684">
        <ele>673</ele>
        <time>2014-09-28T08:42:59Z</time>
      </trkpt>
      <trkpt lat="46.30104" lon="4.63682">
        <ele>673</ele>
        <time>2014-09-28T08:43:00Z</time>
      </trkpt>
      <trkpt lat="46.30098" lon="4.63673">
        <ele>672</ele>
        <time>2014-09-28T08:43:04Z</time>
      </trkpt>
      <trkpt lat="46.30096" lon="4.6367">
        <ele>672</ele>
        <time>2014-09-28T08:43:05Z</time>
      </trkpt>
      <trkpt lat="46.30092" lon="4.63661">
        <ele>677</ele>
        <time>2014-09-28T08:43:08Z</time>
      </trkpt>
      <trkpt lat="46.3009" lon="4.63658">
        <ele>677</ele>
        <time>2014-09-28T08:43:09Z</time>
      </trkpt>
      <trkpt lat="46.30086" lon="4.63648">
        <ele>680</ele>
        <time>2014-09-28T08:43:12Z</time>
      </trkpt>
      <trkpt lat="46.30085" lon="4.63645">
        <ele>680</ele>
        <time>2014-09-28T08:43:13Z</time>
      </trkpt>
      <trkpt lat="46.3008" lon="4.63636">
        <ele>670</ele>
        <time>2014-09-28T08:43:16Z</time>
      </trkpt>
      <trkpt lat="46.30079" lon="4.63633">
        <ele>670</ele>
        <time>2014-09-28T08:43:17Z</time>
      </trkpt>
      <trkpt lat="46.30074" lon="4.63624">
        <ele>671</ele>
        <time>2014-09-28T08:43:20Z</time>
      </trkpt>
      <trkpt lat="46.30072" lon="4.63621">
        <ele>671</ele>
        <time>2014-09-28T08:43:21Z</time>
      </trkpt>
      <trkpt lat="46.30066" lon="4.63613">
        <ele>672</ele>
        <time>2014-09-28T08:43:24Z</time>
      </trkpt>
      <trkpt lat="46.30064" lon="4.63609">
        <ele>672</ele>
        <time>2014-09-28T08:43:25Z</time>
      </trkpt>
      <trkpt lat="46.3006" lon="4.63601">
        <ele>672</ele>
        <time>2014-09-28T08:43:27Z</time>
      </trkpt>
      <trkpt lat="46.30057" lon="4.63597">
        <ele>672</ele>
        <time>2014-09-28T08:43:28Z</time>
      </trkpt>
      <trkpt lat="46.30053" lon="4.63589">
        <ele>672</ele>
        <time>2014-09-28T08:43:30Z</time>
      </trkpt>
      <trkpt lat="46.30051" lon="4.63585">
        <ele>672</ele>
        <time>2014-09-28T08:43:31Z</time>
      </trkpt>
      <trkpt lat="46.30046" lon="4.63576">
        <ele>681</ele>
        <time>2014-09-28T08:43:33Z</time>
      </trkpt>
      <trkpt lat="46.30044" lon="4.63571">
        <ele>681</ele>
        <time>2014-09-28T08:43:34Z</time>
      </trkpt>
      <trkpt lat="46.30041" lon="4.63566">
        <ele>681</ele>
        <time>2014-09-28T08:43:35Z</time>
      </trkpt>
      <trkpt lat="46.30039" lon="4.6356">
        <ele>681</ele>
        <time>2014-09-28T08:43:36Z</time>
      </trkpt>
      <trkpt lat="46.30034" lon="4.63549">
        <ele>681</ele>
        <time>2014-09-28T08:43:38Z</time>
      </trkpt>
      <trkpt lat="46.30032" lon="4.63544">
        <ele>681</ele>
        <time>2014-09-28T08:43:39Z</time>
      </trkpt>
      <trkpt lat="46.30028" lon="4.63536">
        <ele>682</ele>
        <time>2014-09-28T08:43:41Z</time>
      </trkpt>
      <trkpt lat="46.30026" lon="4.63532">
        <ele>682</ele>
        <time>2014-09-28T08:43:42Z</time>
      </trkpt>
      <trkpt lat="46.30021" lon="4.63526">
        <ele>682</ele>
        <time>2014-09-28T08:43:44Z</time>
      </trkpt>
      <trkpt lat="46.30018" lon="4.63524">
        <ele>682</ele>
        <time>2014-09-28T08:43:45Z</time>
      </trkpt>
      <trkpt lat="46.30009" lon="4.6352">
        <ele>681</ele>
        <time>2014-09-28T08:43:48Z</time>
      </trkpt>
      <trkpt lat="46.30007" lon="4.63518">
        <ele>681</ele>
        <time>2014-09-28T08:43:49Z</time>
      </trkpt>
      <trkpt lat="46.30001" lon="4.63513">
        <ele>681</ele>
        <time>2014-09-28T08:43:52Z</time>
      </trkpt>
      <trkpt lat="46.29999" lon="4.63512">
        <ele>676</ele>
        <time>2014-09-28T08:43:53Z</time>
      </trkpt>
      <trkpt lat="46.2999" lon="4.63508">
        <ele>676</ele>
        <time>2014-09-28T08:43:57Z</time>
      </trkpt>
      <trkpt lat="46.29988" lon="4.63508">
        <ele>675</ele>
        <time>2014-09-28T08:43:58Z</time>
      </trkpt>
      <trkpt lat="46.29981" lon="4.63505">
        <ele>674</ele>
        <time>2014-09-28T08:44:02Z</time>
      </trkpt>
      <trkpt lat="46.29979" lon="4.63504">
        <ele>674</ele>
        <time>2014-09-28T08:44:03Z</time>
      </trkpt>
      <trkpt lat="46.29973" lon="4.63499">
        <ele>681</ele>
        <time>2014-09-28T08:44:06Z</time>
      </trkpt>
      <trkpt lat="46.2997" lon="4.63498">
        <ele>681</ele>
        <time>2014-09-28T08:44:07Z</time>
      </trkpt>
      <trkpt lat="46.29963" lon="4.63495">
        <ele>681</ele>
        <time>2014-09-28T08:44:10Z</time>
      </trkpt>
      <trkpt lat="46.2996" lon="4.63493">
        <ele>681</ele>
        <time>2014-09-28T08:44:11Z</time>
      </trkpt>
      <trkpt lat="46.29953" lon="4.6349">
        <ele>680</ele>
        <time>2014-09-28T08:44:13Z</time>
      </trkpt>
      <trkpt lat="46.29949" lon="4.63488">
        <ele>680</ele>
        <time>2014-09-28T08:44:14Z</time>
      </trkpt>
      <trkpt lat="46.29941" lon="4.63485">
        <ele>679</ele>
        <time>2014-09-28T08:44:16Z</time>
      </trkpt>
      <trkpt lat="46.29936" lon="4.63483">
        <ele>679</ele>
        <time>2014-09-28T08:44:17Z</time>
      </trkpt>
      <trkpt lat="46.29931" lon="4.63482">
        <ele>678</ele>
        <time>2014-09-28T08:44:18Z</time>
      </trkpt>
      <trkpt lat="46.29927" lon="4.63481">
        <ele>678</ele>
        <time>2014-09-28T08:44:19Z</time>
      </trkpt>
      <trkpt lat="46.29922" lon="4.63481">
        <ele>678</ele>
        <time>2014-09-28T08:44:20Z</time>
      </trkpt>
      <trkpt lat="46.29916" lon="4.63481">
        <ele>672</ele>
        <time>2014-09-28T08:44:21Z</time>
      </trkpt>
      <trkpt lat="46.29911" lon="4.63482">
        <ele>672</ele>
        <time>2014-09-28T08:44:22Z</time>
      </trkpt>
      <trkpt lat="46.29905" lon="4.63482">
        <ele>672</ele>
        <time>2014-09-28T08:44:23Z</time>
      </trkpt>
      <trkpt lat="46.299" lon="4.63483">
        <ele>672</ele>
        <time>2014-09-28T08:44:24Z</time>
      </trkpt>
      <trkpt lat="46.29895" lon="4.63483">
        <ele>671</ele>
        <time>2014-09-28T08:44:25Z</time>
      </trkpt>
      <trkpt lat="46.2989" lon="4.63482">
        <ele>671</ele>
        <time>2014-09-28T08:44:26Z</time>
      </trkpt>
      <trkpt lat="46.29885" lon="4.63482">
        <ele>671</ele>
        <time>2014-09-28T08:44:27Z</time>
      </trkpt>
      <trkpt lat="46.2988" lon="4.63481">
        <ele>670</ele>
        <time>2014-09-28T08:44:28Z</time>
      </trkpt>
      <trkpt lat="46.29875" lon="4.63482">
        <ele>670</ele>
        <time>2014-09-28T08:44:29Z</time>
      </trkpt>
      <trkpt lat="46.2987" lon="4.63484">
        <ele>670</ele>
        <time>2014-09-28T08:44:30Z</time>
      </trkpt>
      <trkpt lat="46.29865" lon="4.63488">
        <ele>670</ele>
        <time>2014-09-28T08:44:31Z</time>
      </trkpt>
      <trkpt lat="46.2986" lon="4.6349">
        <ele>669</ele>
        <time>2014-09-28T08:44:32Z</time>
      </trkpt>
      <trkpt lat="46.29855" lon="4.63493">
        <ele>669</ele>
        <time>2014-09-28T08:44:33Z</time>
      </trkpt>
      <trkpt lat="46.2985" lon="4.63496">
        <ele>669</ele>
        <time>2014-09-28T08:44:34Z</time>
      </trkpt>
      <trkpt lat="46.29845" lon="4.63496">
        <ele>668</ele>
        <time>2014-09-28T08:44:35Z</time>
      </trkpt>
      <trkpt lat="46.2984" lon="4.63496">
        <ele>668</ele>
        <time>2014-09-28T08:44:36Z</time>
      </trkpt>
      <trkpt lat="46.29834" lon="4.63495">
        <ele>667</ele>
        <time>2014-09-28T08:44:37Z</time>
      </trkpt>
      <trkpt lat="46.29829" lon="4.63495">
        <ele>666</ele>
        <time>2014-09-28T08:44:38Z</time>
      </trkpt>
      <trkpt lat="46.29823" lon="4.63492">
        <ele>665</ele>
        <time>2014-09-28T08:44:39Z</time>
      </trkpt>
      <trkpt lat="46.29818" lon="4.6349">
        <ele>664</ele>
        <time>2014-09-28T08:44:40Z</time>
      </trkpt>
      <trkpt lat="46.29813" lon="4.63488">
        <ele>663</ele>
        <time>2014-09-28T08:44:41Z</time>
      </trkpt>
      <trkpt lat="46.29808" lon="4.63488">
        <ele>663</ele>
        <time>2014-09-28T08:44:42Z</time>
      </trkpt>
      <trkpt lat="46.29802" lon="4.6349">
        <ele>663</ele>
        <time>2014-09-28T08:44:43Z</time>
      </trkpt>
      <trkpt lat="46.29796" lon="4.63492">
        <ele>662</ele>
        <time>2014-09-28T08:44:44Z</time>
      </trkpt>
      <trkpt lat="46.29791" lon="4.63495">
        <ele>662</ele>
        <time>2014-09-28T08:44:45Z</time>
      </trkpt>
      <trkpt lat="46.29784" lon="4.63497">
        <ele>662</ele>
        <time>2014-09-28T08:44:46Z</time>
      </trkpt>
      <trkpt lat="46.29777" lon="4.63499">
        <ele>662</ele>
        <time>2014-09-28T08:44:47Z</time>
      </trkpt>
      <trkpt lat="46.29771" lon="4.63501">
        <ele>662</ele>
        <time>2014-09-28T08:44:48Z</time>
      </trkpt>
      <trkpt lat="46.29764" lon="4.63502">
        <ele>662</ele>
        <time>2014-09-28T08:44:49Z</time>
      </trkpt>
      <trkpt lat="46.29757" lon="4.63504">
        <ele>662</ele>
        <time>2014-09-28T08:44:50Z</time>
      </trkpt>
      <trkpt lat="46.29751" lon="4.63506">
        <ele>662</ele>
        <time>2014-09-28T08:44:51Z</time>
      </trkpt>
      <trkpt lat="46.29742" lon="4.63508">
        <ele>662</ele>
        <time>2014-09-28T08:44:55Z</time>
      </trkpt>
      <trkpt lat="46.29741" lon="4.63508">
        <ele>662</ele>
        <time>2014-09-28T08:44:56Z</time>
      </trkpt>
      <trkpt lat="46.29733" lon="4.63511">
        <ele>662</ele>
        <time>2014-09-28T08:44:59Z</time>
      </trkpt>
      <trkpt lat="46.2973" lon="4.63512">
        <ele>662</ele>
        <time>2014-09-28T08:45:00Z</time>
      </trkpt>
      <trkpt lat="46.29721" lon="4.63516">
        <ele>661</ele>
        <time>2014-09-28T08:45:02Z</time>
      </trkpt>
      <trkpt lat="46.29717" lon="4.63516">
        <ele>661</ele>
        <time>2014-09-28T08:45:03Z</time>
      </trkpt>
      <trkpt lat="46.29713" lon="4.63517">
        <ele>661</ele>
        <time>2014-09-28T08:45:04Z</time>
      </trkpt>
      <trkpt lat="46.29708" lon="4.6352">
        <ele>661</ele>
        <time>2014-09-28T08:45:05Z</time>
      </trkpt>
      <trkpt lat="46.29702" lon="4.63521">
        <ele>661</ele>
        <time>2014-09-28T08:45:06Z</time>
      </trkpt>
      <trkpt lat="46.29697" lon="4.63522">
        <ele>661</ele>
        <time>2014-09-28T08:45:07Z</time>
      </trkpt>
      <trkpt lat="46.29692" lon="4.63523">
        <ele>661</ele>
        <time>2014-09-28T08:45:08Z</time>
      </trkpt>
      <trkpt lat="46.29688" lon="4.63523">
        <ele>661</ele>
        <time>2014-09-28T08:45:09Z</time>
      </trkpt>
      <trkpt lat="46.2968" lon="4.63526">
        <ele>661</ele>
        <time>2014-09-28T08:45:11Z</time>
      </trkpt>
      <trkpt lat="46.29675" lon="4.63525">
        <ele>661</ele>
        <time>2014-09-28T08:45:12Z</time>
      </trkpt>
      <trkpt lat="46.29669" lon="4.63526">
        <ele>661</ele>
        <time>2014-09-28T08:45:14Z</time>
      </trkpt>
      <trkpt lat="46.29666" lon="4.63528">
        <ele>660</ele>
        <time>2014-09-28T08:45:15Z</time>
      </trkpt>
      <trkpt lat="46.29658" lon="4.63532">
        <ele>660</ele>
        <time>2014-09-28T08:45:17Z</time>
      </trkpt>
      <trkpt lat="46.29655" lon="4.63532">
        <ele>660</ele>
        <time>2014-09-28T08:45:18Z</time>
      </trkpt>
      <trkpt lat="46.29647" lon="4.63534">
        <ele>660</ele>
        <time>2014-09-28T08:45:20Z</time>
      </trkpt>
      <trkpt lat="46.29643" lon="4.63535">
        <ele>660</ele>
        <time>2014-09-28T08:45:21Z</time>
      </trkpt>
      <trkpt lat="46.29635" lon="4.63536">
        <ele>660</ele>
        <time>2014-09-28T08:45:23Z</time>
      </trkpt>
      <trkpt lat="46.2963" lon="4.63536">
        <ele>660</ele>
        <time>2014-09-28T08:45:24Z</time>
      </trkpt>
      <trkpt lat="46.2962" lon="4.63539">
        <ele>660</ele>
        <time>2014-09-28T08:45:25Z</time>
      </trkpt>
      <trkpt lat="46.29611" lon="4.6354">
        <ele>660</ele>
        <time>2014-09-28T08:45:27Z</time>
      </trkpt>
      <trkpt lat="46.29609" lon="4.63545">
        <ele>661</ele>
        <time>2014-09-28T08:45:28Z</time>
      </trkpt>
      <trkpt lat="46.29605" lon="4.63548">
        <ele>661</ele>
        <time>2014-09-28T08:45:29Z</time>
      </trkpt>
      <trkpt lat="46.296" lon="4.63553">
        <ele>662</ele>
        <time>2014-09-28T08:45:30Z</time>
      </trkpt>
      <trkpt lat="46.29594" lon="4.63557">
        <ele>662</ele>
        <time>2014-09-28T08:45:31Z</time>
      </trkpt>
      <trkpt lat="46.29589" lon="4.6356">
        <ele>663</ele>
        <time>2014-09-28T08:45:32Z</time>
      </trkpt>
      <trkpt lat="46.29582" lon="4.63564">
        <ele>660</ele>
        <time>2014-09-28T08:45:33Z</time>
      </trkpt>
      <trkpt lat="46.29575" lon="4.63565">
        <ele>659</ele>
        <time>2014-09-28T08:45:34Z</time>
      </trkpt>
      <trkpt lat="46.29564" lon="4.63571">
        <ele>659</ele>
        <time>2014-09-28T08:45:35Z</time>
      </trkpt>
      <trkpt lat="46.29551" lon="4.63574">
        <ele>657</ele>
        <time>2014-09-28T08:45:36Z</time>
      </trkpt>
      <trkpt lat="46.29539" lon="4.63573">
        <ele>655</ele>
        <time>2014-09-28T08:45:37Z</time>
      </trkpt>
      <trkpt lat="46.29529" lon="4.63579">
        <ele>655</ele>
        <time>2014-09-28T08:45:38Z</time>
      </trkpt>
      <trkpt lat="46.29524" lon="4.63587">
        <ele>664</ele>
        <time>2014-09-28T08:45:39Z</time>
      </trkpt>
      <trkpt lat="46.29514" lon="4.63593">
        <ele>663</ele>
        <time>2014-09-28T08:45:40Z</time>
      </trkpt>
      <trkpt lat="46.29504" lon="4.63602">
        <ele>664</ele>
        <time>2014-09-28T08:45:41Z</time>
      </trkpt>
      <trkpt lat="46.29495" lon="4.63608">
        <ele>660</ele>
        <time>2014-09-28T08:45:42Z</time>
      </trkpt>
      <trkpt lat="46.29488" lon="4.63613">
        <ele>660</ele>
        <time>2014-09-28T08:45:43Z</time>
      </trkpt>
      <trkpt lat="46.29482" lon="4.63613">
        <ele>660</ele>
        <time>2014-09-28T08:45:44Z</time>
      </trkpt>
      <trkpt lat="46.29476" lon="4.63615">
        <ele>660</ele>
        <time>2014-09-28T08:45:45Z</time>
      </trkpt>
      <trkpt lat="46.29468" lon="4.63619">
        <ele>661</ele>
        <time>2014-09-28T08:45:46Z</time>
      </trkpt>
      <trkpt lat="46.29461" lon="4.63613">
        <ele>659</ele>
        <time>2014-09-28T08:45:47Z</time>
      </trkpt>
      <trkpt lat="46.29457" lon="4.6362">
        <ele>660</ele>
        <time>2014-09-28T08:45:48Z</time>
      </trkpt>
      <trkpt lat="46.29451" lon="4.63624">
        <ele>660</ele>
        <time>2014-09-28T08:45:49Z</time>
      </trkpt>
      <trkpt lat="46.29446" lon="4.63627">
        <ele>660</ele>
        <time>2014-09-28T08:45:50Z</time>
      </trkpt>
      <trkpt lat="46.2944" lon="4.63635">
        <ele>661</ele>
        <time>2014-09-28T08:45:52Z</time>
      </trkpt>
      <trkpt lat="46.29435" lon="4.63637">
        <ele>661</ele>
        <time>2014-09-28T08:45:53Z</time>
      </trkpt>
      <trkpt lat="46.29426" lon="4.63639">
        <ele>662</ele>
        <time>2014-09-28T08:45:55Z</time>
      </trkpt>
      <trkpt lat="46.29423" lon="4.63642">
        <ele>662</ele>
        <time>2014-09-28T08:45:56Z</time>
      </trkpt>
      <trkpt lat="46.29415" lon="4.63644">
        <ele>661</ele>
        <time>2014-09-28T08:45:58Z</time>
      </trkpt>
      <trkpt lat="46.29411" lon="4.63648">
        <ele>662</ele>
        <time>2014-09-28T08:45:59Z</time>
      </trkpt>
      <trkpt lat="46.29403" lon="4.63651">
        <ele>662</ele>
        <time>2014-09-28T08:46:01Z</time>
      </trkpt>
      <trkpt lat="46.29399" lon="4.63653">
        <ele>661</ele>
        <time>2014-09-28T08:46:02Z</time>
      </trkpt>
      <trkpt lat="46.29392" lon="4.63655">
        <ele>661</ele>
        <time>2014-09-28T08:46:04Z</time>
      </trkpt>
      <trkpt lat="46.29388" lon="4.63654">
        <ele>661</ele>
        <time>2014-09-28T08:46:05Z</time>
      </trkpt>
      <trkpt lat="46.29381" lon="4.63654">
        <ele>660</ele>
        <time>2014-09-28T08:46:07Z</time>
      </trkpt>
      <trkpt lat="46.29377" lon="4.63655">
        <ele>660</ele>
        <time>2014-09-28T08:46:08Z</time>
      </trkpt>
      <trkpt lat="46.29369" lon="4.63656">
        <ele>660</ele>
        <time>2014-09-28T08:46:11Z</time>
      </trkpt>
      <trkpt lat="46.29366" lon="4.63654">
        <ele>660</ele>
        <time>2014-09-28T08:46:12Z</time>
      </trkpt>
      <trkpt lat="46.2936" lon="4.63651">
        <ele>660</ele>
        <time>2014-09-28T08:46:14Z</time>
      </trkpt>
      <trkpt lat="46.29356" lon="4.63649">
        <ele>660</ele>
        <time>2014-09-28T08:46:15Z</time>
      </trkpt>
      <trkpt lat="46.29351" lon="4.63647">
        <ele>660</ele>
        <time>2014-09-28T08:46:16Z</time>
      </trkpt>
      <trkpt lat="46.29345" lon="4.63645">
        <ele>661</ele>
        <time>2014-09-28T08:46:17Z</time>
      </trkpt>
      <trkpt lat="46.29337" lon="4.63642">
        <ele>660</ele>
        <time>2014-09-28T08:46:18Z</time>
      </trkpt>
      <trkpt lat="46.29334" lon="4.63642">
        <ele>660</ele>
        <time>2014-09-28T08:46:19Z</time>
      </trkpt>
      <trkpt lat="46.29326" lon="4.63639">
        <ele>662</ele>
        <time>2014-09-28T08:46:21Z</time>
      </trkpt>
      <trkpt lat="46.2932" lon="4.63639">
        <ele>662</ele>
        <time>2014-09-28T08:46:22Z</time>
      </trkpt>
      <trkpt lat="46.29313" lon="4.63638">
        <ele>662</ele>
        <time>2014-09-28T08:46:24Z</time>
      </trkpt>
      <trkpt lat="46.2931" lon="4.63641">
        <ele>662</ele>
        <time>2014-09-28T08:46:25Z</time>
      </trkpt>
      <trkpt lat="46.29303" lon="4.6364">
        <ele>662</ele>
        <time>2014-09-28T08:46:27Z</time>
      </trkpt>
      <trkpt lat="46.29299" lon="4.63639">
        <ele>662</ele>
        <time>2014-09-28T08:46:28Z</time>
      </trkpt>
      <trkpt lat="46.29295" lon="4.63636">
        <ele>662</ele>
        <time>2014-09-28T08:46:29Z</time>
      </trkpt>
      <trkpt lat="46.2929" lon="4.63632">
        <ele>662</ele>
        <time>2014-09-28T08:46:30Z</time>
      </trkpt>
      <trkpt lat="46.29287" lon="4.63626">
        <ele>662</ele>
        <time>2014-09-28T08:46:31Z</time>
      </trkpt>
      <trkpt lat="46.29283" lon="4.63622">
        <ele>662</ele>
        <time>2014-09-28T08:46:32Z</time>
      </trkpt>
      <trkpt lat="46.29277" lon="4.63618">
        <ele>662</ele>
        <time>2014-09-28T08:46:33Z</time>
      </trkpt>
      <trkpt lat="46.29274" lon="4.63614">
        <ele>662</ele>
        <time>2014-09-28T08:46:34Z</time>
      </trkpt>
      <trkpt lat="46.29267" lon="4.63608">
        <ele>662</ele>
        <time>2014-09-28T08:46:36Z</time>
      </trkpt>
      <trkpt lat="46.29264" lon="4.63604">
        <ele>662</ele>
        <time>2014-09-28T08:46:37Z</time>
      </trkpt>
      <trkpt lat="46.29258" lon="4.63595">
        <ele>662</ele>
        <time>2014-09-28T08:46:39Z</time>
      </trkpt>
      <trkpt lat="46.29253" lon="4.63592">
        <ele>662</ele>
        <time>2014-09-28T08:46:40Z</time>
      </trkpt>
      <trkpt lat="46.29249" lon="4.63588">
        <ele>662</ele>
        <time>2014-09-28T08:46:41Z</time>
      </trkpt>
      <trkpt lat="46.29246" lon="4.63584">
        <ele>662</ele>
        <time>2014-09-28T08:46:42Z</time>
      </trkpt>
      <trkpt lat="46.29241" lon="4.63579">
        <ele>661</ele>
        <time>2014-09-28T08:46:43Z</time>
      </trkpt>
      <trkpt lat="46.29238" lon="4.63575">
        <ele>660</ele>
        <time>2014-09-28T08:46:44Z</time>
      </trkpt>
      <trkpt lat="46.29235" lon="4.63572">
        <ele>660</ele>
        <time>2014-09-28T08:46:45Z</time>
      </trkpt>
      <trkpt lat="46.2923" lon="4.63568">
        <ele>659</ele>
        <time>2014-09-28T08:46:46Z</time>
      </trkpt>
      <trkpt lat="46.29226" lon="4.63563">
        <ele>659</ele>
        <time>2014-09-28T08:46:47Z</time>
      </trkpt>
      <trkpt lat="46.29222" lon="4.63559">
        <ele>659</ele>
        <time>2014-09-28T08:46:48Z</time>
      </trkpt>
      <trkpt lat="46.29214" lon="4.63553">
        <ele>658</ele>
        <time>2014-09-28T08:46:50Z</time>
      </trkpt>
      <trkpt lat="46.2921" lon="4.63551">
        <ele>658</ele>
        <time>2014-09-28T08:46:51Z</time>
      </trkpt>
      <trkpt lat="46.29201" lon="4.63549">
        <ele>658</ele>
        <time>2014-09-28T08:46:53Z</time>
      </trkpt>
      <trkpt lat="46.29196" lon="4.63549">
        <ele>658</ele>
        <time>2014-09-28T08:46:54Z</time>
      </trkpt>
      <trkpt lat="46.29191" lon="4.63549">
        <ele>658</ele>
        <time>2014-09-28T08:46:55Z</time>
      </trkpt>
      <trkpt lat="46.29186" lon="4.63552">
        <ele>659</ele>
        <time>2014-09-28T08:46:56Z</time>
      </trkpt>
      <trkpt lat="46.29181" lon="4.63554">
        <ele>659</ele>
        <time>2014-09-28T08:46:57Z</time>
      </trkpt>
      <trkpt lat="46.29176" lon="4.63556">
        <ele>659</ele>
        <time>2014-09-28T08:46:58Z</time>
      </trkpt>
      <trkpt lat="46.2917" lon="4.6356">
        <ele>660</ele>
        <time>2014-09-28T08:46:59Z</time>
      </trkpt>
      <trkpt lat="46.29166" lon="4.63562">
        <ele>657</ele>
        <time>2014-09-28T08:47:00Z</time>
      </trkpt>
      <trkpt lat="46.29161" lon="4.63563">
        <ele>657</ele>
        <time>2014-09-28T08:47:01Z</time>
      </trkpt>
      <trkpt lat="46.29155" lon="4.63564">
        <ele>657</ele>
        <time>2014-09-28T08:47:02Z</time>
      </trkpt>
      <trkpt lat="46.29148" lon="4.63564">
        <ele>656</ele>
        <time>2014-09-28T08:47:03Z</time>
      </trkpt>
      <trkpt lat="46.29141" lon="4.63563">
        <ele>655</ele>
        <time>2014-09-28T08:47:04Z</time>
      </trkpt>
      <trkpt lat="46.29133" lon="4.63562">
        <ele>655</ele>
        <time>2014-09-28T08:47:05Z</time>
      </trkpt>
      <trkpt lat="46.29126" lon="4.63566">
        <ele>654</ele>
        <time>2014-09-28T08:47:06Z</time>
      </trkpt>
      <trkpt lat="46.2912" lon="4.63569">
        <ele>654</ele>
        <time>2014-09-28T08:47:07Z</time>
      </trkpt>
      <trkpt lat="46.29113" lon="4.63571">
        <ele>654</ele>
        <time>2014-09-28T08:47:08Z</time>
      </trkpt>
      <trkpt lat="46.29107" lon="4.63575">
        <ele>653</ele>
        <time>2014-09-28T08:47:09Z</time>
      </trkpt>
      <trkpt lat="46.29099" lon="4.63577">
        <ele>653</ele>
        <time>2014-09-28T08:47:10Z</time>
      </trkpt>
      <trkpt lat="46.29091" lon="4.63578">
        <ele>653</ele>
        <time>2014-09-28T08:47:11Z</time>
      </trkpt>
      <trkpt lat="46.29083" lon="4.63581">
        <ele>653</ele>
        <time>2014-09-28T08:47:12Z</time>
      </trkpt>
      <trkpt lat="46.29076" lon="4.63584">
        <ele>653</ele>
        <time>2014-09-28T08:47:13Z</time>
      </trkpt>
      <trkpt lat="46.29069" lon="4.63587">
        <ele>653</ele>
        <time>2014-09-28T08:47:14Z</time>
      </trkpt>
      <trkpt lat="46.29062" lon="4.63589">
        <ele>652</ele>
        <time>2014-09-28T08:47:15Z</time>
      </trkpt>
      <trkpt lat="46.29055" lon="4.63591">
        <ele>652</ele>
        <time>2014-09-28T08:47:16Z</time>
      </trkpt>
      <trkpt lat="46.29048" lon="4.63594">
        <ele>651</ele>
        <time>2014-09-28T08:47:17Z</time>
      </trkpt>
      <trkpt lat="46.29041" lon="4.63596">
        <ele>651</ele>
        <time>2014-09-28T08:47:18Z</time>
      </trkpt>
      <trkpt lat="46.29035" lon="4.63597">
        <ele>650</ele>
        <time>2014-09-28T08:47:19Z</time>
      </trkpt>
      <trkpt lat="46.29028" lon="4.636">
        <ele>650</ele>
        <time>2014-09-28T08:47:20Z</time>
      </trkpt>
      <trkpt lat="46.29022" lon="4.63605">
        <ele>649</ele>
        <time>2014-09-28T08:47:21Z</time>
      </trkpt>
      <trkpt lat="46.29017" lon="4.63609">
        <ele>649</ele>
        <time>2014-09-28T08:47:22Z</time>
      </trkpt>
      <trkpt lat="46.29009" lon="4.63612">
        <ele>649</ele>
        <time>2014-09-28T08:47:23Z</time>
      </trkpt>
      <trkpt lat="46.29004" lon="4.63613">
        <ele>649</ele>
        <time>2014-09-28T08:47:24Z</time>
      </trkpt>
      <trkpt lat="46.28999" lon="4.63617">
        <ele>645</ele>
        <time>2014-09-28T08:47:25Z</time>
      </trkpt>
      <trkpt lat="46.28995" lon="4.63621">
        <ele>646</ele>
        <time>2014-09-28T08:47:26Z</time>
      </trkpt>
      <trkpt lat="46.28989" lon="4.63624">
        <ele>646</ele>
        <time>2014-09-28T08:47:27Z</time>
      </trkpt>
      <trkpt lat="46.28984" lon="4.63626">
        <ele>646</ele>
        <time>2014-09-28T08:47:28Z</time>
      </trkpt>
      <trkpt lat="46.28979" lon="4.63625">
        <ele>645</ele>
        <time>2014-09-28T08:47:29Z</time>
      </trkpt>
      <trkpt lat="46.28974" lon="4.63625">
        <ele>645</ele>
        <time>2014-09-28T08:47:30Z</time>
      </trkpt>
      <trkpt lat="46.28967" lon="4.63623">
        <ele>645</ele>
        <time>2014-09-28T08:47:31Z</time>
      </trkpt>
      <trkpt lat="46.28961" lon="4.6362">
        <ele>645</ele>
        <time>2014-09-28T08:47:32Z</time>
      </trkpt>
      <trkpt lat="46.28954" lon="4.63613">
        <ele>645</ele>
        <time>2014-09-28T08:47:34Z</time>
      </trkpt>
      <trkpt lat="46.28951" lon="4.6361">
        <ele>644</ele>
        <time>2014-09-28T08:47:35Z</time>
      </trkpt>
      <trkpt lat="46.28946" lon="4.63602">
        <ele>644</ele>
        <time>2014-09-28T08:47:37Z</time>
      </trkpt>
      <trkpt lat="46.28941" lon="4.63599">
        <ele>644</ele>
        <time>2014-09-28T08:47:38Z</time>
      </trkpt>
      <trkpt lat="46.28935" lon="4.63596">
        <ele>644</ele>
        <time>2014-09-28T08:47:40Z</time>
      </trkpt>
      <trkpt lat="46.28932" lon="4.63595">
        <ele>644</ele>
        <time>2014-09-28T08:47:41Z</time>
      </trkpt>
      <trkpt lat="46.28926" lon="4.63591">
        <ele>643</ele>
        <time>2014-09-28T08:47:43Z</time>
      </trkpt>
      <trkpt lat="46.28924" lon="4.6359">
        <ele>643</ele>
        <time>2014-09-28T08:47:44Z</time>
      </trkpt>
      <trkpt lat="46.28917" lon="4.63588">
        <ele>643</ele>
        <time>2014-09-28T08:47:47Z</time>
      </trkpt>
      <trkpt lat="46.28914" lon="4.63588">
        <ele>643</ele>
        <time>2014-09-28T08:47:48Z</time>
      </trkpt>
      <trkpt lat="46.28905" lon="4.63586">
        <ele>645</ele>
        <time>2014-09-28T08:47:52Z</time>
      </trkpt>
      <trkpt lat="46.28903" lon="4.63585">
        <ele>645</ele>
        <time>2014-09-28T08:47:53Z</time>
      </trkpt>
      <trkpt lat="46.28896" lon="4.63581">
        <ele>645</ele>
        <time>2014-09-28T08:47:58Z</time>
      </trkpt>
      <trkpt lat="46.28894" lon="4.6358">
        <ele>645</ele>
        <time>2014-09-28T08:47:59Z</time>
      </trkpt>
      <trkpt lat="46.28885" lon="4.63577">
        <ele>646</ele>
        <time>2014-09-28T08:48:04Z</time>
      </trkpt>
      <trkpt lat="46.28884" lon="4.63576">
        <ele>646</ele>
        <time>2014-09-28T08:48:05Z</time>
      </trkpt>
      <trkpt lat="46.28875" lon="4.63574">
        <ele>647</ele>
        <time>2014-09-28T08:48:10Z</time>
      </trkpt>
      <trkpt lat="46.28873" lon="4.63573">
        <ele>647</ele>
        <time>2014-09-28T08:48:11Z</time>
      </trkpt>
      <trkpt lat="46.28866" lon="4.6357">
        <ele>648</ele>
        <time>2014-09-28T08:48:15Z</time>
      </trkpt>
      <trkpt lat="46.28864" lon="4.63569">
        <ele>648</ele>
        <time>2014-09-28T08:48:16Z</time>
      </trkpt>
      <trkpt lat="46.28857" lon="4.63565">
        <ele>649</ele>
        <time>2014-09-28T08:48:19Z</time>
      </trkpt>
      <trkpt lat="46.28854" lon="4.63564">
        <ele>649</ele>
        <time>2014-09-28T08:48:20Z</time>
      </trkpt>
      <trkpt lat="46.28847" lon="4.63561">
        <ele>649</ele>
        <time>2014-09-28T08:48:23Z</time>
      </trkpt>
      <trkpt lat="46.28845" lon="4.63559">
        <ele>649</ele>
        <time>2014-09-28T08:48:24Z</time>
      </trkpt>
      <trkpt lat="46.28839" lon="4.63556">
        <ele>650</ele>
        <time>2014-09-28T08:48:27Z</time>
      </trkpt>
      <trkpt lat="46.28837" lon="4.63555">
        <ele>650</ele>
        <time>2014-09-28T08:48:28Z</time>
      </trkpt>
      <trkpt lat="46.28829" lon="4.63552">
        <ele>656</ele>
        <time>2014-09-28T08:48:32Z</time>
      </trkpt>
      <trkpt lat="46.28827" lon="4.63551">
        <ele>656</ele>
        <time>2014-09-28T08:48:33Z</time>
      </trkpt>
      <trkpt lat="46.2882" lon="4.63548">
        <ele>656</ele>
        <time>2014-09-28T08:48:37Z</time>
      </trkpt>
      <trkpt lat="46.28818" lon="4.63548">
        <ele>656</ele>
        <time>2014-09-28T08:48:38Z</time>
      </trkpt>
      <trkpt lat="46.2881" lon="4.63545">
        <ele>656</ele>
        <time>2014-09-28T08:48:43Z</time>
      </trkpt>
      <trkpt lat="46.28809" lon="4.63544">
        <ele>656</ele>
        <time>2014-09-28T08:48:44Z</time>
      </trkpt>
      <trkpt lat="46.28801" lon="4.6354">
        <ele>657</ele>
        <time>2014-09-28T08:48:49Z</time>
      </trkpt>
      <trkpt lat="46.28799" lon="4.63539">
        <ele>657</ele>
        <time>2014-09-28T08:48:50Z</time>
      </trkpt>
      <trkpt lat="46.28792" lon="4.63533">
        <ele>657</ele>
        <time>2014-09-28T08:48:55Z</time>
      </trkpt>
      <trkpt lat="46.28791" lon="4.63532">
        <ele>657</ele>
        <time>2014-09-28T08:48:56Z</time>
      </trkpt>
      <trkpt lat="46.28783" lon="4.63528">
        <ele>657</ele>
        <time>2014-09-28T08:49:02Z</time>
      </trkpt>
      <trkpt lat="46.28782" lon="4.63527">
        <ele>657</ele>
        <time>2014-09-28T08:49:03Z</time>
      </trkpt>
      <trkpt lat="46.28775" lon="4.63519">
        <ele>658</ele>
        <time>2014-09-28T08:49:09Z</time>
      </trkpt>
      <trkpt lat="46.28773" lon="4.63518">
        <ele>658</ele>
        <time>2014-09-28T08:49:10Z</time>
      </trkpt>
      <trkpt lat="46.28765" lon="4.63515">
        <ele>658</ele>
        <time>2014-09-28T08:49:15Z</time>
      </trkpt>
      <trkpt lat="46.28763" lon="4.63514">
        <ele>658</ele>
        <time>2014-09-28T08:49:16Z</time>
      </trkpt>
      <trkpt lat="46.28755" lon="4.63513">
        <ele>659</ele>
        <time>2014-09-28T08:49:21Z</time>
      </trkpt>
      <trkpt lat="46.28753" lon="4.63515">
        <ele>659</ele>
        <time>2014-09-28T08:49:22Z</time>
      </trkpt>
      <trkpt lat="46.28749" lon="4.63521">
        <ele>659</ele>
        <time>2014-09-28T08:49:25Z</time>
      </trkpt>
      <trkpt lat="46.28747" lon="4.63524">
        <ele>659</ele>
        <time>2014-09-28T08:49:26Z</time>
      </trkpt>
      <trkpt lat="46.28743" lon="4.63534">
        <ele>659</ele>
        <time>2014-09-28T08:49:29Z</time>
      </trkpt>
      <trkpt lat="46.28741" lon="4.63537">
        <ele>659</ele>
        <time>2014-09-28T08:49:30Z</time>
      </trkpt>
      <trkpt lat="46.28737" lon="4.63545">
        <ele>659</ele>
        <time>2014-09-28T08:49:32Z</time>
      </trkpt>
      <trkpt lat="46.28735" lon="4.6355">
        <ele>659</ele>
        <time>2014-09-28T08:49:33Z</time>
      </trkpt>
      <trkpt lat="46.28731" lon="4.63555">
        <ele>659</ele>
        <time>2014-09-28T08:49:34Z</time>
      </trkpt>
      <trkpt lat="46.28728" lon="4.63561">
        <ele>659</ele>
        <time>2014-09-28T08:49:35Z</time>
      </trkpt>
      <trkpt lat="46.28724" lon="4.63568">
        <ele>659</ele>
        <time>2014-09-28T08:49:36Z</time>
      </trkpt>
      <trkpt lat="46.28722" lon="4.63574">
        <ele>659</ele>
        <time>2014-09-28T08:49:37Z</time>
      </trkpt>
      <trkpt lat="46.28718" lon="4.6358">
        <ele>659</ele>
        <time>2014-09-28T08:49:38Z</time>
      </trkpt>
      <trkpt lat="46.28715" lon="4.63584">
        <ele>661</ele>
        <time>2014-09-28T08:49:39Z</time>
      </trkpt>
      <trkpt lat="46.28712" lon="4.6359">
        <ele>661</ele>
        <time>2014-09-28T08:49:40Z</time>
      </trkpt>
      <trkpt lat="46.28709" lon="4.63596">
        <ele>661</ele>
        <time>2014-09-28T08:49:41Z</time>
      </trkpt>
      <trkpt lat="46.28707" lon="4.63602">
        <ele>661</ele>
        <time>2014-09-28T08:49:42Z</time>
      </trkpt>
      <trkpt lat="46.28703" lon="4.63607">
        <ele>661</ele>
        <time>2014-09-28T08:49:43Z</time>
      </trkpt>
      <trkpt lat="46.28697" lon="4.63616">
        <ele>661</ele>
        <time>2014-09-28T08:49:45Z</time>
      </trkpt>
      <trkpt lat="46.28694" lon="4.63621">
        <ele>661</ele>
        <time>2014-09-28T08:49:46Z</time>
      </trkpt>
      <trkpt lat="46.28689" lon="4.63631">
        <ele>661</ele>
        <time>2014-09-28T08:49:48Z</time>
      </trkpt>
      <trkpt lat="46.28686" lon="4.63637">
        <ele>661</ele>
        <time>2014-09-28T08:49:49Z</time>
      </trkpt>
      <trkpt lat="46.28681" lon="4.63646">
        <ele>661</ele>
        <time>2014-09-28T08:49:51Z</time>
      </trkpt>
      <trkpt lat="46.28679" lon="4.63651">
        <ele>661</ele>
        <time>2014-09-28T08:49:52Z</time>
      </trkpt>
      <trkpt lat="46.28674" lon="4.6366">
        <ele>661</ele>
        <time>2014-09-28T08:49:54Z</time>
      </trkpt>
      <trkpt lat="46.28672" lon="4.63664">
        <ele>661</ele>
        <time>2014-09-28T08:49:55Z</time>
      </trkpt>
      <trkpt lat="46.28667" lon="4.63673">
        <ele>661</ele>
        <time>2014-09-28T08:49:57Z</time>
      </trkpt>
      <trkpt lat="46.28665" lon="4.63678">
        <ele>661</ele>
        <time>2014-09-28T08:49:58Z</time>
      </trkpt>
      <trkpt lat="46.2866" lon="4.63686">
        <ele>662</ele>
        <time>2014-09-28T08:50:00Z</time>
      </trkpt>
      <trkpt lat="46.28657" lon="4.63691">
        <ele>662</ele>
        <time>2014-09-28T08:50:01Z</time>
      </trkpt>
      <trkpt lat="46.28653" lon="4.637">
        <ele>662</ele>
        <time>2014-09-28T08:50:03Z</time>
      </trkpt>
      <trkpt lat="46.2865" lon="4.63705">
        <ele>662</ele>
        <time>2014-09-28T08:50:04Z</time>
      </trkpt>
      <trkpt lat="46.28645" lon="4.63714">
        <ele>662</ele>
        <time>2014-09-28T08:50:06Z</time>
      </trkpt>
      <trkpt lat="46.28643" lon="4.63719">
        <ele>662</ele>
        <time>2014-09-28T08:50:07Z</time>
      </trkpt>
      <trkpt lat="46.28637" lon="4.63728">
        <ele>663</ele>
        <time>2014-09-28T08:50:09Z</time>
      </trkpt>
      <trkpt lat="46.28635" lon="4.63733">
        <ele>663</ele>
        <time>2014-09-28T08:50:10Z</time>
      </trkpt>
      <trkpt lat="46.2863" lon="4.63742">
        <ele>663</ele>
        <time>2014-09-28T08:50:12Z</time>
      </trkpt>
      <trkpt lat="46.28627" lon="4.63746">
        <ele>663</ele>
        <time>2014-09-28T08:50:13Z</time>
      </trkpt>
      <trkpt lat="46.28622" lon="4.63754">
        <ele>665</ele>
        <time>2014-09-28T08:50:15Z</time>
      </trkpt>
      <trkpt lat="46.28619" lon="4.63757">
        <ele>665</ele>
        <time>2014-09-28T08:50:16Z</time>
      </trkpt>
      <trkpt lat="46.28612" lon="4.63765">
        <ele>665</ele>
        <time>2014-09-28T08:50:19Z</time>
      </trkpt>
      <trkpt lat="46.2861" lon="4.63768">
        <ele>665</ele>
        <time>2014-09-28T08:50:20Z</time>
      </trkpt>
      <trkpt lat="46.28604" lon="4.63777">
        <ele>665</ele>
        <time>2014-09-28T08:50:23Z</time>
      </trkpt>
      <trkpt lat="46.28601" lon="4.63779">
        <ele>665</ele>
        <time>2014-09-28T08:50:24Z</time>
      </trkpt>
      <trkpt lat="46.28595" lon="4.63786">
        <ele>665</ele>
        <time>2014-09-28T08:50:27Z</time>
      </trkpt>
      <trkpt lat="46.28592" lon="4.63789">
        <ele>666</ele>
        <time>2014-09-28T08:50:28Z</time>
      </trkpt>
      <trkpt lat="46.28586" lon="4.63796">
        <ele>666</ele>
        <time>2014-09-28T08:50:31Z</time>
      </trkpt>
      <trkpt lat="46.28583" lon="4.63798">
        <ele>668</ele>
        <time>2014-09-28T08:50:32Z</time>
      </trkpt>
      <trkpt lat="46.28577" lon="4.63806">
        <ele>669</ele>
        <time>2014-09-28T08:50:35Z</time>
      </trkpt>
      <trkpt lat="46.28575" lon="4.63808">
        <ele>669</ele>
        <time>2014-09-28T08:50:36Z</time>
      </trkpt>
      <trkpt lat="46.2857" lon="4.63815">
        <ele>669</ele>
        <time>2014-09-28T08:50:39Z</time>
      </trkpt>
      <trkpt lat="46.28568" lon="4.63817">
        <ele>669</ele>
        <time>2014-09-28T08:50:40Z</time>
      </trkpt>
      <trkpt lat="46.28561" lon="4.63823">
        <ele>669</ele>
        <time>2014-09-28T08:50:43Z</time>
      </trkpt>
      <trkpt lat="46.28559" lon="4.63825">
        <ele>669</ele>
        <time>2014-09-28T08:50:44Z</time>
      </trkpt>
      <trkpt lat="46.28551" lon="4.63832">
        <ele>669</ele>
        <time>2014-09-28T08:50:47Z</time>
      </trkpt>
      <trkpt lat="46.28548" lon="4.63833">
        <ele>672</ele>
        <time>2014-09-28T08:50:48Z</time>
      </trkpt>
      <trkpt lat="46.28542" lon="4.63837">
        <ele>672</ele>
        <time>2014-09-28T08:50:50Z</time>
      </trkpt>
      <trkpt lat="46.28539" lon="4.63839">
        <ele>672</ele>
        <time>2014-09-28T08:50:51Z</time>
      </trkpt>
      <trkpt lat="46.28533" lon="4.63843">
        <ele>672</ele>
        <time>2014-09-28T08:50:53Z</time>
      </trkpt>
      <trkpt lat="46.2853" lon="4.63845">
        <ele>672</ele>
        <time>2014-09-28T08:50:54Z</time>
      </trkpt>
      <trkpt lat="46.28523" lon="4.63849">
        <ele>673</ele>
        <time>2014-09-28T08:50:56Z</time>
      </trkpt>
      <trkpt lat="46.2852" lon="4.63851">
        <ele>673</ele>
        <time>2014-09-28T08:50:57Z</time>
      </trkpt>
      <trkpt lat="46.28514" lon="4.63855">
        <ele>673</ele>
        <time>2014-09-28T08:50:59Z</time>
      </trkpt>
      <trkpt lat="46.28511" lon="4.63857">
        <ele>673</ele>
        <time>2014-09-28T08:51:00Z</time>
      </trkpt>
      <trkpt lat="46.28506" lon="4.63861">
        <ele>673</ele>
        <time>2014-09-28T08:51:02Z</time>
      </trkpt>
      <trkpt lat="46.28503" lon="4.63863">
        <ele>673</ele>
        <time>2014-09-28T08:51:03Z</time>
      </trkpt>
      <trkpt lat="46.28495" lon="4.63868">
        <ele>675</ele>
        <time>2014-09-28T08:51:06Z</time>
      </trkpt>
      <trkpt lat="46.28492" lon="4.63869">
        <ele>676</ele>
        <time>2014-09-28T08:51:07Z</time>
      </trkpt>
      <trkpt lat="46.28484" lon="4.63872">
        <ele>676</ele>
        <time>2014-09-28T08:51:10Z</time>
      </trkpt>
      <trkpt lat="46.28482" lon="4.63872">
        <ele>676</ele>
        <time>2014-09-28T08:51:11Z</time>
      </trkpt>
      <trkpt lat="46.28474" lon="4.63869">
        <ele>676</ele>
        <time>2014-09-28T08:51:15Z</time>
      </trkpt>
      <trkpt lat="46.28472" lon="4.63869">
        <ele>676</ele>
        <time>2014-09-28T08:51:16Z</time>
      </trkpt>
      <trkpt lat="46.28463" lon="4.6387">
        <ele>677</ele>
        <time>2014-09-28T08:51:21Z</time>
      </trkpt>
      <trkpt lat="46.28461" lon="4.6387">
        <ele>677</ele>
        <time>2014-09-28T08:51:22Z</time>
      </trkpt>
      <trkpt lat="46.28453" lon="4.63871">
        <ele>677</ele>
        <time>2014-09-28T08:51:26Z</time>
      </trkpt>
      <trkpt lat="46.28452" lon="4.63872">
        <ele>677</ele>
        <time>2014-09-28T08:51:27Z</time>
      </trkpt>
      <trkpt lat="46.28445" lon="4.63875">
        <ele>678</ele>
        <time>2014-09-28T08:51:31Z</time>
      </trkpt>
      <trkpt lat="46.28443" lon="4.63875">
        <ele>678</ele>
        <time>2014-09-28T08:51:32Z</time>
      </trkpt>
      <trkpt lat="46.28435" lon="4.63878">
        <ele>678</ele>
        <time>2014-09-28T08:51:36Z</time>
      </trkpt>
      <trkpt lat="46.28433" lon="4.63878">
        <ele>678</ele>
        <time>2014-09-28T08:51:37Z</time>
      </trkpt>
      <trkpt lat="46.28426" lon="4.63884">
        <ele>678</ele>
        <time>2014-09-28T08:51:41Z</time>
      </trkpt>
      <trkpt lat="46.28424" lon="4.63886">
        <ele>679</ele>
        <time>2014-09-28T08:51:42Z</time>
      </trkpt>
      <trkpt lat="46.28417" lon="4.6389">
        <ele>679</ele>
        <time>2014-09-28T08:51:46Z</time>
      </trkpt>
      <trkpt lat="46.28415" lon="4.63891">
        <ele>683</ele>
        <time>2014-09-28T08:51:47Z</time>
      </trkpt>
      <trkpt lat="46.28407" lon="4.6389">
        <ele>683</ele>
        <time>2014-09-28T08:51:51Z</time>
      </trkpt>
      <trkpt lat="46.28405" lon="4.6389">
        <ele>683</ele>
        <time>2014-09-28T08:51:52Z</time>
      </trkpt>
      <trkpt lat="46.28397" lon="4.63891">
        <ele>684</ele>
        <time>2014-09-28T08:51:56Z</time>
      </trkpt>
      <trkpt lat="46.28396" lon="4.63891">
        <ele>684</ele>
        <time>2014-09-28T08:51:57Z</time>
      </trkpt>
      <trkpt lat="46.28387" lon="4.63891">
        <ele>684</ele>
        <time>2014-09-28T08:52:02Z</time>
      </trkpt>
      <trkpt lat="46.28385" lon="4.63893">
        <ele>684</ele>
        <time>2014-09-28T08:52:03Z</time>
      </trkpt>
      <trkpt lat="46.28376" lon="4.63898">
        <ele>685</ele>
        <time>2014-09-28T08:52:08Z</time>
      </trkpt>
      <trkpt lat="46.28375" lon="4.63897">
        <ele>685</ele>
        <time>2014-09-28T08:52:09Z</time>
      </trkpt>
      <trkpt lat="46.28367" lon="4.63895">
        <ele>686</ele>
        <time>2014-09-28T08:52:13Z</time>
      </trkpt>
      <trkpt lat="46.28366" lon="4.63895">
        <ele>686</ele>
        <time>2014-09-28T08:52:14Z</time>
      </trkpt>
      <trkpt lat="46.28357" lon="4.63892">
        <ele>686</ele>
        <time>2014-09-28T08:52:19Z</time>
      </trkpt>
      <trkpt lat="46.28356" lon="4.63892">
        <ele>686</ele>
        <time>2014-09-28T08:52:20Z</time>
      </trkpt>
      <trkpt lat="46.28348" lon="4.6389">
        <ele>687</ele>
        <time>2014-09-28T08:52:25Z</time>
      </trkpt>
      <trkpt lat="46.28346" lon="4.6389">
        <ele>687</ele>
        <time>2014-09-28T08:52:26Z</time>
      </trkpt>
      <trkpt lat="46.28338" lon="4.63889">
        <ele>687</ele>
        <time>2014-09-28T08:52:31Z</time>
      </trkpt>
      <trkpt lat="46.28336" lon="4.63889">
        <ele>687</ele>
        <time>2014-09-28T08:52:32Z</time>
      </trkpt>
      <trkpt lat="46.28328" lon="4.63885">
        <ele>691</ele>
        <time>2014-09-28T08:52:36Z</time>
      </trkpt>
      <trkpt lat="46.28326" lon="4.63884">
        <ele>691</ele>
        <time>2014-09-28T08:52:37Z</time>
      </trkpt>
      <trkpt lat="46.28318" lon="4.63882">
        <ele>691</ele>
        <time>2014-09-28T08:52:41Z</time>
      </trkpt>
      <trkpt lat="46.28316" lon="4.63883">
        <ele>692</ele>
        <time>2014-09-28T08:52:42Z</time>
      </trkpt>
      <trkpt lat="46.28309" lon="4.63884">
        <ele>692</ele>
        <time>2014-09-28T08:52:45Z</time>
      </trkpt>
      <trkpt lat="46.28307" lon="4.63885">
        <ele>692</ele>
        <time>2014-09-28T08:52:46Z</time>
      </trkpt>
      <trkpt lat="46.28298" lon="4.63889">
        <ele>692</ele>
        <time>2014-09-28T08:52:50Z</time>
      </trkpt>
      <trkpt lat="46.28296" lon="4.6389">
        <ele>692</ele>
        <time>2014-09-28T08:52:51Z</time>
      </trkpt>
      <trkpt lat="46.28289" lon="4.63891">
        <ele>693</ele>
        <time>2014-09-28T08:52:55Z</time>
      </trkpt>
      <trkpt lat="46.28287" lon="4.6389">
        <ele>693</ele>
        <time>2014-09-28T08:52:56Z</time>
      </trkpt>
      <trkpt lat="46.2828" lon="4.63888">
        <ele>693</ele>
        <time>2014-09-28T08:53:00Z</time>
      </trkpt>
      <trkpt lat="46.28278" lon="4.63888">
        <ele>693</ele>
        <time>2014-09-28T08:53:01Z</time>
      </trkpt>
      <trkpt lat="46.28271" lon="4.6389">
        <ele>694</ele>
        <time>2014-09-28T08:53:04Z</time>
      </trkpt>
      <trkpt lat="46.28268" lon="4.6389">
        <ele>694</ele>
        <time>2014-09-28T08:53:05Z</time>
      </trkpt>
      <trkpt lat="46.28261" lon="4.63889">
        <ele>694</ele>
        <time>2014-09-28T08:53:08Z</time>
      </trkpt>
      <trkpt lat="46.28259" lon="4.6389">
        <ele>694</ele>
        <time>2014-09-28T08:53:09Z</time>
      </trkpt>
      <trkpt lat="46.2825" lon="4.6389">
        <ele>698</ele>
        <time>2014-09-28T08:53:13Z</time>
      </trkpt>
      <trkpt lat="46.28248" lon="4.6389">
        <ele>698</ele>
        <time>2014-09-28T08:53:14Z</time>
      </trkpt>
      <trkpt lat="46.2824" lon="4.63891">
        <ele>699</ele>
        <time>2014-09-28T08:53:18Z</time>
      </trkpt>
      <trkpt lat="46.28238" lon="4.63891">
        <ele>699</ele>
        <time>2014-09-28T08:53:19Z</time>
      </trkpt>
      <trkpt lat="46.28229" lon="4.63892">
        <ele>699</ele>
        <time>2014-09-28T08:53:24Z</time>
      </trkpt>
      <trkpt lat="46.28228" lon="4.63892">
        <ele>699</ele>
        <time>2014-09-28T08:53:25Z</time>
      </trkpt>
      <trkpt lat="46.2822" lon="4.63892">
        <ele>699</ele>
        <time>2014-09-28T08:53:30Z</time>
      </trkpt>
      <trkpt lat="46.28218" lon="4.63893">
        <ele>699</ele>
        <time>2014-09-28T08:53:31Z</time>
      </trkpt>
      <trkpt lat="46.2821" lon="4.63897">
        <ele>700</ele>
        <time>2014-09-28T08:53:36Z</time>
      </trkpt>
      <trkpt lat="46.28208" lon="4.63896">
        <ele>700</ele>
        <time>2014-09-28T08:53:37Z</time>
      </trkpt>
      <trkpt lat="46.282" lon="4.63893">
        <ele>700</ele>
        <time>2014-09-28T08:53:42Z</time>
      </trkpt>
      <trkpt lat="46.28198" lon="4.63893">
        <ele>700</ele>
        <time>2014-09-28T08:53:43Z</time>
      </trkpt>
      <trkpt lat="46.28191" lon="4.63892">
        <ele>701</ele>
        <time>2014-09-28T08:53:47Z</time>
      </trkpt>
      <trkpt lat="46.28189" lon="4.63892">
        <ele>701</ele>
        <time>2014-09-28T08:53:48Z</time>
      </trkpt>
      <trkpt lat="46.28181" lon="4.63891">
        <ele>701</ele>
        <time>2014-09-28T08:53:52Z</time>
      </trkpt>
      <trkpt lat="46.28179" lon="4.63891">
        <ele>701</ele>
        <time>2014-09-28T08:53:53Z</time>
      </trkpt>
      <trkpt lat="46.28172" lon="4.63891">
        <ele>701</ele>
        <time>2014-09-28T08:53:57Z</time>
      </trkpt>
      <trkpt lat="46.2817" lon="4.63891">
        <ele>701</ele>
        <time>2014-09-28T08:53:58Z</time>
      </trkpt>
      <trkpt lat="46.28161" lon="4.63888">
        <ele>703</ele>
        <time>2014-09-28T08:54:03Z</time>
      </trkpt>
      <trkpt lat="46.28159" lon="4.63888">
        <ele>703</ele>
        <time>2014-09-28T08:54:04Z</time>
      </trkpt>
      <trkpt lat="46.28152" lon="4.63887">
        <ele>703</ele>
        <time>2014-09-28T08:54:08Z</time>
      </trkpt>
      <trkpt lat="46.28149" lon="4.63888">
        <ele>703</ele>
        <time>2014-09-28T08:54:09Z</time>
      </trkpt>
      <trkpt lat="46.2814" lon="4.6389">
        <ele>703</ele>
        <time>2014-09-28T08:54:12Z</time>
      </trkpt>
      <trkpt lat="46.28137" lon="4.6389">
        <ele>703</ele>
        <time>2014-09-28T08:54:13Z</time>
      </trkpt>
      <trkpt lat="46.28129" lon="4.63889">
        <ele>703</ele>
        <time>2014-09-28T08:54:16Z</time>
      </trkpt>
      <trkpt lat="46.28126" lon="4.63889">
        <ele>703</ele>
        <time>2014-09-28T08:54:17Z</time>
      </trkpt>
      <trkpt lat="46.28118" lon="4.63889">
        <ele>703</ele>
        <time>2014-09-28T08:54:20Z</time>
      </trkpt>
      <trkpt lat="46.28116" lon="4.6389">
        <ele>703</ele>
        <time>2014-09-28T08:54:21Z</time>
      </trkpt>
      <trkpt lat="46.28108" lon="4.63891">
        <ele>704</ele>
        <time>2014-09-28T08:54:24Z</time>
      </trkpt>
      <trkpt lat="46.28106" lon="4.63891">
        <ele>704</ele>
        <time>2014-09-28T08:54:25Z</time>
      </trkpt>
      <trkpt lat="46.28098" lon="4.63893">
        <ele>704</ele>
        <time>2014-09-28T08:54:28Z</time>
      </trkpt>
      <trkpt lat="46.28095" lon="4.63894">
        <ele>704</ele>
        <time>2014-09-28T08:54:29Z</time>
      </trkpt>
      <trkpt lat="46.28087" lon="4.63897">
        <ele>705</ele>
        <time>2014-09-28T08:54:32Z</time>
      </trkpt>
      <trkpt lat="46.28084" lon="4.63898">
        <ele>705</ele>
        <time>2014-09-28T08:54:33Z</time>
      </trkpt>
      <trkpt lat="46.28075" lon="4.63901">
        <ele>704</ele>
        <time>2014-09-28T08:54:36Z</time>
      </trkpt>
      <trkpt lat="46.28072" lon="4.63901">
        <ele>704</ele>
        <time>2014-09-28T08:54:37Z</time>
      </trkpt>
      <trkpt lat="46.28065" lon="4.63901">
        <ele>703</ele>
        <time>2014-09-28T08:54:39Z</time>
      </trkpt>
      <trkpt lat="46.28062" lon="4.63903">
        <ele>703</ele>
        <time>2014-09-28T08:54:40Z</time>
      </trkpt>
      <trkpt lat="46.28054" lon="4.63907">
        <ele>703</ele>
        <time>2014-09-28T08:54:42Z</time>
      </trkpt>
      <trkpt lat="46.2805" lon="4.63909">
        <ele>703</ele>
        <time>2014-09-28T08:54:43Z</time>
      </trkpt>
      <trkpt lat="46.28046" lon="4.63911">
        <ele>703</ele>
        <time>2014-09-28T08:54:44Z</time>
      </trkpt>
      <trkpt lat="46.28041" lon="4.63913">
        <ele>703</ele>
        <time>2014-09-28T08:54:45Z</time>
      </trkpt>
      <trkpt lat="46.28037" lon="4.63916">
        <ele>703</ele>
        <time>2014-09-28T08:54:46Z</time>
      </trkpt>
      <trkpt lat="46.28032" lon="4.63919">
        <ele>704</ele>
        <time>2014-09-28T08:54:47Z</time>
      </trkpt>
      <trkpt lat="46.28028" lon="4.63922">
        <ele>704</ele>
        <time>2014-09-28T08:54:48Z</time>
      </trkpt>
      <trkpt lat="46.28023" lon="4.63924">
        <ele>704</ele>
        <time>2014-09-28T08:54:49Z</time>
      </trkpt>
      <trkpt lat="46.28019" lon="4.63926">
        <ele>704</ele>
        <time>2014-09-28T08:54:50Z</time>
      </trkpt>
      <trkpt lat="46.28014" lon="4.63926">
        <ele>704</ele>
        <time>2014-09-28T08:54:51Z</time>
      </trkpt>
      <trkpt lat="46.28005" lon="4.63927">
        <ele>704</ele>
        <time>2014-09-28T08:54:52Z</time>
      </trkpt>
      <trkpt lat="46.28" lon="4.63927">
        <ele>704</ele>
        <time>2014-09-28T08:54:53Z</time>
      </trkpt>
      <trkpt lat="46.27995" lon="4.63925">
        <ele>704</ele>
        <time>2014-09-28T08:54:55Z</time>
      </trkpt>
      <trkpt lat="46.2799" lon="4.63923">
        <ele>704</ele>
        <time>2014-09-28T08:54:56Z</time>
      </trkpt>
      <trkpt lat="46.27985" lon="4.63924">
        <ele>704</ele>
        <time>2014-09-28T08:54:57Z</time>
      </trkpt>
      <trkpt lat="46.27978" lon="4.63924">
        <ele>705</ele>
        <time>2014-09-28T08:54:58Z</time>
      </trkpt>
      <trkpt lat="46.2797" lon="4.63923">
        <ele>705</ele>
        <time>2014-09-28T08:55:00Z</time>
      </trkpt>
      <trkpt lat="46.27965" lon="4.63922">
        <ele>705</ele>
        <time>2014-09-28T08:55:01Z</time>
      </trkpt>
      <trkpt lat="46.27959" lon="4.63915">
        <ele>702</ele>
        <time>2014-09-28T08:55:04Z</time>
      </trkpt>
      <trkpt lat="46.27957" lon="4.63914">
        <ele>702</ele>
        <time>2014-09-28T08:55:05Z</time>
      </trkpt>
      <trkpt lat="46.27952" lon="4.63907">
        <ele>702</ele>
        <time>2014-09-28T08:55:08Z</time>
      </trkpt>
      <trkpt lat="46.27949" lon="4.63903">
        <ele>702</ele>
        <time>2014-09-28T08:55:09Z</time>
      </trkpt>
      <trkpt lat="46.27946" lon="4.63899">
        <ele>702</ele>
        <time>2014-09-28T08:55:10Z</time>
      </trkpt>
      <trkpt lat="46.27942" lon="4.63894">
        <ele>702</ele>
        <time>2014-09-28T08:55:11Z</time>
      </trkpt>
      <trkpt lat="46.27936" lon="4.63888">
        <ele>702</ele>
        <time>2014-09-28T08:55:13Z</time>
      </trkpt>
      <trkpt lat="46.27933" lon="4.63885">
        <ele>702</ele>
        <time>2014-09-28T08:55:14Z</time>
      </trkpt>
      <trkpt lat="46.27926" lon="4.6388">
        <ele>701</ele>
        <time>2014-09-28T08:55:16Z</time>
      </trkpt>
      <trkpt lat="46.27922" lon="4.63878">
        <ele>701</ele>
        <time>2014-09-28T08:55:17Z</time>
      </trkpt>
      <trkpt lat="46.27916" lon="4.63874">
        <ele>702</ele>
        <time>2014-09-28T08:55:19Z</time>
      </trkpt>
      <trkpt lat="46.27913" lon="4.63873">
        <ele>702</ele>
        <time>2014-09-28T08:55:20Z</time>
      </trkpt>
      <trkpt lat="46.27907" lon="4.63868">
        <ele>701</ele>
        <time>2014-09-28T08:55:22Z</time>
      </trkpt>
      <trkpt lat="46.27904" lon="4.63866">
        <ele>701</ele>
        <time>2014-09-28T08:55:23Z</time>
      </trkpt>
      <trkpt lat="46.27898" lon="4.63861">
        <ele>701</ele>
        <time>2014-09-28T08:55:25Z</time>
      </trkpt>
      <trkpt lat="46.27893" lon="4.63859">
        <ele>701</ele>
        <time>2014-09-28T08:55:26Z</time>
      </trkpt>
      <trkpt lat="46.27889" lon="4.63857">
        <ele>701</ele>
        <time>2014-09-28T08:55:27Z</time>
      </trkpt>
      <trkpt lat="46.27884" lon="4.63855">
        <ele>700</ele>
        <time>2014-09-28T08:55:28Z</time>
      </trkpt>
      <trkpt lat="46.27879" lon="4.63853">
        <ele>700</ele>
        <time>2014-09-28T08:55:29Z</time>
      </trkpt>
      <trkpt lat="46.27874" lon="4.63851">
        <ele>700</ele>
        <time>2014-09-28T08:55:30Z</time>
      </trkpt>
      <trkpt lat="46.27869" lon="4.63849">
        <ele>700</ele>
        <time>2014-09-28T08:55:31Z</time>
      </trkpt>
      <trkpt lat="46.27859" lon="4.6385">
        <ele>700</ele>
        <time>2014-09-28T08:55:32Z</time>
      </trkpt>
      <trkpt lat="46.27853" lon="4.63851">
        <ele>699</ele>
        <time>2014-09-28T08:55:33Z</time>
      </trkpt>
      <trkpt lat="46.27849" lon="4.63853">
        <ele>699</ele>
        <time>2014-09-28T08:55:34Z</time>
      </trkpt>
      <trkpt lat="46.27841" lon="4.63857">
        <ele>700</ele>
        <time>2014-09-28T08:55:36Z</time>
      </trkpt>
      <trkpt lat="46.27837" lon="4.63861">
        <ele>700</ele>
        <time>2014-09-28T08:55:37Z</time>
      </trkpt>
      <trkpt lat="46.27831" lon="4.63863">
        <ele>697</ele>
        <time>2014-09-28T08:55:39Z</time>
      </trkpt>
      <trkpt lat="46.27828" lon="4.63864">
        <ele>697</ele>
        <time>2014-09-28T08:55:40Z</time>
      </trkpt>
      <trkpt lat="46.27822" lon="4.63868">
        <ele>697</ele>
        <time>2014-09-28T08:55:42Z</time>
      </trkpt>
      <trkpt lat="46.27818" lon="4.63869">
        <ele>697</ele>
        <time>2014-09-28T08:55:43Z</time>
      </trkpt>
      <trkpt lat="46.27811" lon="4.63871">
        <ele>697</ele>
        <time>2014-09-28T08:55:45Z</time>
      </trkpt>
      <trkpt lat="46.27808" lon="4.63872">
        <ele>697</ele>
        <time>2014-09-28T08:55:46Z</time>
      </trkpt>
      <trkpt lat="46.27802" lon="4.63875">
        <ele>696</ele>
        <time>2014-09-28T08:55:48Z</time>
      </trkpt>
      <trkpt lat="46.27799" lon="4.63877">
        <ele>696</ele>
        <time>2014-09-28T08:55:49Z</time>
      </trkpt>
      <trkpt lat="46.27791" lon="4.63883">
        <ele>696</ele>
        <time>2014-09-28T08:55:52Z</time>
      </trkpt>
      <trkpt lat="46.27789" lon="4.63884">
        <ele>696</ele>
        <time>2014-09-28T08:55:53Z</time>
      </trkpt>
      <trkpt lat="46.27782" lon="4.6389">
        <ele>696</ele>
        <time>2014-09-28T08:56:00Z</time>
      </trkpt>
      <trkpt lat="46.27781" lon="4.63891">
        <ele>696</ele>
        <time>2014-09-28T08:56:01Z</time>
      </trkpt>
      <trkpt lat="46.27775" lon="4.63896">
        <ele>696</ele>
        <time>2014-09-28T08:56:04Z</time>
      </trkpt>
      <trkpt lat="46.27773" lon="4.63899">
        <ele>696</ele>
        <time>2014-09-28T08:56:05Z</time>
      </trkpt>
      <trkpt lat="46.27768" lon="4.63909">
        <ele>696</ele>
        <time>2014-09-28T08:56:07Z</time>
      </trkpt>
      <trkpt lat="46.27765" lon="4.63914">
        <ele>696</ele>
        <time>2014-09-28T08:56:08Z</time>
      </trkpt>
      <trkpt lat="46.27761" lon="4.63923">
        <ele>699</ele>
        <time>2014-09-28T08:56:09Z</time>
      </trkpt>
      <trkpt lat="46.27758" lon="4.63928">
        <ele>699</ele>
        <time>2014-09-28T08:56:10Z</time>
      </trkpt>
      <trkpt lat="46.27753" lon="4.63934">
        <ele>700</ele>
        <time>2014-09-28T08:56:11Z</time>
      </trkpt>
      <trkpt lat="46.27749" lon="4.63939">
        <ele>695</ele>
        <time>2014-09-28T08:56:12Z</time>
      </trkpt>
      <trkpt lat="46.27744" lon="4.63945">
        <ele>695</ele>
        <time>2014-09-28T08:56:13Z</time>
      </trkpt>
      <trkpt lat="46.27738" lon="4.63951">
        <ele>695</ele>
        <time>2014-09-28T08:56:14Z</time>
      </trkpt>
      <trkpt lat="46.27734" lon="4.63956">
        <ele>695</ele>
        <time>2014-09-28T08:56:15Z</time>
      </trkpt>
      <trkpt lat="46.27728" lon="4.63961">
        <ele>695</ele>
        <time>2014-09-28T08:56:16Z</time>
      </trkpt>
      <trkpt lat="46.27722" lon="4.63965">
        <ele>695</ele>
        <time>2014-09-28T08:56:17Z</time>
      </trkpt>
      <trkpt lat="46.27715" lon="4.63968">
        <ele>695</ele>
        <time>2014-09-28T08:56:18Z</time>
      </trkpt>
      <trkpt lat="46.27709" lon="4.63971">
        <ele>695</ele>
        <time>2014-09-28T08:56:19Z</time>
      </trkpt>
      <trkpt lat="46.27703" lon="4.63974">
        <ele>694</ele>
        <time>2014-09-28T08:56:20Z</time>
      </trkpt>
      <trkpt lat="46.27696" lon="4.63977">
        <ele>694</ele>
        <time>2014-09-28T08:56:21Z</time>
      </trkpt>
      <trkpt lat="46.2769" lon="4.6398">
        <ele>694</ele>
        <time>2014-09-28T08:56:22Z</time>
      </trkpt>
      <trkpt lat="46.27684" lon="4.63982">
        <ele>694</ele>
        <time>2014-09-28T08:56:23Z</time>
      </trkpt>
      <trkpt lat="46.27679" lon="4.63985">
        <ele>694</ele>
        <time>2014-09-28T08:56:24Z</time>
      </trkpt>
      <trkpt lat="46.27673" lon="4.63988">
        <ele>694</ele>
        <time>2014-09-28T08:56:25Z</time>
      </trkpt>
      <trkpt lat="46.27668" lon="4.6399">
        <ele>694</ele>
        <time>2014-09-28T08:56:26Z</time>
      </trkpt>
      <trkpt lat="46.27662" lon="4.63993">
        <ele>693</ele>
        <time>2014-09-28T08:56:27Z</time>
      </trkpt>
      <trkpt lat="46.27657" lon="4.63995">
        <ele>692</ele>
        <time>2014-09-28T08:56:28Z</time>
      </trkpt>
      <trkpt lat="46.27652" lon="4.63997">
        <ele>692</ele>
        <time>2014-09-28T08:56:29Z</time>
      </trkpt>
      <trkpt lat="46.27646" lon="4.63999">
        <ele>691</ele>
        <time>2014-09-28T08:56:30Z</time>
      </trkpt>
      <trkpt lat="46.27641" lon="4.63999">
        <ele>691</ele>
        <time>2014-09-28T08:56:31Z</time>
      </trkpt>
      <trkpt lat="46.27636" lon="4.64001">
        <ele>692</ele>
        <time>2014-09-28T08:56:32Z</time>
      </trkpt>
      <trkpt lat="46.2763" lon="4.64005">
        <ele>691</ele>
        <time>2014-09-28T08:56:33Z</time>
      </trkpt>
      <trkpt lat="46.27624" lon="4.64007">
        <ele>691</ele>
        <time>2014-09-28T08:56:34Z</time>
      </trkpt>
      <trkpt lat="46.27617" lon="4.64013">
        <ele>691</ele>
        <time>2014-09-28T08:56:36Z</time>
      </trkpt>
      <trkpt lat="46.27615" lon="4.64017">
        <ele>691</ele>
        <time>2014-09-28T08:56:37Z</time>
      </trkpt>
      <trkpt lat="46.27616" lon="4.64028">
        <ele>690</ele>
        <time>2014-09-28T08:56:39Z</time>
      </trkpt>
      <trkpt lat="46.27618" lon="4.64034">
        <ele>690</ele>
        <time>2014-09-28T08:56:40Z</time>
      </trkpt>
      <trkpt lat="46.27621" lon="4.6404">
        <ele>690</ele>
        <time>2014-09-28T08:56:41Z</time>
      </trkpt>
      <trkpt lat="46.27622" lon="4.64047">
        <ele>690</ele>
        <time>2014-09-28T08:56:42Z</time>
      </trkpt>
      <trkpt lat="46.27623" lon="4.64054">
        <ele>690</ele>
        <time>2014-09-28T08:56:43Z</time>
      </trkpt>
      <trkpt lat="46.27623" lon="4.64062">
        <ele>690</ele>
        <time>2014-09-28T08:56:44Z</time>
      </trkpt>
      <trkpt lat="46.27622" lon="4.64069">
        <ele>690</ele>
        <time>2014-09-28T08:56:45Z</time>
      </trkpt>
      <trkpt lat="46.27619" lon="4.64076">
        <ele>690</ele>
        <time>2014-09-28T08:56:46Z</time>
      </trkpt>
      <trkpt lat="46.27615" lon="4.64082">
        <ele>689</ele>
        <time>2014-09-28T08:56:47Z</time>
      </trkpt>
      <trkpt lat="46.27609" lon="4.64086">
        <ele>684</ele>
        <time>2014-09-28T08:56:48Z</time>
      </trkpt>
      <trkpt lat="46.27602" lon="4.64092">
        <ele>684</ele>
        <time>2014-09-28T08:56:49Z</time>
      </trkpt>
      <trkpt lat="46.27596" lon="4.64097">
        <ele>684</ele>
        <time>2014-09-28T08:56:50Z</time>
      </trkpt>
      <trkpt lat="46.27589" lon="4.64101">
        <ele>684</ele>
        <time>2014-09-28T08:56:51Z</time>
      </trkpt>
      <trkpt lat="46.27583" lon="4.64106">
        <ele>682</ele>
        <time>2014-09-28T08:56:52Z</time>
      </trkpt>
      <trkpt lat="46.27576" lon="4.64111">
        <ele>681</ele>
        <time>2014-09-28T08:56:53Z</time>
      </trkpt>
      <trkpt lat="46.27569" lon="4.64117">
        <ele>680</ele>
        <time>2014-09-28T08:56:54Z</time>
      </trkpt>
      <trkpt lat="46.27563" lon="4.64123">
        <ele>680</ele>
        <time>2014-09-28T08:56:55Z</time>
      </trkpt>
      <trkpt lat="46.27555" lon="4.64128">
        <ele>679</ele>
        <time>2014-09-28T08:56:56Z</time>
      </trkpt>
      <trkpt lat="46.27548" lon="4.64133">
        <ele>679</ele>
        <time>2014-09-28T08:56:57Z</time>
      </trkpt>
      <trkpt lat="46.2754" lon="4.64138">
        <ele>679</ele>
        <time>2014-09-28T08:56:58Z</time>
      </trkpt>
      <trkpt lat="46.27531" lon="4.64143">
        <ele>679</ele>
        <time>2014-09-28T08:56:59Z</time>
      </trkpt>
      <trkpt lat="46.27524" lon="4.64148">
        <ele>678</ele>
        <time>2014-09-28T08:57:00Z</time>
      </trkpt>
      <trkpt lat="46.27517" lon="4.64152">
        <ele>678</ele>
        <time>2014-09-28T08:57:01Z</time>
      </trkpt>
      <trkpt lat="46.27508" lon="4.64156">
        <ele>677</ele>
        <time>2014-09-28T08:57:02Z</time>
      </trkpt>
      <trkpt lat="46.27499" lon="4.6416">
        <ele>675</ele>
        <time>2014-09-28T08:57:03Z</time>
      </trkpt>
      <trkpt lat="46.27491" lon="4.64165">
        <ele>675</ele>
        <time>2014-09-28T08:57:04Z</time>
      </trkpt>
      <trkpt lat="46.27482" lon="4.64169">
        <ele>668</ele>
        <time>2014-09-28T08:57:05Z</time>
      </trkpt>
      <trkpt lat="46.27473" lon="4.64172">
        <ele>666</ele>
        <time>2014-09-28T08:57:06Z</time>
      </trkpt>
      <trkpt lat="46.27464" lon="4.64178">
        <ele>664</ele>
        <time>2014-09-28T08:57:07Z</time>
      </trkpt>
      <trkpt lat="46.27456" lon="4.6418">
        <ele>664</ele>
        <time>2014-09-28T08:57:08Z</time>
      </trkpt>
      <trkpt lat="46.27448" lon="4.64182">
        <ele>663</ele>
        <time>2014-09-28T08:57:09Z</time>
      </trkpt>
      <trkpt lat="46.27442" lon="4.64184">
        <ele>663</ele>
        <time>2014-09-28T08:57:10Z</time>
      </trkpt>
      <trkpt lat="46.27435" lon="4.64187">
        <ele>663</ele>
        <time>2014-09-28T08:57:11Z</time>
      </trkpt>
      <trkpt lat="46.27428" lon="4.64186">
        <ele>663</ele>
        <time>2014-09-28T08:57:12Z</time>
      </trkpt>
      <trkpt lat="46.2742" lon="4.64185">
        <ele>663</ele>
        <time>2014-09-28T08:57:13Z</time>
      </trkpt>
      <trkpt lat="46.27413" lon="4.6418">
        <ele>662</ele>
        <time>2014-09-28T08:57:14Z</time>
      </trkpt>
      <trkpt lat="46.27405" lon="4.64174">
        <ele>662</ele>
        <time>2014-09-28T08:57:15Z</time>
      </trkpt>
      <trkpt lat="46.27398" lon="4.64168">
        <ele>661</ele>
        <time>2014-09-28T08:57:16Z</time>
      </trkpt>
      <trkpt lat="46.2739" lon="4.64164">
        <ele>669</ele>
        <time>2014-09-28T08:57:17Z</time>
      </trkpt>
      <trkpt lat="46.27383" lon="4.64162">
        <ele>670</ele>
        <time>2014-09-28T08:57:18Z</time>
      </trkpt>
      <trkpt lat="46.27376" lon="4.64163">
        <ele>669</ele>
        <time>2014-09-28T08:57:19Z</time>
      </trkpt>
      <trkpt lat="46.27369" lon="4.64166">
        <ele>669</ele>
        <time>2014-09-28T08:57:20Z</time>
      </trkpt>
      <trkpt lat="46.27363" lon="4.64173">
        <ele>659</ele>
        <time>2014-09-28T08:57:21Z</time>
      </trkpt>
      <trkpt lat="46.27356" lon="4.64179">
        <ele>659</ele>
        <time>2014-09-28T08:57:22Z</time>
      </trkpt>
      <trkpt lat="46.27349" lon="4.64188">
        <ele>658</ele>
        <time>2014-09-28T08:57:23Z</time>
      </trkpt>
      <trkpt lat="46.27342" lon="4.64195">
        <ele>657</ele>
        <time>2014-09-28T08:57:24Z</time>
      </trkpt>
      <trkpt lat="46.27334" lon="4.64202">
        <ele>656</ele>
        <time>2014-09-28T08:57:25Z</time>
      </trkpt>
      <trkpt lat="46.27327" lon="4.64209">
        <ele>656</ele>
        <time>2014-09-28T08:57:26Z</time>
      </trkpt>
      <trkpt lat="46.27321" lon="4.64216">
        <ele>655</ele>
        <time>2014-09-28T08:57:27Z</time>
      </trkpt>
      <trkpt lat="46.27315" lon="4.64221">
        <ele>655</ele>
        <time>2014-09-28T08:57:28Z</time>
      </trkpt>
      <trkpt lat="46.27312" lon="4.64223">
        <ele>654</ele>
        <time>2014-09-28T08:57:29Z</time>
      </trkpt>
      <trkpt lat="46.27306" lon="4.64229">
        <ele>654</ele>
        <time>2014-09-28T08:57:35Z</time>
      </trkpt>
      <trkpt lat="46.27302" lon="4.64233">
        <ele>654</ele>
        <time>2014-09-28T08:57:36Z</time>
      </trkpt>
      <trkpt lat="46.27297" lon="4.64235">
        <ele>654</ele>
        <time>2014-09-28T08:57:37Z</time>
      </trkpt>
      <trkpt lat="46.27292" lon="4.64239">
        <ele>654</ele>
        <time>2014-09-28T08:57:38Z</time>
      </trkpt>
      <trkpt lat="46.27287" lon="4.64244">
        <ele>654</ele>
        <time>2014-09-28T08:57:39Z</time>
      </trkpt>
      <trkpt lat="46.27282" lon="4.64248">
        <ele>654</ele>
        <time>2014-09-28T08:57:40Z</time>
      </trkpt>
      <trkpt lat="46.27277" lon="4.64251">
        <ele>646</ele>
        <time>2014-09-28T08:57:41Z</time>
      </trkpt>
      <trkpt lat="46.27271" lon="4.64256">
        <ele>646</ele>
        <time>2014-09-28T08:57:42Z</time>
      </trkpt>
      <trkpt lat="46.27265" lon="4.6426">
        <ele>647</ele>
        <time>2014-09-28T08:57:43Z</time>
      </trkpt>
      <trkpt lat="46.27259" lon="4.64265">
        <ele>647</ele>
        <time>2014-09-28T08:57:44Z</time>
      </trkpt>
      <trkpt lat="46.27253" lon="4.6427">
        <ele>646</ele>
        <time>2014-09-28T08:57:45Z</time>
      </trkpt>
      <trkpt lat="46.27247" lon="4.64276">
        <ele>648</ele>
        <time>2014-09-28T08:57:46Z</time>
      </trkpt>
      <trkpt lat="46.27241" lon="4.64281">
        <ele>648</ele>
        <time>2014-09-28T08:57:47Z</time>
      </trkpt>
      <trkpt lat="46.27235" lon="4.64287">
        <ele>647</ele>
        <time>2014-09-28T08:57:48Z</time>
      </trkpt>
      <trkpt lat="46.27229" lon="4.64293">
        <ele>647</ele>
        <time>2014-09-28T08:57:49Z</time>
      </trkpt>
      <trkpt lat="46.27223" lon="4.64299">
        <ele>647</ele>
        <time>2014-09-28T08:57:50Z</time>
      </trkpt>
      <trkpt lat="46.27216" lon="4.64304">
        <ele>646</ele>
        <time>2014-09-28T08:57:51Z</time>
      </trkpt>
      <trkpt lat="46.27209" lon="4.64309">
        <ele>646</ele>
        <time>2014-09-28T08:57:52Z</time>
      </trkpt>
      <trkpt lat="46.27201" lon="4.64314">
        <ele>646</ele>
        <time>2014-09-28T08:57:53Z</time>
      </trkpt>
      <trkpt lat="46.27195" lon="4.64319">
        <ele>646</ele>
        <time>2014-09-28T08:57:54Z</time>
      </trkpt>
      <trkpt lat="46.27188" lon="4.64324">
        <ele>646</ele>
        <time>2014-09-28T08:57:55Z</time>
      </trkpt>
      <trkpt lat="46.27182" lon="4.64328">
        <ele>646</ele>
        <time>2014-09-28T08:57:56Z</time>
      </trkpt>
      <trkpt lat="46.27177" lon="4.64333">
        <ele>645</ele>
        <time>2014-09-28T08:57:57Z</time>
      </trkpt>
      <trkpt lat="46.2717" lon="4.64338">
        <ele>642</ele>
        <time>2014-09-28T08:57:58Z</time>
      </trkpt>
      <trkpt lat="46.27165" lon="4.64343">
        <ele>644</ele>
        <time>2014-09-28T08:57:59Z</time>
      </trkpt>
      <trkpt lat="46.2716" lon="4.64349">
        <ele>644</ele>
        <time>2014-09-28T08:58:00Z</time>
      </trkpt>
      <trkpt lat="46.27156" lon="4.64356">
        <ele>644</ele>
        <time>2014-09-28T08:58:01Z</time>
      </trkpt>
      <trkpt lat="46.27152" lon="4.64362">
        <ele>644</ele>
        <time>2014-09-28T08:58:02Z</time>
      </trkpt>
      <trkpt lat="46.27148" lon="4.64369">
        <ele>644</ele>
        <time>2014-09-28T08:58:03Z</time>
      </trkpt>
      <trkpt lat="46.27145" lon="4.64376">
        <ele>644</ele>
        <time>2014-09-28T08:58:04Z</time>
      </trkpt>
      <trkpt lat="46.27142" lon="4.64383">
        <ele>643</ele>
        <time>2014-09-28T08:58:05Z</time>
      </trkpt>
      <trkpt lat="46.27139" lon="4.64388">
        <ele>643</ele>
        <time>2014-09-28T08:58:06Z</time>
      </trkpt>
      <trkpt lat="46.27136" lon="4.64393">
        <ele>643</ele>
        <time>2014-09-28T08:58:07Z</time>
      </trkpt>
      <trkpt lat="46.27133" lon="4.64399">
        <ele>643</ele>
        <time>2014-09-28T08:58:08Z</time>
      </trkpt>
      <trkpt lat="46.2713" lon="4.64405">
        <ele>643</ele>
        <time>2014-09-28T08:58:09Z</time>
      </trkpt>
      <trkpt lat="46.27128" lon="4.64411">
        <ele>643</ele>
        <time>2014-09-28T08:58:10Z</time>
      </trkpt>
      <trkpt lat="46.27125" lon="4.64422">
        <ele>637</ele>
        <time>2014-09-28T08:58:12Z</time>
      </trkpt>
      <trkpt lat="46.27123" lon="4.64429">
        <ele>637</ele>
        <time>2014-09-28T08:58:13Z</time>
      </trkpt>
      <trkpt lat="46.27121" lon="4.64436">
        <ele>637</ele>
        <time>2014-09-28T08:58:14Z</time>
      </trkpt>
      <trkpt lat="46.27119" lon="4.64444">
        <ele>637</ele>
        <time>2014-09-28T08:58:15Z</time>
      </trkpt>
      <trkpt lat="46.27118" lon="4.64453">
        <ele>637</ele>
        <time>2014-09-28T08:58:16Z</time>
      </trkpt>
      <trkpt lat="46.27115" lon="4.6446">
        <ele>636</ele>
        <time>2014-09-28T08:58:17Z</time>
      </trkpt>
      <trkpt lat="46.27111" lon="4.64467">
        <ele>637</ele>
        <time>2014-09-28T08:58:18Z</time>
      </trkpt>
      <trkpt lat="46.27108" lon="4.64474">
        <ele>637</ele>
        <time>2014-09-28T08:58:19Z</time>
      </trkpt>
      <trkpt lat="46.27104" lon="4.64483">
        <ele>637</ele>
        <time>2014-09-28T08:58:20Z</time>
      </trkpt>
      <trkpt lat="46.271" lon="4.64491">
        <ele>638</ele>
        <time>2014-09-28T08:58:21Z</time>
      </trkpt>
      <trkpt lat="46.27096" lon="4.64498">
        <ele>639</ele>
        <time>2014-09-28T08:58:22Z</time>
      </trkpt>
      <trkpt lat="46.27093" lon="4.64504">
        <ele>636</ele>
        <time>2014-09-28T08:58:23Z</time>
      </trkpt>
      <trkpt lat="46.2709" lon="4.6451">
        <ele>635</ele>
        <time>2014-09-28T08:58:24Z</time>
      </trkpt>
      <trkpt lat="46.27086" lon="4.64517">
        <ele>633</ele>
        <time>2014-09-28T08:58:25Z</time>
      </trkpt>
      <trkpt lat="46.27083" lon="4.64524">
        <ele>642</ele>
        <time>2014-09-28T08:58:26Z</time>
      </trkpt>
      <trkpt lat="46.2708" lon="4.6453">
        <ele>642</ele>
        <time>2014-09-28T08:58:27Z</time>
      </trkpt>
      <trkpt lat="46.27075" lon="4.64537">
        <ele>642</ele>
        <time>2014-09-28T08:58:28Z</time>
      </trkpt>
      <trkpt lat="46.27071" lon="4.64545">
        <ele>641</ele>
        <time>2014-09-28T08:58:29Z</time>
      </trkpt>
      <trkpt lat="46.27069" lon="4.64552">
        <ele>641</ele>
        <time>2014-09-28T08:58:30Z</time>
      </trkpt>
      <trkpt lat="46.27065" lon="4.64561">
        <ele>640</ele>
        <time>2014-09-28T08:58:31Z</time>
      </trkpt>
      <trkpt lat="46.27063" lon="4.6457">
        <ele>639</ele>
        <time>2014-09-28T08:58:32Z</time>
      </trkpt>
      <trkpt lat="46.2706" lon="4.64577">
        <ele>639</ele>
        <time>2014-09-28T08:58:33Z</time>
      </trkpt>
      <trkpt lat="46.27058" lon="4.64585">
        <ele>630</ele>
        <time>2014-09-28T08:58:34Z</time>
      </trkpt>
      <trkpt lat="46.27055" lon="4.64593">
        <ele>630</ele>
        <time>2014-09-28T08:58:35Z</time>
      </trkpt>
      <trkpt lat="46.27052" lon="4.646">
        <ele>630</ele>
        <time>2014-09-28T08:58:36Z</time>
      </trkpt>
      <trkpt lat="46.27049" lon="4.64607">
        <ele>630</ele>
        <time>2014-09-28T08:58:37Z</time>
      </trkpt>
      <trkpt lat="46.27047" lon="4.64614">
        <ele>630</ele>
        <time>2014-09-28T08:58:38Z</time>
      </trkpt>
      <trkpt lat="46.27043" lon="4.64622">
        <ele>629</ele>
        <time>2014-09-28T08:58:39Z</time>
      </trkpt>
      <trkpt lat="46.27041" lon="4.64629">
        <ele>629</ele>
        <time>2014-09-28T08:58:40Z</time>
      </trkpt>
      <trkpt lat="46.27039" lon="4.64635">
        <ele>628</ele>
        <time>2014-09-28T08:58:41Z</time>
      </trkpt>
      <trkpt lat="46.27038" lon="4.64642">
        <ele>628</ele>
        <time>2014-09-28T08:58:42Z</time>
      </trkpt>
      <trkpt lat="46.27038" lon="4.64649">
        <ele>627</ele>
        <time>2014-09-28T08:58:43Z</time>
      </trkpt>
      <trkpt lat="46.27036" lon="4.64656">
        <ele>627</ele>
        <time>2014-09-28T08:58:44Z</time>
      </trkpt>
      <trkpt lat="46.27032" lon="4.64663">
        <ele>627</ele>
        <time>2014-09-28T08:58:45Z</time>
      </trkpt>
      <trkpt lat="46.2703" lon="4.6467">
        <ele>619</ele>
        <time>2014-09-28T08:58:46Z</time>
      </trkpt>
      <trkpt lat="46.27027" lon="4.64678">
        <ele>619</ele>
        <time>2014-09-28T08:58:47Z</time>
      </trkpt>
      <trkpt lat="46.27025" lon="4.64684">
        <ele>618</ele>
        <time>2014-09-28T08:58:48Z</time>
      </trkpt>
      <trkpt lat="46.27023" lon="4.64693">
        <ele>618</ele>
        <time>2014-09-28T08:58:49Z</time>
      </trkpt>
      <trkpt lat="46.27021" lon="4.64703">
        <ele>617</ele>
        <time>2014-09-28T08:58:50Z</time>
      </trkpt>
      <trkpt lat="46.27018" lon="4.64712">
        <ele>616</ele>
        <time>2014-09-28T08:58:51Z</time>
      </trkpt>
      <trkpt lat="46.27016" lon="4.6472">
        <ele>615</ele>
        <time>2014-09-28T08:58:52Z</time>
      </trkpt>
      <trkpt lat="46.27013" lon="4.64725">
        <ele>615</ele>
        <time>2014-09-28T08:58:53Z</time>
      </trkpt>
      <trkpt lat="46.2701" lon="4.64732">
        <ele>615</ele>
        <time>2014-09-28T08:58:54Z</time>
      </trkpt>
      <trkpt lat="46.27007" lon="4.64738">
        <ele>615</ele>
        <time>2014-09-28T08:58:55Z</time>
      </trkpt>
      <trkpt lat="46.27004" lon="4.64746">
        <ele>615</ele>
        <time>2014-09-28T08:58:56Z</time>
      </trkpt>
      <trkpt lat="46.27002" lon="4.64753">
        <ele>613</ele>
        <time>2014-09-28T08:58:57Z</time>
      </trkpt>
      <trkpt lat="46.27" lon="4.6476">
        <ele>612</ele>
        <time>2014-09-28T08:58:58Z</time>
      </trkpt>
      <trkpt lat="46.26998" lon="4.64767">
        <ele>611</ele>
        <time>2014-09-28T08:58:59Z</time>
      </trkpt>
      <trkpt lat="46.26997" lon="4.64776">
        <ele>609</ele>
        <time>2014-09-28T08:59:00Z</time>
      </trkpt>
      <trkpt lat="46.26995" lon="4.64784">
        <ele>608</ele>
        <time>2014-09-28T08:59:01Z</time>
      </trkpt>
      <trkpt lat="46.26993" lon="4.64793">
        <ele>607</ele>
        <time>2014-09-28T08:59:03Z</time>
      </trkpt>
      <trkpt lat="46.26993" lon="4.64799">
        <ele>606</ele>
        <time>2014-09-28T08:59:04Z</time>
      </trkpt>
      <trkpt lat="46.26991" lon="4.64807">
        <ele>605</ele>
        <time>2014-09-28T08:59:07Z</time>
      </trkpt>
      <trkpt lat="46.2699" lon="4.64812">
        <ele>605</ele>
        <time>2014-09-28T08:59:08Z</time>
      </trkpt>
      <trkpt lat="46.26985" lon="4.64822">
        <ele>604</ele>
        <time>2014-09-28T08:59:10Z</time>
      </trkpt>
      <trkpt lat="46.26982" lon="4.64826">
        <ele>604</ele>
        <time>2014-09-28T08:59:11Z</time>
      </trkpt>
      <trkpt lat="46.26975" lon="4.64833">
        <ele>604</ele>
        <time>2014-09-28T08:59:13Z</time>
      </trkpt>
      <trkpt lat="46.26972" lon="4.64836">
        <ele>601</ele>
        <time>2014-09-28T08:59:14Z</time>
      </trkpt>
      <trkpt lat="46.26969" lon="4.64847">
        <ele>601</ele>
        <time>2014-09-28T08:59:17Z</time>
      </trkpt>
      <trkpt lat="46.26971" lon="4.64849">
        <ele>601</ele>
        <time>2014-09-28T08:59:18Z</time>
      </trkpt>
      <trkpt lat="46.26979" lon="4.64854">
        <ele>601</ele>
        <time>2014-09-28T08:59:21Z</time>
      </trkpt>
      <trkpt lat="46.26981" lon="4.64855">
        <ele>601</ele>
        <time>2014-09-28T08:59:22Z</time>
      </trkpt>
      <trkpt lat="46.26989" lon="4.64859">
        <ele>601</ele>
        <time>2014-09-28T08:59:25Z</time>
      </trkpt>
      <trkpt lat="46.26992" lon="4.64861">
        <ele>601</ele>
        <time>2014-09-28T08:59:26Z</time>
      </trkpt>
      <trkpt lat="46.27" lon="4.64866">
        <ele>596</ele>
        <time>2014-09-28T08:59:28Z</time>
      </trkpt>
      <trkpt lat="46.27004" lon="4.64868">
        <ele>596</ele>
        <time>2014-09-28T08:59:29Z</time>
      </trkpt>
      <trkpt lat="46.27009" lon="4.6487">
        <ele>596</ele>
        <time>2014-09-28T08:59:30Z</time>
      </trkpt>
      <trkpt lat="46.27013" lon="4.64873">
        <ele>596</ele>
        <time>2014-09-28T08:59:31Z</time>
      </trkpt>
      <trkpt lat="46.27021" lon="4.64879">
        <ele>595</ele>
        <time>2014-09-28T08:59:33Z</time>
      </trkpt>
      <trkpt lat="46.27025" lon="4.64882">
        <ele>595</ele>
        <time>2014-09-28T08:59:34Z</time>
      </trkpt>
      <trkpt lat="46.27031" lon="4.64887">
        <ele>594</ele>
        <time>2014-09-28T08:59:36Z</time>
      </trkpt>
      <trkpt lat="46.27034" lon="4.64889">
        <ele>594</ele>
        <time>2014-09-28T08:59:37Z</time>
      </trkpt>
      <trkpt lat="46.27041" lon="4.64891">
        <ele>593</ele>
        <time>2014-09-28T08:59:39Z</time>
      </trkpt>
      <trkpt lat="46.27045" lon="4.64892">
        <ele>592</ele>
        <time>2014-09-28T08:59:40Z</time>
      </trkpt>
      <trkpt lat="46.27053" lon="4.64894">
        <ele>591</ele>
        <time>2014-09-28T08:59:42Z</time>
      </trkpt>
      <trkpt lat="46.27057" lon="4.64894">
        <ele>591</ele>
        <time>2014-09-28T08:59:43Z</time>
      </trkpt>
      <trkpt lat="46.27065" lon="4.64894">
        <ele>590</ele>
        <time>2014-09-28T08:59:45Z</time>
      </trkpt>
      <trkpt lat="46.27069" lon="4.64894">
        <ele>589</ele>
        <time>2014-09-28T08:59:46Z</time>
      </trkpt>
      <trkpt lat="46.27074" lon="4.64894">
        <ele>589</ele>
        <time>2014-09-28T08:59:47Z</time>
      </trkpt>
      <trkpt lat="46.27079" lon="4.64896">
        <ele>588</ele>
        <time>2014-09-28T08:59:48Z</time>
      </trkpt>
      <trkpt lat="46.27086" lon="4.64896">
        <ele>579</ele>
        <time>2014-09-28T08:59:50Z</time>
      </trkpt>
      <trkpt lat="46.2709" lon="4.64898">
        <ele>579</ele>
        <time>2014-09-28T08:59:51Z</time>
      </trkpt>
      <trkpt lat="46.27097" lon="4.64899">
        <ele>578</ele>
        <time>2014-09-28T08:59:53Z</time>
      </trkpt>
      <trkpt lat="46.27101" lon="4.649">
        <ele>578</ele>
        <time>2014-09-28T08:59:54Z</time>
      </trkpt>
      <trkpt lat="46.27109" lon="4.64901">
        <ele>577</ele>
        <time>2014-09-28T08:59:56Z</time>
      </trkpt>
      <trkpt lat="46.27112" lon="4.64901">
        <ele>576</ele>
        <time>2014-09-28T08:59:57Z</time>
      </trkpt>
      <trkpt lat="46.2712" lon="4.64898">
        <ele>575</ele>
        <time>2014-09-28T09:00:00Z</time>
      </trkpt>
      <trkpt lat="46.27121" lon="4.64898">
        <ele>575</ele>
        <time>2014-09-28T09:00:01Z</time>
      </trkpt>
      <trkpt lat="46.27126" lon="4.64896">
        <ele>574</ele>
        <time>2014-09-28T09:00:04Z</time>
      </trkpt>
      <trkpt lat="46.2713" lon="4.64894">
        <ele>574</ele>
        <time>2014-09-28T09:00:05Z</time>
      </trkpt>
      <trkpt lat="46.27136" lon="4.64891">
        <ele>573</ele>
        <time>2014-09-28T09:00:07Z</time>
      </trkpt>
      <trkpt lat="46.27139" lon="4.6489">
        <ele>572</ele>
        <time>2014-09-28T09:00:08Z</time>
      </trkpt>
      <trkpt lat="46.27146" lon="4.64887">
        <ele>572</ele>
        <time>2014-09-28T09:00:11Z</time>
      </trkpt>
      <trkpt lat="46.27149" lon="4.64884">
        <ele>572</ele>
        <time>2014-09-28T09:00:12Z</time>
      </trkpt>
      <trkpt lat="46.27156" lon="4.64879">
        <ele>572</ele>
        <time>2014-09-28T09:00:15Z</time>
      </trkpt>
      <trkpt lat="46.27159" lon="4.64878">
        <ele>572</ele>
        <time>2014-09-28T09:00:16Z</time>
      </trkpt>
      <trkpt lat="46.27168" lon="4.64877">
        <ele>561</ele>
        <time>2014-09-28T09:00:19Z</time>
      </trkpt>
      <trkpt lat="46.2717" lon="4.64874">
        <ele>561</ele>
        <time>2014-09-28T09:00:20Z</time>
      </trkpt>
      <trkpt lat="46.27174" lon="4.64864">
        <ele>563</ele>
        <time>2014-09-28T09:00:23Z</time>
      </trkpt>
      <trkpt lat="46.27175" lon="4.64861">
        <ele>563</ele>
        <time>2014-09-28T09:00:24Z</time>
      </trkpt>
      <trkpt lat="46.27183" lon="4.64856">
        <ele>563</ele>
        <time>2014-09-28T09:00:45Z</time>
      </trkpt>
      <trkpt lat="46.27184" lon="4.64855">
        <ele>563</ele>
        <time>2014-09-28T09:00:46Z</time>
      </trkpt>
      <trkpt lat="46.27189" lon="4.64847">
        <ele>564</ele>
        <time>2014-09-28T09:00:50Z</time>
      </trkpt>
      <trkpt lat="46.27191" lon="4.64842">
        <ele>564</ele>
        <time>2014-09-28T09:00:51Z</time>
      </trkpt>
      <trkpt lat="46.27198" lon="4.64834">
        <ele>564</ele>
        <time>2014-09-28T09:00:53Z</time>
      </trkpt>
      <trkpt lat="46.27202" lon="4.64832">
        <ele>574</ele>
        <time>2014-09-28T09:00:54Z</time>
      </trkpt>
      <trkpt lat="46.27207" lon="4.64831">
        <ele>574</ele>
        <time>2014-09-28T09:00:55Z</time>
      </trkpt>
      <trkpt lat="46.27212" lon="4.64831">
        <ele>574</ele>
        <time>2014-09-28T09:00:56Z</time>
      </trkpt>
      <trkpt lat="46.27216" lon="4.64833">
        <ele>574</ele>
        <time>2014-09-28T09:00:57Z</time>
      </trkpt>
      <trkpt lat="46.2722" lon="4.64835">
        <ele>563</ele>
        <time>2014-09-28T09:00:58Z</time>
      </trkpt>
      <trkpt lat="46.27224" lon="4.64838">
        <ele>563</ele>
        <time>2014-09-28T09:00:59Z</time>
      </trkpt>
      <trkpt lat="46.27229" lon="4.6484">
        <ele>563</ele>
        <time>2014-09-28T09:01:00Z</time>
      </trkpt>
      <trkpt lat="46.27237" lon="4.64851">
        <ele>562</ele>
        <time>2014-09-28T09:01:01Z</time>
      </trkpt>
      <trkpt lat="46.27239" lon="4.64864">
        <ele>560</ele>
        <time>2014-09-28T09:01:02Z</time>
      </trkpt>
      <trkpt lat="46.27246" lon="4.6487">
        <ele>558</ele>
        <time>2014-09-28T09:01:03Z</time>
      </trkpt>
      <trkpt lat="46.27252" lon="4.64878">
        <ele>557</ele>
        <time>2014-09-28T09:01:04Z</time>
      </trkpt>
      <trkpt lat="46.27258" lon="4.64887">
        <ele>556</ele>
        <time>2014-09-28T09:01:05Z</time>
      </trkpt>
      <trkpt lat="46.27264" lon="4.64895">
        <ele>554</ele>
        <time>2014-09-28T09:01:06Z</time>
      </trkpt>
      <trkpt lat="46.27271" lon="4.64905">
        <ele>553</ele>
        <time>2014-09-28T09:01:07Z</time>
      </trkpt>
      <trkpt lat="46.27278" lon="4.64913">
        <ele>554</ele>
        <time>2014-09-28T09:01:08Z</time>
      </trkpt>
      <trkpt lat="46.27287" lon="4.6492">
        <ele>543</ele>
        <time>2014-09-28T09:01:09Z</time>
      </trkpt>
      <trkpt lat="46.27294" lon="4.64932">
        <ele>543</ele>
        <time>2014-09-28T09:01:10Z</time>
      </trkpt>
      <trkpt lat="46.27303" lon="4.64941">
        <ele>543</ele>
        <time>2014-09-28T09:01:11Z</time>
      </trkpt>
      <trkpt lat="46.27315" lon="4.64952">
        <ele>542</ele>
        <time>2014-09-28T09:01:12Z</time>
      </trkpt>
      <trkpt lat="46.27324" lon="4.64963">
        <ele>540</ele>
        <time>2014-09-28T09:01:13Z</time>
      </trkpt>
      <trkpt lat="46.27334" lon="4.64975">
        <ele>540</ele>
        <time>2014-09-28T09:01:14Z</time>
      </trkpt>
      <trkpt lat="46.27344" lon="4.64987">
        <ele>537</ele>
        <time>2014-09-28T09:01:15Z</time>
      </trkpt>
      <trkpt lat="46.27353" lon="4.65002">
        <ele>528</ele>
        <time>2014-09-28T09:01:16Z</time>
      </trkpt>
      <trkpt lat="46.2736" lon="4.65017">
        <ele>528</ele>
        <time>2014-09-28T09:01:17Z</time>
      </trkpt>
      <trkpt lat="46.27369" lon="4.65029">
        <ele>527</ele>
        <time>2014-09-28T09:01:18Z</time>
      </trkpt>
      <trkpt lat="46.27378" lon="4.65044">
        <ele>526</ele>
        <time>2014-09-28T09:01:19Z</time>
      </trkpt>
      <trkpt lat="46.27385" lon="4.65057">
        <ele>525</ele>
        <time>2014-09-28T09:01:20Z</time>
      </trkpt>
      <trkpt lat="46.27393" lon="4.65071">
        <ele>525</ele>
        <time>2014-09-28T09:01:21Z</time>
      </trkpt>
      <trkpt lat="46.27399" lon="4.65082">
        <ele>524</ele>
        <time>2014-09-28T09:01:22Z</time>
      </trkpt>
      <trkpt lat="46.27406" lon="4.65092">
        <ele>518</ele>
        <time>2014-09-28T09:01:23Z</time>
      </trkpt>
      <trkpt lat="46.27412" lon="4.65099">
        <ele>518</ele>
        <time>2014-09-28T09:01:24Z</time>
      </trkpt>
      <trkpt lat="46.27421" lon="4.65104">
        <ele>515</ele>
        <time>2014-09-28T09:01:25Z</time>
      </trkpt>
      <trkpt lat="46.27428" lon="4.65107">
        <ele>513</ele>
        <time>2014-09-28T09:01:26Z</time>
      </trkpt>
      <trkpt lat="46.27437" lon="4.65107">
        <ele>512</ele>
        <time>2014-09-28T09:01:27Z</time>
      </trkpt>
      <trkpt lat="46.27446" lon="4.65107">
        <ele>511</ele>
        <time>2014-09-28T09:01:28Z</time>
      </trkpt>
      <trkpt lat="46.27454" lon="4.65104">
        <ele>511</ele>
        <time>2014-09-28T09:01:29Z</time>
      </trkpt>
      <trkpt lat="46.27461" lon="4.65098">
        <ele>510</ele>
        <time>2014-09-28T09:01:30Z</time>
      </trkpt>
      <trkpt lat="46.27467" lon="4.65092">
        <ele>510</ele>
        <time>2014-09-28T09:01:31Z</time>
      </trkpt>
      <trkpt lat="46.27473" lon="4.65085">
        <ele>510</ele>
        <time>2014-09-28T09:01:32Z</time>
      </trkpt>
      <trkpt lat="46.27477" lon="4.65079">
        <ele>517</ele>
        <time>2014-09-28T09:01:33Z</time>
      </trkpt>
      <trkpt lat="46.27481" lon="4.65075">
        <ele>517</ele>
        <time>2014-09-28T09:01:34Z</time>
      </trkpt>
      <trkpt lat="46.27486" lon="4.65065">
        <ele>517</ele>
        <time>2014-09-28T09:01:36Z</time>
      </trkpt>
      <trkpt lat="46.27489" lon="4.6506">
        <ele>517</ele>
        <time>2014-09-28T09:01:37Z</time>
      </trkpt>
      <trkpt lat="46.27491" lon="4.65054">
        <ele>518</ele>
        <time>2014-09-28T09:01:38Z</time>
      </trkpt>
      <trkpt lat="46.27493" lon="4.65047">
        <ele>519</ele>
        <time>2014-09-28T09:01:39Z</time>
      </trkpt>
      <trkpt lat="46.27494" lon="4.65041">
        <ele>519</ele>
        <time>2014-09-28T09:01:40Z</time>
      </trkpt>
      <trkpt lat="46.27495" lon="4.65034">
        <ele>519</ele>
        <time>2014-09-28T09:01:41Z</time>
      </trkpt>
      <trkpt lat="46.27496" lon="4.65028">
        <ele>519</ele>
        <time>2014-09-28T09:01:42Z</time>
      </trkpt>
      <trkpt lat="46.27497" lon="4.6502">
        <ele>519</ele>
        <time>2014-09-28T09:01:43Z</time>
      </trkpt>
      <trkpt lat="46.27501" lon="4.65008">
        <ele>511</ele>
        <time>2014-09-28T09:01:46Z</time>
      </trkpt>
      <trkpt lat="46.27502" lon="4.65007">
        <ele>512</ele>
        <time>2014-09-28T09:01:47Z</time>
      </trkpt>
      <trkpt lat="46.27506" lon="4.65017">
        <ele>508</ele>
        <time>2014-09-28T09:02:01Z</time>
      </trkpt>
      <trkpt lat="46.27507" lon="4.65022">
        <ele>507</ele>
        <time>2014-09-28T09:02:02Z</time>
      </trkpt>
      <trkpt lat="46.27511" lon="4.65034">
        <ele>505</ele>
        <time>2014-09-28T09:02:05Z</time>
      </trkpt>
      <trkpt lat="46.27512" lon="4.65037">
        <ele>504</ele>
        <time>2014-09-28T09:02:06Z</time>
      </trkpt>
      <trkpt lat="46.27513" lon="4.65046">
        <ele>504</ele>
        <time>2014-09-28T09:02:08Z</time>
      </trkpt>
      <trkpt lat="46.27513" lon="4.65052">
        <ele>504</ele>
        <time>2014-09-28T09:02:09Z</time>
      </trkpt>
      <trkpt lat="46.27513" lon="4.65064">
        <ele>504</ele>
        <time>2014-09-28T09:02:11Z</time>
      </trkpt>
      <trkpt lat="46.27513" lon="4.6507">
        <ele>505</ele>
        <time>2014-09-28T09:02:12Z</time>
      </trkpt>
      <trkpt lat="46.27513" lon="4.6508">
        <ele>506</ele>
        <time>2014-09-28T09:02:14Z</time>
      </trkpt>
      <trkpt lat="46.27512" lon="4.65085">
        <ele>503</ele>
        <time>2014-09-28T09:02:15Z</time>
      </trkpt>
      <trkpt lat="46.27509" lon="4.65096">
        <ele>502</ele>
        <time>2014-09-28T09:02:18Z</time>
      </trkpt>
      <trkpt lat="46.27507" lon="4.65099">
        <ele>501</ele>
        <time>2014-09-28T09:02:19Z</time>
      </trkpt>
      <trkpt lat="46.27503" lon="4.65109">
        <ele>499</ele>
        <time>2014-09-28T09:02:22Z</time>
      </trkpt>
      <trkpt lat="46.27502" lon="4.65112">
        <ele>498</ele>
        <time>2014-09-28T09:02:23Z</time>
      </trkpt>
      <trkpt lat="46.27499" lon="4.6512">
        <ele>506</ele>
        <time>2014-09-28T09:02:25Z</time>
      </trkpt>
      <trkpt lat="46.27498" lon="4.65124">
        <ele>506</ele>
        <time>2014-09-28T09:02:26Z</time>
      </trkpt>
      <trkpt lat="46.27493" lon="4.65132">
        <ele>505</ele>
        <time>2014-09-28T09:02:28Z</time>
      </trkpt>
      <trkpt lat="46.27491" lon="4.65136">
        <ele>504</ele>
        <time>2014-09-28T09:02:29Z</time>
      </trkpt>
      <trkpt lat="46.27484" lon="4.65142">
        <ele>504</ele>
        <time>2014-09-28T09:02:31Z</time>
      </trkpt>
      <trkpt lat="46.27481" lon="4.65146">
        <ele>504</ele>
        <time>2014-09-28T09:02:32Z</time>
      </trkpt>
      <trkpt lat="46.27476" lon="4.6515">
        <ele>504</ele>
        <time>2014-09-28T09:02:33Z</time>
      </trkpt>
      <trkpt lat="46.27472" lon="4.65153">
        <ele>504</ele>
        <time>2014-09-28T09:02:34Z</time>
      </trkpt>
      <trkpt lat="46.27464" lon="4.65157">
        <ele>505</ele>
        <time>2014-09-28T09:02:36Z</time>
      </trkpt>
      <trkpt lat="46.2746" lon="4.6516">
        <ele>505</ele>
        <time>2014-09-28T09:02:37Z</time>
      </trkpt>
      <trkpt lat="46.27456" lon="4.65163">
        <ele>505</ele>
        <time>2014-09-28T09:02:38Z</time>
      </trkpt>
      <trkpt lat="46.27452" lon="4.65167">
        <ele>492</ele>
        <time>2014-09-28T09:02:39Z</time>
      </trkpt>
      <trkpt lat="46.27444" lon="4.65174">
        <ele>493</ele>
        <time>2014-09-28T09:02:40Z</time>
      </trkpt>
      <trkpt lat="46.2744" lon="4.65182">
        <ele>493</ele>
        <time>2014-09-28T09:02:41Z</time>
      </trkpt>
      <trkpt lat="46.27435" lon="4.65188">
        <ele>492</ele>
        <time>2014-09-28T09:02:42Z</time>
      </trkpt>
      <trkpt lat="46.27432" lon="4.65194">
        <ele>492</ele>
        <time>2014-09-28T09:02:43Z</time>
      </trkpt>
      <trkpt lat="46.27427" lon="4.65197">
        <ele>491</ele>
        <time>2014-09-28T09:02:44Z</time>
      </trkpt>
      <trkpt lat="46.27421" lon="4.65202">
        <ele>490</ele>
        <time>2014-09-28T09:02:45Z</time>
      </trkpt>
      <trkpt lat="46.27417" lon="4.65207">
        <ele>490</ele>
        <time>2014-09-28T09:02:46Z</time>
      </trkpt>
      <trkpt lat="46.27414" lon="4.6521">
        <ele>496</ele>
        <time>2014-09-28T09:02:47Z</time>
      </trkpt>
      <trkpt lat="46.27409" lon="4.65214">
        <ele>496</ele>
        <time>2014-09-28T09:02:48Z</time>
      </trkpt>
      <trkpt lat="46.27405" lon="4.65221">
        <ele>495</ele>
        <time>2014-09-28T09:02:49Z</time>
      </trkpt>
      <trkpt lat="46.27402" lon="4.65223">
        <ele>494</ele>
        <time>2014-09-28T09:02:50Z</time>
      </trkpt>
      <trkpt lat="46.27399" lon="4.65228">
        <ele>494</ele>
        <time>2014-09-28T09:02:51Z</time>
      </trkpt>
      <trkpt lat="46.27396" lon="4.65234">
        <ele>493</ele>
        <time>2014-09-28T09:02:52Z</time>
      </trkpt>
      <trkpt lat="46.27392" lon="4.6524">
        <ele>493</ele>
        <time>2014-09-28T09:02:54Z</time>
      </trkpt>
      <trkpt lat="46.27388" lon="4.65243">
        <ele>493</ele>
        <time>2014-09-28T09:02:55Z</time>
      </trkpt>
      <trkpt lat="46.27382" lon="4.65248">
        <ele>494</ele>
        <time>2014-09-28T09:02:57Z</time>
      </trkpt>
      <trkpt lat="46.27378" lon="4.65253">
        <ele>482</ele>
        <time>2014-09-28T09:02:58Z</time>
      </trkpt>
      <trkpt lat="46.27375" lon="4.65257">
        <ele>482</ele>
        <time>2014-09-28T09:02:59Z</time>
      </trkpt>
      <trkpt lat="46.27372" lon="4.65264">
        <ele>481</ele>
        <time>2014-09-28T09:03:00Z</time>
      </trkpt>
      <trkpt lat="46.27369" lon="4.65271">
        <ele>481</ele>
        <time>2014-09-28T09:03:01Z</time>
      </trkpt>
      <trkpt lat="46.27367" lon="4.65277">
        <ele>480</ele>
        <time>2014-09-28T09:03:02Z</time>
      </trkpt>
      <trkpt lat="46.27365" lon="4.65283">
        <ele>480</ele>
        <time>2014-09-28T09:03:03Z</time>
      </trkpt>
      <trkpt lat="46.27362" lon="4.65288">
        <ele>479</ele>
        <time>2014-09-28T09:03:04Z</time>
      </trkpt>
      <trkpt lat="46.27357" lon="4.65296">
        <ele>478</ele>
        <time>2014-09-28T09:03:06Z</time>
      </trkpt>
      <trkpt lat="46.27356" lon="4.65298">
        <ele>478</ele>
        <time>2014-09-28T09:03:07Z</time>
      </trkpt>
      <trkpt lat="46.27351" lon="4.65305">
        <ele>478</ele>
        <time>2014-09-28T09:03:10Z</time>
      </trkpt>
      <trkpt lat="46.2735" lon="4.65308">
        <ele>477</ele>
        <time>2014-09-28T09:03:11Z</time>
      </trkpt>
      <trkpt lat="46.27347" lon="4.65319">
        <ele>476</ele>
        <time>2014-09-28T09:03:14Z</time>
      </trkpt>
      <trkpt lat="46.27346" lon="4.65323">
        <ele>476</ele>
        <time>2014-09-28T09:03:15Z</time>
      </trkpt>
      <trkpt lat="46.27341" lon="4.65333">
        <ele>475</ele>
        <time>2014-09-28T09:03:18Z</time>
      </trkpt>
      <trkpt lat="46.2734" lon="4.65335">
        <ele>471</ele>
        <time>2014-09-28T09:03:19Z</time>
      </trkpt>
      <trkpt lat="46.27332" lon="4.65337">
        <ele>474</ele>
        <time>2014-09-28T09:03:23Z</time>
      </trkpt>
      <trkpt lat="46.27331" lon="4.65336">
        <ele>474</ele>
        <time>2014-09-28T09:03:24Z</time>
      </trkpt>
      <trkpt lat="46.27325" lon="4.65345">
        <ele>475</ele>
        <time>2014-09-28T09:04:07Z</time>
      </trkpt>
      <trkpt lat="46.27325" lon="4.65348">
        <ele>475</ele>
        <time>2014-09-28T09:04:08Z</time>
      </trkpt>
      <trkpt lat="46.27321" lon="4.6536">
        <ele>474</ele>
        <time>2014-09-28T09:04:12Z</time>
      </trkpt>
      <trkpt lat="46.2732" lon="4.65363">
        <ele>474</ele>
        <time>2014-09-28T09:04:13Z</time>
      </trkpt>
      <trkpt lat="46.27315" lon="4.65372">
        <ele>474</ele>
        <time>2014-09-28T09:04:16Z</time>
      </trkpt>
      <trkpt lat="46.27314" lon="4.65374">
        <ele>473</ele>
        <time>2014-09-28T09:04:17Z</time>
      </trkpt>
      <trkpt lat="46.27309" lon="4.65385">
        <ele>472</ele>
        <time>2014-09-28T09:04:21Z</time>
      </trkpt>
      <trkpt lat="46.27308" lon="4.65387">
        <ele>472</ele>
        <time>2014-09-28T09:04:22Z</time>
      </trkpt>
      <trkpt lat="46.27305" lon="4.65396">
        <ele>471</ele>
        <time>2014-09-28T09:04:38Z</time>
      </trkpt>
      <trkpt lat="46.27303" lon="4.65398">
        <ele>471</ele>
        <time>2014-09-28T09:04:39Z</time>
      </trkpt>
      <trkpt lat="46.27295" lon="4.65403">
        <ele>472</ele>
        <time>2014-09-28T09:04:42Z</time>
      </trkpt>
      <trkpt lat="46.27293" lon="4.65403">
        <ele>472</ele>
        <time>2014-09-28T09:04:43Z</time>
      </trkpt>
      <trkpt lat="46.27285" lon="4.65404">
        <ele>473</ele>
        <time>2014-09-28T09:04:47Z</time>
      </trkpt>
      <trkpt lat="46.27284" lon="4.65405">
        <ele>473</ele>
        <time>2014-09-28T09:04:48Z</time>
      </trkpt>
      <trkpt lat="46.27276" lon="4.65409">
        <ele>473</ele>
        <time>2014-09-28T09:04:53Z</time>
      </trkpt>
      <trkpt lat="46.27274" lon="4.65411">
        <ele>473</ele>
        <time>2014-09-28T09:04:54Z</time>
      </trkpt>
      <trkpt lat="46.27267" lon="4.65417">
        <ele>468</ele>
        <time>2014-09-28T09:04:58Z</time>
      </trkpt>
      <trkpt lat="46.27265" lon="4.65419">
        <ele>468</ele>
        <time>2014-09-28T09:04:59Z</time>
      </trkpt>
      <trkpt lat="46.27261" lon="4.65429">
        <ele>468</ele>
        <time>2014-09-28T09:05:03Z</time>
      </trkpt>
      <trkpt lat="46.27261" lon="4.65432">
        <ele>468</ele>
        <time>2014-09-28T09:05:04Z</time>
      </trkpt>
      <trkpt lat="46.27267" lon="4.65439">
        <ele>467</ele>
        <time>2014-09-28T09:05:08Z</time>
      </trkpt>
      <trkpt lat="46.27269" lon="4.65441">
        <ele>467</ele>
        <time>2014-09-28T09:05:09Z</time>
      </trkpt>
      <trkpt lat="46.27274" lon="4.65451">
        <ele>467</ele>
        <time>2014-09-28T09:05:16Z</time>
      </trkpt>
      <trkpt lat="46.27275" lon="4.65452">
        <ele>467</ele>
        <time>2014-09-28T09:05:17Z</time>
      </trkpt>
      <trkpt lat="46.27271" lon="4.65463">
        <ele>467</ele>
        <time>2014-09-28T09:05:33Z</time>
      </trkpt>
      <trkpt lat="46.2727" lon="4.65463">
        <ele>467</ele>
        <time>2014-09-28T09:05:34Z</time>
      </trkpt>
      <trkpt lat="46.27263" lon="4.65469">
        <ele>468</ele>
        <time>2014-09-28T09:05:41Z</time>
      </trkpt>
      <trkpt lat="46.27262" lon="4.6547">
        <ele>468</ele>
        <time>2014-09-28T09:05:42Z</time>
      </trkpt>
      <trkpt lat="46.27254" lon="4.65477">
        <ele>468</ele>
        <time>2014-09-28T09:05:52Z</time>
      </trkpt>
      <trkpt lat="46.27254" lon="4.65477">
        <ele>468</ele>
        <time>2014-09-28T09:05:53Z</time>
      </trkpt>
      <trkpt lat="46.27245" lon="4.65477">
        <ele>472</ele>
        <time>2014-09-28T09:06:02Z</time>
      </trkpt>
      <trkpt lat="46.27243" lon="4.65478">
        <ele>472</ele>
        <time>2014-09-28T09:06:03Z</time>
      </trkpt>
      <trkpt lat="46.27238" lon="4.65486">
        <ele>472</ele>
        <time>2014-09-28T09:06:09Z</time>
      </trkpt>
      <trkpt lat="46.27237" lon="4.65487">
        <ele>472</ele>
        <time>2014-09-28T09:06:10Z</time>
      </trkpt>
      <trkpt lat="46.27229" lon="4.65492">
        <ele>472</ele>
        <time>2014-09-28T09:06:17Z</time>
      </trkpt>
      <trkpt lat="46.27227" lon="4.65493">
        <ele>472</ele>
        <time>2014-09-28T09:06:18Z</time>
      </trkpt>
      <trkpt lat="46.2722" lon="4.65497">
        <ele>473</ele>
        <time>2014-09-28T09:06:24Z</time>
      </trkpt>
      <trkpt lat="46.27219" lon="4.65498">
        <ele>473</ele>
        <time>2014-09-28T09:06:25Z</time>
      </trkpt>
      <trkpt lat="46.27211" lon="4.65503">
        <ele>477</ele>
        <time>2014-09-28T09:06:32Z</time>
      </trkpt>
      <trkpt lat="46.27209" lon="4.65504">
        <ele>478</ele>
        <time>2014-09-28T09:06:33Z</time>
      </trkpt>
      <trkpt lat="46.27202" lon="4.65512">
        <ele>478</ele>
        <time>2014-09-28T09:06:44Z</time>
      </trkpt>
      <trkpt lat="46.272" lon="4.65513">
        <ele>478</ele>
        <time>2014-09-28T09:06:45Z</time>
      </trkpt>
      <trkpt lat="46.27193" lon="4.6552">
        <ele>479</ele>
        <time>2014-09-28T09:06:50Z</time>
      </trkpt>
      <trkpt lat="46.27191" lon="4.65522">
        <ele>479</ele>
        <time>2014-09-28T09:06:51Z</time>
      </trkpt>
      <trkpt lat="46.27183" lon="4.65525">
        <ele>479</ele>
        <time>2014-09-28T09:06:56Z</time>
      </trkpt>
      <trkpt lat="46.27182" lon="4.65525">
        <ele>479</ele>
        <time>2014-09-28T09:06:57Z</time>
      </trkpt>
      <trkpt lat="46.27174" lon="4.65526">
        <ele>479</ele>
        <time>2014-09-28T09:07:01Z</time>
      </trkpt>
      <trkpt lat="46.27172" lon="4.65526">
        <ele>479</ele>
        <time>2014-09-28T09:07:02Z</time>
      </trkpt>
      <trkpt lat="46.27165" lon="4.65528">
        <ele>480</ele>
        <time>2014-09-28T09:07:06Z</time>
      </trkpt>
      <trkpt lat="46.27163" lon="4.65528">
        <ele>480</ele>
        <time>2014-09-28T09:07:07Z</time>
      </trkpt>
      <trkpt lat="46.27155" lon="4.65531">
        <ele>481</ele>
        <time>2014-09-28T09:07:11Z</time>
      </trkpt>
      <trkpt lat="46.27153" lon="4.65532">
        <ele>481</ele>
        <time>2014-09-28T09:07:12Z</time>
      </trkpt>
      <trkpt lat="46.27146" lon="4.65535">
        <ele>481</ele>
        <time>2014-09-28T09:07:16Z</time>
      </trkpt>
      <trkpt lat="46.27144" lon="4.65536">
        <ele>481</ele>
        <time>2014-09-28T09:07:17Z</time>
      </trkpt>
      <trkpt lat="46.27137" lon="4.65539">
        <ele>482</ele>
        <time>2014-09-28T09:07:21Z</time>
      </trkpt>
      <trkpt lat="46.27135" lon="4.6554">
        <ele>482</ele>
        <time>2014-09-28T09:07:22Z</time>
      </trkpt>
      <trkpt lat="46.27127" lon="4.65542">
        <ele>482</ele>
        <time>2014-09-28T09:07:26Z</time>
      </trkpt>
      <trkpt lat="46.27125" lon="4.65543">
        <ele>482</ele>
        <time>2014-09-28T09:07:27Z</time>
      </trkpt>
      <trkpt lat="46.27118" lon="4.65546">
        <ele>482</ele>
        <time>2014-09-28T09:07:32Z</time>
      </trkpt>
      <trkpt lat="46.27116" lon="4.65547">
        <ele>482</ele>
        <time>2014-09-28T09:07:33Z</time>
      </trkpt>
      <trkpt lat="46.27109" lon="4.6555">
        <ele>483</ele>
        <time>2014-09-28T09:07:37Z</time>
      </trkpt>
      <trkpt lat="46.27107" lon="4.65551">
        <ele>483</ele>
        <time>2014-09-28T09:07:38Z</time>
      </trkpt>
      <trkpt lat="46.27098" lon="4.65555">
        <ele>483</ele>
        <time>2014-09-28T09:07:42Z</time>
      </trkpt>
      <trkpt lat="46.27097" lon="4.65557">
        <ele>484</ele>
        <time>2014-09-28T09:07:43Z</time>
      </trkpt>
      <trkpt lat="46.27103" lon="4.65565">
        <ele>484</ele>
        <time>2014-09-28T09:07:48Z</time>
      </trkpt>
      <trkpt lat="46.27105" lon="4.65565">
        <ele>484</ele>
        <time>2014-09-28T09:07:49Z</time>
      </trkpt>
      <trkpt lat="46.27113" lon="4.65566">
        <ele>484</ele>
        <time>2014-09-28T09:07:56Z</time>
      </trkpt>
      <trkpt lat="46.27114" lon="4.65567">
        <ele>484</ele>
        <time>2014-09-28T09:07:57Z</time>
      </trkpt>
      <trkpt lat="46.2712" lon="4.65575">
        <ele>485</ele>
        <time>2014-09-28T09:08:03Z</time>
      </trkpt>
      <trkpt lat="46.27121" lon="4.65576">
        <ele>485</ele>
        <time>2014-09-28T09:08:04Z</time>
      </trkpt>
      <trkpt lat="46.27128" lon="4.65582">
        <ele>485</ele>
        <time>2014-09-28T09:08:09Z</time>
      </trkpt>
      <trkpt lat="46.27129" lon="4.65583">
        <ele>485</ele>
        <time>2014-09-28T09:08:10Z</time>
      </trkpt>
      <trkpt lat="46.27137" lon="4.65589">
        <ele>497</ele>
        <time>2014-09-28T09:08:16Z</time>
      </trkpt>
      <trkpt lat="46.27138" lon="4.65589">
        <ele>497</ele>
        <time>2014-09-28T09:08:17Z</time>
      </trkpt>
      <trkpt lat="46.27145" lon="4.65596">
        <ele>497</ele>
        <time>2014-09-28T09:08:23Z</time>
      </trkpt>
      <trkpt lat="46.27146" lon="4.65598">
        <ele>497</ele>
        <time>2014-09-28T09:08:24Z</time>
      </trkpt>
      <trkpt lat="46.27153" lon="4.65604">
        <ele>497</ele>
        <time>2014-09-28T09:08:29Z</time>
      </trkpt>
      <trkpt lat="46.27154" lon="4.65605">
        <ele>498</ele>
        <time>2014-09-28T09:08:30Z</time>
      </trkpt>
      <trkpt lat="46.27162" lon="4.6561">
        <ele>498</ele>
        <time>2014-09-28T09:08:36Z</time>
      </trkpt>
      <trkpt lat="46.27163" lon="4.65612">
        <ele>499</ele>
        <time>2014-09-28T09:08:37Z</time>
      </trkpt>
      <trkpt lat="46.27168" lon="4.65619">
        <ele>501</ele>
        <time>2014-09-28T09:08:43Z</time>
      </trkpt>
      <trkpt lat="46.2717" lon="4.6562">
        <ele>501</ele>
        <time>2014-09-28T09:08:44Z</time>
      </trkpt>
      <trkpt lat="46.27177" lon="4.65626">
        <ele>502</ele>
        <time>2014-09-28T09:08:50Z</time>
      </trkpt>
      <trkpt lat="46.27178" lon="4.65626">
        <ele>502</ele>
        <time>2014-09-28T09:08:51Z</time>
      </trkpt>
      <trkpt lat="46.27186" lon="4.65632">
        <ele>503</ele>
        <time>2014-09-28T09:08:58Z</time>
      </trkpt>
      <trkpt lat="46.27187" lon="4.65633">
        <ele>504</ele>
        <time>2014-09-28T09:08:59Z</time>
      </trkpt>
      <trkpt lat="46.27195" lon="4.65638">
        <ele>504</ele>
        <time>2014-09-28T09:09:05Z</time>
      </trkpt>
      <trkpt lat="46.27196" lon="4.65638">
        <ele>504</ele>
        <time>2014-09-28T09:09:06Z</time>
      </trkpt>
      <trkpt lat="46.27203" lon="4.65643">
        <ele>505</ele>
        <time>2014-09-28T09:09:12Z</time>
      </trkpt>
      <trkpt lat="46.27204" lon="4.65643">
        <ele>505</ele>
        <time>2014-09-28T09:09:13Z</time>
      </trkpt>
      <trkpt lat="46.27212" lon="4.65646">
        <ele>505</ele>
        <time>2014-09-28T09:09:19Z</time>
      </trkpt>
      <trkpt lat="46.27214" lon="4.65646">
        <ele>505</ele>
        <time>2014-09-28T09:09:20Z</time>
      </trkpt>
      <trkpt lat="46.27221" lon="4.65647">
        <ele>505</ele>
        <time>2014-09-28T09:09:22Z</time>
      </trkpt>
      <trkpt lat="46.27225" lon="4.65646">
        <ele>505</ele>
        <time>2014-09-28T09:09:23Z</time>
      </trkpt>
      <trkpt lat="46.27233" lon="4.65645">
        <ele>506</ele>
        <time>2014-09-28T09:09:25Z</time>
      </trkpt>
      <trkpt lat="46.27237" lon="4.65644">
        <ele>506</ele>
        <time>2014-09-28T09:09:26Z</time>
      </trkpt>
      <trkpt lat="46.27243" lon="4.65643">
        <ele>506</ele>
        <time>2014-09-28T09:09:28Z</time>
      </trkpt>
      <trkpt lat="46.27247" lon="4.65643">
        <ele>506</ele>
        <time>2014-09-28T09:09:29Z</time>
      </trkpt>
      <trkpt lat="46.27253" lon="4.65643">
        <ele>506</ele>
        <time>2014-09-28T09:09:31Z</time>
      </trkpt>
      <trkpt lat="46.27257" lon="4.65643">
        <ele>506</ele>
        <time>2014-09-28T09:09:32Z</time>
      </trkpt>
      <trkpt lat="46.27265" lon="4.65644">
        <ele>505</ele>
        <time>2014-09-28T09:09:34Z</time>
      </trkpt>
      <trkpt lat="46.27269" lon="4.65644">
        <ele>505</ele>
        <time>2014-09-28T09:09:35Z</time>
      </trkpt>
      <trkpt lat="46.27277" lon="4.65644">
        <ele>505</ele>
        <time>2014-09-28T09:09:37Z</time>
      </trkpt>
      <trkpt lat="46.27281" lon="4.65643">
        <ele>504</ele>
        <time>2014-09-28T09:09:38Z</time>
      </trkpt>
      <trkpt lat="46.27286" lon="4.65642">
        <ele>504</ele>
        <time>2014-09-28T09:09:39Z</time>
      </trkpt>
      <trkpt lat="46.27291" lon="4.65641">
        <ele>504</ele>
        <time>2014-09-28T09:09:40Z</time>
      </trkpt>
      <trkpt lat="46.27296" lon="4.65641">
        <ele>504</ele>
        <time>2014-09-28T09:09:41Z</time>
      </trkpt>
      <trkpt lat="46.27301" lon="4.6564">
        <ele>504</ele>
        <time>2014-09-28T09:09:42Z</time>
      </trkpt>
      <trkpt lat="46.27307" lon="4.6564">
        <ele>504</ele>
        <time>2014-09-28T09:09:43Z</time>
      </trkpt>
      <trkpt lat="46.27318" lon="4.65637">
        <ele>504</ele>
        <time>2014-09-28T09:09:44Z</time>
      </trkpt>
      <trkpt lat="46.27323" lon="4.65637">
        <ele>504</ele>
        <time>2014-09-28T09:09:45Z</time>
      </trkpt>
      <trkpt lat="46.2733" lon="4.65635">
        <ele>504</ele>
        <time>2014-09-28T09:09:46Z</time>
      </trkpt>
      <trkpt lat="46.27335" lon="4.65635">
        <ele>503</ele>
        <time>2014-09-28T09:09:47Z</time>
      </trkpt>
      <trkpt lat="46.2734" lon="4.65636">
        <ele>503</ele>
        <time>2014-09-28T09:09:48Z</time>
      </trkpt>
      <trkpt lat="46.27348" lon="4.65632">
        <ele>502</ele>
        <time>2014-09-28T09:09:50Z</time>
      </trkpt>
      <trkpt lat="46.27353" lon="4.65631">
        <ele>502</ele>
        <time>2014-09-28T09:09:51Z</time>
      </trkpt>
      <trkpt lat="46.2736" lon="4.65628">
        <ele>501</ele>
        <time>2014-09-28T09:09:52Z</time>
      </trkpt>
      <trkpt lat="46.27363" lon="4.65626">
        <ele>501</ele>
        <time>2014-09-28T09:09:53Z</time>
      </trkpt>
      <trkpt lat="46.27369" lon="4.65624">
        <ele>501</ele>
        <time>2014-09-28T09:09:54Z</time>
      </trkpt>
      <trkpt lat="46.27374" lon="4.65625">
        <ele>501</ele>
        <time>2014-09-28T09:09:55Z</time>
      </trkpt>
      <trkpt lat="46.27379" lon="4.65628">
        <ele>501</ele>
        <time>2014-09-28T09:09:56Z</time>
      </trkpt>
      <trkpt lat="46.27383" lon="4.65629">
        <ele>501</ele>
        <time>2014-09-28T09:09:57Z</time>
      </trkpt>
      <trkpt lat="46.27391" lon="4.6563">
        <ele>501</ele>
        <time>2014-09-28T09:09:59Z</time>
      </trkpt>
      <trkpt lat="46.27394" lon="4.65632">
        <ele>501</ele>
        <time>2014-09-28T09:10:00Z</time>
      </trkpt>
      <trkpt lat="46.27399" lon="4.65638">
        <ele>502</ele>
        <time>2014-09-28T09:10:02Z</time>
      </trkpt>
      <trkpt lat="46.27401" lon="4.65641">
        <ele>503</ele>
        <time>2014-09-28T09:10:03Z</time>
      </trkpt>
      <trkpt lat="46.27408" lon="4.65646">
        <ele>504</ele>
        <time>2014-09-28T09:10:06Z</time>
      </trkpt>
      <trkpt lat="46.2741" lon="4.65647">
        <ele>505</ele>
        <time>2014-09-28T09:10:07Z</time>
      </trkpt>
      <trkpt lat="46.27418" lon="4.65651">
        <ele>504</ele>
        <time>2014-09-28T09:10:11Z</time>
      </trkpt>
      <trkpt lat="46.2742" lon="4.65652">
        <ele>504</ele>
        <time>2014-09-28T09:10:12Z</time>
      </trkpt>
      <trkpt lat="46.27427" lon="4.65654">
        <ele>504</ele>
        <time>2014-09-28T09:10:16Z</time>
      </trkpt>
      <trkpt lat="46.27429" lon="4.65654">
        <ele>504</ele>
        <time>2014-09-28T09:10:17Z</time>
      </trkpt>
      <trkpt lat="46.27438" lon="4.65653">
        <ele>502</ele>
        <time>2014-09-28T09:10:21Z</time>
      </trkpt>
      <trkpt lat="46.2744" lon="4.65654">
        <ele>502</ele>
        <time>2014-09-28T09:10:22Z</time>
      </trkpt>
      <trkpt lat="46.27447" lon="4.6566">
        <ele>501</ele>
        <time>2014-09-28T09:10:27Z</time>
      </trkpt>
      <trkpt lat="46.27448" lon="4.65662">
        <ele>501</ele>
        <time>2014-09-28T09:10:28Z</time>
      </trkpt>
      <trkpt lat="46.27453" lon="4.6567">
        <ele>513</ele>
        <time>2014-09-28T09:10:32Z</time>
      </trkpt>
      <trkpt lat="46.27454" lon="4.65672">
        <ele>513</ele>
        <time>2014-09-28T09:10:33Z</time>
      </trkpt>
      <trkpt lat="46.27459" lon="4.65681">
        <ele>513</ele>
        <time>2014-09-28T09:10:38Z</time>
      </trkpt>
      <trkpt lat="46.2746" lon="4.65683">
        <ele>513</ele>
        <time>2014-09-28T09:10:39Z</time>
      </trkpt>
      <trkpt lat="46.27466" lon="4.65691">
        <ele>514</ele>
        <time>2014-09-28T09:10:44Z</time>
      </trkpt>
      <trkpt lat="46.27467" lon="4.65692">
        <ele>514</ele>
        <time>2014-09-28T09:10:45Z</time>
      </trkpt>
      <trkpt lat="46.27471" lon="4.65702">
        <ele>515</ele>
        <time>2014-09-28T09:10:50Z</time>
      </trkpt>
      <trkpt lat="46.27472" lon="4.65704">
        <ele>515</ele>
        <time>2014-09-28T09:10:51Z</time>
      </trkpt>
      <trkpt lat="46.27474" lon="4.65716">
        <ele>516</ele>
        <time>2014-09-28T09:10:57Z</time>
      </trkpt>
      <trkpt lat="46.27473" lon="4.65718">
        <ele>516</ele>
        <time>2014-09-28T09:10:58Z</time>
      </trkpt>
      <trkpt lat="46.27465" lon="4.65723">
        <ele>517</ele>
        <time>2014-09-28T09:11:04Z</time>
      </trkpt>
      <trkpt lat="46.27464" lon="4.65724">
        <ele>517</ele>
        <time>2014-09-28T09:11:05Z</time>
      </trkpt>
      <trkpt lat="46.27459" lon="4.65734">
        <ele>518</ele>
        <time>2014-09-28T09:11:11Z</time>
      </trkpt>
      <trkpt lat="46.27458" lon="4.65735">
        <ele>518</ele>
        <time>2014-09-28T09:11:12Z</time>
      </trkpt>
      <trkpt lat="46.2745" lon="4.65739">
        <ele>519</ele>
        <time>2014-09-28T09:11:19Z</time>
      </trkpt>
      <trkpt lat="46.27448" lon="4.6574">
        <ele>519</ele>
        <time>2014-09-28T09:11:20Z</time>
      </trkpt>
      <trkpt lat="46.2744" lon="4.65739">
        <ele>520</ele>
        <time>2014-09-28T09:11:30Z</time>
      </trkpt>
      <trkpt lat="46.27439" lon="4.6574">
        <ele>520</ele>
        <time>2014-09-28T09:11:31Z</time>
      </trkpt>
      <trkpt lat="46.27431" lon="4.65736">
        <ele>521</ele>
        <time>2014-09-28T09:11:36Z</time>
      </trkpt>
      <trkpt lat="46.2743" lon="4.65737">
        <ele>521</ele>
        <time>2014-09-28T09:11:37Z</time>
      </trkpt>
      <trkpt lat="46.27421" lon="4.65736">
        <ele>522</ele>
        <time>2014-09-28T09:11:43Z</time>
      </trkpt>
      <trkpt lat="46.27419" lon="4.65736">
        <ele>522</ele>
        <time>2014-09-28T09:11:44Z</time>
      </trkpt>
      <trkpt lat="46.27411" lon="4.65733">
        <ele>523</ele>
        <time>2014-09-28T09:11:49Z</time>
      </trkpt>
      <trkpt lat="46.27409" lon="4.65733">
        <ele>523</ele>
        <time>2014-09-28T09:11:50Z</time>
      </trkpt>
      <trkpt lat="46.27401" lon="4.65734">
        <ele>523</ele>
        <time>2014-09-28T09:11:55Z</time>
      </trkpt>
      <trkpt lat="46.27399" lon="4.65735">
        <ele>523</ele>
        <time>2014-09-28T09:11:56Z</time>
      </trkpt>
      <trkpt lat="46.27392" lon="4.6574">
        <ele>523</ele>
        <time>2014-09-28T09:12:00Z</time>
      </trkpt>
      <trkpt lat="46.2739" lon="4.65742">
        <ele>523</ele>
        <time>2014-09-28T09:12:01Z</time>
      </trkpt>
      <trkpt lat="46.27383" lon="4.65748">
        <ele>523</ele>
        <time>2014-09-28T09:12:05Z</time>
      </trkpt>
      <trkpt lat="46.27382" lon="4.65749">
        <ele>523</ele>
        <time>2014-09-28T09:12:06Z</time>
      </trkpt>
      <trkpt lat="46.27375" lon="4.65754">
        <ele>534</ele>
        <time>2014-09-28T09:12:11Z</time>
      </trkpt>
      <trkpt lat="46.27373" lon="4.65755">
        <ele>534</ele>
        <time>2014-09-28T09:12:12Z</time>
      </trkpt>
      <trkpt lat="46.27366" lon="4.6576">
        <ele>534</ele>
        <time>2014-09-28T09:12:16Z</time>
      </trkpt>
      <trkpt lat="46.27365" lon="4.65761">
        <ele>534</ele>
        <time>2014-09-28T09:12:17Z</time>
      </trkpt>
      <trkpt lat="46.27357" lon="4.65764">
        <ele>534</ele>
        <time>2014-09-28T09:12:22Z</time>
      </trkpt>
      <trkpt lat="46.27355" lon="4.65766">
        <ele>534</ele>
        <time>2014-09-28T09:12:23Z</time>
      </trkpt>
      <trkpt lat="46.27349" lon="4.65771">
        <ele>535</ele>
        <time>2014-09-28T09:12:27Z</time>
      </trkpt>
      <trkpt lat="46.27348" lon="4.65772">
        <ele>535</ele>
        <time>2014-09-28T09:12:28Z</time>
      </trkpt>
      <trkpt lat="46.27341" lon="4.6578">
        <ele>536</ele>
        <time>2014-09-28T09:12:33Z</time>
      </trkpt>
      <trkpt lat="46.27339" lon="4.65781">
        <ele>536</ele>
        <time>2014-09-28T09:12:34Z</time>
      </trkpt>
      <trkpt lat="46.27331" lon="4.65786">
        <ele>537</ele>
        <time>2014-09-28T09:12:40Z</time>
      </trkpt>
      <trkpt lat="46.2733" lon="4.65788">
        <ele>537</ele>
        <time>2014-09-28T09:12:41Z</time>
      </trkpt>
      <trkpt lat="46.27323" lon="4.65794">
        <ele>538</ele>
        <time>2014-09-28T09:12:47Z</time>
      </trkpt>
      <trkpt lat="46.27322" lon="4.65795">
        <ele>539</ele>
        <time>2014-09-28T09:12:48Z</time>
      </trkpt>
      <trkpt lat="46.27313" lon="4.65797">
        <ele>539</ele>
        <time>2014-09-28T09:12:55Z</time>
      </trkpt>
      <trkpt lat="46.27311" lon="4.65796">
        <ele>539</ele>
        <time>2014-09-28T09:12:56Z</time>
      </trkpt>
      <trkpt lat="46.27303" lon="4.65798">
        <ele>539</ele>
        <time>2014-09-28T09:13:03Z</time>
      </trkpt>
      <trkpt lat="46.27302" lon="4.65799">
        <ele>539</ele>
        <time>2014-09-28T09:13:04Z</time>
      </trkpt>
      <trkpt lat="46.27294" lon="4.65802">
        <ele>539</ele>
        <time>2014-09-28T09:13:10Z</time>
      </trkpt>
      <trkpt lat="46.27293" lon="4.65803">
        <ele>539</ele>
        <time>2014-09-28T09:13:11Z</time>
      </trkpt>
      <trkpt lat="46.27285" lon="4.65807">
        <ele>540</ele>
        <time>2014-09-28T09:13:16Z</time>
      </trkpt>
      <trkpt lat="46.27283" lon="4.65807">
        <ele>540</ele>
        <time>2014-09-28T09:13:17Z</time>
      </trkpt>
      <trkpt lat="46.27277" lon="4.65811">
        <ele>540</ele>
        <time>2014-09-28T09:13:20Z</time>
      </trkpt>
      <trkpt lat="46.27273" lon="4.65812">
        <ele>540</ele>
        <time>2014-09-28T09:13:21Z</time>
      </trkpt>
      <trkpt lat="46.27267" lon="4.65814">
        <ele>541</ele>
        <time>2014-09-28T09:13:23Z</time>
      </trkpt>
      <trkpt lat="46.27264" lon="4.65814">
        <ele>541</ele>
        <time>2014-09-28T09:13:24Z</time>
      </trkpt>
      <trkpt lat="46.27255" lon="4.65816">
        <ele>542</ele>
        <time>2014-09-28T09:13:27Z</time>
      </trkpt>
      <trkpt lat="46.27253" lon="4.65817">
        <ele>542</ele>
        <time>2014-09-28T09:13:28Z</time>
      </trkpt>
      <trkpt lat="46.27246" lon="4.65819">
        <ele>543</ele>
        <time>2014-09-28T09:13:31Z</time>
      </trkpt>
      <trkpt lat="46.27244" lon="4.65819">
        <ele>543</ele>
        <time>2014-09-28T09:13:32Z</time>
      </trkpt>
      <trkpt lat="46.27237" lon="4.65821">
        <ele>542</ele>
        <time>2014-09-28T09:13:35Z</time>
      </trkpt>
      <trkpt lat="46.27235" lon="4.65822">
        <ele>542</ele>
        <time>2014-09-28T09:13:36Z</time>
      </trkpt>
      <trkpt lat="46.27228" lon="4.65826">
        <ele>542</ele>
        <time>2014-09-28T09:13:39Z</time>
      </trkpt>
      <trkpt lat="46.27226" lon="4.65827">
        <ele>542</ele>
        <time>2014-09-28T09:13:40Z</time>
      </trkpt>
      <trkpt lat="46.27217" lon="4.65827">
        <ele>541</ele>
        <time>2014-09-28T09:13:43Z</time>
      </trkpt>
      <trkpt lat="46.27214" lon="4.65828">
        <ele>541</ele>
        <time>2014-09-28T09:13:44Z</time>
      </trkpt>
      <trkpt lat="46.27207" lon="4.65831">
        <ele>541</ele>
        <time>2014-09-28T09:13:47Z</time>
      </trkpt>
      <trkpt lat="46.27204" lon="4.65832">
        <ele>541</ele>
        <time>2014-09-28T09:13:48Z</time>
      </trkpt>
      <trkpt lat="46.27197" lon="4.65836">
        <ele>552</ele>
        <time>2014-09-28T09:13:51Z</time>
      </trkpt>
      <trkpt lat="46.27194" lon="4.65838">
        <ele>552</ele>
        <time>2014-09-28T09:13:52Z</time>
      </trkpt>
      <trkpt lat="46.27186" lon="4.65838">
        <ele>551</ele>
        <time>2014-09-28T09:13:55Z</time>
      </trkpt>
      <trkpt lat="46.27183" lon="4.65838">
        <ele>551</ele>
        <time>2014-09-28T09:13:56Z</time>
      </trkpt>
      <trkpt lat="46.27177" lon="4.6584">
        <ele>550</ele>
        <time>2014-09-28T09:13:58Z</time>
      </trkpt>
      <trkpt lat="46.27173" lon="4.65839">
        <ele>549</ele>
        <time>2014-09-28T09:13:59Z</time>
      </trkpt>
      <trkpt lat="46.27166" lon="4.65843">
        <ele>548</ele>
        <time>2014-09-28T09:14:02Z</time>
      </trkpt>
      <trkpt lat="46.27164" lon="4.65844">
        <ele>549</ele>
        <time>2014-09-28T09:14:03Z</time>
      </trkpt>
      <trkpt lat="46.27158" lon="4.65848">
        <ele>550</ele>
        <time>2014-09-28T09:14:06Z</time>
      </trkpt>
      <trkpt lat="46.27156" lon="4.65849">
        <ele>551</ele>
        <time>2014-09-28T09:14:07Z</time>
      </trkpt>
      <trkpt lat="46.27148" lon="4.65852">
        <ele>552</ele>
        <time>2014-09-28T09:14:11Z</time>
      </trkpt>
      <trkpt lat="46.27146" lon="4.65854">
        <ele>552</ele>
        <time>2014-09-28T09:14:12Z</time>
      </trkpt>
      <trkpt lat="46.2714" lon="4.65858">
        <ele>553</ele>
        <time>2014-09-28T09:14:15Z</time>
      </trkpt>
      <trkpt lat="46.27137" lon="4.65858">
        <ele>553</ele>
        <time>2014-09-28T09:14:16Z</time>
      </trkpt>
      <trkpt lat="46.27129" lon="4.65856">
        <ele>553</ele>
        <time>2014-09-28T09:14:19Z</time>
      </trkpt>
      <trkpt lat="46.27127" lon="4.65856">
        <ele>553</ele>
        <time>2014-09-28T09:14:20Z</time>
      </trkpt>
      <trkpt lat="46.27119" lon="4.65858">
        <ele>554</ele>
        <time>2014-09-28T09:14:23Z</time>
      </trkpt>
      <trkpt lat="46.27117" lon="4.65859">
        <ele>554</ele>
        <time>2014-09-28T09:14:24Z</time>
      </trkpt>
      <trkpt lat="46.2711" lon="4.65863">
        <ele>554</ele>
        <time>2014-09-28T09:14:27Z</time>
      </trkpt>
      <trkpt lat="46.27108" lon="4.65864">
        <ele>554</ele>
        <time>2014-09-28T09:14:28Z</time>
      </trkpt>
      <trkpt lat="46.271" lon="4.65865">
        <ele>554</ele>
        <time>2014-09-28T09:14:32Z</time>
      </trkpt>
      <trkpt lat="46.27098" lon="4.65864">
        <ele>554</ele>
        <time>2014-09-28T09:14:33Z</time>
      </trkpt>
      <trkpt lat="46.27089" lon="4.65865">
        <ele>554</ele>
        <time>2014-09-28T09:14:37Z</time>
      </trkpt>
      <trkpt lat="46.27087" lon="4.65866">
        <ele>554</ele>
        <time>2014-09-28T09:14:38Z</time>
      </trkpt>
      <trkpt lat="46.2708" lon="4.65871">
        <ele>556</ele>
        <time>2014-09-28T09:14:41Z</time>
      </trkpt>
      <trkpt lat="46.27077" lon="4.65873">
        <ele>556</ele>
        <time>2014-09-28T09:14:42Z</time>
      </trkpt>
      <trkpt lat="46.27071" lon="4.65878">
        <ele>557</ele>
        <time>2014-09-28T09:14:45Z</time>
      </trkpt>
      <trkpt lat="46.27069" lon="4.6588">
        <ele>557</ele>
        <time>2014-09-28T09:14:46Z</time>
      </trkpt>
      <trkpt lat="46.27063" lon="4.65882">
        <ele>558</ele>
        <time>2014-09-28T09:14:49Z</time>
      </trkpt>
      <trkpt lat="46.27061" lon="4.65883">
        <ele>558</ele>
        <time>2014-09-28T09:14:50Z</time>
      </trkpt>
      <trkpt lat="46.27054" lon="4.65884">
        <ele>558</ele>
        <time>2014-09-28T09:14:53Z</time>
      </trkpt>
      <trkpt lat="46.27051" lon="4.65884">
        <ele>558</ele>
        <time>2014-09-28T09:14:54Z</time>
      </trkpt>
      <trkpt lat="46.27044" lon="4.65883">
        <ele>558</ele>
        <time>2014-09-28T09:14:56Z</time>
      </trkpt>
      <trkpt lat="46.2704" lon="4.65883">
        <ele>558</ele>
        <time>2014-09-28T09:14:57Z</time>
      </trkpt>
      <trkpt lat="46.27033" lon="4.65884">
        <ele>559</ele>
        <time>2014-09-28T09:14:59Z</time>
      </trkpt>
      <trkpt lat="46.27029" lon="4.65885">
        <ele>559</ele>
        <time>2014-09-28T09:15:00Z</time>
      </trkpt>
      <trkpt lat="46.27022" lon="4.65885">
        <ele>559</ele>
        <time>2014-09-28T09:15:02Z</time>
      </trkpt>
      <trkpt lat="46.27018" lon="4.65884">
        <ele>559</ele>
        <time>2014-09-28T09:15:03Z</time>
      </trkpt>
      <trkpt lat="46.27011" lon="4.65884">
        <ele>559</ele>
        <time>2014-09-28T09:15:05Z</time>
      </trkpt>
      <trkpt lat="46.27007" lon="4.65883">
        <ele>559</ele>
        <time>2014-09-28T09:15:06Z</time>
      </trkpt>
      <trkpt lat="46.27" lon="4.65882">
        <ele>559</ele>
        <time>2014-09-28T09:15:08Z</time>
      </trkpt>
      <trkpt lat="46.26996" lon="4.65881">
        <ele>559</ele>
        <time>2014-09-28T09:15:09Z</time>
      </trkpt>
      <trkpt lat="46.2699" lon="4.65879">
        <ele>558</ele>
        <time>2014-09-28T09:15:10Z</time>
      </trkpt>
      <trkpt lat="46.2698" lon="4.65876">
        <ele>557</ele>
        <time>2014-09-28T09:15:11Z</time>
      </trkpt>
      <trkpt lat="46.26972" lon="4.65872">
        <ele>557</ele>
        <time>2014-09-28T09:15:12Z</time>
      </trkpt>
      <trkpt lat="46.26966" lon="4.65868">
        <ele>556</ele>
        <time>2014-09-28T09:15:13Z</time>
      </trkpt>
      <trkpt lat="46.2696" lon="4.6586">
        <ele>555</ele>
        <time>2014-09-28T09:15:14Z</time>
      </trkpt>
      <trkpt lat="46.26954" lon="4.65858">
        <ele>554</ele>
        <time>2014-09-28T09:15:15Z</time>
      </trkpt>
      <trkpt lat="46.26947" lon="4.65851">
        <ele>553</ele>
        <time>2014-09-28T09:15:17Z</time>
      </trkpt>
      <trkpt lat="46.26943" lon="4.65861">
        <ele>554</ele>
        <time>2014-09-28T09:15:18Z</time>
      </trkpt>
      <trkpt lat="46.26936" lon="4.65865">
        <ele>554</ele>
        <time>2014-09-28T09:15:19Z</time>
      </trkpt>
      <trkpt lat="46.26932" lon="4.65867">
        <ele>555</ele>
        <time>2014-09-28T09:15:20Z</time>
      </trkpt>
      <trkpt lat="46.26925" lon="4.65871">
        <ele>555</ele>
        <time>2014-09-28T09:15:22Z</time>
      </trkpt>
      <trkpt lat="46.26919" lon="4.65873">
        <ele>555</ele>
        <time>2014-09-28T09:15:23Z</time>
      </trkpt>
      <trkpt lat="46.26911" lon="4.65879">
        <ele>552</ele>
        <time>2014-09-28T09:15:26Z</time>
      </trkpt>
      <trkpt lat="46.26907" lon="4.65878">
        <ele>551</ele>
        <time>2014-09-28T09:15:27Z</time>
      </trkpt>
      <trkpt lat="46.26901" lon="4.65879">
        <ele>551</ele>
        <time>2014-09-28T09:15:28Z</time>
      </trkpt>
      <trkpt lat="46.26895" lon="4.65876">
        <ele>550</ele>
        <time>2014-09-28T09:15:29Z</time>
      </trkpt>
      <trkpt lat="46.26889" lon="4.65874">
        <ele>550</ele>
        <time>2014-09-28T09:15:30Z</time>
      </trkpt>
      <trkpt lat="46.26883" lon="4.6587">
        <ele>549</ele>
        <time>2014-09-28T09:15:31Z</time>
      </trkpt>
      <trkpt lat="46.26876" lon="4.65867">
        <ele>548</ele>
        <time>2014-09-28T09:15:32Z</time>
      </trkpt>
      <trkpt lat="46.26871" lon="4.65863">
        <ele>547</ele>
        <time>2014-09-28T09:15:33Z</time>
      </trkpt>
      <trkpt lat="46.26865" lon="4.6586">
        <ele>546</ele>
        <time>2014-09-28T09:15:34Z</time>
      </trkpt>
      <trkpt lat="46.2686" lon="4.65859">
        <ele>545</ele>
        <time>2014-09-28T09:15:35Z</time>
      </trkpt>
      <trkpt lat="46.26855" lon="4.65861">
        <ele>545</ele>
        <time>2014-09-28T09:15:36Z</time>
      </trkpt>
      <trkpt lat="46.26847" lon="4.65856">
        <ele>543</ele>
        <time>2014-09-28T09:15:37Z</time>
      </trkpt>
      <trkpt lat="46.26842" lon="4.65861">
        <ele>544</ele>
        <time>2014-09-28T09:15:38Z</time>
      </trkpt>
      <trkpt lat="46.26839" lon="4.65863">
        <ele>544</ele>
        <time>2014-09-28T09:15:39Z</time>
      </trkpt>
      <trkpt lat="46.26831" lon="4.65866">
        <ele>539</ele>
        <time>2014-09-28T09:15:41Z</time>
      </trkpt>
      <trkpt lat="46.26828" lon="4.6587">
        <ele>540</ele>
        <time>2014-09-28T09:15:42Z</time>
      </trkpt>
      <trkpt lat="46.26824" lon="4.6587">
        <ele>540</ele>
        <time>2014-09-28T09:15:43Z</time>
      </trkpt>
      <trkpt lat="46.26819" lon="4.65871">
        <ele>540</ele>
        <time>2014-09-28T09:15:44Z</time>
      </trkpt>
      <trkpt lat="46.26814" lon="4.65872">
        <ele>540</ele>
        <time>2014-09-28T09:15:45Z</time>
      </trkpt>
      <trkpt lat="46.26808" lon="4.65872">
        <ele>540</ele>
        <time>2014-09-28T09:15:46Z</time>
      </trkpt>
      <trkpt lat="46.26803" lon="4.65874">
        <ele>540</ele>
        <time>2014-09-28T09:15:47Z</time>
      </trkpt>
      <trkpt lat="46.26798" lon="4.65876">
        <ele>540</ele>
        <time>2014-09-28T09:15:48Z</time>
      </trkpt>
      <trkpt lat="46.2679" lon="4.65878">
        <ele>540</ele>
        <time>2014-09-28T09:15:50Z</time>
      </trkpt>
      <trkpt lat="46.26787" lon="4.65881">
        <ele>540</ele>
        <time>2014-09-28T09:15:51Z</time>
      </trkpt>
      <trkpt lat="46.26779" lon="4.65886">
        <ele>540</ele>
        <time>2014-09-28T09:15:54Z</time>
      </trkpt>
      <trkpt lat="46.26776" lon="4.65889">
        <ele>541</ele>
        <time>2014-09-28T09:15:55Z</time>
      </trkpt>
      <trkpt lat="46.26772" lon="4.65897">
        <ele>542</ele>
        <time>2014-09-28T09:15:58Z</time>
      </trkpt>
      <trkpt lat="46.2677" lon="4.65899">
        <ele>542</ele>
        <time>2014-09-28T09:15:59Z</time>
      </trkpt>
      <trkpt lat="46.26764" lon="4.65907">
        <ele>543</ele>
        <time>2014-09-28T09:16:03Z</time>
      </trkpt>
      <trkpt lat="46.26763" lon="4.65909">
        <ele>543</ele>
        <time>2014-09-28T09:16:04Z</time>
      </trkpt>
      <trkpt lat="46.26756" lon="4.65917">
        <ele>549</ele>
        <time>2014-09-28T09:16:09Z</time>
      </trkpt>
      <trkpt lat="46.26755" lon="4.65918">
        <ele>548</ele>
        <time>2014-09-28T09:16:10Z</time>
      </trkpt>
      <trkpt lat="46.2675" lon="4.65926">
        <ele>547</ele>
        <time>2014-09-28T09:16:15Z</time>
      </trkpt>
      <trkpt lat="46.26748" lon="4.65927">
        <ele>547</ele>
        <time>2014-09-28T09:16:16Z</time>
      </trkpt>
      <trkpt lat="46.26742" lon="4.65934">
        <ele>549</ele>
        <time>2014-09-28T09:16:21Z</time>
      </trkpt>
      <trkpt lat="46.26741" lon="4.65935">
        <ele>549</ele>
        <time>2014-09-28T09:16:22Z</time>
      </trkpt>
      <trkpt lat="46.26735" lon="4.65944">
        <ele>550</ele>
        <time>2014-09-28T09:16:27Z</time>
      </trkpt>
      <trkpt lat="46.26734" lon="4.65946">
        <ele>551</ele>
        <time>2014-09-28T09:16:28Z</time>
      </trkpt>
      <trkpt lat="46.26728" lon="4.65954">
        <ele>552</ele>
        <time>2014-09-28T09:16:33Z</time>
      </trkpt>
      <trkpt lat="46.26726" lon="4.65955">
        <ele>552</ele>
        <time>2014-09-28T09:16:34Z</time>
      </trkpt>
      <trkpt lat="46.26719" lon="4.65959">
        <ele>552</ele>
        <time>2014-09-28T09:16:38Z</time>
      </trkpt>
      <trkpt lat="46.26718" lon="4.65961">
        <ele>552</ele>
        <time>2014-09-28T09:16:39Z</time>
      </trkpt>
      <trkpt lat="46.26712" lon="4.65967">
        <ele>552</ele>
        <time>2014-09-28T09:16:43Z</time>
      </trkpt>
      <trkpt lat="46.2671" lon="4.65968">
        <ele>552</ele>
        <time>2014-09-28T09:16:44Z</time>
      </trkpt>
      <trkpt lat="46.26703" lon="4.65975">
        <ele>553</ele>
        <time>2014-09-28T09:16:49Z</time>
      </trkpt>
      <trkpt lat="46.26701" lon="4.65976">
        <ele>553</ele>
        <time>2014-09-28T09:16:50Z</time>
      </trkpt>
      <trkpt lat="46.26695" lon="4.65981">
        <ele>553</ele>
        <time>2014-09-28T09:16:54Z</time>
      </trkpt>
      <trkpt lat="46.26693" lon="4.65982">
        <ele>553</ele>
        <time>2014-09-28T09:16:55Z</time>
      </trkpt>
      <trkpt lat="46.26687" lon="4.65988">
        <ele>553</ele>
        <time>2014-09-28T09:16:59Z</time>
      </trkpt>
      <trkpt lat="46.26685" lon="4.6599">
        <ele>553</ele>
        <time>2014-09-28T09:17:00Z</time>
      </trkpt>
      <trkpt lat="46.26679" lon="4.65997">
        <ele>554</ele>
        <time>2014-09-28T09:17:06Z</time>
      </trkpt>
      <trkpt lat="46.26677" lon="4.65999">
        <ele>554</ele>
        <time>2014-09-28T09:17:07Z</time>
      </trkpt>
      <trkpt lat="46.2667" lon="4.66005">
        <ele>558</ele>
        <time>2014-09-28T09:17:11Z</time>
      </trkpt>
      <trkpt lat="46.26668" lon="4.66006">
        <ele>558</ele>
        <time>2014-09-28T09:17:12Z</time>
      </trkpt>
      <trkpt lat="46.26661" lon="4.66012">
        <ele>557</ele>
        <time>2014-09-28T09:17:16Z</time>
      </trkpt>
      <trkpt lat="46.26659" lon="4.66014">
        <ele>558</ele>
        <time>2014-09-28T09:17:17Z</time>
      </trkpt>
      <trkpt lat="46.26651" lon="4.6602">
        <ele>559</ele>
        <time>2014-09-28T09:17:21Z</time>
      </trkpt>
      <trkpt lat="46.26649" lon="4.66022">
        <ele>559</ele>
        <time>2014-09-28T09:17:22Z</time>
      </trkpt>
      <trkpt lat="46.26642" lon="4.66026">
        <ele>560</ele>
        <time>2014-09-28T09:17:25Z</time>
      </trkpt>
      <trkpt lat="46.2664" lon="4.66027">
        <ele>560</ele>
        <time>2014-09-28T09:17:26Z</time>
      </trkpt>
      <trkpt lat="46.26632" lon="4.66031">
        <ele>560</ele>
        <time>2014-09-28T09:17:29Z</time>
      </trkpt>
      <trkpt lat="46.2663" lon="4.66031">
        <ele>560</ele>
        <time>2014-09-28T09:17:30Z</time>
      </trkpt>
      <trkpt lat="46.26624" lon="4.66033">
        <ele>560</ele>
        <time>2014-09-28T09:17:32Z</time>
      </trkpt>
      <trkpt lat="46.2662" lon="4.66034">
        <ele>560</ele>
        <time>2014-09-28T09:17:33Z</time>
      </trkpt>
      <trkpt lat="46.26611" lon="4.66034">
        <ele>559</ele>
        <time>2014-09-28T09:17:35Z</time>
      </trkpt>
      <trkpt lat="46.26607" lon="4.66034">
        <ele>559</ele>
        <time>2014-09-28T09:17:36Z</time>
      </trkpt>
      <trkpt lat="46.26603" lon="4.66034">
        <ele>559</ele>
        <time>2014-09-28T09:17:37Z</time>
      </trkpt>
      <trkpt lat="46.26598" lon="4.66037">
        <ele>559</ele>
        <time>2014-09-28T09:17:38Z</time>
      </trkpt>
      <trkpt lat="46.26591" lon="4.66044">
        <ele>560</ele>
        <time>2014-09-28T09:17:40Z</time>
      </trkpt>
      <trkpt lat="46.26587" lon="4.66047">
        <ele>561</ele>
        <time>2014-09-28T09:17:41Z</time>
      </trkpt>
      <trkpt lat="46.26582" lon="4.66051">
        <ele>558</ele>
        <time>2014-09-28T09:17:43Z</time>
      </trkpt>
      <trkpt lat="46.26579" lon="4.66053">
        <ele>558</ele>
        <time>2014-09-28T09:17:44Z</time>
      </trkpt>
      <trkpt lat="46.26574" lon="4.66063">
        <ele>560</ele>
        <time>2014-09-28T09:17:48Z</time>
      </trkpt>
      <trkpt lat="46.26573" lon="4.66066">
        <ele>560</ele>
        <time>2014-09-28T09:17:49Z</time>
      </trkpt>
      <trkpt lat="46.26568" lon="4.66076">
        <ele>561</ele>
        <time>2014-09-28T09:17:53Z</time>
      </trkpt>
      <trkpt lat="46.26566" lon="4.66079">
        <ele>561</ele>
        <time>2014-09-28T09:17:54Z</time>
      </trkpt>
      <trkpt lat="46.26561" lon="4.66088">
        <ele>568</ele>
        <time>2014-09-28T09:17:58Z</time>
      </trkpt>
      <trkpt lat="46.26559" lon="4.66091">
        <ele>568</ele>
        <time>2014-09-28T09:17:59Z</time>
      </trkpt>
      <trkpt lat="46.26555" lon="4.661">
        <ele>568</ele>
        <time>2014-09-28T09:18:03Z</time>
      </trkpt>
      <trkpt lat="46.26554" lon="4.66102">
        <ele>568</ele>
        <time>2014-09-28T09:18:04Z</time>
      </trkpt>
      <trkpt lat="46.26548" lon="4.66111">
        <ele>568</ele>
        <time>2014-09-28T09:18:09Z</time>
      </trkpt>
      <trkpt lat="46.26547" lon="4.66113">
        <ele>569</ele>
        <time>2014-09-28T09:18:10Z</time>
      </trkpt>
      <trkpt lat="46.26542" lon="4.66121">
        <ele>569</ele>
        <time>2014-09-28T09:18:14Z</time>
      </trkpt>
      <trkpt lat="46.26541" lon="4.66123">
        <ele>569</ele>
        <time>2014-09-28T09:18:15Z</time>
      </trkpt>
      <trkpt lat="46.26536" lon="4.66132">
        <ele>570</ele>
        <time>2014-09-28T09:18:19Z</time>
      </trkpt>
      <trkpt lat="46.26535" lon="4.66134">
        <ele>570</ele>
        <time>2014-09-28T09:18:20Z</time>
      </trkpt>
      <trkpt lat="46.26529" lon="4.66143">
        <ele>570</ele>
        <time>2014-09-28T09:18:24Z</time>
      </trkpt>
      <trkpt lat="46.26528" lon="4.66146">
        <ele>570</ele>
        <time>2014-09-28T09:18:25Z</time>
      </trkpt>
      <trkpt lat="46.26523" lon="4.66154">
        <ele>571</ele>
        <time>2014-09-28T09:18:28Z</time>
      </trkpt>
      <trkpt lat="46.26522" lon="4.66156">
        <ele>571</ele>
        <time>2014-09-28T09:18:29Z</time>
      </trkpt>
      <trkpt lat="46.26516" lon="4.66166">
        <ele>571</ele>
        <time>2014-09-28T09:18:33Z</time>
      </trkpt>
      <trkpt lat="46.26515" lon="4.66168">
        <ele>577</ele>
        <time>2014-09-28T09:18:34Z</time>
      </trkpt>
      <trkpt lat="46.2651" lon="4.66175">
        <ele>577</ele>
        <time>2014-09-28T09:18:38Z</time>
      </trkpt>
      <trkpt lat="46.26508" lon="4.66176">
        <ele>577</ele>
        <time>2014-09-28T09:18:39Z</time>
      </trkpt>
      <trkpt lat="46.26502" lon="4.66181">
        <ele>577</ele>
        <time>2014-09-28T09:18:42Z</time>
      </trkpt>
      <trkpt lat="46.26499" lon="4.66183">
        <ele>576</ele>
        <time>2014-09-28T09:18:43Z</time>
      </trkpt>
      <trkpt lat="46.26493" lon="4.66189">
        <ele>577</ele>
        <time>2014-09-28T09:18:46Z</time>
      </trkpt>
      <trkpt lat="46.2649" lon="4.66191">
        <ele>577</ele>
        <time>2014-09-28T09:18:47Z</time>
      </trkpt>
      <trkpt lat="46.26483" lon="4.66196">
        <ele>578</ele>
        <time>2014-09-28T09:18:50Z</time>
      </trkpt>
      <trkpt lat="46.26481" lon="4.66198">
        <ele>578</ele>
        <time>2014-09-28T09:18:51Z</time>
      </trkpt>
      <trkpt lat="46.26474" lon="4.66203">
        <ele>579</ele>
        <time>2014-09-28T09:18:54Z</time>
      </trkpt>
      <trkpt lat="46.26472" lon="4.66205">
        <ele>579</ele>
        <time>2014-09-28T09:18:55Z</time>
      </trkpt>
      <trkpt lat="46.26464" lon="4.66212">
        <ele>580</ele>
        <time>2014-09-28T09:18:58Z</time>
      </trkpt>
      <trkpt lat="46.26462" lon="4.66214">
        <ele>580</ele>
        <time>2014-09-28T09:18:59Z</time>
      </trkpt>
      <trkpt lat="46.26456" lon="4.66218">
        <ele>580</ele>
        <time>2014-09-28T09:19:01Z</time>
      </trkpt>
      <trkpt lat="46.26454" lon="4.6622">
        <ele>580</ele>
        <time>2014-09-28T09:19:02Z</time>
      </trkpt>
      <trkpt lat="46.26446" lon="4.66226">
        <ele>581</ele>
        <time>2014-09-28T09:19:05Z</time>
      </trkpt>
      <trkpt lat="46.26443" lon="4.66227">
        <ele>581</ele>
        <time>2014-09-28T09:19:06Z</time>
      </trkpt>
      <trkpt lat="46.26435" lon="4.6623">
        <ele>581</ele>
        <time>2014-09-28T09:19:09Z</time>
      </trkpt>
      <trkpt lat="46.26432" lon="4.66231">
        <ele>581</ele>
        <time>2014-09-28T09:19:10Z</time>
      </trkpt>
      <trkpt lat="46.26424" lon="4.66231">
        <ele>582</ele>
        <time>2014-09-28T09:19:13Z</time>
      </trkpt>
      <trkpt lat="46.26422" lon="4.6623">
        <ele>582</ele>
        <time>2014-09-28T09:19:14Z</time>
      </trkpt>
      <trkpt lat="46.26415" lon="4.66226">
        <ele>583</ele>
        <time>2014-09-28T09:19:17Z</time>
      </trkpt>
      <trkpt lat="46.26412" lon="4.66225">
        <ele>583</ele>
        <time>2014-09-28T09:19:18Z</time>
      </trkpt>
      <trkpt lat="46.26406" lon="4.66223">
        <ele>582</ele>
        <time>2014-09-28T09:19:20Z</time>
      </trkpt>
      <trkpt lat="46.26403" lon="4.66221">
        <ele>582</ele>
        <time>2014-09-28T09:19:21Z</time>
      </trkpt>
      <trkpt lat="46.26396" lon="4.66219">
        <ele>582</ele>
        <time>2014-09-28T09:19:23Z</time>
      </trkpt>
      <trkpt lat="46.26392" lon="4.66218">
        <ele>582</ele>
        <time>2014-09-28T09:19:24Z</time>
      </trkpt>
      <trkpt lat="46.26385" lon="4.66215">
        <ele>582</ele>
        <time>2014-09-28T09:19:26Z</time>
      </trkpt>
      <trkpt lat="46.26382" lon="4.66213">
        <ele>582</ele>
        <time>2014-09-28T09:19:27Z</time>
      </trkpt>
      <trkpt lat="46.26376" lon="4.66211">
        <ele>582</ele>
        <time>2014-09-28T09:19:29Z</time>
      </trkpt>
      <trkpt lat="46.26373" lon="4.6621">
        <ele>582</ele>
        <time>2014-09-28T09:19:30Z</time>
      </trkpt>
      <trkpt lat="46.26367" lon="4.66208">
        <ele>582</ele>
        <time>2014-09-28T09:19:32Z</time>
      </trkpt>
      <trkpt lat="46.26364" lon="4.66207">
        <ele>582</ele>
        <time>2014-09-28T09:19:33Z</time>
      </trkpt>
      <trkpt lat="46.26356" lon="4.66203">
        <ele>582</ele>
        <time>2014-09-28T09:19:36Z</time>
      </trkpt>
      <trkpt lat="46.26353" lon="4.66203">
        <ele>582</ele>
        <time>2014-09-28T09:19:37Z</time>
      </trkpt>
      <trkpt lat="46.26347" lon="4.662">
        <ele>582</ele>
        <time>2014-09-28T09:19:40Z</time>
      </trkpt>
      <trkpt lat="46.26344" lon="4.66199">
        <ele>582</ele>
        <time>2014-09-28T09:19:41Z</time>
      </trkpt>
      <trkpt lat="46.26345" lon="4.66211">
        <ele>583</ele>
        <time>2014-09-28T09:19:46Z</time>
      </trkpt>
      <trkpt lat="46.26348" lon="4.66214">
        <ele>583</ele>
        <time>2014-09-28T09:19:47Z</time>
      </trkpt>
      <trkpt lat="46.26353" lon="4.6622">
        <ele>584</ele>
        <time>2014-09-28T09:19:49Z</time>
      </trkpt>
      <trkpt lat="46.26356" lon="4.66223">
        <ele>584</ele>
        <time>2014-09-28T09:19:50Z</time>
      </trkpt>
      <trkpt lat="46.26362" lon="4.66229">
        <ele>584</ele>
        <time>2014-09-28T09:19:52Z</time>
      </trkpt>
      <trkpt lat="46.26365" lon="4.66231">
        <ele>584</ele>
        <time>2014-09-28T09:19:53Z</time>
      </trkpt>
      <trkpt lat="46.26371" lon="4.66236">
        <ele>584</ele>
        <time>2014-09-28T09:19:55Z</time>
      </trkpt>
      <trkpt lat="46.26374" lon="4.66238">
        <ele>584</ele>
        <time>2014-09-28T09:19:56Z</time>
      </trkpt>
      <trkpt lat="46.2638" lon="4.66242">
        <ele>584</ele>
        <time>2014-09-28T09:19:58Z</time>
      </trkpt>
      <trkpt lat="46.26383" lon="4.66244">
        <ele>584</ele>
        <time>2014-09-28T09:19:59Z</time>
      </trkpt>
      <trkpt lat="46.26388" lon="4.66248">
        <ele>584</ele>
        <time>2014-09-28T09:20:01Z</time>
      </trkpt>
      <trkpt lat="46.2639" lon="4.66251">
        <ele>590</ele>
        <time>2014-09-28T09:20:02Z</time>
      </trkpt>
      <trkpt lat="46.26394" lon="4.66259">
        <ele>590</ele>
        <time>2014-09-28T09:20:04Z</time>
      </trkpt>
      <trkpt lat="46.26394" lon="4.66263">
        <ele>591</ele>
        <time>2014-09-28T09:20:05Z</time>
      </trkpt>
      <trkpt lat="46.26391" lon="4.66271">
        <ele>592</ele>
        <time>2014-09-28T09:20:07Z</time>
      </trkpt>
      <trkpt lat="46.26389" lon="4.66274">
        <ele>592</ele>
        <time>2014-09-28T09:20:08Z</time>
      </trkpt>
      <trkpt lat="46.26382" lon="4.66277">
        <ele>593</ele>
        <time>2014-09-28T09:20:10Z</time>
      </trkpt>
      <trkpt lat="46.26379" lon="4.66278">
        <ele>593</ele>
        <time>2014-09-28T09:20:11Z</time>
      </trkpt>
      <trkpt lat="46.26372" lon="4.66278">
        <ele>593</ele>
        <time>2014-09-28T09:20:13Z</time>
      </trkpt>
      <trkpt lat="46.26369" lon="4.66277">
        <ele>593</ele>
        <time>2014-09-28T09:20:14Z</time>
      </trkpt>
      <trkpt lat="46.26363" lon="4.66273">
        <ele>593</ele>
        <time>2014-09-28T09:20:16Z</time>
      </trkpt>
      <trkpt lat="46.2636" lon="4.66271">
        <ele>593</ele>
        <time>2014-09-28T09:20:17Z</time>
      </trkpt>
      <trkpt lat="46.26354" lon="4.66268">
        <ele>593</ele>
        <time>2014-09-28T09:20:19Z</time>
      </trkpt>
      <trkpt lat="46.26351" lon="4.66267">
        <ele>593</ele>
        <time>2014-09-28T09:20:20Z</time>
      </trkpt>
      <trkpt lat="46.26342" lon="4.66264">
        <ele>593</ele>
        <time>2014-09-28T09:20:23Z</time>
      </trkpt>
      <trkpt lat="46.26339" lon="4.66264">
        <ele>593</ele>
        <time>2014-09-28T09:20:24Z</time>
      </trkpt>
      <trkpt lat="46.26333" lon="4.66262">
        <ele>596</ele>
        <time>2014-09-28T09:20:26Z</time>
      </trkpt>
      <trkpt lat="46.2633" lon="4.66261">
        <ele>596</ele>
        <time>2014-09-28T09:20:27Z</time>
      </trkpt>
      <trkpt lat="46.26324" lon="4.66259">
        <ele>596</ele>
        <time>2014-09-28T09:20:29Z</time>
      </trkpt>
      <trkpt lat="46.26321" lon="4.66258">
        <ele>596</ele>
        <time>2014-09-28T09:20:30Z</time>
      </trkpt>
      <trkpt lat="46.26315" lon="4.66256">
        <ele>597</ele>
        <time>2014-09-28T09:20:32Z</time>
      </trkpt>
      <trkpt lat="46.26312" lon="4.66255">
        <ele>598</ele>
        <time>2014-09-28T09:20:33Z</time>
      </trkpt>
      <trkpt lat="46.26307" lon="4.66252">
        <ele>599</ele>
        <time>2014-09-28T09:20:35Z</time>
      </trkpt>
      <trkpt lat="46.26304" lon="4.66251">
        <ele>599</ele>
        <time>2014-09-28T09:20:36Z</time>
      </trkpt>
      <trkpt lat="46.26297" lon="4.66248">
        <ele>593</ele>
        <time>2014-09-28T09:20:38Z</time>
      </trkpt>
      <trkpt lat="46.26294" lon="4.66247">
        <ele>593</ele>
        <time>2014-09-28T09:20:39Z</time>
      </trkpt>
      <trkpt lat="46.26288" lon="4.66245">
        <ele>593</ele>
        <time>2014-09-28T09:20:41Z</time>
      </trkpt>
      <trkpt lat="46.26286" lon="4.66244">
        <ele>594</ele>
        <time>2014-09-28T09:20:42Z</time>
      </trkpt>
      <trkpt lat="46.2628" lon="4.66241">
        <ele>594</ele>
        <time>2014-09-28T09:20:44Z</time>
      </trkpt>
      <trkpt lat="46.26277" lon="4.66239">
        <ele>594</ele>
        <time>2014-09-28T09:20:45Z</time>
      </trkpt>
      <trkpt lat="46.26269" lon="4.66233">
        <ele>595</ele>
        <time>2014-09-28T09:20:48Z</time>
      </trkpt>
      <trkpt lat="46.26266" lon="4.66231">
        <ele>595</ele>
        <time>2014-09-28T09:20:49Z</time>
      </trkpt>
      <trkpt lat="46.26258" lon="4.66227">
        <ele>595</ele>
        <time>2014-09-28T09:20:52Z</time>
      </trkpt>
      <trkpt lat="46.26255" lon="4.66225">
        <ele>595</ele>
        <time>2014-09-28T09:20:53Z</time>
      </trkpt>
      <trkpt lat="46.26248" lon="4.66218">
        <ele>605</ele>
        <time>2014-09-28T09:20:56Z</time>
      </trkpt>
      <trkpt lat="46.26245" lon="4.66215">
        <ele>605</ele>
        <time>2014-09-28T09:20:57Z</time>
      </trkpt>
      <trkpt lat="46.26241" lon="4.66209">
        <ele>605</ele>
        <time>2014-09-28T09:20:59Z</time>
      </trkpt>
      <trkpt lat="46.26239" lon="4.66205">
        <ele>604</ele>
        <time>2014-09-28T09:21:00Z</time>
      </trkpt>
      <trkpt lat="46.26236" lon="4.66197">
        <ele>604</ele>
        <time>2014-09-28T09:21:02Z</time>
      </trkpt>
      <trkpt lat="46.26234" lon="4.66193">
        <ele>603</ele>
        <time>2014-09-28T09:21:03Z</time>
      </trkpt>
      <trkpt lat="46.26231" lon="4.66184">
        <ele>603</ele>
        <time>2014-09-28T09:21:05Z</time>
      </trkpt>
      <trkpt lat="46.26229" lon="4.66179">
        <ele>602</ele>
        <time>2014-09-28T09:21:06Z</time>
      </trkpt>
      <trkpt lat="46.26225" lon="4.66169">
        <ele>603</ele>
        <time>2014-09-28T09:21:08Z</time>
      </trkpt>
      <trkpt lat="46.26223" lon="4.66164">
        <ele>599</ele>
        <time>2014-09-28T09:21:09Z</time>
      </trkpt>
      <trkpt lat="46.2622" lon="4.66155">
        <ele>600</ele>
        <time>2014-09-28T09:21:11Z</time>
      </trkpt>
      <trkpt lat="46.26219" lon="4.6615">
        <ele>600</ele>
        <time>2014-09-28T09:21:12Z</time>
      </trkpt>
      <trkpt lat="46.26217" lon="4.6614">
        <ele>600</ele>
        <time>2014-09-28T09:21:14Z</time>
      </trkpt>
      <trkpt lat="46.26215" lon="4.66135">
        <ele>600</ele>
        <time>2014-09-28T09:21:15Z</time>
      </trkpt>
      <trkpt lat="46.26213" lon="4.66125">
        <ele>600</ele>
        <time>2014-09-28T09:21:17Z</time>
      </trkpt>
      <trkpt lat="46.26212" lon="4.66119">
        <ele>600</ele>
        <time>2014-09-28T09:21:18Z</time>
      </trkpt>
      <trkpt lat="46.26209" lon="4.66109">
        <ele>600</ele>
        <time>2014-09-28T09:21:20Z</time>
      </trkpt>
      <trkpt lat="46.26208" lon="4.66105">
        <ele>600</ele>
        <time>2014-09-28T09:21:21Z</time>
      </trkpt>
      <trkpt lat="46.26205" lon="4.66095">
        <ele>600</ele>
        <time>2014-09-28T09:21:23Z</time>
      </trkpt>
      <trkpt lat="46.26203" lon="4.66091">
        <ele>601</ele>
        <time>2014-09-28T09:21:24Z</time>
      </trkpt>
      <trkpt lat="46.26199" lon="4.66083">
        <ele>597</ele>
        <time>2014-09-28T09:21:26Z</time>
      </trkpt>
      <trkpt lat="46.26197" lon="4.6608">
        <ele>597</ele>
        <time>2014-09-28T09:21:27Z</time>
      </trkpt>
      <trkpt lat="46.26192" lon="4.66073">
        <ele>598</ele>
        <time>2014-09-28T09:21:29Z</time>
      </trkpt>
      <trkpt lat="46.26189" lon="4.6607">
        <ele>598</ele>
        <time>2014-09-28T09:21:30Z</time>
      </trkpt>
      <trkpt lat="46.26184" lon="4.66064">
        <ele>598</ele>
        <time>2014-09-28T09:21:32Z</time>
      </trkpt>
      <trkpt lat="46.26182" lon="4.66061">
        <ele>598</ele>
        <time>2014-09-28T09:21:33Z</time>
      </trkpt>
      <trkpt lat="46.26176" lon="4.66056">
        <ele>598</ele>
        <time>2014-09-28T09:21:35Z</time>
      </trkpt>
      <trkpt lat="46.26173" lon="4.66054">
        <ele>598</ele>
        <time>2014-09-28T09:21:36Z</time>
      </trkpt>
      <trkpt lat="46.26167" lon="4.66049">
        <ele>598</ele>
        <time>2014-09-28T09:21:38Z</time>
      </trkpt>
      <trkpt lat="46.26164" lon="4.66047">
        <ele>608</ele>
        <time>2014-09-28T09:21:39Z</time>
      </trkpt>
      <trkpt lat="46.26158" lon="4.66043">
        <ele>608</ele>
        <time>2014-09-28T09:21:41Z</time>
      </trkpt>
      <trkpt lat="46.26155" lon="4.6604">
        <ele>608</ele>
        <time>2014-09-28T09:21:42Z</time>
      </trkpt>
      <trkpt lat="46.26149" lon="4.66036">
        <ele>608</ele>
        <time>2014-09-28T09:21:44Z</time>
      </trkpt>
      <trkpt lat="46.26146" lon="4.66034">
        <ele>608</ele>
        <time>2014-09-28T09:21:45Z</time>
      </trkpt>
      <trkpt lat="46.2614" lon="4.66031">
        <ele>608</ele>
        <time>2014-09-28T09:21:47Z</time>
      </trkpt>
      <trkpt lat="46.26136" lon="4.66029">
        <ele>608</ele>
        <time>2014-09-28T09:21:48Z</time>
      </trkpt>
      <trkpt lat="46.2613" lon="4.66026">
        <ele>608</ele>
        <time>2014-09-28T09:21:50Z</time>
      </trkpt>
      <trkpt lat="46.26127" lon="4.66024">
        <ele>609</ele>
        <time>2014-09-28T09:21:51Z</time>
      </trkpt>
      <trkpt lat="46.26119" lon="4.66021">
        <ele>609</ele>
        <time>2014-09-28T09:21:54Z</time>
      </trkpt>
      <trkpt lat="46.26117" lon="4.66021">
        <ele>609</ele>
        <time>2014-09-28T09:21:55Z</time>
      </trkpt>
      <trkpt lat="46.2611" lon="4.66025">
        <ele>610</ele>
        <time>2014-09-28T09:21:58Z</time>
      </trkpt>
      <trkpt lat="46.26109" lon="4.66029">
        <ele>610</ele>
        <time>2014-09-28T09:21:59Z</time>
      </trkpt>
      <trkpt lat="46.26111" lon="4.66038">
        <ele>610</ele>
        <time>2014-09-28T09:22:01Z</time>
      </trkpt>
      <trkpt lat="46.26113" lon="4.66042">
        <ele>610</ele>
        <time>2014-09-28T09:22:02Z</time>
      </trkpt>
      <trkpt lat="46.26119" lon="4.66048">
        <ele>610</ele>
        <time>2014-09-28T09:22:04Z</time>
      </trkpt>
      <trkpt lat="46.26121" lon="4.66051">
        <ele>610</ele>
        <time>2014-09-28T09:22:05Z</time>
      </trkpt>
      <trkpt lat="46.26127" lon="4.66056">
        <ele>610</ele>
        <time>2014-09-28T09:22:07Z</time>
      </trkpt>
      <trkpt lat="46.2613" lon="4.66058">
        <ele>609</ele>
        <time>2014-09-28T09:22:08Z</time>
      </trkpt>
      <trkpt lat="46.26135" lon="4.66064">
        <ele>609</ele>
        <time>2014-09-28T09:22:10Z</time>
      </trkpt>
      <trkpt lat="46.26137" lon="4.66067">
        <ele>609</ele>
        <time>2014-09-28T09:22:11Z</time>
      </trkpt>
      <trkpt lat="46.26142" lon="4.66073">
        <ele>609</ele>
        <time>2014-09-28T09:22:13Z</time>
      </trkpt>
      <trkpt lat="46.26144" lon="4.66076">
        <ele>609</ele>
        <time>2014-09-28T09:22:14Z</time>
      </trkpt>
      <trkpt lat="46.26149" lon="4.66081">
        <ele>609</ele>
        <time>2014-09-28T09:22:16Z</time>
      </trkpt>
      <trkpt lat="46.26151" lon="4.66085">
        <ele>612</ele>
        <time>2014-09-28T09:22:17Z</time>
      </trkpt>
      <trkpt lat="46.26155" lon="4.66091">
        <ele>611</ele>
        <time>2014-09-28T09:22:19Z</time>
      </trkpt>
      <trkpt lat="46.26157" lon="4.66094">
        <ele>611</ele>
        <time>2014-09-28T09:22:20Z</time>
      </trkpt>
      <trkpt lat="46.26162" lon="4.661">
        <ele>612</ele>
        <time>2014-09-28T09:22:22Z</time>
      </trkpt>
      <trkpt lat="46.26163" lon="4.66103">
        <ele>613</ele>
        <time>2014-09-28T09:22:23Z</time>
      </trkpt>
      <trkpt lat="46.26169" lon="4.66114">
        <ele>605</ele>
        <time>2014-09-28T09:22:26Z</time>
      </trkpt>
      <trkpt lat="46.2617" lon="4.66117">
        <ele>605</ele>
        <time>2014-09-28T09:22:27Z</time>
      </trkpt>
      <trkpt lat="46.26174" lon="4.66129">
        <ele>605</ele>
        <time>2014-09-28T09:22:30Z</time>
      </trkpt>
      <trkpt lat="46.26175" lon="4.66133">
        <ele>605</ele>
        <time>2014-09-28T09:22:31Z</time>
      </trkpt>
      <trkpt lat="46.26177" lon="4.66145">
        <ele>607</ele>
        <time>2014-09-28T09:22:34Z</time>
      </trkpt>
      <trkpt lat="46.26178" lon="4.66149">
        <ele>608</ele>
        <time>2014-09-28T09:22:35Z</time>
      </trkpt>
      <trkpt lat="46.26178" lon="4.66158">
        <ele>610</ele>
        <time>2014-09-28T09:22:37Z</time>
      </trkpt>
      <trkpt lat="46.26178" lon="4.66163">
        <ele>611</ele>
        <time>2014-09-28T09:22:38Z</time>
      </trkpt>
      <trkpt lat="46.26177" lon="4.66172">
        <ele>614</ele>
        <time>2014-09-28T09:22:40Z</time>
      </trkpt>
      <trkpt lat="46.26177" lon="4.66176">
        <ele>613</ele>
        <time>2014-09-28T09:22:41Z</time>
      </trkpt>
      <trkpt lat="46.26176" lon="4.66186">
        <ele>612</ele>
        <time>2014-09-28T09:22:43Z</time>
      </trkpt>
      <trkpt lat="46.26176" lon="4.66191">
        <ele>612</ele>
        <time>2014-09-28T09:22:44Z</time>
      </trkpt>
      <trkpt lat="46.26176" lon="4.66202">
        <ele>612</ele>
        <time>2014-09-28T09:22:46Z</time>
      </trkpt>
      <trkpt lat="46.26176" lon="4.66207">
        <ele>612</ele>
        <time>2014-09-28T09:22:47Z</time>
      </trkpt>
      <trkpt lat="46.26176" lon="4.66218">
        <ele>613</ele>
        <time>2014-09-28T09:22:49Z</time>
      </trkpt>
      <trkpt lat="46.26177" lon="4.66223">
        <ele>613</ele>
        <time>2014-09-28T09:22:50Z</time>
      </trkpt>
      <trkpt lat="46.26177" lon="4.66234">
        <ele>615</ele>
        <time>2014-09-28T09:22:52Z</time>
      </trkpt>
      <trkpt lat="46.26178" lon="4.66239">
        <ele>616</ele>
        <time>2014-09-28T09:22:53Z</time>
      </trkpt>
      <trkpt lat="46.26179" lon="4.6625">
        <ele>617</ele>
        <time>2014-09-28T09:22:55Z</time>
      </trkpt>
      <trkpt lat="46.2618" lon="4.66255">
        <ele>621</ele>
        <time>2014-09-28T09:22:56Z</time>
      </trkpt>
      <trkpt lat="46.26182" lon="4.66265">
        <ele>620</ele>
        <time>2014-09-28T09:22:58Z</time>
      </trkpt>
      <trkpt lat="46.26184" lon="4.66269">
        <ele>620</ele>
        <time>2014-09-28T09:22:59Z</time>
      </trkpt>
      <trkpt lat="46.26187" lon="4.66278">
        <ele>620</ele>
        <time>2014-09-28T09:23:01Z</time>
      </trkpt>
      <trkpt lat="46.26189" lon="4.66283">
        <ele>621</ele>
        <time>2014-09-28T09:23:02Z</time>
      </trkpt>
      <trkpt lat="46.26193" lon="4.66291">
        <ele>621</ele>
        <time>2014-09-28T09:23:04Z</time>
      </trkpt>
      <trkpt lat="46.26195" lon="4.66295">
        <ele>621</ele>
        <time>2014-09-28T09:23:05Z</time>
      </trkpt>
      <trkpt lat="46.262" lon="4.66303">
        <ele>621</ele>
        <time>2014-09-28T09:23:07Z</time>
      </trkpt>
      <trkpt lat="46.26202" lon="4.66307">
        <ele>621</ele>
        <time>2014-09-28T09:23:08Z</time>
      </trkpt>
      <trkpt lat="46.26206" lon="4.66315">
        <ele>621</ele>
        <time>2014-09-28T09:23:10Z</time>
      </trkpt>
      <trkpt lat="46.26209" lon="4.66318">
        <ele>621</ele>
        <time>2014-09-28T09:23:11Z</time>
      </trkpt>
      <trkpt lat="46.26213" lon="4.66326">
        <ele>621</ele>
        <time>2014-09-28T09:23:13Z</time>
      </trkpt>
      <trkpt lat="46.26216" lon="4.66329">
        <ele>621</ele>
        <time>2014-09-28T09:23:14Z</time>
      </trkpt>
      <trkpt lat="46.26221" lon="4.66336">
        <ele>629</ele>
        <time>2014-09-28T09:23:16Z</time>
      </trkpt>
      <trkpt lat="46.26223" lon="4.6634">
        <ele>628</ele>
        <time>2014-09-28T09:23:17Z</time>
      </trkpt>
      <trkpt lat="46.26227" lon="4.66347">
        <ele>628</ele>
        <time>2014-09-28T09:23:19Z</time>
      </trkpt>
      <trkpt lat="46.2623" lon="4.66351">
        <ele>628</ele>
        <time>2014-09-28T09:23:20Z</time>
      </trkpt>
      <trkpt lat="46.26233" lon="4.66359">
        <ele>629</ele>
        <time>2014-09-28T09:23:22Z</time>
      </trkpt>
      <trkpt lat="46.26235" lon="4.66363">
        <ele>629</ele>
        <time>2014-09-28T09:23:23Z</time>
      </trkpt>
      <trkpt lat="46.26239" lon="4.66371">
        <ele>630</ele>
        <time>2014-09-28T09:23:25Z</time>
      </trkpt>
      <trkpt lat="46.2624" lon="4.66376">
        <ele>631</ele>
        <time>2014-09-28T09:23:26Z</time>
      </trkpt>
      <trkpt lat="46.26244" lon="4.66384">
        <ele>631</ele>
        <time>2014-09-28T09:23:28Z</time>
      </trkpt>
      <trkpt lat="46.26245" lon="4.66388">
        <ele>632</ele>
        <time>2014-09-28T09:23:29Z</time>
      </trkpt>
      <trkpt lat="46.26248" lon="4.66397">
        <ele>632</ele>
        <time>2014-09-28T09:23:31Z</time>
      </trkpt>
      <trkpt lat="46.2625" lon="4.66401">
        <ele>632</ele>
        <time>2014-09-28T09:23:32Z</time>
      </trkpt>
      <trkpt lat="46.26252" lon="4.6641">
        <ele>627</ele>
        <time>2014-09-28T09:23:34Z</time>
      </trkpt>
      <trkpt lat="46.26254" lon="4.66414">
        <ele>629</ele>
        <time>2014-09-28T09:23:35Z</time>
      </trkpt>
      <trkpt lat="46.26257" lon="4.66422">
        <ele>631</ele>
        <time>2014-09-28T09:23:37Z</time>
      </trkpt>
      <trkpt lat="46.26258" lon="4.66426">
        <ele>631</ele>
        <time>2014-09-28T09:23:38Z</time>
      </trkpt>
      <trkpt lat="46.26261" lon="4.66435">
        <ele>631</ele>
        <time>2014-09-28T09:23:40Z</time>
      </trkpt>
      <trkpt lat="46.26263" lon="4.66439">
        <ele>631</ele>
        <time>2014-09-28T09:23:41Z</time>
      </trkpt>
      <trkpt lat="46.26266" lon="4.66447">
        <ele>631</ele>
        <time>2014-09-28T09:23:43Z</time>
      </trkpt>
      <trkpt lat="46.26268" lon="4.66452">
        <ele>631</ele>
        <time>2014-09-28T09:23:44Z</time>
      </trkpt>
      <trkpt lat="46.26271" lon="4.66459">
        <ele>632</ele>
        <time>2014-09-28T09:23:46Z</time>
      </trkpt>
      <trkpt lat="46.26273" lon="4.66463">
        <ele>632</ele>
        <time>2014-09-28T09:23:47Z</time>
      </trkpt>
      <trkpt lat="46.26277" lon="4.6647">
        <ele>632</ele>
        <time>2014-09-28T09:23:49Z</time>
      </trkpt>
      <trkpt lat="46.26279" lon="4.66474">
        <ele>633</ele>
        <time>2014-09-28T09:23:50Z</time>
      </trkpt>
      <trkpt lat="46.26282" lon="4.66481">
        <ele>633</ele>
        <time>2014-09-28T09:23:52Z</time>
      </trkpt>
      <trkpt lat="46.26284" lon="4.66484">
        <ele>633</ele>
        <time>2014-09-28T09:23:53Z</time>
      </trkpt>
      <trkpt lat="46.26289" lon="4.6649">
        <ele>633</ele>
        <time>2014-09-28T09:23:55Z</time>
      </trkpt>
      <trkpt lat="46.26291" lon="4.66493">
        <ele>633</ele>
        <time>2014-09-28T09:23:56Z</time>
      </trkpt>
      <trkpt lat="46.26294" lon="4.665">
        <ele>639</ele>
        <time>2014-09-28T09:23:58Z</time>
      </trkpt>
      <trkpt lat="46.26296" lon="4.66504">
        <ele>639</ele>
        <time>2014-09-28T09:23:59Z</time>
      </trkpt>
      <trkpt lat="46.26301" lon="4.66514">
        <ele>639</ele>
        <time>2014-09-28T09:24:02Z</time>
      </trkpt>
      <trkpt lat="46.26303" lon="4.66518">
        <ele>639</ele>
        <time>2014-09-28T09:24:03Z</time>
      </trkpt>
      <trkpt lat="46.26307" lon="4.66529">
        <ele>639</ele>
        <time>2014-09-28T09:24:06Z</time>
      </trkpt>
      <trkpt lat="46.26309" lon="4.66532">
        <ele>640</ele>
        <time>2014-09-28T09:24:07Z</time>
      </trkpt>
      <trkpt lat="46.26313" lon="4.66543">
        <ele>640</ele>
        <time>2014-09-28T09:24:10Z</time>
      </trkpt>
      <trkpt lat="46.26314" lon="4.66547">
        <ele>640</ele>
        <time>2014-09-28T09:24:11Z</time>
      </trkpt>
      <trkpt lat="46.26318" lon="4.66557">
        <ele>641</ele>
        <time>2014-09-28T09:24:14Z</time>
      </trkpt>
      <trkpt lat="46.2632" lon="4.66561">
        <ele>641</ele>
        <time>2014-09-28T09:24:15Z</time>
      </trkpt>
      <trkpt lat="46.26326" lon="4.66569">
        <ele>641</ele>
        <time>2014-09-28T09:24:18Z</time>
      </trkpt>
      <trkpt lat="46.26328" lon="4.66572">
        <ele>641</ele>
        <time>2014-09-28T09:24:19Z</time>
      </trkpt>
      <trkpt lat="46.26334" lon="4.6658">
        <ele>640</ele>
        <time>2014-09-28T09:24:22Z</time>
      </trkpt>
      <trkpt lat="46.26336" lon="4.66582">
        <ele>640</ele>
        <time>2014-09-28T09:24:23Z</time>
      </trkpt>
      <trkpt lat="46.26342" lon="4.6659">
        <ele>642</ele>
        <time>2014-09-28T09:24:26Z</time>
      </trkpt>
      <trkpt lat="46.26345" lon="4.66592">
        <ele>642</ele>
        <time>2014-09-28T09:24:27Z</time>
      </trkpt>
      <trkpt lat="46.26352" lon="4.66598">
        <ele>643</ele>
        <time>2014-09-28T09:24:30Z</time>
      </trkpt>
      <trkpt lat="46.26355" lon="4.666">
        <ele>643</ele>
        <time>2014-09-28T09:24:31Z</time>
      </trkpt>
      <trkpt lat="46.26362" lon="4.66605">
        <ele>643</ele>
        <time>2014-09-28T09:24:34Z</time>
      </trkpt>
      <trkpt lat="46.26365" lon="4.66606">
        <ele>643</ele>
        <time>2014-09-28T09:24:35Z</time>
      </trkpt>
      <trkpt lat="46.26372" lon="4.66613">
        <ele>644</ele>
        <time>2014-09-28T09:24:38Z</time>
      </trkpt>
      <trkpt lat="46.26375" lon="4.66615">
        <ele>644</ele>
        <time>2014-09-28T09:24:39Z</time>
      </trkpt>
      <trkpt lat="46.26382" lon="4.66621">
        <ele>644</ele>
        <time>2014-09-28T09:24:42Z</time>
      </trkpt>
      <trkpt lat="46.26385" lon="4.66623">
        <ele>644</ele>
        <time>2014-09-28T09:24:43Z</time>
      </trkpt>
      <trkpt lat="46.26393" lon="4.66628">
        <ele>644</ele>
        <time>2014-09-28T09:24:46Z</time>
      </trkpt>
      <trkpt lat="46.26396" lon="4.6663">
        <ele>644</ele>
        <time>2014-09-28T09:24:47Z</time>
      </trkpt>
      <trkpt lat="46.26401" lon="4.66635">
        <ele>644</ele>
        <time>2014-09-28T09:24:49Z</time>
      </trkpt>
      <trkpt lat="46.26404" lon="4.66637">
        <ele>644</ele>
        <time>2014-09-28T09:24:50Z</time>
      </trkpt>
      <trkpt lat="46.26411" lon="4.66642">
        <ele>644</ele>
        <time>2014-09-28T09:24:53Z</time>
      </trkpt>
      <trkpt lat="46.26413" lon="4.66645">
        <ele>645</ele>
        <time>2014-09-28T09:24:54Z</time>
      </trkpt>
      <trkpt lat="46.26421" lon="4.6665">
        <ele>644</ele>
        <time>2014-09-28T09:24:57Z</time>
      </trkpt>
      <trkpt lat="46.26423" lon="4.66653">
        <ele>644</ele>
        <time>2014-09-28T09:24:58Z</time>
      </trkpt>
      <trkpt lat="46.26428" lon="4.66659">
        <ele>644</ele>
        <time>2014-09-28T09:25:00Z</time>
      </trkpt>
      <trkpt lat="46.2643" lon="4.66662">
        <ele>644</ele>
        <time>2014-09-28T09:25:01Z</time>
      </trkpt>
      <trkpt lat="46.26434" lon="4.66669">
        <ele>648</ele>
        <time>2014-09-28T09:25:03Z</time>
      </trkpt>
      <trkpt lat="46.26436" lon="4.66673">
        <ele>648</ele>
        <time>2014-09-28T09:25:04Z</time>
      </trkpt>
      <trkpt lat="46.2644" lon="4.6668">
        <ele>649</ele>
        <time>2014-09-28T09:25:06Z</time>
      </trkpt>
      <trkpt lat="46.26441" lon="4.66684">
        <ele>649</ele>
        <time>2014-09-28T09:25:07Z</time>
      </trkpt>
      <trkpt lat="46.26445" lon="4.66696">
        <ele>650</ele>
        <time>2014-09-28T09:25:10Z</time>
      </trkpt>
      <trkpt lat="46.26446" lon="4.667">
        <ele>650</ele>
        <time>2014-09-28T09:25:11Z</time>
      </trkpt>
      <trkpt lat="46.26448" lon="4.66711">
        <ele>651</ele>
        <time>2014-09-28T09:25:14Z</time>
      </trkpt>
      <trkpt lat="46.26448" lon="4.66715">
        <ele>651</ele>
        <time>2014-09-28T09:25:15Z</time>
      </trkpt>
      <trkpt lat="46.26449" lon="4.66727">
        <ele>651</ele>
        <time>2014-09-28T09:25:18Z</time>
      </trkpt>
      <trkpt lat="46.26449" lon="4.66731">
        <ele>652</ele>
        <time>2014-09-28T09:25:19Z</time>
      </trkpt>
      <trkpt lat="46.26449" lon="4.66743">
        <ele>652</ele>
        <time>2014-09-28T09:25:22Z</time>
      </trkpt>
      <trkpt lat="46.26449" lon="4.66747">
        <ele>652</ele>
        <time>2014-09-28T09:25:23Z</time>
      </trkpt>
      <trkpt lat="46.26451" lon="4.66759">
        <ele>655</ele>
        <time>2014-09-28T09:25:26Z</time>
      </trkpt>
      <trkpt lat="46.26451" lon="4.66763">
        <ele>655</ele>
        <time>2014-09-28T09:25:27Z</time>
      </trkpt>
      <trkpt lat="46.26453" lon="4.66775">
        <ele>656</ele>
        <time>2014-09-28T09:25:30Z</time>
      </trkpt>
      <trkpt lat="46.26453" lon="4.66779">
        <ele>656</ele>
        <time>2014-09-28T09:25:31Z</time>
      </trkpt>
      <trkpt lat="46.26455" lon="4.6679">
        <ele>656</ele>
        <time>2014-09-28T09:25:34Z</time>
      </trkpt>
      <trkpt lat="46.26455" lon="4.66794">
        <ele>656</ele>
        <time>2014-09-28T09:25:35Z</time>
      </trkpt>
      <trkpt lat="46.26458" lon="4.66806">
        <ele>656</ele>
        <time>2014-09-28T09:25:38Z</time>
      </trkpt>
      <trkpt lat="46.26459" lon="4.6681">
        <ele>656</ele>
        <time>2014-09-28T09:25:39Z</time>
      </trkpt>
      <trkpt lat="46.26461" lon="4.66822">
        <ele>657</ele>
        <time>2014-09-28T09:25:42Z</time>
      </trkpt>
      <trkpt lat="46.26462" lon="4.66826">
        <ele>657</ele>
        <time>2014-09-28T09:25:43Z</time>
      </trkpt>
      <trkpt lat="46.26465" lon="4.66838">
        <ele>655</ele>
        <time>2014-09-28T09:25:46Z</time>
      </trkpt>
      <trkpt lat="46.26467" lon="4.66842">
        <ele>655</ele>
        <time>2014-09-28T09:25:47Z</time>
      </trkpt>
      <trkpt lat="46.26472" lon="4.66852">
        <ele>655</ele>
        <time>2014-09-28T09:25:50Z</time>
      </trkpt>
      <trkpt lat="46.26474" lon="4.66855">
        <ele>655</ele>
        <time>2014-09-28T09:25:51Z</time>
      </trkpt>
      <trkpt lat="46.26483" lon="4.66856">
        <ele>656</ele>
        <time>2014-09-28T09:25:54Z</time>
      </trkpt>
      <trkpt lat="46.26484" lon="4.66855">
        <ele>656</ele>
        <time>2014-09-28T09:25:55Z</time>
      </trkpt>
      <trkpt lat="46.2649" lon="4.66847">
        <ele>658</ele>
        <time>2014-09-28T09:25:59Z</time>
      </trkpt>
      <trkpt lat="46.26491" lon="4.66846">
        <ele>658</ele>
        <time>2014-09-28T09:26:00Z</time>
      </trkpt>
      <trkpt lat="46.26499" lon="4.6685">
        <ele>658</ele>
        <time>2014-09-28T09:26:25Z</time>
      </trkpt>
      <trkpt lat="46.265" lon="4.6685">
        <ele>664</ele>
        <time>2014-09-28T09:26:26Z</time>
      </trkpt>
      <trkpt lat="46.26507" lon="4.66842">
        <ele>664</ele>
        <time>2014-09-28T09:27:43Z</time>
      </trkpt>
      <trkpt lat="46.26508" lon="4.66841">
        <ele>664</ele>
        <time>2014-09-28T09:27:44Z</time>
      </trkpt>
      <trkpt lat="46.26516" lon="4.66837">
        <ele>665</ele>
        <time>2014-09-28T09:27:48Z</time>
      </trkpt>
      <trkpt lat="46.26518" lon="4.66836">
        <ele>665</ele>
        <time>2014-09-28T09:27:49Z</time>
      </trkpt>
      <trkpt lat="46.26526" lon="4.66833">
        <ele>666</ele>
        <time>2014-09-28T09:27:54Z</time>
      </trkpt>
      <trkpt lat="46.26527" lon="4.66832">
        <ele>665</ele>
        <time>2014-09-28T09:27:55Z</time>
      </trkpt>
      <trkpt lat="46.26533" lon="4.66827">
        <ele>665</ele>
        <time>2014-09-28T09:27:59Z</time>
      </trkpt>
      <trkpt lat="46.26535" lon="4.66826">
        <ele>665</ele>
        <time>2014-09-28T09:28:00Z</time>
      </trkpt>
      <trkpt lat="46.26542" lon="4.66821">
        <ele>666</ele>
        <time>2014-09-28T09:28:04Z</time>
      </trkpt>
      <trkpt lat="46.26544" lon="4.6682">
        <ele>666</ele>
        <time>2014-09-28T09:28:05Z</time>
      </trkpt>
      <trkpt lat="46.2655" lon="4.66814">
        <ele>667</ele>
        <time>2014-09-28T09:28:08Z</time>
      </trkpt>
      <trkpt lat="46.26552" lon="4.66812">
        <ele>667</ele>
        <time>2014-09-28T09:28:09Z</time>
      </trkpt>
      <trkpt lat="46.26557" lon="4.66807">
        <ele>667</ele>
        <time>2014-09-28T09:28:12Z</time>
      </trkpt>
      <trkpt lat="46.26559" lon="4.66804">
        <ele>667</ele>
        <time>2014-09-28T09:28:13Z</time>
      </trkpt>
      <trkpt lat="46.26566" lon="4.66796">
        <ele>667</ele>
        <time>2014-09-28T09:28:16Z</time>
      </trkpt>
      <trkpt lat="46.26568" lon="4.66794">
        <ele>667</ele>
        <time>2014-09-28T09:28:17Z</time>
      </trkpt>
      <trkpt lat="46.26573" lon="4.6679">
        <ele>667</ele>
        <time>2014-09-28T09:28:19Z</time>
      </trkpt>
      <trkpt lat="46.26576" lon="4.66787">
        <ele>667</ele>
        <time>2014-09-28T09:28:20Z</time>
      </trkpt>
      <trkpt lat="46.2658" lon="4.6678">
        <ele>667</ele>
        <time>2014-09-28T09:28:22Z</time>
      </trkpt>
      <trkpt lat="46.26582" lon="4.66776">
        <ele>667</ele>
        <time>2014-09-28T09:28:23Z</time>
      </trkpt>
      <trkpt lat="46.26587" lon="4.6677">
        <ele>677</ele>
        <time>2014-09-28T09:28:25Z</time>
      </trkpt>
      <trkpt lat="46.26589" lon="4.66767">
        <ele>676</ele>
        <time>2014-09-28T09:28:26Z</time>
      </trkpt>
      <trkpt lat="46.26595" lon="4.66761">
        <ele>676</ele>
        <time>2014-09-28T09:28:28Z</time>
      </trkpt>
      <trkpt lat="46.26597" lon="4.66759">
        <ele>676</ele>
        <time>2014-09-28T09:28:29Z</time>
      </trkpt>
      <trkpt lat="46.26602" lon="4.66754">
        <ele>677</ele>
        <time>2014-09-28T09:28:31Z</time>
      </trkpt>
      <trkpt lat="46.26605" lon="4.66752">
        <ele>678</ele>
        <time>2014-09-28T09:28:32Z</time>
      </trkpt>
      <trkpt lat="46.26614" lon="4.66751">
        <ele>681</ele>
        <time>2014-09-28T09:28:37Z</time>
      </trkpt>
      <trkpt lat="46.26615" lon="4.66751">
        <ele>681</ele>
        <time>2014-09-28T09:28:38Z</time>
      </trkpt>
      <trkpt lat="46.26623" lon="4.66753">
        <ele>683</ele>
        <time>2014-09-28T09:28:46Z</time>
      </trkpt>
      <trkpt lat="46.26624" lon="4.66753">
        <ele>683</ele>
        <time>2014-09-28T09:28:47Z</time>
      </trkpt>
      <trkpt lat="46.26631" lon="4.66745">
        <ele>679</ele>
        <time>2014-09-28T09:29:05Z</time>
      </trkpt>
      <trkpt lat="46.26631" lon="4.66745">
        <ele>679</ele>
        <time>2014-09-28T09:29:06Z</time>
      </trkpt>
      <trkpt lat="46.2664" lon="4.66744">
        <ele>681</ele>
        <time>2014-09-28T09:29:21Z</time>
      </trkpt>
      <trkpt lat="46.26641" lon="4.66743">
        <ele>681</ele>
        <time>2014-09-28T09:29:22Z</time>
      </trkpt>
      <trkpt lat="46.26649" lon="4.66738">
        <ele>683</ele>
        <time>2014-09-28T09:29:37Z</time>
      </trkpt>
      <trkpt lat="46.26649" lon="4.66738">
        <ele>683</ele>
        <time>2014-09-28T09:29:38Z</time>
      </trkpt>
      <trkpt lat="46.26657" lon="4.66735">
        <ele>684</ele>
        <time>2014-09-28T09:29:52Z</time>
      </trkpt>
      <trkpt lat="46.26658" lon="4.66735">
        <ele>684</ele>
        <time>2014-09-28T09:29:53Z</time>
      </trkpt>
      <trkpt lat="46.26666" lon="4.6673">
        <ele>684</ele>
        <time>2014-09-28T09:30:08Z</time>
      </trkpt>
      <trkpt lat="46.26667" lon="4.66729">
        <ele>684</ele>
        <time>2014-09-28T09:30:09Z</time>
      </trkpt>
      <trkpt lat="46.26674" lon="4.66723">
        <ele>698</ele>
        <time>2014-09-28T09:30:22Z</time>
      </trkpt>
      <trkpt lat="46.26675" lon="4.66723">
        <ele>698</ele>
        <time>2014-09-28T09:30:23Z</time>
      </trkpt>
      <trkpt lat="46.26683" lon="4.6672">
        <ele>699</ele>
        <time>2014-09-28T09:30:34Z</time>
      </trkpt>
      <trkpt lat="46.26684" lon="4.66719">
        <ele>699</ele>
        <time>2014-09-28T09:30:35Z</time>
      </trkpt>
      <trkpt lat="46.26692" lon="4.66722">
        <ele>700</ele>
        <time>2014-09-28T09:30:44Z</time>
      </trkpt>
      <trkpt lat="46.26693" lon="4.66723">
        <ele>700</ele>
        <time>2014-09-28T09:30:45Z</time>
      </trkpt>
      <trkpt lat="46.26701" lon="4.6672">
        <ele>701</ele>
        <time>2014-09-28T09:30:52Z</time>
      </trkpt>
      <trkpt lat="46.26702" lon="4.66719">
        <ele>702</ele>
        <time>2014-09-28T09:30:53Z</time>
      </trkpt>
      <trkpt lat="46.26709" lon="4.66712">
        <ele>702</ele>
        <time>2014-09-28T09:31:02Z</time>
      </trkpt>
      <trkpt lat="46.2671" lon="4.66711">
        <ele>702</ele>
        <time>2014-09-28T09:31:03Z</time>
      </trkpt>
      <trkpt lat="46.26717" lon="4.66705">
        <ele>703</ele>
        <time>2014-09-28T09:31:12Z</time>
      </trkpt>
      <trkpt lat="46.26718" lon="4.66705">
        <ele>703</ele>
        <time>2014-09-28T09:31:13Z</time>
      </trkpt>
      <trkpt lat="46.26726" lon="4.667">
        <ele>704</ele>
        <time>2014-09-28T09:31:28Z</time>
      </trkpt>
      <trkpt lat="46.26727" lon="4.667">
        <ele>705</ele>
        <time>2014-09-28T09:31:29Z</time>
      </trkpt>
      <trkpt lat="46.26735" lon="4.66695">
        <ele>705</ele>
        <time>2014-09-28T09:31:44Z</time>
      </trkpt>
      <trkpt lat="46.26735" lon="4.66695">
        <ele>705</ele>
        <time>2014-09-28T09:31:45Z</time>
      </trkpt>
      <trkpt lat="46.26744" lon="4.66694">
        <ele>706</ele>
        <time>2014-09-28T09:32:05Z</time>
      </trkpt>
      <trkpt lat="46.26744" lon="4.66694">
        <ele>706</ele>
        <time>2014-09-28T09:32:06Z</time>
      </trkpt>
      <trkpt lat="46.26752" lon="4.66693">
        <ele>720</ele>
        <time>2014-09-28T09:32:16Z</time>
      </trkpt>
      <trkpt lat="46.26753" lon="4.66693">
        <ele>720</ele>
        <time>2014-09-28T09:32:17Z</time>
      </trkpt>
      <trkpt lat="46.26761" lon="4.66691">
        <ele>721</ele>
        <time>2014-09-28T09:32:29Z</time>
      </trkpt>
      <trkpt lat="46.26763" lon="4.6669">
        <ele>721</ele>
        <time>2014-09-28T09:32:30Z</time>
      </trkpt>
      <trkpt lat="46.26768" lon="4.66683">
        <ele>720</ele>
        <time>2014-09-28T09:32:39Z</time>
      </trkpt>
      <trkpt lat="46.26771" lon="4.6668">
        <ele>721</ele>
        <time>2014-09-28T09:32:41Z</time>
      </trkpt>
      <trkpt lat="46.26778" lon="4.66673">
        <ele>721</ele>
        <time>2014-09-28T09:32:51Z</time>
      </trkpt>
      <trkpt lat="46.26779" lon="4.66672">
        <ele>721</ele>
        <time>2014-09-28T09:32:52Z</time>
      </trkpt>
      <trkpt lat="46.26786" lon="4.66666">
        <ele>716</ele>
        <time>2014-09-28T09:33:04Z</time>
      </trkpt>
      <trkpt lat="46.26787" lon="4.66666">
        <ele>716</ele>
        <time>2014-09-28T09:33:05Z</time>
      </trkpt>
      <trkpt lat="46.26795" lon="4.66663">
        <ele>717</ele>
        <time>2014-09-28T09:33:19Z</time>
      </trkpt>
      <trkpt lat="46.26797" lon="4.66662">
        <ele>717</ele>
        <time>2014-09-28T09:33:19Z</time>
      </trkpt>
      <trkpt lat="46.26805" lon="4.66659">
        <ele>719</ele>
        <time>2014-09-28T09:33:26Z</time>
      </trkpt>
      <trkpt lat="46.26806" lon="4.66659">
        <ele>719</ele>
        <time>2014-09-28T09:33:27Z</time>
      </trkpt>
      <trkpt lat="46.26814" lon="4.66658">
        <ele>721</ele>
        <time>2014-09-28T09:33:32Z</time>
      </trkpt>
      <trkpt lat="46.26815" lon="4.66658">
        <ele>721</ele>
        <time>2014-09-28T09:33:33Z</time>
      </trkpt>
      <trkpt lat="46.26823" lon="4.6666">
        <ele>724</ele>
        <time>2014-09-28T09:33:39Z</time>
      </trkpt>
      <trkpt lat="46.26824" lon="4.6666">
        <ele>724</ele>
        <time>2014-09-28T09:33:40Z</time>
      </trkpt>
      <trkpt lat="46.26833" lon="4.66657">
        <ele>725</ele>
        <time>2014-09-28T09:33:44Z</time>
      </trkpt>
      <trkpt lat="46.26835" lon="4.66656">
        <ele>730</ele>
        <time>2014-09-28T09:33:45Z</time>
      </trkpt>
      <trkpt lat="46.26843" lon="4.66653">
        <ele>730</ele>
        <time>2014-09-28T09:33:49Z</time>
      </trkpt>
      <trkpt lat="46.26844" lon="4.66654">
        <ele>730</ele>
        <time>2014-09-28T09:33:50Z</time>
      </trkpt>
      <trkpt lat="46.26852" lon="4.66655">
        <ele>730</ele>
        <time>2014-09-28T09:33:54Z</time>
      </trkpt>
      <trkpt lat="46.26854" lon="4.66654">
        <ele>730</ele>
        <time>2014-09-28T09:33:55Z</time>
      </trkpt>
      <trkpt lat="46.26862" lon="4.66651">
        <ele>730</ele>
        <time>2014-09-28T09:33:57Z</time>
      </trkpt>
      <trkpt lat="46.26865" lon="4.66649">
        <ele>730</ele>
        <time>2014-09-28T09:33:58Z</time>
      </trkpt>
      <trkpt lat="46.26872" lon="4.66646">
        <ele>731</ele>
        <time>2014-09-28T09:34:00Z</time>
      </trkpt>
      <trkpt lat="46.26876" lon="4.66645">
        <ele>731</ele>
        <time>2014-09-28T09:34:01Z</time>
      </trkpt>
      <trkpt lat="46.26882" lon="4.66644">
        <ele>731</ele>
        <time>2014-09-28T09:34:03Z</time>
      </trkpt>
      <trkpt lat="46.26886" lon="4.66643">
        <ele>731</ele>
        <time>2014-09-28T09:34:04Z</time>
      </trkpt>
      <trkpt lat="46.26893" lon="4.66643">
        <ele>732</ele>
        <time>2014-09-28T09:34:06Z</time>
      </trkpt>
      <trkpt lat="46.26897" lon="4.66644">
        <ele>732</ele>
        <time>2014-09-28T09:34:07Z</time>
      </trkpt>
      <trkpt lat="46.26901" lon="4.66651">
        <ele>733</ele>
        <time>2014-09-28T09:34:09Z</time>
      </trkpt>
      <trkpt lat="46.26903" lon="4.66656">
        <ele>733</ele>
        <time>2014-09-28T09:34:10Z</time>
      </trkpt>
      <trkpt lat="46.26905" lon="4.66665">
        <ele>734</ele>
        <time>2014-09-28T09:34:12Z</time>
      </trkpt>
      <trkpt lat="46.26906" lon="4.66669">
        <ele>736</ele>
        <time>2014-09-28T09:34:13Z</time>
      </trkpt>
      <trkpt lat="46.26908" lon="4.6668">
        <ele>736</ele>
        <time>2014-09-28T09:34:15Z</time>
      </trkpt>
      <trkpt lat="46.26909" lon="4.66686">
        <ele>736</ele>
        <time>2014-09-28T09:34:16Z</time>
      </trkpt>
      <trkpt lat="46.26909" lon="4.66699">
        <ele>736</ele>
        <time>2014-09-28T09:34:18Z</time>
      </trkpt>
      <trkpt lat="46.2691" lon="4.66705">
        <ele>737</ele>
        <time>2014-09-28T09:34:19Z</time>
      </trkpt>
      <trkpt lat="46.26911" lon="4.66711">
        <ele>737</ele>
        <time>2014-09-28T09:34:20Z</time>
      </trkpt>
      <trkpt lat="46.26913" lon="4.66717">
        <ele>737</ele>
        <time>2014-09-28T09:34:21Z</time>
      </trkpt>
      <trkpt lat="46.26916" lon="4.66729">
        <ele>738</ele>
        <time>2014-09-28T09:34:23Z</time>
      </trkpt>
      <trkpt lat="46.26917" lon="4.66735">
        <ele>737</ele>
        <time>2014-09-28T09:34:24Z</time>
      </trkpt>
      <trkpt lat="46.26918" lon="4.66746">
        <ele>738</ele>
        <time>2014-09-28T09:34:26Z</time>
      </trkpt>
      <trkpt lat="46.26918" lon="4.66752">
        <ele>739</ele>
        <time>2014-09-28T09:34:27Z</time>
      </trkpt>
      <trkpt lat="46.26919" lon="4.66761">
        <ele>737</ele>
        <time>2014-09-28T09:34:29Z</time>
      </trkpt>
      <trkpt lat="46.26921" lon="4.66766">
        <ele>736</ele>
        <time>2014-09-28T09:34:30Z</time>
      </trkpt>
      <trkpt lat="46.26923" lon="4.66778">
        <ele>736</ele>
        <time>2014-09-28T09:34:32Z</time>
      </trkpt>
      <trkpt lat="46.26924" lon="4.66784">
        <ele>735</ele>
        <time>2014-09-28T09:34:33Z</time>
      </trkpt>
      <trkpt lat="46.26926" lon="4.66795">
        <ele>735</ele>
        <time>2014-09-28T09:34:35Z</time>
      </trkpt>
      <trkpt lat="46.26927" lon="4.668">
        <ele>735</ele>
        <time>2014-09-28T09:34:36Z</time>
      </trkpt>
      <trkpt lat="46.26931" lon="4.66807">
        <ele>735</ele>
        <time>2014-09-28T09:34:38Z</time>
      </trkpt>
      <trkpt lat="46.26935" lon="4.66807">
        <ele>735</ele>
        <time>2014-09-28T09:34:39Z</time>
      </trkpt>
      <trkpt lat="46.2694" lon="4.66805">
        <ele>735</ele>
        <time>2014-09-28T09:34:40Z</time>
      </trkpt>
      <trkpt lat="46.26945" lon="4.66803">
        <ele>734</ele>
        <time>2014-09-28T09:34:41Z</time>
      </trkpt>
      <trkpt lat="46.2695" lon="4.66802">
        <ele>734</ele>
        <time>2014-09-28T09:34:42Z</time>
      </trkpt>
      <trkpt lat="46.26954" lon="4.66802">
        <ele>733</ele>
        <time>2014-09-28T09:34:43Z</time>
      </trkpt>
      <trkpt lat="46.2696" lon="4.66805">
        <ele>733</ele>
        <time>2014-09-28T09:34:45Z</time>
      </trkpt>
      <trkpt lat="46.26963" lon="4.66807">
        <ele>732</ele>
        <time>2014-09-28T09:34:46Z</time>
      </trkpt>
      <trkpt lat="46.26966" lon="4.66814">
        <ele>732</ele>
        <time>2014-09-28T09:34:48Z</time>
      </trkpt>
      <trkpt lat="46.26967" lon="4.66821">
        <ele>732</ele>
        <time>2014-09-28T09:34:49Z</time>
      </trkpt>
      <trkpt lat="46.26971" lon="4.66837">
        <ele>729</ele>
        <time>2014-09-28T09:34:50Z</time>
      </trkpt>
      <trkpt lat="46.26973" lon="4.66844">
        <ele>729</ele>
        <time>2014-09-28T09:34:51Z</time>
      </trkpt>
      <trkpt lat="46.26975" lon="4.66851">
        <ele>729</ele>
        <time>2014-09-28T09:34:52Z</time>
      </trkpt>
      <trkpt lat="46.26977" lon="4.66857">
        <ele>729</ele>
        <time>2014-09-28T09:34:53Z</time>
      </trkpt>
      <trkpt lat="46.26981" lon="4.66868">
        <ele>729</ele>
        <time>2014-09-28T09:34:54Z</time>
      </trkpt>
      <trkpt lat="46.26983" lon="4.66877">
        <ele>729</ele>
        <time>2014-09-28T09:34:55Z</time>
      </trkpt>
      <trkpt lat="46.26987" lon="4.66884">
        <ele>728</ele>
        <time>2014-09-28T09:34:56Z</time>
      </trkpt>
      <trkpt lat="46.2699" lon="4.66892">
        <ele>728</ele>
        <time>2014-09-28T09:34:57Z</time>
      </trkpt>
      <trkpt lat="46.26992" lon="4.66899">
        <ele>727</ele>
        <time>2014-09-28T09:34:58Z</time>
      </trkpt>
      <trkpt lat="46.26994" lon="4.66907">
        <ele>726</ele>
        <time>2014-09-28T09:34:59Z</time>
      </trkpt>
      <trkpt lat="46.26996" lon="4.66914">
        <ele>724</ele>
        <time>2014-09-28T09:35:00Z</time>
      </trkpt>
      <trkpt lat="46.26999" lon="4.66919">
        <ele>723</ele>
        <time>2014-09-28T09:35:01Z</time>
      </trkpt>
      <trkpt lat="46.27002" lon="4.66925">
        <ele>719</ele>
        <time>2014-09-28T09:35:02Z</time>
      </trkpt>
      <trkpt lat="46.27004" lon="4.66936">
        <ele>716</ele>
        <time>2014-09-28T09:35:04Z</time>
      </trkpt>
      <trkpt lat="46.27005" lon="4.66943">
        <ele>715</ele>
        <time>2014-09-28T09:35:05Z</time>
      </trkpt>
      <trkpt lat="46.27003" lon="4.66951">
        <ele>714</ele>
        <time>2014-09-28T09:35:06Z</time>
      </trkpt>
      <trkpt lat="46.27002" lon="4.66959">
        <ele>714</ele>
        <time>2014-09-28T09:35:07Z</time>
      </trkpt>
      <trkpt lat="46.27" lon="4.66968">
        <ele>714</ele>
        <time>2014-09-28T09:35:08Z</time>
      </trkpt>
      <trkpt lat="46.26999" lon="4.66975">
        <ele>722</ele>
        <time>2014-09-28T09:35:09Z</time>
      </trkpt>
      <trkpt lat="46.26999" lon="4.66982">
        <ele>721</ele>
        <time>2014-09-28T09:35:10Z</time>
      </trkpt>
      <trkpt lat="46.26999" lon="4.6699">
        <ele>720</ele>
        <time>2014-09-28T09:35:11Z</time>
      </trkpt>
      <trkpt lat="46.26997" lon="4.66999">
        <ele>718</ele>
        <time>2014-09-28T09:35:12Z</time>
      </trkpt>
      <trkpt lat="46.26995" lon="4.67007">
        <ele>716</ele>
        <time>2014-09-28T09:35:13Z</time>
      </trkpt>
      <trkpt lat="46.26992" lon="4.67011">
        <ele>716</ele>
        <time>2014-09-28T09:35:14Z</time>
      </trkpt>
      <trkpt lat="46.26989" lon="4.67018">
        <ele>716</ele>
        <time>2014-09-28T09:35:15Z</time>
      </trkpt>
      <trkpt lat="46.26991" lon="4.67027">
        <ele>715</ele>
        <time>2014-09-28T09:35:16Z</time>
      </trkpt>
      <trkpt lat="46.26991" lon="4.67034">
        <ele>715</ele>
        <time>2014-09-28T09:35:17Z</time>
      </trkpt>
      <trkpt lat="46.2699" lon="4.67045">
        <ele>714</ele>
        <time>2014-09-28T09:35:18Z</time>
      </trkpt>
      <trkpt lat="46.26989" lon="4.67054">
        <ele>713</ele>
        <time>2014-09-28T09:35:19Z</time>
      </trkpt>
      <trkpt lat="46.26988" lon="4.67064">
        <ele>712</ele>
        <time>2014-09-28T09:35:20Z</time>
      </trkpt>
      <trkpt lat="46.26988" lon="4.67073">
        <ele>711</ele>
        <time>2014-09-28T09:35:21Z</time>
      </trkpt>
      <trkpt lat="46.26987" lon="4.67083">
        <ele>710</ele>
        <time>2014-09-28T09:35:22Z</time>
      </trkpt>
      <trkpt lat="46.26987" lon="4.67093">
        <ele>705</ele>
        <time>2014-09-28T09:35:23Z</time>
      </trkpt>
      <trkpt lat="46.26985" lon="4.67103">
        <ele>704</ele>
        <time>2014-09-28T09:35:24Z</time>
      </trkpt>
      <trkpt lat="46.26983" lon="4.67112">
        <ele>703</ele>
        <time>2014-09-28T09:35:25Z</time>
      </trkpt>
      <trkpt lat="46.2698" lon="4.67122">
        <ele>702</ele>
        <time>2014-09-28T09:35:26Z</time>
      </trkpt>
      <trkpt lat="46.26976" lon="4.67132">
        <ele>701</ele>
        <time>2014-09-28T09:35:27Z</time>
      </trkpt>
      <trkpt lat="46.26973" lon="4.67142">
        <ele>700</ele>
        <time>2014-09-28T09:35:28Z</time>
      </trkpt>
      <trkpt lat="46.2697" lon="4.67151">
        <ele>700</ele>
        <time>2014-09-28T09:35:29Z</time>
      </trkpt>
      <trkpt lat="46.26967" lon="4.67161">
        <ele>700</ele>
        <time>2014-09-28T09:35:30Z</time>
      </trkpt>
      <trkpt lat="46.26964" lon="4.67169">
        <ele>694</ele>
        <time>2014-09-28T09:35:31Z</time>
      </trkpt>
      <trkpt lat="46.2696" lon="4.67178">
        <ele>694</ele>
        <time>2014-09-28T09:35:32Z</time>
      </trkpt>
      <trkpt lat="46.26956" lon="4.67185">
        <ele>694</ele>
        <time>2014-09-28T09:35:33Z</time>
      </trkpt>
      <trkpt lat="46.26953" lon="4.67193">
        <ele>694</ele>
        <time>2014-09-28T09:35:34Z</time>
      </trkpt>
      <trkpt lat="46.26951" lon="4.67201">
        <ele>694</ele>
        <time>2014-09-28T09:35:35Z</time>
      </trkpt>
      <trkpt lat="46.26951" lon="4.6721">
        <ele>693</ele>
        <time>2014-09-28T09:35:36Z</time>
      </trkpt>
      <trkpt lat="46.26951" lon="4.67217">
        <ele>693</ele>
        <time>2014-09-28T09:35:37Z</time>
      </trkpt>
      <trkpt lat="46.26951" lon="4.67228">
        <ele>693</ele>
        <time>2014-09-28T09:35:39Z</time>
      </trkpt>
      <trkpt lat="46.26951" lon="4.6723">
        <ele>693</ele>
        <time>2014-09-28T09:35:40Z</time>
      </trkpt>
      <trkpt lat="46.26954" lon="4.67242">
        <ele>693</ele>
        <time>2014-09-28T09:42:08Z</time>
      </trkpt>
      <trkpt lat="46.26953" lon="4.67245">
        <ele>693</ele>
        <time>2014-09-28T09:42:09Z</time>
      </trkpt>
      <trkpt lat="46.26955" lon="4.67255">
        <ele>690</ele>
        <time>2014-09-28T09:42:12Z</time>
      </trkpt>
      <trkpt lat="46.26956" lon="4.67257">
        <ele>690</ele>
        <time>2014-09-28T09:42:13Z</time>
      </trkpt>
      <trkpt lat="46.26963" lon="4.67265">
        <ele>690</ele>
        <time>2014-09-28T09:42:19Z</time>
      </trkpt>
      <trkpt lat="46.26965" lon="4.67266">
        <ele>690</ele>
        <time>2014-09-28T09:42:20Z</time>
      </trkpt>
      <trkpt lat="46.26971" lon="4.67273">
        <ele>690</ele>
        <time>2014-09-28T09:42:23Z</time>
      </trkpt>
      <trkpt lat="46.26973" lon="4.67275">
        <ele>690</ele>
        <time>2014-09-28T09:42:24Z</time>
      </trkpt>
      <trkpt lat="46.2698" lon="4.67283">
        <ele>690</ele>
        <time>2014-09-28T09:42:27Z</time>
      </trkpt>
      <trkpt lat="46.26984" lon="4.67285">
        <ele>690</ele>
        <time>2014-09-28T09:42:28Z</time>
      </trkpt>
      <trkpt lat="46.26993" lon="4.67287">
        <ele>690</ele>
        <time>2014-09-28T09:42:30Z</time>
      </trkpt>
      <trkpt lat="46.26997" lon="4.67289">
        <ele>690</ele>
        <time>2014-09-28T09:42:31Z</time>
      </trkpt>
      <trkpt lat="46.27001" lon="4.67291">
        <ele>690</ele>
        <time>2014-09-28T09:42:32Z</time>
      </trkpt>
      <trkpt lat="46.27007" lon="4.67294">
        <ele>690</ele>
        <time>2014-09-28T09:42:33Z</time>
      </trkpt>
      <trkpt lat="46.27012" lon="4.67296">
        <ele>690</ele>
        <time>2014-09-28T09:42:34Z</time>
      </trkpt>
      <trkpt lat="46.27016" lon="4.67298">
        <ele>690</ele>
        <time>2014-09-28T09:42:35Z</time>
      </trkpt>
      <trkpt lat="46.27021" lon="4.67301">
        <ele>690</ele>
        <time>2014-09-28T09:42:36Z</time>
      </trkpt>
      <trkpt lat="46.27026" lon="4.67304">
        <ele>690</ele>
        <time>2014-09-28T09:42:37Z</time>
      </trkpt>
      <trkpt lat="46.27031" lon="4.67307">
        <ele>690</ele>
        <time>2014-09-28T09:42:38Z</time>
      </trkpt>
      <trkpt lat="46.27036" lon="4.6731">
        <ele>690</ele>
        <time>2014-09-28T09:42:39Z</time>
      </trkpt>
      <trkpt lat="46.27041" lon="4.67313">
        <ele>690</ele>
        <time>2014-09-28T09:42:40Z</time>
      </trkpt>
      <trkpt lat="46.27047" lon="4.67317">
        <ele>689</ele>
        <time>2014-09-28T09:42:41Z</time>
      </trkpt>
      <trkpt lat="46.27052" lon="4.67321">
        <ele>689</ele>
        <time>2014-09-28T09:42:42Z</time>
      </trkpt>
      <trkpt lat="46.27058" lon="4.67325">
        <ele>689</ele>
        <time>2014-09-28T09:42:43Z</time>
      </trkpt>
      <trkpt lat="46.27064" lon="4.67329">
        <ele>689</ele>
        <time>2014-09-28T09:42:44Z</time>
      </trkpt>
      <trkpt lat="46.2707" lon="4.67333">
        <ele>689</ele>
        <time>2014-09-28T09:42:45Z</time>
      </trkpt>
      <trkpt lat="46.27076" lon="4.67336">
        <ele>689</ele>
        <time>2014-09-28T09:42:46Z</time>
      </trkpt>
      <trkpt lat="46.27082" lon="4.67339">
        <ele>688</ele>
        <time>2014-09-28T09:42:47Z</time>
      </trkpt>
      <trkpt lat="46.27089" lon="4.67342">
        <ele>688</ele>
        <time>2014-09-28T09:42:48Z</time>
      </trkpt>
      <trkpt lat="46.27096" lon="4.67344">
        <ele>687</ele>
        <time>2014-09-28T09:42:49Z</time>
      </trkpt>
      <trkpt lat="46.27103" lon="4.67348">
        <ele>687</ele>
        <time>2014-09-28T09:42:50Z</time>
      </trkpt>
      <trkpt lat="46.2711" lon="4.67351">
        <ele>687</ele>
        <time>2014-09-28T09:42:51Z</time>
      </trkpt>
      <trkpt lat="46.27118" lon="4.67355">
        <ele>687</ele>
        <time>2014-09-28T09:42:52Z</time>
      </trkpt>
      <trkpt lat="46.27125" lon="4.67358">
        <ele>687</ele>
        <time>2014-09-28T09:42:53Z</time>
      </trkpt>
      <trkpt lat="46.27132" lon="4.67362">
        <ele>687</ele>
        <time>2014-09-28T09:42:54Z</time>
      </trkpt>
      <trkpt lat="46.27139" lon="4.67367">
        <ele>686</ele>
        <time>2014-09-28T09:42:55Z</time>
      </trkpt>
      <trkpt lat="46.27146" lon="4.67374">
        <ele>686</ele>
        <time>2014-09-28T09:42:56Z</time>
      </trkpt>
      <trkpt lat="46.27153" lon="4.6738">
        <ele>686</ele>
        <time>2014-09-28T09:42:57Z</time>
      </trkpt>
      <trkpt lat="46.27161" lon="4.67386">
        <ele>686</ele>
        <time>2014-09-28T09:42:58Z</time>
      </trkpt>
      <trkpt lat="46.27167" lon="4.67393">
        <ele>684</ele>
        <time>2014-09-28T09:42:59Z</time>
      </trkpt>
      <trkpt lat="46.27174" lon="4.67399">
        <ele>684</ele>
        <time>2014-09-28T09:43:00Z</time>
      </trkpt>
      <trkpt lat="46.27181" lon="4.67406">
        <ele>684</ele>
        <time>2014-09-28T09:43:01Z</time>
      </trkpt>
      <trkpt lat="46.27188" lon="4.67413">
        <ele>684</ele>
        <time>2014-09-28T09:43:02Z</time>
      </trkpt>
      <trkpt lat="46.27195" lon="4.67419">
        <ele>683</ele>
        <time>2014-09-28T09:43:03Z</time>
      </trkpt>
      <trkpt lat="46.27202" lon="4.67425">
        <ele>683</ele>
        <time>2014-09-28T09:43:04Z</time>
      </trkpt>
      <trkpt lat="46.27209" lon="4.67431">
        <ele>682</ele>
        <time>2014-09-28T09:43:05Z</time>
      </trkpt>
      <trkpt lat="46.27216" lon="4.67438">
        <ele>682</ele>
        <time>2014-09-28T09:43:06Z</time>
      </trkpt>
      <trkpt lat="46.27223" lon="4.67445">
        <ele>682</ele>
        <time>2014-09-28T09:43:07Z</time>
      </trkpt>
      <trkpt lat="46.27231" lon="4.67453">
        <ele>681</ele>
        <time>2014-09-28T09:43:08Z</time>
      </trkpt>
      <trkpt lat="46.27238" lon="4.6746">
        <ele>681</ele>
        <time>2014-09-28T09:43:09Z</time>
      </trkpt>
      <trkpt lat="46.27245" lon="4.67468">
        <ele>680</ele>
        <time>2014-09-28T09:43:10Z</time>
      </trkpt>
      <trkpt lat="46.27253" lon="4.67475">
        <ele>676</ele>
        <time>2014-09-28T09:43:11Z</time>
      </trkpt>
      <trkpt lat="46.27261" lon="4.67482">
        <ele>676</ele>
        <time>2014-09-28T09:43:12Z</time>
      </trkpt>
      <trkpt lat="46.2727" lon="4.67489">
        <ele>676</ele>
        <time>2014-09-28T09:43:13Z</time>
      </trkpt>
      <trkpt lat="46.27279" lon="4.67493">
        <ele>676</ele>
        <time>2014-09-28T09:43:14Z</time>
      </trkpt>
      <trkpt lat="46.27289" lon="4.67494">
        <ele>676</ele>
        <time>2014-09-28T09:43:15Z</time>
      </trkpt>
      <trkpt lat="46.27299" lon="4.67493">
        <ele>675</ele>
        <time>2014-09-28T09:43:16Z</time>
      </trkpt>
      <trkpt lat="46.27309" lon="4.67491">
        <ele>675</ele>
        <time>2014-09-28T09:43:17Z</time>
      </trkpt>
      <trkpt lat="46.27319" lon="4.67489">
        <ele>675</ele>
        <time>2014-09-28T09:43:18Z</time>
      </trkpt>
      <trkpt lat="46.27329" lon="4.67488">
        <ele>674</ele>
        <time>2014-09-28T09:43:19Z</time>
      </trkpt>
      <trkpt lat="46.27339" lon="4.67486">
        <ele>674</ele>
        <time>2014-09-28T09:43:20Z</time>
      </trkpt>
      <trkpt lat="46.27348" lon="4.67486">
        <ele>675</ele>
        <time>2014-09-28T09:43:21Z</time>
      </trkpt>
      <trkpt lat="46.27357" lon="4.67491">
        <ele>675</ele>
        <time>2014-09-28T09:43:22Z</time>
      </trkpt>
      <trkpt lat="46.27366" lon="4.67495">
        <ele>675</ele>
        <time>2014-09-28T09:43:23Z</time>
      </trkpt>
      <trkpt lat="46.27373" lon="4.67501">
        <ele>674</ele>
        <time>2014-09-28T09:43:24Z</time>
      </trkpt>
      <trkpt lat="46.2738" lon="4.67509">
        <ele>674</ele>
        <time>2014-09-28T09:43:25Z</time>
      </trkpt>
      <trkpt lat="46.27386" lon="4.67516">
        <ele>674</ele>
        <time>2014-09-28T09:43:26Z</time>
      </trkpt>
      <trkpt lat="46.27391" lon="4.67524">
        <ele>674</ele>
        <time>2014-09-28T09:43:27Z</time>
      </trkpt>
      <trkpt lat="46.27395" lon="4.67531">
        <ele>674</ele>
        <time>2014-09-28T09:43:28Z</time>
      </trkpt>
      <trkpt lat="46.27398" lon="4.67539">
        <ele>674</ele>
        <time>2014-09-28T09:43:29Z</time>
      </trkpt>
      <trkpt lat="46.27401" lon="4.67548">
        <ele>673</ele>
        <time>2014-09-28T09:43:30Z</time>
      </trkpt>
      <trkpt lat="46.27404" lon="4.67556">
        <ele>673</ele>
        <time>2014-09-28T09:43:31Z</time>
      </trkpt>
      <trkpt lat="46.27406" lon="4.67565">
        <ele>673</ele>
        <time>2014-09-28T09:43:32Z</time>
      </trkpt>
      <trkpt lat="46.27406" lon="4.67573">
        <ele>673</ele>
        <time>2014-09-28T09:43:33Z</time>
      </trkpt>
      <trkpt lat="46.27407" lon="4.67581">
        <ele>674</ele>
        <time>2014-09-28T09:43:34Z</time>
      </trkpt>
      <trkpt lat="46.27408" lon="4.6759">
        <ele>672</ele>
        <time>2014-09-28T09:43:35Z</time>
      </trkpt>
      <trkpt lat="46.27409" lon="4.67598">
        <ele>671</ele>
        <time>2014-09-28T09:43:36Z</time>
      </trkpt>
      <trkpt lat="46.27409" lon="4.67608">
        <ele>670</ele>
        <time>2014-09-28T09:43:37Z</time>
      </trkpt>
      <trkpt lat="46.27408" lon="4.67617">
        <ele>669</ele>
        <time>2014-09-28T09:43:38Z</time>
      </trkpt>
      <trkpt lat="46.27407" lon="4.67627">
        <ele>669</ele>
        <time>2014-09-28T09:43:39Z</time>
      </trkpt>
      <trkpt lat="46.27407" lon="4.67638">
        <ele>669</ele>
        <time>2014-09-28T09:43:40Z</time>
      </trkpt>
      <trkpt lat="46.27408" lon="4.67648">
        <ele>669</ele>
        <time>2014-09-28T09:43:41Z</time>
      </trkpt>
      <trkpt lat="46.27408" lon="4.67658">
        <ele>669</ele>
        <time>2014-09-28T09:43:42Z</time>
      </trkpt>
      <trkpt lat="46.27407" lon="4.67669">
        <ele>667</ele>
        <time>2014-09-28T09:43:43Z</time>
      </trkpt>
      <trkpt lat="46.27405" lon="4.6768">
        <ele>666</ele>
        <time>2014-09-28T09:43:44Z</time>
      </trkpt>
      <trkpt lat="46.27404" lon="4.67692">
        <ele>665</ele>
        <time>2014-09-28T09:43:45Z</time>
      </trkpt>
      <trkpt lat="46.27402" lon="4.67704">
        <ele>664</ele>
        <time>2014-09-28T09:43:46Z</time>
      </trkpt>
      <trkpt lat="46.27399" lon="4.67715">
        <ele>664</ele>
        <time>2014-09-28T09:43:47Z</time>
      </trkpt>
      <trkpt lat="46.27396" lon="4.67727">
        <ele>664</ele>
        <time>2014-09-28T09:43:48Z</time>
      </trkpt>
      <trkpt lat="46.27394" lon="4.67738">
        <ele>664</ele>
        <time>2014-09-28T09:43:49Z</time>
      </trkpt>
      <trkpt lat="46.27391" lon="4.67751">
        <ele>662</ele>
        <time>2014-09-28T09:43:50Z</time>
      </trkpt>
      <trkpt lat="46.27389" lon="4.67763">
        <ele>661</ele>
        <time>2014-09-28T09:43:51Z</time>
      </trkpt>
      <trkpt lat="46.27387" lon="4.67775">
        <ele>660</ele>
        <time>2014-09-28T09:43:52Z</time>
      </trkpt>
      <trkpt lat="46.27387" lon="4.67787">
        <ele>660</ele>
        <time>2014-09-28T09:43:53Z</time>
      </trkpt>
      <trkpt lat="46.27386" lon="4.67798">
        <ele>659</ele>
        <time>2014-09-28T09:43:54Z</time>
      </trkpt>
      <trkpt lat="46.27386" lon="4.6781">
        <ele>659</ele>
        <time>2014-09-28T09:43:55Z</time>
      </trkpt>
      <trkpt lat="46.27385" lon="4.6782">
        <ele>659</ele>
        <time>2014-09-28T09:43:56Z</time>
      </trkpt>
      <trkpt lat="46.27385" lon="4.67833">
        <ele>659</ele>
        <time>2014-09-28T09:43:57Z</time>
      </trkpt>
      <trkpt lat="46.27387" lon="4.67846">
        <ele>653</ele>
        <time>2014-09-28T09:43:58Z</time>
      </trkpt>
      <trkpt lat="46.27388" lon="4.67858">
        <ele>652</ele>
        <time>2014-09-28T09:43:59Z</time>
      </trkpt>
      <trkpt lat="46.27391" lon="4.67868">
        <ele>651</ele>
        <time>2014-09-28T09:44:00Z</time>
      </trkpt>
      <trkpt lat="46.27393" lon="4.67879">
        <ele>650</ele>
        <time>2014-09-28T09:44:01Z</time>
      </trkpt>
      <trkpt lat="46.27395" lon="4.67891">
        <ele>650</ele>
        <time>2014-09-28T09:44:02Z</time>
      </trkpt>
      <trkpt lat="46.27398" lon="4.679">
        <ele>650</ele>
        <time>2014-09-28T09:44:03Z</time>
      </trkpt>
      <trkpt lat="46.274" lon="4.67912">
        <ele>650</ele>
        <time>2014-09-28T09:44:04Z</time>
      </trkpt>
      <trkpt lat="46.27405" lon="4.6792">
        <ele>645</ele>
        <time>2014-09-28T09:44:05Z</time>
      </trkpt>
      <trkpt lat="46.27408" lon="4.67929">
        <ele>644</ele>
        <time>2014-09-28T09:44:06Z</time>
      </trkpt>
      <trkpt lat="46.27409" lon="4.67941">
        <ele>640</ele>
        <time>2014-09-28T09:44:23Z</time>
      </trkpt>
      <trkpt lat="46.2741" lon="4.67947">
        <ele>639</ele>
        <time>2014-09-28T09:44:24Z</time>
      </trkpt>
      <trkpt lat="46.27411" lon="4.67953">
        <ele>637</ele>
        <time>2014-09-28T09:44:25Z</time>
      </trkpt>
      <trkpt lat="46.27411" lon="4.67961">
        <ele>636</ele>
        <time>2014-09-28T09:44:26Z</time>
      </trkpt>
      <trkpt lat="46.27414" lon="4.67971">
        <ele>635</ele>
        <time>2014-09-28T09:44:28Z</time>
      </trkpt>
      <trkpt lat="46.27415" lon="4.67975">
        <ele>635</ele>
        <time>2014-09-28T09:44:29Z</time>
      </trkpt>
      <trkpt lat="46.27421" lon="4.67983">
        <ele>644</ele>
        <time>2014-09-28T09:44:32Z</time>
      </trkpt>
      <trkpt lat="46.27423" lon="4.67986">
        <ele>643</ele>
        <time>2014-09-28T09:44:33Z</time>
      </trkpt>
      <trkpt lat="46.27424" lon="4.67998">
        <ele>640</ele>
        <time>2014-09-28T09:44:38Z</time>
      </trkpt>
      <trkpt lat="46.27423" lon="4.68002">
        <ele>635</ele>
        <time>2014-09-28T09:44:39Z</time>
      </trkpt>
      <trkpt lat="46.27422" lon="4.68014">
        <ele>633</ele>
        <time>2014-09-28T09:44:43Z</time>
      </trkpt>
      <trkpt lat="46.27421" lon="4.68017">
        <ele>633</ele>
        <time>2014-09-28T09:44:44Z</time>
      </trkpt>
      <trkpt lat="46.27418" lon="4.68027">
        <ele>631</ele>
        <time>2014-09-28T09:44:47Z</time>
      </trkpt>
      <trkpt lat="46.27417" lon="4.6803">
        <ele>631</ele>
        <time>2014-09-28T09:44:48Z</time>
      </trkpt>
      <trkpt lat="46.27414" lon="4.68041">
        <ele>620</ele>
        <time>2014-09-28T09:44:51Z</time>
      </trkpt>
      <trkpt lat="46.27414" lon="4.68045">
        <ele>619</ele>
        <time>2014-09-28T09:44:52Z</time>
      </trkpt>
      <trkpt lat="46.27415" lon="4.68054">
        <ele>618</ele>
        <time>2014-09-28T09:44:54Z</time>
      </trkpt>
      <trkpt lat="46.27415" lon="4.68058">
        <ele>618</ele>
        <time>2014-09-28T09:44:55Z</time>
      </trkpt>
      <trkpt lat="46.27415" lon="4.68069">
        <ele>617</ele>
        <time>2014-09-28T09:44:58Z</time>
      </trkpt>
      <trkpt lat="46.27415" lon="4.68072">
        <ele>617</ele>
        <time>2014-09-28T09:44:59Z</time>
      </trkpt>
      <trkpt lat="46.27415" lon="4.68081">
        <ele>618</ele>
        <time>2014-09-28T09:45:02Z</time>
      </trkpt>
      <trkpt lat="46.27415" lon="4.68085">
        <ele>616</ele>
        <time>2014-09-28T09:45:03Z</time>
      </trkpt>
      <trkpt lat="46.27415" lon="4.68096">
        <ele>611</ele>
        <time>2014-09-28T09:45:06Z</time>
      </trkpt>
      <trkpt lat="46.27415" lon="4.681">
        <ele>609</ele>
        <time>2014-09-28T09:45:07Z</time>
      </trkpt>
      <trkpt lat="46.27415" lon="4.68112">
        <ele>606</ele>
        <time>2014-09-28T09:45:11Z</time>
      </trkpt>
      <trkpt lat="46.27414" lon="4.68115">
        <ele>605</ele>
        <time>2014-09-28T09:45:12Z</time>
      </trkpt>
      <trkpt lat="46.27412" lon="4.68124">
        <ele>604</ele>
        <time>2014-09-28T09:45:15Z</time>
      </trkpt>
      <trkpt lat="46.27412" lon="4.68128">
        <ele>603</ele>
        <time>2014-09-28T09:45:16Z</time>
      </trkpt>
      <trkpt lat="46.27411" lon="4.6814">
        <ele>602</ele>
        <time>2014-09-28T09:45:19Z</time>
      </trkpt>
      <trkpt lat="46.27411" lon="4.68144">
        <ele>602</ele>
        <time>2014-09-28T09:45:20Z</time>
      </trkpt>
      <trkpt lat="46.27409" lon="4.68156">
        <ele>602</ele>
        <time>2014-09-28T09:45:23Z</time>
      </trkpt>
      <trkpt lat="46.27409" lon="4.6816">
        <ele>602</ele>
        <time>2014-09-28T09:45:24Z</time>
      </trkpt>
      <trkpt lat="46.27408" lon="4.68171">
        <ele>599</ele>
        <time>2014-09-28T09:45:27Z</time>
      </trkpt>
      <trkpt lat="46.27409" lon="4.68175">
        <ele>598</ele>
        <time>2014-09-28T09:45:28Z</time>
      </trkpt>
      <trkpt lat="46.27408" lon="4.68186">
        <ele>595</ele>
        <time>2014-09-28T09:45:31Z</time>
      </trkpt>
      <trkpt lat="46.27407" lon="4.68189">
        <ele>594</ele>
        <time>2014-09-28T09:45:32Z</time>
      </trkpt>
      <trkpt lat="46.27405" lon="4.68201">
        <ele>592</ele>
        <time>2014-09-28T09:45:35Z</time>
      </trkpt>
      <trkpt lat="46.27405" lon="4.68205">
        <ele>591</ele>
        <time>2014-09-28T09:45:36Z</time>
      </trkpt>
      <trkpt lat="46.27404" lon="4.68217">
        <ele>590</ele>
        <time>2014-09-28T09:45:39Z</time>
      </trkpt>
      <trkpt lat="46.27403" lon="4.6822">
        <ele>590</ele>
        <time>2014-09-28T09:45:40Z</time>
      </trkpt>
      <trkpt lat="46.27401" lon="4.68232">
        <ele>590</ele>
        <time>2014-09-28T09:45:43Z</time>
      </trkpt>
      <trkpt lat="46.27401" lon="4.68237">
        <ele>590</ele>
        <time>2014-09-28T09:45:44Z</time>
      </trkpt>
      <trkpt lat="46.274" lon="4.68246">
        <ele>590</ele>
        <time>2014-09-28T09:45:46Z</time>
      </trkpt>
      <trkpt lat="46.274" lon="4.68251">
        <ele>585</ele>
        <time>2014-09-28T09:45:47Z</time>
      </trkpt>
      <trkpt lat="46.27398" lon="4.68262">
        <ele>583</ele>
        <time>2014-09-28T09:45:51Z</time>
      </trkpt>
      <trkpt lat="46.27398" lon="4.68264">
        <ele>583</ele>
        <time>2014-09-28T09:45:52Z</time>
      </trkpt>
      <trkpt lat="46.27398" lon="4.68277">
        <ele>581</ele>
        <time>2014-09-28T09:45:57Z</time>
      </trkpt>
      <trkpt lat="46.27398" lon="4.68279">
        <ele>581</ele>
        <time>2014-09-28T09:45:58Z</time>
      </trkpt>
      <trkpt lat="46.27396" lon="4.6829">
        <ele>580</ele>
        <time>2014-09-28T09:46:03Z</time>
      </trkpt>
      <trkpt lat="46.27395" lon="4.68292">
        <ele>579</ele>
        <time>2014-09-28T09:46:04Z</time>
      </trkpt>
      <trkpt lat="46.2739" lon="4.68302">
        <ele>578</ele>
        <time>2014-09-28T09:46:08Z</time>
      </trkpt>
      <trkpt lat="46.2739" lon="4.68305">
        <ele>578</ele>
        <time>2014-09-28T09:46:09Z</time>
      </trkpt>
      <trkpt lat="46.27388" lon="4.68316">
        <ele>577</ele>
        <time>2014-09-28T09:46:12Z</time>
      </trkpt>
      <trkpt lat="46.27388" lon="4.68319">
        <ele>577</ele>
        <time>2014-09-28T09:46:13Z</time>
      </trkpt>
      <trkpt lat="46.27387" lon="4.68329">
        <ele>577</ele>
        <time>2014-09-28T09:46:16Z</time>
      </trkpt>
      <trkpt lat="46.27387" lon="4.68332">
        <ele>577</ele>
        <time>2014-09-28T09:46:17Z</time>
      </trkpt>
      <trkpt lat="46.27387" lon="4.68343">
        <ele>570</ele>
        <time>2014-09-28T09:46:21Z</time>
      </trkpt>
      <trkpt lat="46.27386" lon="4.68346">
        <ele>570</ele>
        <time>2014-09-28T09:46:22Z</time>
      </trkpt>
      <trkpt lat="46.27383" lon="4.68357">
        <ele>569</ele>
        <time>2014-09-28T09:46:26Z</time>
      </trkpt>
      <trkpt lat="46.27383" lon="4.6836">
        <ele>569</ele>
        <time>2014-09-28T09:46:27Z</time>
      </trkpt>
      <trkpt lat="46.27385" lon="4.68372">
        <ele>568</ele>
        <time>2014-09-28T09:46:31Z</time>
      </trkpt>
      <trkpt lat="46.27385" lon="4.68375">
        <ele>568</ele>
        <time>2014-09-28T09:46:32Z</time>
      </trkpt>
      <trkpt lat="46.27384" lon="4.68387">
        <ele>567</ele>
        <time>2014-09-28T09:46:37Z</time>
      </trkpt>
      <trkpt lat="46.27383" lon="4.68391">
        <ele>567</ele>
        <time>2014-09-28T09:46:38Z</time>
      </trkpt>
      <trkpt lat="46.27382" lon="4.68403">
        <ele>566</ele>
        <time>2014-09-28T09:46:40Z</time>
      </trkpt>
      <trkpt lat="46.2738" lon="4.68408">
        <ele>566</ele>
        <time>2014-09-28T09:46:41Z</time>
      </trkpt>
      <trkpt lat="46.27378" lon="4.68416">
        <ele>565</ele>
        <time>2014-09-28T09:46:43Z</time>
      </trkpt>
      <trkpt lat="46.27377" lon="4.6842">
        <ele>558</ele>
        <time>2014-09-28T09:46:44Z</time>
      </trkpt>
      <trkpt lat="46.27376" lon="4.6843">
        <ele>558</ele>
        <time>2014-09-28T09:46:46Z</time>
      </trkpt>
      <trkpt lat="46.27376" lon="4.68434">
        <ele>558</ele>
        <time>2014-09-28T09:46:47Z</time>
      </trkpt>
      <trkpt lat="46.27376" lon="4.68446">
        <ele>557</ele>
        <time>2014-09-28T09:46:49Z</time>
      </trkpt>
      <trkpt lat="46.27376" lon="4.68452">
        <ele>557</ele>
        <time>2014-09-28T09:46:50Z</time>
      </trkpt>
      <trkpt lat="46.27375" lon="4.68459">
        <ele>556</ele>
        <time>2014-09-28T09:46:51Z</time>
      </trkpt>
      <trkpt lat="46.27375" lon="4.68467">
        <ele>556</ele>
        <time>2014-09-28T09:46:52Z</time>
      </trkpt>
      <trkpt lat="46.27375" lon="4.68474">
        <ele>555</ele>
        <time>2014-09-28T09:46:53Z</time>
      </trkpt>
      <trkpt lat="46.27374" lon="4.68481">
        <ele>555</ele>
        <time>2014-09-28T09:46:54Z</time>
      </trkpt>
      <trkpt lat="46.27374" lon="4.68488">
        <ele>554</ele>
        <time>2014-09-28T09:46:55Z</time>
      </trkpt>
      <trkpt lat="46.27373" lon="4.68495">
        <ele>554</ele>
        <time>2014-09-28T09:46:56Z</time>
      </trkpt>
      <trkpt lat="46.27373" lon="4.68502">
        <ele>546</ele>
        <time>2014-09-28T09:46:57Z</time>
      </trkpt>
      <trkpt lat="46.27373" lon="4.68509">
        <ele>546</ele>
        <time>2014-09-28T09:46:58Z</time>
      </trkpt>
      <trkpt lat="46.27373" lon="4.68521">
        <ele>545</ele>
        <time>2014-09-28T09:47:00Z</time>
      </trkpt>
      <trkpt lat="46.27371" lon="4.68527">
        <ele>545</ele>
        <time>2014-09-28T09:47:01Z</time>
      </trkpt>
      <trkpt lat="46.27368" lon="4.68537">
        <ele>544</ele>
        <time>2014-09-28T09:47:03Z</time>
      </trkpt>
      <trkpt lat="46.27367" lon="4.68542">
        <ele>543</ele>
        <time>2014-09-28T09:47:04Z</time>
      </trkpt>
      <trkpt lat="46.27366" lon="4.68552">
        <ele>543</ele>
        <time>2014-09-28T09:47:06Z</time>
      </trkpt>
      <trkpt lat="46.27365" lon="4.68558">
        <ele>542</ele>
        <time>2014-09-28T09:47:07Z</time>
      </trkpt>
      <trkpt lat="46.27363" lon="4.68569">
        <ele>541</ele>
        <time>2014-09-28T09:47:09Z</time>
      </trkpt>
      <trkpt lat="46.27362" lon="4.68574">
        <ele>541</ele>
        <time>2014-09-28T09:47:10Z</time>
      </trkpt>
      <trkpt lat="46.27361" lon="4.68585">
        <ele>533</ele>
        <time>2014-09-28T09:47:12Z</time>
      </trkpt>
      <trkpt lat="46.2736" lon="4.6859">
        <ele>533</ele>
        <time>2014-09-28T09:47:13Z</time>
      </trkpt>
      <trkpt lat="46.2736" lon="4.68598">
        <ele>533</ele>
        <time>2014-09-28T09:47:15Z</time>
      </trkpt>
      <trkpt lat="46.27359" lon="4.68603">
        <ele>533</ele>
        <time>2014-09-28T09:47:16Z</time>
      </trkpt>
      <trkpt lat="46.27358" lon="4.68613">
        <ele>532</ele>
        <time>2014-09-28T09:47:18Z</time>
      </trkpt>
      <trkpt lat="46.27356" lon="4.68621">
        <ele>532</ele>
        <time>2014-09-28T09:47:19Z</time>
      </trkpt>
      <trkpt lat="46.27353" lon="4.68632">
        <ele>531</ele>
        <time>2014-09-28T09:47:21Z</time>
      </trkpt>
      <trkpt lat="46.27352" lon="4.68638">
        <ele>530</ele>
        <time>2014-09-28T09:47:22Z</time>
      </trkpt>
      <trkpt lat="46.27351" lon="4.68645">
        <ele>530</ele>
        <time>2014-09-28T09:47:23Z</time>
      </trkpt>
      <trkpt lat="46.27351" lon="4.68651">
        <ele>529</ele>
        <time>2014-09-28T09:47:24Z</time>
      </trkpt>
      <trkpt lat="46.27349" lon="4.68659">
        <ele>528</ele>
        <time>2014-09-28T09:47:25Z</time>
      </trkpt>
      <trkpt lat="46.27348" lon="4.68665">
        <ele>528</ele>
        <time>2014-09-28T09:47:26Z</time>
      </trkpt>
      <trkpt lat="46.27348" lon="4.68672">
        <ele>524</ele>
        <time>2014-09-28T09:47:27Z</time>
      </trkpt>
      <trkpt lat="46.27347" lon="4.68678">
        <ele>524</ele>
        <time>2014-09-28T09:47:28Z</time>
      </trkpt>
      <trkpt lat="46.27346" lon="4.68685">
        <ele>524</ele>
        <time>2014-09-28T09:47:29Z</time>
      </trkpt>
      <trkpt lat="46.27345" lon="4.68693">
        <ele>523</ele>
        <time>2014-09-28T09:47:30Z</time>
      </trkpt>
      <trkpt lat="46.27344" lon="4.687">
        <ele>523</ele>
        <time>2014-09-28T09:47:31Z</time>
      </trkpt>
      <trkpt lat="46.27344" lon="4.68709">
        <ele>522</ele>
        <time>2014-09-28T09:47:32Z</time>
      </trkpt>
      <trkpt lat="46.27342" lon="4.68717">
        <ele>522</ele>
        <time>2014-09-28T09:47:33Z</time>
      </trkpt>
      <trkpt lat="46.27341" lon="4.68722">
        <ele>522</ele>
        <time>2014-09-28T09:47:34Z</time>
      </trkpt>
      <trkpt lat="46.27342" lon="4.68734">
        <ele>521</ele>
        <time>2014-09-28T09:47:36Z</time>
      </trkpt>
      <trkpt lat="46.27342" lon="4.6874">
        <ele>520</ele>
        <time>2014-09-28T09:47:37Z</time>
      </trkpt>
      <trkpt lat="46.2734" lon="4.68752">
        <ele>518</ele>
        <time>2014-09-28T09:47:39Z</time>
      </trkpt>
      <trkpt lat="46.2734" lon="4.68757">
        <ele>517</ele>
        <time>2014-09-28T09:47:40Z</time>
      </trkpt>
      <trkpt lat="46.27341" lon="4.68767">
        <ele>517</ele>
        <time>2014-09-28T09:47:42Z</time>
      </trkpt>
      <trkpt lat="46.27342" lon="4.68773">
        <ele>516</ele>
        <time>2014-09-28T09:47:43Z</time>
      </trkpt>
      <trkpt lat="46.27342" lon="4.68783">
        <ele>515</ele>
        <time>2014-09-28T09:47:45Z</time>
      </trkpt>
      <trkpt lat="46.27342" lon="4.68788">
        <ele>515</ele>
        <time>2014-09-28T09:47:46Z</time>
      </trkpt>
      <trkpt lat="46.27341" lon="4.68798">
        <ele>514</ele>
        <time>2014-09-28T09:47:49Z</time>
      </trkpt>
      <trkpt lat="46.27341" lon="4.68802">
        <ele>514</ele>
        <time>2014-09-28T09:47:50Z</time>
      </trkpt>
      <trkpt lat="46.27342" lon="4.6881">
        <ele>513</ele>
        <time>2014-09-28T09:47:52Z</time>
      </trkpt>
      <trkpt lat="46.27343" lon="4.68815">
        <ele>513</ele>
        <time>2014-09-28T09:47:53Z</time>
      </trkpt>
      <trkpt lat="46.27347" lon="4.68823">
        <ele>512</ele>
        <time>2014-09-28T09:47:55Z</time>
      </trkpt>
      <trkpt lat="46.27349" lon="4.68827">
        <ele>512</ele>
        <time>2014-09-28T09:47:56Z</time>
      </trkpt>
      <trkpt lat="46.27355" lon="4.68836">
        <ele>506</ele>
        <time>2014-09-28T09:47:58Z</time>
      </trkpt>
      <trkpt lat="46.27358" lon="4.6884">
        <ele>506</ele>
        <time>2014-09-28T09:47:59Z</time>
      </trkpt>
      <trkpt lat="46.27361" lon="4.68849">
        <ele>505</ele>
        <time>2014-09-28T09:48:01Z</time>
      </trkpt>
      <trkpt lat="46.27361" lon="4.68853">
        <ele>505</ele>
        <time>2014-09-28T09:48:02Z</time>
      </trkpt>
      <trkpt lat="46.27359" lon="4.68862">
        <ele>504</ele>
        <time>2014-09-28T09:48:04Z</time>
      </trkpt>
      <trkpt lat="46.27358" lon="4.68867">
        <ele>504</ele>
        <time>2014-09-28T09:48:05Z</time>
      </trkpt>
      <trkpt lat="46.27356" lon="4.68876">
        <ele>503</ele>
        <time>2014-09-28T09:48:07Z</time>
      </trkpt>
      <trkpt lat="46.27355" lon="4.68881">
        <ele>502</ele>
        <time>2014-09-28T09:48:08Z</time>
      </trkpt>
      <trkpt lat="46.27354" lon="4.68891">
        <ele>501</ele>
        <time>2014-09-28T09:48:10Z</time>
      </trkpt>
      <trkpt lat="46.27354" lon="4.68896">
        <ele>501</ele>
        <time>2014-09-28T09:48:11Z</time>
      </trkpt>
      <trkpt lat="46.27354" lon="4.68906">
        <ele>500</ele>
        <time>2014-09-28T09:48:13Z</time>
      </trkpt>
      <trkpt lat="46.27355" lon="4.68911">
        <ele>500</ele>
        <time>2014-09-28T09:48:14Z</time>
      </trkpt>
      <trkpt lat="46.27357" lon="4.6892">
        <ele>492</ele>
        <time>2014-09-28T09:48:16Z</time>
      </trkpt>
      <trkpt lat="46.27358" lon="4.68925">
        <ele>491</ele>
        <time>2014-09-28T09:48:17Z</time>
      </trkpt>
      <trkpt lat="46.27362" lon="4.68932">
        <ele>491</ele>
        <time>2014-09-28T09:48:19Z</time>
      </trkpt>
      <trkpt lat="46.27364" lon="4.68937">
        <ele>490</ele>
        <time>2014-09-28T09:48:20Z</time>
      </trkpt>
      <trkpt lat="46.27367" lon="4.68946">
        <ele>489</ele>
        <time>2014-09-28T09:48:22Z</time>
      </trkpt>
      <trkpt lat="46.27368" lon="4.6895">
        <ele>489</ele>
        <time>2014-09-28T09:48:23Z</time>
      </trkpt>
      <trkpt lat="46.2737" lon="4.6896">
        <ele>488</ele>
        <time>2014-09-28T09:48:25Z</time>
      </trkpt>
      <trkpt lat="46.27371" lon="4.68964">
        <ele>488</ele>
        <time>2014-09-28T09:48:26Z</time>
      </trkpt>
      <trkpt lat="46.27373" lon="4.68974">
        <ele>487</ele>
        <time>2014-09-28T09:48:28Z</time>
      </trkpt>
      <trkpt lat="46.27374" lon="4.6898">
        <ele>486</ele>
        <time>2014-09-28T09:48:29Z</time>
      </trkpt>
      <trkpt lat="46.27374" lon="4.6899">
        <ele>486</ele>
        <time>2014-09-28T09:48:31Z</time>
      </trkpt>
      <trkpt lat="46.27374" lon="4.68996">
        <ele>485</ele>
        <time>2014-09-28T09:48:32Z</time>
      </trkpt>
      <trkpt lat="46.27373" lon="4.69006">
        <ele>476</ele>
        <time>2014-09-28T09:48:34Z</time>
      </trkpt>
      <trkpt lat="46.27373" lon="4.69011">
        <ele>476</ele>
        <time>2014-09-28T09:48:35Z</time>
      </trkpt>
      <trkpt lat="46.27372" lon="4.69021">
        <ele>475</ele>
        <time>2014-09-28T09:48:37Z</time>
      </trkpt>
      <trkpt lat="46.27372" lon="4.69026">
        <ele>475</ele>
        <time>2014-09-28T09:48:38Z</time>
      </trkpt>
      <trkpt lat="46.2737" lon="4.69037">
        <ele>474</ele>
        <time>2014-09-28T09:48:41Z</time>
      </trkpt>
      <trkpt lat="46.27369" lon="4.69042">
        <ele>473</ele>
        <time>2014-09-28T09:48:42Z</time>
      </trkpt>
      <trkpt lat="46.27367" lon="4.69054">
        <ele>472</ele>
        <time>2014-09-28T09:48:44Z</time>
      </trkpt>
      <trkpt lat="46.27366" lon="4.6906">
        <ele>472</ele>
        <time>2014-09-28T09:48:45Z</time>
      </trkpt>
      <trkpt lat="46.27366" lon="4.69067">
        <ele>471</ele>
        <time>2014-09-28T09:48:46Z</time>
      </trkpt>
      <trkpt lat="46.2737" lon="4.69078">
        <ele>471</ele>
        <time>2014-09-28T09:48:47Z</time>
      </trkpt>
      <trkpt lat="46.27371" lon="4.69087">
        <ele>464</ele>
        <time>2014-09-28T09:48:48Z</time>
      </trkpt>
      <trkpt lat="46.2737" lon="4.69095">
        <ele>463</ele>
        <time>2014-09-28T09:48:49Z</time>
      </trkpt>
      <trkpt lat="46.27373" lon="4.69105">
        <ele>463</ele>
        <time>2014-09-28T09:48:51Z</time>
      </trkpt>
      <trkpt lat="46.27374" lon="4.69108">
        <ele>463</ele>
        <time>2014-09-28T09:48:52Z</time>
      </trkpt>
      <trkpt lat="46.27381" lon="4.69113">
        <ele>463</ele>
        <time>2014-09-28T09:48:55Z</time>
      </trkpt>
      <trkpt lat="46.27383" lon="4.69111">
        <ele>463</ele>
        <time>2014-09-28T09:48:56Z</time>
      </trkpt>
      <trkpt lat="46.2739" lon="4.69107">
        <ele>463</ele>
        <time>2014-09-28T09:48:58Z</time>
      </trkpt>
      <trkpt lat="46.27392" lon="4.69105">
        <ele>463</ele>
        <time>2014-09-28T09:48:59Z</time>
      </trkpt>
      <trkpt lat="46.274" lon="4.69103">
        <ele>464</ele>
        <time>2014-09-28T09:49:02Z</time>
      </trkpt>
      <trkpt lat="46.27403" lon="4.69103">
        <ele>464</ele>
        <time>2014-09-28T09:49:03Z</time>
      </trkpt>
      <trkpt lat="46.27409" lon="4.69106">
        <ele>464</ele>
        <time>2014-09-28T09:49:05Z</time>
      </trkpt>
      <trkpt lat="46.27412" lon="4.69108">
        <ele>463</ele>
        <time>2014-09-28T09:49:06Z</time>
      </trkpt>
      <trkpt lat="46.2742" lon="4.69112">
        <ele>465</ele>
        <time>2014-09-28T09:49:08Z</time>
      </trkpt>
      <trkpt lat="46.27424" lon="4.69114">
        <ele>465</ele>
        <time>2014-09-28T09:49:09Z</time>
      </trkpt>
      <trkpt lat="46.27431" lon="4.69118">
        <ele>465</ele>
        <time>2014-09-28T09:49:11Z</time>
      </trkpt>
      <trkpt lat="46.27433" lon="4.6912">
        <ele>465</ele>
        <time>2014-09-28T09:49:12Z</time>
      </trkpt>
      <trkpt lat="46.2744" lon="4.69122">
        <ele>465</ele>
        <time>2014-09-28T09:49:15Z</time>
      </trkpt>
      <trkpt lat="46.27442" lon="4.69124">
        <ele>465</ele>
        <time>2014-09-28T09:49:16Z</time>
      </trkpt>
      <trkpt lat="46.27447" lon="4.69127">
        <ele>465</ele>
        <time>2014-09-28T09:49:18Z</time>
      </trkpt>
      <trkpt lat="46.27451" lon="4.6913">
        <ele>465</ele>
        <time>2014-09-28T09:49:19Z</time>
      </trkpt>
      <trkpt lat="46.27458" lon="4.69133">
        <ele>465</ele>
        <time>2014-09-28T09:49:21Z</time>
      </trkpt>
      <trkpt lat="46.27462" lon="4.69136">
        <ele>465</ele>
        <time>2014-09-28T09:49:22Z</time>
      </trkpt>
      <trkpt lat="46.27471" lon="4.6914">
        <ele>465</ele>
        <time>2014-09-28T09:49:24Z</time>
      </trkpt>
      <trkpt lat="46.27475" lon="4.69141">
        <ele>466</ele>
        <time>2014-09-28T09:49:25Z</time>
      </trkpt>
      <trkpt lat="46.27484" lon="4.69143">
        <ele>466</ele>
        <time>2014-09-28T09:49:27Z</time>
      </trkpt>
      <trkpt lat="46.27488" lon="4.69145">
        <ele>466</ele>
        <time>2014-09-28T09:49:28Z</time>
      </trkpt>
      <trkpt lat="46.27495" lon="4.6915">
        <ele>466</ele>
        <time>2014-09-28T09:49:30Z</time>
      </trkpt>
      <trkpt lat="46.27498" lon="4.69153">
        <ele>466</ele>
        <time>2014-09-28T09:49:31Z</time>
      </trkpt>
      <trkpt lat="46.27503" lon="4.69158">
        <ele>468</ele>
        <time>2014-09-28T09:49:33Z</time>
      </trkpt>
      <trkpt lat="46.27506" lon="4.69161">
        <ele>468</ele>
        <time>2014-09-28T09:49:34Z</time>
      </trkpt>
      <trkpt lat="46.27514" lon="4.69167">
        <ele>469</ele>
        <time>2014-09-28T09:49:41Z</time>
      </trkpt>
      <trkpt lat="46.27515" lon="4.69169">
        <ele>469</ele>
        <time>2014-09-28T09:49:41Z</time>
      </trkpt>
      <trkpt lat="46.27521" lon="4.69177">
        <ele>471</ele>
        <time>2014-09-28T09:49:46Z</time>
      </trkpt>
      <trkpt lat="46.27522" lon="4.69179">
        <ele>471</ele>
        <time>2014-09-28T09:49:47Z</time>
      </trkpt>
      <trkpt lat="46.27526" lon="4.69189">
        <ele>472</ele>
        <time>2014-09-28T09:49:52Z</time>
      </trkpt>
      <trkpt lat="46.27527" lon="4.69191">
        <ele>472</ele>
        <time>2014-09-28T09:49:53Z</time>
      </trkpt>
      <trkpt lat="46.27526" lon="4.69201">
        <ele>473</ele>
        <time>2014-09-28T09:49:58Z</time>
      </trkpt>
      <trkpt lat="46.27526" lon="4.69204">
        <ele>473</ele>
        <time>2014-09-28T09:49:59Z</time>
      </trkpt>
      <trkpt lat="46.27523" lon="4.69215">
        <ele>473</ele>
        <time>2014-09-28T09:50:06Z</time>
      </trkpt>
      <trkpt lat="46.27522" lon="4.69216">
        <ele>473</ele>
        <time>2014-09-28T09:50:07Z</time>
      </trkpt>
      <trkpt lat="46.27522" lon="4.69227">
        <ele>473</ele>
        <time>2014-09-28T09:50:13Z</time>
      </trkpt>
      <trkpt lat="46.27522" lon="4.69229">
        <ele>473</ele>
        <time>2014-09-28T09:50:14Z</time>
      </trkpt>
      <trkpt lat="46.27522" lon="4.69242">
        <ele>473</ele>
        <time>2014-09-28T09:50:21Z</time>
      </trkpt>
      <trkpt lat="46.27522" lon="4.69243">
        <ele>473</ele>
        <time>2014-09-28T09:50:22Z</time>
      </trkpt>
      <trkpt lat="46.27521" lon="4.69254">
        <ele>476</ele>
        <time>2014-09-28T09:50:29Z</time>
      </trkpt>
      <trkpt lat="46.27521" lon="4.69256">
        <ele>476</ele>
        <time>2014-09-28T09:50:30Z</time>
      </trkpt>
      <trkpt lat="46.2752" lon="4.69268">
        <ele>477</ele>
        <time>2014-09-28T09:50:36Z</time>
      </trkpt>
      <trkpt lat="46.2752" lon="4.69269">
        <ele>477</ele>
        <time>2014-09-28T09:50:37Z</time>
      </trkpt>
      <trkpt lat="46.27519" lon="4.69282">
        <ele>479</ele>
        <time>2014-09-28T09:50:44Z</time>
      </trkpt>
      <trkpt lat="46.27519" lon="4.69284">
        <ele>479</ele>
        <time>2014-09-28T09:50:45Z</time>
      </trkpt>
      <trkpt lat="46.27521" lon="4.69295">
        <ele>480</ele>
        <time>2014-09-28T09:50:51Z</time>
      </trkpt>
      <trkpt lat="46.27521" lon="4.69296">
        <ele>480</ele>
        <time>2014-09-28T09:50:52Z</time>
      </trkpt>
      <trkpt lat="46.27519" lon="4.69307">
        <ele>480</ele>
        <time>2014-09-28T09:50:58Z</time>
      </trkpt>
      <trkpt lat="46.27518" lon="4.69309">
        <ele>480</ele>
        <time>2014-09-28T09:50:59Z</time>
      </trkpt>
      <trkpt lat="46.27515" lon="4.6932">
        <ele>480</ele>
        <time>2014-09-28T09:51:06Z</time>
      </trkpt>
      <trkpt lat="46.27515" lon="4.69321">
        <ele>480</ele>
        <time>2014-09-28T09:51:07Z</time>
      </trkpt>
      <trkpt lat="46.27514" lon="4.69333">
        <ele>479</ele>
        <time>2014-09-28T09:51:13Z</time>
      </trkpt>
      <trkpt lat="46.27515" lon="4.69335">
        <ele>483</ele>
        <time>2014-09-28T09:51:14Z</time>
      </trkpt>
      <trkpt lat="46.27515" lon="4.69347">
        <ele>484</ele>
        <time>2014-09-28T09:51:21Z</time>
      </trkpt>
      <trkpt lat="46.27515" lon="4.69349">
        <ele>484</ele>
        <time>2014-09-28T09:51:22Z</time>
      </trkpt>
      <trkpt lat="46.27515" lon="4.69362">
        <ele>486</ele>
        <time>2014-09-28T09:51:30Z</time>
      </trkpt>
      <trkpt lat="46.27514" lon="4.69364">
        <ele>486</ele>
        <time>2014-09-28T09:51:31Z</time>
      </trkpt>
      <trkpt lat="46.27512" lon="4.69376">
        <ele>487</ele>
        <time>2014-09-28T09:51:39Z</time>
      </trkpt>
      <trkpt lat="46.27512" lon="4.69378">
        <ele>487</ele>
        <time>2014-09-28T09:51:40Z</time>
      </trkpt>
      <trkpt lat="46.27512" lon="4.69388">
        <ele>487</ele>
        <time>2014-09-28T09:51:45Z</time>
      </trkpt>
      <trkpt lat="46.27512" lon="4.69391">
        <ele>487</ele>
        <time>2014-09-28T09:51:46Z</time>
      </trkpt>
      <trkpt lat="46.27511" lon="4.69402">
        <ele>487</ele>
        <time>2014-09-28T09:51:52Z</time>
      </trkpt>
      <trkpt lat="46.2751" lon="4.69404">
        <ele>487</ele>
        <time>2014-09-28T09:51:53Z</time>
      </trkpt>
      <trkpt lat="46.27509" lon="4.69415">
        <ele>486</ele>
        <time>2014-09-28T09:52:01Z</time>
      </trkpt>
      <trkpt lat="46.27509" lon="4.69417">
        <ele>486</ele>
        <time>2014-09-28T09:52:02Z</time>
      </trkpt>
      <trkpt lat="46.27511" lon="4.69428">
        <ele>491</ele>
        <time>2014-09-28T09:52:07Z</time>
      </trkpt>
      <trkpt lat="46.27512" lon="4.69431">
        <ele>491</ele>
        <time>2014-09-28T09:52:08Z</time>
      </trkpt>
      <trkpt lat="46.27511" lon="4.69443">
        <ele>493</ele>
        <time>2014-09-28T09:52:13Z</time>
      </trkpt>
      <trkpt lat="46.27511" lon="4.69446">
        <ele>494</ele>
        <time>2014-09-28T09:52:14Z</time>
      </trkpt>
      <trkpt lat="46.27511" lon="4.69457">
        <ele>495</ele>
        <time>2014-09-28T09:52:18Z</time>
      </trkpt>
      <trkpt lat="46.2751" lon="4.6946">
        <ele>495</ele>
        <time>2014-09-28T09:52:19Z</time>
      </trkpt>
      <trkpt lat="46.27507" lon="4.6947">
        <ele>495</ele>
        <time>2014-09-28T09:52:23Z</time>
      </trkpt>
      <trkpt lat="46.27506" lon="4.69472">
        <ele>495</ele>
        <time>2014-09-28T09:52:24Z</time>
      </trkpt>
      <trkpt lat="46.27502" lon="4.69482">
        <ele>495</ele>
        <time>2014-09-28T09:52:29Z</time>
      </trkpt>
      <trkpt lat="46.27501" lon="4.69484">
        <ele>495</ele>
        <time>2014-09-28T09:52:30Z</time>
      </trkpt>
      <trkpt lat="46.27496" lon="4.69495">
        <ele>490</ele>
        <time>2014-09-28T09:52:36Z</time>
      </trkpt>
      <trkpt lat="46.27496" lon="4.69496">
        <ele>490</ele>
        <time>2014-09-28T09:52:37Z</time>
      </trkpt>
      <trkpt lat="46.27492" lon="4.69506">
        <ele>494</ele>
        <time>2014-09-28T09:52:42Z</time>
      </trkpt>
      <trkpt lat="46.2749" lon="4.69509">
        <ele>494</ele>
        <time>2014-09-28T09:52:43Z</time>
      </trkpt>
      <trkpt lat="46.27486" lon="4.69518">
        <ele>495</ele>
        <time>2014-09-28T09:52:47Z</time>
      </trkpt>
      <trkpt lat="46.27485" lon="4.6952">
        <ele>495</ele>
        <time>2014-09-28T09:52:48Z</time>
      </trkpt>
      <trkpt lat="46.27479" lon="4.69528">
        <ele>495</ele>
        <time>2014-09-28T09:52:53Z</time>
      </trkpt>
      <trkpt lat="46.27478" lon="4.69529">
        <ele>495</ele>
        <time>2014-09-28T09:52:54Z</time>
      </trkpt>
      <trkpt lat="46.27472" lon="4.69538">
        <ele>496</ele>
        <time>2014-09-28T09:52:59Z</time>
      </trkpt>
      <trkpt lat="46.27471" lon="4.69539">
        <ele>496</ele>
        <time>2014-09-28T09:53:00Z</time>
      </trkpt>
      <trkpt lat="46.27466" lon="4.69547">
        <ele>497</ele>
        <time>2014-09-28T09:53:04Z</time>
      </trkpt>
      <trkpt lat="46.27465" lon="4.6955">
        <ele>497</ele>
        <time>2014-09-28T09:53:05Z</time>
      </trkpt>
      <trkpt lat="46.2746" lon="4.69558">
        <ele>497</ele>
        <time>2014-09-28T09:53:09Z</time>
      </trkpt>
      <trkpt lat="46.27458" lon="4.6956">
        <ele>497</ele>
        <time>2014-09-28T09:53:10Z</time>
      </trkpt>
      <trkpt lat="46.27452" lon="4.69569">
        <ele>498</ele>
        <time>2014-09-28T09:53:14Z</time>
      </trkpt>
      <trkpt lat="46.27451" lon="4.69571">
        <ele>498</ele>
        <time>2014-09-28T09:53:15Z</time>
      </trkpt>
      <trkpt lat="46.27445" lon="4.6958">
        <ele>498</ele>
        <time>2014-09-28T09:53:20Z</time>
      </trkpt>
      <trkpt lat="46.27444" lon="4.69582">
        <ele>498</ele>
        <time>2014-09-28T09:53:21Z</time>
      </trkpt>
      <trkpt lat="46.27439" lon="4.69593">
        <ele>508</ele>
        <time>2014-09-28T09:53:26Z</time>
      </trkpt>
      <trkpt lat="46.27438" lon="4.69596">
        <ele>508</ele>
        <time>2014-09-28T09:53:27Z</time>
      </trkpt>
      <trkpt lat="46.27431" lon="4.69602">
        <ele>508</ele>
        <time>2014-09-28T09:53:32Z</time>
      </trkpt>
      <trkpt lat="46.2743" lon="4.69603">
        <ele>508</ele>
        <time>2014-09-28T09:53:33Z</time>
      </trkpt>
      <trkpt lat="46.27423" lon="4.6961">
        <ele>509</ele>
        <time>2014-09-28T09:53:39Z</time>
      </trkpt>
      <trkpt lat="46.27422" lon="4.69611">
        <ele>509</ele>
        <time>2014-09-28T09:53:40Z</time>
      </trkpt>
      <trkpt lat="46.27414" lon="4.69614">
        <ele>503</ele>
        <time>2014-09-28T09:53:45Z</time>
      </trkpt>
      <trkpt lat="46.27413" lon="4.69615">
        <ele>503</ele>
        <time>2014-09-28T09:53:46Z</time>
      </trkpt>
      <trkpt lat="46.27406" lon="4.69621">
        <ele>504</ele>
        <time>2014-09-28T09:53:52Z</time>
      </trkpt>
      <trkpt lat="46.27404" lon="4.69621">
        <ele>504</ele>
        <time>2014-09-28T09:53:53Z</time>
      </trkpt>
      <trkpt lat="46.27398" lon="4.69628">
        <ele>504</ele>
        <time>2014-09-28T09:53:59Z</time>
      </trkpt>
      <trkpt lat="46.27397" lon="4.6963">
        <ele>504</ele>
        <time>2014-09-28T09:54:00Z</time>
      </trkpt>
      <trkpt lat="46.27391" lon="4.69638">
        <ele>505</ele>
        <time>2014-09-28T09:54:06Z</time>
      </trkpt>
      <trkpt lat="46.2739" lon="4.69639">
        <ele>505</ele>
        <time>2014-09-28T09:54:07Z</time>
      </trkpt>
      <trkpt lat="46.27383" lon="4.69646">
        <ele>505</ele>
        <time>2014-09-28T09:54:13Z</time>
      </trkpt>
      <trkpt lat="46.27382" lon="4.69647">
        <ele>505</ele>
        <time>2014-09-28T09:54:14Z</time>
      </trkpt>
      <trkpt lat="46.27377" lon="4.69656">
        <ele>505</ele>
        <time>2014-09-28T09:54:20Z</time>
      </trkpt>
      <trkpt lat="46.27376" lon="4.69657">
        <ele>505</ele>
        <time>2014-09-28T09:54:21Z</time>
      </trkpt>
      <trkpt lat="46.27381" lon="4.69667">
        <ele>515</ele>
        <time>2014-09-28T09:54:29Z</time>
      </trkpt>
      <trkpt lat="46.27383" lon="4.69667">
        <ele>515</ele>
        <time>2014-09-28T09:54:30Z</time>
      </trkpt>
      <trkpt lat="46.27391" lon="4.6967">
        <ele>516</ele>
        <time>2014-09-28T09:54:39Z</time>
      </trkpt>
      <trkpt lat="46.27392" lon="4.6967">
        <ele>516</ele>
        <time>2014-09-28T09:54:40Z</time>
      </trkpt>
      <trkpt lat="46.274" lon="4.69672">
        <ele>517</ele>
        <time>2014-09-28T09:54:46Z</time>
      </trkpt>
      <trkpt lat="46.27401" lon="4.69672">
        <ele>517</ele>
        <time>2014-09-28T09:54:47Z</time>
      </trkpt>
      <trkpt lat="46.27409" lon="4.69669">
        <ele>518</ele>
        <time>2014-09-28T09:54:53Z</time>
      </trkpt>
      <trkpt lat="46.2741" lon="4.69668">
        <ele>518</ele>
        <time>2014-09-28T09:54:54Z</time>
      </trkpt>
      <trkpt lat="46.27417" lon="4.69663">
        <ele>517</ele>
        <time>2014-09-28T09:55:00Z</time>
      </trkpt>
      <trkpt lat="46.27419" lon="4.69663">
        <ele>517</ele>
        <time>2014-09-28T09:55:01Z</time>
      </trkpt>
      <trkpt lat="46.27427" lon="4.69663">
        <ele>516</ele>
        <time>2014-09-28T09:55:06Z</time>
      </trkpt>
      <trkpt lat="46.27429" lon="4.69662">
        <ele>516</ele>
        <time>2014-09-28T09:55:07Z</time>
      </trkpt>
      <trkpt lat="46.27437" lon="4.69658">
        <ele>515</ele>
        <time>2014-09-28T09:55:12Z</time>
      </trkpt>
      <trkpt lat="46.27439" lon="4.69657">
        <ele>515</ele>
        <time>2014-09-28T09:55:13Z</time>
      </trkpt>
      <trkpt lat="46.27447" lon="4.69656">
        <ele>515</ele>
        <time>2014-09-28T09:55:18Z</time>
      </trkpt>
      <trkpt lat="46.27448" lon="4.69657">
        <ele>515</ele>
        <time>2014-09-28T09:55:19Z</time>
      </trkpt>
      <trkpt lat="46.27457" lon="4.69658">
        <ele>515</ele>
        <time>2014-09-28T09:55:24Z</time>
      </trkpt>
      <trkpt lat="46.27459" lon="4.69658">
        <ele>515</ele>
        <time>2014-09-28T09:55:25Z</time>
      </trkpt>
      <trkpt lat="46.27466" lon="4.6966">
        <ele>516</ele>
        <time>2014-09-28T09:55:30Z</time>
      </trkpt>
      <trkpt lat="46.27468" lon="4.6966">
        <ele>516</ele>
        <time>2014-09-28T09:55:31Z</time>
      </trkpt>
      <trkpt lat="46.27477" lon="4.69662">
        <ele>517</ele>
        <time>2014-09-28T09:55:36Z</time>
      </trkpt>
      <trkpt lat="46.27478" lon="4.69661">
        <ele>517</ele>
        <time>2014-09-28T09:55:37Z</time>
      </trkpt>
      <trkpt lat="46.27487" lon="4.69659">
        <ele>518</ele>
        <time>2014-09-28T09:55:42Z</time>
      </trkpt>
      <trkpt lat="46.27489" lon="4.69659">
        <ele>519</ele>
        <time>2014-09-28T09:55:43Z</time>
      </trkpt>
      <trkpt lat="46.27497" lon="4.69659">
        <ele>520</ele>
        <time>2014-09-28T09:55:48Z</time>
      </trkpt>
      <trkpt lat="46.27499" lon="4.69659">
        <ele>520</ele>
        <time>2014-09-28T09:55:49Z</time>
      </trkpt>
      <trkpt lat="46.27506" lon="4.69659">
        <ele>523</ele>
        <time>2014-09-28T09:55:54Z</time>
      </trkpt>
      <trkpt lat="46.27508" lon="4.69659">
        <ele>523</ele>
        <time>2014-09-28T09:55:55Z</time>
      </trkpt>
      <trkpt lat="46.27517" lon="4.69659">
        <ele>524</ele>
        <time>2014-09-28T09:56:00Z</time>
      </trkpt>
      <trkpt lat="46.27518" lon="4.69659">
        <ele>524</ele>
        <time>2014-09-28T09:56:01Z</time>
      </trkpt>
      <trkpt lat="46.27527" lon="4.69654">
        <ele>524</ele>
        <time>2014-09-28T09:56:06Z</time>
      </trkpt>
      <trkpt lat="46.27528" lon="4.69654">
        <ele>524</ele>
        <time>2014-09-28T09:56:07Z</time>
      </trkpt>
      <trkpt lat="46.27535" lon="4.69649">
        <ele>525</ele>
        <time>2014-09-28T09:56:11Z</time>
      </trkpt>
      <trkpt lat="46.27537" lon="4.69648">
        <ele>525</ele>
        <time>2014-09-28T09:56:12Z</time>
      </trkpt>
      <trkpt lat="46.27544" lon="4.69643">
        <ele>525</ele>
        <time>2014-09-28T09:56:16Z</time>
      </trkpt>
      <trkpt lat="46.27546" lon="4.69641">
        <ele>525</ele>
        <time>2014-09-28T09:56:17Z</time>
      </trkpt>
      <trkpt lat="46.27553" lon="4.69636">
        <ele>526</ele>
        <time>2014-09-28T09:56:22Z</time>
      </trkpt>
      <trkpt lat="46.27554" lon="4.69635">
        <ele>526</ele>
        <time>2014-09-28T09:56:23Z</time>
      </trkpt>
      <trkpt lat="46.27561" lon="4.6963">
        <ele>526</ele>
        <time>2014-09-28T09:56:28Z</time>
      </trkpt>
      <trkpt lat="46.27562" lon="4.69628">
        <ele>526</ele>
        <time>2014-09-28T09:56:29Z</time>
      </trkpt>
      <trkpt lat="46.2757" lon="4.69622">
        <ele>526</ele>
        <time>2014-09-28T09:56:34Z</time>
      </trkpt>
      <trkpt lat="46.27571" lon="4.69621">
        <ele>525</ele>
        <time>2014-09-28T09:56:35Z</time>
      </trkpt>
      <trkpt lat="46.27579" lon="4.69616">
        <ele>525</ele>
        <time>2014-09-28T09:56:40Z</time>
      </trkpt>
      <trkpt lat="46.27581" lon="4.69615">
        <ele>525</ele>
        <time>2014-09-28T09:56:41Z</time>
      </trkpt>
      <trkpt lat="46.27588" lon="4.69611">
        <ele>535</ele>
        <time>2014-09-28T09:56:46Z</time>
      </trkpt>
      <trkpt lat="46.2759" lon="4.69611">
        <ele>535</ele>
        <time>2014-09-28T09:56:47Z</time>
      </trkpt>
      <trkpt lat="46.27597" lon="4.69609">
        <ele>535</ele>
        <time>2014-09-28T09:56:52Z</time>
      </trkpt>
      <trkpt lat="46.27599" lon="4.69608">
        <ele>536</ele>
        <time>2014-09-28T09:56:53Z</time>
      </trkpt>
      <trkpt lat="46.27606" lon="4.69605">
        <ele>536</ele>
        <time>2014-09-28T09:56:58Z</time>
      </trkpt>
      <trkpt lat="46.27608" lon="4.69604">
        <ele>536</ele>
        <time>2014-09-28T09:56:59Z</time>
      </trkpt>
      <trkpt lat="46.27615" lon="4.696">
        <ele>537</ele>
        <time>2014-09-28T09:57:04Z</time>
      </trkpt>
      <trkpt lat="46.27616" lon="4.69599">
        <ele>537</ele>
        <time>2014-09-28T09:57:05Z</time>
      </trkpt>
      <trkpt lat="46.27623" lon="4.69593">
        <ele>538</ele>
        <time>2014-09-28T09:57:11Z</time>
      </trkpt>
      <trkpt lat="46.27624" lon="4.69592">
        <ele>538</ele>
        <time>2014-09-28T09:57:12Z</time>
      </trkpt>
      <trkpt lat="46.27631" lon="4.69585">
        <ele>539</ele>
        <time>2014-09-28T09:57:18Z</time>
      </trkpt>
      <trkpt lat="46.27632" lon="4.69584">
        <ele>539</ele>
        <time>2014-09-28T09:57:19Z</time>
      </trkpt>
      <trkpt lat="46.27638" lon="4.69575">
        <ele>533</ele>
        <time>2014-09-28T09:57:25Z</time>
      </trkpt>
      <trkpt lat="46.27639" lon="4.69574">
        <ele>534</ele>
        <time>2014-09-28T09:57:26Z</time>
      </trkpt>
      <trkpt lat="46.27646" lon="4.69568">
        <ele>535</ele>
        <time>2014-09-28T09:57:32Z</time>
      </trkpt>
      <trkpt lat="46.27647" lon="4.69567">
        <ele>535</ele>
        <time>2014-09-28T09:57:33Z</time>
      </trkpt>
      <trkpt lat="46.27652" lon="4.69559">
        <ele>534</ele>
        <time>2014-09-28T09:59:26Z</time>
      </trkpt>
      <trkpt lat="46.27654" lon="4.69557">
        <ele>534</ele>
        <time>2014-09-28T09:59:27Z</time>
      </trkpt>
      <trkpt lat="46.27661" lon="4.6955">
        <ele>534</ele>
        <time>2014-09-28T09:59:31Z</time>
      </trkpt>
      <trkpt lat="46.27663" lon="4.69548">
        <ele>533</ele>
        <time>2014-09-28T09:59:32Z</time>
      </trkpt>
      <trkpt lat="46.27669" lon="4.69542">
        <ele>543</ele>
        <time>2014-09-28T09:59:35Z</time>
      </trkpt>
      <trkpt lat="46.27671" lon="4.6954">
        <ele>543</ele>
        <time>2014-09-28T09:59:36Z</time>
      </trkpt>
      <trkpt lat="46.27678" lon="4.69533">
        <ele>543</ele>
        <time>2014-09-28T09:59:39Z</time>
      </trkpt>
      <trkpt lat="46.2768" lon="4.6953">
        <ele>543</ele>
        <time>2014-09-28T09:59:40Z</time>
      </trkpt>
      <trkpt lat="46.27686" lon="4.69523">
        <ele>542</ele>
        <time>2014-09-28T09:59:43Z</time>
      </trkpt>
      <trkpt lat="46.27688" lon="4.69521">
        <ele>542</ele>
        <time>2014-09-28T09:59:44Z</time>
      </trkpt>
      <trkpt lat="46.27694" lon="4.69514">
        <ele>543</ele>
        <time>2014-09-28T09:59:47Z</time>
      </trkpt>
      <trkpt lat="46.27696" lon="4.69512">
        <ele>543</ele>
        <time>2014-09-28T09:59:48Z</time>
      </trkpt>
      <trkpt lat="46.27704" lon="4.69506">
        <ele>544</ele>
        <time>2014-09-28T09:59:52Z</time>
      </trkpt>
      <trkpt lat="46.27706" lon="4.69505">
        <ele>544</ele>
        <time>2014-09-28T09:59:53Z</time>
      </trkpt>
      <trkpt lat="46.27713" lon="4.69502">
        <ele>545</ele>
        <time>2014-09-28T09:59:57Z</time>
      </trkpt>
      <trkpt lat="46.27715" lon="4.69501">
        <ele>545</ele>
        <time>2014-09-28T09:59:58Z</time>
      </trkpt>
      <trkpt lat="46.27721" lon="4.69498">
        <ele>541</ele>
        <time>2014-09-28T10:00:01Z</time>
      </trkpt>
      <trkpt lat="46.27723" lon="4.69497">
        <ele>541</ele>
        <time>2014-09-28T10:00:02Z</time>
      </trkpt>
      <trkpt lat="46.27732" lon="4.69494">
        <ele>543</ele>
        <time>2014-09-28T10:00:07Z</time>
      </trkpt>
      <trkpt lat="46.27733" lon="4.69494">
        <ele>543</ele>
        <time>2014-09-28T10:00:08Z</time>
      </trkpt>
      <trkpt lat="46.27742" lon="4.69494">
        <ele>546</ele>
        <time>2014-09-28T10:00:40Z</time>
      </trkpt>
      <trkpt lat="46.27743" lon="4.69494">
        <ele>546</ele>
        <time>2014-09-28T10:00:41Z</time>
      </trkpt>
      <trkpt lat="46.27751" lon="4.69491">
        <ele>549</ele>
        <time>2014-09-28T10:00:47Z</time>
      </trkpt>
      <trkpt lat="46.27753" lon="4.69491">
        <ele>549</ele>
        <time>2014-09-28T10:00:48Z</time>
      </trkpt>
      <trkpt lat="46.27761" lon="4.69488">
        <ele>549</ele>
        <time>2014-09-28T10:00:54Z</time>
      </trkpt>
      <trkpt lat="46.27763" lon="4.69489">
        <ele>549</ele>
        <time>2014-09-28T10:00:55Z</time>
      </trkpt>
      <trkpt lat="46.27771" lon="4.69491">
        <ele>549</ele>
        <time>2014-09-28T10:00:59Z</time>
      </trkpt>
      <trkpt lat="46.27773" lon="4.69492">
        <ele>549</ele>
        <time>2014-09-28T10:01:00Z</time>
      </trkpt>
      <trkpt lat="46.27782" lon="4.69493">
        <ele>550</ele>
        <time>2014-09-28T10:01:05Z</time>
      </trkpt>
      <trkpt lat="46.27784" lon="4.69493">
        <ele>550</ele>
        <time>2014-09-28T10:01:06Z</time>
      </trkpt>
      <trkpt lat="46.27792" lon="4.69497">
        <ele>550</ele>
        <time>2014-09-28T10:01:11Z</time>
      </trkpt>
      <trkpt lat="46.27793" lon="4.69498">
        <ele>550</ele>
        <time>2014-09-28T10:01:12Z</time>
      </trkpt>
      <trkpt lat="46.27802" lon="4.69498">
        <ele>551</ele>
        <time>2014-09-28T10:01:17Z</time>
      </trkpt>
      <trkpt lat="46.27803" lon="4.69498">
        <ele>551</ele>
        <time>2014-09-28T10:01:18Z</time>
      </trkpt>
      <trkpt lat="46.27811" lon="4.69496">
        <ele>551</ele>
        <time>2014-09-28T10:01:22Z</time>
      </trkpt>
      <trkpt lat="46.27812" lon="4.69496">
        <ele>551</ele>
        <time>2014-09-28T10:01:23Z</time>
      </trkpt>
      <trkpt lat="46.2782" lon="4.69498">
        <ele>552</ele>
        <time>2014-09-28T10:01:27Z</time>
      </trkpt>
      <trkpt lat="46.27822" lon="4.69498">
        <ele>553</ele>
        <time>2014-09-28T10:01:28Z</time>
      </trkpt>
      <trkpt lat="46.2783" lon="4.695">
        <ele>554</ele>
        <time>2014-09-28T10:01:33Z</time>
      </trkpt>
      <trkpt lat="46.27831" lon="4.69501">
        <ele>555</ele>
        <time>2014-09-28T10:01:34Z</time>
      </trkpt>
      <trkpt lat="46.2784" lon="4.69502">
        <ele>556</ele>
        <time>2014-09-28T10:01:39Z</time>
      </trkpt>
      <trkpt lat="46.27841" lon="4.69503">
        <ele>556</ele>
        <time>2014-09-28T10:01:40Z</time>
      </trkpt>
      <trkpt lat="46.27847" lon="4.69508">
        <ele>556</ele>
        <time>2014-09-28T10:01:44Z</time>
      </trkpt>
      <trkpt lat="46.27849" lon="4.6951">
        <ele>556</ele>
        <time>2014-09-28T10:01:45Z</time>
      </trkpt>
      <trkpt lat="46.27855" lon="4.69517">
        <ele>557</ele>
        <time>2014-09-28T10:01:48Z</time>
      </trkpt>
      <trkpt lat="46.27858" lon="4.6952">
        <ele>557</ele>
        <time>2014-09-28T10:01:49Z</time>
      </trkpt>
      <trkpt lat="46.27862" lon="4.69526">
        <ele>557</ele>
        <time>2014-09-28T10:01:51Z</time>
      </trkpt>
      <trkpt lat="46.27864" lon="4.69529">
        <ele>557</ele>
        <time>2014-09-28T10:01:52Z</time>
      </trkpt>
      <trkpt lat="46.27869" lon="4.69536">
        <ele>557</ele>
        <time>2014-09-28T10:01:54Z</time>
      </trkpt>
      <trkpt lat="46.27871" lon="4.69538">
        <ele>557</ele>
        <time>2014-09-28T10:01:55Z</time>
      </trkpt>
      <trkpt lat="46.2788" lon="4.69541">
        <ele>557</ele>
        <time>2014-09-28T10:01:58Z</time>
      </trkpt>
      <trkpt lat="46.27882" lon="4.6954">
        <ele>557</ele>
        <time>2014-09-28T10:01:59Z</time>
      </trkpt>
      <trkpt lat="46.2789" lon="4.69534">
        <ele>558</ele>
        <time>2014-09-28T10:02:02Z</time>
      </trkpt>
      <trkpt lat="46.27892" lon="4.69532">
        <ele>558</ele>
        <time>2014-09-28T10:02:03Z</time>
      </trkpt>
      <trkpt lat="46.279" lon="4.69531">
        <ele>558</ele>
        <time>2014-09-28T10:02:06Z</time>
      </trkpt>
      <trkpt lat="46.27902" lon="4.69531">
        <ele>558</ele>
        <time>2014-09-28T10:02:07Z</time>
      </trkpt>
      <trkpt lat="46.27911" lon="4.69534">
        <ele>558</ele>
        <time>2014-09-28T10:02:10Z</time>
      </trkpt>
      <trkpt lat="46.27915" lon="4.69536">
        <ele>558</ele>
        <time>2014-09-28T10:02:11Z</time>
      </trkpt>
      <trkpt lat="46.27922" lon="4.69539">
        <ele>559</ele>
        <time>2014-09-28T10:02:13Z</time>
      </trkpt>
      <trkpt lat="46.27925" lon="4.69541">
        <ele>559</ele>
        <time>2014-09-28T10:02:14Z</time>
      </trkpt>
      <trkpt lat="46.27933" lon="4.69544">
        <ele>559</ele>
        <time>2014-09-28T10:02:16Z</time>
      </trkpt>
      <trkpt lat="46.27937" lon="4.69545">
        <ele>559</ele>
        <time>2014-09-28T10:02:17Z</time>
      </trkpt>
      <trkpt lat="46.27946" lon="4.69548">
        <ele>559</ele>
        <time>2014-09-28T10:02:19Z</time>
      </trkpt>
      <trkpt lat="46.27954" lon="4.69547">
        <ele>559</ele>
        <time>2014-09-28T10:02:20Z</time>
      </trkpt>
      <trkpt lat="46.27959" lon="4.69548">
        <ele>559</ele>
        <time>2014-09-28T10:02:21Z</time>
      </trkpt>
      <trkpt lat="46.27963" lon="4.69547">
        <ele>559</ele>
        <time>2014-09-28T10:02:22Z</time>
      </trkpt>
      <trkpt lat="46.27969" lon="4.69548">
        <ele>559</ele>
        <time>2014-09-28T10:02:23Z</time>
      </trkpt>
      <trkpt lat="46.27975" lon="4.69549">
        <ele>559</ele>
        <time>2014-09-28T10:02:24Z</time>
      </trkpt>
      <trkpt lat="46.27979" lon="4.69551">
        <ele>559</ele>
        <time>2014-09-28T10:02:25Z</time>
      </trkpt>
      <trkpt lat="46.27985" lon="4.69549">
        <ele>559</ele>
        <time>2014-09-28T10:02:26Z</time>
      </trkpt>
      <trkpt lat="46.27994" lon="4.69549">
        <ele>559</ele>
        <time>2014-09-28T10:02:28Z</time>
      </trkpt>
      <trkpt lat="46.27999" lon="4.69551">
        <ele>559</ele>
        <time>2014-09-28T10:02:29Z</time>
      </trkpt>
      <trkpt lat="46.28007" lon="4.69553">
        <ele>560</ele>
        <time>2014-09-28T10:02:31Z</time>
      </trkpt>
      <trkpt lat="46.2801" lon="4.69555">
        <ele>560</ele>
        <time>2014-09-28T10:02:32Z</time>
      </trkpt>
      <trkpt lat="46.28018" lon="4.6956">
        <ele>559</ele>
        <time>2014-09-28T10:02:34Z</time>
      </trkpt>
      <trkpt lat="46.28022" lon="4.69562">
        <ele>559</ele>
        <time>2014-09-28T10:02:35Z</time>
      </trkpt>
      <trkpt lat="46.28029" lon="4.69565">
        <ele>560</ele>
        <time>2014-09-28T10:02:37Z</time>
      </trkpt>
      <trkpt lat="46.28032" lon="4.69567">
        <ele>560</ele>
        <time>2014-09-28T10:02:38Z</time>
      </trkpt>
      <trkpt lat="46.28036" lon="4.69569">
        <ele>560</ele>
        <time>2014-09-28T10:02:39Z</time>
      </trkpt>
      <trkpt lat="46.28042" lon="4.69571">
        <ele>560</ele>
        <time>2014-09-28T10:02:40Z</time>
      </trkpt>
      <trkpt lat="46.28052" lon="4.69572">
        <ele>560</ele>
        <time>2014-09-28T10:02:41Z</time>
      </trkpt>
      <trkpt lat="46.28056" lon="4.69576">
        <ele>560</ele>
        <time>2014-09-28T10:02:42Z</time>
      </trkpt>
      <trkpt lat="46.2806" lon="4.69578">
        <ele>560</ele>
        <time>2014-09-28T10:02:43Z</time>
      </trkpt>
      <trkpt lat="46.28065" lon="4.69583">
        <ele>560</ele>
        <time>2014-09-28T10:02:45Z</time>
      </trkpt>
      <trkpt lat="46.28069" lon="4.69583">
        <ele>560</ele>
        <time>2014-09-28T10:02:46Z</time>
      </trkpt>
      <trkpt lat="46.28073" lon="4.69587">
        <ele>557</ele>
        <time>2014-09-28T10:02:47Z</time>
      </trkpt>
      <trkpt lat="46.28078" lon="4.69589">
        <ele>558</ele>
        <time>2014-09-28T10:02:48Z</time>
      </trkpt>
      <trkpt lat="46.28082" lon="4.69593">
        <ele>558</ele>
        <time>2014-09-28T10:02:49Z</time>
      </trkpt>
      <trkpt lat="46.28086" lon="4.69596">
        <ele>557</ele>
        <time>2014-09-28T10:02:50Z</time>
      </trkpt>
      <trkpt lat="46.28092" lon="4.69599">
        <ele>556</ele>
        <time>2014-09-28T10:02:51Z</time>
      </trkpt>
      <trkpt lat="46.28098" lon="4.69602">
        <ele>556</ele>
        <time>2014-09-28T10:02:52Z</time>
      </trkpt>
      <trkpt lat="46.28105" lon="4.69603">
        <ele>556</ele>
        <time>2014-09-28T10:02:53Z</time>
      </trkpt>
      <trkpt lat="46.28112" lon="4.69607">
        <ele>555</ele>
        <time>2014-09-28T10:02:54Z</time>
      </trkpt>
      <trkpt lat="46.28117" lon="4.69608">
        <ele>555</ele>
        <time>2014-09-28T10:02:55Z</time>
      </trkpt>
      <trkpt lat="46.28124" lon="4.69611">
        <ele>555</ele>
        <time>2014-09-28T10:02:56Z</time>
      </trkpt>
      <trkpt lat="46.28128" lon="4.69612">
        <ele>554</ele>
        <time>2014-09-28T10:02:57Z</time>
      </trkpt>
      <trkpt lat="46.28134" lon="4.69613">
        <ele>554</ele>
        <time>2014-09-28T10:02:58Z</time>
      </trkpt>
      <trkpt lat="46.2814" lon="4.69613">
        <ele>554</ele>
        <time>2014-09-28T10:02:59Z</time>
      </trkpt>
      <trkpt lat="46.28145" lon="4.69613">
        <ele>554</ele>
        <time>2014-09-28T10:03:00Z</time>
      </trkpt>
      <trkpt lat="46.2815" lon="4.69616">
        <ele>554</ele>
        <time>2014-09-28T10:03:01Z</time>
      </trkpt>
      <trkpt lat="46.28159" lon="4.69615">
        <ele>554</ele>
        <time>2014-09-28T10:03:02Z</time>
      </trkpt>
      <trkpt lat="46.28164" lon="4.69612">
        <ele>554</ele>
        <time>2014-09-28T10:03:03Z</time>
      </trkpt>
      <trkpt lat="46.28172" lon="4.69615">
        <ele>554</ele>
        <time>2014-09-28T10:03:04Z</time>
      </trkpt>
      <trkpt lat="46.28172" lon="4.69615">
        <ele>554</ele>
        <time>2014-09-28T10:03:05Z</time>
      </trkpt>
      <trkpt lat="46.28181" lon="4.69616">
        <ele>554</ele>
        <time>2014-09-28T10:03:05Z</time>
      </trkpt>
      <trkpt lat="46.2819" lon="4.69619">
        <ele>553</ele>
        <time>2014-09-28T10:03:06Z</time>
      </trkpt>
      <trkpt lat="46.28198" lon="4.69623">
        <ele>553</ele>
        <time>2014-09-28T10:03:07Z</time>
      </trkpt>
      <trkpt lat="46.28205" lon="4.69623">
        <ele>553</ele>
        <time>2014-09-28T10:03:08Z</time>
      </trkpt>
      <trkpt lat="46.28213" lon="4.69625">
        <ele>553</ele>
        <time>2014-09-28T10:03:09Z</time>
      </trkpt>
      <trkpt lat="46.28218" lon="4.69629">
        <ele>553</ele>
        <time>2014-09-28T10:03:10Z</time>
      </trkpt>
      <trkpt lat="46.28224" lon="4.69634">
        <ele>553</ele>
        <time>2014-09-28T10:03:11Z</time>
      </trkpt>
      <trkpt lat="46.28229" lon="4.6964">
        <ele>553</ele>
        <time>2014-09-28T10:03:12Z</time>
      </trkpt>
      <trkpt lat="46.28235" lon="4.69646">
        <ele>552</ele>
        <time>2014-09-28T10:03:13Z</time>
      </trkpt>
      <trkpt lat="46.2824" lon="4.69651">
        <ele>552</ele>
        <time>2014-09-28T10:03:14Z</time>
      </trkpt>
      <trkpt lat="46.28245" lon="4.69657">
        <ele>551</ele>
        <time>2014-09-28T10:03:15Z</time>
      </trkpt>
      <trkpt lat="46.2825" lon="4.69663">
        <ele>550</ele>
        <time>2014-09-28T10:03:16Z</time>
      </trkpt>
      <trkpt lat="46.28254" lon="4.6967">
        <ele>549</ele>
        <time>2014-09-28T10:03:17Z</time>
      </trkpt>
      <trkpt lat="46.2826" lon="4.69677">
        <ele>548</ele>
        <time>2014-09-28T10:03:18Z</time>
      </trkpt>
      <trkpt lat="46.28264" lon="4.69682">
        <ele>548</ele>
        <time>2014-09-28T10:03:19Z</time>
      </trkpt>
      <trkpt lat="46.28269" lon="4.69689">
        <ele>547</ele>
        <time>2014-09-28T10:03:20Z</time>
      </trkpt>
      <trkpt lat="46.28274" lon="4.69694">
        <ele>547</ele>
        <time>2014-09-28T10:03:21Z</time>
      </trkpt>
      <trkpt lat="46.2828" lon="4.69698">
        <ele>547</ele>
        <time>2014-09-28T10:03:22Z</time>
      </trkpt>
      <trkpt lat="46.28286" lon="4.69702">
        <ele>547</ele>
        <time>2014-09-28T10:03:23Z</time>
      </trkpt>
      <trkpt lat="46.28291" lon="4.69705">
        <ele>546</ele>
        <time>2014-09-28T10:03:24Z</time>
      </trkpt>
      <trkpt lat="46.28297" lon="4.69707">
        <ele>547</ele>
        <time>2014-09-28T10:03:25Z</time>
      </trkpt>
      <trkpt lat="46.28305" lon="4.69711">
        <ele>547</ele>
        <time>2014-09-28T10:03:27Z</time>
      </trkpt>
      <trkpt lat="46.2831" lon="4.69712">
        <ele>547</ele>
        <time>2014-09-28T10:03:28Z</time>
      </trkpt>
      <trkpt lat="46.28316" lon="4.69715">
        <ele>547</ele>
        <time>2014-09-28T10:03:30Z</time>
      </trkpt>
      <trkpt lat="46.28318" lon="4.69716">
        <ele>547</ele>
        <time>2014-09-28T10:03:31Z</time>
      </trkpt>
      <trkpt lat="46.28326" lon="4.69713">
        <ele>547</ele>
        <time>2014-09-28T10:03:33Z</time>
      </trkpt>
      <trkpt lat="46.28329" lon="4.69716">
        <ele>547</ele>
        <time>2014-09-28T10:03:34Z</time>
      </trkpt>
      <trkpt lat="46.28336" lon="4.69718">
        <ele>549</ele>
        <time>2014-09-28T10:03:36Z</time>
      </trkpt>
      <trkpt lat="46.2834" lon="4.69723">
        <ele>549</ele>
        <time>2014-09-28T10:03:37Z</time>
      </trkpt>
      <trkpt lat="46.28346" lon="4.69728">
        <ele>548</ele>
        <time>2014-09-28T10:03:38Z</time>
      </trkpt>
      <trkpt lat="46.28351" lon="4.69727">
        <ele>549</ele>
        <time>2014-09-28T10:03:39Z</time>
      </trkpt>
      <trkpt lat="46.28357" lon="4.69733">
        <ele>549</ele>
        <time>2014-09-28T10:03:41Z</time>
      </trkpt>
      <trkpt lat="46.2836" lon="4.69735">
        <ele>548</ele>
        <time>2014-09-28T10:03:42Z</time>
      </trkpt>
      <trkpt lat="46.28366" lon="4.69739">
        <ele>549</ele>
        <time>2014-09-28T10:03:44Z</time>
      </trkpt>
      <trkpt lat="46.2837" lon="4.69742">
        <ele>549</ele>
        <time>2014-09-28T10:03:45Z</time>
      </trkpt>
      <trkpt lat="46.28374" lon="4.69745">
        <ele>549</ele>
        <time>2014-09-28T10:03:46Z</time>
      </trkpt>
      <trkpt lat="46.28378" lon="4.69749">
        <ele>548</ele>
        <time>2014-09-28T10:03:47Z</time>
      </trkpt>
      <trkpt lat="46.28382" lon="4.69753">
        <ele>543</ele>
        <time>2014-09-28T10:03:48Z</time>
      </trkpt>
      <trkpt lat="46.28386" lon="4.69757">
        <ele>543</ele>
        <time>2014-09-28T10:03:49Z</time>
      </trkpt>
      <trkpt lat="46.28391" lon="4.69761">
        <ele>543</ele>
        <time>2014-09-28T10:03:50Z</time>
      </trkpt>
      <trkpt lat="46.28395" lon="4.69765">
        <ele>543</ele>
        <time>2014-09-28T10:03:51Z</time>
      </trkpt>
      <trkpt lat="46.28405" lon="4.69774">
        <ele>543</ele>
        <time>2014-09-28T10:03:52Z</time>
      </trkpt>
      <trkpt lat="46.28409" lon="4.69776">
        <ele>543</ele>
        <time>2014-09-28T10:03:53Z</time>
      </trkpt>
      <trkpt lat="46.28415" lon="4.69779">
        <ele>543</ele>
        <time>2014-09-28T10:03:54Z</time>
      </trkpt>
      <trkpt lat="46.2842" lon="4.69781">
        <ele>544</ele>
        <time>2014-09-28T10:03:55Z</time>
      </trkpt>
      <trkpt lat="46.28424" lon="4.69785">
        <ele>544</ele>
        <time>2014-09-28T10:03:56Z</time>
      </trkpt>
      <trkpt lat="46.2843" lon="4.69789">
        <ele>544</ele>
        <time>2014-09-28T10:03:57Z</time>
      </trkpt>
      <trkpt lat="46.28435" lon="4.69792">
        <ele>543</ele>
        <time>2014-09-28T10:03:58Z</time>
      </trkpt>
      <trkpt lat="46.28439" lon="4.69797">
        <ele>543</ele>
        <time>2014-09-28T10:03:59Z</time>
      </trkpt>
      <trkpt lat="46.28443" lon="4.69799">
        <ele>543</ele>
        <time>2014-09-28T10:04:00Z</time>
      </trkpt>
      <trkpt lat="46.28451" lon="4.69801">
        <ele>543</ele>
        <time>2014-09-28T10:04:02Z</time>
      </trkpt>
      <trkpt lat="46.28454" lon="4.69806">
        <ele>543</ele>
        <time>2014-09-28T10:04:03Z</time>
      </trkpt>
      <trkpt lat="46.28458" lon="4.69805">
        <ele>543</ele>
        <time>2014-09-28T10:04:04Z</time>
      </trkpt>
      <trkpt lat="46.28464" lon="4.69805">
        <ele>543</ele>
        <time>2014-09-28T10:04:05Z</time>
      </trkpt>
      <trkpt lat="46.28471" lon="4.69807">
        <ele>543</ele>
        <time>2014-09-28T10:04:07Z</time>
      </trkpt>
      <trkpt lat="46.28474" lon="4.69808">
        <ele>543</ele>
        <time>2014-09-28T10:04:08Z</time>
      </trkpt>
      <trkpt lat="46.28481" lon="4.69808">
        <ele>543</ele>
        <time>2014-09-28T10:04:10Z</time>
      </trkpt>
      <trkpt lat="46.28485" lon="4.69808">
        <ele>543</ele>
        <time>2014-09-28T10:04:11Z</time>
      </trkpt>
      <trkpt lat="46.28493" lon="4.69809">
        <ele>543</ele>
        <time>2014-09-28T10:04:13Z</time>
      </trkpt>
      <trkpt lat="46.28497" lon="4.6981">
        <ele>543</ele>
        <time>2014-09-28T10:04:14Z</time>
      </trkpt>
      <trkpt lat="46.28506" lon="4.69812">
        <ele>543</ele>
        <time>2014-09-28T10:04:16Z</time>
      </trkpt>
      <trkpt lat="46.28507" lon="4.69812">
        <ele>543</ele>
        <time>2014-09-28T10:04:17Z</time>
      </trkpt>
      <trkpt lat="46.28514" lon="4.69809">
        <ele>544</ele>
        <time>2014-09-28T10:04:22Z</time>
      </trkpt>
      <trkpt lat="46.28517" lon="4.69809">
        <ele>544</ele>
        <time>2014-09-28T10:04:23Z</time>
      </trkpt>
      <trkpt lat="46.28524" lon="4.69809">
        <ele>544</ele>
        <time>2014-09-28T10:04:25Z</time>
      </trkpt>
      <trkpt lat="46.28527" lon="4.69808">
        <ele>544</ele>
        <time>2014-09-28T10:04:26Z</time>
      </trkpt>
      <trkpt lat="46.28535" lon="4.69808">
        <ele>544</ele>
        <time>2014-09-28T10:04:28Z</time>
      </trkpt>
      <trkpt lat="46.28539" lon="4.69806">
        <ele>544</ele>
        <time>2014-09-28T10:04:29Z</time>
      </trkpt>
      <trkpt lat="46.28547" lon="4.69805">
        <ele>544</ele>
        <time>2014-09-28T10:04:31Z</time>
      </trkpt>
      <trkpt lat="46.2855" lon="4.69804">
        <ele>544</ele>
        <time>2014-09-28T10:04:32Z</time>
      </trkpt>
      <trkpt lat="46.28558" lon="4.69804">
        <ele>544</ele>
        <time>2014-09-28T10:04:34Z</time>
      </trkpt>
      <trkpt lat="46.28561" lon="4.69805">
        <ele>544</ele>
        <time>2014-09-28T10:04:35Z</time>
      </trkpt>
      <trkpt lat="46.28569" lon="4.69806">
        <ele>544</ele>
        <time>2014-09-28T10:04:37Z</time>
      </trkpt>
      <trkpt lat="46.28572" lon="4.69807">
        <ele>544</ele>
        <time>2014-09-28T10:04:38Z</time>
      </trkpt>
      <trkpt lat="46.2858" lon="4.69808">
        <ele>544</ele>
        <time>2014-09-28T10:04:40Z</time>
      </trkpt>
      <trkpt lat="46.28583" lon="4.69808">
        <ele>544</ele>
        <time>2014-09-28T10:04:41Z</time>
      </trkpt>
      <trkpt lat="46.2859" lon="4.69807">
        <ele>543</ele>
        <time>2014-09-28T10:04:43Z</time>
      </trkpt>
      <trkpt lat="46.28593" lon="4.69807">
        <ele>543</ele>
        <time>2014-09-28T10:04:44Z</time>
      </trkpt>
      <trkpt lat="46.286" lon="4.69806">
        <ele>543</ele>
        <time>2014-09-28T10:04:46Z</time>
      </trkpt>
      <trkpt lat="46.28603" lon="4.69805">
        <ele>543</ele>
        <time>2014-09-28T10:04:47Z</time>
      </trkpt>
      <trkpt lat="46.28609" lon="4.69799">
        <ele>544</ele>
        <time>2014-09-28T10:04:50Z</time>
      </trkpt>
      <trkpt lat="46.28611" lon="4.69798">
        <ele>544</ele>
        <time>2014-09-28T10:04:51Z</time>
      </trkpt>
      <trkpt lat="46.28619" lon="4.69795">
        <ele>544</ele>
        <time>2014-09-28T10:04:54Z</time>
      </trkpt>
      <trkpt lat="46.28621" lon="4.69794">
        <ele>544</ele>
        <time>2014-09-28T10:04:55Z</time>
      </trkpt>
      <trkpt lat="46.28629" lon="4.69788">
        <ele>544</ele>
        <time>2014-09-28T10:04:58Z</time>
      </trkpt>
      <trkpt lat="46.28632" lon="4.69785">
        <ele>544</ele>
        <time>2014-09-28T10:04:59Z</time>
      </trkpt>
      <trkpt lat="46.28638" lon="4.69776">
        <ele>545</ele>
        <time>2014-09-28T10:05:01Z</time>
      </trkpt>
      <trkpt lat="46.28642" lon="4.69773">
        <ele>545</ele>
        <time>2014-09-28T10:05:02Z</time>
      </trkpt>
      <trkpt lat="46.28649" lon="4.69766">
        <ele>545</ele>
        <time>2014-09-28T10:05:04Z</time>
      </trkpt>
      <trkpt lat="46.28652" lon="4.69762">
        <ele>545</ele>
        <time>2014-09-28T10:05:05Z</time>
      </trkpt>
      <trkpt lat="46.28659" lon="4.69755">
        <ele>546</ele>
        <time>2014-09-28T10:05:07Z</time>
      </trkpt>
      <trkpt lat="46.28662" lon="4.69752">
        <ele>546</ele>
        <time>2014-09-28T10:05:08Z</time>
      </trkpt>
      <trkpt lat="46.28668" lon="4.69746">
        <ele>547</ele>
        <time>2014-09-28T10:05:10Z</time>
      </trkpt>
      <trkpt lat="46.28671" lon="4.69744">
        <ele>547</ele>
        <time>2014-09-28T10:05:11Z</time>
      </trkpt>
      <trkpt lat="46.28676" lon="4.69738">
        <ele>548</ele>
        <time>2014-09-28T10:05:14Z</time>
      </trkpt>
      <trkpt lat="46.28677" lon="4.69735">
        <ele>548</ele>
        <time>2014-09-28T10:05:15Z</time>
      </trkpt>
      <trkpt lat="46.28671" lon="4.69741">
        <ele>548</ele>
        <time>2014-09-28T10:05:41Z</time>
      </trkpt>
      <trkpt lat="46.28668" lon="4.69743">
        <ele>548</ele>
        <time>2014-09-28T10:05:42Z</time>
      </trkpt>
      <trkpt lat="46.28661" lon="4.69748">
        <ele>548</ele>
        <time>2014-09-28T10:05:45Z</time>
      </trkpt>
      <trkpt lat="46.28659" lon="4.69749">
        <ele>548</ele>
        <time>2014-09-28T10:05:46Z</time>
      </trkpt>
      <trkpt lat="46.28652" lon="4.69755">
        <ele>546</ele>
        <time>2014-09-28T10:05:49Z</time>
      </trkpt>
      <trkpt lat="46.2865" lon="4.69756">
        <ele>546</ele>
        <time>2014-09-28T10:05:50Z</time>
      </trkpt>
      <trkpt lat="46.28655" lon="4.6975">
        <ele>546</ele>
        <time>2014-09-28T10:06:10Z</time>
      </trkpt>
      <trkpt lat="46.28658" lon="4.69748">
        <ele>549</ele>
        <time>2014-09-28T10:06:11Z</time>
      </trkpt>
      <trkpt lat="46.28663" lon="4.69745">
        <ele>548</ele>
        <time>2014-09-28T10:06:12Z</time>
      </trkpt>
      <trkpt lat="46.28668" lon="4.69742">
        <ele>548</ele>
        <time>2014-09-28T10:06:13Z</time>
      </trkpt>
      <trkpt lat="46.28675" lon="4.6974">
        <ele>548</ele>
        <time>2014-09-28T10:06:14Z</time>
      </trkpt>
      <trkpt lat="46.28679" lon="4.69736">
        <ele>548</ele>
        <time>2014-09-28T10:06:15Z</time>
      </trkpt>
      <trkpt lat="46.28686" lon="4.6973">
        <ele>548</ele>
        <time>2014-09-28T10:06:17Z</time>
      </trkpt>
      <trkpt lat="46.28688" lon="4.69726">
        <ele>548</ele>
        <time>2014-09-28T10:06:18Z</time>
      </trkpt>
      <trkpt lat="46.28692" lon="4.69723">
        <ele>548</ele>
        <time>2014-09-28T10:06:19Z</time>
      </trkpt>
      <trkpt lat="46.28695" lon="4.69717">
        <ele>549</ele>
        <time>2014-09-28T10:06:20Z</time>
      </trkpt>
      <trkpt lat="46.28702" lon="4.6971">
        <ele>549</ele>
        <time>2014-09-28T10:06:22Z</time>
      </trkpt>
      <trkpt lat="46.28706" lon="4.69706">
        <ele>549</ele>
        <time>2014-09-28T10:06:23Z</time>
      </trkpt>
      <trkpt lat="46.28712" lon="4.69697">
        <ele>549</ele>
        <time>2014-09-28T10:06:25Z</time>
      </trkpt>
      <trkpt lat="46.28717" lon="4.69694">
        <ele>549</ele>
        <time>2014-09-28T10:06:26Z</time>
      </trkpt>
      <trkpt lat="46.28723" lon="4.69687">
        <ele>549</ele>
        <time>2014-09-28T10:06:28Z</time>
      </trkpt>
      <trkpt lat="46.28727" lon="4.69681">
        <ele>549</ele>
        <time>2014-09-28T10:06:29Z</time>
      </trkpt>
      <trkpt lat="46.28729" lon="4.69677">
        <ele>550</ele>
        <time>2014-09-28T10:06:30Z</time>
      </trkpt>
      <trkpt lat="46.28734" lon="4.69672">
        <ele>550</ele>
        <time>2014-09-28T10:06:31Z</time>
      </trkpt>
      <trkpt lat="46.28738" lon="4.69666">
        <ele>553</ele>
        <time>2014-09-28T10:06:32Z</time>
      </trkpt>
      <trkpt lat="46.28742" lon="4.69664">
        <ele>552</ele>
        <time>2014-09-28T10:06:33Z</time>
      </trkpt>
      <trkpt lat="46.28748" lon="4.69657">
        <ele>552</ele>
        <time>2014-09-28T10:06:35Z</time>
      </trkpt>
      <trkpt lat="46.28751" lon="4.69653">
        <ele>551</ele>
        <time>2014-09-28T10:06:36Z</time>
      </trkpt>
      <trkpt lat="46.28757" lon="4.69649">
        <ele>551</ele>
        <time>2014-09-28T10:06:38Z</time>
      </trkpt>
      <trkpt lat="46.28761" lon="4.69646">
        <ele>551</ele>
        <time>2014-09-28T10:06:39Z</time>
      </trkpt>
      <trkpt lat="46.28768" lon="4.69643">
        <ele>551</ele>
        <time>2014-09-28T10:06:41Z</time>
      </trkpt>
      <trkpt lat="46.28771" lon="4.69641">
        <ele>551</ele>
        <time>2014-09-28T10:06:42Z</time>
      </trkpt>
      <trkpt lat="46.28777" lon="4.69637">
        <ele>551</ele>
        <time>2014-09-28T10:06:44Z</time>
      </trkpt>
      <trkpt lat="46.2878" lon="4.69636">
        <ele>551</ele>
        <time>2014-09-28T10:06:45Z</time>
      </trkpt>
      <trkpt lat="46.28787" lon="4.69633">
        <ele>551</ele>
        <time>2014-09-28T10:06:47Z</time>
      </trkpt>
      <trkpt lat="46.2879" lon="4.69632">
        <ele>551</ele>
        <time>2014-09-28T10:06:48Z</time>
      </trkpt>
      <trkpt lat="46.28798" lon="4.69629">
        <ele>551</ele>
        <time>2014-09-28T10:06:50Z</time>
      </trkpt>
      <trkpt lat="46.28801" lon="4.69628">
        <ele>551</ele>
        <time>2014-09-28T10:06:51Z</time>
      </trkpt>
      <trkpt lat="46.28809" lon="4.69625">
        <ele>551</ele>
        <time>2014-09-28T10:06:53Z</time>
      </trkpt>
      <trkpt lat="46.28812" lon="4.69623">
        <ele>551</ele>
        <time>2014-09-28T10:06:54Z</time>
      </trkpt>
      <trkpt lat="46.28819" lon="4.69619">
        <ele>551</ele>
        <time>2014-09-28T10:06:56Z</time>
      </trkpt>
      <trkpt lat="46.28823" lon="4.69617">
        <ele>551</ele>
        <time>2014-09-28T10:06:57Z</time>
      </trkpt>
      <trkpt lat="46.2883" lon="4.69612">
        <ele>552</ele>
        <time>2014-09-28T10:06:59Z</time>
      </trkpt>
      <trkpt lat="46.28834" lon="4.6961">
        <ele>548</ele>
        <time>2014-09-28T10:07:00Z</time>
      </trkpt>
      <trkpt lat="46.28843" lon="4.69606">
        <ele>548</ele>
        <time>2014-09-28T10:07:02Z</time>
      </trkpt>
      <trkpt lat="46.28847" lon="4.69603">
        <ele>548</ele>
        <time>2014-09-28T10:07:03Z</time>
      </trkpt>
      <trkpt lat="46.28851" lon="4.69601">
        <ele>548</ele>
        <time>2014-09-28T10:07:04Z</time>
      </trkpt>
      <trkpt lat="46.28855" lon="4.69598">
        <ele>548</ele>
        <time>2014-09-28T10:07:05Z</time>
      </trkpt>
      <trkpt lat="46.2886" lon="4.69596">
        <ele>548</ele>
        <time>2014-09-28T10:07:06Z</time>
      </trkpt>
      <trkpt lat="46.28865" lon="4.69595">
        <ele>547</ele>
        <time>2014-09-28T10:07:07Z</time>
      </trkpt>
      <trkpt lat="46.28873" lon="4.69593">
        <ele>547</ele>
        <time>2014-09-28T10:07:08Z</time>
      </trkpt>
      <trkpt lat="46.28876" lon="4.69593">
        <ele>547</ele>
        <time>2014-09-28T10:07:09Z</time>
      </trkpt>
      <trkpt lat="46.28885" lon="4.69591">
        <ele>546</ele>
        <time>2014-09-28T10:07:11Z</time>
      </trkpt>
      <trkpt lat="46.28889" lon="4.69589">
        <ele>546</ele>
        <time>2014-09-28T10:07:12Z</time>
      </trkpt>
      <trkpt lat="46.28898" lon="4.69588">
        <ele>547</ele>
        <time>2014-09-28T10:07:14Z</time>
      </trkpt>
      <trkpt lat="46.28903" lon="4.69588">
        <ele>547</ele>
        <time>2014-09-28T10:07:15Z</time>
      </trkpt>
      <trkpt lat="46.28908" lon="4.69587">
        <ele>547</ele>
        <time>2014-09-28T10:07:16Z</time>
      </trkpt>
      <trkpt lat="46.28913" lon="4.69586">
        <ele>548</ele>
        <time>2014-09-28T10:07:17Z</time>
      </trkpt>
      <trkpt lat="46.28918" lon="4.69584">
        <ele>548</ele>
        <time>2014-09-28T10:07:18Z</time>
      </trkpt>
      <trkpt lat="46.28923" lon="4.69583">
        <ele>550</ele>
        <time>2014-09-28T10:07:19Z</time>
      </trkpt>
      <trkpt lat="46.28928" lon="4.69584">
        <ele>545</ele>
        <time>2014-09-28T10:07:20Z</time>
      </trkpt>
      <trkpt lat="46.28934" lon="4.69583">
        <ele>550</ele>
        <time>2014-09-28T10:07:21Z</time>
      </trkpt>
      <trkpt lat="46.28938" lon="4.69583">
        <ele>542</ele>
        <time>2014-09-28T10:07:22Z</time>
      </trkpt>
      <trkpt lat="46.28943" lon="4.69583">
        <ele>550</ele>
        <time>2014-09-28T10:07:23Z</time>
      </trkpt>
      <trkpt lat="46.28948" lon="4.69582">
        <ele>550</ele>
        <time>2014-09-28T10:07:24Z</time>
      </trkpt>
      <trkpt lat="46.28955" lon="4.6958">
        <ele>549</ele>
        <time>2014-09-28T10:07:25Z</time>
      </trkpt>
      <trkpt lat="46.2896" lon="4.69578">
        <ele>549</ele>
        <time>2014-09-28T10:07:26Z</time>
      </trkpt>
      <trkpt lat="46.28966" lon="4.69576">
        <ele>548</ele>
        <time>2014-09-28T10:07:27Z</time>
      </trkpt>
      <trkpt lat="46.28973" lon="4.69577">
        <ele>547</ele>
        <time>2014-09-28T10:07:29Z</time>
      </trkpt>
      <trkpt lat="46.28977" lon="4.69577">
        <ele>547</ele>
        <time>2014-09-28T10:07:30Z</time>
      </trkpt>
      <trkpt lat="46.28985" lon="4.69574">
        <ele>545</ele>
        <time>2014-09-28T10:07:36Z</time>
      </trkpt>
      <trkpt lat="46.28987" lon="4.69573">
        <ele>545</ele>
        <time>2014-09-28T10:07:37Z</time>
      </trkpt>
      <trkpt lat="46.28995" lon="4.69572">
        <ele>544</ele>
        <time>2014-09-28T10:07:40Z</time>
      </trkpt>
      <trkpt lat="46.29" lon="4.69572">
        <ele>543</ele>
        <time>2014-09-28T10:07:41Z</time>
      </trkpt>
      <trkpt lat="46.29004" lon="4.69573">
        <ele>541</ele>
        <time>2014-09-28T10:07:42Z</time>
      </trkpt>
      <trkpt lat="46.29009" lon="4.69574">
        <ele>541</ele>
        <time>2014-09-28T10:07:43Z</time>
      </trkpt>
      <trkpt lat="46.29014" lon="4.69576">
        <ele>541</ele>
        <time>2014-09-28T10:07:44Z</time>
      </trkpt>
      <trkpt lat="46.29018" lon="4.69578">
        <ele>541</ele>
        <time>2014-09-28T10:07:45Z</time>
      </trkpt>
      <trkpt lat="46.29025" lon="4.69582">
        <ele>541</ele>
        <time>2014-09-28T10:07:46Z</time>
      </trkpt>
      <trkpt lat="46.29029" lon="4.69584">
        <ele>535</ele>
        <time>2014-09-28T10:07:47Z</time>
      </trkpt>
      <trkpt lat="46.29034" lon="4.69586">
        <ele>534</ele>
        <time>2014-09-28T10:07:48Z</time>
      </trkpt>
      <trkpt lat="46.29039" lon="4.69588">
        <ele>534</ele>
        <time>2014-09-28T10:07:49Z</time>
      </trkpt>
      <trkpt lat="46.29043" lon="4.69591">
        <ele>534</ele>
        <time>2014-09-28T10:07:50Z</time>
      </trkpt>
      <trkpt lat="46.29048" lon="4.69594">
        <ele>534</ele>
        <time>2014-09-28T10:07:51Z</time>
      </trkpt>
      <trkpt lat="46.29053" lon="4.69596">
        <ele>534</ele>
        <time>2014-09-28T10:07:52Z</time>
      </trkpt>
      <trkpt lat="46.29057" lon="4.69598">
        <ele>534</ele>
        <time>2014-09-28T10:07:53Z</time>
      </trkpt>
      <trkpt lat="46.29065" lon="4.69601">
        <ele>533</ele>
        <time>2014-09-28T10:08:01Z</time>
      </trkpt>
      <trkpt lat="46.29066" lon="4.69601">
        <ele>533</ele>
        <time>2014-09-28T10:08:02Z</time>
      </trkpt>
      <trkpt lat="46.29058" lon="4.69595">
        <ele>534</ele>
        <time>2014-09-28T10:09:26Z</time>
      </trkpt>
      <trkpt lat="46.29058" lon="4.69595">
        <ele>534</ele>
        <time>2014-09-28T10:09:27Z</time>
      </trkpt>
      <trkpt lat="46.29049" lon="4.69592">
        <ele>534</ele>
        <time>2014-09-28T10:09:44Z</time>
      </trkpt>
      <trkpt lat="46.29048" lon="4.69592">
        <ele>534</ele>
        <time>2014-09-28T10:09:45Z</time>
      </trkpt>
      <trkpt lat="46.29041" lon="4.69588">
        <ele>534</ele>
        <time>2014-09-28T10:09:51Z</time>
      </trkpt>
      <trkpt lat="46.29037" lon="4.69587">
        <ele>534</ele>
        <time>2014-09-28T10:09:52Z</time>
      </trkpt>
      <trkpt lat="46.29031" lon="4.69583">
        <ele>541</ele>
        <time>2014-09-28T10:09:54Z</time>
      </trkpt>
      <trkpt lat="46.29028" lon="4.69581">
        <ele>541</ele>
        <time>2014-09-28T10:09:55Z</time>
      </trkpt>
      <trkpt lat="46.29021" lon="4.69578">
        <ele>541</ele>
        <time>2014-09-28T10:09:57Z</time>
      </trkpt>
      <trkpt lat="46.29018" lon="4.69577">
        <ele>541</ele>
        <time>2014-09-28T10:09:58Z</time>
      </trkpt>
      <trkpt lat="46.2901" lon="4.69575">
        <ele>541</ele>
        <time>2014-09-28T10:10:00Z</time>
      </trkpt>
      <trkpt lat="46.29006" lon="4.69574">
        <ele>541</ele>
        <time>2014-09-28T10:10:01Z</time>
      </trkpt>
      <trkpt lat="46.28999" lon="4.69574">
        <ele>543</ele>
        <time>2014-09-28T10:10:03Z</time>
      </trkpt>
      <trkpt lat="46.28996" lon="4.69574">
        <ele>543</ele>
        <time>2014-09-28T10:10:04Z</time>
      </trkpt>
      <trkpt lat="46.28989" lon="4.69574">
        <ele>544</ele>
        <time>2014-09-28T10:10:06Z</time>
      </trkpt>
      <trkpt lat="46.28986" lon="4.69575">
        <ele>545</ele>
        <time>2014-09-28T10:10:07Z</time>
      </trkpt>
      <trkpt lat="46.28979" lon="4.69577">
        <ele>546</ele>
        <time>2014-09-28T10:10:09Z</time>
      </trkpt>
      <trkpt lat="46.28976" lon="4.69578">
        <ele>547</ele>
        <time>2014-09-28T10:10:10Z</time>
      </trkpt>
      <trkpt lat="46.28968" lon="4.69579">
        <ele>548</ele>
        <time>2014-09-28T10:10:12Z</time>
      </trkpt>
      <trkpt lat="46.28964" lon="4.69579">
        <ele>548</ele>
        <time>2014-09-28T10:10:13Z</time>
      </trkpt>
      <trkpt lat="46.28955" lon="4.6958">
        <ele>549</ele>
        <time>2014-09-28T10:10:15Z</time>
      </trkpt>
      <trkpt lat="46.28951" lon="4.69581">
        <ele>549</ele>
        <time>2014-09-28T10:10:16Z</time>
      </trkpt>
      <trkpt lat="46.28942" lon="4.69581">
        <ele>550</ele>
        <time>2014-09-28T10:10:18Z</time>
      </trkpt>
      <trkpt lat="46.28937" lon="4.69582">
        <ele>550</ele>
        <time>2014-09-28T10:10:19Z</time>
      </trkpt>
      <trkpt lat="46.2893" lon="4.69583">
        <ele>550</ele>
        <time>2014-09-28T10:10:21Z</time>
      </trkpt>
      <trkpt lat="46.28926" lon="4.69584">
        <ele>545</ele>
        <time>2014-09-28T10:10:22Z</time>
      </trkpt>
      <trkpt lat="46.28918" lon="4.69584">
        <ele>548</ele>
        <time>2014-09-28T10:10:24Z</time>
      </trkpt>
      <trkpt lat="46.28913" lon="4.69585">
        <ele>548</ele>
        <time>2014-09-28T10:10:25Z</time>
      </trkpt>
      <trkpt lat="46.28909" lon="4.69586">
        <ele>548</ele>
        <time>2014-09-28T10:10:26Z</time>
      </trkpt>
      <trkpt lat="46.28903" lon="4.69586">
        <ele>547</ele>
        <time>2014-09-28T10:10:27Z</time>
      </trkpt>
      <trkpt lat="46.28896" lon="4.69586">
        <ele>547</ele>
        <time>2014-09-28T10:10:28Z</time>
      </trkpt>
      <trkpt lat="46.2889" lon="4.69587">
        <ele>547</ele>
        <time>2014-09-28T10:10:29Z</time>
      </trkpt>
      <trkpt lat="46.28885" lon="4.69589">
        <ele>546</ele>
        <time>2014-09-28T10:10:30Z</time>
      </trkpt>
      <trkpt lat="46.2888" lon="4.6959">
        <ele>547</ele>
        <time>2014-09-28T10:10:31Z</time>
      </trkpt>
      <trkpt lat="46.28872" lon="4.69595">
        <ele>547</ele>
        <time>2014-09-28T10:10:33Z</time>
      </trkpt>
      <trkpt lat="46.28867" lon="4.69597">
        <ele>547</ele>
        <time>2014-09-28T10:10:34Z</time>
      </trkpt>
      <trkpt lat="46.28862" lon="4.696">
        <ele>547</ele>
        <time>2014-09-28T10:10:35Z</time>
      </trkpt>
      <trkpt lat="46.28857" lon="4.69601">
        <ele>548</ele>
        <time>2014-09-28T10:10:36Z</time>
      </trkpt>
      <trkpt lat="46.28852" lon="4.69603">
        <ele>548</ele>
        <time>2014-09-28T10:10:37Z</time>
      </trkpt>
      <trkpt lat="46.28847" lon="4.69607">
        <ele>548</ele>
        <time>2014-09-28T10:10:38Z</time>
      </trkpt>
      <trkpt lat="46.28842" lon="4.69607">
        <ele>548</ele>
        <time>2014-09-28T10:10:39Z</time>
      </trkpt>
      <trkpt lat="46.28837" lon="4.69606">
        <ele>548</ele>
        <time>2014-09-28T10:10:40Z</time>
      </trkpt>
      <trkpt lat="46.28833" lon="4.69609">
        <ele>548</ele>
        <time>2014-09-28T10:10:41Z</time>
      </trkpt>
      <trkpt lat="46.28829" lon="4.69612">
        <ele>552</ele>
        <time>2014-09-28T10:10:42Z</time>
      </trkpt>
      <trkpt lat="46.28824" lon="4.69613">
        <ele>551</ele>
        <time>2014-09-28T10:10:43Z</time>
      </trkpt>
      <trkpt lat="46.28819" lon="4.69616">
        <ele>551</ele>
        <time>2014-09-28T10:10:44Z</time>
      </trkpt>
      <trkpt lat="46.28814" lon="4.69619">
        <ele>551</ele>
        <time>2014-09-28T10:10:45Z</time>
      </trkpt>
      <trkpt lat="46.28809" lon="4.69622">
        <ele>551</ele>
        <time>2014-09-28T10:10:46Z</time>
      </trkpt>
      <trkpt lat="46.28803" lon="4.69625">
        <ele>551</ele>
        <time>2014-09-28T10:10:47Z</time>
      </trkpt>
      <trkpt lat="46.28797" lon="4.69626">
        <ele>551</ele>
        <time>2014-09-28T10:10:48Z</time>
      </trkpt>
      <trkpt lat="46.28791" lon="4.69628">
        <ele>551</ele>
        <time>2014-09-28T10:10:49Z</time>
      </trkpt>
      <trkpt lat="46.28787" lon="4.6963">
        <ele>551</ele>
        <time>2014-09-28T10:10:50Z</time>
      </trkpt>
      <trkpt lat="46.28781" lon="4.6963">
        <ele>551</ele>
        <time>2014-09-28T10:10:51Z</time>
      </trkpt>
      <trkpt lat="46.28777" lon="4.69631">
        <ele>551</ele>
        <time>2014-09-28T10:10:52Z</time>
      </trkpt>
      <trkpt lat="46.28772" lon="4.69633">
        <ele>551</ele>
        <time>2014-09-28T10:10:53Z</time>
      </trkpt>
      <trkpt lat="46.28767" lon="4.69636">
        <ele>551</ele>
        <time>2014-09-28T10:10:54Z</time>
      </trkpt>
      <trkpt lat="46.28762" lon="4.69639">
        <ele>551</ele>
        <time>2014-09-28T10:10:55Z</time>
      </trkpt>
      <trkpt lat="46.28756" lon="4.69641">
        <ele>551</ele>
        <time>2014-09-28T10:10:56Z</time>
      </trkpt>
      <trkpt lat="46.28752" lon="4.69643">
        <ele>551</ele>
        <time>2014-09-28T10:10:57Z</time>
      </trkpt>
      <trkpt lat="46.28747" lon="4.69648">
        <ele>554</ele>
        <time>2014-09-28T10:10:58Z</time>
      </trkpt>
      <trkpt lat="46.28742" lon="4.69654">
        <ele>553</ele>
        <time>2014-09-28T10:10:59Z</time>
      </trkpt>
      <trkpt lat="46.28738" lon="4.69658">
        <ele>553</ele>
        <time>2014-09-28T10:11:00Z</time>
      </trkpt>
      <trkpt lat="46.28734" lon="4.69663">
        <ele>554</ele>
        <time>2014-09-28T10:11:01Z</time>
      </trkpt>
      <trkpt lat="46.2873" lon="4.69667">
        <ele>550</ele>
        <time>2014-09-28T10:11:02Z</time>
      </trkpt>
      <trkpt lat="46.28725" lon="4.69672">
        <ele>550</ele>
        <time>2014-09-28T10:11:03Z</time>
      </trkpt>
      <trkpt lat="46.28721" lon="4.69678">
        <ele>550</ele>
        <time>2014-09-28T10:11:04Z</time>
      </trkpt>
      <trkpt lat="46.28717" lon="4.69683">
        <ele>550</ele>
        <time>2014-09-28T10:11:05Z</time>
      </trkpt>
      <trkpt lat="46.28713" lon="4.69688">
        <ele>550</ele>
        <time>2014-09-28T10:11:06Z</time>
      </trkpt>
      <trkpt lat="46.2871" lon="4.69693">
        <ele>550</ele>
        <time>2014-09-28T10:11:07Z</time>
      </trkpt>
      <trkpt lat="46.28706" lon="4.69699">
        <ele>549</ele>
        <time>2014-09-28T10:11:08Z</time>
      </trkpt>
      <trkpt lat="46.28701" lon="4.69704">
        <ele>549</ele>
        <time>2014-09-28T10:11:09Z</time>
      </trkpt>
      <trkpt lat="46.28696" lon="4.6971">
        <ele>549</ele>
        <time>2014-09-28T10:11:10Z</time>
      </trkpt>
      <trkpt lat="46.28691" lon="4.69713">
        <ele>549</ele>
        <time>2014-09-28T10:11:11Z</time>
      </trkpt>
      <trkpt lat="46.28686" lon="4.69717">
        <ele>549</ele>
        <time>2014-09-28T10:11:12Z</time>
      </trkpt>
      <trkpt lat="46.28683" lon="4.69721">
        <ele>549</ele>
        <time>2014-09-28T10:11:13Z</time>
      </trkpt>
      <trkpt lat="46.28679" lon="4.69725">
        <ele>549</ele>
        <time>2014-09-28T10:11:14Z</time>
      </trkpt>
      <trkpt lat="46.28675" lon="4.69728">
        <ele>548</ele>
        <time>2014-09-28T10:11:15Z</time>
      </trkpt>
      <trkpt lat="46.2867" lon="4.69733">
        <ele>548</ele>
        <time>2014-09-28T10:11:16Z</time>
      </trkpt>
      <trkpt lat="46.28665" lon="4.69737">
        <ele>549</ele>
        <time>2014-09-28T10:11:17Z</time>
      </trkpt>
      <trkpt lat="46.2866" lon="4.69743">
        <ele>549</ele>
        <time>2014-09-28T10:11:18Z</time>
      </trkpt>
      <trkpt lat="46.28655" lon="4.69748">
        <ele>549</ele>
        <time>2014-09-28T10:11:19Z</time>
      </trkpt>
      <trkpt lat="46.2865" lon="4.69754">
        <ele>546</ele>
        <time>2014-09-28T10:11:20Z</time>
      </trkpt>
      <trkpt lat="46.28645" lon="4.6976">
        <ele>545</ele>
        <time>2014-09-28T10:11:21Z</time>
      </trkpt>
      <trkpt lat="46.2864" lon="4.69765">
        <ele>545</ele>
        <time>2014-09-28T10:11:22Z</time>
      </trkpt>
      <trkpt lat="46.28635" lon="4.6977">
        <ele>545</ele>
        <time>2014-09-28T10:11:23Z</time>
      </trkpt>
      <trkpt lat="46.28631" lon="4.69774">
        <ele>545</ele>
        <time>2014-09-28T10:11:24Z</time>
      </trkpt>
      <trkpt lat="46.28627" lon="4.69777">
        <ele>545</ele>
        <time>2014-09-28T10:11:25Z</time>
      </trkpt>
      <trkpt lat="46.28623" lon="4.69784">
        <ele>544</ele>
        <time>2014-09-28T10:11:26Z</time>
      </trkpt>
      <trkpt lat="46.28619" lon="4.6979">
        <ele>544</ele>
        <time>2014-09-28T10:11:27Z</time>
      </trkpt>
      <trkpt lat="46.28615" lon="4.69793">
        <ele>544</ele>
        <time>2014-09-28T10:11:28Z</time>
      </trkpt>
      <trkpt lat="46.28611" lon="4.698">
        <ele>544</ele>
        <time>2014-09-28T10:11:29Z</time>
      </trkpt>
      <trkpt lat="46.28605" lon="4.698">
        <ele>544</ele>
        <time>2014-09-28T10:11:30Z</time>
      </trkpt>
      <trkpt lat="46.28599" lon="4.69807">
        <ele>543</ele>
        <time>2014-09-28T10:11:33Z</time>
      </trkpt>
      <trkpt lat="46.28597" lon="4.69807">
        <ele>543</ele>
        <time>2014-09-28T10:11:34Z</time>
      </trkpt>
      <trkpt lat="46.28589" lon="4.69808">
        <ele>543</ele>
        <time>2014-09-28T10:13:22Z</time>
      </trkpt>
      <trkpt lat="46.28585" lon="4.69807">
        <ele>543</ele>
        <time>2014-09-28T10:13:23Z</time>
      </trkpt>
      <trkpt lat="46.28581" lon="4.69805">
        <ele>544</ele>
        <time>2014-09-28T10:13:24Z</time>
      </trkpt>
      <trkpt lat="46.28576" lon="4.69803">
        <ele>544</ele>
        <time>2014-09-28T10:13:25Z</time>
      </trkpt>
      <trkpt lat="46.28571" lon="4.69801">
        <ele>544</ele>
        <time>2014-09-28T10:13:26Z</time>
      </trkpt>
      <trkpt lat="46.28562" lon="4.69799">
        <ele>544</ele>
        <time>2014-09-28T10:13:27Z</time>
      </trkpt>
      <trkpt lat="46.28556" lon="4.69797">
        <ele>544</ele>
        <time>2014-09-28T10:13:28Z</time>
      </trkpt>
      <trkpt lat="46.2855" lon="4.69797">
        <ele>544</ele>
        <time>2014-09-28T10:13:29Z</time>
      </trkpt>
      <trkpt lat="46.28543" lon="4.69797">
        <ele>545</ele>
        <time>2014-09-28T10:13:30Z</time>
      </trkpt>
      <trkpt lat="46.28535" lon="4.69799">
        <ele>544</ele>
        <time>2014-09-28T10:13:31Z</time>
      </trkpt>
      <trkpt lat="46.28529" lon="4.69798">
        <ele>544</ele>
        <time>2014-09-28T10:13:32Z</time>
      </trkpt>
      <trkpt lat="46.28524" lon="4.69796">
        <ele>545</ele>
        <time>2014-09-28T10:13:33Z</time>
      </trkpt>
      <trkpt lat="46.28519" lon="4.69797">
        <ele>544</ele>
        <time>2014-09-28T10:13:37Z</time>
      </trkpt>
      <trkpt lat="46.28515" lon="4.69798">
        <ele>544</ele>
        <time>2014-09-28T10:13:38Z</time>
      </trkpt>
      <trkpt lat="46.2851" lon="4.69807">
        <ele>544</ele>
        <time>2014-09-28T10:13:41Z</time>
      </trkpt>
      <trkpt lat="46.28509" lon="4.69813">
        <ele>543</ele>
        <time>2014-09-28T10:13:42Z</time>
      </trkpt>
      <trkpt lat="46.28504" lon="4.69822">
        <ele>542</ele>
        <time>2014-09-28T10:13:44Z</time>
      </trkpt>
      <trkpt lat="46.28503" lon="4.69827">
        <ele>542</ele>
        <time>2014-09-28T10:13:45Z</time>
      </trkpt>
      <trkpt lat="46.28501" lon="4.69833">
        <ele>541</ele>
        <time>2014-09-28T10:13:46Z</time>
      </trkpt>
      <trkpt lat="46.285" lon="4.6984">
        <ele>540</ele>
        <time>2014-09-28T10:13:47Z</time>
      </trkpt>
      <trkpt lat="46.285" lon="4.69848">
        <ele>540</ele>
        <time>2014-09-28T10:13:48Z</time>
      </trkpt>
      <trkpt lat="46.28499" lon="4.69867">
        <ele>538</ele>
        <time>2014-09-28T10:13:49Z</time>
      </trkpt>
      <trkpt lat="46.28496" lon="4.69877">
        <ele>538</ele>
        <time>2014-09-28T10:13:50Z</time>
      </trkpt>
      <trkpt lat="46.28495" lon="4.69883">
        <ele>538</ele>
        <time>2014-09-28T10:13:51Z</time>
      </trkpt>
      <trkpt lat="46.28491" lon="4.69893">
        <ele>537</ele>
        <time>2014-09-28T10:13:53Z</time>
      </trkpt>
      <trkpt lat="46.2849" lon="4.699">
        <ele>537</ele>
        <time>2014-09-28T10:13:54Z</time>
      </trkpt>
      <trkpt lat="46.28489" lon="4.69907">
        <ele>537</ele>
        <time>2014-09-28T10:13:55Z</time>
      </trkpt>
      <trkpt lat="46.28487" lon="4.69914">
        <ele>537</ele>
        <time>2014-09-28T10:13:56Z</time>
      </trkpt>
      <trkpt lat="46.28482" lon="4.69922">
        <ele>535</ele>
        <time>2014-09-28T10:13:57Z</time>
      </trkpt>
      <trkpt lat="46.2848" lon="4.6993">
        <ele>534</ele>
        <time>2014-09-28T10:13:58Z</time>
      </trkpt>
      <trkpt lat="46.28477" lon="4.69935">
        <ele>534</ele>
        <time>2014-09-28T10:13:59Z</time>
      </trkpt>
      <trkpt lat="46.28473" lon="4.6994">
        <ele>534</ele>
        <time>2014-09-28T10:14:00Z</time>
      </trkpt>
      <trkpt lat="46.28467" lon="4.69943">
        <ele>534</ele>
        <time>2014-09-28T10:14:01Z</time>
      </trkpt>
      <trkpt lat="46.28463" lon="4.69947">
        <ele>534</ele>
        <time>2014-09-28T10:14:02Z</time>
      </trkpt>
      <trkpt lat="46.28455" lon="4.69954">
        <ele>534</ele>
        <time>2014-09-28T10:14:03Z</time>
      </trkpt>
      <trkpt lat="46.28451" lon="4.69958">
        <ele>533</ele>
        <time>2014-09-28T10:14:04Z</time>
      </trkpt>
      <trkpt lat="46.28446" lon="4.69962">
        <ele>533</ele>
        <time>2014-09-28T10:14:05Z</time>
      </trkpt>
      <trkpt lat="46.28439" lon="4.69966">
        <ele>533</ele>
        <time>2014-09-28T10:14:06Z</time>
      </trkpt>
      <trkpt lat="46.28433" lon="4.69969">
        <ele>533</ele>
        <time>2014-09-28T10:14:07Z</time>
      </trkpt>
      <trkpt lat="46.28425" lon="4.69973">
        <ele>533</ele>
        <time>2014-09-28T10:14:08Z</time>
      </trkpt>
      <trkpt lat="46.28419" lon="4.69976">
        <ele>533</ele>
        <time>2014-09-28T10:14:09Z</time>
      </trkpt>
      <trkpt lat="46.28414" lon="4.69979">
        <ele>530</ele>
        <time>2014-09-28T10:14:10Z</time>
      </trkpt>
      <trkpt lat="46.28408" lon="4.6998">
        <ele>530</ele>
        <time>2014-09-28T10:14:11Z</time>
      </trkpt>
      <trkpt lat="46.28401" lon="4.69982">
        <ele>530</ele>
        <time>2014-09-28T10:14:12Z</time>
      </trkpt>
      <trkpt lat="46.28394" lon="4.69985">
        <ele>530</ele>
        <time>2014-09-28T10:14:13Z</time>
      </trkpt>
      <trkpt lat="46.28388" lon="4.69986">
        <ele>529</ele>
        <time>2014-09-28T10:14:14Z</time>
      </trkpt>
      <trkpt lat="46.28379" lon="4.69987">
        <ele>529</ele>
        <time>2014-09-28T10:14:15Z</time>
      </trkpt>
      <trkpt lat="46.28371" lon="4.69992">
        <ele>528</ele>
        <time>2014-09-28T10:14:17Z</time>
      </trkpt>
      <trkpt lat="46.28366" lon="4.69991">
        <ele>528</ele>
        <time>2014-09-28T10:14:18Z</time>
      </trkpt>
      <trkpt lat="46.28359" lon="4.69989">
        <ele>527</ele>
        <time>2014-09-28T10:14:19Z</time>
      </trkpt>
      <trkpt lat="46.28351" lon="4.69987">
        <ele>527</ele>
        <time>2014-09-28T10:14:20Z</time>
      </trkpt>
      <trkpt lat="46.28343" lon="4.69985">
        <ele>526</ele>
        <time>2014-09-28T10:14:21Z</time>
      </trkpt>
      <trkpt lat="46.28337" lon="4.69984">
        <ele>526</ele>
        <time>2014-09-28T10:14:22Z</time>
      </trkpt>
      <trkpt lat="46.2833" lon="4.69983">
        <ele>521</ele>
        <time>2014-09-28T10:14:23Z</time>
      </trkpt>
      <trkpt lat="46.28327" lon="4.69987">
        <ele>521</ele>
        <time>2014-09-28T10:14:24Z</time>
      </trkpt>
      <trkpt lat="46.28322" lon="4.69987">
        <ele>520</ele>
        <time>2014-09-28T10:14:25Z</time>
      </trkpt>
      <trkpt lat="46.28316" lon="4.69987">
        <ele>520</ele>
        <time>2014-09-28T10:14:26Z</time>
      </trkpt>
      <trkpt lat="46.28311" lon="4.69987">
        <ele>519</ele>
        <time>2014-09-28T10:14:27Z</time>
      </trkpt>
      <trkpt lat="46.28306" lon="4.69989">
        <ele>519</ele>
        <time>2014-09-28T10:14:28Z</time>
      </trkpt>
      <trkpt lat="46.283" lon="4.69989">
        <ele>518</ele>
        <time>2014-09-28T10:14:29Z</time>
      </trkpt>
      <trkpt lat="46.28292" lon="4.69987">
        <ele>517</ele>
        <time>2014-09-28T10:14:30Z</time>
      </trkpt>
      <trkpt lat="46.28286" lon="4.69987">
        <ele>516</ele>
        <time>2014-09-28T10:14:31Z</time>
      </trkpt>
      <trkpt lat="46.2828" lon="4.69987">
        <ele>515</ele>
        <time>2014-09-28T10:14:32Z</time>
      </trkpt>
      <trkpt lat="46.28272" lon="4.6999">
        <ele>514</ele>
        <time>2014-09-28T10:14:35Z</time>
      </trkpt>
      <trkpt lat="46.28268" lon="4.69989">
        <ele>513</ele>
        <time>2014-09-28T10:14:36Z</time>
      </trkpt>
      <trkpt lat="46.28263" lon="4.69996">
        <ele>512</ele>
        <time>2014-09-28T10:14:38Z</time>
      </trkpt>
      <trkpt lat="46.28261" lon="4.70001">
        <ele>510</ele>
        <time>2014-09-28T10:14:39Z</time>
      </trkpt>
      <trkpt lat="46.2826" lon="4.70005">
        <ele>510</ele>
        <time>2014-09-28T10:14:40Z</time>
      </trkpt>
      <trkpt lat="46.2826" lon="4.70014">
        <ele>511</ele>
        <time>2014-09-28T10:14:41Z</time>
      </trkpt>
      <trkpt lat="46.28259" lon="4.70021">
        <ele>511</ele>
        <time>2014-09-28T10:14:42Z</time>
      </trkpt>
      <trkpt lat="46.2826" lon="4.70027">
        <ele>512</ele>
        <time>2014-09-28T10:14:43Z</time>
      </trkpt>
      <trkpt lat="46.28258" lon="4.70035">
        <ele>512</ele>
        <time>2014-09-28T10:14:45Z</time>
      </trkpt>
      <trkpt lat="46.28258" lon="4.70041">
        <ele>512</ele>
        <time>2014-09-28T10:14:45Z</time>
      </trkpt>
      <trkpt lat="46.28258" lon="4.70052">
        <ele>512</ele>
        <time>2014-09-28T10:14:47Z</time>
      </trkpt>
      <trkpt lat="46.28256" lon="4.70057">
        <ele>512</ele>
        <time>2014-09-28T10:14:48Z</time>
      </trkpt>
      <trkpt lat="46.28255" lon="4.70064">
        <ele>511</ele>
        <time>2014-09-28T10:14:50Z</time>
      </trkpt>
      <trkpt lat="46.28253" lon="4.70073">
        <ele>510</ele>
        <time>2014-09-28T10:14:50Z</time>
      </trkpt>
      <trkpt lat="46.28248" lon="4.70082">
        <ele>507</ele>
        <time>2014-09-28T10:14:52Z</time>
      </trkpt>
      <trkpt lat="46.28246" lon="4.70089">
        <ele>506</ele>
        <time>2014-09-28T10:14:53Z</time>
      </trkpt>
      <trkpt lat="46.28243" lon="4.70095">
        <ele>505</ele>
        <time>2014-09-28T10:14:54Z</time>
      </trkpt>
      <trkpt lat="46.2824" lon="4.70102">
        <ele>504</ele>
        <time>2014-09-28T10:14:55Z</time>
      </trkpt>
      <trkpt lat="46.28237" lon="4.70109">
        <ele>504</ele>
        <time>2014-09-28T10:14:56Z</time>
      </trkpt>
      <trkpt lat="46.28235" lon="4.70116">
        <ele>503</ele>
        <time>2014-09-28T10:14:57Z</time>
      </trkpt>
      <trkpt lat="46.28229" lon="4.7012">
        <ele>503</ele>
        <time>2014-09-28T10:14:58Z</time>
      </trkpt>
      <trkpt lat="46.28224" lon="4.70128">
        <ele>503</ele>
        <time>2014-09-28T10:14:59Z</time>
      </trkpt>
      <trkpt lat="46.28221" lon="4.70134">
        <ele>503</ele>
        <time>2014-09-28T10:15:00Z</time>
      </trkpt>
      <trkpt lat="46.28217" lon="4.70145">
        <ele>503</ele>
        <time>2014-09-28T10:15:01Z</time>
      </trkpt>
      <trkpt lat="46.28215" lon="4.70158">
        <ele>503</ele>
        <time>2014-09-28T10:15:02Z</time>
      </trkpt>
      <trkpt lat="46.28213" lon="4.70164">
        <ele>502</ele>
        <time>2014-09-28T10:15:03Z</time>
      </trkpt>
      <trkpt lat="46.28212" lon="4.70175">
        <ele>501</ele>
        <time>2014-09-28T10:15:04Z</time>
      </trkpt>
      <trkpt lat="46.28203" lon="4.70178">
        <ele>500</ele>
        <time>2014-09-28T10:15:10Z</time>
      </trkpt>
      <trkpt lat="46.28199" lon="4.7018">
        <ele>499</ele>
        <time>2014-09-28T10:15:11Z</time>
      </trkpt>
      <trkpt lat="46.28193" lon="4.70181">
        <ele>498</ele>
        <time>2014-09-28T10:15:12Z</time>
      </trkpt>
      <trkpt lat="46.28189" lon="4.7019">
        <ele>498</ele>
        <time>2014-09-28T10:15:13Z</time>
      </trkpt>
      <trkpt lat="46.28183" lon="4.70197">
        <ele>498</ele>
        <time>2014-09-28T10:15:15Z</time>
      </trkpt>
      <trkpt lat="46.28177" lon="4.70202">
        <ele>497</ele>
        <time>2014-09-28T10:15:16Z</time>
      </trkpt>
      <trkpt lat="46.28171" lon="4.70207">
        <ele>497</ele>
        <time>2014-09-28T10:15:17Z</time>
      </trkpt>
      <trkpt lat="46.28168" lon="4.7021">
        <ele>497</ele>
        <time>2014-09-28T10:15:18Z</time>
      </trkpt>
      <trkpt lat="46.28166" lon="4.70221">
        <ele>488</ele>
        <time>2014-09-28T10:15:20Z</time>
      </trkpt>
      <trkpt lat="46.28165" lon="4.70226">
        <ele>488</ele>
        <time>2014-09-28T10:15:21Z</time>
      </trkpt>
      <trkpt lat="46.28167" lon="4.70237">
        <ele>494</ele>
        <time>2014-09-28T10:15:23Z</time>
      </trkpt>
      <trkpt lat="46.28166" lon="4.70243">
        <ele>490</ele>
        <time>2014-09-28T10:15:24Z</time>
      </trkpt>
      <trkpt lat="46.28166" lon="4.70254">
        <ele>489</ele>
        <time>2014-09-28T10:15:27Z</time>
      </trkpt>
      <trkpt lat="46.28168" lon="4.70258">
        <ele>491</ele>
        <time>2014-09-28T10:15:28Z</time>
      </trkpt>
      <trkpt lat="46.28171" lon="4.70266">
        <ele>491</ele>
        <time>2014-09-28T10:15:30Z</time>
      </trkpt>
      <trkpt lat="46.28172" lon="4.70271">
        <ele>491</ele>
        <time>2014-09-28T10:15:31Z</time>
      </trkpt>
      <trkpt lat="46.28174" lon="4.70279">
        <ele>490</ele>
        <time>2014-09-28T10:15:32Z</time>
      </trkpt>
      <trkpt lat="46.28176" lon="4.70288">
        <ele>490</ele>
        <time>2014-09-28T10:15:33Z</time>
      </trkpt>
      <trkpt lat="46.28183" lon="4.70301">
        <ele>489</ele>
        <time>2014-09-28T10:15:34Z</time>
      </trkpt>
      <trkpt lat="46.28185" lon="4.70308">
        <ele>488</ele>
        <time>2014-09-28T10:15:35Z</time>
      </trkpt>
      <trkpt lat="46.28192" lon="4.70316">
        <ele>488</ele>
        <time>2014-09-28T10:15:36Z</time>
      </trkpt>
      <trkpt lat="46.28196" lon="4.70326">
        <ele>488</ele>
        <time>2014-09-28T10:15:37Z</time>
      </trkpt>
      <trkpt lat="46.28204" lon="4.70335">
        <ele>479</ele>
        <time>2014-09-28T10:15:38Z</time>
      </trkpt>
      <trkpt lat="46.28208" lon="4.70341">
        <ele>479</ele>
        <time>2014-09-28T10:15:39Z</time>
      </trkpt>
      <trkpt lat="46.28212" lon="4.70347">
        <ele>479</ele>
        <time>2014-09-28T10:15:40Z</time>
      </trkpt>
      <trkpt lat="46.28219" lon="4.70351">
        <ele>479</ele>
        <time>2014-09-28T10:15:41Z</time>
      </trkpt>
      <trkpt lat="46.28225" lon="4.70354">
        <ele>480</ele>
        <time>2014-09-28T10:15:42Z</time>
      </trkpt>
      <trkpt lat="46.28231" lon="4.70357">
        <ele>480</ele>
        <time>2014-09-28T10:15:43Z</time>
      </trkpt>
      <trkpt lat="46.28236" lon="4.70361">
        <ele>479</ele>
        <time>2014-09-28T10:15:44Z</time>
      </trkpt>
      <trkpt lat="46.2824" lon="4.70367">
        <ele>479</ele>
        <time>2014-09-28T10:15:45Z</time>
      </trkpt>
      <trkpt lat="46.28247" lon="4.70371">
        <ele>478</ele>
        <time>2014-09-28T10:15:46Z</time>
      </trkpt>
      <trkpt lat="46.28249" lon="4.70377">
        <ele>477</ele>
        <time>2014-09-28T10:15:47Z</time>
      </trkpt>
      <trkpt lat="46.28256" lon="4.70383">
        <ele>478</ele>
        <time>2014-09-28T10:15:48Z</time>
      </trkpt>
      <trkpt lat="46.28263" lon="4.70393">
        <ele>476</ele>
        <time>2014-09-28T10:15:49Z</time>
      </trkpt>
      <trkpt lat="46.28268" lon="4.70401">
        <ele>476</ele>
        <time>2014-09-28T10:15:50Z</time>
      </trkpt>
      <trkpt lat="46.28272" lon="4.70411">
        <ele>475</ele>
        <time>2014-09-28T10:15:51Z</time>
      </trkpt>
      <trkpt lat="46.28273" lon="4.70419">
        <ele>468</ele>
        <time>2014-09-28T10:15:52Z</time>
      </trkpt>
      <trkpt lat="46.28277" lon="4.70426">
        <ele>468</ele>
        <time>2014-09-28T10:15:53Z</time>
      </trkpt>
      <trkpt lat="46.28278" lon="4.70432">
        <ele>468</ele>
        <time>2014-09-28T10:15:55Z</time>
      </trkpt>
      <trkpt lat="46.28281" lon="4.70441">
        <ele>467</ele>
        <time>2014-09-28T10:15:56Z</time>
      </trkpt>
      <trkpt lat="46.28287" lon="4.70451">
        <ele>467</ele>
        <time>2014-09-28T10:15:57Z</time>
      </trkpt>
      <trkpt lat="46.28294" lon="4.70462">
        <ele>466</ele>
        <time>2014-09-28T10:15:58Z</time>
      </trkpt>
      <trkpt lat="46.28296" lon="4.70468">
        <ele>466</ele>
        <time>2014-09-28T10:15:59Z</time>
      </trkpt>
      <trkpt lat="46.28295" lon="4.70476">
        <ele>465</ele>
        <time>2014-09-28T10:16:00Z</time>
      </trkpt>
      <trkpt lat="46.28294" lon="4.70483">
        <ele>465</ele>
        <time>2014-09-28T10:16:01Z</time>
      </trkpt>
      <trkpt lat="46.28294" lon="4.7049">
        <ele>465</ele>
        <time>2014-09-28T10:16:02Z</time>
      </trkpt>
      <trkpt lat="46.28291" lon="4.70497">
        <ele>464</ele>
        <time>2014-09-28T10:16:03Z</time>
      </trkpt>
      <trkpt lat="46.28291" lon="4.70503">
        <ele>460</ele>
        <time>2014-09-28T10:16:04Z</time>
      </trkpt>
      <trkpt lat="46.28291" lon="4.70509">
        <ele>459</ele>
        <time>2014-09-28T10:16:05Z</time>
      </trkpt>
      <trkpt lat="46.28292" lon="4.70517">
        <ele>459</ele>
        <time>2014-09-28T10:16:06Z</time>
      </trkpt>
      <trkpt lat="46.28293" lon="4.70523">
        <ele>459</ele>
        <time>2014-09-28T10:16:07Z</time>
      </trkpt>
      <trkpt lat="46.28291" lon="4.7053">
        <ele>459</ele>
        <time>2014-09-28T10:16:08Z</time>
      </trkpt>
      <trkpt lat="46.28291" lon="4.70536">
        <ele>459</ele>
        <time>2014-09-28T10:16:09Z</time>
      </trkpt>
      <trkpt lat="46.28292" lon="4.70547">
        <ele>459</ele>
        <time>2014-09-28T10:16:10Z</time>
      </trkpt>
      <trkpt lat="46.28291" lon="4.70556">
        <ele>458</ele>
        <time>2014-09-28T10:16:11Z</time>
      </trkpt>
      <trkpt lat="46.28294" lon="4.70565">
        <ele>458</ele>
        <time>2014-09-28T10:16:12Z</time>
      </trkpt>
      <trkpt lat="46.28296" lon="4.70573">
        <ele>458</ele>
        <time>2014-09-28T10:16:13Z</time>
      </trkpt>
      <trkpt lat="46.28297" lon="4.70585">
        <ele>454</ele>
        <time>2014-09-28T10:16:14Z</time>
      </trkpt>
      <trkpt lat="46.28299" lon="4.70594">
        <ele>453</ele>
        <time>2014-09-28T10:16:15Z</time>
      </trkpt>
      <trkpt lat="46.28304" lon="4.706">
        <ele>453</ele>
        <time>2014-09-28T10:16:16Z</time>
      </trkpt>
      <trkpt lat="46.28307" lon="4.70608">
        <ele>453</ele>
        <time>2014-09-28T10:16:18Z</time>
      </trkpt>
      <trkpt lat="46.28311" lon="4.70612">
        <ele>453</ele>
        <time>2014-09-28T10:16:19Z</time>
      </trkpt>
      <trkpt lat="46.28315" lon="4.70618">
        <ele>452</ele>
        <time>2014-09-28T10:16:20Z</time>
      </trkpt>
      <trkpt lat="46.28321" lon="4.70623">
        <ele>452</ele>
        <time>2014-09-28T10:16:21Z</time>
      </trkpt>
      <trkpt lat="46.28325" lon="4.70628">
        <ele>452</ele>
        <time>2014-09-28T10:16:22Z</time>
      </trkpt>
      <trkpt lat="46.28331" lon="4.70633">
        <ele>451</ele>
        <time>2014-09-28T10:16:23Z</time>
      </trkpt>
      <trkpt lat="46.28336" lon="4.70638">
        <ele>452</ele>
        <time>2014-09-28T10:16:24Z</time>
      </trkpt>
      <trkpt lat="46.28342" lon="4.70643">
        <ele>452</ele>
        <time>2014-09-28T10:16:25Z</time>
      </trkpt>
      <trkpt lat="46.28347" lon="4.70647">
        <ele>452</ele>
        <time>2014-09-28T10:16:26Z</time>
      </trkpt>
      <trkpt lat="46.28352" lon="4.70652">
        <ele>452</ele>
        <time>2014-09-28T10:16:27Z</time>
      </trkpt>
      <trkpt lat="46.28356" lon="4.70658">
        <ele>451</ele>
        <time>2014-09-28T10:16:28Z</time>
      </trkpt>
      <trkpt lat="46.28362" lon="4.70662">
        <ele>452</ele>
        <time>2014-09-28T10:16:29Z</time>
      </trkpt>
      <trkpt lat="46.28367" lon="4.70668">
        <ele>445</ele>
        <time>2014-09-28T10:16:30Z</time>
      </trkpt>
      <trkpt lat="46.28373" lon="4.70673">
        <ele>445</ele>
        <time>2014-09-28T10:16:31Z</time>
      </trkpt>
      <trkpt lat="46.28379" lon="4.70678">
        <ele>445</ele>
        <time>2014-09-28T10:16:32Z</time>
      </trkpt>
      <trkpt lat="46.28384" lon="4.70682">
        <ele>445</ele>
        <time>2014-09-28T10:16:33Z</time>
      </trkpt>
      <trkpt lat="46.28393" lon="4.70685">
        <ele>445</ele>
        <time>2014-09-28T10:16:34Z</time>
      </trkpt>
      <trkpt lat="46.28399" lon="4.70688">
        <ele>445</ele>
        <time>2014-09-28T10:16:35Z</time>
      </trkpt>
      <trkpt lat="46.28406" lon="4.70693">
        <ele>445</ele>
        <time>2014-09-28T10:16:36Z</time>
      </trkpt>
      <trkpt lat="46.28415" lon="4.70697">
        <ele>444</ele>
        <time>2014-09-28T10:16:37Z</time>
      </trkpt>
      <trkpt lat="46.28423" lon="4.70704">
        <ele>444</ele>
        <time>2014-09-28T10:16:38Z</time>
      </trkpt>
      <trkpt lat="46.28431" lon="4.70711">
        <ele>444</ele>
        <time>2014-09-28T10:16:39Z</time>
      </trkpt>
      <trkpt lat="46.28437" lon="4.70713">
        <ele>444</ele>
        <time>2014-09-28T10:16:40Z</time>
      </trkpt>
      <trkpt lat="46.28445" lon="4.70717">
        <ele>443</ele>
        <time>2014-09-28T10:16:41Z</time>
      </trkpt>
      <trkpt lat="46.28449" lon="4.70722">
        <ele>443</ele>
        <time>2014-09-28T10:16:42Z</time>
      </trkpt>
      <trkpt lat="46.28457" lon="4.70734">
        <ele>443</ele>
        <time>2014-09-28T10:16:43Z</time>
      </trkpt>
      <trkpt lat="46.28461" lon="4.70738">
        <ele>443</ele>
        <time>2014-09-28T10:16:44Z</time>
      </trkpt>
      <trkpt lat="46.28465" lon="4.70744">
        <ele>443</ele>
        <time>2014-09-28T10:16:45Z</time>
      </trkpt>
      <trkpt lat="46.28471" lon="4.70752">
        <ele>440</ele>
        <time>2014-09-28T10:16:55Z</time>
      </trkpt>
      <trkpt lat="46.28473" lon="4.70754">
        <ele>440</ele>
        <time>2014-09-28T10:16:56Z</time>
      </trkpt>
      <trkpt lat="46.28478" lon="4.70763">
        <ele>440</ele>
        <time>2014-09-28T10:17:03Z</time>
      </trkpt>
      <trkpt lat="46.28479" lon="4.70765">
        <ele>440</ele>
        <time>2014-09-28T10:17:04Z</time>
      </trkpt>
      <trkpt lat="46.28485" lon="4.70775">
        <ele>440</ele>
        <time>2014-09-28T10:17:11Z</time>
      </trkpt>
      <trkpt lat="46.28485" lon="4.70776">
        <ele>440</ele>
        <time>2014-09-28T10:17:12Z</time>
      </trkpt>
      <trkpt lat="46.28491" lon="4.70785">
        <ele>440</ele>
        <time>2014-09-28T10:17:18Z</time>
      </trkpt>
      <trkpt lat="46.28492" lon="4.70787">
        <ele>440</ele>
        <time>2014-09-28T10:17:19Z</time>
      </trkpt>
      <trkpt lat="46.28496" lon="4.70798">
        <ele>440</ele>
        <time>2014-09-28T10:17:24Z</time>
      </trkpt>
      <trkpt lat="46.28496" lon="4.70801">
        <ele>440</ele>
        <time>2014-09-28T10:17:25Z</time>
      </trkpt>
      <trkpt lat="46.28497" lon="4.70809">
        <ele>440</ele>
        <time>2014-09-28T10:17:27Z</time>
      </trkpt>
      <trkpt lat="46.28497" lon="4.70816">
        <ele>440</ele>
        <time>2014-09-28T10:17:28Z</time>
      </trkpt>
      <trkpt lat="46.28497" lon="4.70823">
        <ele>439</ele>
        <time>2014-09-28T10:17:29Z</time>
      </trkpt>
      <trkpt lat="46.28496" lon="4.7083">
        <ele>439</ele>
        <time>2014-09-28T10:17:30Z</time>
      </trkpt>
      <trkpt lat="46.28495" lon="4.70837">
        <ele>439</ele>
        <time>2014-09-28T10:17:31Z</time>
      </trkpt>
      <trkpt lat="46.28494" lon="4.70843">
        <ele>439</ele>
        <time>2014-09-28T10:17:32Z</time>
      </trkpt>
      <trkpt lat="46.28493" lon="4.70855">
        <ele>439</ele>
        <time>2014-09-28T10:17:34Z</time>
      </trkpt>
      <trkpt lat="46.28494" lon="4.70861">
        <ele>439</ele>
        <time>2014-09-28T10:17:35Z</time>
      </trkpt>
      <trkpt lat="46.28496" lon="4.70872">
        <ele>439</ele>
        <time>2014-09-28T10:17:37Z</time>
      </trkpt>
      <trkpt lat="46.28498" lon="4.70878">
        <ele>438</ele>
        <time>2014-09-28T10:17:38Z</time>
      </trkpt>
      <trkpt lat="46.28501" lon="4.70883">
        <ele>439</ele>
        <time>2014-09-28T10:17:39Z</time>
      </trkpt>
      <trkpt lat="46.28505" lon="4.70889">
        <ele>438</ele>
        <time>2014-09-28T10:17:40Z</time>
      </trkpt>
      <trkpt lat="46.28508" lon="4.70894">
        <ele>438</ele>
        <time>2014-09-28T10:17:41Z</time>
      </trkpt>
      <trkpt lat="46.28512" lon="4.70898">
        <ele>438</ele>
        <time>2014-09-28T10:17:42Z</time>
      </trkpt>
      <trkpt lat="46.28515" lon="4.70903">
        <ele>438</ele>
        <time>2014-09-28T10:17:43Z</time>
      </trkpt>
      <trkpt lat="46.28519" lon="4.70907">
        <ele>438</ele>
        <time>2014-09-28T10:17:44Z</time>
      </trkpt>
      <trkpt lat="46.28524" lon="4.70909">
        <ele>438</ele>
        <time>2014-09-28T10:17:45Z</time>
      </trkpt>
      <trkpt lat="46.28533" lon="4.70906">
        <ele>439</ele>
        <time>2014-09-28T10:17:46Z</time>
      </trkpt>
      <trkpt lat="46.28538" lon="4.70907">
        <ele>439</ele>
        <time>2014-09-28T10:17:47Z</time>
      </trkpt>
      <trkpt lat="46.28543" lon="4.70907">
        <ele>439</ele>
        <time>2014-09-28T10:17:48Z</time>
      </trkpt>
      <trkpt lat="46.28548" lon="4.70909">
        <ele>439</ele>
        <time>2014-09-28T10:17:49Z</time>
      </trkpt>
      <trkpt lat="46.28554" lon="4.70911">
        <ele>439</ele>
        <time>2014-09-28T10:17:50Z</time>
      </trkpt>
      <trkpt lat="46.28562" lon="4.70917">
        <ele>439</ele>
        <time>2014-09-28T10:17:52Z</time>
      </trkpt>
      <trkpt lat="46.28563" lon="4.70923">
        <ele>437</ele>
        <time>2014-09-28T10:17:53Z</time>
      </trkpt>
      <trkpt lat="46.28563" lon="4.7093">
        <ele>437</ele>
        <time>2014-09-28T10:17:54Z</time>
      </trkpt>
      <trkpt lat="46.28563" lon="4.70939">
        <ele>437</ele>
        <time>2014-09-28T10:17:55Z</time>
      </trkpt>
      <trkpt lat="46.28564" lon="4.70947">
        <ele>437</ele>
        <time>2014-09-28T10:17:56Z</time>
      </trkpt>
      <trkpt lat="46.28565" lon="4.70957">
        <ele>436</ele>
        <time>2014-09-28T10:17:57Z</time>
      </trkpt>
      <trkpt lat="46.28565" lon="4.70967">
        <ele>436</ele>
        <time>2014-09-28T10:17:58Z</time>
      </trkpt>
      <trkpt lat="46.28564" lon="4.70978">
        <ele>436</ele>
        <time>2014-09-28T10:17:59Z</time>
      </trkpt>
      <trkpt lat="46.28562" lon="4.70988">
        <ele>436</ele>
        <time>2014-09-28T10:18:00Z</time>
      </trkpt>
      <trkpt lat="46.2856" lon="4.70999">
        <ele>436</ele>
        <time>2014-09-28T10:18:01Z</time>
      </trkpt>
      <trkpt lat="46.28557" lon="4.71009">
        <ele>434</ele>
        <time>2014-09-28T10:18:02Z</time>
      </trkpt>
      <trkpt lat="46.28556" lon="4.7102">
        <ele>434</ele>
        <time>2014-09-28T10:18:03Z</time>
      </trkpt>
      <trkpt lat="46.28555" lon="4.7103">
        <ele>434</ele>
        <time>2014-09-28T10:18:04Z</time>
      </trkpt>
      <trkpt lat="46.28554" lon="4.7104">
        <ele>434</ele>
        <time>2014-09-28T10:18:05Z</time>
      </trkpt>
      <trkpt lat="46.28553" lon="4.71052">
        <ele>434</ele>
        <time>2014-09-28T10:18:06Z</time>
      </trkpt>
      <trkpt lat="46.28552" lon="4.71063">
        <ele>434</ele>
        <time>2014-09-28T10:18:07Z</time>
      </trkpt>
      <trkpt lat="46.2855" lon="4.71075">
        <ele>434</ele>
        <time>2014-09-28T10:18:08Z</time>
      </trkpt>
      <trkpt lat="46.28549" lon="4.71086">
        <ele>433</ele>
        <time>2014-09-28T10:18:09Z</time>
      </trkpt>
      <trkpt lat="46.28548" lon="4.71098">
        <ele>433</ele>
        <time>2014-09-28T10:18:10Z</time>
      </trkpt>
      <trkpt lat="46.28546" lon="4.7111">
        <ele>433</ele>
        <time>2014-09-28T10:18:11Z</time>
      </trkpt>
      <trkpt lat="46.28544" lon="4.71121">
        <ele>433</ele>
        <time>2014-09-28T10:18:12Z</time>
      </trkpt>
      <trkpt lat="46.28545" lon="4.71137">
        <ele>433</ele>
        <time>2014-09-28T10:18:13Z</time>
      </trkpt>
      <trkpt lat="46.28543" lon="4.71149">
        <ele>433</ele>
        <time>2014-09-28T10:18:14Z</time>
      </trkpt>
      <trkpt lat="46.28541" lon="4.71159">
        <ele>432</ele>
        <time>2014-09-28T10:18:15Z</time>
      </trkpt>
      <trkpt lat="46.2854" lon="4.71168">
        <ele>432</ele>
        <time>2014-09-28T10:18:16Z</time>
      </trkpt>
      <trkpt lat="46.28539" lon="4.71179">
        <ele>432</ele>
        <time>2014-09-28T10:18:17Z</time>
      </trkpt>
      <trkpt lat="46.28538" lon="4.71189">
        <ele>432</ele>
        <time>2014-09-28T10:18:18Z</time>
      </trkpt>
      <trkpt lat="46.28537" lon="4.71199">
        <ele>432</ele>
        <time>2014-09-28T10:18:19Z</time>
      </trkpt>
      <trkpt lat="46.28536" lon="4.7121">
        <ele>432</ele>
        <time>2014-09-28T10:18:20Z</time>
      </trkpt>
      <trkpt lat="46.28536" lon="4.71219">
        <ele>432</ele>
        <time>2014-09-28T10:18:21Z</time>
      </trkpt>
      <trkpt lat="46.28536" lon="4.71228">
        <ele>432</ele>
        <time>2014-09-28T10:18:22Z</time>
      </trkpt>
      <trkpt lat="46.28536" lon="4.71238">
        <ele>432</ele>
        <time>2014-09-28T10:18:23Z</time>
      </trkpt>
      <trkpt lat="46.28535" lon="4.71247">
        <ele>432</ele>
        <time>2014-09-28T10:18:24Z</time>
      </trkpt>
      <trkpt lat="46.28536" lon="4.71257">
        <ele>430</ele>
        <time>2014-09-28T10:18:25Z</time>
      </trkpt>
      <trkpt lat="46.28536" lon="4.71265">
        <ele>430</ele>
        <time>2014-09-28T10:18:26Z</time>
      </trkpt>
      <trkpt lat="46.28536" lon="4.71274">
        <ele>430</ele>
        <time>2014-09-28T10:18:27Z</time>
      </trkpt>
      <trkpt lat="46.28537" lon="4.71283">
        <ele>430</ele>
        <time>2014-09-28T10:18:28Z</time>
      </trkpt>
      <trkpt lat="46.28538" lon="4.71293">
        <ele>430</ele>
        <time>2014-09-28T10:18:29Z</time>
      </trkpt>
      <trkpt lat="46.28539" lon="4.71303">
        <ele>430</ele>
        <time>2014-09-28T10:18:30Z</time>
      </trkpt>
      <trkpt lat="46.28539" lon="4.71315">
        <ele>430</ele>
        <time>2014-09-28T10:18:31Z</time>
      </trkpt>
      <trkpt lat="46.28539" lon="4.71326">
        <ele>430</ele>
        <time>2014-09-28T10:18:32Z</time>
      </trkpt>
      <trkpt lat="46.2854" lon="4.71337">
        <ele>427</ele>
        <time>2014-09-28T10:18:33Z</time>
      </trkpt>
      <trkpt lat="46.2854" lon="4.71349">
        <ele>427</ele>
        <time>2014-09-28T10:18:34Z</time>
      </trkpt>
      <trkpt lat="46.2854" lon="4.7136">
        <ele>427</ele>
        <time>2014-09-28T10:18:35Z</time>
      </trkpt>
      <trkpt lat="46.2854" lon="4.71372">
        <ele>427</ele>
        <time>2014-09-28T10:18:36Z</time>
      </trkpt>
      <trkpt lat="46.28541" lon="4.71385">
        <ele>426</ele>
        <time>2014-09-28T10:18:37Z</time>
      </trkpt>
      <trkpt lat="46.2854" lon="4.71396">
        <ele>426</ele>
        <time>2014-09-28T10:18:39Z</time>
      </trkpt>
      <trkpt lat="46.28541" lon="4.71407">
        <ele>426</ele>
        <time>2014-09-28T10:18:39Z</time>
      </trkpt>
      <trkpt lat="46.28541" lon="4.71418">
        <ele>424</ele>
        <time>2014-09-28T10:18:40Z</time>
      </trkpt>
      <trkpt lat="46.28541" lon="4.71429">
        <ele>424</ele>
        <time>2014-09-28T10:18:41Z</time>
      </trkpt>
      <trkpt lat="46.28541" lon="4.71438">
        <ele>424</ele>
        <time>2014-09-28T10:18:42Z</time>
      </trkpt>
      <trkpt lat="46.28541" lon="4.71447">
        <ele>424</ele>
        <time>2014-09-28T10:18:43Z</time>
      </trkpt>
      <trkpt lat="46.28541" lon="4.71457">
        <ele>424</ele>
        <time>2014-09-28T10:18:44Z</time>
      </trkpt>
      <trkpt lat="46.28541" lon="4.71466">
        <ele>424</ele>
        <time>2014-09-28T10:18:45Z</time>
      </trkpt>
      <trkpt lat="46.28541" lon="4.71473">
        <ele>424</ele>
        <time>2014-09-28T10:18:46Z</time>
      </trkpt>
      <trkpt lat="46.28539" lon="4.71479">
        <ele>423</ele>
        <time>2014-09-28T10:18:47Z</time>
      </trkpt>
      <trkpt lat="46.28536" lon="4.71484">
        <ele>423</ele>
        <time>2014-09-28T10:18:48Z</time>
      </trkpt>
      <trkpt lat="46.28532" lon="4.71487">
        <ele>423</ele>
        <time>2014-09-28T10:18:49Z</time>
      </trkpt>
      <trkpt lat="46.28528" lon="4.71489">
        <ele>423</ele>
        <time>2014-09-28T10:18:50Z</time>
      </trkpt>
      <trkpt lat="46.28523" lon="4.71489">
        <ele>422</ele>
        <time>2014-09-28T10:18:51Z</time>
      </trkpt>
      <trkpt lat="46.28517" lon="4.71491">
        <ele>422</ele>
        <time>2014-09-28T10:18:52Z</time>
      </trkpt>
      <trkpt lat="46.2851" lon="4.71492">
        <ele>421</ele>
        <time>2014-09-28T10:18:53Z</time>
      </trkpt>
      <trkpt lat="46.28502" lon="4.71493">
        <ele>420</ele>
        <time>2014-09-28T10:18:54Z</time>
      </trkpt>
      <trkpt lat="46.28495" lon="4.71494">
        <ele>419</ele>
        <time>2014-09-28T10:18:55Z</time>
      </trkpt>
      <trkpt lat="46.28488" lon="4.71497">
        <ele>418</ele>
        <time>2014-09-28T10:18:56Z</time>
      </trkpt>
      <trkpt lat="46.2848" lon="4.71499">
        <ele>418</ele>
        <time>2014-09-28T10:18:57Z</time>
      </trkpt>
      <trkpt lat="46.28472" lon="4.715">
        <ele>418</ele>
        <time>2014-09-28T10:18:58Z</time>
      </trkpt>
      <trkpt lat="46.28463" lon="4.71499">
        <ele>417</ele>
        <time>2014-09-28T10:18:59Z</time>
      </trkpt>
      <trkpt lat="46.28454" lon="4.71499">
        <ele>417</ele>
        <time>2014-09-28T10:19:00Z</time>
      </trkpt>
      <trkpt lat="46.28445" lon="4.71498">
        <ele>417</ele>
        <time>2014-09-28T10:19:01Z</time>
      </trkpt>
      <trkpt lat="46.28437" lon="4.71496">
        <ele>416</ele>
        <time>2014-09-28T10:19:02Z</time>
      </trkpt>
      <trkpt lat="46.28428" lon="4.71493">
        <ele>416</ele>
        <time>2014-09-28T10:19:03Z</time>
      </trkpt>
      <trkpt lat="46.28419" lon="4.7149">
        <ele>416</ele>
        <time>2014-09-28T10:19:04Z</time>
      </trkpt>
      <trkpt lat="46.28411" lon="4.71487">
        <ele>412</ele>
        <time>2014-09-28T10:19:05Z</time>
      </trkpt>
      <trkpt lat="46.28402" lon="4.71485">
        <ele>410</ele>
        <time>2014-09-28T10:19:06Z</time>
      </trkpt>
      <trkpt lat="46.28393" lon="4.71483">
        <ele>409</ele>
        <time>2014-09-28T10:19:07Z</time>
      </trkpt>
      <trkpt lat="46.28384" lon="4.71482">
        <ele>408</ele>
        <time>2014-09-28T10:19:08Z</time>
      </trkpt>
      <trkpt lat="46.28375" lon="4.71481">
        <ele>407</ele>
        <time>2014-09-28T10:19:09Z</time>
      </trkpt>
      <trkpt lat="46.28366" lon="4.71481">
        <ele>406</ele>
        <time>2014-09-28T10:19:10Z</time>
      </trkpt>
      <trkpt lat="46.28358" lon="4.71481">
        <ele>405</ele>
        <time>2014-09-28T10:19:11Z</time>
      </trkpt>
      <trkpt lat="46.28349" lon="4.7148">
        <ele>404</ele>
        <time>2014-09-28T10:19:12Z</time>
      </trkpt>
      <trkpt lat="46.28341" lon="4.71482">
        <ele>403</ele>
        <time>2014-09-28T10:19:13Z</time>
      </trkpt>
      <trkpt lat="46.28333" lon="4.71485">
        <ele>397</ele>
        <time>2014-09-28T10:19:14Z</time>
      </trkpt>
      <trkpt lat="46.28325" lon="4.7149">
        <ele>397</ele>
        <time>2014-09-28T10:19:15Z</time>
      </trkpt>
      <trkpt lat="46.28317" lon="4.71496">
        <ele>396</ele>
        <time>2014-09-28T10:19:16Z</time>
      </trkpt>
      <trkpt lat="46.28309" lon="4.71502">
        <ele>395</ele>
        <time>2014-09-28T10:19:17Z</time>
      </trkpt>
      <trkpt lat="46.28302" lon="4.71509">
        <ele>394</ele>
        <time>2014-09-28T10:19:18Z</time>
      </trkpt>
      <trkpt lat="46.28295" lon="4.71515">
        <ele>393</ele>
        <time>2014-09-28T10:19:19Z</time>
      </trkpt>
      <trkpt lat="46.28288" lon="4.71522">
        <ele>392</ele>
        <time>2014-09-28T10:19:20Z</time>
      </trkpt>
      <trkpt lat="46.28281" lon="4.7153">
        <ele>392</ele>
        <time>2014-09-28T10:19:21Z</time>
      </trkpt>
      <trkpt lat="46.28274" lon="4.71539">
        <ele>391</ele>
        <time>2014-09-28T10:19:22Z</time>
      </trkpt>
      <trkpt lat="46.28268" lon="4.71548">
        <ele>391</ele>
        <time>2014-09-28T10:19:23Z</time>
      </trkpt>
      <trkpt lat="46.28262" lon="4.71558">
        <ele>390</ele>
        <time>2014-09-28T10:19:24Z</time>
      </trkpt>
      <trkpt lat="46.28257" lon="4.71569">
        <ele>389</ele>
        <time>2014-09-28T10:19:25Z</time>
      </trkpt>
      <trkpt lat="46.28251" lon="4.7158">
        <ele>387</ele>
        <time>2014-09-28T10:19:26Z</time>
      </trkpt>
      <trkpt lat="46.28245" lon="4.71591">
        <ele>384</ele>
        <time>2014-09-28T10:19:27Z</time>
      </trkpt>
      <trkpt lat="46.28239" lon="4.71602">
        <ele>382</ele>
        <time>2014-09-28T10:19:28Z</time>
      </trkpt>
      <trkpt lat="46.28232" lon="4.71614">
        <ele>381</ele>
        <time>2014-09-28T10:19:29Z</time>
      </trkpt>
      <trkpt lat="46.28226" lon="4.71626">
        <ele>381</ele>
        <time>2014-09-28T10:19:30Z</time>
      </trkpt>
      <trkpt lat="46.28222" lon="4.7164">
        <ele>381</ele>
        <time>2014-09-28T10:19:31Z</time>
      </trkpt>
      <trkpt lat="46.28218" lon="4.71653">
        <ele>380</ele>
        <time>2014-09-28T10:19:32Z</time>
      </trkpt>
      <trkpt lat="46.28215" lon="4.71666">
        <ele>380</ele>
        <time>2014-09-28T10:19:33Z</time>
      </trkpt>
      <trkpt lat="46.28212" lon="4.71679">
        <ele>378</ele>
        <time>2014-09-28T10:19:34Z</time>
      </trkpt>
      <trkpt lat="46.2821" lon="4.71692">
        <ele>378</ele>
        <time>2014-09-28T10:19:35Z</time>
      </trkpt>
      <trkpt lat="46.28209" lon="4.71703">
        <ele>377</ele>
        <time>2014-09-28T10:19:36Z</time>
      </trkpt>
      <trkpt lat="46.28208" lon="4.71714">
        <ele>377</ele>
        <time>2014-09-28T10:19:37Z</time>
      </trkpt>
      <trkpt lat="46.28208" lon="4.71725">
        <ele>377</ele>
        <time>2014-09-28T10:19:38Z</time>
      </trkpt>
      <trkpt lat="46.2821" lon="4.71736">
        <ele>377</ele>
        <time>2014-09-28T10:19:39Z</time>
      </trkpt>
      <trkpt lat="46.28213" lon="4.71746">
        <ele>377</ele>
        <time>2014-09-28T10:19:40Z</time>
      </trkpt>
      <trkpt lat="46.28215" lon="4.71756">
        <ele>374</ele>
        <time>2014-09-28T10:19:41Z</time>
      </trkpt>
      <trkpt lat="46.28217" lon="4.71767">
        <ele>374</ele>
        <time>2014-09-28T10:19:42Z</time>
      </trkpt>
      <trkpt lat="46.28218" lon="4.71777">
        <ele>373</ele>
        <time>2014-09-28T10:19:43Z</time>
      </trkpt>
      <trkpt lat="46.28222" lon="4.71788">
        <ele>373</ele>
        <time>2014-09-28T10:19:44Z</time>
      </trkpt>
      <trkpt lat="46.28226" lon="4.71798">
        <ele>373</ele>
        <time>2014-09-28T10:19:45Z</time>
      </trkpt>
      <trkpt lat="46.2823" lon="4.71807">
        <ele>373</ele>
        <time>2014-09-28T10:19:46Z</time>
      </trkpt>
      <trkpt lat="46.28235" lon="4.71816">
        <ele>373</ele>
        <time>2014-09-28T10:19:47Z</time>
      </trkpt>
      <trkpt lat="46.28239" lon="4.71826">
        <ele>373</ele>
        <time>2014-09-28T10:19:48Z</time>
      </trkpt>
      <trkpt lat="46.28244" lon="4.71835">
        <ele>371</ele>
        <time>2014-09-28T10:19:49Z</time>
      </trkpt>
      <trkpt lat="46.28247" lon="4.71845">
        <ele>370</ele>
        <time>2014-09-28T10:19:50Z</time>
      </trkpt>
      <trkpt lat="46.28249" lon="4.71857">
        <ele>369</ele>
        <time>2014-09-28T10:19:51Z</time>
      </trkpt>
      <trkpt lat="46.2825" lon="4.71868">
        <ele>368</ele>
        <time>2014-09-28T10:19:52Z</time>
      </trkpt>
      <trkpt lat="46.2825" lon="4.71881">
        <ele>367</ele>
        <time>2014-09-28T10:19:53Z</time>
      </trkpt>
      <trkpt lat="46.28249" lon="4.71892">
        <ele>367</ele>
        <time>2014-09-28T10:19:54Z</time>
      </trkpt>
      <trkpt lat="46.28249" lon="4.71903">
        <ele>367</ele>
        <time>2014-09-28T10:19:55Z</time>
      </trkpt>
      <trkpt lat="46.2825" lon="4.71914">
        <ele>368</ele>
        <time>2014-09-28T10:19:56Z</time>
      </trkpt>
      <trkpt lat="46.2825" lon="4.71925">
        <ele>367</ele>
        <time>2014-09-28T10:19:57Z</time>
      </trkpt>
      <trkpt lat="46.2825" lon="4.71936">
        <ele>371</ele>
        <time>2014-09-28T10:19:58Z</time>
      </trkpt>
      <trkpt lat="46.2825" lon="4.71945">
        <ele>371</ele>
        <time>2014-09-28T10:19:59Z</time>
      </trkpt>
      <trkpt lat="46.2825" lon="4.71954">
        <ele>371</ele>
        <time>2014-09-28T10:20:00Z</time>
      </trkpt>
      <trkpt lat="46.2825" lon="4.7196">
        <ele>371</ele>
        <time>2014-09-28T10:20:01Z</time>
      </trkpt>
      <trkpt lat="46.2825" lon="4.71973">
        <ele>371</ele>
        <time>2014-09-28T10:20:04Z</time>
      </trkpt>
      <trkpt lat="46.28251" lon="4.71975">
        <ele>371</ele>
        <time>2014-09-28T10:20:05Z</time>
      </trkpt>
      <trkpt lat="46.2826" lon="4.71977">
        <ele>371</ele>
        <time>2014-09-28T10:20:10Z</time>
      </trkpt>
      <trkpt lat="46.28262" lon="4.71978">
        <ele>371</ele>
        <time>2014-09-28T10:20:11Z</time>
      </trkpt>
      <trkpt lat="46.28269" lon="4.7198">
        <ele>371</ele>
        <time>2014-09-28T10:20:14Z</time>
      </trkpt>
      <trkpt lat="46.28271" lon="4.71981">
        <ele>372</ele>
        <time>2014-09-28T10:20:15Z</time>
      </trkpt>
      <trkpt lat="46.28279" lon="4.71982">
        <ele>372</ele>
        <time>2014-09-28T10:20:19Z</time>
      </trkpt>
      <trkpt lat="46.28281" lon="4.71981">
        <ele>372</ele>
        <time>2014-09-28T10:20:20Z</time>
      </trkpt>
      <trkpt lat="46.2829" lon="4.71983">
        <ele>373</ele>
        <time>2014-09-28T10:20:24Z</time>
      </trkpt>
      <trkpt lat="46.28292" lon="4.71984">
        <ele>373</ele>
        <time>2014-09-28T10:20:25Z</time>
      </trkpt>
      <trkpt lat="46.28298" lon="4.71994">
        <ele>374</ele>
        <time>2014-09-28T10:20:29Z</time>
      </trkpt>
      <trkpt lat="46.28298" lon="4.71998">
        <ele>374</ele>
        <time>2014-09-28T10:20:30Z</time>
      </trkpt>
      <trkpt lat="46.28297" lon="4.72006">
        <ele>374</ele>
        <time>2014-09-28T10:20:32Z</time>
      </trkpt>
      <trkpt lat="46.28296" lon="4.72011">
        <ele>374</ele>
        <time>2014-09-28T10:20:33Z</time>
      </trkpt>
      <trkpt lat="46.28295" lon="4.72021">
        <ele>374</ele>
        <time>2014-09-28T10:20:35Z</time>
      </trkpt>
      <trkpt lat="46.28295" lon="4.72026">
        <ele>374</ele>
        <time>2014-09-28T10:20:36Z</time>
      </trkpt>
      <trkpt lat="46.28294" lon="4.72036">
        <ele>374</ele>
        <time>2014-09-28T10:20:38Z</time>
      </trkpt>
      <trkpt lat="46.28293" lon="4.72041">
        <ele>374</ele>
        <time>2014-09-28T10:20:39Z</time>
      </trkpt>
      <trkpt lat="46.28293" lon="4.72051">
        <ele>374</ele>
        <time>2014-09-28T10:20:41Z</time>
      </trkpt>
      <trkpt lat="46.28292" lon="4.72056">
        <ele>375</ele>
        <time>2014-09-28T10:20:42Z</time>
      </trkpt>
      <trkpt lat="46.28292" lon="4.72066">
        <ele>375</ele>
        <time>2014-09-28T10:20:44Z</time>
      </trkpt>
      <trkpt lat="46.28291" lon="4.7207">
        <ele>375</ele>
        <time>2014-09-28T10:20:45Z</time>
      </trkpt>
      <trkpt lat="46.2829" lon="4.72083">
        <ele>375</ele>
        <time>2014-09-28T10:20:48Z</time>
      </trkpt>
      <trkpt lat="46.2829" lon="4.72087">
        <ele>378</ele>
        <time>2014-09-28T10:20:49Z</time>
      </trkpt>
      <trkpt lat="46.2829" lon="4.72099">
        <ele>378</ele>
        <time>2014-09-28T10:20:52Z</time>
      </trkpt>
      <trkpt lat="46.28289" lon="4.72103">
        <ele>378</ele>
        <time>2014-09-28T10:20:53Z</time>
      </trkpt>
      <trkpt lat="46.28288" lon="4.72114">
        <ele>379</ele>
        <time>2014-09-28T10:20:56Z</time>
      </trkpt>
      <trkpt lat="46.28288" lon="4.72118">
        <ele>379</ele>
        <time>2014-09-28T10:20:57Z</time>
      </trkpt>
      <trkpt lat="46.28287" lon="4.72129">
        <ele>379</ele>
        <time>2014-09-28T10:21:00Z</time>
      </trkpt>
      <trkpt lat="46.28287" lon="4.72133">
        <ele>380</ele>
        <time>2014-09-28T10:21:01Z</time>
      </trkpt>
      <trkpt lat="46.28287" lon="4.72145">
        <ele>380</ele>
        <time>2014-09-28T10:21:06Z</time>
      </trkpt>
      <trkpt lat="46.28287" lon="4.72148">
        <ele>380</ele>
        <time>2014-09-28T10:21:07Z</time>
      </trkpt>
      <trkpt lat="46.28287" lon="4.72159">
        <ele>380</ele>
        <time>2014-09-28T10:21:12Z</time>
      </trkpt>
      <trkpt lat="46.28287" lon="4.72161">
        <ele>381</ele>
        <time>2014-09-28T10:21:13Z</time>
      </trkpt>
      <trkpt lat="46.28287" lon="4.72174">
        <ele>386</ele>
        <time>2014-09-28T10:21:19Z</time>
      </trkpt>
      <trkpt lat="46.28287" lon="4.72176">
        <ele>386</ele>
        <time>2014-09-28T10:21:20Z</time>
      </trkpt>
      <trkpt lat="46.28289" lon="4.72188">
        <ele>387</ele>
        <time>2014-09-28T10:21:25Z</time>
      </trkpt>
      <trkpt lat="46.28289" lon="4.7219">
        <ele>387</ele>
        <time>2014-09-28T10:21:26Z</time>
      </trkpt>
      <trkpt lat="46.2829" lon="4.72201">
        <ele>388</ele>
        <time>2014-09-28T10:21:31Z</time>
      </trkpt>
      <trkpt lat="46.2829" lon="4.72203">
        <ele>388</ele>
        <time>2014-09-28T10:21:32Z</time>
      </trkpt>
      <trkpt lat="46.28291" lon="4.72214">
        <ele>389</ele>
        <time>2014-09-28T10:21:37Z</time>
      </trkpt>
      <trkpt lat="46.28291" lon="4.72216">
        <ele>389</ele>
        <time>2014-09-28T10:21:38Z</time>
      </trkpt>
      <trkpt lat="46.28291" lon="4.72228">
        <ele>390</ele>
        <time>2014-09-28T10:21:43Z</time>
      </trkpt>
      <trkpt lat="46.28291" lon="4.7223">
        <ele>390</ele>
        <time>2014-09-28T10:21:44Z</time>
      </trkpt>
      <trkpt lat="46.28292" lon="4.72242">
        <ele>390</ele>
        <time>2014-09-28T10:21:49Z</time>
      </trkpt>
      <trkpt lat="46.28291" lon="4.72245">
        <ele>390</ele>
        <time>2014-09-28T10:21:50Z</time>
      </trkpt>
      <trkpt lat="46.28286" lon="4.7225">
        <ele>390</ele>
        <time>2014-09-28T10:21:53Z</time>
      </trkpt>
      <trkpt lat="46.28282" lon="4.72252">
        <ele>394</ele>
        <time>2014-09-28T10:21:54Z</time>
      </trkpt>
      <trkpt lat="46.28275" lon="4.72255">
        <ele>394</ele>
        <time>2014-09-28T10:21:56Z</time>
      </trkpt>
      <trkpt lat="46.28271" lon="4.72257">
        <ele>393</ele>
        <time>2014-09-28T10:21:57Z</time>
      </trkpt>
      <trkpt lat="46.28267" lon="4.7226">
        <ele>393</ele>
        <time>2014-09-28T10:21:58Z</time>
      </trkpt>
      <trkpt lat="46.28262" lon="4.72262">
        <ele>392</ele>
        <time>2014-09-28T10:21:59Z</time>
      </trkpt>
      <trkpt lat="46.28258" lon="4.72265">
        <ele>392</ele>
        <time>2014-09-28T10:22:00Z</time>
      </trkpt>
      <trkpt lat="46.28254" lon="4.72268">
        <ele>392</ele>
        <time>2014-09-28T10:22:01Z</time>
      </trkpt>
      <trkpt lat="46.28246" lon="4.72273">
        <ele>388</ele>
        <time>2014-09-28T10:22:03Z</time>
      </trkpt>
      <trkpt lat="46.28242" lon="4.72275">
        <ele>388</ele>
        <time>2014-09-28T10:22:04Z</time>
      </trkpt>
      <trkpt lat="46.28235" lon="4.72278">
        <ele>388</ele>
        <time>2014-09-28T10:22:06Z</time>
      </trkpt>
      <trkpt lat="46.28232" lon="4.7228">
        <ele>388</ele>
        <time>2014-09-28T10:22:07Z</time>
      </trkpt>
      <trkpt lat="46.28225" lon="4.72287">
        <ele>388</ele>
        <time>2014-09-28T10:22:10Z</time>
      </trkpt>
      <trkpt lat="46.28225" lon="4.72289">
        <ele>388</ele>
        <time>2014-09-28T10:22:11Z</time>
      </trkpt>
      <trkpt lat="46.28229" lon="4.72298">
        <ele>388</ele>
        <time>2014-09-28T10:22:15Z</time>
      </trkpt>
      <trkpt lat="46.28232" lon="4.72299">
        <ele>388</ele>
        <time>2014-09-28T10:22:16Z</time>
      </trkpt>
      <trkpt lat="46.28239" lon="4.72299">
        <ele>388</ele>
        <time>2014-09-28T10:22:18Z</time>
      </trkpt>
      <trkpt lat="46.28243" lon="4.723">
        <ele>389</ele>
        <time>2014-09-28T10:22:19Z</time>
      </trkpt>
      <trkpt lat="46.2825" lon="4.72301">
        <ele>395</ele>
        <time>2014-09-28T10:22:21Z</time>
      </trkpt>
      <trkpt lat="46.28254" lon="4.72301">
        <ele>395</ele>
        <time>2014-09-28T10:22:22Z</time>
      </trkpt>
      <trkpt lat="46.28262" lon="4.72305">
        <ele>395</ele>
        <time>2014-09-28T10:22:25Z</time>
      </trkpt>
      <trkpt lat="46.28263" lon="4.72307">
        <ele>395</ele>
        <time>2014-09-28T10:22:26Z</time>
      </trkpt>
      <trkpt lat="46.28265" lon="4.72317">
        <ele>395</ele>
        <time>2014-09-28T10:22:29Z</time>
      </trkpt>
      <trkpt lat="46.28266" lon="4.7232">
        <ele>395</ele>
        <time>2014-09-28T10:22:30Z</time>
      </trkpt>
      <trkpt lat="46.28267" lon="4.7233">
        <ele>395</ele>
        <time>2014-09-28T10:22:33Z</time>
      </trkpt>
      <trkpt lat="46.28268" lon="4.72333">
        <ele>395</ele>
        <time>2014-09-28T10:22:34Z</time>
      </trkpt>
      <trkpt lat="46.28269" lon="4.72343">
        <ele>398</ele>
        <time>2014-09-28T10:22:37Z</time>
      </trkpt>
      <trkpt lat="46.2827" lon="4.72346">
        <ele>398</ele>
        <time>2014-09-28T10:22:38Z</time>
      </trkpt>
      <trkpt lat="46.28272" lon="4.72356">
        <ele>399</ele>
        <time>2014-09-28T10:22:41Z</time>
      </trkpt>
      <trkpt lat="46.28272" lon="4.72361">
        <ele>400</ele>
        <time>2014-09-28T10:22:42Z</time>
      </trkpt>
      <trkpt lat="46.28274" lon="4.72369">
        <ele>400</ele>
        <time>2014-09-28T10:22:44Z</time>
      </trkpt>
      <trkpt lat="46.28275" lon="4.72373">
        <ele>400</ele>
        <time>2014-09-28T10:22:45Z</time>
      </trkpt>
      <trkpt lat="46.28277" lon="4.72386">
        <ele>401</ele>
        <time>2014-09-28T10:22:48Z</time>
      </trkpt>
      <trkpt lat="46.28277" lon="4.7239">
        <ele>401</ele>
        <time>2014-09-28T10:22:49Z</time>
      </trkpt>
      <trkpt lat="46.28279" lon="4.72402">
        <ele>401</ele>
        <time>2014-09-28T10:22:52Z</time>
      </trkpt>
      <trkpt lat="46.2828" lon="4.72406">
        <ele>401</ele>
        <time>2014-09-28T10:22:53Z</time>
      </trkpt>
      <trkpt lat="46.28281" lon="4.72416">
        <ele>401</ele>
        <time>2014-09-28T10:22:56Z</time>
      </trkpt>
      <trkpt lat="46.28282" lon="4.72419">
        <ele>403</ele>
        <time>2014-09-28T10:22:57Z</time>
      </trkpt>
      <trkpt lat="46.28282" lon="4.72429">
        <ele>403</ele>
        <time>2014-09-28T10:23:00Z</time>
      </trkpt>
      <trkpt lat="46.28281" lon="4.72433">
        <ele>403</ele>
        <time>2014-09-28T10:23:01Z</time>
      </trkpt>
      <trkpt lat="46.28281" lon="4.72444">
        <ele>404</ele>
        <time>2014-09-28T10:23:04Z</time>
      </trkpt>
      <trkpt lat="46.2828" lon="4.72448">
        <ele>404</ele>
        <time>2014-09-28T10:23:05Z</time>
      </trkpt>
      <trkpt lat="46.28279" lon="4.72457">
        <ele>404</ele>
        <time>2014-09-28T10:23:07Z</time>
      </trkpt>
      <trkpt lat="46.28278" lon="4.72462">
        <ele>404</ele>
        <time>2014-09-28T10:23:08Z</time>
      </trkpt>
      <trkpt lat="46.28277" lon="4.72472">
        <ele>404</ele>
        <time>2014-09-28T10:23:10Z</time>
      </trkpt>
      <trkpt lat="46.28277" lon="4.72476">
        <ele>404</ele>
        <time>2014-09-28T10:23:11Z</time>
      </trkpt>
      <trkpt lat="46.28277" lon="4.72486">
        <ele>404</ele>
        <time>2014-09-28T10:23:13Z</time>
      </trkpt>
      <trkpt lat="46.28277" lon="4.7249">
        <ele>404</ele>
        <time>2014-09-28T10:23:14Z</time>
      </trkpt>
      <trkpt lat="46.28276" lon="4.725">
        <ele>403</ele>
        <time>2014-09-28T10:23:16Z</time>
      </trkpt>
      <trkpt lat="46.28276" lon="4.72504">
        <ele>405</ele>
        <time>2014-09-28T10:23:17Z</time>
      </trkpt>
      <trkpt lat="46.28276" lon="4.72513">
        <ele>406</ele>
        <time>2014-09-28T10:23:19Z</time>
      </trkpt>
      <trkpt lat="46.28276" lon="4.72518">
        <ele>406</ele>
        <time>2014-09-28T10:23:20Z</time>
      </trkpt>
      <trkpt lat="46.28275" lon="4.7253">
        <ele>407</ele>
        <time>2014-09-28T10:23:24Z</time>
      </trkpt>
      <trkpt lat="46.28274" lon="4.72532">
        <ele>407</ele>
        <time>2014-09-28T10:23:25Z</time>
      </trkpt>
      <trkpt lat="46.28281" lon="4.72539">
        <ele>407</ele>
        <time>2014-09-28T10:23:54Z</time>
      </trkpt>
      <trkpt lat="46.28282" lon="4.7254">
        <ele>408</ele>
        <time>2014-09-28T10:23:55Z</time>
      </trkpt>
      <trkpt lat="46.28288" lon="4.72546">
        <ele>408</ele>
        <time>2014-09-28T10:23:58Z</time>
      </trkpt>
      <trkpt lat="46.2829" lon="4.72548">
        <ele>408</ele>
        <time>2014-09-28T10:23:59Z</time>
      </trkpt>
      <trkpt lat="46.28296" lon="4.72554">
        <ele>409</ele>
        <time>2014-09-28T10:24:02Z</time>
      </trkpt>
      <trkpt lat="46.28298" lon="4.72556">
        <ele>409</ele>
        <time>2014-09-28T10:24:03Z</time>
      </trkpt>
      <trkpt lat="46.28305" lon="4.72563">
        <ele>410</ele>
        <time>2014-09-28T10:24:07Z</time>
      </trkpt>
      <trkpt lat="46.28307" lon="4.72565">
        <ele>410</ele>
        <time>2014-09-28T10:24:08Z</time>
      </trkpt>
      <trkpt lat="46.28313" lon="4.72572">
        <ele>411</ele>
        <time>2014-09-28T10:24:12Z</time>
      </trkpt>
      <trkpt lat="46.28315" lon="4.72573">
        <ele>411</ele>
        <time>2014-09-28T10:24:13Z</time>
      </trkpt>
      <trkpt lat="46.28322" lon="4.72581">
        <ele>412</ele>
        <time>2014-09-28T10:24:18Z</time>
      </trkpt>
      <trkpt lat="46.28323" lon="4.72582">
        <ele>413</ele>
        <time>2014-09-28T10:24:19Z</time>
      </trkpt>
      <trkpt lat="46.2833" lon="4.72587">
        <ele>414</ele>
        <time>2014-09-28T10:24:23Z</time>
      </trkpt>
      <trkpt lat="46.28332" lon="4.72589">
        <ele>414</ele>
        <time>2014-09-28T10:24:24Z</time>
      </trkpt>
      <trkpt lat="46.28339" lon="4.72593">
        <ele>417</ele>
        <time>2014-09-28T10:24:28Z</time>
      </trkpt>
      <trkpt lat="46.28341" lon="4.72595">
        <ele>417</ele>
        <time>2014-09-28T10:24:29Z</time>
      </trkpt>
      <trkpt lat="46.28347" lon="4.72601">
        <ele>418</ele>
        <time>2014-09-28T10:24:32Z</time>
      </trkpt>
      <trkpt lat="46.28348" lon="4.72605">
        <ele>418</ele>
        <time>2014-09-28T10:24:33Z</time>
      </trkpt>
      <trkpt lat="46.2835" lon="4.72616">
        <ele>418</ele>
        <time>2014-09-28T10:24:35Z</time>
      </trkpt>
      <trkpt lat="46.28351" lon="4.72621">
        <ele>419</ele>
        <time>2014-09-28T10:24:36Z</time>
      </trkpt>
      <trkpt lat="46.28351" lon="4.72631">
        <ele>419</ele>
        <time>2014-09-28T10:24:38Z</time>
      </trkpt>
      <trkpt lat="46.28352" lon="4.72637">
        <ele>419</ele>
        <time>2014-09-28T10:24:39Z</time>
      </trkpt>
      <trkpt lat="46.28353" lon="4.72649">
        <ele>419</ele>
        <time>2014-09-28T10:24:41Z</time>
      </trkpt>
      <trkpt lat="46.28353" lon="4.72655">
        <ele>418</ele>
        <time>2014-09-28T10:24:42Z</time>
      </trkpt>
      <trkpt lat="46.28354" lon="4.72667">
        <ele>418</ele>
        <time>2014-09-28T10:24:44Z</time>
      </trkpt>
      <trkpt lat="46.28355" lon="4.72673">
        <ele>418</ele>
        <time>2014-09-28T10:24:45Z</time>
      </trkpt>
      <trkpt lat="46.28356" lon="4.72684">
        <ele>418</ele>
        <time>2014-09-28T10:24:47Z</time>
      </trkpt>
      <trkpt lat="46.28357" lon="4.7269">
        <ele>418</ele>
        <time>2014-09-28T10:24:48Z</time>
      </trkpt>
      <trkpt lat="46.28358" lon="4.72701">
        <ele>418</ele>
        <time>2014-09-28T10:24:50Z</time>
      </trkpt>
      <trkpt lat="46.28358" lon="4.72706">
        <ele>418</ele>
        <time>2014-09-28T10:24:51Z</time>
      </trkpt>
      <trkpt lat="46.2836" lon="4.72717">
        <ele>418</ele>
        <time>2014-09-28T10:24:53Z</time>
      </trkpt>
      <trkpt lat="46.28362" lon="4.72722">
        <ele>418</ele>
        <time>2014-09-28T10:24:54Z</time>
      </trkpt>
      <trkpt lat="46.28364" lon="4.72732">
        <ele>418</ele>
        <time>2014-09-28T10:24:56Z</time>
      </trkpt>
      <trkpt lat="46.28366" lon="4.72737">
        <ele>418</ele>
        <time>2014-09-28T10:24:57Z</time>
      </trkpt>
      <trkpt lat="46.28369" lon="4.72747">
        <ele>418</ele>
        <time>2014-09-28T10:24:59Z</time>
      </trkpt>
      <trkpt lat="46.2837" lon="4.72751">
        <ele>417</ele>
        <time>2014-09-28T10:25:00Z</time>
      </trkpt>
      <trkpt lat="46.28374" lon="4.72761">
        <ele>417</ele>
        <time>2014-09-28T10:25:02Z</time>
      </trkpt>
      <trkpt lat="46.28376" lon="4.72766">
        <ele>417</ele>
        <time>2014-09-28T10:25:03Z</time>
      </trkpt>
      <trkpt lat="46.28379" lon="4.72776">
        <ele>417</ele>
        <time>2014-09-28T10:25:05Z</time>
      </trkpt>
      <trkpt lat="46.28381" lon="4.72782">
        <ele>417</ele>
        <time>2014-09-28T10:25:06Z</time>
      </trkpt>
      <trkpt lat="46.28384" lon="4.72789">
        <ele>417</ele>
        <time>2014-09-28T10:25:07Z</time>
      </trkpt>
      <trkpt lat="46.28386" lon="4.72795">
        <ele>416</ele>
        <time>2014-09-28T10:25:08Z</time>
      </trkpt>
      <trkpt lat="46.28389" lon="4.728">
        <ele>416</ele>
        <time>2014-09-28T10:25:09Z</time>
      </trkpt>
      <trkpt lat="46.28393" lon="4.72803">
        <ele>416</ele>
        <time>2014-09-28T10:25:10Z</time>
      </trkpt>
      <trkpt lat="46.28401" lon="4.72804">
        <ele>416</ele>
        <time>2014-09-28T10:25:12Z</time>
      </trkpt>
      <trkpt lat="46.28405" lon="4.72803">
        <ele>416</ele>
        <time>2014-09-28T10:25:13Z</time>
      </trkpt>
      <trkpt lat="46.28413" lon="4.72799">
        <ele>416</ele>
        <time>2014-09-28T10:25:15Z</time>
      </trkpt>
      <trkpt lat="46.28418" lon="4.72797">
        <ele>417</ele>
        <time>2014-09-28T10:25:16Z</time>
      </trkpt>
      <trkpt lat="46.28426" lon="4.72792">
        <ele>417</ele>
        <time>2014-09-28T10:25:18Z</time>
      </trkpt>
      <trkpt lat="46.2843" lon="4.7279">
        <ele>417</ele>
        <time>2014-09-28T10:25:19Z</time>
      </trkpt>
      <trkpt lat="46.28435" lon="4.72787">
        <ele>418</ele>
        <time>2014-09-28T10:25:20Z</time>
      </trkpt>
      <trkpt lat="46.28439" lon="4.72785">
        <ele>418</ele>
        <time>2014-09-28T10:25:21Z</time>
      </trkpt>
      <trkpt lat="46.28444" lon="4.72783">
        <ele>418</ele>
        <time>2014-09-28T10:25:22Z</time>
      </trkpt>
      <trkpt lat="46.28449" lon="4.7278">
        <ele>418</ele>
        <time>2014-09-28T10:25:23Z</time>
      </trkpt>
      <trkpt lat="46.28454" lon="4.72777">
        <ele>418</ele>
        <time>2014-09-28T10:25:24Z</time>
      </trkpt>
      <trkpt lat="46.28459" lon="4.72774">
        <ele>418</ele>
        <time>2014-09-28T10:25:25Z</time>
      </trkpt>
      <trkpt lat="46.28463" lon="4.72771">
        <ele>418</ele>
        <time>2014-09-28T10:25:26Z</time>
      </trkpt>
      <trkpt lat="46.28468" lon="4.72768">
        <ele>419</ele>
        <time>2014-09-28T10:25:27Z</time>
      </trkpt>
      <trkpt lat="46.28473" lon="4.72765">
        <ele>419</ele>
        <time>2014-09-28T10:25:28Z</time>
      </trkpt>
      <trkpt lat="46.28478" lon="4.72763">
        <ele>419</ele>
        <time>2014-09-28T10:25:29Z</time>
      </trkpt>
      <trkpt lat="46.28483" lon="4.7276">
        <ele>420</ele>
        <time>2014-09-28T10:25:30Z</time>
      </trkpt>
      <trkpt lat="46.28488" lon="4.72757">
        <ele>421</ele>
        <time>2014-09-28T10:25:31Z</time>
      </trkpt>
      <trkpt lat="46.28492" lon="4.72755">
        <ele>421</ele>
        <time>2014-09-28T10:25:32Z</time>
      </trkpt>
      <trkpt lat="46.28497" lon="4.72752">
        <ele>422</ele>
        <time>2014-09-28T10:25:33Z</time>
      </trkpt>
      <trkpt lat="46.28504" lon="4.72748">
        <ele>424</ele>
        <time>2014-09-28T10:25:35Z</time>
      </trkpt>
      <trkpt lat="46.28508" lon="4.72745">
        <ele>424</ele>
        <time>2014-09-28T10:25:36Z</time>
      </trkpt>
      <trkpt lat="46.28515" lon="4.72741">
        <ele>425</ele>
        <time>2014-09-28T10:25:38Z</time>
      </trkpt>
      <trkpt lat="46.28519" lon="4.7274">
        <ele>425</ele>
        <time>2014-09-28T10:25:39Z</time>
      </trkpt>
      <trkpt lat="46.28526" lon="4.72739">
        <ele>426</ele>
        <time>2014-09-28T10:25:41Z</time>
      </trkpt>
      <trkpt lat="46.2853" lon="4.72739">
        <ele>426</ele>
        <time>2014-09-28T10:25:42Z</time>
      </trkpt>
      <trkpt lat="46.28538" lon="4.72739">
        <ele>426</ele>
        <time>2014-09-28T10:25:44Z</time>
      </trkpt>
      <trkpt lat="46.28542" lon="4.72739">
        <ele>427</ele>
        <time>2014-09-28T10:25:45Z</time>
      </trkpt>
      <trkpt lat="46.28549" lon="4.72739">
        <ele>427</ele>
        <time>2014-09-28T10:25:47Z</time>
      </trkpt>
      <trkpt lat="46.28553" lon="4.72739">
        <ele>427</ele>
        <time>2014-09-28T10:25:48Z</time>
      </trkpt>
      <trkpt lat="46.2856" lon="4.72739">
        <ele>427</ele>
        <time>2014-09-28T10:25:50Z</time>
      </trkpt>
      <trkpt lat="46.28564" lon="4.72739">
        <ele>427</ele>
        <time>2014-09-28T10:25:51Z</time>
      </trkpt>
      <trkpt lat="46.28571" lon="4.72739">
        <ele>427</ele>
        <time>2014-09-28T10:25:53Z</time>
      </trkpt>
      <trkpt lat="46.28574" lon="4.72739">
        <ele>427</ele>
        <time>2014-09-28T10:25:54Z</time>
      </trkpt>
      <trkpt lat="46.28581" lon="4.72738">
        <ele>427</ele>
        <time>2014-09-28T10:25:56Z</time>
      </trkpt>
      <trkpt lat="46.28584" lon="4.72738">
        <ele>429</ele>
        <time>2014-09-28T10:25:57Z</time>
      </trkpt>
      <trkpt lat="46.28591" lon="4.72736">
        <ele>430</ele>
        <time>2014-09-28T10:25:59Z</time>
      </trkpt>
      <trkpt lat="46.28594" lon="4.72734">
        <ele>430</ele>
        <time>2014-09-28T10:26:00Z</time>
      </trkpt>
      <trkpt lat="46.28602" lon="4.72731">
        <ele>431</ele>
        <time>2014-09-28T10:26:03Z</time>
      </trkpt>
      <trkpt lat="46.28605" lon="4.72732">
        <ele>431</ele>
        <time>2014-09-28T10:26:04Z</time>
      </trkpt>
      <trkpt lat="46.28613" lon="4.72731">
        <ele>432</ele>
        <time>2014-09-28T10:26:07Z</time>
      </trkpt>
      <trkpt lat="46.28616" lon="4.7273">
        <ele>432</ele>
        <time>2014-09-28T10:26:08Z</time>
      </trkpt>
      <trkpt lat="46.28623" lon="4.72729">
        <ele>433</ele>
        <time>2014-09-28T10:26:11Z</time>
      </trkpt>
      <trkpt lat="46.28625" lon="4.72729">
        <ele>433</ele>
        <time>2014-09-28T10:26:12Z</time>
      </trkpt>
      <trkpt lat="46.28632" lon="4.72729">
        <ele>433</ele>
        <time>2014-09-28T10:26:15Z</time>
      </trkpt>
      <trkpt lat="46.28635" lon="4.72729">
        <ele>433</ele>
        <time>2014-09-28T10:26:16Z</time>
      </trkpt>
      <trkpt lat="46.28642" lon="4.72729">
        <ele>433</ele>
        <time>2014-09-28T10:26:19Z</time>
      </trkpt>
      <trkpt lat="46.28645" lon="4.72729">
        <ele>433</ele>
        <time>2014-09-28T10:26:20Z</time>
      </trkpt>
      <trkpt lat="46.28652" lon="4.72725">
        <ele>434</ele>
        <time>2014-09-28T10:26:23Z</time>
      </trkpt>
      <trkpt lat="46.28654" lon="4.72723">
        <ele>434</ele>
        <time>2014-09-28T10:26:24Z</time>
      </trkpt>
      <trkpt lat="46.28661" lon="4.72717">
        <ele>434</ele>
        <time>2014-09-28T10:26:28Z</time>
      </trkpt>
      <trkpt lat="46.28663" lon="4.72717">
        <ele>434</ele>
        <time>2014-09-28T10:26:29Z</time>
      </trkpt>
      <trkpt lat="46.28671" lon="4.72721">
        <ele>437</ele>
        <time>2014-09-28T10:26:32Z</time>
      </trkpt>
      <trkpt lat="46.28674" lon="4.72723">
        <ele>437</ele>
        <time>2014-09-28T10:26:33Z</time>
      </trkpt>
      <trkpt lat="46.28679" lon="4.72727">
        <ele>437</ele>
        <time>2014-09-28T10:26:35Z</time>
      </trkpt>
      <trkpt lat="46.28682" lon="4.72729">
        <ele>436</ele>
        <time>2014-09-28T10:26:36Z</time>
      </trkpt>
      <trkpt lat="46.28689" lon="4.72734">
        <ele>436</ele>
        <time>2014-09-28T10:26:38Z</time>
      </trkpt>
      <trkpt lat="46.28692" lon="4.72737">
        <ele>437</ele>
        <time>2014-09-28T10:26:39Z</time>
      </trkpt>
      <trkpt lat="46.28699" lon="4.72741">
        <ele>437</ele>
        <time>2014-09-28T10:26:41Z</time>
      </trkpt>
      <trkpt lat="46.28703" lon="4.72743">
        <ele>437</ele>
        <time>2014-09-28T10:26:42Z</time>
      </trkpt>
      <trkpt lat="46.2871" lon="4.72747">
        <ele>437</ele>
        <time>2014-09-28T10:26:44Z</time>
      </trkpt>
      <trkpt lat="46.28713" lon="4.72748">
        <ele>437</ele>
        <time>2014-09-28T10:26:45Z</time>
      </trkpt>
      <trkpt lat="46.2872" lon="4.72751">
        <ele>433</ele>
        <time>2014-09-28T10:26:47Z</time>
      </trkpt>
      <trkpt lat="46.28724" lon="4.72752">
        <ele>433</ele>
        <time>2014-09-28T10:26:48Z</time>
      </trkpt>
      <trkpt lat="46.28733" lon="4.72752">
        <ele>434</ele>
        <time>2014-09-28T10:26:50Z</time>
      </trkpt>
      <trkpt lat="46.28737" lon="4.72751">
        <ele>434</ele>
        <time>2014-09-28T10:26:51Z</time>
      </trkpt>
      <trkpt lat="46.28744" lon="4.7275">
        <ele>436</ele>
        <time>2014-09-28T10:26:53Z</time>
      </trkpt>
      <trkpt lat="46.28748" lon="4.72749">
        <ele>436</ele>
        <time>2014-09-28T10:26:54Z</time>
      </trkpt>
      <trkpt lat="46.28756" lon="4.72748">
        <ele>437</ele>
        <time>2014-09-28T10:26:56Z</time>
      </trkpt>
      <trkpt lat="46.2876" lon="4.72747">
        <ele>437</ele>
        <time>2014-09-28T10:26:57Z</time>
      </trkpt>
      <trkpt lat="46.28768" lon="4.72746">
        <ele>437</ele>
        <time>2014-09-28T10:26:59Z</time>
      </trkpt>
      <trkpt lat="46.28772" lon="4.72745">
        <ele>438</ele>
        <time>2014-09-28T10:27:00Z</time>
      </trkpt>
      <trkpt lat="46.2878" lon="4.72743">
        <ele>438</ele>
        <time>2014-09-28T10:27:02Z</time>
      </trkpt>
      <trkpt lat="46.28784" lon="4.72742">
        <ele>438</ele>
        <time>2014-09-28T10:27:03Z</time>
      </trkpt>
      <trkpt lat="46.2879" lon="4.72742">
        <ele>438</ele>
        <time>2014-09-28T10:27:05Z</time>
      </trkpt>
      <trkpt lat="46.28793" lon="4.72745">
        <ele>438</ele>
        <time>2014-09-28T10:27:06Z</time>
      </trkpt>
      <trkpt lat="46.28796" lon="4.72755">
        <ele>434</ele>
        <time>2014-09-28T10:27:08Z</time>
      </trkpt>
      <trkpt lat="46.28798" lon="4.72766">
        <ele>434</ele>
        <time>2014-09-28T10:27:09Z</time>
      </trkpt>
      <trkpt lat="46.28801" lon="4.72774">
        <ele>434</ele>
        <time>2014-09-28T10:27:10Z</time>
      </trkpt>
      <trkpt lat="46.28804" lon="4.72781">
        <ele>433</ele>
        <time>2014-09-28T10:27:11Z</time>
      </trkpt>
      <trkpt lat="46.28808" lon="4.72789">
        <ele>433</ele>
        <time>2014-09-28T10:27:12Z</time>
      </trkpt>
      <trkpt lat="46.2881" lon="4.72797">
        <ele>433</ele>
        <time>2014-09-28T10:27:13Z</time>
      </trkpt>
      <trkpt lat="46.28812" lon="4.72805">
        <ele>432</ele>
        <time>2014-09-28T10:27:14Z</time>
      </trkpt>
      <trkpt lat="46.28813" lon="4.72813">
        <ele>432</ele>
        <time>2014-09-28T10:27:15Z</time>
      </trkpt>
      <trkpt lat="46.28812" lon="4.72821">
        <ele>431</ele>
        <time>2014-09-28T10:27:16Z</time>
      </trkpt>
      <trkpt lat="46.28813" lon="4.72829">
        <ele>431</ele>
        <time>2014-09-28T10:27:17Z</time>
      </trkpt>
      <trkpt lat="46.28815" lon="4.72838">
        <ele>426</ele>
        <time>2014-09-28T10:27:18Z</time>
      </trkpt>
      <trkpt lat="46.28817" lon="4.72847">
        <ele>426</ele>
        <time>2014-09-28T10:27:19Z</time>
      </trkpt>
      <trkpt lat="46.28819" lon="4.72856">
        <ele>425</ele>
        <time>2014-09-28T10:27:20Z</time>
      </trkpt>
      <trkpt lat="46.2882" lon="4.72865">
        <ele>424</ele>
        <time>2014-09-28T10:27:21Z</time>
      </trkpt>
      <trkpt lat="46.28821" lon="4.72874">
        <ele>423</ele>
        <time>2014-09-28T10:27:22Z</time>
      </trkpt>
      <trkpt lat="46.2882" lon="4.72883">
        <ele>422</ele>
        <time>2014-09-28T10:27:23Z</time>
      </trkpt>
      <trkpt lat="46.28818" lon="4.72893">
        <ele>421</ele>
        <time>2014-09-28T10:27:24Z</time>
      </trkpt>
      <trkpt lat="46.28815" lon="4.72903">
        <ele>421</ele>
        <time>2014-09-28T10:27:25Z</time>
      </trkpt>
      <trkpt lat="46.28812" lon="4.72913">
        <ele>420</ele>
        <time>2014-09-28T10:27:26Z</time>
      </trkpt>
      <trkpt lat="46.28808" lon="4.72925">
        <ele>414</ele>
        <time>2014-09-28T10:27:27Z</time>
      </trkpt>
      <trkpt lat="46.28804" lon="4.72937">
        <ele>414</ele>
        <time>2014-09-28T10:27:28Z</time>
      </trkpt>
      <trkpt lat="46.28801" lon="4.72949">
        <ele>413</ele>
        <time>2014-09-28T10:27:29Z</time>
      </trkpt>
      <trkpt lat="46.28799" lon="4.72961">
        <ele>412</ele>
        <time>2014-09-28T10:27:30Z</time>
      </trkpt>
      <trkpt lat="46.28794" lon="4.72973">
        <ele>412</ele>
        <time>2014-09-28T10:27:31Z</time>
      </trkpt>
      <trkpt lat="46.28791" lon="4.72986">
        <ele>411</ele>
        <time>2014-09-28T10:27:32Z</time>
      </trkpt>
      <trkpt lat="46.28788" lon="4.73">
        <ele>410</ele>
        <time>2014-09-28T10:27:33Z</time>
      </trkpt>
      <trkpt lat="46.28786" lon="4.73011">
        <ele>404</ele>
        <time>2014-09-28T10:27:34Z</time>
      </trkpt>
      <trkpt lat="46.28785" lon="4.73022">
        <ele>403</ele>
        <time>2014-09-28T10:27:35Z</time>
      </trkpt>
      <trkpt lat="46.28785" lon="4.73033">
        <ele>402</ele>
        <time>2014-09-28T10:27:36Z</time>
      </trkpt>
      <trkpt lat="46.28786" lon="4.73044">
        <ele>402</ele>
        <time>2014-09-28T10:27:37Z</time>
      </trkpt>
      <trkpt lat="46.28789" lon="4.73056">
        <ele>401</ele>
        <time>2014-09-28T10:27:38Z</time>
      </trkpt>
      <trkpt lat="46.28793" lon="4.73065">
        <ele>401</ele>
        <time>2014-09-28T10:27:39Z</time>
      </trkpt>
      <trkpt lat="46.28798" lon="4.73073">
        <ele>400</ele>
        <time>2014-09-28T10:27:40Z</time>
      </trkpt>
      <trkpt lat="46.28805" lon="4.7308">
        <ele>400</ele>
        <time>2014-09-28T10:27:41Z</time>
      </trkpt>
      <trkpt lat="46.28813" lon="4.73086">
        <ele>394</ele>
        <time>2014-09-28T10:27:42Z</time>
      </trkpt>
      <trkpt lat="46.28821" lon="4.73092">
        <ele>395</ele>
        <time>2014-09-28T10:27:43Z</time>
      </trkpt>
      <trkpt lat="46.28829" lon="4.73099">
        <ele>395</ele>
        <time>2014-09-28T10:27:44Z</time>
      </trkpt>
      <trkpt lat="46.28838" lon="4.73106">
        <ele>393</ele>
        <time>2014-09-28T10:27:45Z</time>
      </trkpt>
      <trkpt lat="46.28845" lon="4.73114">
        <ele>392</ele>
        <time>2014-09-28T10:27:46Z</time>
      </trkpt>
      <trkpt lat="46.28854" lon="4.73122">
        <ele>391</ele>
        <time>2014-09-28T10:27:47Z</time>
      </trkpt>
      <trkpt lat="46.28863" lon="4.7313">
        <ele>390</ele>
        <time>2014-09-28T10:27:48Z</time>
      </trkpt>
      <trkpt lat="46.28872" lon="4.73138">
        <ele>390</ele>
        <time>2014-09-28T10:27:49Z</time>
      </trkpt>
      <trkpt lat="46.28882" lon="4.73145">
        <ele>389</ele>
        <time>2014-09-28T10:27:50Z</time>
      </trkpt>
      <trkpt lat="46.28891" lon="4.73152">
        <ele>388</ele>
        <time>2014-09-28T10:27:51Z</time>
      </trkpt>
      <trkpt lat="46.28901" lon="4.7316">
        <ele>386</ele>
        <time>2014-09-28T10:27:52Z</time>
      </trkpt>
      <trkpt lat="46.28912" lon="4.73168">
        <ele>383</ele>
        <time>2014-09-28T10:27:53Z</time>
      </trkpt>
      <trkpt lat="46.28923" lon="4.73175">
        <ele>381</ele>
        <time>2014-09-28T10:27:54Z</time>
      </trkpt>
      <trkpt lat="46.28934" lon="4.73182">
        <ele>378</ele>
        <time>2014-09-28T10:27:55Z</time>
      </trkpt>
      <trkpt lat="46.28944" lon="4.73189">
        <ele>377</ele>
        <time>2014-09-28T10:27:56Z</time>
      </trkpt>
      <trkpt lat="46.28954" lon="4.73196">
        <ele>376</ele>
        <time>2014-09-28T10:27:57Z</time>
      </trkpt>
      <trkpt lat="46.28965" lon="4.73203">
        <ele>375</ele>
        <time>2014-09-28T10:27:58Z</time>
      </trkpt>
      <trkpt lat="46.28975" lon="4.73211">
        <ele>375</ele>
        <time>2014-09-28T10:27:59Z</time>
      </trkpt>
      <trkpt lat="46.28986" lon="4.73219">
        <ele>374</ele>
        <time>2014-09-28T10:28:00Z</time>
      </trkpt>
      <trkpt lat="46.28996" lon="4.73227">
        <ele>373</ele>
        <time>2014-09-28T10:28:01Z</time>
      </trkpt>
      <trkpt lat="46.29007" lon="4.73235">
        <ele>368</ele>
        <time>2014-09-28T10:28:02Z</time>
      </trkpt>
      <trkpt lat="46.29018" lon="4.73242">
        <ele>368</ele>
        <time>2014-09-28T10:28:03Z</time>
      </trkpt>
      <trkpt lat="46.29029" lon="4.73251">
        <ele>364</ele>
        <time>2014-09-28T10:28:04Z</time>
      </trkpt>
      <trkpt lat="46.2904" lon="4.73259">
        <ele>363</ele>
        <time>2014-09-28T10:28:05Z</time>
      </trkpt>
      <trkpt lat="46.29051" lon="4.73266">
        <ele>362</ele>
        <time>2014-09-28T10:28:06Z</time>
      </trkpt>
      <trkpt lat="46.29061" lon="4.73273">
        <ele>361</ele>
        <time>2014-09-28T10:28:07Z</time>
      </trkpt>
      <trkpt lat="46.29072" lon="4.7328">
        <ele>361</ele>
        <time>2014-09-28T10:28:08Z</time>
      </trkpt>
      <trkpt lat="46.29083" lon="4.73288">
        <ele>355</ele>
        <time>2014-09-28T10:28:09Z</time>
      </trkpt>
      <trkpt lat="46.29094" lon="4.73295">
        <ele>354</ele>
        <time>2014-09-28T10:28:10Z</time>
      </trkpt>
      <trkpt lat="46.29104" lon="4.73303">
        <ele>354</ele>
        <time>2014-09-28T10:28:11Z</time>
      </trkpt>
      <trkpt lat="46.29115" lon="4.73311">
        <ele>353</ele>
        <time>2014-09-28T10:28:12Z</time>
      </trkpt>
      <trkpt lat="46.29125" lon="4.73319">
        <ele>352</ele>
        <time>2014-09-28T10:28:13Z</time>
      </trkpt>
      <trkpt lat="46.29134" lon="4.73327">
        <ele>351</ele>
        <time>2014-09-28T10:28:14Z</time>
      </trkpt>
      <trkpt lat="46.29144" lon="4.73334">
        <ele>347</ele>
        <time>2014-09-28T10:28:15Z</time>
      </trkpt>
      <trkpt lat="46.29154" lon="4.73342">
        <ele>346</ele>
        <time>2014-09-28T10:28:16Z</time>
      </trkpt>
      <trkpt lat="46.29164" lon="4.73348">
        <ele>346</ele>
        <time>2014-09-28T10:28:17Z</time>
      </trkpt>
      <trkpt lat="46.29174" lon="4.73355">
        <ele>342</ele>
        <time>2014-09-28T10:28:18Z</time>
      </trkpt>
      <trkpt lat="46.29184" lon="4.73362">
        <ele>342</ele>
        <time>2014-09-28T10:28:19Z</time>
      </trkpt>
      <trkpt lat="46.29194" lon="4.73369">
        <ele>341</ele>
        <time>2014-09-28T10:28:20Z</time>
      </trkpt>
      <trkpt lat="46.29204" lon="4.73376">
        <ele>341</ele>
        <time>2014-09-28T10:28:21Z</time>
      </trkpt>
      <trkpt lat="46.29215" lon="4.73382">
        <ele>340</ele>
        <time>2014-09-28T10:28:22Z</time>
      </trkpt>
      <trkpt lat="46.29226" lon="4.73388">
        <ele>340</ele>
        <time>2014-09-28T10:28:23Z</time>
      </trkpt>
      <trkpt lat="46.29236" lon="4.73396">
        <ele>339</ele>
        <time>2014-09-28T10:28:24Z</time>
      </trkpt>
      <trkpt lat="46.29247" lon="4.73406">
        <ele>338</ele>
        <time>2014-09-28T10:28:25Z</time>
      </trkpt>
      <trkpt lat="46.29257" lon="4.73416">
        <ele>335</ele>
        <time>2014-09-28T10:28:26Z</time>
      </trkpt>
      <trkpt lat="46.29266" lon="4.73427">
        <ele>333</ele>
        <time>2014-09-28T10:28:27Z</time>
      </trkpt>
      <trkpt lat="46.29275" lon="4.73439">
        <ele>332</ele>
        <time>2014-09-28T10:28:28Z</time>
      </trkpt>
      <trkpt lat="46.29285" lon="4.7345">
        <ele>331</ele>
        <time>2014-09-28T10:28:29Z</time>
      </trkpt>
      <trkpt lat="46.29294" lon="4.73462">
        <ele>330</ele>
        <time>2014-09-28T10:28:30Z</time>
      </trkpt>
      <trkpt lat="46.29304" lon="4.73473">
        <ele>330</ele>
        <time>2014-09-28T10:28:31Z</time>
      </trkpt>
      <trkpt lat="46.29314" lon="4.73484">
        <ele>329</ele>
        <time>2014-09-28T10:28:32Z</time>
      </trkpt>
      <trkpt lat="46.29322" lon="4.73495">
        <ele>327</ele>
        <time>2014-09-28T10:28:33Z</time>
      </trkpt>
      <trkpt lat="46.2933" lon="4.73504">
        <ele>325</ele>
        <time>2014-09-28T10:28:34Z</time>
      </trkpt>
      <trkpt lat="46.29336" lon="4.7351">
        <ele>323</ele>
        <time>2014-09-28T10:28:35Z</time>
      </trkpt>
      <trkpt lat="46.29341" lon="4.73516">
        <ele>321</ele>
        <time>2014-09-28T10:28:36Z</time>
      </trkpt>
      <trkpt lat="46.29346" lon="4.73522">
        <ele>320</ele>
        <time>2014-09-28T10:28:37Z</time>
      </trkpt>
      <trkpt lat="46.29351" lon="4.73529">
        <ele>320</ele>
        <time>2014-09-28T10:28:38Z</time>
      </trkpt>
      <trkpt lat="46.29356" lon="4.73535">
        <ele>319</ele>
        <time>2014-09-28T10:28:39Z</time>
      </trkpt>
      <trkpt lat="46.29361" lon="4.73543">
        <ele>319</ele>
        <time>2014-09-28T10:28:40Z</time>
      </trkpt>
      <trkpt lat="46.29366" lon="4.73549">
        <ele>318</ele>
        <time>2014-09-28T10:28:41Z</time>
      </trkpt>
      <trkpt lat="46.29369" lon="4.73554">
        <ele>318</ele>
        <time>2014-09-28T10:28:42Z</time>
      </trkpt>
      <trkpt lat="46.29373" lon="4.73561">
        <ele>317</ele>
        <time>2014-09-28T10:28:43Z</time>
      </trkpt>
      <trkpt lat="46.29377" lon="4.73566">
        <ele>317</ele>
        <time>2014-09-28T10:28:44Z</time>
      </trkpt>
      <trkpt lat="46.29381" lon="4.73573">
        <ele>317</ele>
        <time>2014-09-28T10:28:45Z</time>
      </trkpt>
      <trkpt lat="46.29384" lon="4.73583">
        <ele>316</ele>
        <time>2014-09-28T10:28:46Z</time>
      </trkpt>
      <trkpt lat="46.29387" lon="4.73593">
        <ele>313</ele>
        <time>2014-09-28T10:28:47Z</time>
      </trkpt>
      <trkpt lat="46.29391" lon="4.73603">
        <ele>313</ele>
        <time>2014-09-28T10:28:48Z</time>
      </trkpt>
      <trkpt lat="46.29393" lon="4.73615">
        <ele>313</ele>
        <time>2014-09-28T10:28:49Z</time>
      </trkpt>
      <trkpt lat="46.29396" lon="4.73627">
        <ele>312</ele>
        <time>2014-09-28T10:28:50Z</time>
      </trkpt>
      <trkpt lat="46.29398" lon="4.73639">
        <ele>312</ele>
        <time>2014-09-28T10:28:51Z</time>
      </trkpt>
      <trkpt lat="46.294" lon="4.73651">
        <ele>311</ele>
        <time>2014-09-28T10:28:52Z</time>
      </trkpt>
      <trkpt lat="46.29403" lon="4.73661">
        <ele>310</ele>
        <time>2014-09-28T10:28:53Z</time>
      </trkpt>
      <trkpt lat="46.29406" lon="4.73671">
        <ele>307</ele>
        <time>2014-09-28T10:28:54Z</time>
      </trkpt>
      <trkpt lat="46.29409" lon="4.73681">
        <ele>307</ele>
        <time>2014-09-28T10:28:55Z</time>
      </trkpt>
      <trkpt lat="46.29412" lon="4.73689">
        <ele>306</ele>
        <time>2014-09-28T10:28:56Z</time>
      </trkpt>
      <trkpt lat="46.29416" lon="4.73696">
        <ele>306</ele>
        <time>2014-09-28T10:28:57Z</time>
      </trkpt>
      <trkpt lat="46.29419" lon="4.73701">
        <ele>300</ele>
        <time>2014-09-28T10:28:58Z</time>
      </trkpt>
      <trkpt lat="46.29424" lon="4.73704">
        <ele>300</ele>
        <time>2014-09-28T10:28:59Z</time>
      </trkpt>
      <trkpt lat="46.29429" lon="4.73704">
        <ele>300</ele>
        <time>2014-09-28T10:29:00Z</time>
      </trkpt>
      <trkpt lat="46.29434" lon="4.73701">
        <ele>300</ele>
        <time>2014-09-28T10:29:01Z</time>
      </trkpt>
      <trkpt lat="46.2944" lon="4.73696">
        <ele>299</ele>
        <time>2014-09-28T10:29:02Z</time>
      </trkpt>
      <trkpt lat="46.29446" lon="4.73691">
        <ele>299</ele>
        <time>2014-09-28T10:29:03Z</time>
      </trkpt>
      <trkpt lat="46.29452" lon="4.73685">
        <ele>299</ele>
        <time>2014-09-28T10:29:04Z</time>
      </trkpt>
      <trkpt lat="46.29459" lon="4.7368">
        <ele>298</ele>
        <time>2014-09-28T10:29:05Z</time>
      </trkpt>
      <trkpt lat="46.29466" lon="4.73673">
        <ele>298</ele>
        <time>2014-09-28T10:29:06Z</time>
      </trkpt>
      <trkpt lat="46.29472" lon="4.73665">
        <ele>299</ele>
        <time>2014-09-28T10:29:07Z</time>
      </trkpt>
      <trkpt lat="46.29477" lon="4.73657">
        <ele>299</ele>
        <time>2014-09-28T10:29:08Z</time>
      </trkpt>
      <trkpt lat="46.29482" lon="4.73648">
        <ele>299</ele>
        <time>2014-09-28T10:29:09Z</time>
      </trkpt>
      <trkpt lat="46.29488" lon="4.7364">
        <ele>299</ele>
        <time>2014-09-28T10:29:10Z</time>
      </trkpt>
      <trkpt lat="46.29493" lon="4.73632">
        <ele>299</ele>
        <time>2014-09-28T10:29:11Z</time>
      </trkpt>
      <trkpt lat="46.29497" lon="4.73623">
        <ele>299</ele>
        <time>2014-09-28T10:29:12Z</time>
      </trkpt>
      <trkpt lat="46.29501" lon="4.73615">
        <ele>290</ele>
        <time>2014-09-28T10:29:13Z</time>
      </trkpt>
      <trkpt lat="46.29505" lon="4.73605">
        <ele>291</ele>
        <time>2014-09-28T10:29:14Z</time>
      </trkpt>
      <trkpt lat="46.29508" lon="4.73596">
        <ele>292</ele>
        <time>2014-09-28T10:29:15Z</time>
      </trkpt>
      <trkpt lat="46.29511" lon="4.73586">
        <ele>293</ele>
        <time>2014-09-28T10:29:16Z</time>
      </trkpt>
      <trkpt lat="46.29513" lon="4.73577">
        <ele>292</ele>
        <time>2014-09-28T10:29:17Z</time>
      </trkpt>
      <trkpt lat="46.29516" lon="4.73568">
        <ele>291</ele>
        <time>2014-09-28T10:29:18Z</time>
      </trkpt>
      <trkpt lat="46.29518" lon="4.73558">
        <ele>290</ele>
        <time>2014-09-28T10:29:19Z</time>
      </trkpt>
      <trkpt lat="46.2952" lon="4.73548">
        <ele>290</ele>
        <time>2014-09-28T10:29:20Z</time>
      </trkpt>
      <trkpt lat="46.2952" lon="4.73537">
        <ele>290</ele>
        <time>2014-09-28T10:29:21Z</time>
      </trkpt>
      <trkpt lat="46.2952" lon="4.73526">
        <ele>290</ele>
        <time>2014-09-28T10:29:22Z</time>
      </trkpt>
      <trkpt lat="46.2952" lon="4.73515">
        <ele>291</ele>
        <time>2014-09-28T10:29:23Z</time>
      </trkpt>
      <trkpt lat="46.29521" lon="4.73505">
        <ele>291</ele>
        <time>2014-09-28T10:29:24Z</time>
      </trkpt>
      <trkpt lat="46.2952" lon="4.73493">
        <ele>291</ele>
        <time>2014-09-28T10:29:25Z</time>
      </trkpt>
      <trkpt lat="46.2952" lon="4.73483">
        <ele>291</ele>
        <time>2014-09-28T10:29:26Z</time>
      </trkpt>
      <trkpt lat="46.29519" lon="4.73473">
        <ele>291</ele>
        <time>2014-09-28T10:29:27Z</time>
      </trkpt>
      <trkpt lat="46.29518" lon="4.73464">
        <ele>290</ele>
        <time>2014-09-28T10:29:28Z</time>
      </trkpt>
      <trkpt lat="46.29518" lon="4.73454">
        <ele>291</ele>
        <time>2014-09-28T10:29:29Z</time>
      </trkpt>
      <trkpt lat="46.29517" lon="4.73445">
        <ele>291</ele>
        <time>2014-09-28T10:29:30Z</time>
      </trkpt>
      <trkpt lat="46.29516" lon="4.73436">
        <ele>292</ele>
        <time>2014-09-28T10:29:31Z</time>
      </trkpt>
      <trkpt lat="46.29516" lon="4.73428">
        <ele>293</ele>
        <time>2014-09-28T10:29:32Z</time>
      </trkpt>
      <trkpt lat="46.29515" lon="4.7342">
        <ele>293</ele>
        <time>2014-09-28T10:29:33Z</time>
      </trkpt>
      <trkpt lat="46.29514" lon="4.73411">
        <ele>294</ele>
        <time>2014-09-28T10:29:34Z</time>
      </trkpt>
      <trkpt lat="46.29513" lon="4.73402">
        <ele>293</ele>
        <time>2014-09-28T10:29:35Z</time>
      </trkpt>
      <trkpt lat="46.29513" lon="4.73394">
        <ele>292</ele>
        <time>2014-09-28T10:29:36Z</time>
      </trkpt>
      <trkpt lat="46.29513" lon="4.73386">
        <ele>292</ele>
        <time>2014-09-28T10:29:37Z</time>
      </trkpt>
      <trkpt lat="46.29513" lon="4.73377">
        <ele>292</ele>
        <time>2014-09-28T10:29:38Z</time>
      </trkpt>
      <trkpt lat="46.29513" lon="4.7337">
        <ele>292</ele>
        <time>2014-09-28T10:29:39Z</time>
      </trkpt>
      <trkpt lat="46.29513" lon="4.73363">
        <ele>292</ele>
        <time>2014-09-28T10:29:40Z</time>
      </trkpt>
      <trkpt lat="46.29513" lon="4.73356">
        <ele>293</ele>
        <time>2014-09-28T10:29:41Z</time>
      </trkpt>
      <trkpt lat="46.29513" lon="4.73348">
        <ele>294</ele>
        <time>2014-09-28T10:29:42Z</time>
      </trkpt>
      <trkpt lat="46.29512" lon="4.7334">
        <ele>295</ele>
        <time>2014-09-28T10:29:43Z</time>
      </trkpt>
      <trkpt lat="46.29512" lon="4.73333">
        <ele>295</ele>
        <time>2014-09-28T10:29:44Z</time>
      </trkpt>
      <trkpt lat="46.29511" lon="4.73325">
        <ele>294</ele>
        <time>2014-09-28T10:29:45Z</time>
      </trkpt>
      <trkpt lat="46.29511" lon="4.73317">
        <ele>294</ele>
        <time>2014-09-28T10:29:46Z</time>
      </trkpt>
      <trkpt lat="46.29511" lon="4.73309">
        <ele>293</ele>
        <time>2014-09-28T10:29:47Z</time>
      </trkpt>
      <trkpt lat="46.29511" lon="4.73301">
        <ele>292</ele>
        <time>2014-09-28T10:29:48Z</time>
      </trkpt>
      <trkpt lat="46.29509" lon="4.73293">
        <ele>292</ele>
        <time>2014-09-28T10:29:49Z</time>
      </trkpt>
      <trkpt lat="46.29509" lon="4.73285">
        <ele>292</ele>
        <time>2014-09-28T10:29:50Z</time>
      </trkpt>
      <trkpt lat="46.29508" lon="4.73277">
        <ele>293</ele>
        <time>2014-09-28T10:29:51Z</time>
      </trkpt>
      <trkpt lat="46.29507" lon="4.73268">
        <ele>294</ele>
        <time>2014-09-28T10:29:52Z</time>
      </trkpt>
      <trkpt lat="46.29507" lon="4.73259">
        <ele>295</ele>
        <time>2014-09-28T10:29:53Z</time>
      </trkpt>
      <trkpt lat="46.29506" lon="4.7325">
        <ele>297</ele>
        <time>2014-09-28T10:29:54Z</time>
      </trkpt>
      <trkpt lat="46.29507" lon="4.73241">
        <ele>295</ele>
        <time>2014-09-28T10:29:55Z</time>
      </trkpt>
      <trkpt lat="46.29506" lon="4.73231">
        <ele>293</ele>
        <time>2014-09-28T10:29:56Z</time>
      </trkpt>
      <trkpt lat="46.29506" lon="4.73222">
        <ele>291</ele>
        <time>2014-09-28T10:29:57Z</time>
      </trkpt>
      <trkpt lat="46.29506" lon="4.73213">
        <ele>291</ele>
        <time>2014-09-28T10:29:58Z</time>
      </trkpt>
      <trkpt lat="46.29506" lon="4.73204">
        <ele>290</ele>
        <time>2014-09-28T10:29:59Z</time>
      </trkpt>
      <trkpt lat="46.29507" lon="4.73196">
        <ele>290</ele>
        <time>2014-09-28T10:30:00Z</time>
      </trkpt>
      <trkpt lat="46.29509" lon="4.73186">
        <ele>291</ele>
        <time>2014-09-28T10:30:02Z</time>
      </trkpt>
      <trkpt lat="46.29511" lon="4.73178">
        <ele>291</ele>
        <time>2014-09-28T10:30:03Z</time>
      </trkpt>
      <trkpt lat="46.29512" lon="4.7317">
        <ele>292</ele>
        <time>2014-09-28T10:30:04Z</time>
      </trkpt>
      <trkpt lat="46.29513" lon="4.73162">
        <ele>290</ele>
        <time>2014-09-28T10:30:05Z</time>
      </trkpt>
      <trkpt lat="46.29516" lon="4.73153">
        <ele>288</ele>
        <time>2014-09-28T10:30:06Z</time>
      </trkpt>
      <trkpt lat="46.29519" lon="4.73145">
        <ele>287</ele>
        <time>2014-09-28T10:30:07Z</time>
      </trkpt>
      <trkpt lat="46.29522" lon="4.73139">
        <ele>286</ele>
        <time>2014-09-28T10:30:08Z</time>
      </trkpt>
      <trkpt lat="46.29524" lon="4.73133">
        <ele>285</ele>
        <time>2014-09-28T10:30:09Z</time>
      </trkpt>
      <trkpt lat="46.29528" lon="4.73122">
        <ele>285</ele>
        <time>2014-09-28T10:30:11Z</time>
      </trkpt>
      <trkpt lat="46.29529" lon="4.73116">
        <ele>284</ele>
        <time>2014-09-28T10:30:12Z</time>
      </trkpt>
      <trkpt lat="46.29529" lon="4.7311">
        <ele>284</ele>
        <time>2014-09-28T10:30:13Z</time>
      </trkpt>
      <trkpt lat="46.2953" lon="4.73103">
        <ele>284</ele>
        <time>2014-09-28T10:30:14Z</time>
      </trkpt>
      <trkpt lat="46.29529" lon="4.73095">
        <ele>284</ele>
        <time>2014-09-28T10:30:15Z</time>
      </trkpt>
      <trkpt lat="46.29529" lon="4.73087">
        <ele>284</ele>
        <time>2014-09-28T10:30:16Z</time>
      </trkpt>
      <trkpt lat="46.29527" lon="4.73079">
        <ele>281</ele>
        <time>2014-09-28T10:30:17Z</time>
      </trkpt>
      <trkpt lat="46.29525" lon="4.73072">
        <ele>281</ele>
        <time>2014-09-28T10:30:18Z</time>
      </trkpt>
      <trkpt lat="46.29523" lon="4.73066">
        <ele>281</ele>
        <time>2014-09-28T10:30:19Z</time>
      </trkpt>
      <trkpt lat="46.29521" lon="4.7306">
        <ele>281</ele>
        <time>2014-09-28T10:30:20Z</time>
      </trkpt>
      <trkpt lat="46.2952" lon="4.7305">
        <ele>281</ele>
        <time>2014-09-28T10:30:22Z</time>
      </trkpt>
      <trkpt lat="46.29521" lon="4.73045">
        <ele>280</ele>
        <time>2014-09-28T10:30:23Z</time>
      </trkpt>
      <trkpt lat="46.29529" lon="4.73038">
        <ele>280</ele>
        <time>2014-09-28T10:30:29Z</time>
      </trkpt>
      <trkpt lat="46.29531" lon="4.73039">
        <ele>280</ele>
        <time>2014-09-28T10:30:30Z</time>
      </trkpt>
      <trkpt lat="46.29538" lon="4.73039">
        <ele>280</ele>
        <time>2014-09-28T10:30:32Z</time>
      </trkpt>
      <trkpt lat="46.29543" lon="4.7304">
        <ele>279</ele>
        <time>2014-09-28T10:30:33Z</time>
      </trkpt>
      <trkpt lat="46.2955" lon="4.7304">
        <ele>279</ele>
        <time>2014-09-28T10:30:34Z</time>
      </trkpt>
      <trkpt lat="46.29555" lon="4.73041">
        <ele>279</ele>
        <time>2014-09-28T10:30:35Z</time>
      </trkpt>
      <trkpt lat="46.29561" lon="4.73041">
        <ele>279</ele>
        <time>2014-09-28T10:30:36Z</time>
      </trkpt>
      <trkpt lat="46.29566" lon="4.73041">
        <ele>279</ele>
        <time>2014-09-28T10:30:37Z</time>
      </trkpt>
      <trkpt lat="46.29572" lon="4.73041">
        <ele>279</ele>
        <time>2014-09-28T10:30:38Z</time>
      </trkpt>
      <trkpt lat="46.29577" lon="4.73038">
        <ele>279</ele>
        <time>2014-09-28T10:30:39Z</time>
      </trkpt>
      <trkpt lat="46.29581" lon="4.73034">
        <ele>278</ele>
        <time>2014-09-28T10:30:40Z</time>
      </trkpt>
      <trkpt lat="46.29585" lon="4.73029">
        <ele>280</ele>
        <time>2014-09-28T10:30:41Z</time>
      </trkpt>
      <trkpt lat="46.29587" lon="4.73023">
        <ele>280</ele>
        <time>2014-09-28T10:30:42Z</time>
      </trkpt>
      <trkpt lat="46.2959" lon="4.73016">
        <ele>280</ele>
        <time>2014-09-28T10:30:43Z</time>
      </trkpt>
      <trkpt lat="46.29592" lon="4.73009">
        <ele>279</ele>
        <time>2014-09-28T10:30:44Z</time>
      </trkpt>
      <trkpt lat="46.29594" lon="4.73003">
        <ele>279</ele>
        <time>2014-09-28T10:30:45Z</time>
      </trkpt>
      <trkpt lat="46.29596" lon="4.72996">
        <ele>280</ele>
        <time>2014-09-28T10:30:46Z</time>
      </trkpt>
      <trkpt lat="46.29598" lon="4.7299">
        <ele>281</ele>
        <time>2014-09-28T10:30:47Z</time>
      </trkpt>
      <trkpt lat="46.29603" lon="4.72981">
        <ele>282</ele>
        <time>2014-09-28T10:30:49Z</time>
      </trkpt>
      <trkpt lat="46.29606" lon="4.72976">
        <ele>282</ele>
        <time>2014-09-28T10:30:50Z</time>
      </trkpt>
      <trkpt lat="46.29611" lon="4.72967">
        <ele>283</ele>
        <time>2014-09-28T10:30:52Z</time>
      </trkpt>
      <trkpt lat="46.29614" lon="4.72963">
        <ele>283</ele>
        <time>2014-09-28T10:30:53Z</time>
      </trkpt>
      <trkpt lat="46.29619" lon="4.72956">
        <ele>284</ele>
        <time>2014-09-28T10:30:55Z</time>
      </trkpt>
      <trkpt lat="46.2962" lon="4.72953">
        <ele>284</ele>
        <time>2014-09-28T10:30:56Z</time>
      </trkpt>
      <trkpt lat="46.29623" lon="4.72941">
        <ele>284</ele>
        <time>2014-09-28T10:30:59Z</time>
      </trkpt>
      <trkpt lat="46.29624" lon="4.72937">
        <ele>284</ele>
        <time>2014-09-28T10:31:00Z</time>
      </trkpt>
      <trkpt lat="46.29625" lon="4.72928">
        <ele>284</ele>
        <time>2014-09-28T10:31:02Z</time>
      </trkpt>
      <trkpt lat="46.29625" lon="4.72923">
        <ele>285</ele>
        <time>2014-09-28T10:31:03Z</time>
      </trkpt>
      <trkpt lat="46.29627" lon="4.72914">
        <ele>286</ele>
        <time>2014-09-28T10:31:05Z</time>
      </trkpt>
      <trkpt lat="46.29627" lon="4.72909">
        <ele>286</ele>
        <time>2014-09-28T10:31:06Z</time>
      </trkpt>
      <trkpt lat="46.29628" lon="4.729">
        <ele>286</ele>
        <time>2014-09-28T10:31:08Z</time>
      </trkpt>
      <trkpt lat="46.29629" lon="4.72895">
        <ele>286</ele>
        <time>2014-09-28T10:31:09Z</time>
      </trkpt>
      <trkpt lat="46.2963" lon="4.72887">
        <ele>287</ele>
        <time>2014-09-28T10:31:11Z</time>
      </trkpt>
      <trkpt lat="46.2963" lon="4.72882">
        <ele>287</ele>
        <time>2014-09-28T10:31:12Z</time>
      </trkpt>
      <trkpt lat="46.29632" lon="4.7287">
        <ele>287</ele>
        <time>2014-09-28T10:31:15Z</time>
      </trkpt>
      <trkpt lat="46.29633" lon="4.72866">
        <ele>287</ele>
        <time>2014-09-28T10:31:16Z</time>
      </trkpt>
      <trkpt lat="46.29635" lon="4.72855">
        <ele>288</ele>
        <time>2014-09-28T10:31:19Z</time>
      </trkpt>
      <trkpt lat="46.29636" lon="4.72851">
        <ele>288</ele>
        <time>2014-09-28T10:31:20Z</time>
      </trkpt>
      <trkpt lat="46.2964" lon="4.72841">
        <ele>289</ele>
        <time>2014-09-28T10:31:23Z</time>
      </trkpt>
      <trkpt lat="46.29641" lon="4.72837">
        <ele>289</ele>
        <time>2014-09-28T10:31:24Z</time>
      </trkpt>
      <trkpt lat="46.29644" lon="4.72827">
        <ele>291</ele>
        <time>2014-09-28T10:31:27Z</time>
      </trkpt>
      <trkpt lat="46.29645" lon="4.72825">
        <ele>291</ele>
        <time>2014-09-28T10:31:28Z</time>
      </trkpt>
      <trkpt lat="46.29642" lon="4.72816">
        <ele>291</ele>
        <time>2014-09-28T10:31:32Z</time>
      </trkpt>
      <trkpt lat="46.29639" lon="4.72814">
        <ele>291</ele>
        <time>2014-09-28T10:31:33Z</time>
      </trkpt>
      <trkpt lat="46.29632" lon="4.72807">
        <ele>290</ele>
        <time>2014-09-28T10:31:35Z</time>
      </trkpt>
      <trkpt lat="46.29628" lon="4.72804">
        <ele>290</ele>
        <time>2014-09-28T10:31:36Z</time>
      </trkpt>
      <trkpt lat="46.29621" lon="4.72796">
        <ele>290</ele>
        <time>2014-09-28T10:31:38Z</time>
      </trkpt>
      <trkpt lat="46.29618" lon="4.72793">
        <ele>290</ele>
        <time>2014-09-28T10:31:39Z</time>
      </trkpt>
      <trkpt lat="46.29613" lon="4.72788">
        <ele>289</ele>
        <time>2014-09-28T10:31:40Z</time>
      </trkpt>
      <trkpt lat="46.29609" lon="4.72784">
        <ele>289</ele>
        <time>2014-09-28T10:31:41Z</time>
      </trkpt>
      <trkpt lat="46.29606" lon="4.7278">
        <ele>289</ele>
        <time>2014-09-28T10:31:42Z</time>
      </trkpt>
      <trkpt lat="46.29602" lon="4.72775">
        <ele>289</ele>
        <time>2014-09-28T10:31:43Z</time>
      </trkpt>
      <trkpt lat="46.29598" lon="4.7277">
        <ele>289</ele>
        <time>2014-09-28T10:31:44Z</time>
      </trkpt>
      <trkpt lat="46.29594" lon="4.72766">
        <ele>288</ele>
        <time>2014-09-28T10:31:45Z</time>
      </trkpt>
      <trkpt lat="46.29589" lon="4.72761">
        <ele>288</ele>
        <time>2014-09-28T10:31:46Z</time>
      </trkpt>
      <trkpt lat="46.29585" lon="4.72756">
        <ele>288</ele>
        <time>2014-09-28T10:31:47Z</time>
      </trkpt>
      <trkpt lat="46.29581" lon="4.72752">
        <ele>287</ele>
        <time>2014-09-28T10:31:48Z</time>
      </trkpt>
      <trkpt lat="46.29577" lon="4.72746">
        <ele>287</ele>
        <time>2014-09-28T10:31:49Z</time>
      </trkpt>
      <trkpt lat="46.29572" lon="4.72736">
        <ele>288</ele>
        <time>2014-09-28T10:31:51Z</time>
      </trkpt>
      <trkpt lat="46.29569" lon="4.7273">
        <ele>288</ele>
        <time>2014-09-28T10:31:52Z</time>
      </trkpt>
      <trkpt lat="46.29566" lon="4.72725">
        <ele>288</ele>
        <time>2014-09-28T10:31:53Z</time>
      </trkpt>
      <trkpt lat="46.29563" lon="4.7272">
        <ele>288</ele>
        <time>2014-09-28T10:31:54Z</time>
      </trkpt>
      <trkpt lat="46.29561" lon="4.72708">
        <ele>289</ele>
        <time>2014-09-28T10:31:56Z</time>
      </trkpt>
      <trkpt lat="46.29562" lon="4.72704">
        <ele>289</ele>
        <time>2014-09-28T10:31:57Z</time>
      </trkpt>
      <trkpt lat="46.29568" lon="4.72696">
        <ele>290</ele>
        <time>2014-09-28T10:32:02Z</time>
      </trkpt>
      <trkpt lat="46.2957" lon="4.72694">
        <ele>290</ele>
        <time>2014-09-28T10:32:03Z</time>
      </trkpt>
      <trkpt lat="46.29575" lon="4.72683">
        <ele>291</ele>
        <time>2014-09-28T10:32:08Z</time>
      </trkpt>
      <trkpt lat="46.29576" lon="4.72681">
        <ele>291</ele>
        <time>2014-09-28T10:32:09Z</time>
      </trkpt>
      <trkpt lat="46.29582" lon="4.72673">
        <ele>292</ele>
        <time>2014-09-28T10:32:14Z</time>
      </trkpt>
      <trkpt lat="46.29584" lon="4.72671">
        <ele>293</ele>
        <time>2014-09-28T10:32:15Z</time>
      </trkpt>
      <trkpt lat="46.29589" lon="4.72662">
        <ele>295</ele>
        <time>2014-09-28T10:32:20Z</time>
      </trkpt>
      <trkpt lat="46.2959" lon="4.72661">
        <ele>296</ele>
        <time>2014-09-28T10:32:21Z</time>
      </trkpt>
      <trkpt lat="46.29596" lon="4.72656">
        <ele>297</ele>
        <time>2014-09-28T10:32:43Z</time>
      </trkpt>
      <trkpt lat="46.29598" lon="4.72654">
        <ele>298</ele>
        <time>2014-09-28T10:32:44Z</time>
      </trkpt>
      <trkpt lat="46.29604" lon="4.72644">
        <ele>299</ele>
        <time>2014-09-28T10:32:49Z</time>
      </trkpt>
      <trkpt lat="46.29605" lon="4.72643">
        <ele>299</ele>
        <time>2014-09-28T10:32:50Z</time>
      </trkpt>
      <trkpt lat="46.2961" lon="4.72633">
        <ele>301</ele>
        <time>2014-09-28T10:32:55Z</time>
      </trkpt>
      <trkpt lat="46.29611" lon="4.72632">
        <ele>301</ele>
        <time>2014-09-28T10:32:56Z</time>
      </trkpt>
      <trkpt lat="46.29609" lon="4.7262">
        <ele>301</ele>
        <time>2014-09-28T10:33:01Z</time>
      </trkpt>
      <trkpt lat="46.29609" lon="4.72618">
        <ele>301</ele>
        <time>2014-09-28T10:33:02Z</time>
      </trkpt>
      <trkpt lat="46.29603" lon="4.72608">
        <ele>302</ele>
        <time>2014-09-28T10:33:07Z</time>
      </trkpt>
      <trkpt lat="46.29602" lon="4.72606">
        <ele>302</ele>
        <time>2014-09-28T10:33:08Z</time>
      </trkpt>
      <trkpt lat="46.29602" lon="4.72593">
        <ele>302</ele>
        <time>2014-09-28T10:33:15Z</time>
      </trkpt>
      <trkpt lat="46.29603" lon="4.72592">
        <ele>302</ele>
        <time>2014-09-28T10:33:16Z</time>
      </trkpt>
      <trkpt lat="46.2961" lon="4.72584">
        <ele>302</ele>
        <time>2014-09-28T10:33:22Z</time>
      </trkpt>
      <trkpt lat="46.29611" lon="4.72583">
        <ele>308</ele>
        <time>2014-09-28T10:33:23Z</time>
      </trkpt>
      <trkpt lat="46.29617" lon="4.72575">
        <ele>309</ele>
        <time>2014-09-28T10:33:29Z</time>
      </trkpt>
      <trkpt lat="46.29618" lon="4.72573">
        <ele>309</ele>
        <time>2014-09-28T10:33:30Z</time>
      </trkpt>
      <trkpt lat="46.29624" lon="4.72567">
        <ele>310</ele>
        <time>2014-09-28T10:33:36Z</time>
      </trkpt>
      <trkpt lat="46.29625" lon="4.72566">
        <ele>310</ele>
        <time>2014-09-28T10:33:37Z</time>
      </trkpt>
      <trkpt lat="46.29632" lon="4.7256">
        <ele>310</ele>
        <time>2014-09-28T10:33:43Z</time>
      </trkpt>
      <trkpt lat="46.29633" lon="4.72559">
        <ele>310</ele>
        <time>2014-09-28T10:33:44Z</time>
      </trkpt>
      <trkpt lat="46.2964" lon="4.72552">
        <ele>311</ele>
        <time>2014-09-28T10:33:49Z</time>
      </trkpt>
      <trkpt lat="46.29641" lon="4.7255">
        <ele>311</ele>
        <time>2014-09-28T10:33:50Z</time>
      </trkpt>
      <trkpt lat="46.29648" lon="4.72545">
        <ele>312</ele>
        <time>2014-09-28T10:33:56Z</time>
      </trkpt>
      <trkpt lat="46.2965" lon="4.72545">
        <ele>312</ele>
        <time>2014-09-28T10:33:57Z</time>
      </trkpt>
      <trkpt lat="46.29655" lon="4.72534">
        <ele>313</ele>
        <time>2014-09-28T10:34:05Z</time>
      </trkpt>
      <trkpt lat="46.29656" lon="4.72533">
        <ele>313</ele>
        <time>2014-09-28T10:34:06Z</time>
      </trkpt>
      <trkpt lat="46.29661" lon="4.72524">
        <ele>314</ele>
        <time>2014-09-28T10:34:11Z</time>
      </trkpt>
      <trkpt lat="46.29662" lon="4.72523">
        <ele>314</ele>
        <time>2014-09-28T10:34:12Z</time>
      </trkpt>
      <trkpt lat="46.29668" lon="4.72513">
        <ele>319</ele>
        <time>2014-09-28T10:34:17Z</time>
      </trkpt>
      <trkpt lat="46.29668" lon="4.72511">
        <ele>319</ele>
        <time>2014-09-28T10:34:18Z</time>
      </trkpt>
      <trkpt lat="46.29661" lon="4.72502">
        <ele>317</ele>
        <time>2014-09-28T10:34:23Z</time>
      </trkpt>
      <trkpt lat="46.2966" lon="4.72501">
        <ele>317</ele>
        <time>2014-09-28T10:34:24Z</time>
      </trkpt>
      <trkpt lat="46.29653" lon="4.72495">
        <ele>320</ele>
        <time>2014-09-28T10:34:29Z</time>
      </trkpt>
      <trkpt lat="46.29651" lon="4.72494">
        <ele>320</ele>
        <time>2014-09-28T10:34:30Z</time>
      </trkpt>
      <trkpt lat="46.29646" lon="4.72485">
        <ele>320</ele>
        <time>2014-09-28T10:34:35Z</time>
      </trkpt>
      <trkpt lat="46.29646" lon="4.72482">
        <ele>320</ele>
        <time>2014-09-28T10:34:36Z</time>
      </trkpt>
      <trkpt lat="46.29644" lon="4.7247">
        <ele>321</ele>
        <time>2014-09-28T10:34:40Z</time>
      </trkpt>
      <trkpt lat="46.29644" lon="4.72467">
        <ele>321</ele>
        <time>2014-09-28T10:34:41Z</time>
      </trkpt>
      <trkpt lat="46.29643" lon="4.72458">
        <ele>321</ele>
        <time>2014-09-28T10:34:44Z</time>
      </trkpt>
      <trkpt lat="46.29643" lon="4.72454">
        <ele>321</ele>
        <time>2014-09-28T10:34:45Z</time>
      </trkpt>
      <trkpt lat="46.29643" lon="4.72443">
        <ele>322</ele>
        <time>2014-09-28T10:34:49Z</time>
      </trkpt>
      <trkpt lat="46.29643" lon="4.7244">
        <ele>323</ele>
        <time>2014-09-28T10:34:50Z</time>
      </trkpt>
      <trkpt lat="46.29641" lon="4.72428">
        <ele>323</ele>
        <time>2014-09-28T10:34:54Z</time>
      </trkpt>
      <trkpt lat="46.29639" lon="4.72426">
        <ele>323</ele>
        <time>2014-09-28T10:34:55Z</time>
      </trkpt>
      <trkpt lat="46.29632" lon="4.72421">
        <ele>323</ele>
        <time>2014-09-28T10:34:58Z</time>
      </trkpt>
      <trkpt lat="46.29629" lon="4.72419">
        <ele>322</ele>
        <time>2014-09-28T10:34:59Z</time>
      </trkpt>
      <trkpt lat="46.29622" lon="4.72411">
        <ele>327</ele>
        <time>2014-09-28T10:35:02Z</time>
      </trkpt>
      <trkpt lat="46.2962" lon="4.72408">
        <ele>327</ele>
        <time>2014-09-28T10:35:03Z</time>
      </trkpt>
      <trkpt lat="46.29616" lon="4.724">
        <ele>327</ele>
        <time>2014-09-28T10:35:05Z</time>
      </trkpt>
      <trkpt lat="46.29613" lon="4.72396">
        <ele>327</ele>
        <time>2014-09-28T10:35:06Z</time>
      </trkpt>
      <trkpt lat="46.2961" lon="4.72391">
        <ele>327</ele>
        <time>2014-09-28T10:35:07Z</time>
      </trkpt>
      <trkpt lat="46.29605" lon="4.72384">
        <ele>327</ele>
        <time>2014-09-28T10:35:08Z</time>
      </trkpt>
      <trkpt lat="46.29601" lon="4.72375">
        <ele>327</ele>
        <time>2014-09-28T10:35:10Z</time>
      </trkpt>
      <trkpt lat="46.29599" lon="4.72371">
        <ele>327</ele>
        <time>2014-09-28T10:35:11Z</time>
      </trkpt>
      <trkpt lat="46.29593" lon="4.72363">
        <ele>328</ele>
        <time>2014-09-28T10:35:13Z</time>
      </trkpt>
      <trkpt lat="46.2959" lon="4.72359">
        <ele>328</ele>
        <time>2014-09-28T10:35:14Z</time>
      </trkpt>
      <trkpt lat="46.29586" lon="4.72354">
        <ele>328</ele>
        <time>2014-09-28T10:35:15Z</time>
      </trkpt>
      <trkpt lat="46.29583" lon="4.7235">
        <ele>324</ele>
        <time>2014-09-28T10:35:16Z</time>
      </trkpt>
      <trkpt lat="46.29578" lon="4.72345">
        <ele>325</ele>
        <time>2014-09-28T10:35:17Z</time>
      </trkpt>
      <trkpt lat="46.29576" lon="4.72341">
        <ele>325</ele>
        <time>2014-09-28T10:35:18Z</time>
      </trkpt>
      <trkpt lat="46.29571" lon="4.72332">
        <ele>328</ele>
        <time>2014-09-28T10:35:20Z</time>
      </trkpt>
      <trkpt lat="46.29568" lon="4.72327">
        <ele>328</ele>
        <time>2014-09-28T10:35:21Z</time>
      </trkpt>
      <trkpt lat="46.29563" lon="4.72317">
        <ele>328</ele>
        <time>2014-09-28T10:35:23Z</time>
      </trkpt>
      <trkpt lat="46.2956" lon="4.72312">
        <ele>328</ele>
        <time>2014-09-28T10:35:24Z</time>
      </trkpt>
      <trkpt lat="46.29555" lon="4.72302">
        <ele>328</ele>
        <time>2014-09-28T10:35:26Z</time>
      </trkpt>
      <trkpt lat="46.29553" lon="4.72298">
        <ele>328</ele>
        <time>2014-09-28T10:35:27Z</time>
      </trkpt>
      <trkpt lat="46.29548" lon="4.72289">
        <ele>328</ele>
        <time>2014-09-28T10:35:29Z</time>
      </trkpt>
      <trkpt lat="46.29545" lon="4.72285">
        <ele>328</ele>
        <time>2014-09-28T10:35:30Z</time>
      </trkpt>
      <trkpt lat="46.29541" lon="4.72277">
        <ele>328</ele>
        <time>2014-09-28T10:35:32Z</time>
      </trkpt>
      <trkpt lat="46.29538" lon="4.72273">
        <ele>328</ele>
        <time>2014-09-28T10:35:33Z</time>
      </trkpt>
      <trkpt lat="46.29533" lon="4.72264">
        <ele>328</ele>
        <time>2014-09-28T10:35:36Z</time>
      </trkpt>
      <trkpt lat="46.29532" lon="4.72262">
        <ele>328</ele>
        <time>2014-09-28T10:35:37Z</time>
      </trkpt>
      <trkpt lat="46.29529" lon="4.72251">
        <ele>328</ele>
        <time>2014-09-28T10:35:44Z</time>
      </trkpt>
      <trkpt lat="46.29531" lon="4.72249">
        <ele>333</ele>
        <time>2014-09-28T10:35:45Z</time>
      </trkpt>
      <trkpt lat="46.29538" lon="4.72242">
        <ele>333</ele>
        <time>2014-09-28T10:35:51Z</time>
      </trkpt>
      <trkpt lat="46.29539" lon="4.72242">
        <ele>333</ele>
        <time>2014-09-28T10:35:52Z</time>
      </trkpt>
      <trkpt lat="46.29545" lon="4.72249">
        <ele>334</ele>
        <time>2014-09-28T10:35:57Z</time>
      </trkpt>
      <trkpt lat="46.29547" lon="4.72251">
        <ele>329</ele>
        <time>2014-09-28T10:35:58Z</time>
      </trkpt>
      <trkpt lat="46.29552" lon="4.72258">
        <ele>330</ele>
        <time>2014-09-28T10:36:01Z</time>
      </trkpt>
      <trkpt lat="46.29554" lon="4.72261">
        <ele>330</ele>
        <time>2014-09-28T10:36:02Z</time>
      </trkpt>
      <trkpt lat="46.2956" lon="4.72267">
        <ele>330</ele>
        <time>2014-09-28T10:36:05Z</time>
      </trkpt>
      <trkpt lat="46.29562" lon="4.72268">
        <ele>330</ele>
        <time>2014-09-28T10:36:06Z</time>
      </trkpt>
      <trkpt lat="46.29568" lon="4.72259">
        <ele>331</ele>
        <time>2014-09-28T10:36:12Z</time>
      </trkpt>
      <trkpt lat="46.29568" lon="4.72258">
        <ele>331</ele>
        <time>2014-09-28T10:36:13Z</time>
      </trkpt>
      <trkpt lat="46.29574" lon="4.72249">
        <ele>335</ele>
        <time>2014-09-28T10:36:43Z</time>
      </trkpt>
      <trkpt lat="46.29575" lon="4.72246">
        <ele>335</ele>
        <time>2014-09-28T10:36:44Z</time>
      </trkpt>
      <trkpt lat="46.29581" lon="4.72237">
        <ele>335</ele>
        <time>2014-09-28T10:36:48Z</time>
      </trkpt>
      <trkpt lat="46.29582" lon="4.72235">
        <ele>335</ele>
        <time>2014-09-28T10:36:49Z</time>
      </trkpt>
      <trkpt lat="46.29587" lon="4.72227">
        <ele>341</ele>
        <time>2014-09-28T10:36:53Z</time>
      </trkpt>
      <trkpt lat="46.29588" lon="4.72225">
        <ele>341</ele>
        <time>2014-09-28T10:36:54Z</time>
      </trkpt>
      <trkpt lat="46.29594" lon="4.72217">
        <ele>343</ele>
        <time>2014-09-28T10:36:59Z</time>
      </trkpt>
      <trkpt lat="46.29596" lon="4.72215">
        <ele>343</ele>
        <time>2014-09-28T10:37:00Z</time>
      </trkpt>
      <trkpt lat="46.29602" lon="4.72207">
        <ele>344</ele>
        <time>2014-09-28T10:37:05Z</time>
      </trkpt>
      <trkpt lat="46.29603" lon="4.72206">
        <ele>344</ele>
        <time>2014-09-28T10:37:06Z</time>
      </trkpt>
      <trkpt lat="46.29609" lon="4.72199">
        <ele>345</ele>
        <time>2014-09-28T10:37:11Z</time>
      </trkpt>
      <trkpt lat="46.2961" lon="4.72197">
        <ele>345</ele>
        <time>2014-09-28T10:37:12Z</time>
      </trkpt>
      <trkpt lat="46.29616" lon="4.72189">
        <ele>346</ele>
        <time>2014-09-28T10:37:18Z</time>
      </trkpt>
      <trkpt lat="46.29617" lon="4.72188">
        <ele>346</ele>
        <time>2014-09-28T10:37:19Z</time>
      </trkpt>
      <trkpt lat="46.29622" lon="4.7218">
        <ele>347</ele>
        <time>2014-09-28T10:37:25Z</time>
      </trkpt>
      <trkpt lat="46.29623" lon="4.72179">
        <ele>347</ele>
        <time>2014-09-28T10:37:26Z</time>
      </trkpt>
      <trkpt lat="46.2963" lon="4.72172">
        <ele>348</ele>
        <time>2014-09-28T10:37:33Z</time>
      </trkpt>
      <trkpt lat="46.29631" lon="4.72171">
        <ele>348</ele>
        <time>2014-09-28T10:37:34Z</time>
      </trkpt>
      <trkpt lat="46.29637" lon="4.72162">
        <ele>354</ele>
        <time>2014-09-28T10:37:41Z</time>
      </trkpt>
      <trkpt lat="46.29638" lon="4.7216">
        <ele>355</ele>
        <time>2014-09-28T10:37:42Z</time>
      </trkpt>
      <trkpt lat="46.29643" lon="4.72152">
        <ele>355</ele>
        <time>2014-09-28T10:37:48Z</time>
      </trkpt>
      <trkpt lat="46.29644" lon="4.72151">
        <ele>355</ele>
        <time>2014-09-28T10:37:49Z</time>
      </trkpt>
      <trkpt lat="46.29649" lon="4.72142">
        <ele>356</ele>
        <time>2014-09-28T10:37:55Z</time>
      </trkpt>
      <trkpt lat="46.2965" lon="4.72141">
        <ele>356</ele>
        <time>2014-09-28T10:37:56Z</time>
      </trkpt>
      <trkpt lat="46.29656" lon="4.72133">
        <ele>357</ele>
        <time>2014-09-28T10:38:02Z</time>
      </trkpt>
      <trkpt lat="46.29657" lon="4.72132">
        <ele>357</ele>
        <time>2014-09-28T10:38:03Z</time>
      </trkpt>
      <trkpt lat="46.29663" lon="4.72124">
        <ele>358</ele>
        <time>2014-09-28T10:38:09Z</time>
      </trkpt>
      <trkpt lat="46.29664" lon="4.72122">
        <ele>358</ele>
        <time>2014-09-28T10:38:10Z</time>
      </trkpt>
      <trkpt lat="46.2967" lon="4.72116">
        <ele>366</ele>
        <time>2014-09-28T10:38:16Z</time>
      </trkpt>
      <trkpt lat="46.29671" lon="4.72115">
        <ele>366</ele>
        <time>2014-09-28T10:38:17Z</time>
      </trkpt>
      <trkpt lat="46.29672" lon="4.72102">
        <ele>367</ele>
        <time>2014-09-28T10:38:30Z</time>
      </trkpt>
      <trkpt lat="46.29671" lon="4.721">
        <ele>367</ele>
        <time>2014-09-28T10:38:31Z</time>
      </trkpt>
      <trkpt lat="46.29673" lon="4.72089">
        <ele>367</ele>
        <time>2014-09-28T10:38:39Z</time>
      </trkpt>
      <trkpt lat="46.29674" lon="4.72088">
        <ele>367</ele>
        <time>2014-09-28T10:38:40Z</time>
      </trkpt>
    </trkseg>
  </trk>
</gpx>